<?xml version="1.0" encoding="UTF-8" standalone="no" ?>
<gpx xmlns="http://www.topografix.com/GPX/1/1" xmlns:xsi="http://www.w3.org/2001/XMLSchema-instance" xsi:schemaLocation="http://www.topografix.com/GPX/1/1 http://www.topografix.com/GPX/1/1/gpx.xsd" version="1.1" creator="VisuGPX - https://www.visugpx.com">
  <metadata>
    <name>Mt d\'or VTT (Couzon au Mt d\'or)</name>
    <desc><![CDATA[VTT dans les monts d\'or au départ de Couzon au Mt D\'or]]></desc>
  </metadata>
  <trk>
    <name><![CDATA[mt_d'or]]></name>
    <trkseg>
      <trkpt lat="45.84649" lon="4.83188">
        <ele>176.5</ele>
        <time>2013-08-31T06:52:51Z</time>
      </trkpt>
      <trkpt lat="45.84647" lon="4.83189">
        <ele>176.3000031</ele>
        <time>2013-08-31T06:52:52Z</time>
      </trkpt>
      <trkpt lat="45.84641" lon="4.83198">
        <ele>176.3000031</ele>
        <time>2013-08-31T06:52:57Z</time>
      </trkpt>
      <trkpt lat="45.84639" lon="4.83199">
        <ele>176</ele>
        <time>2013-08-31T06:52:58Z</time>
      </trkpt>
      <trkpt lat="45.84631" lon="4.83203">
        <ele>175.6000061</ele>
        <time>2013-08-31T06:53:01Z</time>
      </trkpt>
      <trkpt lat="45.84628" lon="4.83203">
        <ele>175.6000061</ele>
        <time>2013-08-31T06:53:02Z</time>
      </trkpt>
      <trkpt lat="45.84622" lon="4.83206">
        <ele>175.3000031</ele>
        <time>2013-08-31T06:53:04Z</time>
      </trkpt>
      <trkpt lat="45.84618" lon="4.83207">
        <ele>175.1000061</ele>
        <time>2013-08-31T06:53:05Z</time>
      </trkpt>
      <trkpt lat="45.8461" lon="4.83208">
        <ele>174.8999939</ele>
        <time>2013-08-31T06:53:07Z</time>
      </trkpt>
      <trkpt lat="45.84607" lon="4.83209">
        <ele>174.5</ele>
        <time>2013-08-31T06:53:08Z</time>
      </trkpt>
      <trkpt lat="45.84599" lon="4.83211">
        <ele>173.8999939</ele>
        <time>2013-08-31T06:53:10Z</time>
      </trkpt>
      <trkpt lat="45.84595" lon="4.83211">
        <ele>173.6000061</ele>
        <time>2013-08-31T06:53:11Z</time>
      </trkpt>
      <trkpt lat="45.84587" lon="4.83214">
        <ele>174.1000061</ele>
        <time>2013-08-31T06:53:13Z</time>
      </trkpt>
      <trkpt lat="45.84582" lon="4.83213">
        <ele>174.5</ele>
        <time>2013-08-31T06:53:14Z</time>
      </trkpt>
      <trkpt lat="45.84574" lon="4.83214">
        <ele>173.6999969</ele>
        <time>2013-08-31T06:53:16Z</time>
      </trkpt>
      <trkpt lat="45.8457" lon="4.83214">
        <ele>173.5</ele>
        <time>2013-08-31T06:53:17Z</time>
      </trkpt>
      <trkpt lat="45.84561" lon="4.83213">
        <ele>173.6000061</ele>
        <time>2013-08-31T06:53:19Z</time>
      </trkpt>
      <trkpt lat="45.84557" lon="4.83212">
        <ele>173.3999939</ele>
        <time>2013-08-31T06:53:20Z</time>
      </trkpt>
      <trkpt lat="45.84551" lon="4.83207">
        <ele>173.1000061</ele>
        <time>2013-08-31T06:53:22Z</time>
      </trkpt>
      <trkpt lat="45.84548" lon="4.83206">
        <ele>173.1000061</ele>
        <time>2013-08-31T06:53:23Z</time>
      </trkpt>
      <trkpt lat="45.84539" lon="4.83209">
        <ele>173.3999939</ele>
        <time>2013-08-31T06:53:27Z</time>
      </trkpt>
      <trkpt lat="45.84537" lon="4.8321">
        <ele>173.5</ele>
        <time>2013-08-31T06:53:28Z</time>
      </trkpt>
      <trkpt lat="45.84528" lon="4.83213">
        <ele>175</ele>
        <time>2013-08-31T06:53:32Z</time>
      </trkpt>
      <trkpt lat="45.84525" lon="4.83216">
        <ele>175.5</ele>
        <time>2013-08-31T06:53:33Z</time>
      </trkpt>
      <trkpt lat="45.84521" lon="4.83227">
        <ele>174.8999939</ele>
        <time>2013-08-31T06:53:39Z</time>
      </trkpt>
      <trkpt lat="45.8452" lon="4.8323">
        <ele>174.1999969</ele>
        <time>2013-08-31T06:53:40Z</time>
      </trkpt>
      <trkpt lat="45.84518" lon="4.8324">
        <ele>175.1999969</ele>
        <time>2013-08-31T06:53:41Z</time>
      </trkpt>
      <trkpt lat="45.84518" lon="4.83248">
        <ele>174.8000031</ele>
        <time>2013-08-31T06:53:42Z</time>
      </trkpt>
      <trkpt lat="45.84516" lon="4.8326">
        <ele>176.6999969</ele>
        <time>2013-08-31T06:53:44Z</time>
      </trkpt>
      <trkpt lat="45.84515" lon="4.83266">
        <ele>177.6999969</ele>
        <time>2013-08-31T06:53:45Z</time>
      </trkpt>
      <trkpt lat="45.84513" lon="4.83273">
        <ele>177.6000061</ele>
        <time>2013-08-31T06:53:46Z</time>
      </trkpt>
      <trkpt lat="45.84512" lon="4.83281">
        <ele>177.6000061</ele>
        <time>2013-08-31T06:53:47Z</time>
      </trkpt>
      <trkpt lat="45.84512" lon="4.83288">
        <ele>178</ele>
        <time>2013-08-31T06:53:48Z</time>
      </trkpt>
      <trkpt lat="45.84511" lon="4.83296">
        <ele>178.1000061</ele>
        <time>2013-08-31T06:53:49Z</time>
      </trkpt>
      <trkpt lat="45.8451" lon="4.83305">
        <ele>178.3999939</ele>
        <time>2013-08-31T06:53:50Z</time>
      </trkpt>
      <trkpt lat="45.84509" lon="4.83314">
        <ele>178.1999969</ele>
        <time>2013-08-31T06:53:51Z</time>
      </trkpt>
      <trkpt lat="45.84507" lon="4.83323">
        <ele>177.6000061</ele>
        <time>2013-08-31T06:53:52Z</time>
      </trkpt>
      <trkpt lat="45.84506" lon="4.83331">
        <ele>177.1999969</ele>
        <time>2013-08-31T06:53:53Z</time>
      </trkpt>
      <trkpt lat="45.84505" lon="4.8334">
        <ele>177.5</ele>
        <time>2013-08-31T06:53:54Z</time>
      </trkpt>
      <trkpt lat="45.84503" lon="4.83349">
        <ele>177.5</ele>
        <time>2013-08-31T06:53:55Z</time>
      </trkpt>
      <trkpt lat="45.84502" lon="4.83357">
        <ele>177</ele>
        <time>2013-08-31T06:53:56Z</time>
      </trkpt>
      <trkpt lat="45.84501" lon="4.83366">
        <ele>176.8000031</ele>
        <time>2013-08-31T06:53:57Z</time>
      </trkpt>
      <trkpt lat="45.845" lon="4.83376">
        <ele>176.6999969</ele>
        <time>2013-08-31T06:53:58Z</time>
      </trkpt>
      <trkpt lat="45.84498" lon="4.83385">
        <ele>176.6999969</ele>
        <time>2013-08-31T06:53:59Z</time>
      </trkpt>
      <trkpt lat="45.84497" lon="4.83395">
        <ele>176.6000061</ele>
        <time>2013-08-31T06:54:00Z</time>
      </trkpt>
      <trkpt lat="45.84495" lon="4.83405">
        <ele>176.6000061</ele>
        <time>2013-08-31T06:54:01Z</time>
      </trkpt>
      <trkpt lat="45.84494" lon="4.83414">
        <ele>176.8999939</ele>
        <time>2013-08-31T06:54:02Z</time>
      </trkpt>
      <trkpt lat="45.84493" lon="4.83424">
        <ele>176.8000031</ele>
        <time>2013-08-31T06:54:03Z</time>
      </trkpt>
      <trkpt lat="45.84491" lon="4.83433">
        <ele>177.1000061</ele>
        <time>2013-08-31T06:54:04Z</time>
      </trkpt>
      <trkpt lat="45.8449" lon="4.83443">
        <ele>177</ele>
        <time>2013-08-31T06:54:05Z</time>
      </trkpt>
      <trkpt lat="45.84489" lon="4.83452">
        <ele>177.3000031</ele>
        <time>2013-08-31T06:54:06Z</time>
      </trkpt>
      <trkpt lat="45.84488" lon="4.8346">
        <ele>177.1999969</ele>
        <time>2013-08-31T06:54:07Z</time>
      </trkpt>
      <trkpt lat="45.84487" lon="4.83471">
        <ele>177.1999969</ele>
        <time>2013-08-31T06:54:09Z</time>
      </trkpt>
      <trkpt lat="45.84488" lon="4.83474">
        <ele>177.1000061</ele>
        <time>2013-08-31T06:54:10Z</time>
      </trkpt>
      <trkpt lat="45.84491" lon="4.83483">
        <ele>176.6000061</ele>
        <time>2013-08-31T06:54:13Z</time>
      </trkpt>
      <trkpt lat="45.84493" lon="4.83487">
        <ele>176.3000031</ele>
        <time>2013-08-31T06:54:14Z</time>
      </trkpt>
      <trkpt lat="45.845" lon="4.83491">
        <ele>176</ele>
        <time>2013-08-31T06:54:19Z</time>
      </trkpt>
      <trkpt lat="45.84502" lon="4.8349">
        <ele>176.5</ele>
        <time>2013-08-31T06:54:20Z</time>
      </trkpt>
      <trkpt lat="45.84503" lon="4.83501">
        <ele>176.1999969</ele>
        <time>2013-08-31T06:54:34Z</time>
      </trkpt>
      <trkpt lat="45.84506" lon="4.83504">
        <ele>176.3000031</ele>
        <time>2013-08-31T06:54:35Z</time>
      </trkpt>
      <trkpt lat="45.84512" lon="4.83507">
        <ele>177.3000031</ele>
        <time>2013-08-31T06:54:37Z</time>
      </trkpt>
      <trkpt lat="45.84516" lon="4.83508">
        <ele>177.5</ele>
        <time>2013-08-31T06:54:38Z</time>
      </trkpt>
      <trkpt lat="45.84524" lon="4.83514">
        <ele>177.3999939</ele>
        <time>2013-08-31T06:54:40Z</time>
      </trkpt>
      <trkpt lat="45.84527" lon="4.83517">
        <ele>177.1999969</ele>
        <time>2013-08-31T06:54:41Z</time>
      </trkpt>
      <trkpt lat="45.8453" lon="4.83522">
        <ele>176.8000031</ele>
        <time>2013-08-31T06:54:42Z</time>
      </trkpt>
      <trkpt lat="45.84535" lon="4.83525">
        <ele>175.8999939</ele>
        <time>2013-08-31T06:54:43Z</time>
      </trkpt>
      <trkpt lat="45.8454" lon="4.83527">
        <ele>175.8999939</ele>
        <time>2013-08-31T06:54:44Z</time>
      </trkpt>
      <trkpt lat="45.84545" lon="4.8353">
        <ele>175.6999969</ele>
        <time>2013-08-31T06:54:45Z</time>
      </trkpt>
      <trkpt lat="45.84551" lon="4.83533">
        <ele>175.8000031</ele>
        <time>2013-08-31T06:54:46Z</time>
      </trkpt>
      <trkpt lat="45.84557" lon="4.83536">
        <ele>174.8999939</ele>
        <time>2013-08-31T06:54:47Z</time>
      </trkpt>
      <trkpt lat="45.84563" lon="4.8354">
        <ele>174.6999969</ele>
        <time>2013-08-31T06:54:48Z</time>
      </trkpt>
      <trkpt lat="45.84569" lon="4.83543">
        <ele>174.3000031</ele>
        <time>2013-08-31T06:54:49Z</time>
      </trkpt>
      <trkpt lat="45.84575" lon="4.83546">
        <ele>173.6999969</ele>
        <time>2013-08-31T06:54:50Z</time>
      </trkpt>
      <trkpt lat="45.84582" lon="4.83549">
        <ele>173.3999939</ele>
        <time>2013-08-31T06:54:51Z</time>
      </trkpt>
      <trkpt lat="45.84587" lon="4.83551">
        <ele>173.1999969</ele>
        <time>2013-08-31T06:54:52Z</time>
      </trkpt>
      <trkpt lat="45.84593" lon="4.83554">
        <ele>173.3000031</ele>
        <time>2013-08-31T06:54:53Z</time>
      </trkpt>
      <trkpt lat="45.846" lon="4.83558">
        <ele>173.3999939</ele>
        <time>2013-08-31T06:54:54Z</time>
      </trkpt>
      <trkpt lat="45.84605" lon="4.83561">
        <ele>173</ele>
        <time>2013-08-31T06:54:55Z</time>
      </trkpt>
      <trkpt lat="45.84612" lon="4.83563">
        <ele>173</ele>
        <time>2013-08-31T06:54:56Z</time>
      </trkpt>
      <trkpt lat="45.84617" lon="4.83565">
        <ele>172.6999969</ele>
        <time>2013-08-31T06:54:57Z</time>
      </trkpt>
      <trkpt lat="45.84624" lon="4.83568">
        <ele>172.5</ele>
        <time>2013-08-31T06:54:58Z</time>
      </trkpt>
      <trkpt lat="45.8463" lon="4.83571">
        <ele>172.3000031</ele>
        <time>2013-08-31T06:54:59Z</time>
      </trkpt>
      <trkpt lat="45.84636" lon="4.83574">
        <ele>172.5</ele>
        <time>2013-08-31T06:55:00Z</time>
      </trkpt>
      <trkpt lat="45.84641" lon="4.83577">
        <ele>172.3000031</ele>
        <time>2013-08-31T06:55:01Z</time>
      </trkpt>
      <trkpt lat="45.84647" lon="4.8358">
        <ele>172.3000031</ele>
        <time>2013-08-31T06:55:02Z</time>
      </trkpt>
      <trkpt lat="45.84653" lon="4.83582">
        <ele>172.8000031</ele>
        <time>2013-08-31T06:55:03Z</time>
      </trkpt>
      <trkpt lat="45.84659" lon="4.83585">
        <ele>172.6000061</ele>
        <time>2013-08-31T06:55:04Z</time>
      </trkpt>
      <trkpt lat="45.84665" lon="4.83586">
        <ele>172.6000061</ele>
        <time>2013-08-31T06:55:05Z</time>
      </trkpt>
      <trkpt lat="45.84671" lon="4.83588">
        <ele>172.5</ele>
        <time>2013-08-31T06:55:06Z</time>
      </trkpt>
      <trkpt lat="45.84677" lon="4.83591">
        <ele>172.3000031</ele>
        <time>2013-08-31T06:55:07Z</time>
      </trkpt>
      <trkpt lat="45.84683" lon="4.83593">
        <ele>171.6999969</ele>
        <time>2013-08-31T06:55:08Z</time>
      </trkpt>
      <trkpt lat="45.84689" lon="4.83595">
        <ele>172.1000061</ele>
        <time>2013-08-31T06:55:09Z</time>
      </trkpt>
      <trkpt lat="45.84695" lon="4.83598">
        <ele>171.8999939</ele>
        <time>2013-08-31T06:55:10Z</time>
      </trkpt>
      <trkpt lat="45.84701" lon="4.83602">
        <ele>172.3000031</ele>
        <time>2013-08-31T06:55:11Z</time>
      </trkpt>
      <trkpt lat="45.84707" lon="4.83604">
        <ele>172.6999969</ele>
        <time>2013-08-31T06:55:12Z</time>
      </trkpt>
      <trkpt lat="45.84713" lon="4.83607">
        <ele>172.6000061</ele>
        <time>2013-08-31T06:55:13Z</time>
      </trkpt>
      <trkpt lat="45.84719" lon="4.8361">
        <ele>172.6000061</ele>
        <time>2013-08-31T06:55:14Z</time>
      </trkpt>
      <trkpt lat="45.84725" lon="4.83614">
        <ele>172.3999939</ele>
        <time>2013-08-31T06:55:15Z</time>
      </trkpt>
      <trkpt lat="45.8473" lon="4.83617">
        <ele>172.1000061</ele>
        <time>2013-08-31T06:55:16Z</time>
      </trkpt>
      <trkpt lat="45.84736" lon="4.8362">
        <ele>171.8999939</ele>
        <time>2013-08-31T06:55:17Z</time>
      </trkpt>
      <trkpt lat="45.84742" lon="4.83624">
        <ele>171.6999969</ele>
        <time>2013-08-31T06:55:18Z</time>
      </trkpt>
      <trkpt lat="45.84747" lon="4.83625">
        <ele>171.8000031</ele>
        <time>2013-08-31T06:55:19Z</time>
      </trkpt>
      <trkpt lat="45.84754" lon="4.83629">
        <ele>171.8999939</ele>
        <time>2013-08-31T06:55:20Z</time>
      </trkpt>
      <trkpt lat="45.84759" lon="4.83632">
        <ele>171.8000031</ele>
        <time>2013-08-31T06:55:21Z</time>
      </trkpt>
      <trkpt lat="45.84764" lon="4.83635">
        <ele>171.8999939</ele>
        <time>2013-08-31T06:55:22Z</time>
      </trkpt>
      <trkpt lat="45.84771" lon="4.83638">
        <ele>171.5</ele>
        <time>2013-08-31T06:55:23Z</time>
      </trkpt>
      <trkpt lat="45.84776" lon="4.83641">
        <ele>171.8000031</ele>
        <time>2013-08-31T06:55:24Z</time>
      </trkpt>
      <trkpt lat="45.84781" lon="4.83644">
        <ele>171.6999969</ele>
        <time>2013-08-31T06:55:25Z</time>
      </trkpt>
      <trkpt lat="45.84788" lon="4.83648">
        <ele>171.6999969</ele>
        <time>2013-08-31T06:55:26Z</time>
      </trkpt>
      <trkpt lat="45.84793" lon="4.83651">
        <ele>171.5</ele>
        <time>2013-08-31T06:55:27Z</time>
      </trkpt>
      <trkpt lat="45.84799" lon="4.83653">
        <ele>171.8999939</ele>
        <time>2013-08-31T06:55:28Z</time>
      </trkpt>
      <trkpt lat="45.84805" lon="4.83656">
        <ele>172.3999939</ele>
        <time>2013-08-31T06:55:29Z</time>
      </trkpt>
      <trkpt lat="45.84811" lon="4.83659">
        <ele>172.6999969</ele>
        <time>2013-08-31T06:55:30Z</time>
      </trkpt>
      <trkpt lat="45.84817" lon="4.83662">
        <ele>172.3000031</ele>
        <time>2013-08-31T06:55:31Z</time>
      </trkpt>
      <trkpt lat="45.84822" lon="4.83665">
        <ele>172.6999969</ele>
        <time>2013-08-31T06:55:32Z</time>
      </trkpt>
      <trkpt lat="45.84828" lon="4.83668">
        <ele>172.8999939</ele>
        <time>2013-08-31T06:55:33Z</time>
      </trkpt>
      <trkpt lat="45.84835" lon="4.83672">
        <ele>172.6000061</ele>
        <time>2013-08-31T06:55:34Z</time>
      </trkpt>
      <trkpt lat="45.8484" lon="4.83675">
        <ele>172.6999969</ele>
        <time>2013-08-31T06:55:35Z</time>
      </trkpt>
      <trkpt lat="45.84846" lon="4.83679">
        <ele>172.6999969</ele>
        <time>2013-08-31T06:55:36Z</time>
      </trkpt>
      <trkpt lat="45.84852" lon="4.83682">
        <ele>172.8000031</ele>
        <time>2013-08-31T06:55:37Z</time>
      </trkpt>
      <trkpt lat="45.84857" lon="4.83685">
        <ele>172.6000061</ele>
        <time>2013-08-31T06:55:38Z</time>
      </trkpt>
      <trkpt lat="45.84863" lon="4.83688">
        <ele>172.3000031</ele>
        <time>2013-08-31T06:55:39Z</time>
      </trkpt>
      <trkpt lat="45.84868" lon="4.83691">
        <ele>172.3999939</ele>
        <time>2013-08-31T06:55:40Z</time>
      </trkpt>
      <trkpt lat="45.84874" lon="4.83694">
        <ele>172.3999939</ele>
        <time>2013-08-31T06:55:41Z</time>
      </trkpt>
      <trkpt lat="45.8488" lon="4.83698">
        <ele>172.3000031</ele>
        <time>2013-08-31T06:55:42Z</time>
      </trkpt>
      <trkpt lat="45.84886" lon="4.83701">
        <ele>172.1999969</ele>
        <time>2013-08-31T06:55:43Z</time>
      </trkpt>
      <trkpt lat="45.84893" lon="4.83704">
        <ele>172.3000031</ele>
        <time>2013-08-31T06:55:44Z</time>
      </trkpt>
      <trkpt lat="45.84898" lon="4.83707">
        <ele>172.3000031</ele>
        <time>2013-08-31T06:55:45Z</time>
      </trkpt>
      <trkpt lat="45.84904" lon="4.8371">
        <ele>172.1000061</ele>
        <time>2013-08-31T06:55:46Z</time>
      </trkpt>
      <trkpt lat="45.84909" lon="4.83713">
        <ele>172</ele>
        <time>2013-08-31T06:55:47Z</time>
      </trkpt>
      <trkpt lat="45.84914" lon="4.83716">
        <ele>171.8999939</ele>
        <time>2013-08-31T06:55:48Z</time>
      </trkpt>
      <trkpt lat="45.8492" lon="4.83719">
        <ele>172</ele>
        <time>2013-08-31T06:55:49Z</time>
      </trkpt>
      <trkpt lat="45.84926" lon="4.83723">
        <ele>172.3999939</ele>
        <time>2013-08-31T06:55:50Z</time>
      </trkpt>
      <trkpt lat="45.84932" lon="4.83726">
        <ele>172.5</ele>
        <time>2013-08-31T06:55:51Z</time>
      </trkpt>
      <trkpt lat="45.84938" lon="4.83729">
        <ele>172.6000061</ele>
        <time>2013-08-31T06:55:52Z</time>
      </trkpt>
      <trkpt lat="45.84943" lon="4.83731">
        <ele>172.6999969</ele>
        <time>2013-08-31T06:55:53Z</time>
      </trkpt>
      <trkpt lat="45.84949" lon="4.83732">
        <ele>172.5</ele>
        <time>2013-08-31T06:55:54Z</time>
      </trkpt>
      <trkpt lat="45.84954" lon="4.83733">
        <ele>172.3000031</ele>
        <time>2013-08-31T06:55:55Z</time>
      </trkpt>
      <trkpt lat="45.84962" lon="4.83729">
        <ele>172</ele>
        <time>2013-08-31T06:55:57Z</time>
      </trkpt>
      <trkpt lat="45.84966" lon="4.83726">
        <ele>172</ele>
        <time>2013-08-31T06:55:58Z</time>
      </trkpt>
      <trkpt lat="45.84971" lon="4.83726">
        <ele>172</ele>
        <time>2013-08-31T06:55:59Z</time>
      </trkpt>
      <trkpt lat="45.84976" lon="4.83728">
        <ele>171.6999969</ele>
        <time>2013-08-31T06:56:00Z</time>
      </trkpt>
      <trkpt lat="45.84978" lon="4.83735">
        <ele>171.8999939</ele>
        <time>2013-08-31T06:56:01Z</time>
      </trkpt>
      <trkpt lat="45.84982" lon="4.83738">
        <ele>171.6000061</ele>
        <time>2013-08-31T06:56:02Z</time>
      </trkpt>
      <trkpt lat="45.84987" lon="4.83744">
        <ele>171.3999939</ele>
        <time>2013-08-31T06:56:03Z</time>
      </trkpt>
      <trkpt lat="45.84991" lon="4.83748">
        <ele>171.3999939</ele>
        <time>2013-08-31T06:56:04Z</time>
      </trkpt>
      <trkpt lat="45.84995" lon="4.83751">
        <ele>171.5</ele>
        <time>2013-08-31T06:56:05Z</time>
      </trkpt>
      <trkpt lat="45.85001" lon="4.83754">
        <ele>171.6000061</ele>
        <time>2013-08-31T06:56:06Z</time>
      </trkpt>
      <trkpt lat="45.85007" lon="4.83758">
        <ele>171.1000061</ele>
        <time>2013-08-31T06:56:07Z</time>
      </trkpt>
      <trkpt lat="45.85013" lon="4.83761">
        <ele>171.6999969</ele>
        <time>2013-08-31T06:56:08Z</time>
      </trkpt>
      <trkpt lat="45.8502" lon="4.83762">
        <ele>170.6999969</ele>
        <time>2013-08-31T06:56:09Z</time>
      </trkpt>
      <trkpt lat="45.85026" lon="4.83764">
        <ele>170.8999939</ele>
        <time>2013-08-31T06:56:10Z</time>
      </trkpt>
      <trkpt lat="45.85033" lon="4.83767">
        <ele>171.6000061</ele>
        <time>2013-08-31T06:56:11Z</time>
      </trkpt>
      <trkpt lat="45.85041" lon="4.8377">
        <ele>171.5</ele>
        <time>2013-08-31T06:56:12Z</time>
      </trkpt>
      <trkpt lat="45.85049" lon="4.83771">
        <ele>172</ele>
        <time>2013-08-31T06:56:13Z</time>
      </trkpt>
      <trkpt lat="45.85057" lon="4.83774">
        <ele>171.5</ele>
        <time>2013-08-31T06:56:14Z</time>
      </trkpt>
      <trkpt lat="45.85063" lon="4.83776">
        <ele>171.1000061</ele>
        <time>2013-08-31T06:56:15Z</time>
      </trkpt>
      <trkpt lat="45.8507" lon="4.8378">
        <ele>171.3999939</ele>
        <time>2013-08-31T06:56:16Z</time>
      </trkpt>
      <trkpt lat="45.85076" lon="4.83781">
        <ele>171.1000061</ele>
        <time>2013-08-31T06:56:17Z</time>
      </trkpt>
      <trkpt lat="45.85083" lon="4.83784">
        <ele>170.8999939</ele>
        <time>2013-08-31T06:56:18Z</time>
      </trkpt>
      <trkpt lat="45.85089" lon="4.83786">
        <ele>171.1999969</ele>
        <time>2013-08-31T06:56:19Z</time>
      </trkpt>
      <trkpt lat="45.85095" lon="4.83788">
        <ele>171.5</ele>
        <time>2013-08-31T06:56:20Z</time>
      </trkpt>
      <trkpt lat="45.85101" lon="4.83791">
        <ele>171.8999939</ele>
        <time>2013-08-31T06:56:21Z</time>
      </trkpt>
      <trkpt lat="45.85107" lon="4.83794">
        <ele>172</ele>
        <time>2013-08-31T06:56:22Z</time>
      </trkpt>
      <trkpt lat="45.85112" lon="4.83795">
        <ele>172.1000061</ele>
        <time>2013-08-31T06:56:23Z</time>
      </trkpt>
      <trkpt lat="45.85119" lon="4.83797">
        <ele>172</ele>
        <time>2013-08-31T06:56:24Z</time>
      </trkpt>
      <trkpt lat="45.85126" lon="4.83797">
        <ele>172.3999939</ele>
        <time>2013-08-31T06:56:25Z</time>
      </trkpt>
      <trkpt lat="45.85131" lon="4.83798">
        <ele>172.1999969</ele>
        <time>2013-08-31T06:56:26Z</time>
      </trkpt>
      <trkpt lat="45.85138" lon="4.83799">
        <ele>172.1000061</ele>
        <time>2013-08-31T06:56:27Z</time>
      </trkpt>
      <trkpt lat="45.85143" lon="4.838">
        <ele>172.1999969</ele>
        <time>2013-08-31T06:56:28Z</time>
      </trkpt>
      <trkpt lat="45.8515" lon="4.838">
        <ele>172.3000031</ele>
        <time>2013-08-31T06:56:29Z</time>
      </trkpt>
      <trkpt lat="45.85157" lon="4.83802">
        <ele>172.8000031</ele>
        <time>2013-08-31T06:56:30Z</time>
      </trkpt>
      <trkpt lat="45.85163" lon="4.83805">
        <ele>173.1999969</ele>
        <time>2013-08-31T06:56:31Z</time>
      </trkpt>
      <trkpt lat="45.85169" lon="4.83808">
        <ele>173.6000061</ele>
        <time>2013-08-31T06:56:32Z</time>
      </trkpt>
      <trkpt lat="45.85175" lon="4.83812">
        <ele>174</ele>
        <time>2013-08-31T06:56:33Z</time>
      </trkpt>
      <trkpt lat="45.85182" lon="4.83814">
        <ele>174.5</ele>
        <time>2013-08-31T06:56:34Z</time>
      </trkpt>
      <trkpt lat="45.85186" lon="4.83815">
        <ele>174.5</ele>
        <time>2013-08-31T06:56:35Z</time>
      </trkpt>
      <trkpt lat="45.85191" lon="4.83816">
        <ele>174.6000061</ele>
        <time>2013-08-31T06:56:36Z</time>
      </trkpt>
      <trkpt lat="45.85198" lon="4.83819">
        <ele>174.8000031</ele>
        <time>2013-08-31T06:56:37Z</time>
      </trkpt>
      <trkpt lat="45.85204" lon="4.8382">
        <ele>175.8999939</ele>
        <time>2013-08-31T06:56:38Z</time>
      </trkpt>
      <trkpt lat="45.8521" lon="4.83822">
        <ele>176.3000031</ele>
        <time>2013-08-31T06:56:39Z</time>
      </trkpt>
      <trkpt lat="45.85217" lon="4.83825">
        <ele>176.5</ele>
        <time>2013-08-31T06:56:40Z</time>
      </trkpt>
      <trkpt lat="45.85222" lon="4.83826">
        <ele>176.6999969</ele>
        <time>2013-08-31T06:56:41Z</time>
      </trkpt>
      <trkpt lat="45.85228" lon="4.83831">
        <ele>177.5</ele>
        <time>2013-08-31T06:56:42Z</time>
      </trkpt>
      <trkpt lat="45.85236" lon="4.83834">
        <ele>177.8000031</ele>
        <time>2013-08-31T06:56:43Z</time>
      </trkpt>
      <trkpt lat="45.85243" lon="4.83837">
        <ele>177.1999969</ele>
        <time>2013-08-31T06:56:44Z</time>
      </trkpt>
      <trkpt lat="45.85249" lon="4.83838">
        <ele>176.8000031</ele>
        <time>2013-08-31T06:56:45Z</time>
      </trkpt>
      <trkpt lat="45.85256" lon="4.8384">
        <ele>177.1000061</ele>
        <time>2013-08-31T06:56:46Z</time>
      </trkpt>
      <trkpt lat="45.8526" lon="4.83841">
        <ele>177.3000031</ele>
        <time>2013-08-31T06:56:47Z</time>
      </trkpt>
      <trkpt lat="45.85266" lon="4.83842">
        <ele>177.1999969</ele>
        <time>2013-08-31T06:56:48Z</time>
      </trkpt>
      <trkpt lat="45.85272" lon="4.83844">
        <ele>177</ele>
        <time>2013-08-31T06:56:49Z</time>
      </trkpt>
      <trkpt lat="45.85278" lon="4.83846">
        <ele>177</ele>
        <time>2013-08-31T06:56:50Z</time>
      </trkpt>
      <trkpt lat="45.85285" lon="4.8385">
        <ele>176.1999969</ele>
        <time>2013-08-31T06:56:51Z</time>
      </trkpt>
      <trkpt lat="45.8529" lon="4.83851">
        <ele>176.8999939</ele>
        <time>2013-08-31T06:56:52Z</time>
      </trkpt>
      <trkpt lat="45.85293" lon="4.83854">
        <ele>177.1999969</ele>
        <time>2013-08-31T06:56:53Z</time>
      </trkpt>
      <trkpt lat="45.85299" lon="4.83856">
        <ele>176.6999969</ele>
        <time>2013-08-31T06:56:54Z</time>
      </trkpt>
      <trkpt lat="45.85308" lon="4.83857">
        <ele>176.3999939</ele>
        <time>2013-08-31T06:56:56Z</time>
      </trkpt>
      <trkpt lat="45.85312" lon="4.83856">
        <ele>175.8000031</ele>
        <time>2013-08-31T06:56:57Z</time>
      </trkpt>
      <trkpt lat="45.85315" lon="4.83864">
        <ele>177.8000031</ele>
        <time>2013-08-31T06:56:59Z</time>
      </trkpt>
      <trkpt lat="45.85318" lon="4.83867">
        <ele>178.3000031</ele>
        <time>2013-08-31T06:57:00Z</time>
      </trkpt>
      <trkpt lat="45.85324" lon="4.83866">
        <ele>178.3999939</ele>
        <time>2013-08-31T06:57:01Z</time>
      </trkpt>
      <trkpt lat="45.85332" lon="4.83868">
        <ele>178.8000031</ele>
        <time>2013-08-31T06:57:02Z</time>
      </trkpt>
      <trkpt lat="45.85339" lon="4.8387">
        <ele>178.8999939</ele>
        <time>2013-08-31T06:57:03Z</time>
      </trkpt>
      <trkpt lat="45.85347" lon="4.83868">
        <ele>178.1000061</ele>
        <time>2013-08-31T06:57:04Z</time>
      </trkpt>
      <trkpt lat="45.85354" lon="4.8387">
        <ele>177.5</ele>
        <time>2013-08-31T06:57:05Z</time>
      </trkpt>
      <trkpt lat="45.8536" lon="4.83871">
        <ele>177.6000061</ele>
        <time>2013-08-31T06:57:06Z</time>
      </trkpt>
      <trkpt lat="45.85368" lon="4.83871">
        <ele>177.1000061</ele>
        <time>2013-08-31T06:57:07Z</time>
      </trkpt>
      <trkpt lat="45.85373" lon="4.83873">
        <ele>176.8000031</ele>
        <time>2013-08-31T06:57:08Z</time>
      </trkpt>
      <trkpt lat="45.85378" lon="4.83875">
        <ele>177.5</ele>
        <time>2013-08-31T06:57:09Z</time>
      </trkpt>
      <trkpt lat="45.85384" lon="4.83877">
        <ele>177.1999969</ele>
        <time>2013-08-31T06:57:10Z</time>
      </trkpt>
      <trkpt lat="45.85389" lon="4.83878">
        <ele>176.6000061</ele>
        <time>2013-08-31T06:57:11Z</time>
      </trkpt>
      <trkpt lat="45.85395" lon="4.8388">
        <ele>176.5</ele>
        <time>2013-08-31T06:57:12Z</time>
      </trkpt>
      <trkpt lat="45.85402" lon="4.83882">
        <ele>176.6999969</ele>
        <time>2013-08-31T06:57:13Z</time>
      </trkpt>
      <trkpt lat="45.85407" lon="4.83885">
        <ele>176.8000031</ele>
        <time>2013-08-31T06:57:14Z</time>
      </trkpt>
      <trkpt lat="45.85413" lon="4.83887">
        <ele>176.8000031</ele>
        <time>2013-08-31T06:57:15Z</time>
      </trkpt>
      <trkpt lat="45.85418" lon="4.8389">
        <ele>176.8000031</ele>
        <time>2013-08-31T06:57:16Z</time>
      </trkpt>
      <trkpt lat="45.85423" lon="4.83892">
        <ele>177.1999969</ele>
        <time>2013-08-31T06:57:17Z</time>
      </trkpt>
      <trkpt lat="45.85428" lon="4.83897">
        <ele>176.8000031</ele>
        <time>2013-08-31T06:57:18Z</time>
      </trkpt>
      <trkpt lat="45.85433" lon="4.83898">
        <ele>177</ele>
        <time>2013-08-31T06:57:19Z</time>
      </trkpt>
      <trkpt lat="45.85438" lon="4.83898">
        <ele>175.8000031</ele>
        <time>2013-08-31T06:57:20Z</time>
      </trkpt>
      <trkpt lat="45.85446" lon="4.83904">
        <ele>175.1999969</ele>
        <time>2013-08-31T06:57:22Z</time>
      </trkpt>
      <trkpt lat="45.85452" lon="4.83906">
        <ele>175.3999939</ele>
        <time>2013-08-31T06:57:23Z</time>
      </trkpt>
      <trkpt lat="45.85459" lon="4.8391">
        <ele>174.8000031</ele>
        <time>2013-08-31T06:57:25Z</time>
      </trkpt>
      <trkpt lat="45.85465" lon="4.83913">
        <ele>174.8999939</ele>
        <time>2013-08-31T06:57:26Z</time>
      </trkpt>
      <trkpt lat="45.85471" lon="4.83913">
        <ele>175.1000061</ele>
        <time>2013-08-31T06:57:28Z</time>
      </trkpt>
      <trkpt lat="45.85473" lon="4.83917">
        <ele>175.6999969</ele>
        <time>2013-08-31T06:57:29Z</time>
      </trkpt>
      <trkpt lat="45.85479" lon="4.83919">
        <ele>175.6999969</ele>
        <time>2013-08-31T06:57:35Z</time>
      </trkpt>
      <trkpt lat="45.85483" lon="4.83922">
        <ele>176.1999969</ele>
        <time>2013-08-31T06:57:36Z</time>
      </trkpt>
      <trkpt lat="45.85491" lon="4.83926">
        <ele>177.1999969</ele>
        <time>2013-08-31T06:57:40Z</time>
      </trkpt>
      <trkpt lat="45.85498" lon="4.83923">
        <ele>178.8000031</ele>
        <time>2013-08-31T06:57:41Z</time>
      </trkpt>
      <trkpt lat="45.85506" lon="4.83928">
        <ele>180.8000031</ele>
        <time>2013-08-31T06:57:45Z</time>
      </trkpt>
      <trkpt lat="45.85507" lon="4.83928">
        <ele>180.8000031</ele>
        <time>2013-08-31T06:57:46Z</time>
      </trkpt>
      <trkpt lat="45.8551" lon="4.83933">
        <ele>181.5</ele>
        <time>2013-08-31T06:57:52Z</time>
      </trkpt>
      <trkpt lat="45.8551" lon="4.83933">
        <ele>181.3999939</ele>
        <time>2013-08-31T06:57:53Z</time>
      </trkpt>
      <trkpt lat="45.85511" lon="4.83933">
        <ele>180.6999969</ele>
        <time>2013-08-31T06:57:54Z</time>
      </trkpt>
      <trkpt lat="45.85513" lon="4.83942">
        <ele>176.1999969</ele>
        <time>2013-08-31T06:57:59Z</time>
      </trkpt>
      <trkpt lat="45.85514" lon="4.83946">
        <ele>174.6999969</ele>
        <time>2013-08-31T06:58:00Z</time>
      </trkpt>
      <trkpt lat="45.85517" lon="4.83952">
        <ele>173.8999939</ele>
        <time>2013-08-31T06:58:05Z</time>
      </trkpt>
      <trkpt lat="45.85521" lon="4.83955">
        <ele>173.6999969</ele>
        <time>2013-08-31T06:58:06Z</time>
      </trkpt>
      <trkpt lat="45.85525" lon="4.83957">
        <ele>174.3000031</ele>
        <time>2013-08-31T06:58:07Z</time>
      </trkpt>
      <trkpt lat="45.8553" lon="4.8396">
        <ele>173.6999969</ele>
        <time>2013-08-31T06:58:08Z</time>
      </trkpt>
      <trkpt lat="45.85536" lon="4.83961">
        <ele>174.3999939</ele>
        <time>2013-08-31T06:58:09Z</time>
      </trkpt>
      <trkpt lat="45.8554" lon="4.83965">
        <ele>174.1000061</ele>
        <time>2013-08-31T06:58:10Z</time>
      </trkpt>
      <trkpt lat="45.85545" lon="4.83969">
        <ele>173.6000061</ele>
        <time>2013-08-31T06:58:11Z</time>
      </trkpt>
      <trkpt lat="45.85549" lon="4.83974">
        <ele>174</ele>
        <time>2013-08-31T06:58:12Z</time>
      </trkpt>
      <trkpt lat="45.85554" lon="4.83975">
        <ele>174</ele>
        <time>2013-08-31T06:58:13Z</time>
      </trkpt>
      <trkpt lat="45.85559" lon="4.83979">
        <ele>173.8000031</ele>
        <time>2013-08-31T06:58:14Z</time>
      </trkpt>
      <trkpt lat="45.85564" lon="4.83981">
        <ele>174.1000061</ele>
        <time>2013-08-31T06:58:15Z</time>
      </trkpt>
      <trkpt lat="45.8557" lon="4.83985">
        <ele>174</ele>
        <time>2013-08-31T06:58:16Z</time>
      </trkpt>
      <trkpt lat="45.85575" lon="4.83988">
        <ele>174.1000061</ele>
        <time>2013-08-31T06:58:17Z</time>
      </trkpt>
      <trkpt lat="45.85581" lon="4.8399">
        <ele>174.3999939</ele>
        <time>2013-08-31T06:58:18Z</time>
      </trkpt>
      <trkpt lat="45.85587" lon="4.83992">
        <ele>174.8000031</ele>
        <time>2013-08-31T06:58:19Z</time>
      </trkpt>
      <trkpt lat="45.85593" lon="4.83995">
        <ele>175.3000031</ele>
        <time>2013-08-31T06:58:20Z</time>
      </trkpt>
      <trkpt lat="45.85598" lon="4.83997">
        <ele>175.3999939</ele>
        <time>2013-08-31T06:58:21Z</time>
      </trkpt>
      <trkpt lat="45.85604" lon="4.83999">
        <ele>175.3000031</ele>
        <time>2013-08-31T06:58:22Z</time>
      </trkpt>
      <trkpt lat="45.8561" lon="4.84003">
        <ele>174.8000031</ele>
        <time>2013-08-31T06:58:23Z</time>
      </trkpt>
      <trkpt lat="45.85616" lon="4.84005">
        <ele>175.1000061</ele>
        <time>2013-08-31T06:58:24Z</time>
      </trkpt>
      <trkpt lat="45.85622" lon="4.84008">
        <ele>175.1000061</ele>
        <time>2013-08-31T06:58:25Z</time>
      </trkpt>
      <trkpt lat="45.85627" lon="4.8401">
        <ele>174.8999939</ele>
        <time>2013-08-31T06:58:26Z</time>
      </trkpt>
      <trkpt lat="45.85633" lon="4.84013">
        <ele>174.8999939</ele>
        <time>2013-08-31T06:58:27Z</time>
      </trkpt>
      <trkpt lat="45.85639" lon="4.84014">
        <ele>174.6000061</ele>
        <time>2013-08-31T06:58:28Z</time>
      </trkpt>
      <trkpt lat="45.85645" lon="4.84016">
        <ele>174.3999939</ele>
        <time>2013-08-31T06:58:29Z</time>
      </trkpt>
      <trkpt lat="45.85652" lon="4.84021">
        <ele>174</ele>
        <time>2013-08-31T06:58:30Z</time>
      </trkpt>
      <trkpt lat="45.85658" lon="4.84023">
        <ele>173.6000061</ele>
        <time>2013-08-31T06:58:31Z</time>
      </trkpt>
      <trkpt lat="45.85664" lon="4.84028">
        <ele>174</ele>
        <time>2013-08-31T06:58:32Z</time>
      </trkpt>
      <trkpt lat="45.8567" lon="4.84032">
        <ele>173.8000031</ele>
        <time>2013-08-31T06:58:33Z</time>
      </trkpt>
      <trkpt lat="45.85676" lon="4.84034">
        <ele>173.6999969</ele>
        <time>2013-08-31T06:58:34Z</time>
      </trkpt>
      <trkpt lat="45.85682" lon="4.84037">
        <ele>174.1000061</ele>
        <time>2013-08-31T06:58:35Z</time>
      </trkpt>
      <trkpt lat="45.85689" lon="4.84038">
        <ele>173.8999939</ele>
        <time>2013-08-31T06:58:36Z</time>
      </trkpt>
      <trkpt lat="45.85696" lon="4.84038">
        <ele>173.1999969</ele>
        <time>2013-08-31T06:58:37Z</time>
      </trkpt>
      <trkpt lat="45.85704" lon="4.84039">
        <ele>173.1999969</ele>
        <time>2013-08-31T06:58:38Z</time>
      </trkpt>
      <trkpt lat="45.85709" lon="4.84042">
        <ele>172.8000031</ele>
        <time>2013-08-31T06:58:39Z</time>
      </trkpt>
      <trkpt lat="45.85714" lon="4.84046">
        <ele>172.8999939</ele>
        <time>2013-08-31T06:58:40Z</time>
      </trkpt>
      <trkpt lat="45.8572" lon="4.8405">
        <ele>173.1999969</ele>
        <time>2013-08-31T06:58:41Z</time>
      </trkpt>
      <trkpt lat="45.85725" lon="4.84055">
        <ele>172.8000031</ele>
        <time>2013-08-31T06:58:42Z</time>
      </trkpt>
      <trkpt lat="45.85731" lon="4.84059">
        <ele>171.8999939</ele>
        <time>2013-08-31T06:58:43Z</time>
      </trkpt>
      <trkpt lat="45.85737" lon="4.84062">
        <ele>171.8000031</ele>
        <time>2013-08-31T06:58:44Z</time>
      </trkpt>
      <trkpt lat="45.85743" lon="4.84065">
        <ele>171.6000061</ele>
        <time>2013-08-31T06:58:45Z</time>
      </trkpt>
      <trkpt lat="45.85748" lon="4.84069">
        <ele>171.3999939</ele>
        <time>2013-08-31T06:58:46Z</time>
      </trkpt>
      <trkpt lat="45.85754" lon="4.84074">
        <ele>171.1000061</ele>
        <time>2013-08-31T06:58:47Z</time>
      </trkpt>
      <trkpt lat="45.85761" lon="4.84074">
        <ele>171.1999969</ele>
        <time>2013-08-31T06:58:48Z</time>
      </trkpt>
      <trkpt lat="45.85767" lon="4.84077">
        <ele>171.1000061</ele>
        <time>2013-08-31T06:58:49Z</time>
      </trkpt>
      <trkpt lat="45.85774" lon="4.84078">
        <ele>170.8999939</ele>
        <time>2013-08-31T06:58:50Z</time>
      </trkpt>
      <trkpt lat="45.85781" lon="4.84082">
        <ele>170.8999939</ele>
        <time>2013-08-31T06:58:51Z</time>
      </trkpt>
      <trkpt lat="45.85785" lon="4.84085">
        <ele>170.6999969</ele>
        <time>2013-08-31T06:58:52Z</time>
      </trkpt>
      <trkpt lat="45.8579" lon="4.8409">
        <ele>171.1000061</ele>
        <time>2013-08-31T06:58:53Z</time>
      </trkpt>
      <trkpt lat="45.85796" lon="4.84093">
        <ele>171.1000061</ele>
        <time>2013-08-31T06:58:54Z</time>
      </trkpt>
      <trkpt lat="45.85801" lon="4.84096">
        <ele>170.8999939</ele>
        <time>2013-08-31T06:58:55Z</time>
      </trkpt>
      <trkpt lat="45.85808" lon="4.84098">
        <ele>170.8999939</ele>
        <time>2013-08-31T06:58:56Z</time>
      </trkpt>
      <trkpt lat="45.85813" lon="4.84102">
        <ele>171</ele>
        <time>2013-08-31T06:58:57Z</time>
      </trkpt>
      <trkpt lat="45.85818" lon="4.84104">
        <ele>171.1000061</ele>
        <time>2013-08-31T06:58:58Z</time>
      </trkpt>
      <trkpt lat="45.85825" lon="4.84106">
        <ele>170.6999969</ele>
        <time>2013-08-31T06:58:59Z</time>
      </trkpt>
      <trkpt lat="45.85832" lon="4.84106">
        <ele>170.6000061</ele>
        <time>2013-08-31T06:59:00Z</time>
      </trkpt>
      <trkpt lat="45.85837" lon="4.8411">
        <ele>170.8999939</ele>
        <time>2013-08-31T06:59:01Z</time>
      </trkpt>
      <trkpt lat="45.85843" lon="4.84116">
        <ele>171.1999969</ele>
        <time>2013-08-31T06:59:02Z</time>
      </trkpt>
      <trkpt lat="45.85849" lon="4.84117">
        <ele>170.8000031</ele>
        <time>2013-08-31T06:59:03Z</time>
      </trkpt>
      <trkpt lat="45.85855" lon="4.84119">
        <ele>170.6000061</ele>
        <time>2013-08-31T06:59:04Z</time>
      </trkpt>
      <trkpt lat="45.85863" lon="4.8412">
        <ele>170.3000031</ele>
        <time>2013-08-31T06:59:05Z</time>
      </trkpt>
      <trkpt lat="45.85869" lon="4.84121">
        <ele>169.8999939</ele>
        <time>2013-08-31T06:59:06Z</time>
      </trkpt>
      <trkpt lat="45.85876" lon="4.84122">
        <ele>170.3999939</ele>
        <time>2013-08-31T06:59:07Z</time>
      </trkpt>
      <trkpt lat="45.85882" lon="4.84123">
        <ele>170</ele>
        <time>2013-08-31T06:59:08Z</time>
      </trkpt>
      <trkpt lat="45.85889" lon="4.84124">
        <ele>170.6999969</ele>
        <time>2013-08-31T06:59:09Z</time>
      </trkpt>
      <trkpt lat="45.85896" lon="4.84125">
        <ele>170.6000061</ele>
        <time>2013-08-31T06:59:10Z</time>
      </trkpt>
      <trkpt lat="45.85902" lon="4.84126">
        <ele>170</ele>
        <time>2013-08-31T06:59:11Z</time>
      </trkpt>
      <trkpt lat="45.85909" lon="4.84132">
        <ele>169.1000061</ele>
        <time>2013-08-31T06:59:12Z</time>
      </trkpt>
      <trkpt lat="45.85915" lon="4.84131">
        <ele>168.8000031</ele>
        <time>2013-08-31T06:59:13Z</time>
      </trkpt>
      <trkpt lat="45.8592" lon="4.84132">
        <ele>168.8000031</ele>
        <time>2013-08-31T06:59:14Z</time>
      </trkpt>
      <trkpt lat="45.85926" lon="4.84134">
        <ele>169.6999969</ele>
        <time>2013-08-31T06:59:15Z</time>
      </trkpt>
      <trkpt lat="45.85932" lon="4.84137">
        <ele>169.8999939</ele>
        <time>2013-08-31T06:59:16Z</time>
      </trkpt>
      <trkpt lat="45.85938" lon="4.84135">
        <ele>170</ele>
        <time>2013-08-31T06:59:17Z</time>
      </trkpt>
      <trkpt lat="45.85945" lon="4.84134">
        <ele>170.6000061</ele>
        <time>2013-08-31T06:59:18Z</time>
      </trkpt>
      <trkpt lat="45.85951" lon="4.84131">
        <ele>170.1000061</ele>
        <time>2013-08-31T06:59:19Z</time>
      </trkpt>
      <trkpt lat="45.85958" lon="4.8413">
        <ele>169.3000031</ele>
        <time>2013-08-31T06:59:20Z</time>
      </trkpt>
      <trkpt lat="45.85965" lon="4.84128">
        <ele>169.6000061</ele>
        <time>2013-08-31T06:59:21Z</time>
      </trkpt>
      <trkpt lat="45.85971" lon="4.84127">
        <ele>169.6999969</ele>
        <time>2013-08-31T06:59:22Z</time>
      </trkpt>
      <trkpt lat="45.85978" lon="4.84126">
        <ele>169.8000031</ele>
        <time>2013-08-31T06:59:23Z</time>
      </trkpt>
      <trkpt lat="45.85983" lon="4.84125">
        <ele>169.5</ele>
        <time>2013-08-31T06:59:24Z</time>
      </trkpt>
      <trkpt lat="45.8599" lon="4.84123">
        <ele>169.1000061</ele>
        <time>2013-08-31T06:59:25Z</time>
      </trkpt>
      <trkpt lat="45.85996" lon="4.84122">
        <ele>169.3000031</ele>
        <time>2013-08-31T06:59:26Z</time>
      </trkpt>
      <trkpt lat="45.86003" lon="4.8412">
        <ele>169.6000061</ele>
        <time>2013-08-31T06:59:27Z</time>
      </trkpt>
      <trkpt lat="45.86009" lon="4.84123">
        <ele>170.5</ele>
        <time>2013-08-31T06:59:28Z</time>
      </trkpt>
      <trkpt lat="45.86015" lon="4.84122">
        <ele>170.8000031</ele>
        <time>2013-08-31T06:59:29Z</time>
      </trkpt>
      <trkpt lat="45.86021" lon="4.8412">
        <ele>171</ele>
        <time>2013-08-31T06:59:30Z</time>
      </trkpt>
      <trkpt lat="45.86029" lon="4.84118">
        <ele>171.3000031</ele>
        <time>2013-08-31T06:59:31Z</time>
      </trkpt>
      <trkpt lat="45.86035" lon="4.84117">
        <ele>171.1999969</ele>
        <time>2013-08-31T06:59:32Z</time>
      </trkpt>
      <trkpt lat="45.86041" lon="4.84115">
        <ele>171.6999969</ele>
        <time>2013-08-31T06:59:33Z</time>
      </trkpt>
      <trkpt lat="45.86049" lon="4.84112">
        <ele>171.1999969</ele>
        <time>2013-08-31T06:59:34Z</time>
      </trkpt>
      <trkpt lat="45.86054" lon="4.8411">
        <ele>171.3999939</ele>
        <time>2013-08-31T06:59:35Z</time>
      </trkpt>
      <trkpt lat="45.86061" lon="4.84107">
        <ele>171</ele>
        <time>2013-08-31T06:59:36Z</time>
      </trkpt>
      <trkpt lat="45.86068" lon="4.84107">
        <ele>171</ele>
        <time>2013-08-31T06:59:37Z</time>
      </trkpt>
      <trkpt lat="45.86074" lon="4.84105">
        <ele>170.8999939</ele>
        <time>2013-08-31T06:59:38Z</time>
      </trkpt>
      <trkpt lat="45.8608" lon="4.84103">
        <ele>171</ele>
        <time>2013-08-31T06:59:39Z</time>
      </trkpt>
      <trkpt lat="45.86087" lon="4.84099">
        <ele>170.8000031</ele>
        <time>2013-08-31T06:59:40Z</time>
      </trkpt>
      <trkpt lat="45.86094" lon="4.84096">
        <ele>170.6000061</ele>
        <time>2013-08-31T06:59:41Z</time>
      </trkpt>
      <trkpt lat="45.86101" lon="4.84094">
        <ele>170.3000031</ele>
        <time>2013-08-31T06:59:42Z</time>
      </trkpt>
      <trkpt lat="45.86107" lon="4.84093">
        <ele>170.3000031</ele>
        <time>2013-08-31T06:59:43Z</time>
      </trkpt>
      <trkpt lat="45.86113" lon="4.84093">
        <ele>170.8999939</ele>
        <time>2013-08-31T06:59:44Z</time>
      </trkpt>
      <trkpt lat="45.86119" lon="4.84093">
        <ele>171.6999969</ele>
        <time>2013-08-31T06:59:45Z</time>
      </trkpt>
      <trkpt lat="45.86125" lon="4.84091">
        <ele>171.5</ele>
        <time>2013-08-31T06:59:46Z</time>
      </trkpt>
      <trkpt lat="45.86132" lon="4.84089">
        <ele>172.3000031</ele>
        <time>2013-08-31T06:59:47Z</time>
      </trkpt>
      <trkpt lat="45.86139" lon="4.84087">
        <ele>172.3000031</ele>
        <time>2013-08-31T06:59:48Z</time>
      </trkpt>
      <trkpt lat="45.86144" lon="4.84087">
        <ele>171.8000031</ele>
        <time>2013-08-31T06:59:49Z</time>
      </trkpt>
      <trkpt lat="45.86151" lon="4.84086">
        <ele>171.8999939</ele>
        <time>2013-08-31T06:59:50Z</time>
      </trkpt>
      <trkpt lat="45.86158" lon="4.84083">
        <ele>171.5</ele>
        <time>2013-08-31T06:59:51Z</time>
      </trkpt>
      <trkpt lat="45.86164" lon="4.84081">
        <ele>171.8000031</ele>
        <time>2013-08-31T06:59:52Z</time>
      </trkpt>
      <trkpt lat="45.86171" lon="4.84079">
        <ele>171.6000061</ele>
        <time>2013-08-31T06:59:53Z</time>
      </trkpt>
      <trkpt lat="45.86178" lon="4.84076">
        <ele>171</ele>
        <time>2013-08-31T06:59:54Z</time>
      </trkpt>
      <trkpt lat="45.86184" lon="4.84075">
        <ele>171.3000031</ele>
        <time>2013-08-31T06:59:55Z</time>
      </trkpt>
      <trkpt lat="45.8619" lon="4.84073">
        <ele>171.8999939</ele>
        <time>2013-08-31T06:59:56Z</time>
      </trkpt>
      <trkpt lat="45.86196" lon="4.84073">
        <ele>172.3999939</ele>
        <time>2013-08-31T06:59:57Z</time>
      </trkpt>
      <trkpt lat="45.86202" lon="4.84073">
        <ele>173.1000061</ele>
        <time>2013-08-31T06:59:58Z</time>
      </trkpt>
      <trkpt lat="45.86208" lon="4.84071">
        <ele>172.6000061</ele>
        <time>2013-08-31T06:59:59Z</time>
      </trkpt>
      <trkpt lat="45.86215" lon="4.84069">
        <ele>173</ele>
        <time>2013-08-31T07:00:00Z</time>
      </trkpt>
      <trkpt lat="45.86221" lon="4.84067">
        <ele>173.5</ele>
        <time>2013-08-31T07:00:01Z</time>
      </trkpt>
      <trkpt lat="45.86228" lon="4.84065">
        <ele>173</ele>
        <time>2013-08-31T07:00:02Z</time>
      </trkpt>
      <trkpt lat="45.86234" lon="4.84064">
        <ele>173.1999969</ele>
        <time>2013-08-31T07:00:03Z</time>
      </trkpt>
      <trkpt lat="45.8624" lon="4.84064">
        <ele>172.8000031</ele>
        <time>2013-08-31T07:00:04Z</time>
      </trkpt>
      <trkpt lat="45.86247" lon="4.84063">
        <ele>172.8999939</ele>
        <time>2013-08-31T07:00:05Z</time>
      </trkpt>
      <trkpt lat="45.86254" lon="4.84062">
        <ele>173</ele>
        <time>2013-08-31T07:00:06Z</time>
      </trkpt>
      <trkpt lat="45.8626" lon="4.8406">
        <ele>173.1000061</ele>
        <time>2013-08-31T07:00:07Z</time>
      </trkpt>
      <trkpt lat="45.86266" lon="4.84057">
        <ele>173.6999969</ele>
        <time>2013-08-31T07:00:08Z</time>
      </trkpt>
      <trkpt lat="45.86274" lon="4.84055">
        <ele>173.6999969</ele>
        <time>2013-08-31T07:00:09Z</time>
      </trkpt>
      <trkpt lat="45.8628" lon="4.84053">
        <ele>173.3000031</ele>
        <time>2013-08-31T07:00:10Z</time>
      </trkpt>
      <trkpt lat="45.86286" lon="4.84051">
        <ele>172.8000031</ele>
        <time>2013-08-31T07:00:11Z</time>
      </trkpt>
      <trkpt lat="45.86293" lon="4.84048">
        <ele>173.1000061</ele>
        <time>2013-08-31T07:00:12Z</time>
      </trkpt>
      <trkpt lat="45.86299" lon="4.84047">
        <ele>172.8000031</ele>
        <time>2013-08-31T07:00:13Z</time>
      </trkpt>
      <trkpt lat="45.86307" lon="4.84043">
        <ele>173</ele>
        <time>2013-08-31T07:00:14Z</time>
      </trkpt>
      <trkpt lat="45.86312" lon="4.84043">
        <ele>173</ele>
        <time>2013-08-31T07:00:15Z</time>
      </trkpt>
      <trkpt lat="45.8632" lon="4.8404">
        <ele>173.5</ele>
        <time>2013-08-31T07:00:16Z</time>
      </trkpt>
      <trkpt lat="45.86325" lon="4.84038">
        <ele>173.3999939</ele>
        <time>2013-08-31T07:00:17Z</time>
      </trkpt>
      <trkpt lat="45.86332" lon="4.84036">
        <ele>173</ele>
        <time>2013-08-31T07:00:18Z</time>
      </trkpt>
      <trkpt lat="45.86339" lon="4.84033">
        <ele>173.1000061</ele>
        <time>2013-08-31T07:00:19Z</time>
      </trkpt>
      <trkpt lat="45.86345" lon="4.84032">
        <ele>173.5</ele>
        <time>2013-08-31T07:00:20Z</time>
      </trkpt>
      <trkpt lat="45.8635" lon="4.84032">
        <ele>173.1000061</ele>
        <time>2013-08-31T07:00:21Z</time>
      </trkpt>
      <trkpt lat="45.86356" lon="4.8403">
        <ele>172.8999939</ele>
        <time>2013-08-31T07:00:22Z</time>
      </trkpt>
      <trkpt lat="45.86363" lon="4.84028">
        <ele>173</ele>
        <time>2013-08-31T07:00:23Z</time>
      </trkpt>
      <trkpt lat="45.86369" lon="4.84027">
        <ele>173</ele>
        <time>2013-08-31T07:00:24Z</time>
      </trkpt>
      <trkpt lat="45.86375" lon="4.84026">
        <ele>173.1000061</ele>
        <time>2013-08-31T07:00:25Z</time>
      </trkpt>
      <trkpt lat="45.86381" lon="4.84025">
        <ele>173</ele>
        <time>2013-08-31T07:00:26Z</time>
      </trkpt>
      <trkpt lat="45.86389" lon="4.84023">
        <ele>172.6999969</ele>
        <time>2013-08-31T07:00:27Z</time>
      </trkpt>
      <trkpt lat="45.86394" lon="4.84021">
        <ele>173</ele>
        <time>2013-08-31T07:00:28Z</time>
      </trkpt>
      <trkpt lat="45.86401" lon="4.8402">
        <ele>173</ele>
        <time>2013-08-31T07:00:29Z</time>
      </trkpt>
      <trkpt lat="45.86408" lon="4.8402">
        <ele>172.6000061</ele>
        <time>2013-08-31T07:00:30Z</time>
      </trkpt>
      <trkpt lat="45.86415" lon="4.84015">
        <ele>171.8000031</ele>
        <time>2013-08-31T07:00:31Z</time>
      </trkpt>
      <trkpt lat="45.86421" lon="4.84012">
        <ele>171.3999939</ele>
        <time>2013-08-31T07:00:32Z</time>
      </trkpt>
      <trkpt lat="45.86427" lon="4.84012">
        <ele>171.3999939</ele>
        <time>2013-08-31T07:00:33Z</time>
      </trkpt>
      <trkpt lat="45.86433" lon="4.84011">
        <ele>171.8000031</ele>
        <time>2013-08-31T07:00:34Z</time>
      </trkpt>
      <trkpt lat="45.8644" lon="4.8401">
        <ele>171.8000031</ele>
        <time>2013-08-31T07:00:35Z</time>
      </trkpt>
      <trkpt lat="45.86446" lon="4.84008">
        <ele>172.3000031</ele>
        <time>2013-08-31T07:00:36Z</time>
      </trkpt>
      <trkpt lat="45.86453" lon="4.84005">
        <ele>172.3999939</ele>
        <time>2013-08-31T07:00:37Z</time>
      </trkpt>
      <trkpt lat="45.8646" lon="4.84002">
        <ele>172.6999969</ele>
        <time>2013-08-31T07:00:38Z</time>
      </trkpt>
      <trkpt lat="45.86465" lon="4.83999">
        <ele>172.1999969</ele>
        <time>2013-08-31T07:00:39Z</time>
      </trkpt>
      <trkpt lat="45.86472" lon="4.83997">
        <ele>172.1000061</ele>
        <time>2013-08-31T07:00:40Z</time>
      </trkpt>
      <trkpt lat="45.86478" lon="4.83995">
        <ele>172.5</ele>
        <time>2013-08-31T07:00:41Z</time>
      </trkpt>
      <trkpt lat="45.86484" lon="4.83992">
        <ele>172.6000061</ele>
        <time>2013-08-31T07:00:42Z</time>
      </trkpt>
      <trkpt lat="45.86491" lon="4.83991">
        <ele>172.8999939</ele>
        <time>2013-08-31T07:00:43Z</time>
      </trkpt>
      <trkpt lat="45.86496" lon="4.83989">
        <ele>173</ele>
        <time>2013-08-31T07:00:44Z</time>
      </trkpt>
      <trkpt lat="45.86503" lon="4.83987">
        <ele>172.6999969</ele>
        <time>2013-08-31T07:00:45Z</time>
      </trkpt>
      <trkpt lat="45.86509" lon="4.83986">
        <ele>172.6999969</ele>
        <time>2013-08-31T07:00:46Z</time>
      </trkpt>
      <trkpt lat="45.86514" lon="4.83985">
        <ele>172.8999939</ele>
        <time>2013-08-31T07:00:47Z</time>
      </trkpt>
      <trkpt lat="45.86521" lon="4.83984">
        <ele>172.8000031</ele>
        <time>2013-08-31T07:00:48Z</time>
      </trkpt>
      <trkpt lat="45.86528" lon="4.83982">
        <ele>173.1000061</ele>
        <time>2013-08-31T07:00:49Z</time>
      </trkpt>
      <trkpt lat="45.86534" lon="4.8398">
        <ele>173.6000061</ele>
        <time>2013-08-31T07:00:50Z</time>
      </trkpt>
      <trkpt lat="45.86541" lon="4.83979">
        <ele>173.3999939</ele>
        <time>2013-08-31T07:00:51Z</time>
      </trkpt>
      <trkpt lat="45.86546" lon="4.83978">
        <ele>173.6000061</ele>
        <time>2013-08-31T07:00:52Z</time>
      </trkpt>
      <trkpt lat="45.86553" lon="4.83976">
        <ele>173.6999969</ele>
        <time>2013-08-31T07:00:53Z</time>
      </trkpt>
      <trkpt lat="45.86559" lon="4.83974">
        <ele>174.1999969</ele>
        <time>2013-08-31T07:00:54Z</time>
      </trkpt>
      <trkpt lat="45.86565" lon="4.83972">
        <ele>174.1000061</ele>
        <time>2013-08-31T07:00:55Z</time>
      </trkpt>
      <trkpt lat="45.86572" lon="4.8397">
        <ele>173.8000031</ele>
        <time>2013-08-31T07:00:56Z</time>
      </trkpt>
      <trkpt lat="45.86578" lon="4.8397">
        <ele>173.3000031</ele>
        <time>2013-08-31T07:00:57Z</time>
      </trkpt>
      <trkpt lat="45.86585" lon="4.83969">
        <ele>173.1000061</ele>
        <time>2013-08-31T07:00:58Z</time>
      </trkpt>
      <trkpt lat="45.86591" lon="4.83971">
        <ele>172.8999939</ele>
        <time>2013-08-31T07:00:59Z</time>
      </trkpt>
      <trkpt lat="45.86596" lon="4.83969">
        <ele>172.6999969</ele>
        <time>2013-08-31T07:01:00Z</time>
      </trkpt>
      <trkpt lat="45.86604" lon="4.83964">
        <ele>172.8000031</ele>
        <time>2013-08-31T07:01:01Z</time>
      </trkpt>
      <trkpt lat="45.86611" lon="4.83959">
        <ele>173.6999969</ele>
        <time>2013-08-31T07:01:02Z</time>
      </trkpt>
      <trkpt lat="45.86616" lon="4.83955">
        <ele>174</ele>
        <time>2013-08-31T07:01:03Z</time>
      </trkpt>
      <trkpt lat="45.86623" lon="4.83951">
        <ele>174</ele>
        <time>2013-08-31T07:01:04Z</time>
      </trkpt>
      <trkpt lat="45.86629" lon="4.83948">
        <ele>174.1000061</ele>
        <time>2013-08-31T07:01:05Z</time>
      </trkpt>
      <trkpt lat="45.86634" lon="4.83945">
        <ele>174.1999969</ele>
        <time>2013-08-31T07:01:06Z</time>
      </trkpt>
      <trkpt lat="45.86641" lon="4.8394">
        <ele>175.1999969</ele>
        <time>2013-08-31T07:01:08Z</time>
      </trkpt>
      <trkpt lat="45.86646" lon="4.83936">
        <ele>175.8000031</ele>
        <time>2013-08-31T07:01:09Z</time>
      </trkpt>
      <trkpt lat="45.8665" lon="4.8393">
        <ele>177.1000061</ele>
        <time>2013-08-31T07:01:10Z</time>
      </trkpt>
      <trkpt lat="45.86656" lon="4.83925">
        <ele>177.1999969</ele>
        <time>2013-08-31T07:01:11Z</time>
      </trkpt>
      <trkpt lat="45.86664" lon="4.83922">
        <ele>176.6999969</ele>
        <time>2013-08-31T07:01:13Z</time>
      </trkpt>
      <trkpt lat="45.86669" lon="4.83916">
        <ele>177.1999969</ele>
        <time>2013-08-31T07:01:14Z</time>
      </trkpt>
      <trkpt lat="45.86675" lon="4.83912">
        <ele>177.6999969</ele>
        <time>2013-08-31T07:01:15Z</time>
      </trkpt>
      <trkpt lat="45.86679" lon="4.83906">
        <ele>178.1999969</ele>
        <time>2013-08-31T07:01:16Z</time>
      </trkpt>
      <trkpt lat="45.86686" lon="4.83897">
        <ele>177.3000031</ele>
        <time>2013-08-31T07:01:17Z</time>
      </trkpt>
      <trkpt lat="45.86691" lon="4.83892">
        <ele>177.1999969</ele>
        <time>2013-08-31T07:01:18Z</time>
      </trkpt>
      <trkpt lat="45.86694" lon="4.83888">
        <ele>176.8000031</ele>
        <time>2013-08-31T07:01:19Z</time>
      </trkpt>
      <trkpt lat="45.86699" lon="4.83883">
        <ele>177.6999969</ele>
        <time>2013-08-31T07:01:20Z</time>
      </trkpt>
      <trkpt lat="45.86703" lon="4.83878">
        <ele>177.3000031</ele>
        <time>2013-08-31T07:01:21Z</time>
      </trkpt>
      <trkpt lat="45.86707" lon="4.83875">
        <ele>177.6000061</ele>
        <time>2013-08-31T07:01:22Z</time>
      </trkpt>
      <trkpt lat="45.86711" lon="4.83872">
        <ele>178.1000061</ele>
        <time>2013-08-31T07:01:23Z</time>
      </trkpt>
      <trkpt lat="45.86717" lon="4.83864">
        <ele>179.1999969</ele>
        <time>2013-08-31T07:01:24Z</time>
      </trkpt>
      <trkpt lat="45.86722" lon="4.83862">
        <ele>179.6999969</ele>
        <time>2013-08-31T07:01:25Z</time>
      </trkpt>
      <trkpt lat="45.86729" lon="4.83853">
        <ele>178.8999939</ele>
        <time>2013-08-31T07:01:26Z</time>
      </trkpt>
      <trkpt lat="45.86734" lon="4.83847">
        <ele>179</ele>
        <time>2013-08-31T07:01:27Z</time>
      </trkpt>
      <trkpt lat="45.86739" lon="4.83842">
        <ele>179.1000061</ele>
        <time>2013-08-31T07:01:28Z</time>
      </trkpt>
      <trkpt lat="45.86745" lon="4.83837">
        <ele>179.6999969</ele>
        <time>2013-08-31T07:01:29Z</time>
      </trkpt>
      <trkpt lat="45.86749" lon="4.83834">
        <ele>179.3999939</ele>
        <time>2013-08-31T07:01:30Z</time>
      </trkpt>
      <trkpt lat="45.86754" lon="4.83829">
        <ele>179.1999969</ele>
        <time>2013-08-31T07:01:31Z</time>
      </trkpt>
      <trkpt lat="45.86758" lon="4.83824">
        <ele>179.1999969</ele>
        <time>2013-08-31T07:01:32Z</time>
      </trkpt>
      <trkpt lat="45.86762" lon="4.83818">
        <ele>178.6000061</ele>
        <time>2013-08-31T07:01:33Z</time>
      </trkpt>
      <trkpt lat="45.86766" lon="4.83816">
        <ele>178.1999969</ele>
        <time>2013-08-31T07:01:34Z</time>
      </trkpt>
      <trkpt lat="45.86774" lon="4.83811">
        <ele>177.8000031</ele>
        <time>2013-08-31T07:01:35Z</time>
      </trkpt>
      <trkpt lat="45.86781" lon="4.83807">
        <ele>178.1999969</ele>
        <time>2013-08-31T07:01:36Z</time>
      </trkpt>
      <trkpt lat="45.86788" lon="4.83803">
        <ele>178</ele>
        <time>2013-08-31T07:01:37Z</time>
      </trkpt>
      <trkpt lat="45.86796" lon="4.83792">
        <ele>176.3999939</ele>
        <time>2013-08-31T07:01:38Z</time>
      </trkpt>
      <trkpt lat="45.86803" lon="4.83786">
        <ele>177</ele>
        <time>2013-08-31T07:01:39Z</time>
      </trkpt>
      <trkpt lat="45.86808" lon="4.83781">
        <ele>177.6000061</ele>
        <time>2013-08-31T07:01:40Z</time>
      </trkpt>
      <trkpt lat="45.86813" lon="4.8378">
        <ele>177.3000031</ele>
        <time>2013-08-31T07:01:41Z</time>
      </trkpt>
      <trkpt lat="45.8682" lon="4.83776">
        <ele>177.8000031</ele>
        <time>2013-08-31T07:01:42Z</time>
      </trkpt>
      <trkpt lat="45.86824" lon="4.83773">
        <ele>177.5</ele>
        <time>2013-08-31T07:01:43Z</time>
      </trkpt>
      <trkpt lat="45.86831" lon="4.8377">
        <ele>177.6999969</ele>
        <time>2013-08-31T07:01:44Z</time>
      </trkpt>
      <trkpt lat="45.86838" lon="4.83765">
        <ele>178.1000061</ele>
        <time>2013-08-31T07:01:45Z</time>
      </trkpt>
      <trkpt lat="45.86842" lon="4.83763">
        <ele>178.3000031</ele>
        <time>2013-08-31T07:01:46Z</time>
      </trkpt>
      <trkpt lat="45.86847" lon="4.83758">
        <ele>177.6000061</ele>
        <time>2013-08-31T07:01:47Z</time>
      </trkpt>
      <trkpt lat="45.86852" lon="4.83754">
        <ele>178</ele>
        <time>2013-08-31T07:01:48Z</time>
      </trkpt>
      <trkpt lat="45.86858" lon="4.83749">
        <ele>177.6999969</ele>
        <time>2013-08-31T07:01:49Z</time>
      </trkpt>
      <trkpt lat="45.86867" lon="4.83742">
        <ele>177.1000061</ele>
        <time>2013-08-31T07:01:50Z</time>
      </trkpt>
      <trkpt lat="45.86873" lon="4.83737">
        <ele>175.8999939</ele>
        <time>2013-08-31T07:01:51Z</time>
      </trkpt>
      <trkpt lat="45.86881" lon="4.83733">
        <ele>176.6999969</ele>
        <time>2013-08-31T07:01:52Z</time>
      </trkpt>
      <trkpt lat="45.86889" lon="4.83731">
        <ele>176.8999939</ele>
        <time>2013-08-31T07:01:53Z</time>
      </trkpt>
      <trkpt lat="45.86898" lon="4.83729">
        <ele>176.6000061</ele>
        <time>2013-08-31T07:01:54Z</time>
      </trkpt>
      <trkpt lat="45.86907" lon="4.83726">
        <ele>176.3999939</ele>
        <time>2013-08-31T07:01:55Z</time>
      </trkpt>
      <trkpt lat="45.86914" lon="4.83723">
        <ele>176.3999939</ele>
        <time>2013-08-31T07:01:56Z</time>
      </trkpt>
      <trkpt lat="45.8692" lon="4.83723">
        <ele>175.8000031</ele>
        <time>2013-08-31T07:01:57Z</time>
      </trkpt>
      <trkpt lat="45.86928" lon="4.83719">
        <ele>175.8999939</ele>
        <time>2013-08-31T07:01:58Z</time>
      </trkpt>
      <trkpt lat="45.86935" lon="4.83716">
        <ele>175.6999969</ele>
        <time>2013-08-31T07:01:59Z</time>
      </trkpt>
      <trkpt lat="45.86942" lon="4.83714">
        <ele>175.3999939</ele>
        <time>2013-08-31T07:02:00Z</time>
      </trkpt>
      <trkpt lat="45.86949" lon="4.83711">
        <ele>175.1000061</ele>
        <time>2013-08-31T07:02:01Z</time>
      </trkpt>
      <trkpt lat="45.86957" lon="4.8371">
        <ele>175.1000061</ele>
        <time>2013-08-31T07:02:02Z</time>
      </trkpt>
      <trkpt lat="45.86963" lon="4.83708">
        <ele>174.3000031</ele>
        <time>2013-08-31T07:02:03Z</time>
      </trkpt>
      <trkpt lat="45.8697" lon="4.83705">
        <ele>173.6000061</ele>
        <time>2013-08-31T07:02:04Z</time>
      </trkpt>
      <trkpt lat="45.86978" lon="4.83705">
        <ele>173.1999969</ele>
        <time>2013-08-31T07:02:05Z</time>
      </trkpt>
      <trkpt lat="45.86985" lon="4.83705">
        <ele>172.6000061</ele>
        <time>2013-08-31T07:02:06Z</time>
      </trkpt>
      <trkpt lat="45.86992" lon="4.83706">
        <ele>172.5</ele>
        <time>2013-08-31T07:02:07Z</time>
      </trkpt>
      <trkpt lat="45.86998" lon="4.83706">
        <ele>172.3999939</ele>
        <time>2013-08-31T07:02:08Z</time>
      </trkpt>
      <trkpt lat="45.87004" lon="4.83705">
        <ele>172.1000061</ele>
        <time>2013-08-31T07:02:09Z</time>
      </trkpt>
      <trkpt lat="45.87011" lon="4.83704">
        <ele>171.6000061</ele>
        <time>2013-08-31T07:02:10Z</time>
      </trkpt>
      <trkpt lat="45.87017" lon="4.83703">
        <ele>171.6999969</ele>
        <time>2013-08-31T07:02:11Z</time>
      </trkpt>
      <trkpt lat="45.87024" lon="4.83704">
        <ele>171.3999939</ele>
        <time>2013-08-31T07:02:12Z</time>
      </trkpt>
      <trkpt lat="45.8703" lon="4.83704">
        <ele>172.8999939</ele>
        <time>2013-08-31T07:02:13Z</time>
      </trkpt>
      <trkpt lat="45.87038" lon="4.83705">
        <ele>172.6000061</ele>
        <time>2013-08-31T07:02:14Z</time>
      </trkpt>
      <trkpt lat="45.87044" lon="4.83705">
        <ele>172.1999969</ele>
        <time>2013-08-31T07:02:15Z</time>
      </trkpt>
      <trkpt lat="45.87051" lon="4.83708">
        <ele>173.1999969</ele>
        <time>2013-08-31T07:02:16Z</time>
      </trkpt>
      <trkpt lat="45.87059" lon="4.83708">
        <ele>173</ele>
        <time>2013-08-31T07:02:17Z</time>
      </trkpt>
      <trkpt lat="45.87066" lon="4.83707">
        <ele>173.3000031</ele>
        <time>2013-08-31T07:02:18Z</time>
      </trkpt>
      <trkpt lat="45.87072" lon="4.83707">
        <ele>173.3000031</ele>
        <time>2013-08-31T07:02:19Z</time>
      </trkpt>
      <trkpt lat="45.87079" lon="4.83707">
        <ele>172.8999939</ele>
        <time>2013-08-31T07:02:20Z</time>
      </trkpt>
      <trkpt lat="45.87085" lon="4.83709">
        <ele>173</ele>
        <time>2013-08-31T07:02:21Z</time>
      </trkpt>
      <trkpt lat="45.87091" lon="4.8371">
        <ele>173.3999939</ele>
        <time>2013-08-31T07:02:22Z</time>
      </trkpt>
      <trkpt lat="45.87096" lon="4.8371">
        <ele>173.5</ele>
        <time>2013-08-31T07:02:23Z</time>
      </trkpt>
      <trkpt lat="45.87101" lon="4.83711">
        <ele>173.5</ele>
        <time>2013-08-31T07:02:24Z</time>
      </trkpt>
      <trkpt lat="45.87107" lon="4.83715">
        <ele>173.8999939</ele>
        <time>2013-08-31T07:02:25Z</time>
      </trkpt>
      <trkpt lat="45.87116" lon="4.83717">
        <ele>174.1999969</ele>
        <time>2013-08-31T07:02:26Z</time>
      </trkpt>
      <trkpt lat="45.87124" lon="4.83719">
        <ele>174</ele>
        <time>2013-08-31T07:02:27Z</time>
      </trkpt>
      <trkpt lat="45.87131" lon="4.83718">
        <ele>173.8000031</ele>
        <time>2013-08-31T07:02:28Z</time>
      </trkpt>
      <trkpt lat="45.87139" lon="4.83719">
        <ele>173.8999939</ele>
        <time>2013-08-31T07:02:29Z</time>
      </trkpt>
      <trkpt lat="45.87146" lon="4.83719">
        <ele>173.6000061</ele>
        <time>2013-08-31T07:02:30Z</time>
      </trkpt>
      <trkpt lat="45.87152" lon="4.83721">
        <ele>174.1000061</ele>
        <time>2013-08-31T07:02:31Z</time>
      </trkpt>
      <trkpt lat="45.87158" lon="4.83724">
        <ele>174.1000061</ele>
        <time>2013-08-31T07:02:32Z</time>
      </trkpt>
      <trkpt lat="45.87165" lon="4.83726">
        <ele>174.1999969</ele>
        <time>2013-08-31T07:02:33Z</time>
      </trkpt>
      <trkpt lat="45.87171" lon="4.8373">
        <ele>174.3999939</ele>
        <time>2013-08-31T07:02:34Z</time>
      </trkpt>
      <trkpt lat="45.87179" lon="4.83731">
        <ele>174.6999969</ele>
        <time>2013-08-31T07:02:35Z</time>
      </trkpt>
      <trkpt lat="45.87186" lon="4.83733">
        <ele>173.8000031</ele>
        <time>2013-08-31T07:02:36Z</time>
      </trkpt>
      <trkpt lat="45.87194" lon="4.83731">
        <ele>173.3999939</ele>
        <time>2013-08-31T07:02:37Z</time>
      </trkpt>
      <trkpt lat="45.87201" lon="4.83731">
        <ele>173.3999939</ele>
        <time>2013-08-31T07:02:38Z</time>
      </trkpt>
      <trkpt lat="45.87207" lon="4.83731">
        <ele>173.1000061</ele>
        <time>2013-08-31T07:02:39Z</time>
      </trkpt>
      <trkpt lat="45.87214" lon="4.83733">
        <ele>173.1000061</ele>
        <time>2013-08-31T07:02:40Z</time>
      </trkpt>
      <trkpt lat="45.8722" lon="4.83735">
        <ele>173.5</ele>
        <time>2013-08-31T07:02:41Z</time>
      </trkpt>
      <trkpt lat="45.87225" lon="4.83736">
        <ele>173.3999939</ele>
        <time>2013-08-31T07:02:42Z</time>
      </trkpt>
      <trkpt lat="45.87233" lon="4.83735">
        <ele>174.1000061</ele>
        <time>2013-08-31T07:02:43Z</time>
      </trkpt>
      <trkpt lat="45.87239" lon="4.83736">
        <ele>174.6999969</ele>
        <time>2013-08-31T07:02:44Z</time>
      </trkpt>
      <trkpt lat="45.87246" lon="4.83735">
        <ele>174.5</ele>
        <time>2013-08-31T07:02:45Z</time>
      </trkpt>
      <trkpt lat="45.87252" lon="4.83736">
        <ele>174.3000031</ele>
        <time>2013-08-31T07:02:46Z</time>
      </trkpt>
      <trkpt lat="45.87258" lon="4.83736">
        <ele>174.3000031</ele>
        <time>2013-08-31T07:02:47Z</time>
      </trkpt>
      <trkpt lat="45.87265" lon="4.83737">
        <ele>174.6999969</ele>
        <time>2013-08-31T07:02:48Z</time>
      </trkpt>
      <trkpt lat="45.87271" lon="4.83736">
        <ele>175.8000031</ele>
        <time>2013-08-31T07:02:49Z</time>
      </trkpt>
      <trkpt lat="45.87275" lon="4.83736">
        <ele>175.6999969</ele>
        <time>2013-08-31T07:02:50Z</time>
      </trkpt>
      <trkpt lat="45.87282" lon="4.83735">
        <ele>176</ele>
        <time>2013-08-31T07:02:51Z</time>
      </trkpt>
      <trkpt lat="45.87288" lon="4.83737">
        <ele>176.5</ele>
        <time>2013-08-31T07:02:52Z</time>
      </trkpt>
      <trkpt lat="45.87294" lon="4.83737">
        <ele>176.8999939</ele>
        <time>2013-08-31T07:02:53Z</time>
      </trkpt>
      <trkpt lat="45.87301" lon="4.83738">
        <ele>177.1000061</ele>
        <time>2013-08-31T07:02:54Z</time>
      </trkpt>
      <trkpt lat="45.87307" lon="4.83739">
        <ele>177.1000061</ele>
        <time>2013-08-31T07:02:55Z</time>
      </trkpt>
      <trkpt lat="45.87311" lon="4.83741">
        <ele>176.6999969</ele>
        <time>2013-08-31T07:02:56Z</time>
      </trkpt>
      <trkpt lat="45.87315" lon="4.83742">
        <ele>176.8000031</ele>
        <time>2013-08-31T07:02:57Z</time>
      </trkpt>
      <trkpt lat="45.87322" lon="4.83744">
        <ele>175.5</ele>
        <time>2013-08-31T07:02:58Z</time>
      </trkpt>
      <trkpt lat="45.87329" lon="4.83746">
        <ele>174.8999939</ele>
        <time>2013-08-31T07:02:59Z</time>
      </trkpt>
      <trkpt lat="45.87333" lon="4.83746">
        <ele>175.3999939</ele>
        <time>2013-08-31T07:03:00Z</time>
      </trkpt>
      <trkpt lat="45.87336" lon="4.83747">
        <ele>175.1999969</ele>
        <time>2013-08-31T07:03:01Z</time>
      </trkpt>
      <trkpt lat="45.87342" lon="4.8375">
        <ele>175.1999969</ele>
        <time>2013-08-31T07:03:02Z</time>
      </trkpt>
      <trkpt lat="45.87347" lon="4.83752">
        <ele>174.6000061</ele>
        <time>2013-08-31T07:03:03Z</time>
      </trkpt>
      <trkpt lat="45.87355" lon="4.83752">
        <ele>173.8999939</ele>
        <time>2013-08-31T07:03:04Z</time>
      </trkpt>
      <trkpt lat="45.87364" lon="4.83753">
        <ele>173</ele>
        <time>2013-08-31T07:03:05Z</time>
      </trkpt>
      <trkpt lat="45.87369" lon="4.83754">
        <ele>172.3000031</ele>
        <time>2013-08-31T07:03:06Z</time>
      </trkpt>
      <trkpt lat="45.87376" lon="4.83755">
        <ele>172.6999969</ele>
        <time>2013-08-31T07:03:07Z</time>
      </trkpt>
      <trkpt lat="45.87381" lon="4.83759">
        <ele>173.5</ele>
        <time>2013-08-31T07:03:08Z</time>
      </trkpt>
      <trkpt lat="45.87388" lon="4.8376">
        <ele>173.3999939</ele>
        <time>2013-08-31T07:03:09Z</time>
      </trkpt>
      <trkpt lat="45.87394" lon="4.83761">
        <ele>173.5</ele>
        <time>2013-08-31T07:03:10Z</time>
      </trkpt>
      <trkpt lat="45.874" lon="4.83762">
        <ele>173.8999939</ele>
        <time>2013-08-31T07:03:11Z</time>
      </trkpt>
      <trkpt lat="45.87406" lon="4.83761">
        <ele>174.3999939</ele>
        <time>2013-08-31T07:03:12Z</time>
      </trkpt>
      <trkpt lat="45.87412" lon="4.83762">
        <ele>174.6000061</ele>
        <time>2013-08-31T07:03:13Z</time>
      </trkpt>
      <trkpt lat="45.87418" lon="4.83762">
        <ele>174.6000061</ele>
        <time>2013-08-31T07:03:14Z</time>
      </trkpt>
      <trkpt lat="45.87425" lon="4.83762">
        <ele>174.5</ele>
        <time>2013-08-31T07:03:15Z</time>
      </trkpt>
      <trkpt lat="45.8743" lon="4.83763">
        <ele>174.6000061</ele>
        <time>2013-08-31T07:03:16Z</time>
      </trkpt>
      <trkpt lat="45.87436" lon="4.83764">
        <ele>174.3000031</ele>
        <time>2013-08-31T07:03:17Z</time>
      </trkpt>
      <trkpt lat="45.87443" lon="4.83765">
        <ele>174.3999939</ele>
        <time>2013-08-31T07:03:18Z</time>
      </trkpt>
      <trkpt lat="45.87449" lon="4.83766">
        <ele>174.1000061</ele>
        <time>2013-08-31T07:03:19Z</time>
      </trkpt>
      <trkpt lat="45.87455" lon="4.83768">
        <ele>174.6000061</ele>
        <time>2013-08-31T07:03:20Z</time>
      </trkpt>
      <trkpt lat="45.87461" lon="4.83769">
        <ele>174.5</ele>
        <time>2013-08-31T07:03:21Z</time>
      </trkpt>
      <trkpt lat="45.87467" lon="4.83771">
        <ele>174.3999939</ele>
        <time>2013-08-31T07:03:22Z</time>
      </trkpt>
      <trkpt lat="45.87473" lon="4.83774">
        <ele>174</ele>
        <time>2013-08-31T07:03:23Z</time>
      </trkpt>
      <trkpt lat="45.87478" lon="4.83775">
        <ele>173.6999969</ele>
        <time>2013-08-31T07:03:24Z</time>
      </trkpt>
      <trkpt lat="45.87485" lon="4.83773">
        <ele>173.3000031</ele>
        <time>2013-08-31T07:03:25Z</time>
      </trkpt>
      <trkpt lat="45.87492" lon="4.83774">
        <ele>173.6000061</ele>
        <time>2013-08-31T07:03:26Z</time>
      </trkpt>
      <trkpt lat="45.87498" lon="4.83776">
        <ele>174</ele>
        <time>2013-08-31T07:03:27Z</time>
      </trkpt>
      <trkpt lat="45.87505" lon="4.83776">
        <ele>174.3999939</ele>
        <time>2013-08-31T07:03:28Z</time>
      </trkpt>
      <trkpt lat="45.87511" lon="4.83777">
        <ele>174.6000061</ele>
        <time>2013-08-31T07:03:29Z</time>
      </trkpt>
      <trkpt lat="45.87517" lon="4.83779">
        <ele>174.6999969</ele>
        <time>2013-08-31T07:03:30Z</time>
      </trkpt>
      <trkpt lat="45.87523" lon="4.83779">
        <ele>174.5</ele>
        <time>2013-08-31T07:03:31Z</time>
      </trkpt>
      <trkpt lat="45.87528" lon="4.8378">
        <ele>175</ele>
        <time>2013-08-31T07:03:32Z</time>
      </trkpt>
      <trkpt lat="45.87538" lon="4.83783">
        <ele>173.3000031</ele>
        <time>2013-08-31T07:03:33Z</time>
      </trkpt>
      <trkpt lat="45.87544" lon="4.83786">
        <ele>173.6999969</ele>
        <time>2013-08-31T07:03:34Z</time>
      </trkpt>
      <trkpt lat="45.8755" lon="4.83786">
        <ele>173.1000061</ele>
        <time>2013-08-31T07:03:35Z</time>
      </trkpt>
      <trkpt lat="45.87555" lon="4.83786">
        <ele>173.3000031</ele>
        <time>2013-08-31T07:03:36Z</time>
      </trkpt>
      <trkpt lat="45.8756" lon="4.83788">
        <ele>173.1000061</ele>
        <time>2013-08-31T07:03:37Z</time>
      </trkpt>
      <trkpt lat="45.87566" lon="4.83788">
        <ele>172.8000031</ele>
        <time>2013-08-31T07:03:38Z</time>
      </trkpt>
      <trkpt lat="45.87572" lon="4.83788">
        <ele>172.8999939</ele>
        <time>2013-08-31T07:03:39Z</time>
      </trkpt>
      <trkpt lat="45.87577" lon="4.83787">
        <ele>173.1000061</ele>
        <time>2013-08-31T07:03:40Z</time>
      </trkpt>
      <trkpt lat="45.87582" lon="4.83788">
        <ele>172.8999939</ele>
        <time>2013-08-31T07:03:41Z</time>
      </trkpt>
      <trkpt lat="45.87588" lon="4.83788">
        <ele>173.1000061</ele>
        <time>2013-08-31T07:03:42Z</time>
      </trkpt>
      <trkpt lat="45.87593" lon="4.83788">
        <ele>171.8999939</ele>
        <time>2013-08-31T07:03:43Z</time>
      </trkpt>
      <trkpt lat="45.87602" lon="4.83789">
        <ele>171.1000061</ele>
        <time>2013-08-31T07:03:45Z</time>
      </trkpt>
      <trkpt lat="45.87607" lon="4.83789">
        <ele>171.1999969</ele>
        <time>2013-08-31T07:03:46Z</time>
      </trkpt>
      <trkpt lat="45.87614" lon="4.83791">
        <ele>170.6000061</ele>
        <time>2013-08-31T07:03:48Z</time>
      </trkpt>
      <trkpt lat="45.87617" lon="4.83791">
        <ele>171.1000061</ele>
        <time>2013-08-31T07:03:49Z</time>
      </trkpt>
      <trkpt lat="45.87625" lon="4.83792">
        <ele>171.5</ele>
        <time>2013-08-31T07:03:51Z</time>
      </trkpt>
      <trkpt lat="45.87629" lon="4.83794">
        <ele>171.3000031</ele>
        <time>2013-08-31T07:03:52Z</time>
      </trkpt>
      <trkpt lat="45.87636" lon="4.83794">
        <ele>170.6999969</ele>
        <time>2013-08-31T07:03:54Z</time>
      </trkpt>
      <trkpt lat="45.8764" lon="4.83794">
        <ele>170.5</ele>
        <time>2013-08-31T07:03:55Z</time>
      </trkpt>
      <trkpt lat="45.87645" lon="4.83794">
        <ele>170.1000061</ele>
        <time>2013-08-31T07:03:56Z</time>
      </trkpt>
      <trkpt lat="45.8765" lon="4.83794">
        <ele>169.6000061</ele>
        <time>2013-08-31T07:03:57Z</time>
      </trkpt>
      <trkpt lat="45.87655" lon="4.83793">
        <ele>169.8999939</ele>
        <time>2013-08-31T07:03:58Z</time>
      </trkpt>
      <trkpt lat="45.8766" lon="4.83793">
        <ele>170.1999969</ele>
        <time>2013-08-31T07:03:59Z</time>
      </trkpt>
      <trkpt lat="45.87668" lon="4.83792">
        <ele>169.5</ele>
        <time>2013-08-31T07:04:01Z</time>
      </trkpt>
      <trkpt lat="45.87673" lon="4.83792">
        <ele>169.6000061</ele>
        <time>2013-08-31T07:04:02Z</time>
      </trkpt>
      <trkpt lat="45.87678" lon="4.83792">
        <ele>169.6000061</ele>
        <time>2013-08-31T07:04:03Z</time>
      </trkpt>
      <trkpt lat="45.87682" lon="4.83792">
        <ele>169.6000061</ele>
        <time>2013-08-31T07:04:04Z</time>
      </trkpt>
      <trkpt lat="45.87689" lon="4.838">
        <ele>169.3000031</ele>
        <time>2013-08-31T07:04:06Z</time>
      </trkpt>
      <trkpt lat="45.8769" lon="4.838">
        <ele>169.6999969</ele>
        <time>2013-08-31T07:04:07Z</time>
      </trkpt>
      <trkpt lat="45.87698" lon="4.83801">
        <ele>169.6000061</ele>
        <time>2013-08-31T07:04:09Z</time>
      </trkpt>
      <trkpt lat="45.87701" lon="4.83802">
        <ele>170.5</ele>
        <time>2013-08-31T07:04:10Z</time>
      </trkpt>
      <trkpt lat="45.87706" lon="4.83803">
        <ele>170.8999939</ele>
        <time>2013-08-31T07:04:11Z</time>
      </trkpt>
      <trkpt lat="45.87712" lon="4.83803">
        <ele>171.3000031</ele>
        <time>2013-08-31T07:04:12Z</time>
      </trkpt>
      <trkpt lat="45.87713" lon="4.83812">
        <ele>173</ele>
        <time>2013-08-31T07:04:15Z</time>
      </trkpt>
      <trkpt lat="45.87714" lon="4.83816">
        <ele>173.8999939</ele>
        <time>2013-08-31T07:04:16Z</time>
      </trkpt>
      <trkpt lat="45.87714" lon="4.83826">
        <ele>173.8000031</ele>
        <time>2013-08-31T07:04:20Z</time>
      </trkpt>
      <trkpt lat="45.87714" lon="4.83829">
        <ele>172.8999939</ele>
        <time>2013-08-31T07:04:21Z</time>
      </trkpt>
      <trkpt lat="45.87707" lon="4.83824">
        <ele>173.6000061</ele>
        <time>2013-08-31T07:04:23Z</time>
      </trkpt>
      <trkpt lat="45.87705" lon="4.83823">
        <ele>173.6999969</ele>
        <time>2013-08-31T07:04:24Z</time>
      </trkpt>
      <trkpt lat="45.87699" lon="4.83818">
        <ele>173.5</ele>
        <time>2013-08-31T07:04:26Z</time>
      </trkpt>
      <trkpt lat="45.87697" lon="4.83815">
        <ele>173.1999969</ele>
        <time>2013-08-31T07:04:27Z</time>
      </trkpt>
      <trkpt lat="45.87695" lon="4.83804">
        <ele>173.3000031</ele>
        <time>2013-08-31T07:04:29Z</time>
      </trkpt>
      <trkpt lat="45.87699" lon="4.83797">
        <ele>174</ele>
        <time>2013-08-31T07:04:30Z</time>
      </trkpt>
      <trkpt lat="45.87698" lon="4.83786">
        <ele>173.3999939</ele>
        <time>2013-08-31T07:04:32Z</time>
      </trkpt>
      <trkpt lat="45.87698" lon="4.8378">
        <ele>173.3999939</ele>
        <time>2013-08-31T07:04:33Z</time>
      </trkpt>
      <trkpt lat="45.87697" lon="4.83768">
        <ele>173.5</ele>
        <time>2013-08-31T07:04:35Z</time>
      </trkpt>
      <trkpt lat="45.87697" lon="4.83762">
        <ele>173.6999969</ele>
        <time>2013-08-31T07:04:36Z</time>
      </trkpt>
      <trkpt lat="45.87696" lon="4.83751">
        <ele>174.3999939</ele>
        <time>2013-08-31T07:04:38Z</time>
      </trkpt>
      <trkpt lat="45.87694" lon="4.83745">
        <ele>174.6999969</ele>
        <time>2013-08-31T07:04:39Z</time>
      </trkpt>
      <trkpt lat="45.87693" lon="4.83735">
        <ele>175.1999969</ele>
        <time>2013-08-31T07:04:41Z</time>
      </trkpt>
      <trkpt lat="45.87692" lon="4.83729">
        <ele>175.1999969</ele>
        <time>2013-08-31T07:04:42Z</time>
      </trkpt>
      <trkpt lat="45.87694" lon="4.83717">
        <ele>175.5</ele>
        <time>2013-08-31T07:04:44Z</time>
      </trkpt>
      <trkpt lat="45.87694" lon="4.83711">
        <ele>175.6999969</ele>
        <time>2013-08-31T07:04:45Z</time>
      </trkpt>
      <trkpt lat="45.87693" lon="4.83699">
        <ele>175.8999939</ele>
        <time>2013-08-31T07:04:47Z</time>
      </trkpt>
      <trkpt lat="45.87693" lon="4.83694">
        <ele>175.8000031</ele>
        <time>2013-08-31T07:04:48Z</time>
      </trkpt>
      <trkpt lat="45.87693" lon="4.83684">
        <ele>175.8000031</ele>
        <time>2013-08-31T07:04:50Z</time>
      </trkpt>
      <trkpt lat="45.87692" lon="4.83679">
        <ele>175.8999939</ele>
        <time>2013-08-31T07:04:51Z</time>
      </trkpt>
      <trkpt lat="45.8769" lon="4.83668">
        <ele>175.8999939</ele>
        <time>2013-08-31T07:04:53Z</time>
      </trkpt>
      <trkpt lat="45.8769" lon="4.83663">
        <ele>176</ele>
        <time>2013-08-31T07:04:54Z</time>
      </trkpt>
      <trkpt lat="45.8769" lon="4.83653">
        <ele>176.1000061</ele>
        <time>2013-08-31T07:04:56Z</time>
      </trkpt>
      <trkpt lat="45.8769" lon="4.83649">
        <ele>175.8999939</ele>
        <time>2013-08-31T07:04:57Z</time>
      </trkpt>
      <trkpt lat="45.87689" lon="4.83638">
        <ele>176</ele>
        <time>2013-08-31T07:05:01Z</time>
      </trkpt>
      <trkpt lat="45.87688" lon="4.83635">
        <ele>176.1999969</ele>
        <time>2013-08-31T07:05:02Z</time>
      </trkpt>
      <trkpt lat="45.87687" lon="4.83626">
        <ele>175.6999969</ele>
        <time>2013-08-31T07:05:05Z</time>
      </trkpt>
      <trkpt lat="45.87687" lon="4.8362">
        <ele>175.6000061</ele>
        <time>2013-08-31T07:05:06Z</time>
      </trkpt>
      <trkpt lat="45.87686" lon="4.8361">
        <ele>175.6000061</ele>
        <time>2013-08-31T07:05:08Z</time>
      </trkpt>
      <trkpt lat="45.87686" lon="4.83605">
        <ele>175.3000031</ele>
        <time>2013-08-31T07:05:09Z</time>
      </trkpt>
      <trkpt lat="45.87686" lon="4.83593">
        <ele>175</ele>
        <time>2013-08-31T07:05:11Z</time>
      </trkpt>
      <trkpt lat="45.87685" lon="4.83588">
        <ele>175.1000061</ele>
        <time>2013-08-31T07:05:12Z</time>
      </trkpt>
      <trkpt lat="45.87683" lon="4.83579">
        <ele>174.3000031</ele>
        <time>2013-08-31T07:05:14Z</time>
      </trkpt>
      <trkpt lat="45.87682" lon="4.83573">
        <ele>174.1000061</ele>
        <time>2013-08-31T07:05:15Z</time>
      </trkpt>
      <trkpt lat="45.87686" lon="4.83562">
        <ele>174.1999969</ele>
        <time>2013-08-31T07:05:18Z</time>
      </trkpt>
      <trkpt lat="45.87688" lon="4.83558">
        <ele>174.6999969</ele>
        <time>2013-08-31T07:05:19Z</time>
      </trkpt>
      <trkpt lat="45.87691" lon="4.83555">
        <ele>174.8000031</ele>
        <time>2013-08-31T07:05:20Z</time>
      </trkpt>
      <trkpt lat="45.87695" lon="4.83549">
        <ele>174.5</ele>
        <time>2013-08-31T07:05:21Z</time>
      </trkpt>
      <trkpt lat="45.877" lon="4.83543">
        <ele>174.6999969</ele>
        <time>2013-08-31T07:05:22Z</time>
      </trkpt>
      <trkpt lat="45.87705" lon="4.83538">
        <ele>174.3000031</ele>
        <time>2013-08-31T07:05:23Z</time>
      </trkpt>
      <trkpt lat="45.8771" lon="4.83534">
        <ele>174.8000031</ele>
        <time>2013-08-31T07:05:24Z</time>
      </trkpt>
      <trkpt lat="45.87714" lon="4.83529">
        <ele>174.1999969</ele>
        <time>2013-08-31T07:05:25Z</time>
      </trkpt>
      <trkpt lat="45.87721" lon="4.83521">
        <ele>173.5</ele>
        <time>2013-08-31T07:05:26Z</time>
      </trkpt>
      <trkpt lat="45.87728" lon="4.83515">
        <ele>173</ele>
        <time>2013-08-31T07:05:27Z</time>
      </trkpt>
      <trkpt lat="45.87733" lon="4.83509">
        <ele>173.3000031</ele>
        <time>2013-08-31T07:05:28Z</time>
      </trkpt>
      <trkpt lat="45.87739" lon="4.83501">
        <ele>173.3000031</ele>
        <time>2013-08-31T07:05:29Z</time>
      </trkpt>
      <trkpt lat="45.87745" lon="4.83494">
        <ele>173</ele>
        <time>2013-08-31T07:05:30Z</time>
      </trkpt>
      <trkpt lat="45.87753" lon="4.83486">
        <ele>172.6999969</ele>
        <time>2013-08-31T07:05:31Z</time>
      </trkpt>
      <trkpt lat="45.87758" lon="4.83478">
        <ele>172.3000031</ele>
        <time>2013-08-31T07:05:32Z</time>
      </trkpt>
      <trkpt lat="45.87766" lon="4.8347">
        <ele>173</ele>
        <time>2013-08-31T07:05:33Z</time>
      </trkpt>
      <trkpt lat="45.87771" lon="4.83461">
        <ele>172.3999939</ele>
        <time>2013-08-31T07:05:34Z</time>
      </trkpt>
      <trkpt lat="45.87776" lon="4.83453">
        <ele>172.3999939</ele>
        <time>2013-08-31T07:05:35Z</time>
      </trkpt>
      <trkpt lat="45.8778" lon="4.83443">
        <ele>172.3000031</ele>
        <time>2013-08-31T07:05:36Z</time>
      </trkpt>
      <trkpt lat="45.87785" lon="4.83434">
        <ele>172.3000031</ele>
        <time>2013-08-31T07:05:37Z</time>
      </trkpt>
      <trkpt lat="45.8779" lon="4.83424">
        <ele>172.3000031</ele>
        <time>2013-08-31T07:05:38Z</time>
      </trkpt>
      <trkpt lat="45.87794" lon="4.83414">
        <ele>172.1000061</ele>
        <time>2013-08-31T07:05:39Z</time>
      </trkpt>
      <trkpt lat="45.87798" lon="4.83405">
        <ele>172.3000031</ele>
        <time>2013-08-31T07:05:40Z</time>
      </trkpt>
      <trkpt lat="45.87802" lon="4.83395">
        <ele>171.6999969</ele>
        <time>2013-08-31T07:05:41Z</time>
      </trkpt>
      <trkpt lat="45.87806" lon="4.83385">
        <ele>171.6999969</ele>
        <time>2013-08-31T07:05:42Z</time>
      </trkpt>
      <trkpt lat="45.87811" lon="4.83375">
        <ele>171.8000031</ele>
        <time>2013-08-31T07:05:43Z</time>
      </trkpt>
      <trkpt lat="45.87816" lon="4.83366">
        <ele>171.6999969</ele>
        <time>2013-08-31T07:05:44Z</time>
      </trkpt>
      <trkpt lat="45.8782" lon="4.83355">
        <ele>171.5</ele>
        <time>2013-08-31T07:05:45Z</time>
      </trkpt>
      <trkpt lat="45.87823" lon="4.83346">
        <ele>171.6000061</ele>
        <time>2013-08-31T07:05:46Z</time>
      </trkpt>
      <trkpt lat="45.87827" lon="4.83334">
        <ele>171.3999939</ele>
        <time>2013-08-31T07:05:47Z</time>
      </trkpt>
      <trkpt lat="45.87831" lon="4.83322">
        <ele>171.1999969</ele>
        <time>2013-08-31T07:05:48Z</time>
      </trkpt>
      <trkpt lat="45.87834" lon="4.83311">
        <ele>171.3000031</ele>
        <time>2013-08-31T07:05:49Z</time>
      </trkpt>
      <trkpt lat="45.87837" lon="4.833">
        <ele>171.3999939</ele>
        <time>2013-08-31T07:05:50Z</time>
      </trkpt>
      <trkpt lat="45.87841" lon="4.83287">
        <ele>171.1000061</ele>
        <time>2013-08-31T07:05:51Z</time>
      </trkpt>
      <trkpt lat="45.87844" lon="4.83276">
        <ele>171.1000061</ele>
        <time>2013-08-31T07:05:52Z</time>
      </trkpt>
      <trkpt lat="45.87847" lon="4.83264">
        <ele>171.3999939</ele>
        <time>2013-08-31T07:05:53Z</time>
      </trkpt>
      <trkpt lat="45.8785" lon="4.83251">
        <ele>171.5</ele>
        <time>2013-08-31T07:05:54Z</time>
      </trkpt>
      <trkpt lat="45.87853" lon="4.8324">
        <ele>171.8999939</ele>
        <time>2013-08-31T07:05:55Z</time>
      </trkpt>
      <trkpt lat="45.87856" lon="4.8323">
        <ele>172</ele>
        <time>2013-08-31T07:05:56Z</time>
      </trkpt>
      <trkpt lat="45.87859" lon="4.83217">
        <ele>171.8000031</ele>
        <time>2013-08-31T07:05:57Z</time>
      </trkpt>
      <trkpt lat="45.87862" lon="4.83205">
        <ele>172.1000061</ele>
        <time>2013-08-31T07:05:58Z</time>
      </trkpt>
      <trkpt lat="45.87864" lon="4.83195">
        <ele>172.3999939</ele>
        <time>2013-08-31T07:05:59Z</time>
      </trkpt>
      <trkpt lat="45.87866" lon="4.83184">
        <ele>173</ele>
        <time>2013-08-31T07:06:00Z</time>
      </trkpt>
      <trkpt lat="45.87868" lon="4.83171">
        <ele>172.8000031</ele>
        <time>2013-08-31T07:06:01Z</time>
      </trkpt>
      <trkpt lat="45.87869" lon="4.8316">
        <ele>172.6000061</ele>
        <time>2013-08-31T07:06:02Z</time>
      </trkpt>
      <trkpt lat="45.8787" lon="4.83148">
        <ele>172.3999939</ele>
        <time>2013-08-31T07:06:03Z</time>
      </trkpt>
      <trkpt lat="45.87872" lon="4.83136">
        <ele>172.5</ele>
        <time>2013-08-31T07:06:04Z</time>
      </trkpt>
      <trkpt lat="45.87874" lon="4.83124">
        <ele>172.6999969</ele>
        <time>2013-08-31T07:06:05Z</time>
      </trkpt>
      <trkpt lat="45.87878" lon="4.83111">
        <ele>172.6000061</ele>
        <time>2013-08-31T07:06:06Z</time>
      </trkpt>
      <trkpt lat="45.87879" lon="4.83099">
        <ele>172.6000061</ele>
        <time>2013-08-31T07:06:07Z</time>
      </trkpt>
      <trkpt lat="45.8788" lon="4.83086">
        <ele>171.8999939</ele>
        <time>2013-08-31T07:06:08Z</time>
      </trkpt>
      <trkpt lat="45.87881" lon="4.83075">
        <ele>172.1000061</ele>
        <time>2013-08-31T07:06:09Z</time>
      </trkpt>
      <trkpt lat="45.87883" lon="4.83062">
        <ele>172.1000061</ele>
        <time>2013-08-31T07:06:10Z</time>
      </trkpt>
      <trkpt lat="45.87884" lon="4.83048">
        <ele>172.3999939</ele>
        <time>2013-08-31T07:06:11Z</time>
      </trkpt>
      <trkpt lat="45.87886" lon="4.83037">
        <ele>172.5</ele>
        <time>2013-08-31T07:06:12Z</time>
      </trkpt>
      <trkpt lat="45.87887" lon="4.83025">
        <ele>172</ele>
        <time>2013-08-31T07:06:13Z</time>
      </trkpt>
      <trkpt lat="45.87889" lon="4.83012">
        <ele>171.6000061</ele>
        <time>2013-08-31T07:06:14Z</time>
      </trkpt>
      <trkpt lat="45.8789" lon="4.83001">
        <ele>172.1999969</ele>
        <time>2013-08-31T07:06:15Z</time>
      </trkpt>
      <trkpt lat="45.87891" lon="4.82989">
        <ele>172.1000061</ele>
        <time>2013-08-31T07:06:16Z</time>
      </trkpt>
      <trkpt lat="45.87892" lon="4.82965">
        <ele>172</ele>
        <time>2013-08-31T07:06:18Z</time>
      </trkpt>
      <trkpt lat="45.87893" lon="4.82954">
        <ele>171.6000061</ele>
        <time>2013-08-31T07:06:19Z</time>
      </trkpt>
      <trkpt lat="45.87894" lon="4.82941">
        <ele>171.3999939</ele>
        <time>2013-08-31T07:06:20Z</time>
      </trkpt>
      <trkpt lat="45.87895" lon="4.82929">
        <ele>171.6000061</ele>
        <time>2013-08-31T07:06:21Z</time>
      </trkpt>
      <trkpt lat="45.87896" lon="4.82916">
        <ele>171.1000061</ele>
        <time>2013-08-31T07:06:22Z</time>
      </trkpt>
      <trkpt lat="45.87897" lon="4.82904">
        <ele>171</ele>
        <time>2013-08-31T07:06:23Z</time>
      </trkpt>
      <trkpt lat="45.87895" lon="4.82894">
        <ele>171.3000031</ele>
        <time>2013-08-31T07:06:24Z</time>
      </trkpt>
      <trkpt lat="45.87894" lon="4.82882">
        <ele>171.5</ele>
        <time>2013-08-31T07:06:25Z</time>
      </trkpt>
      <trkpt lat="45.87894" lon="4.82871">
        <ele>171.3999939</ele>
        <time>2013-08-31T07:06:26Z</time>
      </trkpt>
      <trkpt lat="45.87895" lon="4.8286">
        <ele>172.8000031</ele>
        <time>2013-08-31T07:06:27Z</time>
      </trkpt>
      <trkpt lat="45.87895" lon="4.82849">
        <ele>172.8000031</ele>
        <time>2013-08-31T07:06:28Z</time>
      </trkpt>
      <trkpt lat="45.87895" lon="4.82838">
        <ele>172.6999969</ele>
        <time>2013-08-31T07:06:29Z</time>
      </trkpt>
      <trkpt lat="45.87894" lon="4.82825">
        <ele>172.5</ele>
        <time>2013-08-31T07:06:30Z</time>
      </trkpt>
      <trkpt lat="45.87894" lon="4.82815">
        <ele>172.8999939</ele>
        <time>2013-08-31T07:06:31Z</time>
      </trkpt>
      <trkpt lat="45.87894" lon="4.82801">
        <ele>172.8999939</ele>
        <time>2013-08-31T07:06:32Z</time>
      </trkpt>
      <trkpt lat="45.87893" lon="4.82789">
        <ele>172.6999969</ele>
        <time>2013-08-31T07:06:33Z</time>
      </trkpt>
      <trkpt lat="45.87891" lon="4.82777">
        <ele>172.6000061</ele>
        <time>2013-08-31T07:06:34Z</time>
      </trkpt>
      <trkpt lat="45.8789" lon="4.82766">
        <ele>173</ele>
        <time>2013-08-31T07:06:35Z</time>
      </trkpt>
      <trkpt lat="45.87889" lon="4.82754">
        <ele>173</ele>
        <time>2013-08-31T07:06:36Z</time>
      </trkpt>
      <trkpt lat="45.87888" lon="4.82743">
        <ele>173.1999969</ele>
        <time>2013-08-31T07:06:37Z</time>
      </trkpt>
      <trkpt lat="45.87887" lon="4.82731">
        <ele>173</ele>
        <time>2013-08-31T07:06:38Z</time>
      </trkpt>
      <trkpt lat="45.87887" lon="4.8272">
        <ele>172.6999969</ele>
        <time>2013-08-31T07:06:39Z</time>
      </trkpt>
      <trkpt lat="45.87886" lon="4.82709">
        <ele>172.6999969</ele>
        <time>2013-08-31T07:06:40Z</time>
      </trkpt>
      <trkpt lat="45.87886" lon="4.82697">
        <ele>172.6000061</ele>
        <time>2013-08-31T07:06:41Z</time>
      </trkpt>
      <trkpt lat="45.87884" lon="4.82687">
        <ele>171</ele>
        <time>2013-08-31T07:06:42Z</time>
      </trkpt>
      <trkpt lat="45.87887" lon="4.82674">
        <ele>172.5</ele>
        <time>2013-08-31T07:06:43Z</time>
      </trkpt>
      <trkpt lat="45.87889" lon="4.82663">
        <ele>172.8000031</ele>
        <time>2013-08-31T07:06:44Z</time>
      </trkpt>
      <trkpt lat="45.87891" lon="4.82652">
        <ele>173</ele>
        <time>2013-08-31T07:06:45Z</time>
      </trkpt>
      <trkpt lat="45.87893" lon="4.8264">
        <ele>172.6999969</ele>
        <time>2013-08-31T07:06:46Z</time>
      </trkpt>
      <trkpt lat="45.87896" lon="4.82631">
        <ele>171.8999939</ele>
        <time>2013-08-31T07:06:47Z</time>
      </trkpt>
      <trkpt lat="45.87898" lon="4.82619">
        <ele>171.8999939</ele>
        <time>2013-08-31T07:06:48Z</time>
      </trkpt>
      <trkpt lat="45.87902" lon="4.82607">
        <ele>171.8000031</ele>
        <time>2013-08-31T07:06:49Z</time>
      </trkpt>
      <trkpt lat="45.87906" lon="4.82594">
        <ele>172.1999969</ele>
        <time>2013-08-31T07:06:50Z</time>
      </trkpt>
      <trkpt lat="45.87909" lon="4.82583">
        <ele>172.1999969</ele>
        <time>2013-08-31T07:06:51Z</time>
      </trkpt>
      <trkpt lat="45.87911" lon="4.82572">
        <ele>172.5</ele>
        <time>2013-08-31T07:06:52Z</time>
      </trkpt>
      <trkpt lat="45.87914" lon="4.82564">
        <ele>172.3999939</ele>
        <time>2013-08-31T07:06:53Z</time>
      </trkpt>
      <trkpt lat="45.87916" lon="4.82551">
        <ele>172.1999969</ele>
        <time>2013-08-31T07:06:54Z</time>
      </trkpt>
      <trkpt lat="45.87918" lon="4.82538">
        <ele>171.6999969</ele>
        <time>2013-08-31T07:06:55Z</time>
      </trkpt>
      <trkpt lat="45.8792" lon="4.82526">
        <ele>171.8999939</ele>
        <time>2013-08-31T07:06:56Z</time>
      </trkpt>
      <trkpt lat="45.87922" lon="4.82517">
        <ele>171.8999939</ele>
        <time>2013-08-31T07:06:57Z</time>
      </trkpt>
      <trkpt lat="45.87923" lon="4.82508">
        <ele>172.3999939</ele>
        <time>2013-08-31T07:06:58Z</time>
      </trkpt>
      <trkpt lat="45.87926" lon="4.82496">
        <ele>172</ele>
        <time>2013-08-31T07:06:59Z</time>
      </trkpt>
      <trkpt lat="45.87928" lon="4.82487">
        <ele>172.3999939</ele>
        <time>2013-08-31T07:07:00Z</time>
      </trkpt>
      <trkpt lat="45.8793" lon="4.82475">
        <ele>172.5</ele>
        <time>2013-08-31T07:07:01Z</time>
      </trkpt>
      <trkpt lat="45.87932" lon="4.82463">
        <ele>171.8999939</ele>
        <time>2013-08-31T07:07:02Z</time>
      </trkpt>
      <trkpt lat="45.87934" lon="4.82452">
        <ele>171.6000061</ele>
        <time>2013-08-31T07:07:03Z</time>
      </trkpt>
      <trkpt lat="45.87936" lon="4.82439">
        <ele>171.6000061</ele>
        <time>2013-08-31T07:07:04Z</time>
      </trkpt>
      <trkpt lat="45.87939" lon="4.82426">
        <ele>171.3000031</ele>
        <time>2013-08-31T07:07:05Z</time>
      </trkpt>
      <trkpt lat="45.8794" lon="4.82416">
        <ele>171</ele>
        <time>2013-08-31T07:07:06Z</time>
      </trkpt>
      <trkpt lat="45.87942" lon="4.82405">
        <ele>170.8000031</ele>
        <time>2013-08-31T07:07:07Z</time>
      </trkpt>
      <trkpt lat="45.87942" lon="4.82393">
        <ele>171.1000061</ele>
        <time>2013-08-31T07:07:08Z</time>
      </trkpt>
      <trkpt lat="45.87944" lon="4.82381">
        <ele>171.3999939</ele>
        <time>2013-08-31T07:07:09Z</time>
      </trkpt>
      <trkpt lat="45.87946" lon="4.8237">
        <ele>171.1999969</ele>
        <time>2013-08-31T07:07:10Z</time>
      </trkpt>
      <trkpt lat="45.87947" lon="4.8236">
        <ele>171.3000031</ele>
        <time>2013-08-31T07:07:11Z</time>
      </trkpt>
      <trkpt lat="45.87949" lon="4.82349">
        <ele>171.3999939</ele>
        <time>2013-08-31T07:07:12Z</time>
      </trkpt>
      <trkpt lat="45.87949" lon="4.82339">
        <ele>171.8999939</ele>
        <time>2013-08-31T07:07:13Z</time>
      </trkpt>
      <trkpt lat="45.8795" lon="4.82329">
        <ele>171.5</ele>
        <time>2013-08-31T07:07:14Z</time>
      </trkpt>
      <trkpt lat="45.87951" lon="4.82318">
        <ele>171.5</ele>
        <time>2013-08-31T07:07:15Z</time>
      </trkpt>
      <trkpt lat="45.87953" lon="4.82308">
        <ele>171</ele>
        <time>2013-08-31T07:07:16Z</time>
      </trkpt>
      <trkpt lat="45.87955" lon="4.82296">
        <ele>170.8999939</ele>
        <time>2013-08-31T07:07:17Z</time>
      </trkpt>
      <trkpt lat="45.87957" lon="4.82284">
        <ele>171.1000061</ele>
        <time>2013-08-31T07:07:18Z</time>
      </trkpt>
      <trkpt lat="45.87958" lon="4.82275">
        <ele>171</ele>
        <time>2013-08-31T07:07:19Z</time>
      </trkpt>
      <trkpt lat="45.87959" lon="4.82263">
        <ele>171.5</ele>
        <time>2013-08-31T07:07:20Z</time>
      </trkpt>
      <trkpt lat="45.87962" lon="4.82252">
        <ele>171.8999939</ele>
        <time>2013-08-31T07:07:21Z</time>
      </trkpt>
      <trkpt lat="45.87963" lon="4.82247">
        <ele>172.3000031</ele>
        <time>2013-08-31T07:07:22Z</time>
      </trkpt>
      <trkpt lat="45.87965" lon="4.8224">
        <ele>173</ele>
        <time>2013-08-31T07:07:23Z</time>
      </trkpt>
      <trkpt lat="45.87968" lon="4.8223">
        <ele>172.8000031</ele>
        <time>2013-08-31T07:07:24Z</time>
      </trkpt>
      <trkpt lat="45.87972" lon="4.82221">
        <ele>173</ele>
        <time>2013-08-31T07:07:25Z</time>
      </trkpt>
      <trkpt lat="45.87975" lon="4.82214">
        <ele>173.5</ele>
        <time>2013-08-31T07:07:26Z</time>
      </trkpt>
      <trkpt lat="45.87977" lon="4.82207">
        <ele>173.6000061</ele>
        <time>2013-08-31T07:07:27Z</time>
      </trkpt>
      <trkpt lat="45.8798" lon="4.82198">
        <ele>173.8000031</ele>
        <time>2013-08-31T07:07:28Z</time>
      </trkpt>
      <trkpt lat="45.87985" lon="4.82189">
        <ele>173.8000031</ele>
        <time>2013-08-31T07:07:29Z</time>
      </trkpt>
      <trkpt lat="45.87989" lon="4.82178">
        <ele>173.6000061</ele>
        <time>2013-08-31T07:07:30Z</time>
      </trkpt>
      <trkpt lat="45.87991" lon="4.8217">
        <ele>173.5</ele>
        <time>2013-08-31T07:07:31Z</time>
      </trkpt>
      <trkpt lat="45.87995" lon="4.82162">
        <ele>173.8999939</ele>
        <time>2013-08-31T07:07:32Z</time>
      </trkpt>
      <trkpt lat="45.87998" lon="4.82153">
        <ele>174</ele>
        <time>2013-08-31T07:07:33Z</time>
      </trkpt>
      <trkpt lat="45.88001" lon="4.82143">
        <ele>173.8000031</ele>
        <time>2013-08-31T07:07:34Z</time>
      </trkpt>
      <trkpt lat="45.88005" lon="4.82135">
        <ele>173.8999939</ele>
        <time>2013-08-31T07:07:35Z</time>
      </trkpt>
      <trkpt lat="45.88008" lon="4.82125">
        <ele>173.8000031</ele>
        <time>2013-08-31T07:07:36Z</time>
      </trkpt>
      <trkpt lat="45.88012" lon="4.82114">
        <ele>174.1000061</ele>
        <time>2013-08-31T07:07:37Z</time>
      </trkpt>
      <trkpt lat="45.88015" lon="4.82101">
        <ele>173.3999939</ele>
        <time>2013-08-31T07:07:38Z</time>
      </trkpt>
      <trkpt lat="45.88014" lon="4.82087">
        <ele>173.6999969</ele>
        <time>2013-08-31T07:07:39Z</time>
      </trkpt>
      <trkpt lat="45.88011" lon="4.82076">
        <ele>173.8000031</ele>
        <time>2013-08-31T07:07:40Z</time>
      </trkpt>
      <trkpt lat="45.88008" lon="4.82068">
        <ele>173.8000031</ele>
        <time>2013-08-31T07:07:41Z</time>
      </trkpt>
      <trkpt lat="45.88001" lon="4.82061">
        <ele>173.8999939</ele>
        <time>2013-08-31T07:07:42Z</time>
      </trkpt>
      <trkpt lat="45.87993" lon="4.82056">
        <ele>173.5</ele>
        <time>2013-08-31T07:07:43Z</time>
      </trkpt>
      <trkpt lat="45.87987" lon="4.8205">
        <ele>173.5</ele>
        <time>2013-08-31T07:07:44Z</time>
      </trkpt>
      <trkpt lat="45.87983" lon="4.82042">
        <ele>173</ele>
        <time>2013-08-31T07:07:45Z</time>
      </trkpt>
      <trkpt lat="45.87978" lon="4.82036">
        <ele>173.6999969</ele>
        <time>2013-08-31T07:07:46Z</time>
      </trkpt>
      <trkpt lat="45.87974" lon="4.8203">
        <ele>173.8000031</ele>
        <time>2013-08-31T07:07:47Z</time>
      </trkpt>
      <trkpt lat="45.87969" lon="4.82026">
        <ele>173.6999969</ele>
        <time>2013-08-31T07:07:48Z</time>
      </trkpt>
      <trkpt lat="45.87966" lon="4.8202">
        <ele>173.3999939</ele>
        <time>2013-08-31T07:07:49Z</time>
      </trkpt>
      <trkpt lat="45.8796" lon="4.82014">
        <ele>173.3999939</ele>
        <time>2013-08-31T07:07:50Z</time>
      </trkpt>
      <trkpt lat="45.87955" lon="4.82008">
        <ele>172.6000061</ele>
        <time>2013-08-31T07:07:52Z</time>
      </trkpt>
      <trkpt lat="45.8795" lon="4.81998">
        <ele>173.1999969</ele>
        <time>2013-08-31T07:07:54Z</time>
      </trkpt>
      <trkpt lat="45.87945" lon="4.81995">
        <ele>173.1999969</ele>
        <time>2013-08-31T07:07:55Z</time>
      </trkpt>
      <trkpt lat="45.87943" lon="4.8199">
        <ele>173.3000031</ele>
        <time>2013-08-31T07:07:56Z</time>
      </trkpt>
      <trkpt lat="45.87937" lon="4.81988">
        <ele>172.6999969</ele>
        <time>2013-08-31T07:07:57Z</time>
      </trkpt>
      <trkpt lat="45.87934" lon="4.81979">
        <ele>174.1999969</ele>
        <time>2013-08-31T07:07:59Z</time>
      </trkpt>
      <trkpt lat="45.87932" lon="4.81972">
        <ele>175.3000031</ele>
        <time>2013-08-31T07:08:00Z</time>
      </trkpt>
      <trkpt lat="45.87929" lon="4.81962">
        <ele>176.1999969</ele>
        <time>2013-08-31T07:08:02Z</time>
      </trkpt>
      <trkpt lat="45.87927" lon="4.81958">
        <ele>176.8000031</ele>
        <time>2013-08-31T07:08:03Z</time>
      </trkpt>
      <trkpt lat="45.87924" lon="4.8195">
        <ele>177.8999939</ele>
        <time>2013-08-31T07:08:05Z</time>
      </trkpt>
      <trkpt lat="45.87923" lon="4.81945">
        <ele>177.8000031</ele>
        <time>2013-08-31T07:08:06Z</time>
      </trkpt>
      <trkpt lat="45.8792" lon="4.81936">
        <ele>177.1999969</ele>
        <time>2013-08-31T07:08:08Z</time>
      </trkpt>
      <trkpt lat="45.87917" lon="4.81932">
        <ele>177.3999939</ele>
        <time>2013-08-31T07:08:09Z</time>
      </trkpt>
      <trkpt lat="45.87912" lon="4.81926">
        <ele>178.1000061</ele>
        <time>2013-08-31T07:08:11Z</time>
      </trkpt>
      <trkpt lat="45.87909" lon="4.81922">
        <ele>178</ele>
        <time>2013-08-31T07:08:12Z</time>
      </trkpt>
      <trkpt lat="45.87906" lon="4.81914">
        <ele>178</ele>
        <time>2013-08-31T07:08:14Z</time>
      </trkpt>
      <trkpt lat="45.87904" lon="4.8191">
        <ele>177.8000031</ele>
        <time>2013-08-31T07:08:15Z</time>
      </trkpt>
      <trkpt lat="45.879" lon="4.81899">
        <ele>179</ele>
        <time>2013-08-31T07:08:18Z</time>
      </trkpt>
      <trkpt lat="45.87899" lon="4.81895">
        <ele>179.1999969</ele>
        <time>2013-08-31T07:08:19Z</time>
      </trkpt>
      <trkpt lat="45.87895" lon="4.81886">
        <ele>179.6999969</ele>
        <time>2013-08-31T07:08:21Z</time>
      </trkpt>
      <trkpt lat="45.87892" lon="4.81881">
        <ele>179.1999969</ele>
        <time>2013-08-31T07:08:22Z</time>
      </trkpt>
      <trkpt lat="45.87888" lon="4.81876">
        <ele>180.3999939</ele>
        <time>2013-08-31T07:08:24Z</time>
      </trkpt>
      <trkpt lat="45.87883" lon="4.81873">
        <ele>180.3999939</ele>
        <time>2013-08-31T07:08:25Z</time>
      </trkpt>
      <trkpt lat="45.87879" lon="4.81867">
        <ele>180.3999939</ele>
        <time>2013-08-31T07:08:27Z</time>
      </trkpt>
      <trkpt lat="45.87875" lon="4.81864">
        <ele>180.6000061</ele>
        <time>2013-08-31T07:08:28Z</time>
      </trkpt>
      <trkpt lat="45.8787" lon="4.81857">
        <ele>180.6000061</ele>
        <time>2013-08-31T07:08:30Z</time>
      </trkpt>
      <trkpt lat="45.87868" lon="4.81854">
        <ele>180.6999969</ele>
        <time>2013-08-31T07:08:31Z</time>
      </trkpt>
      <trkpt lat="45.87862" lon="4.81847">
        <ele>182</ele>
        <time>2013-08-31T07:08:33Z</time>
      </trkpt>
      <trkpt lat="45.8786" lon="4.81844">
        <ele>182.3000031</ele>
        <time>2013-08-31T07:08:34Z</time>
      </trkpt>
      <trkpt lat="45.87854" lon="4.81839">
        <ele>182.8000031</ele>
        <time>2013-08-31T07:08:36Z</time>
      </trkpt>
      <trkpt lat="45.87851" lon="4.81835">
        <ele>182.3999939</ele>
        <time>2013-08-31T07:08:37Z</time>
      </trkpt>
      <trkpt lat="45.87845" lon="4.81829">
        <ele>183</ele>
        <time>2013-08-31T07:08:39Z</time>
      </trkpt>
      <trkpt lat="45.87843" lon="4.81826">
        <ele>184.6000061</ele>
        <time>2013-08-31T07:08:40Z</time>
      </trkpt>
      <trkpt lat="45.87838" lon="4.8182">
        <ele>185.6999969</ele>
        <time>2013-08-31T07:08:42Z</time>
      </trkpt>
      <trkpt lat="45.87836" lon="4.81817">
        <ele>185.6000061</ele>
        <time>2013-08-31T07:08:43Z</time>
      </trkpt>
      <trkpt lat="45.8783" lon="4.81814">
        <ele>186</ele>
        <time>2013-08-31T07:08:45Z</time>
      </trkpt>
      <trkpt lat="45.87826" lon="4.81814">
        <ele>186</ele>
        <time>2013-08-31T07:08:46Z</time>
      </trkpt>
      <trkpt lat="45.87819" lon="4.81811">
        <ele>186.8999939</ele>
        <time>2013-08-31T07:08:48Z</time>
      </trkpt>
      <trkpt lat="45.87816" lon="4.81809">
        <ele>187.6000061</ele>
        <time>2013-08-31T07:08:49Z</time>
      </trkpt>
      <trkpt lat="45.87809" lon="4.81805">
        <ele>188.8000031</ele>
        <time>2013-08-31T07:08:53Z</time>
      </trkpt>
      <trkpt lat="45.87806" lon="4.81804">
        <ele>188.5</ele>
        <time>2013-08-31T07:08:54Z</time>
      </trkpt>
      <trkpt lat="45.87798" lon="4.81801">
        <ele>189.6000061</ele>
        <time>2013-08-31T07:08:58Z</time>
      </trkpt>
      <trkpt lat="45.87796" lon="4.81801">
        <ele>191.3000031</ele>
        <time>2013-08-31T07:08:59Z</time>
      </trkpt>
      <trkpt lat="45.87788" lon="4.818">
        <ele>193.5</ele>
        <time>2013-08-31T07:09:04Z</time>
      </trkpt>
      <trkpt lat="45.87786" lon="4.81797">
        <ele>194.1000061</ele>
        <time>2013-08-31T07:09:05Z</time>
      </trkpt>
      <trkpt lat="45.87778" lon="4.81797">
        <ele>194.1999969</ele>
        <time>2013-08-31T07:09:12Z</time>
      </trkpt>
      <trkpt lat="45.87777" lon="4.81797">
        <ele>194.6000061</ele>
        <time>2013-08-31T07:09:13Z</time>
      </trkpt>
      <trkpt lat="45.8777" lon="4.81793">
        <ele>196.3000031</ele>
        <time>2013-08-31T07:09:18Z</time>
      </trkpt>
      <trkpt lat="45.87768" lon="4.81793">
        <ele>196.3000031</ele>
        <time>2013-08-31T07:09:19Z</time>
      </trkpt>
      <trkpt lat="45.87761" lon="4.81792">
        <ele>196</ele>
        <time>2013-08-31T07:09:22Z</time>
      </trkpt>
      <trkpt lat="45.87757" lon="4.81793">
        <ele>195.6000061</ele>
        <time>2013-08-31T07:09:23Z</time>
      </trkpt>
      <trkpt lat="45.87748" lon="4.8179">
        <ele>195</ele>
        <time>2013-08-31T07:09:26Z</time>
      </trkpt>
      <trkpt lat="45.87744" lon="4.81792">
        <ele>194.5</ele>
        <time>2013-08-31T07:09:27Z</time>
      </trkpt>
      <trkpt lat="45.87737" lon="4.81789">
        <ele>197.1000061</ele>
        <time>2013-08-31T07:09:31Z</time>
      </trkpt>
      <trkpt lat="45.87735" lon="4.8179">
        <ele>196.6999969</ele>
        <time>2013-08-31T07:09:32Z</time>
      </trkpt>
      <trkpt lat="45.87728" lon="4.81796">
        <ele>199.8000031</ele>
        <time>2013-08-31T07:09:38Z</time>
      </trkpt>
      <trkpt lat="45.87726" lon="4.81796">
        <ele>200.8000031</ele>
        <time>2013-08-31T07:09:41Z</time>
      </trkpt>
      <trkpt lat="45.87722" lon="4.81801">
        <ele>202.6000061</ele>
        <time>2013-08-31T07:09:43Z</time>
      </trkpt>
      <trkpt lat="45.87719" lon="4.81804">
        <ele>203.3000031</ele>
        <time>2013-08-31T07:09:44Z</time>
      </trkpt>
      <trkpt lat="45.87716" lon="4.81813">
        <ele>204.5</ele>
        <time>2013-08-31T07:09:46Z</time>
      </trkpt>
      <trkpt lat="45.87713" lon="4.81817">
        <ele>205.1000061</ele>
        <time>2013-08-31T07:09:47Z</time>
      </trkpt>
      <trkpt lat="45.87705" lon="4.81823">
        <ele>206.6999969</ele>
        <time>2013-08-31T07:09:51Z</time>
      </trkpt>
      <trkpt lat="45.87704" lon="4.81826">
        <ele>206.8000031</ele>
        <time>2013-08-31T07:09:52Z</time>
      </trkpt>
      <trkpt lat="45.87696" lon="4.8183">
        <ele>204.8999939</ele>
        <time>2013-08-31T07:10:00Z</time>
      </trkpt>
      <trkpt lat="45.87694" lon="4.81831">
        <ele>204.3999939</ele>
        <time>2013-08-31T07:10:01Z</time>
      </trkpt>
      <trkpt lat="45.87686" lon="4.81833">
        <ele>204</ele>
        <time>2013-08-31T07:10:03Z</time>
      </trkpt>
      <trkpt lat="45.8768" lon="4.81838">
        <ele>204.1000061</ele>
        <time>2013-08-31T07:10:04Z</time>
      </trkpt>
      <trkpt lat="45.87671" lon="4.81841">
        <ele>205.6999969</ele>
        <time>2013-08-31T07:10:08Z</time>
      </trkpt>
      <trkpt lat="45.87671" lon="4.8184">
        <ele>205.6000061</ele>
        <time>2013-08-31T07:10:09Z</time>
      </trkpt>
      <trkpt lat="45.87667" lon="4.81839">
        <ele>206.1999969</ele>
        <time>2013-08-31T07:10:11Z</time>
      </trkpt>
      <trkpt lat="45.87661" lon="4.8184">
        <ele>205.6999969</ele>
        <time>2013-08-31T07:10:12Z</time>
      </trkpt>
      <trkpt lat="45.87657" lon="4.81839">
        <ele>205</ele>
        <time>2013-08-31T07:10:13Z</time>
      </trkpt>
      <trkpt lat="45.87652" lon="4.81843">
        <ele>204.8999939</ele>
        <time>2013-08-31T07:10:14Z</time>
      </trkpt>
      <trkpt lat="45.87644" lon="4.81843">
        <ele>203.6999969</ele>
        <time>2013-08-31T07:10:16Z</time>
      </trkpt>
      <trkpt lat="45.87641" lon="4.81844">
        <ele>203.3999939</ele>
        <time>2013-08-31T07:10:17Z</time>
      </trkpt>
      <trkpt lat="45.87633" lon="4.81844">
        <ele>202.6999969</ele>
        <time>2013-08-31T07:10:19Z</time>
      </trkpt>
      <trkpt lat="45.87629" lon="4.81845">
        <ele>202.6000061</ele>
        <time>2013-08-31T07:10:20Z</time>
      </trkpt>
      <trkpt lat="45.87621" lon="4.81848">
        <ele>201.5</ele>
        <time>2013-08-31T07:10:23Z</time>
      </trkpt>
      <trkpt lat="45.87618" lon="4.81849">
        <ele>200.8999939</ele>
        <time>2013-08-31T07:10:24Z</time>
      </trkpt>
      <trkpt lat="45.8761" lon="4.81849">
        <ele>202.1000061</ele>
        <time>2013-08-31T07:10:30Z</time>
      </trkpt>
      <trkpt lat="45.8761" lon="4.81849">
        <ele>202.3000031</ele>
        <time>2013-08-31T07:10:31Z</time>
      </trkpt>
      <trkpt lat="45.8761" lon="4.81849">
        <ele>202.6000061</ele>
        <time>2013-08-31T07:10:32Z</time>
      </trkpt>
      <trkpt lat="45.8761" lon="4.81849">
        <ele>202.6000061</ele>
        <time>2013-08-31T07:10:33Z</time>
      </trkpt>
      <trkpt lat="45.87601" lon="4.81852">
        <ele>204.1000061</ele>
        <time>2013-08-31T07:10:36Z</time>
      </trkpt>
      <trkpt lat="45.87599" lon="4.81852">
        <ele>204.1999969</ele>
        <time>2013-08-31T07:10:37Z</time>
      </trkpt>
      <trkpt lat="45.87591" lon="4.8185">
        <ele>203.5</ele>
        <time>2013-08-31T07:10:43Z</time>
      </trkpt>
      <trkpt lat="45.87588" lon="4.81847">
        <ele>203.8000031</ele>
        <time>2013-08-31T07:10:44Z</time>
      </trkpt>
      <trkpt lat="45.87579" lon="4.81846">
        <ele>205.6999969</ele>
        <time>2013-08-31T07:10:47Z</time>
      </trkpt>
      <trkpt lat="45.87577" lon="4.81847">
        <ele>205.1999969</ele>
        <time>2013-08-31T07:10:48Z</time>
      </trkpt>
      <trkpt lat="45.8757" lon="4.81854">
        <ele>205.8999939</ele>
        <time>2013-08-31T07:10:55Z</time>
      </trkpt>
      <trkpt lat="45.87565" lon="4.81856">
        <ele>205.6999969</ele>
        <time>2013-08-31T07:10:56Z</time>
      </trkpt>
      <trkpt lat="45.87559" lon="4.81859">
        <ele>207.1000061</ele>
        <time>2013-08-31T07:10:58Z</time>
      </trkpt>
      <trkpt lat="45.87555" lon="4.81861">
        <ele>208.1999969</ele>
        <time>2013-08-31T07:10:59Z</time>
      </trkpt>
      <trkpt lat="45.87548" lon="4.81862">
        <ele>211.8999939</ele>
        <time>2013-08-31T07:11:02Z</time>
      </trkpt>
      <trkpt lat="45.87543" lon="4.81865">
        <ele>211.5</ele>
        <time>2013-08-31T07:11:03Z</time>
      </trkpt>
      <trkpt lat="45.87535" lon="4.81871">
        <ele>212.1000061</ele>
        <time>2013-08-31T07:11:06Z</time>
      </trkpt>
      <trkpt lat="45.87534" lon="4.81872">
        <ele>212.8999939</ele>
        <time>2013-08-31T07:11:07Z</time>
      </trkpt>
      <trkpt lat="45.8753" lon="4.81875">
        <ele>214.3000031</ele>
        <time>2013-08-31T07:11:09Z</time>
      </trkpt>
      <trkpt lat="45.87525" lon="4.81878">
        <ele>214.8999939</ele>
        <time>2013-08-31T07:11:10Z</time>
      </trkpt>
      <trkpt lat="45.87519" lon="4.8188">
        <ele>214.5</ele>
        <time>2013-08-31T07:11:12Z</time>
      </trkpt>
      <trkpt lat="45.87516" lon="4.81883">
        <ele>214.8999939</ele>
        <time>2013-08-31T07:11:13Z</time>
      </trkpt>
      <trkpt lat="45.87507" lon="4.81886">
        <ele>218.6000061</ele>
        <time>2013-08-31T07:11:19Z</time>
      </trkpt>
      <trkpt lat="45.87505" lon="4.81886">
        <ele>218.6999969</ele>
        <time>2013-08-31T07:11:20Z</time>
      </trkpt>
      <trkpt lat="45.87497" lon="4.81894">
        <ele>219</ele>
        <time>2013-08-31T07:11:23Z</time>
      </trkpt>
      <trkpt lat="45.87495" lon="4.81897">
        <ele>218.8000031</ele>
        <time>2013-08-31T07:11:24Z</time>
      </trkpt>
      <trkpt lat="45.87488" lon="4.81901">
        <ele>219.5</ele>
        <time>2013-08-31T07:11:27Z</time>
      </trkpt>
      <trkpt lat="45.87486" lon="4.81899">
        <ele>221.1999969</ele>
        <time>2013-08-31T07:11:28Z</time>
      </trkpt>
      <trkpt lat="45.87477" lon="4.81903">
        <ele>225.1000061</ele>
        <time>2013-08-31T07:11:34Z</time>
      </trkpt>
      <trkpt lat="45.87474" lon="4.81905">
        <ele>224.6999969</ele>
        <time>2013-08-31T07:11:35Z</time>
      </trkpt>
      <trkpt lat="45.87467" lon="4.8191">
        <ele>223.6000061</ele>
        <time>2013-08-31T07:11:39Z</time>
      </trkpt>
      <trkpt lat="45.87466" lon="4.8191">
        <ele>222.8000031</ele>
        <time>2013-08-31T07:11:40Z</time>
      </trkpt>
      <trkpt lat="45.8746" lon="4.81904">
        <ele>233</ele>
        <time>2013-08-31T07:11:49Z</time>
      </trkpt>
      <trkpt lat="45.87459" lon="4.81903">
        <ele>233.6000061</ele>
        <time>2013-08-31T07:11:50Z</time>
      </trkpt>
      <trkpt lat="45.87453" lon="4.81899">
        <ele>235.8000031</ele>
        <time>2013-08-31T07:11:57Z</time>
      </trkpt>
      <trkpt lat="45.8745" lon="4.81897">
        <ele>236.5</ele>
        <time>2013-08-31T07:11:58Z</time>
      </trkpt>
      <trkpt lat="45.87442" lon="4.81891">
        <ele>240.1999969</ele>
        <time>2013-08-31T07:12:04Z</time>
      </trkpt>
      <trkpt lat="45.87441" lon="4.8189">
        <ele>240.8000031</ele>
        <time>2013-08-31T07:12:05Z</time>
      </trkpt>
      <trkpt lat="45.87435" lon="4.81883">
        <ele>243</ele>
        <time>2013-08-31T07:12:09Z</time>
      </trkpt>
      <trkpt lat="45.87434" lon="4.81881">
        <ele>243.3000031</ele>
        <time>2013-08-31T07:12:10Z</time>
      </trkpt>
      <trkpt lat="45.87431" lon="4.81868">
        <ele>243.5</ele>
        <time>2013-08-31T07:12:16Z</time>
      </trkpt>
      <trkpt lat="45.87428" lon="4.81868">
        <ele>243.6000061</ele>
        <time>2013-08-31T07:12:17Z</time>
      </trkpt>
      <trkpt lat="45.87423" lon="4.8186">
        <ele>243</ele>
        <time>2013-08-31T07:12:20Z</time>
      </trkpt>
      <trkpt lat="45.8742" lon="4.8186">
        <ele>243.1000061</ele>
        <time>2013-08-31T07:12:21Z</time>
      </trkpt>
      <trkpt lat="45.87413" lon="4.81855">
        <ele>242.8999939</ele>
        <time>2013-08-31T07:12:26Z</time>
      </trkpt>
      <trkpt lat="45.8741" lon="4.81857">
        <ele>243.1000061</ele>
        <time>2013-08-31T07:12:27Z</time>
      </trkpt>
      <trkpt lat="45.87403" lon="4.81858">
        <ele>242.5</ele>
        <time>2013-08-31T07:12:30Z</time>
      </trkpt>
      <trkpt lat="45.874" lon="4.81858">
        <ele>242.3000031</ele>
        <time>2013-08-31T07:12:31Z</time>
      </trkpt>
      <trkpt lat="45.87393" lon="4.8185">
        <ele>242.6000061</ele>
        <time>2013-08-31T07:12:35Z</time>
      </trkpt>
      <trkpt lat="45.87391" lon="4.81849">
        <ele>242.6999969</ele>
        <time>2013-08-31T07:12:36Z</time>
      </trkpt>
      <trkpt lat="45.87385" lon="4.81844">
        <ele>241.5</ele>
        <time>2013-08-31T07:12:39Z</time>
      </trkpt>
      <trkpt lat="45.87379" lon="4.81846">
        <ele>239.8999939</ele>
        <time>2013-08-31T07:12:40Z</time>
      </trkpt>
      <trkpt lat="45.87373" lon="4.81849">
        <ele>240.5</ele>
        <time>2013-08-31T07:12:42Z</time>
      </trkpt>
      <trkpt lat="45.8737" lon="4.81851">
        <ele>239</ele>
        <time>2013-08-31T07:12:43Z</time>
      </trkpt>
      <trkpt lat="45.87363" lon="4.81848">
        <ele>239.3000031</ele>
        <time>2013-08-31T07:12:46Z</time>
      </trkpt>
      <trkpt lat="45.87361" lon="4.81847">
        <ele>239.1000061</ele>
        <time>2013-08-31T07:12:47Z</time>
      </trkpt>
      <trkpt lat="45.87354" lon="4.8185">
        <ele>240</ele>
        <time>2013-08-31T07:12:53Z</time>
      </trkpt>
      <trkpt lat="45.87352" lon="4.8185">
        <ele>240.3999939</ele>
        <time>2013-08-31T07:12:54Z</time>
      </trkpt>
      <trkpt lat="45.87345" lon="4.81855">
        <ele>242.1000061</ele>
        <time>2013-08-31T07:12:57Z</time>
      </trkpt>
      <trkpt lat="45.87341" lon="4.81858">
        <ele>242.6999969</ele>
        <time>2013-08-31T07:12:58Z</time>
      </trkpt>
      <trkpt lat="45.87336" lon="4.81867">
        <ele>244.6999969</ele>
        <time>2013-08-31T07:13:01Z</time>
      </trkpt>
      <trkpt lat="45.87334" lon="4.81869">
        <ele>244.6000061</ele>
        <time>2013-08-31T07:13:02Z</time>
      </trkpt>
      <trkpt lat="45.87329" lon="4.81875">
        <ele>243.5</ele>
        <time>2013-08-31T07:13:04Z</time>
      </trkpt>
      <trkpt lat="45.87321" lon="4.8188">
        <ele>239.6999969</ele>
        <time>2013-08-31T07:13:05Z</time>
      </trkpt>
      <trkpt lat="45.87314" lon="4.81882">
        <ele>239.3999939</ele>
        <time>2013-08-31T07:13:07Z</time>
      </trkpt>
      <trkpt lat="45.87312" lon="4.81886">
        <ele>238.5</ele>
        <time>2013-08-31T07:13:08Z</time>
      </trkpt>
      <trkpt lat="45.87305" lon="4.8189">
        <ele>239.3000031</ele>
        <time>2013-08-31T07:13:12Z</time>
      </trkpt>
      <trkpt lat="45.87303" lon="4.81891">
        <ele>239.8000031</ele>
        <time>2013-08-31T07:13:13Z</time>
      </trkpt>
      <trkpt lat="45.87296" lon="4.81894">
        <ele>239.3000031</ele>
        <time>2013-08-31T07:13:15Z</time>
      </trkpt>
      <trkpt lat="45.87294" lon="4.81896">
        <ele>239.8999939</ele>
        <time>2013-08-31T07:13:16Z</time>
      </trkpt>
      <trkpt lat="45.87287" lon="4.81901">
        <ele>238.8999939</ele>
        <time>2013-08-31T07:13:18Z</time>
      </trkpt>
      <trkpt lat="45.87283" lon="4.81903">
        <ele>238.6999969</ele>
        <time>2013-08-31T07:13:19Z</time>
      </trkpt>
      <trkpt lat="45.87275" lon="4.81907">
        <ele>239.3000031</ele>
        <time>2013-08-31T07:13:21Z</time>
      </trkpt>
      <trkpt lat="45.87271" lon="4.81912">
        <ele>238.6999969</ele>
        <time>2013-08-31T07:13:22Z</time>
      </trkpt>
      <trkpt lat="45.87267" lon="4.81915">
        <ele>238.6999969</ele>
        <time>2013-08-31T07:13:23Z</time>
      </trkpt>
      <trkpt lat="45.87263" lon="4.81919">
        <ele>238.6000061</ele>
        <time>2013-08-31T07:13:24Z</time>
      </trkpt>
      <trkpt lat="45.87258" lon="4.81923">
        <ele>238.1999969</ele>
        <time>2013-08-31T07:13:25Z</time>
      </trkpt>
      <trkpt lat="45.87254" lon="4.81926">
        <ele>238.1000061</ele>
        <time>2013-08-31T07:13:26Z</time>
      </trkpt>
      <trkpt lat="45.8725" lon="4.81929">
        <ele>238.3999939</ele>
        <time>2013-08-31T07:13:27Z</time>
      </trkpt>
      <trkpt lat="45.87245" lon="4.81932">
        <ele>238.1999969</ele>
        <time>2013-08-31T07:13:28Z</time>
      </trkpt>
      <trkpt lat="45.8724" lon="4.81933">
        <ele>238.6000061</ele>
        <time>2013-08-31T07:13:29Z</time>
      </trkpt>
      <trkpt lat="45.87235" lon="4.81937">
        <ele>238.1999969</ele>
        <time>2013-08-31T07:13:30Z</time>
      </trkpt>
      <trkpt lat="45.8723" lon="4.81939">
        <ele>238.1999969</ele>
        <time>2013-08-31T07:13:31Z</time>
      </trkpt>
      <trkpt lat="45.87226" lon="4.81941">
        <ele>238.1000061</ele>
        <time>2013-08-31T07:13:32Z</time>
      </trkpt>
      <trkpt lat="45.87222" lon="4.81945">
        <ele>238</ele>
        <time>2013-08-31T07:13:33Z</time>
      </trkpt>
      <trkpt lat="45.87216" lon="4.81947">
        <ele>238.3999939</ele>
        <time>2013-08-31T07:13:34Z</time>
      </trkpt>
      <trkpt lat="45.87211" lon="4.81949">
        <ele>238.3999939</ele>
        <time>2013-08-31T07:13:35Z</time>
      </trkpt>
      <trkpt lat="45.87206" lon="4.81951">
        <ele>238.3999939</ele>
        <time>2013-08-31T07:13:36Z</time>
      </trkpt>
      <trkpt lat="45.87198" lon="4.81955">
        <ele>238.6999969</ele>
        <time>2013-08-31T07:13:38Z</time>
      </trkpt>
      <trkpt lat="45.87196" lon="4.81958">
        <ele>239.1000061</ele>
        <time>2013-08-31T07:13:39Z</time>
      </trkpt>
      <trkpt lat="45.87187" lon="4.81963">
        <ele>238.8000031</ele>
        <time>2013-08-31T07:13:40Z</time>
      </trkpt>
      <trkpt lat="45.87176" lon="4.81967">
        <ele>237.8999939</ele>
        <time>2013-08-31T07:13:41Z</time>
      </trkpt>
      <trkpt lat="45.87165" lon="4.81969">
        <ele>236.8999939</ele>
        <time>2013-08-31T07:13:42Z</time>
      </trkpt>
      <trkpt lat="45.87154" lon="4.81972">
        <ele>236</ele>
        <time>2013-08-31T07:13:43Z</time>
      </trkpt>
      <trkpt lat="45.87146" lon="4.81974">
        <ele>236</ele>
        <time>2013-08-31T07:13:44Z</time>
      </trkpt>
      <trkpt lat="45.87139" lon="4.81977">
        <ele>235.5</ele>
        <time>2013-08-31T07:13:45Z</time>
      </trkpt>
      <trkpt lat="45.87131" lon="4.81981">
        <ele>235</ele>
        <time>2013-08-31T07:13:46Z</time>
      </trkpt>
      <trkpt lat="45.87124" lon="4.81976">
        <ele>234.3999939</ele>
        <time>2013-08-31T07:13:47Z</time>
      </trkpt>
      <trkpt lat="45.87116" lon="4.81974">
        <ele>234.3999939</ele>
        <time>2013-08-31T07:13:48Z</time>
      </trkpt>
      <trkpt lat="45.8711" lon="4.81974">
        <ele>233.6000061</ele>
        <time>2013-08-31T07:13:49Z</time>
      </trkpt>
      <trkpt lat="45.87101" lon="4.81973">
        <ele>233.5</ele>
        <time>2013-08-31T07:13:50Z</time>
      </trkpt>
      <trkpt lat="45.87093" lon="4.8197">
        <ele>233.1000061</ele>
        <time>2013-08-31T07:13:51Z</time>
      </trkpt>
      <trkpt lat="45.87084" lon="4.81968">
        <ele>233</ele>
        <time>2013-08-31T07:13:52Z</time>
      </trkpt>
      <trkpt lat="45.87075" lon="4.81965">
        <ele>232.8000031</ele>
        <time>2013-08-31T07:13:53Z</time>
      </trkpt>
      <trkpt lat="45.87066" lon="4.81961">
        <ele>232</ele>
        <time>2013-08-31T07:13:54Z</time>
      </trkpt>
      <trkpt lat="45.87058" lon="4.8196">
        <ele>230.6000061</ele>
        <time>2013-08-31T07:13:55Z</time>
      </trkpt>
      <trkpt lat="45.87051" lon="4.81953">
        <ele>229.8000031</ele>
        <time>2013-08-31T07:13:56Z</time>
      </trkpt>
      <trkpt lat="45.87042" lon="4.8195">
        <ele>230</ele>
        <time>2013-08-31T07:13:57Z</time>
      </trkpt>
      <trkpt lat="45.87033" lon="4.81946">
        <ele>230.1000061</ele>
        <time>2013-08-31T07:13:58Z</time>
      </trkpt>
      <trkpt lat="45.87024" lon="4.81941">
        <ele>229.6000061</ele>
        <time>2013-08-31T07:13:59Z</time>
      </trkpt>
      <trkpt lat="45.87011" lon="4.81944">
        <ele>228.6999969</ele>
        <time>2013-08-31T07:14:00Z</time>
      </trkpt>
      <trkpt lat="45.87002" lon="4.81945">
        <ele>229.1000061</ele>
        <time>2013-08-31T07:14:01Z</time>
      </trkpt>
      <trkpt lat="45.86993" lon="4.81946">
        <ele>228.6000061</ele>
        <time>2013-08-31T07:14:02Z</time>
      </trkpt>
      <trkpt lat="45.86987" lon="4.8195">
        <ele>229.1999969</ele>
        <time>2013-08-31T07:14:03Z</time>
      </trkpt>
      <trkpt lat="45.86982" lon="4.81953">
        <ele>229.5</ele>
        <time>2013-08-31T07:14:04Z</time>
      </trkpt>
      <trkpt lat="45.86986" lon="4.81952">
        <ele>226.3000031</ele>
        <time>2013-08-31T07:14:13Z</time>
      </trkpt>
      <trkpt lat="45.86986" lon="4.81952">
        <ele>226.3000031</ele>
        <time>2013-08-31T07:14:14Z</time>
      </trkpt>
      <trkpt lat="45.86986" lon="4.81953">
        <ele>226.3000031</ele>
        <time>2013-08-31T07:14:15Z</time>
      </trkpt>
      <trkpt lat="45.8698" lon="4.81957">
        <ele>227.1000061</ele>
        <time>2013-08-31T07:14:16Z</time>
      </trkpt>
      <trkpt lat="45.86978" lon="4.8196">
        <ele>227.1999969</ele>
        <time>2013-08-31T07:14:17Z</time>
      </trkpt>
      <trkpt lat="45.86982" lon="4.8195">
        <ele>227.6000061</ele>
        <time>2013-08-31T07:14:28Z</time>
      </trkpt>
      <trkpt lat="45.86982" lon="4.81944">
        <ele>227.1000061</ele>
        <time>2013-08-31T07:14:29Z</time>
      </trkpt>
      <trkpt lat="45.86979" lon="4.81936">
        <ele>227.1999969</ele>
        <time>2013-08-31T07:14:31Z</time>
      </trkpt>
      <trkpt lat="45.86972" lon="4.81939">
        <ele>224.8000031</ele>
        <time>2013-08-31T07:14:32Z</time>
      </trkpt>
      <trkpt lat="45.86969" lon="4.81932">
        <ele>224.3000031</ele>
        <time>2013-08-31T07:14:34Z</time>
      </trkpt>
      <trkpt lat="45.86967" lon="4.81927">
        <ele>223.8999939</ele>
        <time>2013-08-31T07:14:35Z</time>
      </trkpt>
      <trkpt lat="45.86962" lon="4.81916">
        <ele>223.6000061</ele>
        <time>2013-08-31T07:14:38Z</time>
      </trkpt>
      <trkpt lat="45.86959" lon="4.81915">
        <ele>224.3999939</ele>
        <time>2013-08-31T07:14:39Z</time>
      </trkpt>
      <trkpt lat="45.86953" lon="4.81905">
        <ele>225.3999939</ele>
        <time>2013-08-31T07:14:42Z</time>
      </trkpt>
      <trkpt lat="45.86952" lon="4.81902">
        <ele>226</ele>
        <time>2013-08-31T07:14:43Z</time>
      </trkpt>
      <trkpt lat="45.86948" lon="4.81895">
        <ele>226</ele>
        <time>2013-08-31T07:14:45Z</time>
      </trkpt>
      <trkpt lat="45.86946" lon="4.81891">
        <ele>226.3000031</ele>
        <time>2013-08-31T07:14:46Z</time>
      </trkpt>
      <trkpt lat="45.86941" lon="4.81888">
        <ele>226.8000031</ele>
        <time>2013-08-31T07:14:48Z</time>
      </trkpt>
      <trkpt lat="45.86937" lon="4.81887">
        <ele>226.3000031</ele>
        <time>2013-08-31T07:14:49Z</time>
      </trkpt>
      <trkpt lat="45.8693" lon="4.81881">
        <ele>227.1999969</ele>
        <time>2013-08-31T07:14:52Z</time>
      </trkpt>
      <trkpt lat="45.86928" lon="4.81881">
        <ele>228.1000061</ele>
        <time>2013-08-31T07:14:53Z</time>
      </trkpt>
      <trkpt lat="45.86923" lon="4.81872">
        <ele>228.3000031</ele>
        <time>2013-08-31T07:14:56Z</time>
      </trkpt>
      <trkpt lat="45.86921" lon="4.81868">
        <ele>229.1000061</ele>
        <time>2013-08-31T07:14:57Z</time>
      </trkpt>
      <trkpt lat="45.86921" lon="4.81858">
        <ele>231.1999969</ele>
        <time>2013-08-31T07:15:00Z</time>
      </trkpt>
      <trkpt lat="45.86917" lon="4.81857">
        <ele>231.6000061</ele>
        <time>2013-08-31T07:15:01Z</time>
      </trkpt>
      <trkpt lat="45.86909" lon="4.81858">
        <ele>231.3000031</ele>
        <time>2013-08-31T07:15:02Z</time>
      </trkpt>
      <trkpt lat="45.86904" lon="4.81859">
        <ele>231.3999939</ele>
        <time>2013-08-31T07:15:03Z</time>
      </trkpt>
      <trkpt lat="45.86901" lon="4.81857">
        <ele>231.3999939</ele>
        <time>2013-08-31T07:15:04Z</time>
      </trkpt>
      <trkpt lat="45.86895" lon="4.81858">
        <ele>230.3999939</ele>
        <time>2013-08-31T07:15:05Z</time>
      </trkpt>
      <trkpt lat="45.86888" lon="4.8186">
        <ele>229.6000061</ele>
        <time>2013-08-31T07:15:06Z</time>
      </trkpt>
      <trkpt lat="45.86885" lon="4.81858">
        <ele>228.6999969</ele>
        <time>2013-08-31T07:15:07Z</time>
      </trkpt>
      <trkpt lat="45.8688" lon="4.81858">
        <ele>227.8999939</ele>
        <time>2013-08-31T07:15:08Z</time>
      </trkpt>
      <trkpt lat="45.86876" lon="4.8186">
        <ele>226.5</ele>
        <time>2013-08-31T07:15:09Z</time>
      </trkpt>
      <trkpt lat="45.86874" lon="4.81866">
        <ele>227.5</ele>
        <time>2013-08-31T07:15:10Z</time>
      </trkpt>
      <trkpt lat="45.8687" lon="4.81871">
        <ele>226.8000031</ele>
        <time>2013-08-31T07:15:11Z</time>
      </trkpt>
      <trkpt lat="45.86865" lon="4.81879">
        <ele>227</ele>
        <time>2013-08-31T07:15:13Z</time>
      </trkpt>
      <trkpt lat="45.86865" lon="4.81882">
        <ele>227.1999969</ele>
        <time>2013-08-31T07:15:14Z</time>
      </trkpt>
      <trkpt lat="45.86866" lon="4.81892">
        <ele>228.1000061</ele>
        <time>2013-08-31T07:15:16Z</time>
      </trkpt>
      <trkpt lat="45.86868" lon="4.81895">
        <ele>228.1999969</ele>
        <time>2013-08-31T07:15:17Z</time>
      </trkpt>
      <trkpt lat="45.86871" lon="4.81904">
        <ele>229.6999969</ele>
        <time>2013-08-31T07:15:19Z</time>
      </trkpt>
      <trkpt lat="45.86872" lon="4.81909">
        <ele>229.8999939</ele>
        <time>2013-08-31T07:15:20Z</time>
      </trkpt>
      <trkpt lat="45.86877" lon="4.81915">
        <ele>229.1000061</ele>
        <time>2013-08-31T07:15:21Z</time>
      </trkpt>
      <trkpt lat="45.86879" lon="4.8192">
        <ele>230.1000061</ele>
        <time>2013-08-31T07:15:22Z</time>
      </trkpt>
      <trkpt lat="45.86882" lon="4.81928">
        <ele>231.1999969</ele>
        <time>2013-08-31T07:15:24Z</time>
      </trkpt>
      <trkpt lat="45.86884" lon="4.81932">
        <ele>230.3999939</ele>
        <time>2013-08-31T07:15:25Z</time>
      </trkpt>
      <trkpt lat="45.86882" lon="4.81942">
        <ele>229.8000031</ele>
        <time>2013-08-31T07:15:29Z</time>
      </trkpt>
      <trkpt lat="45.8688" lon="4.81945">
        <ele>230</ele>
        <time>2013-08-31T07:15:30Z</time>
      </trkpt>
      <trkpt lat="45.86874" lon="4.81953">
        <ele>234.3000031</ele>
        <time>2013-08-31T07:15:37Z</time>
      </trkpt>
      <trkpt lat="45.8687" lon="4.81953">
        <ele>233.5</ele>
        <time>2013-08-31T07:15:38Z</time>
      </trkpt>
      <trkpt lat="45.86861" lon="4.81952">
        <ele>236.1000061</ele>
        <time>2013-08-31T07:15:42Z</time>
      </trkpt>
      <trkpt lat="45.8686" lon="4.81951">
        <ele>236.8000031</ele>
        <time>2013-08-31T07:15:43Z</time>
      </trkpt>
      <trkpt lat="45.86852" lon="4.81952">
        <ele>238.1000061</ele>
        <time>2013-08-31T07:15:46Z</time>
      </trkpt>
      <trkpt lat="45.86849" lon="4.81953">
        <ele>238.3999939</ele>
        <time>2013-08-31T07:15:47Z</time>
      </trkpt>
      <trkpt lat="45.86841" lon="4.81954">
        <ele>240.1000061</ele>
        <time>2013-08-31T07:15:51Z</time>
      </trkpt>
      <trkpt lat="45.8684" lon="4.81954">
        <ele>240.3000031</ele>
        <time>2013-08-31T07:15:52Z</time>
      </trkpt>
      <trkpt lat="45.86832" lon="4.81953">
        <ele>242.8000031</ele>
        <time>2013-08-31T07:15:56Z</time>
      </trkpt>
      <trkpt lat="45.86829" lon="4.81952">
        <ele>242.1000061</ele>
        <time>2013-08-31T07:15:57Z</time>
      </trkpt>
      <trkpt lat="45.8682" lon="4.81955">
        <ele>241.8000031</ele>
        <time>2013-08-31T07:16:00Z</time>
      </trkpt>
      <trkpt lat="45.86817" lon="4.81956">
        <ele>242.5</ele>
        <time>2013-08-31T07:16:01Z</time>
      </trkpt>
      <trkpt lat="45.86809" lon="4.8196">
        <ele>242.6999969</ele>
        <time>2013-08-31T07:16:04Z</time>
      </trkpt>
      <trkpt lat="45.86805" lon="4.8196">
        <ele>243.8999939</ele>
        <time>2013-08-31T07:16:05Z</time>
      </trkpt>
      <trkpt lat="45.86798" lon="4.81962">
        <ele>244.6999969</ele>
        <time>2013-08-31T07:16:07Z</time>
      </trkpt>
      <trkpt lat="45.86796" lon="4.81963">
        <ele>244</ele>
        <time>2013-08-31T07:16:08Z</time>
      </trkpt>
      <trkpt lat="45.8679" lon="4.81965">
        <ele>243.3999939</ele>
        <time>2013-08-31T07:16:10Z</time>
      </trkpt>
      <trkpt lat="45.86787" lon="4.81965">
        <ele>243</ele>
        <time>2013-08-31T07:16:11Z</time>
      </trkpt>
      <trkpt lat="45.8678" lon="4.81968">
        <ele>243.8999939</ele>
        <time>2013-08-31T07:16:14Z</time>
      </trkpt>
      <trkpt lat="45.86778" lon="4.81969">
        <ele>244</ele>
        <time>2013-08-31T07:16:15Z</time>
      </trkpt>
      <trkpt lat="45.86769" lon="4.81972">
        <ele>244.6999969</ele>
        <time>2013-08-31T07:16:19Z</time>
      </trkpt>
      <trkpt lat="45.86767" lon="4.81973">
        <ele>244.8999939</ele>
        <time>2013-08-31T07:16:20Z</time>
      </trkpt>
      <trkpt lat="45.86759" lon="4.81975">
        <ele>247.8000031</ele>
        <time>2013-08-31T07:16:26Z</time>
      </trkpt>
      <trkpt lat="45.86757" lon="4.81976">
        <ele>247.8999939</ele>
        <time>2013-08-31T07:16:27Z</time>
      </trkpt>
      <trkpt lat="45.86748" lon="4.8198">
        <ele>248.8999939</ele>
        <time>2013-08-31T07:16:30Z</time>
      </trkpt>
      <trkpt lat="45.86746" lon="4.81982">
        <ele>249.1999969</ele>
        <time>2013-08-31T07:16:31Z</time>
      </trkpt>
      <trkpt lat="45.86739" lon="4.81986">
        <ele>250.3999939</ele>
        <time>2013-08-31T07:16:34Z</time>
      </trkpt>
      <trkpt lat="45.86737" lon="4.81987">
        <ele>250.6999969</ele>
        <time>2013-08-31T07:16:35Z</time>
      </trkpt>
      <trkpt lat="45.8673" lon="4.8199">
        <ele>250.3000031</ele>
        <time>2013-08-31T07:16:38Z</time>
      </trkpt>
      <trkpt lat="45.86728" lon="4.81991">
        <ele>250.3000031</ele>
        <time>2013-08-31T07:16:39Z</time>
      </trkpt>
      <trkpt lat="45.8672" lon="4.81994">
        <ele>250.1000061</ele>
        <time>2013-08-31T07:16:43Z</time>
      </trkpt>
      <trkpt lat="45.86718" lon="4.81994">
        <ele>250</ele>
        <time>2013-08-31T07:16:44Z</time>
      </trkpt>
      <trkpt lat="45.86712" lon="4.81997">
        <ele>249.6000061</ele>
        <time>2013-08-31T07:16:47Z</time>
      </trkpt>
      <trkpt lat="45.86709" lon="4.81998">
        <ele>249.3999939</ele>
        <time>2013-08-31T07:16:48Z</time>
      </trkpt>
      <trkpt lat="45.86703" lon="4.82004">
        <ele>249.6000061</ele>
        <time>2013-08-31T07:16:51Z</time>
      </trkpt>
      <trkpt lat="45.86702" lon="4.82008">
        <ele>248.3999939</ele>
        <time>2013-08-31T07:16:52Z</time>
      </trkpt>
      <trkpt lat="45.86708" lon="4.82012">
        <ele>255</ele>
        <time>2013-08-31T07:16:59Z</time>
      </trkpt>
      <trkpt lat="45.86711" lon="4.82015">
        <ele>256.2000122</ele>
        <time>2013-08-31T07:17:00Z</time>
      </trkpt>
      <trkpt lat="45.86717" lon="4.82024">
        <ele>257.6000061</ele>
        <time>2013-08-31T07:17:06Z</time>
      </trkpt>
      <trkpt lat="45.86718" lon="4.82025">
        <ele>257.3999939</ele>
        <time>2013-08-31T07:17:07Z</time>
      </trkpt>
      <trkpt lat="45.86726" lon="4.82027">
        <ele>258.1000061</ele>
        <time>2013-08-31T07:17:14Z</time>
      </trkpt>
      <trkpt lat="45.86728" lon="4.82028">
        <ele>258.6000061</ele>
        <time>2013-08-31T07:17:15Z</time>
      </trkpt>
      <trkpt lat="45.86736" lon="4.82033">
        <ele>259.6000061</ele>
        <time>2013-08-31T07:17:18Z</time>
      </trkpt>
      <trkpt lat="45.86738" lon="4.82034">
        <ele>259.7999878</ele>
        <time>2013-08-31T07:17:19Z</time>
      </trkpt>
      <trkpt lat="45.86746" lon="4.82039">
        <ele>261.7999878</ele>
        <time>2013-08-31T07:17:23Z</time>
      </trkpt>
      <trkpt lat="45.86748" lon="4.82039">
        <ele>262.1000061</ele>
        <time>2013-08-31T07:17:24Z</time>
      </trkpt>
      <trkpt lat="45.86756" lon="4.82039">
        <ele>262.7000122</ele>
        <time>2013-08-31T07:17:28Z</time>
      </trkpt>
      <trkpt lat="45.8676" lon="4.82038">
        <ele>263.5</ele>
        <time>2013-08-31T07:17:29Z</time>
      </trkpt>
      <trkpt lat="45.86767" lon="4.82037">
        <ele>264</ele>
        <time>2013-08-31T07:17:32Z</time>
      </trkpt>
      <trkpt lat="45.86769" lon="4.82036">
        <ele>264</ele>
        <time>2013-08-31T07:17:33Z</time>
      </trkpt>
      <trkpt lat="45.86778" lon="4.82037">
        <ele>263.8999939</ele>
        <time>2013-08-31T07:17:37Z</time>
      </trkpt>
      <trkpt lat="45.8678" lon="4.82037">
        <ele>263.7999878</ele>
        <time>2013-08-31T07:17:38Z</time>
      </trkpt>
      <trkpt lat="45.86786" lon="4.82043">
        <ele>262.5</ele>
        <time>2013-08-31T07:17:41Z</time>
      </trkpt>
      <trkpt lat="45.86789" lon="4.82041">
        <ele>265.3999939</ele>
        <time>2013-08-31T07:17:42Z</time>
      </trkpt>
      <trkpt lat="45.86797" lon="4.82045">
        <ele>264.1000061</ele>
        <time>2013-08-31T07:17:46Z</time>
      </trkpt>
      <trkpt lat="45.86797" lon="4.82047">
        <ele>264.2999878</ele>
        <time>2013-08-31T07:17:47Z</time>
      </trkpt>
      <trkpt lat="45.86801" lon="4.8205">
        <ele>266.2999878</ele>
        <time>2013-08-31T07:17:51Z</time>
      </trkpt>
      <trkpt lat="45.86801" lon="4.8205">
        <ele>266.7999878</ele>
        <time>2013-08-31T07:17:52Z</time>
      </trkpt>
      <trkpt lat="45.86802" lon="4.82054">
        <ele>265.5</ele>
        <time>2013-08-31T07:17:53Z</time>
      </trkpt>
      <trkpt lat="45.86795" lon="4.82062">
        <ele>268.2999878</ele>
        <time>2013-08-31T07:18:05Z</time>
      </trkpt>
      <trkpt lat="45.86793" lon="4.82062">
        <ele>269.2000122</ele>
        <time>2013-08-31T07:18:06Z</time>
      </trkpt>
      <trkpt lat="45.86786" lon="4.82062">
        <ele>269.2999878</ele>
        <time>2013-08-31T07:18:10Z</time>
      </trkpt>
      <trkpt lat="45.86783" lon="4.82062">
        <ele>269.7000122</ele>
        <time>2013-08-31T07:18:11Z</time>
      </trkpt>
      <trkpt lat="45.86775" lon="4.82064">
        <ele>270.3999939</ele>
        <time>2013-08-31T07:18:15Z</time>
      </trkpt>
      <trkpt lat="45.86773" lon="4.82065">
        <ele>269.8999939</ele>
        <time>2013-08-31T07:18:16Z</time>
      </trkpt>
      <trkpt lat="45.86765" lon="4.82065">
        <ele>270.6000061</ele>
        <time>2013-08-31T07:18:20Z</time>
      </trkpt>
      <trkpt lat="45.86763" lon="4.82064">
        <ele>270.5</ele>
        <time>2013-08-31T07:18:21Z</time>
      </trkpt>
      <trkpt lat="45.86755" lon="4.82065">
        <ele>270.2999878</ele>
        <time>2013-08-31T07:18:25Z</time>
      </trkpt>
      <trkpt lat="45.86753" lon="4.82065">
        <ele>270.2999878</ele>
        <time>2013-08-31T07:18:26Z</time>
      </trkpt>
      <trkpt lat="45.86745" lon="4.82065">
        <ele>270.5</ele>
        <time>2013-08-31T07:18:30Z</time>
      </trkpt>
      <trkpt lat="45.86741" lon="4.82065">
        <ele>270.2999878</ele>
        <time>2013-08-31T07:18:31Z</time>
      </trkpt>
      <trkpt lat="45.86734" lon="4.82067">
        <ele>270.1000061</ele>
        <time>2013-08-31T07:18:34Z</time>
      </trkpt>
      <trkpt lat="45.86731" lon="4.82068">
        <ele>270.2000122</ele>
        <time>2013-08-31T07:18:35Z</time>
      </trkpt>
      <trkpt lat="45.86723" lon="4.82068">
        <ele>272.2999878</ele>
        <time>2013-08-31T07:18:39Z</time>
      </trkpt>
      <trkpt lat="45.86721" lon="4.8207">
        <ele>272.2999878</ele>
        <time>2013-08-31T07:18:40Z</time>
      </trkpt>
      <trkpt lat="45.86713" lon="4.82073">
        <ele>275.6000061</ele>
        <time>2013-08-31T07:18:46Z</time>
      </trkpt>
      <trkpt lat="45.86711" lon="4.82073">
        <ele>276.1000061</ele>
        <time>2013-08-31T07:18:47Z</time>
      </trkpt>
      <trkpt lat="45.86703" lon="4.82071">
        <ele>281.7000122</ele>
        <time>2013-08-31T07:18:53Z</time>
      </trkpt>
      <trkpt lat="45.867" lon="4.82071">
        <ele>281.8999939</ele>
        <time>2013-08-31T07:18:54Z</time>
      </trkpt>
      <trkpt lat="45.86691" lon="4.82072">
        <ele>282.2000122</ele>
        <time>2013-08-31T07:18:59Z</time>
      </trkpt>
      <trkpt lat="45.8669" lon="4.82072">
        <ele>282.2000122</ele>
        <time>2013-08-31T07:19:00Z</time>
      </trkpt>
      <trkpt lat="45.86681" lon="4.82071">
        <ele>283.3999939</ele>
        <time>2013-08-31T07:19:04Z</time>
      </trkpt>
      <trkpt lat="45.86679" lon="4.8207">
        <ele>284</ele>
        <time>2013-08-31T07:19:05Z</time>
      </trkpt>
      <trkpt lat="45.86671" lon="4.82067">
        <ele>284.8999939</ele>
        <time>2013-08-31T07:19:08Z</time>
      </trkpt>
      <trkpt lat="45.86668" lon="4.82065">
        <ele>284.6000061</ele>
        <time>2013-08-31T07:19:09Z</time>
      </trkpt>
      <trkpt lat="45.86662" lon="4.82063">
        <ele>284.7999878</ele>
        <time>2013-08-31T07:19:11Z</time>
      </trkpt>
      <trkpt lat="45.86659" lon="4.82062">
        <ele>284.7999878</ele>
        <time>2013-08-31T07:19:12Z</time>
      </trkpt>
      <trkpt lat="45.8665" lon="4.82063">
        <ele>287.2000122</ele>
        <time>2013-08-31T07:19:16Z</time>
      </trkpt>
      <trkpt lat="45.86649" lon="4.82064">
        <ele>287.6000061</ele>
        <time>2013-08-31T07:19:17Z</time>
      </trkpt>
      <trkpt lat="45.86641" lon="4.82063">
        <ele>290.8999939</ele>
        <time>2013-08-31T07:19:22Z</time>
      </trkpt>
      <trkpt lat="45.86639" lon="4.82064">
        <ele>291.2999878</ele>
        <time>2013-08-31T07:19:23Z</time>
      </trkpt>
      <trkpt lat="45.86631" lon="4.82064">
        <ele>292.8999939</ele>
        <time>2013-08-31T07:19:27Z</time>
      </trkpt>
      <trkpt lat="45.86628" lon="4.82064">
        <ele>292.7000122</ele>
        <time>2013-08-31T07:19:28Z</time>
      </trkpt>
      <trkpt lat="45.86621" lon="4.82065">
        <ele>292.8999939</ele>
        <time>2013-08-31T07:19:31Z</time>
      </trkpt>
      <trkpt lat="45.86619" lon="4.82064">
        <ele>292.7000122</ele>
        <time>2013-08-31T07:19:32Z</time>
      </trkpt>
      <trkpt lat="45.86611" lon="4.82059">
        <ele>293.3999939</ele>
        <time>2013-08-31T07:19:36Z</time>
      </trkpt>
      <trkpt lat="45.86609" lon="4.82058">
        <ele>293.5</ele>
        <time>2013-08-31T07:19:37Z</time>
      </trkpt>
      <trkpt lat="45.86604" lon="4.82052">
        <ele>292.7000122</ele>
        <time>2013-08-31T07:19:39Z</time>
      </trkpt>
      <trkpt lat="45.86599" lon="4.82048">
        <ele>293</ele>
        <time>2013-08-31T07:19:40Z</time>
      </trkpt>
      <trkpt lat="45.86595" lon="4.82044">
        <ele>292.3999939</ele>
        <time>2013-08-31T07:19:41Z</time>
      </trkpt>
      <trkpt lat="45.8659" lon="4.82039">
        <ele>292.5</ele>
        <time>2013-08-31T07:19:42Z</time>
      </trkpt>
      <trkpt lat="45.86583" lon="4.8203">
        <ele>292.1000061</ele>
        <time>2013-08-31T07:19:43Z</time>
      </trkpt>
      <trkpt lat="45.86579" lon="4.82019">
        <ele>292.7000122</ele>
        <time>2013-08-31T07:19:44Z</time>
      </trkpt>
      <trkpt lat="45.86568" lon="4.82014">
        <ele>292.2000122</ele>
        <time>2013-08-31T07:19:45Z</time>
      </trkpt>
      <trkpt lat="45.86561" lon="4.82009">
        <ele>289.6000061</ele>
        <time>2013-08-31T07:19:46Z</time>
      </trkpt>
      <trkpt lat="45.86554" lon="4.82003">
        <ele>288.5</ele>
        <time>2013-08-31T07:19:47Z</time>
      </trkpt>
      <trkpt lat="45.86546" lon="4.81997">
        <ele>287.6000061</ele>
        <time>2013-08-31T07:19:48Z</time>
      </trkpt>
      <trkpt lat="45.86539" lon="4.81991">
        <ele>286.2000122</ele>
        <time>2013-08-31T07:19:49Z</time>
      </trkpt>
      <trkpt lat="45.8653" lon="4.81985">
        <ele>283.8999939</ele>
        <time>2013-08-31T07:19:50Z</time>
      </trkpt>
      <trkpt lat="45.86522" lon="4.8198">
        <ele>283.7000122</ele>
        <time>2013-08-31T07:19:51Z</time>
      </trkpt>
      <trkpt lat="45.86517" lon="4.81977">
        <ele>283.2999878</ele>
        <time>2013-08-31T07:19:52Z</time>
      </trkpt>
      <trkpt lat="45.86512" lon="4.81972">
        <ele>282.7000122</ele>
        <time>2013-08-31T07:19:53Z</time>
      </trkpt>
      <trkpt lat="45.86508" lon="4.8197">
        <ele>281.8999939</ele>
        <time>2013-08-31T07:19:54Z</time>
      </trkpt>
      <trkpt lat="45.86509" lon="4.81958">
        <ele>283.5</ele>
        <time>2013-08-31T07:20:00Z</time>
      </trkpt>
      <trkpt lat="45.8651" lon="4.81956">
        <ele>283.7999878</ele>
        <time>2013-08-31T07:20:01Z</time>
      </trkpt>
      <trkpt lat="45.86505" lon="4.81945">
        <ele>286.7999878</ele>
        <time>2013-08-31T07:20:08Z</time>
      </trkpt>
      <trkpt lat="45.86504" lon="4.81946">
        <ele>287</ele>
        <time>2013-08-31T07:20:09Z</time>
      </trkpt>
      <trkpt lat="45.86497" lon="4.8194">
        <ele>287.3999939</ele>
        <time>2013-08-31T07:20:13Z</time>
      </trkpt>
      <trkpt lat="45.86494" lon="4.81939">
        <ele>287.6000061</ele>
        <time>2013-08-31T07:20:14Z</time>
      </trkpt>
      <trkpt lat="45.86494" lon="4.81936">
        <ele>287</ele>
        <time>2013-08-31T07:20:17Z</time>
      </trkpt>
      <trkpt lat="45.86494" lon="4.81936">
        <ele>287.2000122</ele>
        <time>2013-08-31T07:20:18Z</time>
      </trkpt>
      <trkpt lat="45.86493" lon="4.81936">
        <ele>287.3999939</ele>
        <time>2013-08-31T07:20:19Z</time>
      </trkpt>
      <trkpt lat="45.86493" lon="4.81935">
        <ele>287.5</ele>
        <time>2013-08-31T07:20:20Z</time>
      </trkpt>
      <trkpt lat="45.86492" lon="4.81933">
        <ele>287.2999878</ele>
        <time>2013-08-31T07:20:25Z</time>
      </trkpt>
      <trkpt lat="45.86492" lon="4.81933">
        <ele>287.2999878</ele>
        <time>2013-08-31T07:20:26Z</time>
      </trkpt>
      <trkpt lat="45.86491" lon="4.81934">
        <ele>287.3999939</ele>
        <time>2013-08-31T07:20:27Z</time>
      </trkpt>
      <trkpt lat="45.86484" lon="4.81931">
        <ele>287.2999878</ele>
        <time>2013-08-31T07:20:30Z</time>
      </trkpt>
      <trkpt lat="45.86478" lon="4.8193">
        <ele>287.2000122</ele>
        <time>2013-08-31T07:20:31Z</time>
      </trkpt>
      <trkpt lat="45.86471" lon="4.81929">
        <ele>288.1000061</ele>
        <time>2013-08-31T07:20:33Z</time>
      </trkpt>
      <trkpt lat="45.86468" lon="4.81926">
        <ele>288.5</ele>
        <time>2013-08-31T07:20:34Z</time>
      </trkpt>
      <trkpt lat="45.86462" lon="4.8192">
        <ele>289.2000122</ele>
        <time>2013-08-31T07:20:36Z</time>
      </trkpt>
      <trkpt lat="45.86458" lon="4.81917">
        <ele>289.2999878</ele>
        <time>2013-08-31T07:20:37Z</time>
      </trkpt>
      <trkpt lat="45.86455" lon="4.81906">
        <ele>293.7000122</ele>
        <time>2013-08-31T07:20:41Z</time>
      </trkpt>
      <trkpt lat="45.86454" lon="4.81905">
        <ele>294.3999939</ele>
        <time>2013-08-31T07:20:42Z</time>
      </trkpt>
      <trkpt lat="45.86446" lon="4.819">
        <ele>295.6000061</ele>
        <time>2013-08-31T07:20:46Z</time>
      </trkpt>
      <trkpt lat="45.86445" lon="4.81898">
        <ele>296</ele>
        <time>2013-08-31T07:20:47Z</time>
      </trkpt>
      <trkpt lat="45.86439" lon="4.81892">
        <ele>298.7000122</ele>
        <time>2013-08-31T07:20:52Z</time>
      </trkpt>
      <trkpt lat="45.86435" lon="4.81891">
        <ele>298.6000061</ele>
        <time>2013-08-31T07:20:53Z</time>
      </trkpt>
      <trkpt lat="45.86428" lon="4.81885">
        <ele>298.5</ele>
        <time>2013-08-31T07:20:55Z</time>
      </trkpt>
      <trkpt lat="45.86426" lon="4.81882">
        <ele>299.1000061</ele>
        <time>2013-08-31T07:20:56Z</time>
      </trkpt>
      <trkpt lat="45.8642" lon="4.81873">
        <ele>297.7999878</ele>
        <time>2013-08-31T07:20:59Z</time>
      </trkpt>
      <trkpt lat="45.86418" lon="4.81871">
        <ele>297.8999939</ele>
        <time>2013-08-31T07:21:00Z</time>
      </trkpt>
      <trkpt lat="45.86411" lon="4.81866">
        <ele>299.7999878</ele>
        <time>2013-08-31T07:21:03Z</time>
      </trkpt>
      <trkpt lat="45.8641" lon="4.81863">
        <ele>299.2999878</ele>
        <time>2013-08-31T07:21:04Z</time>
      </trkpt>
      <trkpt lat="45.86406" lon="4.81853">
        <ele>297.1000061</ele>
        <time>2013-08-31T07:21:07Z</time>
      </trkpt>
      <trkpt lat="45.86405" lon="4.81849">
        <ele>296.3999939</ele>
        <time>2013-08-31T07:21:08Z</time>
      </trkpt>
      <trkpt lat="45.86397" lon="4.81847">
        <ele>297.6000061</ele>
        <time>2013-08-31T07:21:11Z</time>
      </trkpt>
      <trkpt lat="45.86396" lon="4.81844">
        <ele>297.7999878</ele>
        <time>2013-08-31T07:21:12Z</time>
      </trkpt>
      <trkpt lat="45.8639" lon="4.81845">
        <ele>298.7000122</ele>
        <time>2013-08-31T07:21:14Z</time>
      </trkpt>
      <trkpt lat="45.86387" lon="4.81844">
        <ele>299.2999878</ele>
        <time>2013-08-31T07:21:15Z</time>
      </trkpt>
      <trkpt lat="45.86383" lon="4.81837">
        <ele>298.3999939</ele>
        <time>2013-08-31T07:21:18Z</time>
      </trkpt>
      <trkpt lat="45.86384" lon="4.81832">
        <ele>299.6000061</ele>
        <time>2013-08-31T07:21:19Z</time>
      </trkpt>
      <trkpt lat="45.8638" lon="4.81821">
        <ele>301.6000061</ele>
        <time>2013-08-31T07:21:22Z</time>
      </trkpt>
      <trkpt lat="45.86378" lon="4.81821">
        <ele>302.2000122</ele>
        <time>2013-08-31T07:21:23Z</time>
      </trkpt>
      <trkpt lat="45.8637" lon="4.81817">
        <ele>301.6000061</ele>
        <time>2013-08-31T07:21:27Z</time>
      </trkpt>
      <trkpt lat="45.86367" lon="4.81819">
        <ele>300.8999939</ele>
        <time>2013-08-31T07:21:28Z</time>
      </trkpt>
      <trkpt lat="45.86359" lon="4.81817">
        <ele>304.5</ele>
        <time>2013-08-31T07:21:32Z</time>
      </trkpt>
      <trkpt lat="45.86358" lon="4.81814">
        <ele>304.7000122</ele>
        <time>2013-08-31T07:21:33Z</time>
      </trkpt>
      <trkpt lat="45.8635" lon="4.81808">
        <ele>307.2000122</ele>
        <time>2013-08-31T07:21:37Z</time>
      </trkpt>
      <trkpt lat="45.86349" lon="4.81799">
        <ele>307.5</ele>
        <time>2013-08-31T07:21:39Z</time>
      </trkpt>
      <trkpt lat="45.86345" lon="4.81788">
        <ele>306.3999939</ele>
        <time>2013-08-31T07:21:43Z</time>
      </trkpt>
      <trkpt lat="45.86343" lon="4.81786">
        <ele>305.6000061</ele>
        <time>2013-08-31T07:21:44Z</time>
      </trkpt>
      <trkpt lat="45.86338" lon="4.81779">
        <ele>305.5</ele>
        <time>2013-08-31T07:21:47Z</time>
      </trkpt>
      <trkpt lat="45.86336" lon="4.81776">
        <ele>305.8999939</ele>
        <time>2013-08-31T07:21:48Z</time>
      </trkpt>
      <trkpt lat="45.86328" lon="4.81773">
        <ele>307.7000122</ele>
        <time>2013-08-31T07:21:52Z</time>
      </trkpt>
      <trkpt lat="45.86326" lon="4.81772">
        <ele>308.2000122</ele>
        <time>2013-08-31T07:21:53Z</time>
      </trkpt>
      <trkpt lat="45.86318" lon="4.81767">
        <ele>308.1000061</ele>
        <time>2013-08-31T07:21:56Z</time>
      </trkpt>
      <trkpt lat="45.86319" lon="4.81762">
        <ele>308.1000061</ele>
        <time>2013-08-31T07:21:57Z</time>
      </trkpt>
      <trkpt lat="45.86313" lon="4.81753">
        <ele>310.8999939</ele>
        <time>2013-08-31T07:22:01Z</time>
      </trkpt>
      <trkpt lat="45.86311" lon="4.81752">
        <ele>311.7000122</ele>
        <time>2013-08-31T07:22:02Z</time>
      </trkpt>
      <trkpt lat="45.86307" lon="4.81742">
        <ele>313.7999878</ele>
        <time>2013-08-31T07:22:07Z</time>
      </trkpt>
      <trkpt lat="45.86304" lon="4.8174">
        <ele>314.2999878</ele>
        <time>2013-08-31T07:22:08Z</time>
      </trkpt>
      <trkpt lat="45.86298" lon="4.81735">
        <ele>315.3999939</ele>
        <time>2013-08-31T07:22:12Z</time>
      </trkpt>
      <trkpt lat="45.86295" lon="4.81732">
        <ele>315.8999939</ele>
        <time>2013-08-31T07:22:13Z</time>
      </trkpt>
      <trkpt lat="45.86289" lon="4.81725">
        <ele>317.8999939</ele>
        <time>2013-08-31T07:22:16Z</time>
      </trkpt>
      <trkpt lat="45.86288" lon="4.81721">
        <ele>318.1000061</ele>
        <time>2013-08-31T07:22:17Z</time>
      </trkpt>
      <trkpt lat="45.86282" lon="4.81713">
        <ele>317.5</ele>
        <time>2013-08-31T07:22:21Z</time>
      </trkpt>
      <trkpt lat="45.86279" lon="4.81712">
        <ele>318.3999939</ele>
        <time>2013-08-31T07:22:22Z</time>
      </trkpt>
      <trkpt lat="45.86276" lon="4.81702">
        <ele>319.1000061</ele>
        <time>2013-08-31T07:22:26Z</time>
      </trkpt>
      <trkpt lat="45.86275" lon="4.81699">
        <ele>319.1000061</ele>
        <time>2013-08-31T07:22:27Z</time>
      </trkpt>
      <trkpt lat="45.8627" lon="4.81694">
        <ele>319.5</ele>
        <time>2013-08-31T07:22:31Z</time>
      </trkpt>
      <trkpt lat="45.86269" lon="4.81689">
        <ele>319.1000061</ele>
        <time>2013-08-31T07:22:32Z</time>
      </trkpt>
      <trkpt lat="45.86262" lon="4.81686">
        <ele>318.2999878</ele>
        <time>2013-08-31T07:22:35Z</time>
      </trkpt>
      <trkpt lat="45.86261" lon="4.81684">
        <ele>318.5</ele>
        <time>2013-08-31T07:22:36Z</time>
      </trkpt>
      <trkpt lat="45.86254" lon="4.81678">
        <ele>316.3999939</ele>
        <time>2013-08-31T07:22:39Z</time>
      </trkpt>
      <trkpt lat="45.86252" lon="4.81678">
        <ele>315.7999878</ele>
        <time>2013-08-31T07:22:40Z</time>
      </trkpt>
      <trkpt lat="45.86244" lon="4.81671">
        <ele>315.2999878</ele>
        <time>2013-08-31T07:22:45Z</time>
      </trkpt>
      <trkpt lat="45.86242" lon="4.8167">
        <ele>315.8999939</ele>
        <time>2013-08-31T07:22:46Z</time>
      </trkpt>
      <trkpt lat="45.86233" lon="4.81667">
        <ele>318.3999939</ele>
        <time>2013-08-31T07:22:49Z</time>
      </trkpt>
      <trkpt lat="45.86233" lon="4.81664">
        <ele>318.6000061</ele>
        <time>2013-08-31T07:22:50Z</time>
      </trkpt>
      <trkpt lat="45.86228" lon="4.81658">
        <ele>321.2000122</ele>
        <time>2013-08-31T07:22:55Z</time>
      </trkpt>
      <trkpt lat="45.86225" lon="4.81657">
        <ele>321</ele>
        <time>2013-08-31T07:22:56Z</time>
      </trkpt>
      <trkpt lat="45.8622" lon="4.81649">
        <ele>322.7000122</ele>
        <time>2013-08-31T07:23:00Z</time>
      </trkpt>
      <trkpt lat="45.86218" lon="4.81649">
        <ele>322.7000122</ele>
        <time>2013-08-31T07:23:01Z</time>
      </trkpt>
      <trkpt lat="45.86209" lon="4.8165">
        <ele>322.5</ele>
        <time>2013-08-31T07:23:04Z</time>
      </trkpt>
      <trkpt lat="45.86208" lon="4.81648">
        <ele>322.2999878</ele>
        <time>2013-08-31T07:23:05Z</time>
      </trkpt>
      <trkpt lat="45.86201" lon="4.81639">
        <ele>321.6000061</ele>
        <time>2013-08-31T07:23:09Z</time>
      </trkpt>
      <trkpt lat="45.862" lon="4.81636">
        <ele>321.8999939</ele>
        <time>2013-08-31T07:23:10Z</time>
      </trkpt>
      <trkpt lat="45.86193" lon="4.81632">
        <ele>321.2999878</ele>
        <time>2013-08-31T07:23:14Z</time>
      </trkpt>
      <trkpt lat="45.8619" lon="4.81632">
        <ele>321.2999878</ele>
        <time>2013-08-31T07:23:15Z</time>
      </trkpt>
      <trkpt lat="45.86187" lon="4.81623">
        <ele>321.3999939</ele>
        <time>2013-08-31T07:23:18Z</time>
      </trkpt>
      <trkpt lat="45.86184" lon="4.81621">
        <ele>321.2999878</ele>
        <time>2013-08-31T07:23:19Z</time>
      </trkpt>
      <trkpt lat="45.86178" lon="4.81612">
        <ele>323.6000061</ele>
        <time>2013-08-31T07:23:23Z</time>
      </trkpt>
      <trkpt lat="45.86176" lon="4.8161">
        <ele>322.8999939</ele>
        <time>2013-08-31T07:23:24Z</time>
      </trkpt>
      <trkpt lat="45.86168" lon="4.81609">
        <ele>321.7999878</ele>
        <time>2013-08-31T07:23:27Z</time>
      </trkpt>
      <trkpt lat="45.86166" lon="4.81607">
        <ele>321.8999939</ele>
        <time>2013-08-31T07:23:28Z</time>
      </trkpt>
      <trkpt lat="45.86158" lon="4.81608">
        <ele>322.6000061</ele>
        <time>2013-08-31T07:23:31Z</time>
      </trkpt>
      <trkpt lat="45.86156" lon="4.81609">
        <ele>323.1000061</ele>
        <time>2013-08-31T07:23:32Z</time>
      </trkpt>
      <trkpt lat="45.86148" lon="4.81603">
        <ele>324.8999939</ele>
        <time>2013-08-31T07:23:37Z</time>
      </trkpt>
      <trkpt lat="45.86147" lon="4.81602">
        <ele>324.7000122</ele>
        <time>2013-08-31T07:23:38Z</time>
      </trkpt>
      <trkpt lat="45.86141" lon="4.81593">
        <ele>326.1000061</ele>
        <time>2013-08-31T07:23:42Z</time>
      </trkpt>
      <trkpt lat="45.86138" lon="4.81594">
        <ele>326.2000122</ele>
        <time>2013-08-31T07:23:43Z</time>
      </trkpt>
      <trkpt lat="45.86132" lon="4.8159">
        <ele>328.7000122</ele>
        <time>2013-08-31T07:23:46Z</time>
      </trkpt>
      <trkpt lat="45.86129" lon="4.81589">
        <ele>328.7000122</ele>
        <time>2013-08-31T07:23:47Z</time>
      </trkpt>
      <trkpt lat="45.86122" lon="4.81582">
        <ele>327.2000122</ele>
        <time>2013-08-31T07:23:51Z</time>
      </trkpt>
      <trkpt lat="45.8612" lon="4.81579">
        <ele>328.6000061</ele>
        <time>2013-08-31T07:23:52Z</time>
      </trkpt>
      <trkpt lat="45.86111" lon="4.81579">
        <ele>329.3999939</ele>
        <time>2013-08-31T07:23:55Z</time>
      </trkpt>
      <trkpt lat="45.86109" lon="4.81579">
        <ele>329.7000122</ele>
        <time>2013-08-31T07:23:56Z</time>
      </trkpt>
      <trkpt lat="45.86101" lon="4.81579">
        <ele>327.5</ele>
        <time>2013-08-31T07:24:00Z</time>
      </trkpt>
      <trkpt lat="45.861" lon="4.81579">
        <ele>327.2999878</ele>
        <time>2013-08-31T07:24:01Z</time>
      </trkpt>
      <trkpt lat="45.86096" lon="4.81576">
        <ele>327</ele>
        <time>2013-08-31T07:24:03Z</time>
      </trkpt>
      <trkpt lat="45.86091" lon="4.81576">
        <ele>327.2999878</ele>
        <time>2013-08-31T07:24:04Z</time>
      </trkpt>
      <trkpt lat="45.86086" lon="4.81569">
        <ele>328.2000122</ele>
        <time>2013-08-31T07:24:07Z</time>
      </trkpt>
      <trkpt lat="45.86083" lon="4.81565">
        <ele>328.6000061</ele>
        <time>2013-08-31T07:24:08Z</time>
      </trkpt>
      <trkpt lat="45.86077" lon="4.81557">
        <ele>330.3999939</ele>
        <time>2013-08-31T07:24:12Z</time>
      </trkpt>
      <trkpt lat="45.86074" lon="4.81555">
        <ele>330.8999939</ele>
        <time>2013-08-31T07:24:13Z</time>
      </trkpt>
      <trkpt lat="45.86067" lon="4.81549">
        <ele>331.1000061</ele>
        <time>2013-08-31T07:24:18Z</time>
      </trkpt>
      <trkpt lat="45.86065" lon="4.81549">
        <ele>331</ele>
        <time>2013-08-31T07:24:19Z</time>
      </trkpt>
      <trkpt lat="45.86058" lon="4.81541">
        <ele>332.2999878</ele>
        <time>2013-08-31T07:24:24Z</time>
      </trkpt>
      <trkpt lat="45.86056" lon="4.81541">
        <ele>333.2000122</ele>
        <time>2013-08-31T07:24:25Z</time>
      </trkpt>
      <trkpt lat="45.86049" lon="4.81541">
        <ele>335.2000122</ele>
        <time>2013-08-31T07:24:29Z</time>
      </trkpt>
      <trkpt lat="45.86046" lon="4.8154">
        <ele>333.6000061</ele>
        <time>2013-08-31T07:24:30Z</time>
      </trkpt>
      <trkpt lat="45.86041" lon="4.81531">
        <ele>337.3999939</ele>
        <time>2013-08-31T07:24:34Z</time>
      </trkpt>
      <trkpt lat="45.86038" lon="4.81531">
        <ele>338.5</ele>
        <time>2013-08-31T07:24:35Z</time>
      </trkpt>
      <trkpt lat="45.86033" lon="4.81527">
        <ele>340.7999878</ele>
        <time>2013-08-31T07:24:45Z</time>
      </trkpt>
      <trkpt lat="45.86029" lon="4.8153">
        <ele>341.6000061</ele>
        <time>2013-08-31T07:24:46Z</time>
      </trkpt>
      <trkpt lat="45.86023" lon="4.81534">
        <ele>342.7999878</ele>
        <time>2013-08-31T07:24:49Z</time>
      </trkpt>
      <trkpt lat="45.86018" lon="4.81535">
        <ele>342</ele>
        <time>2013-08-31T07:24:50Z</time>
      </trkpt>
      <trkpt lat="45.86014" lon="4.81538">
        <ele>342.3999939</ele>
        <time>2013-08-31T07:24:52Z</time>
      </trkpt>
      <trkpt lat="45.8601" lon="4.81539">
        <ele>342.6000061</ele>
        <time>2013-08-31T07:24:53Z</time>
      </trkpt>
      <trkpt lat="45.86002" lon="4.81544">
        <ele>344.7000122</ele>
        <time>2013-08-31T07:25:01Z</time>
      </trkpt>
      <trkpt lat="45.86001" lon="4.81545">
        <ele>345.2999878</ele>
        <time>2013-08-31T07:25:02Z</time>
      </trkpt>
      <trkpt lat="45.86001" lon="4.81545">
        <ele>346.2999878</ele>
        <time>2013-08-31T07:25:03Z</time>
      </trkpt>
      <trkpt lat="45.85999" lon="4.81547">
        <ele>346.2000122</ele>
        <time>2013-08-31T07:25:04Z</time>
      </trkpt>
      <trkpt lat="45.85993" lon="4.81544">
        <ele>348.8999939</ele>
        <time>2013-08-31T07:25:09Z</time>
      </trkpt>
      <trkpt lat="45.85993" lon="4.81544">
        <ele>349.7000122</ele>
        <time>2013-08-31T07:25:10Z</time>
      </trkpt>
      <trkpt lat="45.85992" lon="4.81544">
        <ele>349.1000061</ele>
        <time>2013-08-31T07:25:11Z</time>
      </trkpt>
      <trkpt lat="45.85983" lon="4.81542">
        <ele>347.8999939</ele>
        <time>2013-08-31T07:25:15Z</time>
      </trkpt>
      <trkpt lat="45.85982" lon="4.81543">
        <ele>348.1000061</ele>
        <time>2013-08-31T07:25:16Z</time>
      </trkpt>
      <trkpt lat="45.85974" lon="4.81544">
        <ele>351.2999878</ele>
        <time>2013-08-31T07:25:23Z</time>
      </trkpt>
      <trkpt lat="45.85972" lon="4.81546">
        <ele>351.1000061</ele>
        <time>2013-08-31T07:25:24Z</time>
      </trkpt>
      <trkpt lat="45.85965" lon="4.8155">
        <ele>354.6000061</ele>
        <time>2013-08-31T07:25:29Z</time>
      </trkpt>
      <trkpt lat="45.85963" lon="4.81551">
        <ele>354.2000122</ele>
        <time>2013-08-31T07:25:30Z</time>
      </trkpt>
      <trkpt lat="45.85956" lon="4.8155">
        <ele>356.5</ele>
        <time>2013-08-31T07:25:42Z</time>
      </trkpt>
      <trkpt lat="45.85956" lon="4.8155">
        <ele>356.6000061</ele>
        <time>2013-08-31T07:25:43Z</time>
      </trkpt>
      <trkpt lat="45.85956" lon="4.81549">
        <ele>356.7999878</ele>
        <time>2013-08-31T07:25:47Z</time>
      </trkpt>
      <trkpt lat="45.85956" lon="4.8155">
        <ele>356.7999878</ele>
        <time>2013-08-31T07:25:48Z</time>
      </trkpt>
      <trkpt lat="45.85951" lon="4.81553">
        <ele>356.3999939</ele>
        <time>2013-08-31T07:25:49Z</time>
      </trkpt>
      <trkpt lat="45.85947" lon="4.81554">
        <ele>356.2999878</ele>
        <time>2013-08-31T07:25:50Z</time>
      </trkpt>
      <trkpt lat="45.85939" lon="4.81556">
        <ele>355.7999878</ele>
        <time>2013-08-31T07:25:53Z</time>
      </trkpt>
      <trkpt lat="45.85938" lon="4.81557">
        <ele>355.7000122</ele>
        <time>2013-08-31T07:25:54Z</time>
      </trkpt>
      <trkpt lat="45.85931" lon="4.81559">
        <ele>357.2000122</ele>
        <time>2013-08-31T07:26:02Z</time>
      </trkpt>
      <trkpt lat="45.85931" lon="4.81559">
        <ele>357.2000122</ele>
        <time>2013-08-31T07:26:03Z</time>
      </trkpt>
      <trkpt lat="45.85931" lon="4.81559">
        <ele>357.5</ele>
        <time>2013-08-31T07:26:11Z</time>
      </trkpt>
      <trkpt lat="45.85931" lon="4.8156">
        <ele>357.6000061</ele>
        <time>2013-08-31T07:26:12Z</time>
      </trkpt>
      <trkpt lat="45.85923" lon="4.81564">
        <ele>361.1000061</ele>
        <time>2013-08-31T07:26:14Z</time>
      </trkpt>
      <trkpt lat="45.85921" lon="4.81568">
        <ele>361.7000122</ele>
        <time>2013-08-31T07:26:15Z</time>
      </trkpt>
      <trkpt lat="45.85915" lon="4.81571">
        <ele>364.1000061</ele>
        <time>2013-08-31T07:26:17Z</time>
      </trkpt>
      <trkpt lat="45.85912" lon="4.81575">
        <ele>364.7000122</ele>
        <time>2013-08-31T07:26:18Z</time>
      </trkpt>
      <trkpt lat="45.85908" lon="4.81576">
        <ele>365.2999878</ele>
        <time>2013-08-31T07:26:19Z</time>
      </trkpt>
      <trkpt lat="45.85904" lon="4.8158">
        <ele>366.2999878</ele>
        <time>2013-08-31T07:26:20Z</time>
      </trkpt>
      <trkpt lat="45.85897" lon="4.81579">
        <ele>366.5</ele>
        <time>2013-08-31T07:26:22Z</time>
      </trkpt>
      <trkpt lat="45.85892" lon="4.81581">
        <ele>365.8999939</ele>
        <time>2013-08-31T07:26:23Z</time>
      </trkpt>
      <trkpt lat="45.85886" lon="4.8158">
        <ele>366</ele>
        <time>2013-08-31T07:26:25Z</time>
      </trkpt>
      <trkpt lat="45.85882" lon="4.8158">
        <ele>364.8999939</ele>
        <time>2013-08-31T07:26:26Z</time>
      </trkpt>
      <trkpt lat="45.85878" lon="4.8158">
        <ele>363.2000122</ele>
        <time>2013-08-31T07:26:27Z</time>
      </trkpt>
      <trkpt lat="45.85872" lon="4.81582">
        <ele>362.2000122</ele>
        <time>2013-08-31T07:26:28Z</time>
      </trkpt>
      <trkpt lat="45.85864" lon="4.81583">
        <ele>363.6000061</ele>
        <time>2013-08-31T07:26:31Z</time>
      </trkpt>
      <trkpt lat="45.8586" lon="4.81582">
        <ele>362.7000122</ele>
        <time>2013-08-31T07:26:32Z</time>
      </trkpt>
      <trkpt lat="45.85853" lon="4.81585">
        <ele>361.8999939</ele>
        <time>2013-08-31T07:26:36Z</time>
      </trkpt>
      <trkpt lat="45.85851" lon="4.81586">
        <ele>361.1000061</ele>
        <time>2013-08-31T07:26:36Z</time>
      </trkpt>
      <trkpt lat="45.85842" lon="4.81583">
        <ele>366.3999939</ele>
        <time>2013-08-31T07:26:44Z</time>
      </trkpt>
      <trkpt lat="45.85841" lon="4.81581">
        <ele>367.3999939</ele>
        <time>2013-08-31T07:26:45Z</time>
      </trkpt>
      <trkpt lat="45.85835" lon="4.81587">
        <ele>370.3999939</ele>
        <time>2013-08-31T07:26:51Z</time>
      </trkpt>
      <trkpt lat="45.85832" lon="4.81588">
        <ele>370.8999939</ele>
        <time>2013-08-31T07:26:52Z</time>
      </trkpt>
      <trkpt lat="45.85826" lon="4.81594">
        <ele>372.2999878</ele>
        <time>2013-08-31T07:26:56Z</time>
      </trkpt>
      <trkpt lat="45.85824" lon="4.81594">
        <ele>371.3999939</ele>
        <time>2013-08-31T07:26:57Z</time>
      </trkpt>
      <trkpt lat="45.8582" lon="4.81596">
        <ele>372.1000061</ele>
        <time>2013-08-31T07:27:06Z</time>
      </trkpt>
      <trkpt lat="45.8582" lon="4.81596">
        <ele>372.2000122</ele>
        <time>2013-08-31T07:27:07Z</time>
      </trkpt>
      <trkpt lat="45.8582" lon="4.81595">
        <ele>372.5</ele>
        <time>2013-08-31T07:27:46Z</time>
      </trkpt>
      <trkpt lat="45.85819" lon="4.81594">
        <ele>373</ele>
        <time>2013-08-31T07:27:47Z</time>
      </trkpt>
      <trkpt lat="45.85819" lon="4.81595">
        <ele>371.2000122</ele>
        <time>2013-08-31T07:27:48Z</time>
      </trkpt>
      <trkpt lat="45.85819" lon="4.81595">
        <ele>370.7999878</ele>
        <time>2013-08-31T07:27:49Z</time>
      </trkpt>
      <trkpt lat="45.85819" lon="4.81595">
        <ele>370.8999939</ele>
        <time>2013-08-31T07:27:50Z</time>
      </trkpt>
      <trkpt lat="45.85818" lon="4.81596">
        <ele>371</ele>
        <time>2013-08-31T07:27:54Z</time>
      </trkpt>
      <trkpt lat="45.85818" lon="4.81596">
        <ele>371</ele>
        <time>2013-08-31T07:27:55Z</time>
      </trkpt>
      <trkpt lat="45.85818" lon="4.81596">
        <ele>371</ele>
        <time>2013-08-31T07:27:56Z</time>
      </trkpt>
      <trkpt lat="45.85818" lon="4.81596">
        <ele>371</ele>
        <time>2013-08-31T07:27:57Z</time>
      </trkpt>
      <trkpt lat="45.85818" lon="4.81597">
        <ele>370.7999878</ele>
        <time>2013-08-31T07:27:58Z</time>
      </trkpt>
      <trkpt lat="45.85818" lon="4.81597">
        <ele>370.8999939</ele>
        <time>2013-08-31T07:27:59Z</time>
      </trkpt>
      <trkpt lat="45.85817" lon="4.81599">
        <ele>369.6000061</ele>
        <time>2013-08-31T07:28:00Z</time>
      </trkpt>
      <trkpt lat="45.85809" lon="4.81601">
        <ele>369.7999878</ele>
        <time>2013-08-31T07:28:06Z</time>
      </trkpt>
      <trkpt lat="45.85805" lon="4.81601">
        <ele>367.6000061</ele>
        <time>2013-08-31T07:28:07Z</time>
      </trkpt>
      <trkpt lat="45.85801" lon="4.81602">
        <ele>367.5</ele>
        <time>2013-08-31T07:28:13Z</time>
      </trkpt>
      <trkpt lat="45.85801" lon="4.81602">
        <ele>367.3999939</ele>
        <time>2013-08-31T07:28:14Z</time>
      </trkpt>
      <trkpt lat="45.858" lon="4.81602">
        <ele>367.5</ele>
        <time>2013-08-31T07:28:16Z</time>
      </trkpt>
      <trkpt lat="45.85801" lon="4.81601">
        <ele>367.8999939</ele>
        <time>2013-08-31T07:28:17Z</time>
      </trkpt>
      <trkpt lat="45.85801" lon="4.816">
        <ele>369</ele>
        <time>2013-08-31T07:28:19Z</time>
      </trkpt>
      <trkpt lat="45.85801" lon="4.816">
        <ele>368.8999939</ele>
        <time>2013-08-31T07:28:20Z</time>
      </trkpt>
      <trkpt lat="45.85801" lon="4.816">
        <ele>368.7999878</ele>
        <time>2013-08-31T07:28:21Z</time>
      </trkpt>
      <trkpt lat="45.85801" lon="4.81601">
        <ele>368.8999939</ele>
        <time>2013-08-31T07:28:22Z</time>
      </trkpt>
      <trkpt lat="45.85801" lon="4.81605">
        <ele>368.7000122</ele>
        <time>2013-08-31T07:28:23Z</time>
      </trkpt>
      <trkpt lat="45.85802" lon="4.81608">
        <ele>368.6000061</ele>
        <time>2013-08-31T07:28:31Z</time>
      </trkpt>
      <trkpt lat="45.85802" lon="4.81608">
        <ele>368.2000122</ele>
        <time>2013-08-31T07:28:32Z</time>
      </trkpt>
      <trkpt lat="45.85803" lon="4.81608">
        <ele>368.3999939</ele>
        <time>2013-08-31T07:28:33Z</time>
      </trkpt>
      <trkpt lat="45.85803" lon="4.81608">
        <ele>368.3999939</ele>
        <time>2013-08-31T07:28:34Z</time>
      </trkpt>
      <trkpt lat="45.85802" lon="4.81608">
        <ele>368.5</ele>
        <time>2013-08-31T07:28:35Z</time>
      </trkpt>
      <trkpt lat="45.85802" lon="4.81607">
        <ele>368.6000061</ele>
        <time>2013-08-31T07:28:36Z</time>
      </trkpt>
      <trkpt lat="45.85802" lon="4.81607">
        <ele>369.1000061</ele>
        <time>2013-08-31T07:29:00Z</time>
      </trkpt>
      <trkpt lat="45.85802" lon="4.81607">
        <ele>369.2000122</ele>
        <time>2013-08-31T07:29:01Z</time>
      </trkpt>
      <trkpt lat="45.85795" lon="4.81608">
        <ele>374.2000122</ele>
        <time>2013-08-31T07:29:03Z</time>
      </trkpt>
      <trkpt lat="45.85791" lon="4.81608">
        <ele>374.6000061</ele>
        <time>2013-08-31T07:29:04Z</time>
      </trkpt>
      <trkpt lat="45.85785" lon="4.81603">
        <ele>376.2999878</ele>
        <time>2013-08-31T07:29:06Z</time>
      </trkpt>
      <trkpt lat="45.85781" lon="4.81603">
        <ele>377.3999939</ele>
        <time>2013-08-31T07:29:07Z</time>
      </trkpt>
      <trkpt lat="45.85773" lon="4.81604">
        <ele>382.2000122</ele>
        <time>2013-08-31T07:29:10Z</time>
      </trkpt>
      <trkpt lat="45.85771" lon="4.81603">
        <ele>383.1000061</ele>
        <time>2013-08-31T07:29:11Z</time>
      </trkpt>
      <trkpt lat="45.85763" lon="4.81601">
        <ele>390</ele>
        <time>2013-08-31T07:29:15Z</time>
      </trkpt>
      <trkpt lat="45.85761" lon="4.81601">
        <ele>390.7999878</ele>
        <time>2013-08-31T07:29:16Z</time>
      </trkpt>
      <trkpt lat="45.85759" lon="4.816">
        <ele>396</ele>
        <time>2013-08-31T07:29:24Z</time>
      </trkpt>
      <trkpt lat="45.85759" lon="4.816">
        <ele>396.1000061</ele>
        <time>2013-08-31T07:29:25Z</time>
      </trkpt>
      <trkpt lat="45.85759" lon="4.816">
        <ele>396.6000061</ele>
        <time>2013-08-31T07:29:26Z</time>
      </trkpt>
      <trkpt lat="45.85759" lon="4.816">
        <ele>396.7000122</ele>
        <time>2013-08-31T07:29:27Z</time>
      </trkpt>
      <trkpt lat="45.85759" lon="4.816">
        <ele>396.7999878</ele>
        <time>2013-08-31T07:29:28Z</time>
      </trkpt>
      <trkpt lat="45.85759" lon="4.816">
        <ele>396.7999878</ele>
        <time>2013-08-31T07:29:29Z</time>
      </trkpt>
      <trkpt lat="45.85759" lon="4.816">
        <ele>397.1000061</ele>
        <time>2013-08-31T07:29:37Z</time>
      </trkpt>
      <trkpt lat="45.85759" lon="4.816">
        <ele>397.1000061</ele>
        <time>2013-08-31T07:29:38Z</time>
      </trkpt>
      <trkpt lat="45.8575" lon="4.81598">
        <ele>399.6000061</ele>
        <time>2013-08-31T07:29:43Z</time>
      </trkpt>
      <trkpt lat="45.85749" lon="4.81597">
        <ele>399.3999939</ele>
        <time>2013-08-31T07:29:44Z</time>
      </trkpt>
      <trkpt lat="45.85743" lon="4.81595">
        <ele>399.7000122</ele>
        <time>2013-08-31T07:29:53Z</time>
      </trkpt>
      <trkpt lat="45.85743" lon="4.81595">
        <ele>399.7000122</ele>
        <time>2013-08-31T07:29:54Z</time>
      </trkpt>
      <trkpt lat="45.85743" lon="4.81595">
        <ele>399.7999878</ele>
        <time>2013-08-31T07:29:57Z</time>
      </trkpt>
      <trkpt lat="45.85743" lon="4.81594">
        <ele>399.8999939</ele>
        <time>2013-08-31T07:29:58Z</time>
      </trkpt>
      <trkpt lat="45.85737" lon="4.81585">
        <ele>400</ele>
        <time>2013-08-31T07:30:00Z</time>
      </trkpt>
      <trkpt lat="45.85735" lon="4.8158">
        <ele>399.2999878</ele>
        <time>2013-08-31T07:30:01Z</time>
      </trkpt>
      <trkpt lat="45.85727" lon="4.81576">
        <ele>399.1000061</ele>
        <time>2013-08-31T07:30:06Z</time>
      </trkpt>
      <trkpt lat="45.85725" lon="4.81576">
        <ele>399.1000061</ele>
        <time>2013-08-31T07:30:07Z</time>
      </trkpt>
      <trkpt lat="45.85717" lon="4.81571">
        <ele>398.2000122</ele>
        <time>2013-08-31T07:30:13Z</time>
      </trkpt>
      <trkpt lat="45.85712" lon="4.81565">
        <ele>397.2000122</ele>
        <time>2013-08-31T07:30:14Z</time>
      </trkpt>
      <trkpt lat="45.85703" lon="4.81564">
        <ele>398.6000061</ele>
        <time>2013-08-31T07:30:16Z</time>
      </trkpt>
      <trkpt lat="45.857" lon="4.81562">
        <ele>399.1000061</ele>
        <time>2013-08-31T07:30:17Z</time>
      </trkpt>
      <trkpt lat="45.85693" lon="4.81556">
        <ele>399.3999939</ele>
        <time>2013-08-31T07:30:20Z</time>
      </trkpt>
      <trkpt lat="45.85692" lon="4.81555">
        <ele>400</ele>
        <time>2013-08-31T07:30:21Z</time>
      </trkpt>
      <trkpt lat="45.85683" lon="4.81554">
        <ele>401.1000061</ele>
        <time>2013-08-31T07:30:29Z</time>
      </trkpt>
      <trkpt lat="45.85679" lon="4.8155">
        <ele>402.2999878</ele>
        <time>2013-08-31T07:30:30Z</time>
      </trkpt>
      <trkpt lat="45.85673" lon="4.81543">
        <ele>405.1000061</ele>
        <time>2013-08-31T07:30:32Z</time>
      </trkpt>
      <trkpt lat="45.85671" lon="4.81543">
        <ele>405.3999939</ele>
        <time>2013-08-31T07:30:33Z</time>
      </trkpt>
      <trkpt lat="45.85665" lon="4.81535">
        <ele>405.6000061</ele>
        <time>2013-08-31T07:30:36Z</time>
      </trkpt>
      <trkpt lat="45.85664" lon="4.81533">
        <ele>405.7000122</ele>
        <time>2013-08-31T07:30:37Z</time>
      </trkpt>
      <trkpt lat="45.85658" lon="4.81527">
        <ele>406.7999878</ele>
        <time>2013-08-31T07:30:41Z</time>
      </trkpt>
      <trkpt lat="45.85656" lon="4.81526">
        <ele>406.7000122</ele>
        <time>2013-08-31T07:30:42Z</time>
      </trkpt>
      <trkpt lat="45.85652" lon="4.81518">
        <ele>409.7999878</ele>
        <time>2013-08-31T07:30:49Z</time>
      </trkpt>
      <trkpt lat="45.85651" lon="4.81515">
        <ele>409.7999878</ele>
        <time>2013-08-31T07:30:50Z</time>
      </trkpt>
      <trkpt lat="45.85646" lon="4.81509">
        <ele>411.1000061</ele>
        <time>2013-08-31T07:30:56Z</time>
      </trkpt>
      <trkpt lat="45.85645" lon="4.81505">
        <ele>412</ele>
        <time>2013-08-31T07:30:57Z</time>
      </trkpt>
      <trkpt lat="45.85638" lon="4.81497">
        <ele>412.2000122</ele>
        <time>2013-08-31T07:31:04Z</time>
      </trkpt>
      <trkpt lat="45.85637" lon="4.81495">
        <ele>411.5</ele>
        <time>2013-08-31T07:31:05Z</time>
      </trkpt>
      <trkpt lat="45.85631" lon="4.81489">
        <ele>414.2000122</ele>
        <time>2013-08-31T07:31:10Z</time>
      </trkpt>
      <trkpt lat="45.85629" lon="4.81488">
        <ele>414.2000122</ele>
        <time>2013-08-31T07:31:11Z</time>
      </trkpt>
      <trkpt lat="45.85621" lon="4.81485">
        <ele>414.1000061</ele>
        <time>2013-08-31T07:31:17Z</time>
      </trkpt>
      <trkpt lat="45.8562" lon="4.81482">
        <ele>413.7000122</ele>
        <time>2013-08-31T07:31:18Z</time>
      </trkpt>
      <trkpt lat="45.85614" lon="4.81475">
        <ele>415.8999939</ele>
        <time>2013-08-31T07:31:27Z</time>
      </trkpt>
      <trkpt lat="45.85613" lon="4.81474">
        <ele>416.3999939</ele>
        <time>2013-08-31T07:31:28Z</time>
      </trkpt>
      <trkpt lat="45.85613" lon="4.81474">
        <ele>416.7999878</ele>
        <time>2013-08-31T07:31:29Z</time>
      </trkpt>
      <trkpt lat="45.85614" lon="4.81474">
        <ele>416.8999939</ele>
        <time>2013-08-31T07:31:30Z</time>
      </trkpt>
      <trkpt lat="45.85614" lon="4.81474">
        <ele>416.7999878</ele>
        <time>2013-08-31T07:31:31Z</time>
      </trkpt>
      <trkpt lat="45.85614" lon="4.81473">
        <ele>416.7999878</ele>
        <time>2013-08-31T07:31:33Z</time>
      </trkpt>
      <trkpt lat="45.85614" lon="4.81473">
        <ele>416.6000061</ele>
        <time>2013-08-31T07:31:34Z</time>
      </trkpt>
      <trkpt lat="45.85611" lon="4.81461">
        <ele>419.7999878</ele>
        <time>2013-08-31T07:31:53Z</time>
      </trkpt>
      <trkpt lat="45.85609" lon="4.8146">
        <ele>419.5</ele>
        <time>2013-08-31T07:31:54Z</time>
      </trkpt>
      <trkpt lat="45.85603" lon="4.81453">
        <ele>417.3999939</ele>
        <time>2013-08-31T07:31:58Z</time>
      </trkpt>
      <trkpt lat="45.85603" lon="4.81453">
        <ele>417.2000122</ele>
        <time>2013-08-31T07:31:59Z</time>
      </trkpt>
      <trkpt lat="45.85604" lon="4.81454">
        <ele>417</ele>
        <time>2013-08-31T07:32:00Z</time>
      </trkpt>
      <trkpt lat="45.85603" lon="4.81453">
        <ele>416.8999939</ele>
        <time>2013-08-31T07:32:02Z</time>
      </trkpt>
      <trkpt lat="45.85603" lon="4.81453">
        <ele>417.1000061</ele>
        <time>2013-08-31T07:32:03Z</time>
      </trkpt>
      <trkpt lat="45.85603" lon="4.81453">
        <ele>417.2999878</ele>
        <time>2013-08-31T07:32:20Z</time>
      </trkpt>
      <trkpt lat="45.85603" lon="4.81453">
        <ele>417.5</ele>
        <time>2013-08-31T07:32:21Z</time>
      </trkpt>
      <trkpt lat="45.85603" lon="4.81453">
        <ele>417.5</ele>
        <time>2013-08-31T07:32:22Z</time>
      </trkpt>
      <trkpt lat="45.85603" lon="4.81453">
        <ele>417.5</ele>
        <time>2013-08-31T07:32:23Z</time>
      </trkpt>
      <trkpt lat="45.85604" lon="4.81453">
        <ele>417.7999878</ele>
        <time>2013-08-31T07:32:24Z</time>
      </trkpt>
      <trkpt lat="45.85604" lon="4.81453">
        <ele>417.8999939</ele>
        <time>2013-08-31T07:32:25Z</time>
      </trkpt>
      <trkpt lat="45.85604" lon="4.81453">
        <ele>417.8999939</ele>
        <time>2013-08-31T07:32:26Z</time>
      </trkpt>
      <trkpt lat="45.85604" lon="4.81453">
        <ele>417.7999878</ele>
        <time>2013-08-31T07:32:57Z</time>
      </trkpt>
      <trkpt lat="45.85604" lon="4.81453">
        <ele>418</ele>
        <time>2013-08-31T07:32:58Z</time>
      </trkpt>
      <trkpt lat="45.85597" lon="4.81446">
        <ele>420.5</ele>
        <time>2013-08-31T07:33:03Z</time>
      </trkpt>
      <trkpt lat="45.85595" lon="4.81448">
        <ele>420.2999878</ele>
        <time>2013-08-31T07:33:04Z</time>
      </trkpt>
      <trkpt lat="45.85589" lon="4.8144">
        <ele>420.7000122</ele>
        <time>2013-08-31T07:33:13Z</time>
      </trkpt>
      <trkpt lat="45.85589" lon="4.81438">
        <ele>421.7000122</ele>
        <time>2013-08-31T07:33:14Z</time>
      </trkpt>
      <trkpt lat="45.85589" lon="4.81438">
        <ele>421.6000061</ele>
        <time>2013-08-31T07:33:15Z</time>
      </trkpt>
      <trkpt lat="45.85589" lon="4.81436">
        <ele>421.7000122</ele>
        <time>2013-08-31T07:33:16Z</time>
      </trkpt>
      <trkpt lat="45.85588" lon="4.81433">
        <ele>421.7999878</ele>
        <time>2013-08-31T07:33:17Z</time>
      </trkpt>
      <trkpt lat="45.85588" lon="4.81423">
        <ele>425.7999878</ele>
        <time>2013-08-31T07:33:31Z</time>
      </trkpt>
      <trkpt lat="45.85588" lon="4.81423">
        <ele>425.8999939</ele>
        <time>2013-08-31T07:33:32Z</time>
      </trkpt>
      <trkpt lat="45.85588" lon="4.81422">
        <ele>426.1000061</ele>
        <time>2013-08-31T07:33:33Z</time>
      </trkpt>
      <trkpt lat="45.85587" lon="4.81423">
        <ele>425.7000122</ele>
        <time>2013-08-31T07:33:34Z</time>
      </trkpt>
      <trkpt lat="45.85587" lon="4.8142">
        <ele>424.6000061</ele>
        <time>2013-08-31T07:33:37Z</time>
      </trkpt>
      <trkpt lat="45.85587" lon="4.8142">
        <ele>424.3999939</ele>
        <time>2013-08-31T07:33:38Z</time>
      </trkpt>
      <trkpt lat="45.85587" lon="4.8142">
        <ele>424.3999939</ele>
        <time>2013-08-31T07:33:39Z</time>
      </trkpt>
      <trkpt lat="45.85585" lon="4.81419">
        <ele>424.5</ele>
        <time>2013-08-31T07:33:40Z</time>
      </trkpt>
      <trkpt lat="45.85585" lon="4.81416">
        <ele>424.1000061</ele>
        <time>2013-08-31T07:33:44Z</time>
      </trkpt>
      <trkpt lat="45.85585" lon="4.81416">
        <ele>424.1000061</ele>
        <time>2013-08-31T07:33:45Z</time>
      </trkpt>
      <trkpt lat="45.85585" lon="4.81413">
        <ele>424.8999939</ele>
        <time>2013-08-31T07:33:46Z</time>
      </trkpt>
      <trkpt lat="45.8559" lon="4.81405">
        <ele>426.6000061</ele>
        <time>2013-08-31T07:33:54Z</time>
      </trkpt>
      <trkpt lat="45.85592" lon="4.81402">
        <ele>426.7999878</ele>
        <time>2013-08-31T07:33:55Z</time>
      </trkpt>
      <trkpt lat="45.85587" lon="4.81392">
        <ele>426.5</ele>
        <time>2013-08-31T07:34:03Z</time>
      </trkpt>
      <trkpt lat="45.85587" lon="4.81389">
        <ele>425.7999878</ele>
        <time>2013-08-31T07:34:04Z</time>
      </trkpt>
      <trkpt lat="45.85586" lon="4.81387">
        <ele>424.6000061</ele>
        <time>2013-08-31T07:34:13Z</time>
      </trkpt>
      <trkpt lat="45.85586" lon="4.81387">
        <ele>424.6000061</ele>
        <time>2013-08-31T07:34:14Z</time>
      </trkpt>
      <trkpt lat="45.85586" lon="4.81387">
        <ele>424.7999878</ele>
        <time>2013-08-31T07:34:15Z</time>
      </trkpt>
      <trkpt lat="45.85586" lon="4.81387">
        <ele>424.6000061</ele>
        <time>2013-08-31T07:34:16Z</time>
      </trkpt>
      <trkpt lat="45.85583" lon="4.81386">
        <ele>426.7000122</ele>
        <time>2013-08-31T07:34:21Z</time>
      </trkpt>
      <trkpt lat="45.85583" lon="4.81386">
        <ele>426.7000122</ele>
        <time>2013-08-31T07:34:22Z</time>
      </trkpt>
      <trkpt lat="45.85583" lon="4.81386">
        <ele>426.7000122</ele>
        <time>2013-08-31T07:34:23Z</time>
      </trkpt>
      <trkpt lat="45.85577" lon="4.81377">
        <ele>433</ele>
        <time>2013-08-31T07:34:29Z</time>
      </trkpt>
      <trkpt lat="45.85576" lon="4.81376">
        <ele>433.2000122</ele>
        <time>2013-08-31T07:34:30Z</time>
      </trkpt>
      <trkpt lat="45.8557" lon="4.8137">
        <ele>434.7999878</ele>
        <time>2013-08-31T07:34:35Z</time>
      </trkpt>
      <trkpt lat="45.85568" lon="4.81368">
        <ele>433.8999939</ele>
        <time>2013-08-31T07:34:36Z</time>
      </trkpt>
      <trkpt lat="45.85561" lon="4.81368">
        <ele>429.7000122</ele>
        <time>2013-08-31T07:34:37Z</time>
      </trkpt>
      <trkpt lat="45.85558" lon="4.81364">
        <ele>428.1000061</ele>
        <time>2013-08-31T07:34:38Z</time>
      </trkpt>
      <trkpt lat="45.85566" lon="4.81369">
        <ele>429</ele>
        <time>2013-08-31T07:34:47Z</time>
      </trkpt>
      <trkpt lat="45.85567" lon="4.81369">
        <ele>429</ele>
        <time>2013-08-31T07:34:48Z</time>
      </trkpt>
      <trkpt lat="45.85574" lon="4.81369">
        <ele>429.2000122</ele>
        <time>2013-08-31T07:34:52Z</time>
      </trkpt>
      <trkpt lat="45.85577" lon="4.81368">
        <ele>430.1000061</ele>
        <time>2013-08-31T07:34:53Z</time>
      </trkpt>
      <trkpt lat="45.85585" lon="4.81367">
        <ele>430</ele>
        <time>2013-08-31T07:34:57Z</time>
      </trkpt>
      <trkpt lat="45.85588" lon="4.81366">
        <ele>431.1000061</ele>
        <time>2013-08-31T07:34:58Z</time>
      </trkpt>
      <trkpt lat="45.85596" lon="4.81367">
        <ele>434.8999939</ele>
        <time>2013-08-31T07:35:04Z</time>
      </trkpt>
      <trkpt lat="45.85599" lon="4.81366">
        <ele>435.5</ele>
        <time>2013-08-31T07:35:05Z</time>
      </trkpt>
      <trkpt lat="45.85608" lon="4.81365">
        <ele>437.7999878</ele>
        <time>2013-08-31T07:35:09Z</time>
      </trkpt>
      <trkpt lat="45.85611" lon="4.81367">
        <ele>438.6000061</ele>
        <time>2013-08-31T07:35:10Z</time>
      </trkpt>
      <trkpt lat="45.85619" lon="4.81369">
        <ele>436.5</ele>
        <time>2013-08-31T07:35:12Z</time>
      </trkpt>
      <trkpt lat="45.85621" lon="4.81368">
        <ele>436.7000122</ele>
        <time>2013-08-31T07:35:13Z</time>
      </trkpt>
      <trkpt lat="45.85629" lon="4.81366">
        <ele>435.5</ele>
        <time>2013-08-31T07:35:18Z</time>
      </trkpt>
      <trkpt lat="45.8563" lon="4.81365">
        <ele>435.7000122</ele>
        <time>2013-08-31T07:35:19Z</time>
      </trkpt>
      <trkpt lat="45.85632" lon="4.81352">
        <ele>433.5</ele>
        <time>2013-08-31T07:35:24Z</time>
      </trkpt>
      <trkpt lat="45.85633" lon="4.81351">
        <ele>434.3999939</ele>
        <time>2013-08-31T07:35:25Z</time>
      </trkpt>
      <trkpt lat="45.85626" lon="4.81342">
        <ele>436.7999878</ele>
        <time>2013-08-31T07:35:33Z</time>
      </trkpt>
      <trkpt lat="45.85625" lon="4.81342">
        <ele>436.7999878</ele>
        <time>2013-08-31T07:35:34Z</time>
      </trkpt>
      <trkpt lat="45.85623" lon="4.81341">
        <ele>438.7000122</ele>
        <time>2013-08-31T07:35:37Z</time>
      </trkpt>
      <trkpt lat="45.85623" lon="4.81341">
        <ele>439</ele>
        <time>2013-08-31T07:35:38Z</time>
      </trkpt>
      <trkpt lat="45.85623" lon="4.81341">
        <ele>438.6000061</ele>
        <time>2013-08-31T07:35:42Z</time>
      </trkpt>
      <trkpt lat="45.85623" lon="4.81341">
        <ele>438.2999878</ele>
        <time>2013-08-31T07:35:43Z</time>
      </trkpt>
      <trkpt lat="45.85623" lon="4.81341">
        <ele>438.3999939</ele>
        <time>2013-08-31T07:35:44Z</time>
      </trkpt>
      <trkpt lat="45.85622" lon="4.81341">
        <ele>438.1000061</ele>
        <time>2013-08-31T07:35:45Z</time>
      </trkpt>
      <trkpt lat="45.85622" lon="4.81341">
        <ele>437.7999878</ele>
        <time>2013-08-31T07:35:47Z</time>
      </trkpt>
      <trkpt lat="45.85622" lon="4.81341">
        <ele>437.8999939</ele>
        <time>2013-08-31T07:35:48Z</time>
      </trkpt>
      <trkpt lat="45.85621" lon="4.81341">
        <ele>437.3999939</ele>
        <time>2013-08-31T07:35:49Z</time>
      </trkpt>
      <trkpt lat="45.85621" lon="4.81341">
        <ele>437</ele>
        <time>2013-08-31T07:35:51Z</time>
      </trkpt>
      <trkpt lat="45.8562" lon="4.81341">
        <ele>437</ele>
        <time>2013-08-31T07:35:52Z</time>
      </trkpt>
      <trkpt lat="45.8562" lon="4.81341">
        <ele>437</ele>
        <time>2013-08-31T07:35:53Z</time>
      </trkpt>
      <trkpt lat="45.8562" lon="4.81341">
        <ele>437</ele>
        <time>2013-08-31T07:35:54Z</time>
      </trkpt>
      <trkpt lat="45.85613" lon="4.81335">
        <ele>440.6000061</ele>
        <time>2013-08-31T07:36:00Z</time>
      </trkpt>
      <trkpt lat="45.8561" lon="4.81333">
        <ele>441.6000061</ele>
        <time>2013-08-31T07:36:01Z</time>
      </trkpt>
      <trkpt lat="45.85603" lon="4.81326">
        <ele>446</ele>
        <time>2013-08-31T07:36:07Z</time>
      </trkpt>
      <trkpt lat="45.856" lon="4.81326">
        <ele>445.8999939</ele>
        <time>2013-08-31T07:36:08Z</time>
      </trkpt>
      <trkpt lat="45.85592" lon="4.81321">
        <ele>448.2000122</ele>
        <time>2013-08-31T07:36:12Z</time>
      </trkpt>
      <trkpt lat="45.8559" lon="4.8132">
        <ele>449</ele>
        <time>2013-08-31T07:36:13Z</time>
      </trkpt>
      <trkpt lat="45.85583" lon="4.81316">
        <ele>450.2999878</ele>
        <time>2013-08-31T07:36:18Z</time>
      </trkpt>
      <trkpt lat="45.85582" lon="4.81315">
        <ele>450.2000122</ele>
        <time>2013-08-31T07:36:19Z</time>
      </trkpt>
      <trkpt lat="45.85575" lon="4.81311">
        <ele>452</ele>
        <time>2013-08-31T07:36:25Z</time>
      </trkpt>
      <trkpt lat="45.85573" lon="4.8131">
        <ele>452</ele>
        <time>2013-08-31T07:36:26Z</time>
      </trkpt>
      <trkpt lat="45.85566" lon="4.81306">
        <ele>453.7999878</ele>
        <time>2013-08-31T07:36:31Z</time>
      </trkpt>
      <trkpt lat="45.85564" lon="4.81305">
        <ele>453.8999939</ele>
        <time>2013-08-31T07:36:32Z</time>
      </trkpt>
      <trkpt lat="45.85557" lon="4.81302">
        <ele>454.5</ele>
        <time>2013-08-31T07:36:36Z</time>
      </trkpt>
      <trkpt lat="45.85555" lon="4.81301">
        <ele>454.6000061</ele>
        <time>2013-08-31T07:36:37Z</time>
      </trkpt>
      <trkpt lat="45.85547" lon="4.81296">
        <ele>455.2999878</ele>
        <time>2013-08-31T07:36:41Z</time>
      </trkpt>
      <trkpt lat="45.85545" lon="4.81295">
        <ele>455.2000122</ele>
        <time>2013-08-31T07:36:42Z</time>
      </trkpt>
      <trkpt lat="45.85537" lon="4.8129">
        <ele>454.7999878</ele>
        <time>2013-08-31T07:36:47Z</time>
      </trkpt>
      <trkpt lat="45.85533" lon="4.81289">
        <ele>454.3999939</ele>
        <time>2013-08-31T07:36:48Z</time>
      </trkpt>
      <trkpt lat="45.85527" lon="4.81287">
        <ele>453.2000122</ele>
        <time>2013-08-31T07:36:50Z</time>
      </trkpt>
      <trkpt lat="45.85523" lon="4.81285">
        <ele>453</ele>
        <time>2013-08-31T07:36:51Z</time>
      </trkpt>
      <trkpt lat="45.85516" lon="4.81279">
        <ele>452.2000122</ele>
        <time>2013-08-31T07:36:57Z</time>
      </trkpt>
      <trkpt lat="45.85512" lon="4.81279">
        <ele>451.6000061</ele>
        <time>2013-08-31T07:36:58Z</time>
      </trkpt>
      <trkpt lat="45.85505" lon="4.81279">
        <ele>451.2999878</ele>
        <time>2013-08-31T07:37:01Z</time>
      </trkpt>
      <trkpt lat="45.85502" lon="4.81278">
        <ele>451.3999939</ele>
        <time>2013-08-31T07:37:02Z</time>
      </trkpt>
      <trkpt lat="45.85494" lon="4.81275">
        <ele>450.1000061</ele>
        <time>2013-08-31T07:37:06Z</time>
      </trkpt>
      <trkpt lat="45.85493" lon="4.81274">
        <ele>449.7000122</ele>
        <time>2013-08-31T07:37:07Z</time>
      </trkpt>
      <trkpt lat="45.85485" lon="4.81271">
        <ele>449.3999939</ele>
        <time>2013-08-31T07:37:12Z</time>
      </trkpt>
      <trkpt lat="45.85484" lon="4.8127">
        <ele>449.3999939</ele>
        <time>2013-08-31T07:37:13Z</time>
      </trkpt>
      <trkpt lat="45.85478" lon="4.81262">
        <ele>450</ele>
        <time>2013-08-31T07:37:17Z</time>
      </trkpt>
      <trkpt lat="45.85477" lon="4.81261">
        <ele>449.8999939</ele>
        <time>2013-08-31T07:37:18Z</time>
      </trkpt>
      <trkpt lat="45.85471" lon="4.81255">
        <ele>451.2000122</ele>
        <time>2013-08-31T07:37:23Z</time>
      </trkpt>
      <trkpt lat="45.85469" lon="4.81253">
        <ele>451.3999939</ele>
        <time>2013-08-31T07:37:24Z</time>
      </trkpt>
      <trkpt lat="45.85463" lon="4.81246">
        <ele>455.1000061</ele>
        <time>2013-08-31T07:37:28Z</time>
      </trkpt>
      <trkpt lat="45.85461" lon="4.81245">
        <ele>455.2000122</ele>
        <time>2013-08-31T07:37:29Z</time>
      </trkpt>
      <trkpt lat="45.85453" lon="4.81242">
        <ele>454.6000061</ele>
        <time>2013-08-31T07:37:33Z</time>
      </trkpt>
      <trkpt lat="45.85451" lon="4.81241">
        <ele>454.3999939</ele>
        <time>2013-08-31T07:37:34Z</time>
      </trkpt>
      <trkpt lat="45.85442" lon="4.81236">
        <ele>454.8999939</ele>
        <time>2013-08-31T07:37:38Z</time>
      </trkpt>
      <trkpt lat="45.85441" lon="4.81234">
        <ele>455.5</ele>
        <time>2013-08-31T07:37:39Z</time>
      </trkpt>
      <trkpt lat="45.85434" lon="4.81231">
        <ele>456.6000061</ele>
        <time>2013-08-31T07:37:43Z</time>
      </trkpt>
      <trkpt lat="45.85432" lon="4.81229">
        <ele>457.6000061</ele>
        <time>2013-08-31T07:37:44Z</time>
      </trkpt>
      <trkpt lat="45.85426" lon="4.81222">
        <ele>459.1000061</ele>
        <time>2013-08-31T07:37:48Z</time>
      </trkpt>
      <trkpt lat="45.85424" lon="4.81221">
        <ele>459.3999939</ele>
        <time>2013-08-31T07:37:49Z</time>
      </trkpt>
      <trkpt lat="45.85416" lon="4.81219">
        <ele>459.3999939</ele>
        <time>2013-08-31T07:37:54Z</time>
      </trkpt>
      <trkpt lat="45.85415" lon="4.81218">
        <ele>459.5</ele>
        <time>2013-08-31T07:37:55Z</time>
      </trkpt>
      <trkpt lat="45.85407" lon="4.81215">
        <ele>460.3999939</ele>
        <time>2013-08-31T07:37:59Z</time>
      </trkpt>
      <trkpt lat="45.85406" lon="4.81214">
        <ele>460.6000061</ele>
        <time>2013-08-31T07:38:00Z</time>
      </trkpt>
      <trkpt lat="45.85398" lon="4.81209">
        <ele>460.8999939</ele>
        <time>2013-08-31T07:38:06Z</time>
      </trkpt>
      <trkpt lat="45.85395" lon="4.81208">
        <ele>461</ele>
        <time>2013-08-31T07:38:07Z</time>
      </trkpt>
      <trkpt lat="45.8539" lon="4.81202">
        <ele>462.7000122</ele>
        <time>2013-08-31T07:38:11Z</time>
      </trkpt>
      <trkpt lat="45.85387" lon="4.81201">
        <ele>462</ele>
        <time>2013-08-31T07:38:12Z</time>
      </trkpt>
      <trkpt lat="45.85379" lon="4.81196">
        <ele>464.1000061</ele>
        <time>2013-08-31T07:38:16Z</time>
      </trkpt>
      <trkpt lat="45.85377" lon="4.81195">
        <ele>463.5</ele>
        <time>2013-08-31T07:38:17Z</time>
      </trkpt>
      <trkpt lat="45.8537" lon="4.81188">
        <ele>465.5</ele>
        <time>2013-08-31T07:38:22Z</time>
      </trkpt>
      <trkpt lat="45.85369" lon="4.81187">
        <ele>466.1000061</ele>
        <time>2013-08-31T07:38:23Z</time>
      </trkpt>
      <trkpt lat="45.85362" lon="4.81181">
        <ele>468.7999878</ele>
        <time>2013-08-31T07:38:29Z</time>
      </trkpt>
      <trkpt lat="45.85361" lon="4.8118">
        <ele>468.8999939</ele>
        <time>2013-08-31T07:38:30Z</time>
      </trkpt>
      <trkpt lat="45.85354" lon="4.81173">
        <ele>469.7999878</ele>
        <time>2013-08-31T07:38:35Z</time>
      </trkpt>
      <trkpt lat="45.85351" lon="4.81171">
        <ele>470.1000061</ele>
        <time>2013-08-31T07:38:36Z</time>
      </trkpt>
      <trkpt lat="45.85344" lon="4.81166">
        <ele>469.7000122</ele>
        <time>2013-08-31T07:38:39Z</time>
      </trkpt>
      <trkpt lat="45.85341" lon="4.81163">
        <ele>469.3999939</ele>
        <time>2013-08-31T07:38:40Z</time>
      </trkpt>
      <trkpt lat="45.85334" lon="4.8116">
        <ele>468.8999939</ele>
        <time>2013-08-31T07:38:42Z</time>
      </trkpt>
      <trkpt lat="45.85332" lon="4.81157">
        <ele>468.8999939</ele>
        <time>2013-08-31T07:38:43Z</time>
      </trkpt>
      <trkpt lat="45.85326" lon="4.81152">
        <ele>469.2999878</ele>
        <time>2013-08-31T07:38:45Z</time>
      </trkpt>
      <trkpt lat="45.85323" lon="4.81149">
        <ele>469.8999939</ele>
        <time>2013-08-31T07:38:46Z</time>
      </trkpt>
      <trkpt lat="45.85315" lon="4.81142">
        <ele>470.3999939</ele>
        <time>2013-08-31T07:38:49Z</time>
      </trkpt>
      <trkpt lat="45.85313" lon="4.81141">
        <ele>470.2999878</ele>
        <time>2013-08-31T07:38:50Z</time>
      </trkpt>
      <trkpt lat="45.85307" lon="4.81133">
        <ele>469.6000061</ele>
        <time>2013-08-31T07:38:54Z</time>
      </trkpt>
      <trkpt lat="45.85306" lon="4.81131">
        <ele>470.2000122</ele>
        <time>2013-08-31T07:38:55Z</time>
      </trkpt>
      <trkpt lat="45.85301" lon="4.81123">
        <ele>472.2999878</ele>
        <time>2013-08-31T07:38:59Z</time>
      </trkpt>
      <trkpt lat="45.85299" lon="4.81122">
        <ele>473.2000122</ele>
        <time>2013-08-31T07:39:00Z</time>
      </trkpt>
      <trkpt lat="45.85294" lon="4.81115">
        <ele>474.5</ele>
        <time>2013-08-31T07:39:04Z</time>
      </trkpt>
      <trkpt lat="45.85292" lon="4.81113">
        <ele>474.6000061</ele>
        <time>2013-08-31T07:39:05Z</time>
      </trkpt>
      <trkpt lat="45.85285" lon="4.81105">
        <ele>475.7999878</ele>
        <time>2013-08-31T07:39:09Z</time>
      </trkpt>
      <trkpt lat="45.85284" lon="4.81103">
        <ele>476.2999878</ele>
        <time>2013-08-31T07:39:10Z</time>
      </trkpt>
      <trkpt lat="45.85278" lon="4.81095">
        <ele>478.7999878</ele>
        <time>2013-08-31T07:39:13Z</time>
      </trkpt>
      <trkpt lat="45.85276" lon="4.81092">
        <ele>479.3999939</ele>
        <time>2013-08-31T07:39:14Z</time>
      </trkpt>
      <trkpt lat="45.85269" lon="4.81085">
        <ele>480</ele>
        <time>2013-08-31T07:39:17Z</time>
      </trkpt>
      <trkpt lat="45.85268" lon="4.81083">
        <ele>480.2999878</ele>
        <time>2013-08-31T07:39:18Z</time>
      </trkpt>
      <trkpt lat="45.85264" lon="4.81075">
        <ele>483.3999939</ele>
        <time>2013-08-31T07:39:21Z</time>
      </trkpt>
      <trkpt lat="45.85262" lon="4.81073">
        <ele>483.7000122</ele>
        <time>2013-08-31T07:39:22Z</time>
      </trkpt>
      <trkpt lat="45.85255" lon="4.81065">
        <ele>483.6000061</ele>
        <time>2013-08-31T07:39:25Z</time>
      </trkpt>
      <trkpt lat="45.85253" lon="4.81063">
        <ele>483.2000122</ele>
        <time>2013-08-31T07:39:26Z</time>
      </trkpt>
      <trkpt lat="45.85248" lon="4.81056">
        <ele>483.5</ele>
        <time>2013-08-31T07:39:28Z</time>
      </trkpt>
      <trkpt lat="45.85246" lon="4.81054">
        <ele>483.7999878</ele>
        <time>2013-08-31T07:39:29Z</time>
      </trkpt>
      <trkpt lat="45.8524" lon="4.81046">
        <ele>483.7999878</ele>
        <time>2013-08-31T07:39:32Z</time>
      </trkpt>
      <trkpt lat="45.85237" lon="4.81043">
        <ele>483.3999939</ele>
        <time>2013-08-31T07:39:33Z</time>
      </trkpt>
      <trkpt lat="45.85232" lon="4.81037">
        <ele>482.3999939</ele>
        <time>2013-08-31T07:39:35Z</time>
      </trkpt>
      <trkpt lat="45.8523" lon="4.81035">
        <ele>482.5</ele>
        <time>2013-08-31T07:39:36Z</time>
      </trkpt>
      <trkpt lat="45.85222" lon="4.81028">
        <ele>482.2000122</ele>
        <time>2013-08-31T07:39:39Z</time>
      </trkpt>
      <trkpt lat="45.8522" lon="4.81026">
        <ele>483.2000122</ele>
        <time>2013-08-31T07:39:40Z</time>
      </trkpt>
      <trkpt lat="45.85213" lon="4.8102">
        <ele>483.2999878</ele>
        <time>2013-08-31T07:39:43Z</time>
      </trkpt>
      <trkpt lat="45.85211" lon="4.81019">
        <ele>483</ele>
        <time>2013-08-31T07:39:44Z</time>
      </trkpt>
      <trkpt lat="45.85205" lon="4.81013">
        <ele>485.6000061</ele>
        <time>2013-08-31T07:39:48Z</time>
      </trkpt>
      <trkpt lat="45.85203" lon="4.81011">
        <ele>485.6000061</ele>
        <time>2013-08-31T07:39:49Z</time>
      </trkpt>
      <trkpt lat="45.85196" lon="4.81004">
        <ele>486.7999878</ele>
        <time>2013-08-31T07:39:53Z</time>
      </trkpt>
      <trkpt lat="45.85192" lon="4.81">
        <ele>488.6000061</ele>
        <time>2013-08-31T07:39:54Z</time>
      </trkpt>
      <trkpt lat="45.85185" lon="4.80993">
        <ele>490.6000061</ele>
        <time>2013-08-31T07:39:57Z</time>
      </trkpt>
      <trkpt lat="45.85183" lon="4.80991">
        <ele>490.2000122</ele>
        <time>2013-08-31T07:39:58Z</time>
      </trkpt>
      <trkpt lat="45.85177" lon="4.80983">
        <ele>492.1000061</ele>
        <time>2013-08-31T07:40:02Z</time>
      </trkpt>
      <trkpt lat="45.85174" lon="4.80981">
        <ele>491.8999939</ele>
        <time>2013-08-31T07:40:03Z</time>
      </trkpt>
      <trkpt lat="45.85168" lon="4.80977">
        <ele>492</ele>
        <time>2013-08-31T07:40:06Z</time>
      </trkpt>
      <trkpt lat="45.85166" lon="4.80975">
        <ele>492.1000061</ele>
        <time>2013-08-31T07:40:07Z</time>
      </trkpt>
      <trkpt lat="45.85159" lon="4.80968">
        <ele>492.1000061</ele>
        <time>2013-08-31T07:40:12Z</time>
      </trkpt>
      <trkpt lat="45.85156" lon="4.80967">
        <ele>492.3999939</ele>
        <time>2013-08-31T07:40:13Z</time>
      </trkpt>
      <trkpt lat="45.8515" lon="4.8096">
        <ele>493.6000061</ele>
        <time>2013-08-31T07:40:17Z</time>
      </trkpt>
      <trkpt lat="45.85148" lon="4.80958">
        <ele>495.1000061</ele>
        <time>2013-08-31T07:40:18Z</time>
      </trkpt>
      <trkpt lat="45.85142" lon="4.80953">
        <ele>493.7000122</ele>
        <time>2013-08-31T07:40:21Z</time>
      </trkpt>
      <trkpt lat="45.8514" lon="4.80951">
        <ele>493.7999878</ele>
        <time>2013-08-31T07:40:22Z</time>
      </trkpt>
      <trkpt lat="45.85135" lon="4.80942">
        <ele>498.7000122</ele>
        <time>2013-08-31T07:40:27Z</time>
      </trkpt>
      <trkpt lat="45.85133" lon="4.8094">
        <ele>499.2999878</ele>
        <time>2013-08-31T07:40:28Z</time>
      </trkpt>
      <trkpt lat="45.85127" lon="4.80931">
        <ele>499.6000061</ele>
        <time>2013-08-31T07:40:31Z</time>
      </trkpt>
      <trkpt lat="45.85124" lon="4.80929">
        <ele>498.8999939</ele>
        <time>2013-08-31T07:40:32Z</time>
      </trkpt>
      <trkpt lat="45.8512" lon="4.80922">
        <ele>500.1000061</ele>
        <time>2013-08-31T07:40:35Z</time>
      </trkpt>
      <trkpt lat="45.85118" lon="4.80919">
        <ele>500.3999939</ele>
        <time>2013-08-31T07:40:36Z</time>
      </trkpt>
      <trkpt lat="45.85113" lon="4.80912">
        <ele>500.6000061</ele>
        <time>2013-08-31T07:40:39Z</time>
      </trkpt>
      <trkpt lat="45.85112" lon="4.80909">
        <ele>501.1000061</ele>
        <time>2013-08-31T07:40:40Z</time>
      </trkpt>
      <trkpt lat="45.85106" lon="4.80901">
        <ele>503.2999878</ele>
        <time>2013-08-31T07:40:44Z</time>
      </trkpt>
      <trkpt lat="45.85104" lon="4.80899">
        <ele>503.5</ele>
        <time>2013-08-31T07:40:45Z</time>
      </trkpt>
      <trkpt lat="45.85099" lon="4.80892">
        <ele>505.2999878</ele>
        <time>2013-08-31T07:40:48Z</time>
      </trkpt>
      <trkpt lat="45.85097" lon="4.80889">
        <ele>505.7999878</ele>
        <time>2013-08-31T07:40:49Z</time>
      </trkpt>
      <trkpt lat="45.85091" lon="4.80881">
        <ele>506.1000061</ele>
        <time>2013-08-31T07:40:53Z</time>
      </trkpt>
      <trkpt lat="45.85088" lon="4.80878">
        <ele>506.3999939</ele>
        <time>2013-08-31T07:40:54Z</time>
      </trkpt>
      <trkpt lat="45.85082" lon="4.80869">
        <ele>508.5</ele>
        <time>2013-08-31T07:40:59Z</time>
      </trkpt>
      <trkpt lat="45.8508" lon="4.80868">
        <ele>509.7000122</ele>
        <time>2013-08-31T07:41:00Z</time>
      </trkpt>
      <trkpt lat="45.85074" lon="4.80858">
        <ele>511.3999939</ele>
        <time>2013-08-31T07:41:04Z</time>
      </trkpt>
      <trkpt lat="45.85074" lon="4.80855">
        <ele>511.3999939</ele>
        <time>2013-08-31T07:41:05Z</time>
      </trkpt>
      <trkpt lat="45.8507" lon="4.80846">
        <ele>512.5999756</ele>
        <time>2013-08-31T07:41:08Z</time>
      </trkpt>
      <trkpt lat="45.85069" lon="4.80843">
        <ele>512.5999756</ele>
        <time>2013-08-31T07:41:09Z</time>
      </trkpt>
      <trkpt lat="45.85063" lon="4.80833">
        <ele>516.9000244</ele>
        <time>2013-08-31T07:41:14Z</time>
      </trkpt>
      <trkpt lat="45.85061" lon="4.80832">
        <ele>516.5999756</ele>
        <time>2013-08-31T07:41:15Z</time>
      </trkpt>
      <trkpt lat="45.85055" lon="4.80825">
        <ele>516.0999756</ele>
        <time>2013-08-31T07:41:18Z</time>
      </trkpt>
      <trkpt lat="45.85053" lon="4.80822">
        <ele>516</ele>
        <time>2013-08-31T07:41:19Z</time>
      </trkpt>
      <trkpt lat="45.85046" lon="4.80814">
        <ele>518.0999756</ele>
        <time>2013-08-31T07:41:23Z</time>
      </trkpt>
      <trkpt lat="45.85043" lon="4.80812">
        <ele>518.5</ele>
        <time>2013-08-31T07:41:24Z</time>
      </trkpt>
      <trkpt lat="45.85037" lon="4.80805">
        <ele>518.0999756</ele>
        <time>2013-08-31T07:41:27Z</time>
      </trkpt>
      <trkpt lat="45.85035" lon="4.80802">
        <ele>517.2000122</ele>
        <time>2013-08-31T07:41:28Z</time>
      </trkpt>
      <trkpt lat="45.85029" lon="4.80793">
        <ele>516.0999756</ele>
        <time>2013-08-31T07:41:32Z</time>
      </trkpt>
      <trkpt lat="45.85027" lon="4.80792">
        <ele>515.2999878</ele>
        <time>2013-08-31T07:41:33Z</time>
      </trkpt>
      <trkpt lat="45.85027" lon="4.80792">
        <ele>515.2000122</ele>
        <time>2013-08-31T07:41:34Z</time>
      </trkpt>
      <trkpt lat="45.85026" lon="4.80791">
        <ele>515.2999878</ele>
        <time>2013-08-31T07:41:35Z</time>
      </trkpt>
      <trkpt lat="45.85019" lon="4.80784">
        <ele>513.7999878</ele>
        <time>2013-08-31T07:41:39Z</time>
      </trkpt>
      <trkpt lat="45.85019" lon="4.80782">
        <ele>514.0999756</ele>
        <time>2013-08-31T07:41:40Z</time>
      </trkpt>
      <trkpt lat="45.85012" lon="4.80774">
        <ele>515.7000122</ele>
        <time>2013-08-31T07:41:47Z</time>
      </trkpt>
      <trkpt lat="45.85012" lon="4.80773">
        <ele>515.7999878</ele>
        <time>2013-08-31T07:41:48Z</time>
      </trkpt>
      <trkpt lat="45.85007" lon="4.80765">
        <ele>514.0999756</ele>
        <time>2013-08-31T07:41:50Z</time>
      </trkpt>
      <trkpt lat="45.85005" lon="4.80763">
        <ele>513.7999878</ele>
        <time>2013-08-31T07:41:51Z</time>
      </trkpt>
      <trkpt lat="45.85001" lon="4.80752">
        <ele>513.2000122</ele>
        <time>2013-08-31T07:41:55Z</time>
      </trkpt>
      <trkpt lat="45.84999" lon="4.80749">
        <ele>512.2999878</ele>
        <time>2013-08-31T07:41:56Z</time>
      </trkpt>
      <trkpt lat="45.84995" lon="4.80743">
        <ele>511.7000122</ele>
        <time>2013-08-31T07:41:58Z</time>
      </trkpt>
      <trkpt lat="45.84993" lon="4.80739">
        <ele>511.3999939</ele>
        <time>2013-08-31T07:41:59Z</time>
      </trkpt>
      <trkpt lat="45.84988" lon="4.80731">
        <ele>507.8999939</ele>
        <time>2013-08-31T07:42:04Z</time>
      </trkpt>
      <trkpt lat="45.84988" lon="4.80726">
        <ele>507.3999939</ele>
        <time>2013-08-31T07:42:05Z</time>
      </trkpt>
      <trkpt lat="45.84987" lon="4.80718">
        <ele>507.1000061</ele>
        <time>2013-08-31T07:42:08Z</time>
      </trkpt>
      <trkpt lat="45.84982" lon="4.80715">
        <ele>504.5</ele>
        <time>2013-08-31T07:42:09Z</time>
      </trkpt>
      <trkpt lat="45.8498" lon="4.80705">
        <ele>503.1000061</ele>
        <time>2013-08-31T07:42:12Z</time>
      </trkpt>
      <trkpt lat="45.8498" lon="4.80702">
        <ele>502.3999939</ele>
        <time>2013-08-31T07:42:13Z</time>
      </trkpt>
      <trkpt lat="45.8498" lon="4.80694">
        <ele>502.1000061</ele>
        <time>2013-08-31T07:42:15Z</time>
      </trkpt>
      <trkpt lat="45.8498" lon="4.80689">
        <ele>502.6000061</ele>
        <time>2013-08-31T07:42:16Z</time>
      </trkpt>
      <trkpt lat="45.8498" lon="4.8068">
        <ele>502.1000061</ele>
        <time>2013-08-31T07:42:18Z</time>
      </trkpt>
      <trkpt lat="45.84981" lon="4.80675">
        <ele>501.6000061</ele>
        <time>2013-08-31T07:42:19Z</time>
      </trkpt>
      <trkpt lat="45.84984" lon="4.80665">
        <ele>501.8999939</ele>
        <time>2013-08-31T07:42:21Z</time>
      </trkpt>
      <trkpt lat="45.84985" lon="4.8066">
        <ele>501.3999939</ele>
        <time>2013-08-31T07:42:22Z</time>
      </trkpt>
      <trkpt lat="45.84987" lon="4.80649">
        <ele>500.6000061</ele>
        <time>2013-08-31T07:42:24Z</time>
      </trkpt>
      <trkpt lat="45.84986" lon="4.80642">
        <ele>500.3999939</ele>
        <time>2013-08-31T07:42:25Z</time>
      </trkpt>
      <trkpt lat="45.84983" lon="4.8063">
        <ele>498.7000122</ele>
        <time>2013-08-31T07:42:27Z</time>
      </trkpt>
      <trkpt lat="45.84984" lon="4.80623">
        <ele>498.7000122</ele>
        <time>2013-08-31T07:42:28Z</time>
      </trkpt>
      <trkpt lat="45.84981" lon="4.80611">
        <ele>498.7000122</ele>
        <time>2013-08-31T07:42:30Z</time>
      </trkpt>
      <trkpt lat="45.8498" lon="4.80606">
        <ele>497</ele>
        <time>2013-08-31T07:42:31Z</time>
      </trkpt>
      <trkpt lat="45.84979" lon="4.80596">
        <ele>495.7999878</ele>
        <time>2013-08-31T07:42:33Z</time>
      </trkpt>
      <trkpt lat="45.84978" lon="4.80589">
        <ele>495.5</ele>
        <time>2013-08-31T07:42:34Z</time>
      </trkpt>
      <trkpt lat="45.84974" lon="4.8058">
        <ele>494.7000122</ele>
        <time>2013-08-31T07:42:36Z</time>
      </trkpt>
      <trkpt lat="45.84973" lon="4.80575">
        <ele>494.6000061</ele>
        <time>2013-08-31T07:42:37Z</time>
      </trkpt>
      <trkpt lat="45.8497" lon="4.80563">
        <ele>493.5</ele>
        <time>2013-08-31T07:42:40Z</time>
      </trkpt>
      <trkpt lat="45.8497" lon="4.80557">
        <ele>492.1000061</ele>
        <time>2013-08-31T07:42:41Z</time>
      </trkpt>
      <trkpt lat="45.84969" lon="4.80546">
        <ele>490.3999939</ele>
        <time>2013-08-31T07:42:43Z</time>
      </trkpt>
      <trkpt lat="45.84968" lon="4.80541">
        <ele>489.8999939</ele>
        <time>2013-08-31T07:42:44Z</time>
      </trkpt>
      <trkpt lat="45.84962" lon="4.80532">
        <ele>485.8999939</ele>
        <time>2013-08-31T07:42:48Z</time>
      </trkpt>
      <trkpt lat="45.84963" lon="4.80529">
        <ele>486</ele>
        <time>2013-08-31T07:42:49Z</time>
      </trkpt>
      <trkpt lat="45.84961" lon="4.80526">
        <ele>487</ele>
        <time>2013-08-31T07:42:57Z</time>
      </trkpt>
      <trkpt lat="45.84961" lon="4.80526">
        <ele>486.7999878</ele>
        <time>2013-08-31T07:42:58Z</time>
      </trkpt>
      <trkpt lat="45.84961" lon="4.80526">
        <ele>486.7000122</ele>
        <time>2013-08-31T07:42:59Z</time>
      </trkpt>
      <trkpt lat="45.8496" lon="4.80526">
        <ele>486.5</ele>
        <time>2013-08-31T07:43:00Z</time>
      </trkpt>
      <trkpt lat="45.8496" lon="4.80526">
        <ele>486.3999939</ele>
        <time>2013-08-31T07:43:01Z</time>
      </trkpt>
      <trkpt lat="45.8496" lon="4.80526">
        <ele>486.3999939</ele>
        <time>2013-08-31T07:43:02Z</time>
      </trkpt>
      <trkpt lat="45.8496" lon="4.80526">
        <ele>486.3999939</ele>
        <time>2013-08-31T07:43:04Z</time>
      </trkpt>
      <trkpt lat="45.8496" lon="4.80526">
        <ele>486.2000122</ele>
        <time>2013-08-31T07:43:05Z</time>
      </trkpt>
      <trkpt lat="45.8496" lon="4.80526">
        <ele>486</ele>
        <time>2013-08-31T07:43:06Z</time>
      </trkpt>
      <trkpt lat="45.8496" lon="4.80526">
        <ele>485.8999939</ele>
        <time>2013-08-31T07:43:25Z</time>
      </trkpt>
      <trkpt lat="45.84959" lon="4.80527">
        <ele>484.5</ele>
        <time>2013-08-31T07:43:26Z</time>
      </trkpt>
      <trkpt lat="45.84959" lon="4.80527">
        <ele>483.2999878</ele>
        <time>2013-08-31T07:43:28Z</time>
      </trkpt>
      <trkpt lat="45.84959" lon="4.80526">
        <ele>483</ele>
        <time>2013-08-31T07:43:29Z</time>
      </trkpt>
      <trkpt lat="45.84958" lon="4.80526">
        <ele>482.5</ele>
        <time>2013-08-31T07:44:20Z</time>
      </trkpt>
      <trkpt lat="45.84958" lon="4.80526">
        <ele>482.5</ele>
        <time>2013-08-31T07:44:21Z</time>
      </trkpt>
      <trkpt lat="45.84962" lon="4.80523">
        <ele>481</ele>
        <time>2013-08-31T07:44:25Z</time>
      </trkpt>
      <trkpt lat="45.84962" lon="4.80523">
        <ele>481.1000061</ele>
        <time>2013-08-31T07:44:26Z</time>
      </trkpt>
      <trkpt lat="45.84961" lon="4.80522">
        <ele>481</ele>
        <time>2013-08-31T07:44:27Z</time>
      </trkpt>
      <trkpt lat="45.84954" lon="4.80515">
        <ele>485.7999878</ele>
        <time>2013-08-31T07:44:35Z</time>
      </trkpt>
      <trkpt lat="45.84955" lon="4.80511">
        <ele>489.2000122</ele>
        <time>2013-08-31T07:44:36Z</time>
      </trkpt>
      <trkpt lat="45.84952" lon="4.805">
        <ele>491.6000061</ele>
        <time>2013-08-31T07:44:42Z</time>
      </trkpt>
      <trkpt lat="45.84951" lon="4.80498">
        <ele>491.6000061</ele>
        <time>2013-08-31T07:44:43Z</time>
      </trkpt>
      <trkpt lat="45.84948" lon="4.80488">
        <ele>494.2999878</ele>
        <time>2013-08-31T07:44:48Z</time>
      </trkpt>
      <trkpt lat="45.84946" lon="4.80486">
        <ele>493.5</ele>
        <time>2013-08-31T07:44:49Z</time>
      </trkpt>
      <trkpt lat="45.84939" lon="4.8048">
        <ele>492.2999878</ele>
        <time>2013-08-31T07:44:52Z</time>
      </trkpt>
      <trkpt lat="45.84935" lon="4.80477">
        <ele>492.7999878</ele>
        <time>2013-08-31T07:44:53Z</time>
      </trkpt>
      <trkpt lat="45.84929" lon="4.80469">
        <ele>497.1000061</ele>
        <time>2013-08-31T07:44:57Z</time>
      </trkpt>
      <trkpt lat="45.84928" lon="4.80467">
        <ele>498.1000061</ele>
        <time>2013-08-31T07:44:58Z</time>
      </trkpt>
      <trkpt lat="45.84921" lon="4.80462">
        <ele>498.3999939</ele>
        <time>2013-08-31T07:45:01Z</time>
      </trkpt>
      <trkpt lat="45.84919" lon="4.80459">
        <ele>497.5</ele>
        <time>2013-08-31T07:45:02Z</time>
      </trkpt>
      <trkpt lat="45.84914" lon="4.8045">
        <ele>500.7999878</ele>
        <time>2013-08-31T07:45:07Z</time>
      </trkpt>
      <trkpt lat="45.84912" lon="4.80448">
        <ele>502.7000122</ele>
        <time>2013-08-31T07:45:08Z</time>
      </trkpt>
      <trkpt lat="45.84909" lon="4.80438">
        <ele>505.8999939</ele>
        <time>2013-08-31T07:45:12Z</time>
      </trkpt>
      <trkpt lat="45.84906" lon="4.80435">
        <ele>505.2000122</ele>
        <time>2013-08-31T07:45:13Z</time>
      </trkpt>
      <trkpt lat="45.84902" lon="4.80426">
        <ele>506.8999939</ele>
        <time>2013-08-31T07:45:17Z</time>
      </trkpt>
      <trkpt lat="45.849" lon="4.80424">
        <ele>506.2999878</ele>
        <time>2013-08-31T07:45:18Z</time>
      </trkpt>
      <trkpt lat="45.84893" lon="4.80417">
        <ele>506</ele>
        <time>2013-08-31T07:45:22Z</time>
      </trkpt>
      <trkpt lat="45.84892" lon="4.80415">
        <ele>505.7999878</ele>
        <time>2013-08-31T07:45:23Z</time>
      </trkpt>
      <trkpt lat="45.84885" lon="4.80408">
        <ele>505.1000061</ele>
        <time>2013-08-31T07:45:28Z</time>
      </trkpt>
      <trkpt lat="45.84883" lon="4.80406">
        <ele>505</ele>
        <time>2013-08-31T07:45:29Z</time>
      </trkpt>
      <trkpt lat="45.84876" lon="4.804">
        <ele>505.7000122</ele>
        <time>2013-08-31T07:45:33Z</time>
      </trkpt>
      <trkpt lat="45.84874" lon="4.80398">
        <ele>505.7000122</ele>
        <time>2013-08-31T07:45:34Z</time>
      </trkpt>
      <trkpt lat="45.8487" lon="4.80387">
        <ele>506</ele>
        <time>2013-08-31T07:45:39Z</time>
      </trkpt>
      <trkpt lat="45.84868" lon="4.80384">
        <ele>506.2000122</ele>
        <time>2013-08-31T07:45:40Z</time>
      </trkpt>
      <trkpt lat="45.84862" lon="4.80376">
        <ele>505.5</ele>
        <time>2013-08-31T07:45:47Z</time>
      </trkpt>
      <trkpt lat="45.84859" lon="4.80372">
        <ele>505.7000122</ele>
        <time>2013-08-31T07:45:48Z</time>
      </trkpt>
      <trkpt lat="45.84854" lon="4.80365">
        <ele>504.7999878</ele>
        <time>2013-08-31T07:45:50Z</time>
      </trkpt>
      <trkpt lat="45.84851" lon="4.80363">
        <ele>504.7999878</ele>
        <time>2013-08-31T07:45:51Z</time>
      </trkpt>
      <trkpt lat="45.84845" lon="4.80356">
        <ele>503.7999878</ele>
        <time>2013-08-31T07:45:54Z</time>
      </trkpt>
      <trkpt lat="45.84844" lon="4.80354">
        <ele>503.7999878</ele>
        <time>2013-08-31T07:45:55Z</time>
      </trkpt>
      <trkpt lat="45.84841" lon="4.80351">
        <ele>503.6000061</ele>
        <time>2013-08-31T07:45:58Z</time>
      </trkpt>
      <trkpt lat="45.84836" lon="4.80348">
        <ele>502.6000061</ele>
        <time>2013-08-31T07:45:59Z</time>
      </trkpt>
      <trkpt lat="45.84831" lon="4.80342">
        <ele>501.3999939</ele>
        <time>2013-08-31T07:46:00Z</time>
      </trkpt>
      <trkpt lat="45.84827" lon="4.80336">
        <ele>501.1000061</ele>
        <time>2013-08-31T07:46:01Z</time>
      </trkpt>
      <trkpt lat="45.84821" lon="4.80331">
        <ele>499.2999878</ele>
        <time>2013-08-31T07:46:03Z</time>
      </trkpt>
      <trkpt lat="45.84819" lon="4.80327">
        <ele>498.7000122</ele>
        <time>2013-08-31T07:46:04Z</time>
      </trkpt>
      <trkpt lat="45.84815" lon="4.80316">
        <ele>497.2999878</ele>
        <time>2013-08-31T07:46:07Z</time>
      </trkpt>
      <trkpt lat="45.84811" lon="4.80312">
        <ele>496.3999939</ele>
        <time>2013-08-31T07:46:08Z</time>
      </trkpt>
      <trkpt lat="45.84806" lon="4.80303">
        <ele>500</ele>
        <time>2013-08-31T07:46:10Z</time>
      </trkpt>
      <trkpt lat="45.84805" lon="4.803">
        <ele>500.7000122</ele>
        <time>2013-08-31T07:46:11Z</time>
      </trkpt>
      <trkpt lat="45.848" lon="4.80295">
        <ele>501</ele>
        <time>2013-08-31T07:46:14Z</time>
      </trkpt>
      <trkpt lat="45.84796" lon="4.80294">
        <ele>500.7999878</ele>
        <time>2013-08-31T07:46:15Z</time>
      </trkpt>
      <trkpt lat="45.84792" lon="4.80285">
        <ele>503.6000061</ele>
        <time>2013-08-31T07:46:20Z</time>
      </trkpt>
      <trkpt lat="45.84791" lon="4.80282">
        <ele>504.6000061</ele>
        <time>2013-08-31T07:46:21Z</time>
      </trkpt>
      <trkpt lat="45.84785" lon="4.80275">
        <ele>509.2000122</ele>
        <time>2013-08-31T07:46:27Z</time>
      </trkpt>
      <trkpt lat="45.84783" lon="4.80273">
        <ele>508.7000122</ele>
        <time>2013-08-31T07:46:28Z</time>
      </trkpt>
      <trkpt lat="45.84776" lon="4.80267">
        <ele>508.5</ele>
        <time>2013-08-31T07:46:32Z</time>
      </trkpt>
      <trkpt lat="45.84774" lon="4.80267">
        <ele>507.7000122</ele>
        <time>2013-08-31T07:46:33Z</time>
      </trkpt>
      <trkpt lat="45.84769" lon="4.8026">
        <ele>510.8999939</ele>
        <time>2013-08-31T07:46:38Z</time>
      </trkpt>
      <trkpt lat="45.84768" lon="4.8026">
        <ele>510.7999878</ele>
        <time>2013-08-31T07:46:39Z</time>
      </trkpt>
      <trkpt lat="45.84768" lon="4.8026">
        <ele>511.3999939</ele>
        <time>2013-08-31T07:46:40Z</time>
      </trkpt>
      <trkpt lat="45.84763" lon="4.80254">
        <ele>508.7000122</ele>
        <time>2013-08-31T07:46:43Z</time>
      </trkpt>
      <trkpt lat="45.84761" lon="4.80252">
        <ele>509.6000061</ele>
        <time>2013-08-31T07:46:44Z</time>
      </trkpt>
      <trkpt lat="45.84755" lon="4.80245">
        <ele>510.2999878</ele>
        <time>2013-08-31T07:46:48Z</time>
      </trkpt>
      <trkpt lat="45.84753" lon="4.80244">
        <ele>509.7999878</ele>
        <time>2013-08-31T07:46:49Z</time>
      </trkpt>
      <trkpt lat="45.84747" lon="4.80237">
        <ele>511.7000122</ele>
        <time>2013-08-31T07:46:53Z</time>
      </trkpt>
      <trkpt lat="45.84746" lon="4.80235">
        <ele>511</ele>
        <time>2013-08-31T07:46:54Z</time>
      </trkpt>
      <trkpt lat="45.84739" lon="4.8023">
        <ele>510.1000061</ele>
        <time>2013-08-31T07:46:59Z</time>
      </trkpt>
      <trkpt lat="45.84738" lon="4.80228">
        <ele>510.1000061</ele>
        <time>2013-08-31T07:47:00Z</time>
      </trkpt>
      <trkpt lat="45.84732" lon="4.80221">
        <ele>509.6000061</ele>
        <time>2013-08-31T07:47:05Z</time>
      </trkpt>
      <trkpt lat="45.8473" lon="4.80219">
        <ele>509.3999939</ele>
        <time>2013-08-31T07:47:06Z</time>
      </trkpt>
      <trkpt lat="45.84724" lon="4.80213">
        <ele>512.4000244</ele>
        <time>2013-08-31T07:47:17Z</time>
      </trkpt>
      <trkpt lat="45.84721" lon="4.8021">
        <ele>514.5</ele>
        <time>2013-08-31T07:47:18Z</time>
      </trkpt>
      <trkpt lat="45.84715" lon="4.80204">
        <ele>514.7000122</ele>
        <time>2013-08-31T07:47:20Z</time>
      </trkpt>
      <trkpt lat="45.84712" lon="4.802">
        <ele>514.7999878</ele>
        <time>2013-08-31T07:47:21Z</time>
      </trkpt>
      <trkpt lat="45.84709" lon="4.80189">
        <ele>518.7000122</ele>
        <time>2013-08-31T07:47:24Z</time>
      </trkpt>
      <trkpt lat="45.84708" lon="4.80187">
        <ele>519.0999756</ele>
        <time>2013-08-31T07:47:25Z</time>
      </trkpt>
      <trkpt lat="45.84704" lon="4.80179">
        <ele>520.5999756</ele>
        <time>2013-08-31T07:47:28Z</time>
      </trkpt>
      <trkpt lat="45.84703" lon="4.80177">
        <ele>520.5</ele>
        <time>2013-08-31T07:47:29Z</time>
      </trkpt>
      <trkpt lat="45.84696" lon="4.8017">
        <ele>520.2000122</ele>
        <time>2013-08-31T07:47:43Z</time>
      </trkpt>
      <trkpt lat="45.84696" lon="4.8017">
        <ele>520.2000122</ele>
        <time>2013-08-31T07:47:44Z</time>
      </trkpt>
      <trkpt lat="45.84696" lon="4.8017">
        <ele>520.2000122</ele>
        <time>2013-08-31T07:47:53Z</time>
      </trkpt>
      <trkpt lat="45.84696" lon="4.8017">
        <ele>520.2999878</ele>
        <time>2013-08-31T07:47:54Z</time>
      </trkpt>
      <trkpt lat="45.84688" lon="4.80161">
        <ele>519.7000122</ele>
        <time>2013-08-31T07:47:55Z</time>
      </trkpt>
      <trkpt lat="45.84681" lon="4.80153">
        <ele>519.0999756</ele>
        <time>2013-08-31T07:47:57Z</time>
      </trkpt>
      <trkpt lat="45.84677" lon="4.8015">
        <ele>518.2999878</ele>
        <time>2013-08-31T07:47:58Z</time>
      </trkpt>
      <trkpt lat="45.8467" lon="4.80143">
        <ele>517.5999756</ele>
        <time>2013-08-31T07:48:02Z</time>
      </trkpt>
      <trkpt lat="45.84667" lon="4.80139">
        <ele>517.7000122</ele>
        <time>2013-08-31T07:48:03Z</time>
      </trkpt>
      <trkpt lat="45.8466" lon="4.80132">
        <ele>518.0999756</ele>
        <time>2013-08-31T07:48:05Z</time>
      </trkpt>
      <trkpt lat="45.84658" lon="4.80129">
        <ele>518.2999878</ele>
        <time>2013-08-31T07:48:06Z</time>
      </trkpt>
      <trkpt lat="45.84653" lon="4.80119">
        <ele>518.5999756</ele>
        <time>2013-08-31T07:48:09Z</time>
      </trkpt>
      <trkpt lat="45.84651" lon="4.80114">
        <ele>518.2999878</ele>
        <time>2013-08-31T07:48:10Z</time>
      </trkpt>
      <trkpt lat="45.84648" lon="4.80109">
        <ele>517.7000122</ele>
        <time>2013-08-31T07:48:11Z</time>
      </trkpt>
      <trkpt lat="45.84646" lon="4.80104">
        <ele>517</ele>
        <time>2013-08-31T07:48:12Z</time>
      </trkpt>
      <trkpt lat="45.84641" lon="4.80099">
        <ele>516.2000122</ele>
        <time>2013-08-31T07:48:13Z</time>
      </trkpt>
      <trkpt lat="45.84635" lon="4.80092">
        <ele>515.4000244</ele>
        <time>2013-08-31T07:48:14Z</time>
      </trkpt>
      <trkpt lat="45.84631" lon="4.80088">
        <ele>514.5</ele>
        <time>2013-08-31T07:48:15Z</time>
      </trkpt>
      <trkpt lat="45.84625" lon="4.80082">
        <ele>513.5</ele>
        <time>2013-08-31T07:48:16Z</time>
      </trkpt>
      <trkpt lat="45.84619" lon="4.80074">
        <ele>514.5</ele>
        <time>2013-08-31T07:48:19Z</time>
      </trkpt>
      <trkpt lat="45.84617" lon="4.80072">
        <ele>514.4000244</ele>
        <time>2013-08-31T07:48:20Z</time>
      </trkpt>
      <trkpt lat="45.84617" lon="4.8007">
        <ele>518.5</ele>
        <time>2013-08-31T07:48:28Z</time>
      </trkpt>
      <trkpt lat="45.84617" lon="4.8007">
        <ele>518.5999756</ele>
        <time>2013-08-31T07:48:29Z</time>
      </trkpt>
      <trkpt lat="45.84615" lon="4.80071">
        <ele>517.7999878</ele>
        <time>2013-08-31T07:48:30Z</time>
      </trkpt>
      <trkpt lat="45.84613" lon="4.80065">
        <ele>518.2000122</ele>
        <time>2013-08-31T07:48:37Z</time>
      </trkpt>
      <trkpt lat="45.84613" lon="4.80065">
        <ele>518.2000122</ele>
        <time>2013-08-31T07:48:38Z</time>
      </trkpt>
      <trkpt lat="45.84612" lon="4.80065">
        <ele>518.2999878</ele>
        <time>2013-08-31T07:48:39Z</time>
      </trkpt>
      <trkpt lat="45.84613" lon="4.80064">
        <ele>518.2999878</ele>
        <time>2013-08-31T07:48:41Z</time>
      </trkpt>
      <trkpt lat="45.84613" lon="4.80064">
        <ele>518.4000244</ele>
        <time>2013-08-31T07:48:42Z</time>
      </trkpt>
      <trkpt lat="45.84612" lon="4.80064">
        <ele>518.4000244</ele>
        <time>2013-08-31T07:48:48Z</time>
      </trkpt>
      <trkpt lat="45.84612" lon="4.80064">
        <ele>518.4000244</ele>
        <time>2013-08-31T07:48:49Z</time>
      </trkpt>
      <trkpt lat="45.84604" lon="4.80059">
        <ele>517.0999756</ele>
        <time>2013-08-31T07:48:51Z</time>
      </trkpt>
      <trkpt lat="45.84602" lon="4.80059">
        <ele>517.5999756</ele>
        <time>2013-08-31T07:48:52Z</time>
      </trkpt>
      <trkpt lat="45.84596" lon="4.80058">
        <ele>517.5999756</ele>
        <time>2013-08-31T07:48:54Z</time>
      </trkpt>
      <trkpt lat="45.84591" lon="4.80058">
        <ele>517.2000122</ele>
        <time>2013-08-31T07:48:55Z</time>
      </trkpt>
      <trkpt lat="45.8459" lon="4.80058">
        <ele>516.7000122</ele>
        <time>2013-08-31T07:48:58Z</time>
      </trkpt>
      <trkpt lat="45.8459" lon="4.80057">
        <ele>516.5999756</ele>
        <time>2013-08-31T07:48:59Z</time>
      </trkpt>
      <trkpt lat="45.8459" lon="4.80057">
        <ele>516.9000244</ele>
        <time>2013-08-31T07:49:00Z</time>
      </trkpt>
      <trkpt lat="45.8459" lon="4.80057">
        <ele>516.7999878</ele>
        <time>2013-08-31T07:49:01Z</time>
      </trkpt>
      <trkpt lat="45.8459" lon="4.80057">
        <ele>516.7999878</ele>
        <time>2013-08-31T07:49:02Z</time>
      </trkpt>
      <trkpt lat="45.84589" lon="4.80057">
        <ele>516.7000122</ele>
        <time>2013-08-31T07:49:03Z</time>
      </trkpt>
      <trkpt lat="45.84589" lon="4.80057">
        <ele>516.7999878</ele>
        <time>2013-08-31T07:49:04Z</time>
      </trkpt>
      <trkpt lat="45.84589" lon="4.80057">
        <ele>516.7999878</ele>
        <time>2013-08-31T07:49:05Z</time>
      </trkpt>
      <trkpt lat="45.8459" lon="4.80057">
        <ele>516.9000244</ele>
        <time>2013-08-31T07:49:16Z</time>
      </trkpt>
      <trkpt lat="45.8459" lon="4.80057">
        <ele>517.2000122</ele>
        <time>2013-08-31T07:49:17Z</time>
      </trkpt>
      <trkpt lat="45.8459" lon="4.80057">
        <ele>517.2000122</ele>
        <time>2013-08-31T07:49:18Z</time>
      </trkpt>
      <trkpt lat="45.84589" lon="4.80057">
        <ele>517.5</ele>
        <time>2013-08-31T07:49:19Z</time>
      </trkpt>
      <trkpt lat="45.84582" lon="4.80052">
        <ele>519.4000244</ele>
        <time>2013-08-31T07:49:32Z</time>
      </trkpt>
      <trkpt lat="45.84577" lon="4.80051">
        <ele>519.5</ele>
        <time>2013-08-31T07:49:33Z</time>
      </trkpt>
      <trkpt lat="45.8457" lon="4.80049">
        <ele>520.0999756</ele>
        <time>2013-08-31T07:49:36Z</time>
      </trkpt>
      <trkpt lat="45.84568" lon="4.80051">
        <ele>519.9000244</ele>
        <time>2013-08-31T07:49:37Z</time>
      </trkpt>
      <trkpt lat="45.84567" lon="4.80051">
        <ele>520.4000244</ele>
        <time>2013-08-31T07:49:40Z</time>
      </trkpt>
      <trkpt lat="45.84567" lon="4.8005">
        <ele>520.5999756</ele>
        <time>2013-08-31T07:49:41Z</time>
      </trkpt>
      <trkpt lat="45.84567" lon="4.8005">
        <ele>521.2000122</ele>
        <time>2013-08-31T07:49:42Z</time>
      </trkpt>
      <trkpt lat="45.84567" lon="4.8005">
        <ele>521.2999878</ele>
        <time>2013-08-31T07:49:43Z</time>
      </trkpt>
      <trkpt lat="45.84564" lon="4.80047">
        <ele>523.2000122</ele>
        <time>2013-08-31T07:49:49Z</time>
      </trkpt>
      <trkpt lat="45.84564" lon="4.80047">
        <ele>523.0999756</ele>
        <time>2013-08-31T07:49:50Z</time>
      </trkpt>
      <trkpt lat="45.84564" lon="4.80046">
        <ele>523.2000122</ele>
        <time>2013-08-31T07:49:55Z</time>
      </trkpt>
      <trkpt lat="45.84563" lon="4.80046">
        <ele>523.2000122</ele>
        <time>2013-08-31T07:49:56Z</time>
      </trkpt>
      <trkpt lat="45.84556" lon="4.80039">
        <ele>522</ele>
        <time>2013-08-31T07:49:57Z</time>
      </trkpt>
      <trkpt lat="45.84553" lon="4.80038">
        <ele>522.5</ele>
        <time>2013-08-31T07:49:58Z</time>
      </trkpt>
      <trkpt lat="45.8455" lon="4.80036">
        <ele>522.4000244</ele>
        <time>2013-08-31T07:50:03Z</time>
      </trkpt>
      <trkpt lat="45.84549" lon="4.80037">
        <ele>522.4000244</ele>
        <time>2013-08-31T07:50:04Z</time>
      </trkpt>
      <trkpt lat="45.84549" lon="4.80036">
        <ele>523</ele>
        <time>2013-08-31T07:50:05Z</time>
      </trkpt>
      <trkpt lat="45.84542" lon="4.80029">
        <ele>522.7999878</ele>
        <time>2013-08-31T07:50:08Z</time>
      </trkpt>
      <trkpt lat="45.84539" lon="4.80024">
        <ele>522.7999878</ele>
        <time>2013-08-31T07:50:09Z</time>
      </trkpt>
      <trkpt lat="45.84535" lon="4.80017">
        <ele>523.2000122</ele>
        <time>2013-08-31T07:50:10Z</time>
      </trkpt>
      <trkpt lat="45.84532" lon="4.80014">
        <ele>523.5999756</ele>
        <time>2013-08-31T07:50:11Z</time>
      </trkpt>
      <trkpt lat="45.84528" lon="4.80008">
        <ele>524.5999756</ele>
        <time>2013-08-31T07:50:13Z</time>
      </trkpt>
      <trkpt lat="45.84525" lon="4.80005">
        <ele>524.9000244</ele>
        <time>2013-08-31T07:50:14Z</time>
      </trkpt>
      <trkpt lat="45.84518" lon="4.80004">
        <ele>527.5999756</ele>
        <time>2013-08-31T07:50:18Z</time>
      </trkpt>
      <trkpt lat="45.84515" lon="4.80003">
        <ele>527.7000122</ele>
        <time>2013-08-31T07:50:19Z</time>
      </trkpt>
      <trkpt lat="45.8451" lon="4.79998">
        <ele>527.5999756</ele>
        <time>2013-08-31T07:50:22Z</time>
      </trkpt>
      <trkpt lat="45.84506" lon="4.79998">
        <ele>528.4000244</ele>
        <time>2013-08-31T07:50:23Z</time>
      </trkpt>
      <trkpt lat="45.84498" lon="4.79993">
        <ele>531.0999756</ele>
        <time>2013-08-31T07:50:28Z</time>
      </trkpt>
      <trkpt lat="45.84499" lon="4.7999">
        <ele>531.7999878</ele>
        <time>2013-08-31T07:50:29Z</time>
      </trkpt>
      <trkpt lat="45.84496" lon="4.79979">
        <ele>535.2999878</ele>
        <time>2013-08-31T07:50:33Z</time>
      </trkpt>
      <trkpt lat="45.84493" lon="4.79979">
        <ele>535.0999756</ele>
        <time>2013-08-31T07:50:34Z</time>
      </trkpt>
      <trkpt lat="45.8449" lon="4.79968">
        <ele>539.5</ele>
        <time>2013-08-31T07:50:42Z</time>
      </trkpt>
      <trkpt lat="45.84492" lon="4.79965">
        <ele>542.7000122</ele>
        <time>2013-08-31T07:50:43Z</time>
      </trkpt>
      <trkpt lat="45.84488" lon="4.79955">
        <ele>542.7999878</ele>
        <time>2013-08-31T07:50:46Z</time>
      </trkpt>
      <trkpt lat="45.84486" lon="4.79953">
        <ele>542.2000122</ele>
        <time>2013-08-31T07:50:47Z</time>
      </trkpt>
      <trkpt lat="45.84482" lon="4.79943">
        <ele>545.5999756</ele>
        <time>2013-08-31T07:50:58Z</time>
      </trkpt>
      <trkpt lat="45.8448" lon="4.7994">
        <ele>545.7999878</ele>
        <time>2013-08-31T07:50:59Z</time>
      </trkpt>
      <trkpt lat="45.84472" lon="4.79935">
        <ele>546.7000122</ele>
        <time>2013-08-31T07:51:06Z</time>
      </trkpt>
      <trkpt lat="45.84471" lon="4.79933">
        <ele>546.2000122</ele>
        <time>2013-08-31T07:51:07Z</time>
      </trkpt>
      <trkpt lat="45.84466" lon="4.79925">
        <ele>548.2999878</ele>
        <time>2013-08-31T07:51:13Z</time>
      </trkpt>
      <trkpt lat="45.84466" lon="4.79921">
        <ele>549.0999756</ele>
        <time>2013-08-31T07:51:14Z</time>
      </trkpt>
      <trkpt lat="45.8446" lon="4.79914">
        <ele>549.9000244</ele>
        <time>2013-08-31T07:51:17Z</time>
      </trkpt>
      <trkpt lat="45.84458" lon="4.79913">
        <ele>550.5999756</ele>
        <time>2013-08-31T07:51:18Z</time>
      </trkpt>
      <trkpt lat="45.84453" lon="4.79903">
        <ele>550.7000122</ele>
        <time>2013-08-31T07:51:22Z</time>
      </trkpt>
      <trkpt lat="45.8445" lon="4.79897">
        <ele>549.5</ele>
        <time>2013-08-31T07:51:23Z</time>
      </trkpt>
      <trkpt lat="45.84443" lon="4.79889">
        <ele>548.2999878</ele>
        <time>2013-08-31T07:51:27Z</time>
      </trkpt>
      <trkpt lat="45.8444" lon="4.79888">
        <ele>548.4000244</ele>
        <time>2013-08-31T07:51:28Z</time>
      </trkpt>
      <trkpt lat="45.84434" lon="4.79884">
        <ele>547.9000244</ele>
        <time>2013-08-31T07:51:37Z</time>
      </trkpt>
      <trkpt lat="45.84432" lon="4.79877">
        <ele>547.2000122</ele>
        <time>2013-08-31T07:51:38Z</time>
      </trkpt>
      <trkpt lat="45.84428" lon="4.79869">
        <ele>545.7000122</ele>
        <time>2013-08-31T07:51:41Z</time>
      </trkpt>
      <trkpt lat="45.84427" lon="4.79863">
        <ele>545.2999878</ele>
        <time>2013-08-31T07:51:42Z</time>
      </trkpt>
      <trkpt lat="45.84423" lon="4.79853">
        <ele>544.4000244</ele>
        <time>2013-08-31T07:51:44Z</time>
      </trkpt>
      <trkpt lat="45.84423" lon="4.79847">
        <ele>544.7000122</ele>
        <time>2013-08-31T07:51:45Z</time>
      </trkpt>
      <trkpt lat="45.84421" lon="4.79835">
        <ele>544.5999756</ele>
        <time>2013-08-31T07:51:47Z</time>
      </trkpt>
      <trkpt lat="45.84419" lon="4.79829">
        <ele>544</ele>
        <time>2013-08-31T07:51:48Z</time>
      </trkpt>
      <trkpt lat="45.84416" lon="4.79817">
        <ele>542.9000244</ele>
        <time>2013-08-31T07:51:51Z</time>
      </trkpt>
      <trkpt lat="45.84415" lon="4.79815">
        <ele>543.4000244</ele>
        <time>2013-08-31T07:51:52Z</time>
      </trkpt>
      <trkpt lat="45.84413" lon="4.79804">
        <ele>541.5</ele>
        <time>2013-08-31T07:51:56Z</time>
      </trkpt>
      <trkpt lat="45.84412" lon="4.79799">
        <ele>542</ele>
        <time>2013-08-31T07:51:57Z</time>
      </trkpt>
      <trkpt lat="45.84409" lon="4.79791">
        <ele>541.2999878</ele>
        <time>2013-08-31T07:51:58Z</time>
      </trkpt>
      <trkpt lat="45.84406" lon="4.79786">
        <ele>540.7999878</ele>
        <time>2013-08-31T07:51:59Z</time>
      </trkpt>
      <trkpt lat="45.84404" lon="4.7978">
        <ele>540.7999878</ele>
        <time>2013-08-31T07:52:00Z</time>
      </trkpt>
      <trkpt lat="45.84401" lon="4.79773">
        <ele>540.2000122</ele>
        <time>2013-08-31T07:52:01Z</time>
      </trkpt>
      <trkpt lat="45.844" lon="4.79761">
        <ele>537.2999878</ele>
        <time>2013-08-31T07:52:07Z</time>
      </trkpt>
      <trkpt lat="45.84396" lon="4.79762">
        <ele>537.2999878</ele>
        <time>2013-08-31T07:52:08Z</time>
      </trkpt>
      <trkpt lat="45.84396" lon="4.79763">
        <ele>536.9000244</ele>
        <time>2013-08-31T07:52:13Z</time>
      </trkpt>
      <trkpt lat="45.84396" lon="4.79763">
        <ele>536.7000122</ele>
        <time>2013-08-31T07:52:14Z</time>
      </trkpt>
      <trkpt lat="45.84397" lon="4.79762">
        <ele>536.9000244</ele>
        <time>2013-08-31T07:52:42Z</time>
      </trkpt>
      <trkpt lat="45.84396" lon="4.79757">
        <ele>537.7000122</ele>
        <time>2013-08-31T07:52:43Z</time>
      </trkpt>
      <trkpt lat="45.84401" lon="4.79747">
        <ele>537</ele>
        <time>2013-08-31T07:52:46Z</time>
      </trkpt>
      <trkpt lat="45.84402" lon="4.79742">
        <ele>536.5999756</ele>
        <time>2013-08-31T07:52:47Z</time>
      </trkpt>
      <trkpt lat="45.84404" lon="4.79736">
        <ele>536</ele>
        <time>2013-08-31T07:52:48Z</time>
      </trkpt>
      <trkpt lat="45.84409" lon="4.79727">
        <ele>533.2999878</ele>
        <time>2013-08-31T07:52:49Z</time>
      </trkpt>
      <trkpt lat="45.84411" lon="4.79722">
        <ele>530.0999756</ele>
        <time>2013-08-31T07:52:50Z</time>
      </trkpt>
      <trkpt lat="45.84411" lon="4.79714">
        <ele>530.4000244</ele>
        <time>2013-08-31T07:52:51Z</time>
      </trkpt>
      <trkpt lat="45.84411" lon="4.79706">
        <ele>530.9000244</ele>
        <time>2013-08-31T07:52:52Z</time>
      </trkpt>
      <trkpt lat="45.84411" lon="4.79696">
        <ele>531.4000244</ele>
        <time>2013-08-31T07:52:53Z</time>
      </trkpt>
      <trkpt lat="45.84411" lon="4.79688">
        <ele>531.5</ele>
        <time>2013-08-31T07:52:54Z</time>
      </trkpt>
      <trkpt lat="45.84411" lon="4.79678">
        <ele>531.5</ele>
        <time>2013-08-31T07:52:55Z</time>
      </trkpt>
      <trkpt lat="45.84412" lon="4.7967">
        <ele>531.2999878</ele>
        <time>2013-08-31T07:52:56Z</time>
      </trkpt>
      <trkpt lat="45.84411" lon="4.79663">
        <ele>527.7000122</ele>
        <time>2013-08-31T07:52:57Z</time>
      </trkpt>
      <trkpt lat="45.84413" lon="4.79654">
        <ele>527</ele>
        <time>2013-08-31T07:52:58Z</time>
      </trkpt>
      <trkpt lat="45.84414" lon="4.79645">
        <ele>526.5999756</ele>
        <time>2013-08-31T07:52:59Z</time>
      </trkpt>
      <trkpt lat="45.84416" lon="4.79637">
        <ele>526</ele>
        <time>2013-08-31T07:53:00Z</time>
      </trkpt>
      <trkpt lat="45.84416" lon="4.79627">
        <ele>525.5999756</ele>
        <time>2013-08-31T07:53:01Z</time>
      </trkpt>
      <trkpt lat="45.84416" lon="4.79618">
        <ele>525.9000244</ele>
        <time>2013-08-31T07:53:02Z</time>
      </trkpt>
      <trkpt lat="45.84417" lon="4.7961">
        <ele>525.7999878</ele>
        <time>2013-08-31T07:53:03Z</time>
      </trkpt>
      <trkpt lat="45.84418" lon="4.79601">
        <ele>525.4000244</ele>
        <time>2013-08-31T07:53:05Z</time>
      </trkpt>
      <trkpt lat="45.84418" lon="4.79597">
        <ele>525.4000244</ele>
        <time>2013-08-31T07:53:06Z</time>
      </trkpt>
      <trkpt lat="45.84419" lon="4.79584">
        <ele>525.2000122</ele>
        <time>2013-08-31T07:53:09Z</time>
      </trkpt>
      <trkpt lat="45.84419" lon="4.79579">
        <ele>524.7000122</ele>
        <time>2013-08-31T07:53:10Z</time>
      </trkpt>
      <trkpt lat="45.84423" lon="4.7957">
        <ele>523.0999756</ele>
        <time>2013-08-31T07:53:13Z</time>
      </trkpt>
      <trkpt lat="45.84423" lon="4.79567">
        <ele>522.9000244</ele>
        <time>2013-08-31T07:53:14Z</time>
      </trkpt>
      <trkpt lat="45.84422" lon="4.79558">
        <ele>522.9000244</ele>
        <time>2013-08-31T07:53:16Z</time>
      </trkpt>
      <trkpt lat="45.84424" lon="4.79553">
        <ele>522.5999756</ele>
        <time>2013-08-31T07:53:17Z</time>
      </trkpt>
      <trkpt lat="45.84428" lon="4.79541">
        <ele>522.0999756</ele>
        <time>2013-08-31T07:53:19Z</time>
      </trkpt>
      <trkpt lat="45.84427" lon="4.79536">
        <ele>520.7000122</ele>
        <time>2013-08-31T07:53:20Z</time>
      </trkpt>
      <trkpt lat="45.84429" lon="4.79527">
        <ele>518.2999878</ele>
        <time>2013-08-31T07:53:21Z</time>
      </trkpt>
      <trkpt lat="45.84432" lon="4.7952">
        <ele>519.2000122</ele>
        <time>2013-08-31T07:53:22Z</time>
      </trkpt>
      <trkpt lat="45.84433" lon="4.79512">
        <ele>518.5</ele>
        <time>2013-08-31T07:53:24Z</time>
      </trkpt>
      <trkpt lat="45.84435" lon="4.79507">
        <ele>518.5999756</ele>
        <time>2013-08-31T07:53:25Z</time>
      </trkpt>
      <trkpt lat="45.84436" lon="4.79495">
        <ele>514.7000122</ele>
        <time>2013-08-31T07:53:29Z</time>
      </trkpt>
      <trkpt lat="45.84436" lon="4.79492">
        <ele>514.4000244</ele>
        <time>2013-08-31T07:53:30Z</time>
      </trkpt>
      <trkpt lat="45.84439" lon="4.79482">
        <ele>513.7000122</ele>
        <time>2013-08-31T07:53:32Z</time>
      </trkpt>
      <trkpt lat="45.84441" lon="4.79476">
        <ele>513.9000244</ele>
        <time>2013-08-31T07:53:33Z</time>
      </trkpt>
      <trkpt lat="45.84444" lon="4.79467">
        <ele>513.7000122</ele>
        <time>2013-08-31T07:53:35Z</time>
      </trkpt>
      <trkpt lat="45.84445" lon="4.79463">
        <ele>513.2999878</ele>
        <time>2013-08-31T07:53:36Z</time>
      </trkpt>
      <trkpt lat="45.84448" lon="4.79455">
        <ele>513.7000122</ele>
        <time>2013-08-31T07:53:38Z</time>
      </trkpt>
      <trkpt lat="45.8445" lon="4.79451">
        <ele>513.0999756</ele>
        <time>2013-08-31T07:53:39Z</time>
      </trkpt>
      <trkpt lat="45.84453" lon="4.79443">
        <ele>513.7999878</ele>
        <time>2013-08-31T07:53:41Z</time>
      </trkpt>
      <trkpt lat="45.84454" lon="4.79439">
        <ele>514.0999756</ele>
        <time>2013-08-31T07:53:42Z</time>
      </trkpt>
      <trkpt lat="45.84456" lon="4.79429">
        <ele>513.7000122</ele>
        <time>2013-08-31T07:53:44Z</time>
      </trkpt>
      <trkpt lat="45.84457" lon="4.79425">
        <ele>513.9000244</ele>
        <time>2013-08-31T07:53:45Z</time>
      </trkpt>
      <trkpt lat="45.84459" lon="4.79416">
        <ele>513</ele>
        <time>2013-08-31T07:53:47Z</time>
      </trkpt>
      <trkpt lat="45.8446" lon="4.79412">
        <ele>512.9000244</ele>
        <time>2013-08-31T07:53:48Z</time>
      </trkpt>
      <trkpt lat="45.84462" lon="4.79402">
        <ele>511.6000061</ele>
        <time>2013-08-31T07:53:52Z</time>
      </trkpt>
      <trkpt lat="45.84463" lon="4.794">
        <ele>511.7000122</ele>
        <time>2013-08-31T07:53:53Z</time>
      </trkpt>
      <trkpt lat="45.84458" lon="4.7939">
        <ele>516.7000122</ele>
        <time>2013-08-31T07:53:59Z</time>
      </trkpt>
      <trkpt lat="45.84457" lon="4.79388">
        <ele>517.7999878</ele>
        <time>2013-08-31T07:54:00Z</time>
      </trkpt>
      <trkpt lat="45.84451" lon="4.7938">
        <ele>519.7000122</ele>
        <time>2013-08-31T07:54:05Z</time>
      </trkpt>
      <trkpt lat="45.84449" lon="4.79378">
        <ele>519.5999756</ele>
        <time>2013-08-31T07:54:06Z</time>
      </trkpt>
      <trkpt lat="45.84442" lon="4.79373">
        <ele>519.9000244</ele>
        <time>2013-08-31T07:54:09Z</time>
      </trkpt>
      <trkpt lat="45.8444" lon="4.79371">
        <ele>520.0999756</ele>
        <time>2013-08-31T07:54:10Z</time>
      </trkpt>
      <trkpt lat="45.84433" lon="4.79364">
        <ele>521.9000244</ele>
        <time>2013-08-31T07:54:14Z</time>
      </trkpt>
      <trkpt lat="45.8443" lon="4.79362">
        <ele>522.2000122</ele>
        <time>2013-08-31T07:54:15Z</time>
      </trkpt>
      <trkpt lat="45.84425" lon="4.79357">
        <ele>523.0999756</ele>
        <time>2013-08-31T07:54:18Z</time>
      </trkpt>
      <trkpt lat="45.84423" lon="4.79355">
        <ele>523.2000122</ele>
        <time>2013-08-31T07:54:19Z</time>
      </trkpt>
      <trkpt lat="45.84415" lon="4.79349">
        <ele>524.5</ele>
        <time>2013-08-31T07:54:23Z</time>
      </trkpt>
      <trkpt lat="45.84413" lon="4.79347">
        <ele>524.7000122</ele>
        <time>2013-08-31T07:54:24Z</time>
      </trkpt>
      <trkpt lat="45.84405" lon="4.79341">
        <ele>526.5999756</ele>
        <time>2013-08-31T07:54:28Z</time>
      </trkpt>
      <trkpt lat="45.84403" lon="4.79339">
        <ele>527.2999878</ele>
        <time>2013-08-31T07:54:29Z</time>
      </trkpt>
      <trkpt lat="45.84396" lon="4.79334">
        <ele>528</ele>
        <time>2013-08-31T07:54:32Z</time>
      </trkpt>
      <trkpt lat="45.84394" lon="4.79332">
        <ele>528</ele>
        <time>2013-08-31T07:54:33Z</time>
      </trkpt>
      <trkpt lat="45.84387" lon="4.79326">
        <ele>528</ele>
        <time>2013-08-31T07:54:36Z</time>
      </trkpt>
      <trkpt lat="45.84385" lon="4.79324">
        <ele>528.0999756</ele>
        <time>2013-08-31T07:54:37Z</time>
      </trkpt>
      <trkpt lat="45.84377" lon="4.79322">
        <ele>529.5</ele>
        <time>2013-08-31T07:54:40Z</time>
      </trkpt>
      <trkpt lat="45.84375" lon="4.79321">
        <ele>529.5999756</ele>
        <time>2013-08-31T07:54:41Z</time>
      </trkpt>
      <trkpt lat="45.84366" lon="4.79319">
        <ele>530.2999878</ele>
        <time>2013-08-31T07:54:44Z</time>
      </trkpt>
      <trkpt lat="45.84363" lon="4.79318">
        <ele>530.2999878</ele>
        <time>2013-08-31T07:54:45Z</time>
      </trkpt>
      <trkpt lat="45.84354" lon="4.79319">
        <ele>531.2999878</ele>
        <time>2013-08-31T07:54:48Z</time>
      </trkpt>
      <trkpt lat="45.84351" lon="4.79319">
        <ele>531.5999756</ele>
        <time>2013-08-31T07:54:49Z</time>
      </trkpt>
      <trkpt lat="45.84343" lon="4.79321">
        <ele>532.2000122</ele>
        <time>2013-08-31T07:54:52Z</time>
      </trkpt>
      <trkpt lat="45.8434" lon="4.79321">
        <ele>532.2000122</ele>
        <time>2013-08-31T07:54:53Z</time>
      </trkpt>
      <trkpt lat="45.84332" lon="4.79323">
        <ele>532.9000244</ele>
        <time>2013-08-31T07:54:56Z</time>
      </trkpt>
      <trkpt lat="45.8433" lon="4.79324">
        <ele>533.2999878</ele>
        <time>2013-08-31T07:54:57Z</time>
      </trkpt>
      <trkpt lat="45.84322" lon="4.79326">
        <ele>533.2999878</ele>
        <time>2013-08-31T07:55:00Z</time>
      </trkpt>
      <trkpt lat="45.84321" lon="4.79327">
        <ele>533.7999878</ele>
        <time>2013-08-31T07:55:01Z</time>
      </trkpt>
      <trkpt lat="45.84313" lon="4.79331">
        <ele>535</ele>
        <time>2013-08-31T07:55:06Z</time>
      </trkpt>
      <trkpt lat="45.84312" lon="4.79333">
        <ele>535.2000122</ele>
        <time>2013-08-31T07:55:07Z</time>
      </trkpt>
      <trkpt lat="45.84306" lon="4.79338">
        <ele>536</ele>
        <time>2013-08-31T07:55:12Z</time>
      </trkpt>
      <trkpt lat="45.84303" lon="4.79337">
        <ele>537</ele>
        <time>2013-08-31T07:55:13Z</time>
      </trkpt>
      <trkpt lat="45.84295" lon="4.79337">
        <ele>538.2000122</ele>
        <time>2013-08-31T07:55:14Z</time>
      </trkpt>
      <trkpt lat="45.84291" lon="4.79338">
        <ele>538.9000244</ele>
        <time>2013-08-31T07:55:15Z</time>
      </trkpt>
      <trkpt lat="45.84287" lon="4.79339">
        <ele>539.4000244</ele>
        <time>2013-08-31T07:55:16Z</time>
      </trkpt>
      <trkpt lat="45.84281" lon="4.7934">
        <ele>538</ele>
        <time>2013-08-31T07:55:17Z</time>
      </trkpt>
      <trkpt lat="45.84277" lon="4.79341">
        <ele>538</ele>
        <time>2013-08-31T07:55:18Z</time>
      </trkpt>
      <trkpt lat="45.84272" lon="4.79342">
        <ele>537.7999878</ele>
        <time>2013-08-31T07:55:19Z</time>
      </trkpt>
      <trkpt lat="45.84265" lon="4.79344">
        <ele>537.5999756</ele>
        <time>2013-08-31T07:55:21Z</time>
      </trkpt>
      <trkpt lat="45.84261" lon="4.79345">
        <ele>538.0999756</ele>
        <time>2013-08-31T07:55:22Z</time>
      </trkpt>
      <trkpt lat="45.84254" lon="4.79341">
        <ele>536.5999756</ele>
        <time>2013-08-31T07:55:23Z</time>
      </trkpt>
      <trkpt lat="45.8425" lon="4.79338">
        <ele>536.2999878</ele>
        <time>2013-08-31T07:55:24Z</time>
      </trkpt>
      <trkpt lat="45.84243" lon="4.79332">
        <ele>534.9000244</ele>
        <time>2013-08-31T07:55:25Z</time>
      </trkpt>
      <trkpt lat="45.84243" lon="4.79319">
        <ele>534.0999756</ele>
        <time>2013-08-31T07:55:26Z</time>
      </trkpt>
      <trkpt lat="45.84243" lon="4.79307">
        <ele>533.5999756</ele>
        <time>2013-08-31T07:55:28Z</time>
      </trkpt>
      <trkpt lat="45.84243" lon="4.79303">
        <ele>533.0999756</ele>
        <time>2013-08-31T07:55:29Z</time>
      </trkpt>
      <trkpt lat="45.84241" lon="4.79291">
        <ele>532.0999756</ele>
        <time>2013-08-31T07:55:33Z</time>
      </trkpt>
      <trkpt lat="45.8424" lon="4.79288">
        <ele>532.5999756</ele>
        <time>2013-08-31T07:55:34Z</time>
      </trkpt>
      <trkpt lat="45.84238" lon="4.79279">
        <ele>532.4000244</ele>
        <time>2013-08-31T07:55:37Z</time>
      </trkpt>
      <trkpt lat="45.84237" lon="4.79275">
        <ele>532.4000244</ele>
        <time>2013-08-31T07:55:38Z</time>
      </trkpt>
      <trkpt lat="45.84237" lon="4.79265">
        <ele>531.7000122</ele>
        <time>2013-08-31T07:55:40Z</time>
      </trkpt>
      <trkpt lat="45.84236" lon="4.79261">
        <ele>531.5</ele>
        <time>2013-08-31T07:55:41Z</time>
      </trkpt>
      <trkpt lat="45.84233" lon="4.79253">
        <ele>531.9000244</ele>
        <time>2013-08-31T07:55:43Z</time>
      </trkpt>
      <trkpt lat="45.84231" lon="4.79249">
        <ele>532</ele>
        <time>2013-08-31T07:55:44Z</time>
      </trkpt>
      <trkpt lat="45.84228" lon="4.79244">
        <ele>531.7000122</ele>
        <time>2013-08-31T07:55:46Z</time>
      </trkpt>
      <trkpt lat="45.84225" lon="4.79239">
        <ele>531.5</ele>
        <time>2013-08-31T07:55:47Z</time>
      </trkpt>
      <trkpt lat="45.8422" lon="4.79233">
        <ele>531.5</ele>
        <time>2013-08-31T07:55:49Z</time>
      </trkpt>
      <trkpt lat="45.84219" lon="4.79229">
        <ele>531.5</ele>
        <time>2013-08-31T07:55:50Z</time>
      </trkpt>
      <trkpt lat="45.84212" lon="4.79221">
        <ele>533</ele>
        <time>2013-08-31T07:55:53Z</time>
      </trkpt>
      <trkpt lat="45.84209" lon="4.79217">
        <ele>533</ele>
        <time>2013-08-31T07:55:54Z</time>
      </trkpt>
      <trkpt lat="45.84205" lon="4.79209">
        <ele>534.2999878</ele>
        <time>2013-08-31T07:55:57Z</time>
      </trkpt>
      <trkpt lat="45.84203" lon="4.79208">
        <ele>534</ele>
        <time>2013-08-31T07:55:58Z</time>
      </trkpt>
      <trkpt lat="45.84196" lon="4.79201">
        <ele>538.2000122</ele>
        <time>2013-08-31T07:56:02Z</time>
      </trkpt>
      <trkpt lat="45.84193" lon="4.79199">
        <ele>538.2999878</ele>
        <time>2013-08-31T07:56:03Z</time>
      </trkpt>
      <trkpt lat="45.84187" lon="4.79192">
        <ele>538.7000122</ele>
        <time>2013-08-31T07:56:06Z</time>
      </trkpt>
      <trkpt lat="45.84185" lon="4.79187">
        <ele>538.9000244</ele>
        <time>2013-08-31T07:56:07Z</time>
      </trkpt>
      <trkpt lat="45.84181" lon="4.79179">
        <ele>538.9000244</ele>
        <time>2013-08-31T07:56:10Z</time>
      </trkpt>
      <trkpt lat="45.84178" lon="4.79176">
        <ele>538.4000244</ele>
        <time>2013-08-31T07:56:11Z</time>
      </trkpt>
      <trkpt lat="45.84174" lon="4.79167">
        <ele>537.5</ele>
        <time>2013-08-31T07:56:13Z</time>
      </trkpt>
      <trkpt lat="45.84173" lon="4.79164">
        <ele>537.0999756</ele>
        <time>2013-08-31T07:56:14Z</time>
      </trkpt>
      <trkpt lat="45.84167" lon="4.79154">
        <ele>536.4000244</ele>
        <time>2013-08-31T07:56:17Z</time>
      </trkpt>
      <trkpt lat="45.84166" lon="4.79153">
        <ele>536.7999878</ele>
        <time>2013-08-31T07:56:18Z</time>
      </trkpt>
      <trkpt lat="45.84161" lon="4.79143">
        <ele>537</ele>
        <time>2013-08-31T07:56:22Z</time>
      </trkpt>
      <trkpt lat="45.84163" lon="4.79139">
        <ele>538.5999756</ele>
        <time>2013-08-31T07:56:23Z</time>
      </trkpt>
      <trkpt lat="45.84161" lon="4.7913">
        <ele>539.5999756</ele>
        <time>2013-08-31T07:56:30Z</time>
      </trkpt>
      <trkpt lat="45.84161" lon="4.7913">
        <ele>539.7999878</ele>
        <time>2013-08-31T07:56:31Z</time>
      </trkpt>
      <trkpt lat="45.84161" lon="4.7913">
        <ele>539.7999878</ele>
        <time>2013-08-31T07:56:32Z</time>
      </trkpt>
      <trkpt lat="45.84161" lon="4.7913">
        <ele>539.5999756</ele>
        <time>2013-08-31T07:56:33Z</time>
      </trkpt>
      <trkpt lat="45.84163" lon="4.79118">
        <ele>542.7999878</ele>
        <time>2013-08-31T07:56:44Z</time>
      </trkpt>
      <trkpt lat="45.84163" lon="4.79116">
        <ele>542.7999878</ele>
        <time>2013-08-31T07:56:45Z</time>
      </trkpt>
      <trkpt lat="45.84165" lon="4.79115">
        <ele>542.7000122</ele>
        <time>2013-08-31T07:56:47Z</time>
      </trkpt>
      <trkpt lat="45.84165" lon="4.79115">
        <ele>542.9000244</ele>
        <time>2013-08-31T07:56:48Z</time>
      </trkpt>
      <trkpt lat="45.84165" lon="4.79112">
        <ele>543.0999756</ele>
        <time>2013-08-31T07:56:49Z</time>
      </trkpt>
      <trkpt lat="45.84163" lon="4.791">
        <ele>542.4000244</ele>
        <time>2013-08-31T07:56:55Z</time>
      </trkpt>
      <trkpt lat="45.84164" lon="4.79099">
        <ele>542.0999756</ele>
        <time>2013-08-31T07:56:56Z</time>
      </trkpt>
      <trkpt lat="45.84166" lon="4.79093">
        <ele>544</ele>
        <time>2013-08-31T07:57:05Z</time>
      </trkpt>
      <trkpt lat="45.84166" lon="4.79093">
        <ele>544</ele>
        <time>2013-08-31T07:57:06Z</time>
      </trkpt>
      <trkpt lat="45.84166" lon="4.79094">
        <ele>544</ele>
        <time>2013-08-31T07:57:07Z</time>
      </trkpt>
      <trkpt lat="45.84166" lon="4.79092">
        <ele>542.7000122</ele>
        <time>2013-08-31T07:57:09Z</time>
      </trkpt>
      <trkpt lat="45.84166" lon="4.79092">
        <ele>542.5999756</ele>
        <time>2013-08-31T07:57:10Z</time>
      </trkpt>
      <trkpt lat="45.84166" lon="4.79092">
        <ele>542.5</ele>
        <time>2013-08-31T07:57:11Z</time>
      </trkpt>
      <trkpt lat="45.84167" lon="4.79092">
        <ele>542.5</ele>
        <time>2013-08-31T07:57:12Z</time>
      </trkpt>
      <trkpt lat="45.84167" lon="4.79091">
        <ele>543</ele>
        <time>2013-08-31T07:57:15Z</time>
      </trkpt>
      <trkpt lat="45.84167" lon="4.79091">
        <ele>543</ele>
        <time>2013-08-31T07:57:16Z</time>
      </trkpt>
      <trkpt lat="45.84167" lon="4.7909">
        <ele>543.2000122</ele>
        <time>2013-08-31T07:57:20Z</time>
      </trkpt>
      <trkpt lat="45.84168" lon="4.79088">
        <ele>543.5999756</ele>
        <time>2013-08-31T07:57:21Z</time>
      </trkpt>
      <trkpt lat="45.84169" lon="4.79076">
        <ele>545</ele>
        <time>2013-08-31T07:57:27Z</time>
      </trkpt>
      <trkpt lat="45.84169" lon="4.79073">
        <ele>545.4000244</ele>
        <time>2013-08-31T07:57:28Z</time>
      </trkpt>
      <trkpt lat="45.84169" lon="4.79061">
        <ele>546.7999878</ele>
        <time>2013-08-31T07:57:34Z</time>
      </trkpt>
      <trkpt lat="45.8417" lon="4.79058">
        <ele>547.0999756</ele>
        <time>2013-08-31T07:57:35Z</time>
      </trkpt>
      <trkpt lat="45.84173" lon="4.79047">
        <ele>548.0999756</ele>
        <time>2013-08-31T07:57:42Z</time>
      </trkpt>
      <trkpt lat="45.84174" lon="4.79045">
        <ele>548.2000122</ele>
        <time>2013-08-31T07:57:42Z</time>
      </trkpt>
      <trkpt lat="45.84174" lon="4.79034">
        <ele>551.0999756</ele>
        <time>2013-08-31T07:57:48Z</time>
      </trkpt>
      <trkpt lat="45.84174" lon="4.79032">
        <ele>551.0999756</ele>
        <time>2013-08-31T07:57:49Z</time>
      </trkpt>
      <trkpt lat="45.84176" lon="4.79019">
        <ele>551.5999756</ele>
        <time>2013-08-31T07:57:55Z</time>
      </trkpt>
      <trkpt lat="45.84176" lon="4.79018">
        <ele>552.2999878</ele>
        <time>2013-08-31T07:57:56Z</time>
      </trkpt>
      <trkpt lat="45.84177" lon="4.79006">
        <ele>553</ele>
        <time>2013-08-31T07:58:02Z</time>
      </trkpt>
      <trkpt lat="45.84177" lon="4.79004">
        <ele>553.0999756</ele>
        <time>2013-08-31T07:58:03Z</time>
      </trkpt>
      <trkpt lat="45.84179" lon="4.78992">
        <ele>555.5999756</ele>
        <time>2013-08-31T07:58:09Z</time>
      </trkpt>
      <trkpt lat="45.84179" lon="4.7899">
        <ele>555.7000122</ele>
        <time>2013-08-31T07:58:10Z</time>
      </trkpt>
      <trkpt lat="45.84183" lon="4.78981">
        <ele>556.4000244</ele>
        <time>2013-08-31T07:58:14Z</time>
      </trkpt>
      <trkpt lat="45.84184" lon="4.78979">
        <ele>556.5</ele>
        <time>2013-08-31T07:58:15Z</time>
      </trkpt>
      <trkpt lat="45.84187" lon="4.78967">
        <ele>557.5999756</ele>
        <time>2013-08-31T07:58:20Z</time>
      </trkpt>
      <trkpt lat="45.84188" lon="4.78965">
        <ele>557.5</ele>
        <time>2013-08-31T07:58:21Z</time>
      </trkpt>
      <trkpt lat="45.8419" lon="4.78953">
        <ele>559</ele>
        <time>2013-08-31T07:58:28Z</time>
      </trkpt>
      <trkpt lat="45.8419" lon="4.78951">
        <ele>559.2000122</ele>
        <time>2013-08-31T07:58:29Z</time>
      </trkpt>
      <trkpt lat="45.84197" lon="4.78943">
        <ele>559.5999756</ele>
        <time>2013-08-31T07:58:38Z</time>
      </trkpt>
      <trkpt lat="45.84198" lon="4.78942">
        <ele>559.7999878</ele>
        <time>2013-08-31T07:58:40Z</time>
      </trkpt>
      <trkpt lat="45.84203" lon="4.78933">
        <ele>560.4000244</ele>
        <time>2013-08-31T07:58:49Z</time>
      </trkpt>
      <trkpt lat="45.84204" lon="4.78932">
        <ele>560.5999756</ele>
        <time>2013-08-31T07:58:50Z</time>
      </trkpt>
      <trkpt lat="45.84206" lon="4.78919">
        <ele>560.7000122</ele>
        <time>2013-08-31T07:58:56Z</time>
      </trkpt>
      <trkpt lat="45.84206" lon="4.78916">
        <ele>560.9000244</ele>
        <time>2013-08-31T07:58:57Z</time>
      </trkpt>
      <trkpt lat="45.84211" lon="4.78907">
        <ele>559.7999878</ele>
        <time>2013-08-31T07:59:02Z</time>
      </trkpt>
      <trkpt lat="45.84212" lon="4.78903">
        <ele>560.0999756</ele>
        <time>2013-08-31T07:59:03Z</time>
      </trkpt>
      <trkpt lat="45.84212" lon="4.78891">
        <ele>561.7999878</ele>
        <time>2013-08-31T07:59:08Z</time>
      </trkpt>
      <trkpt lat="45.84212" lon="4.7889">
        <ele>562</ele>
        <time>2013-08-31T07:59:09Z</time>
      </trkpt>
      <trkpt lat="45.84211" lon="4.7888">
        <ele>564.7000122</ele>
        <time>2013-08-31T07:59:13Z</time>
      </trkpt>
      <trkpt lat="45.84211" lon="4.78876">
        <ele>564.5999756</ele>
        <time>2013-08-31T07:59:14Z</time>
      </trkpt>
      <trkpt lat="45.84211" lon="4.78865">
        <ele>565.4000244</ele>
        <time>2013-08-31T07:59:17Z</time>
      </trkpt>
      <trkpt lat="45.84211" lon="4.78863">
        <ele>565.0999756</ele>
        <time>2013-08-31T07:59:18Z</time>
      </trkpt>
      <trkpt lat="45.84211" lon="4.78851">
        <ele>564.4000244</ele>
        <time>2013-08-31T07:59:21Z</time>
      </trkpt>
      <trkpt lat="45.84212" lon="4.78846">
        <ele>564.4000244</ele>
        <time>2013-08-31T07:59:22Z</time>
      </trkpt>
      <trkpt lat="45.84212" lon="4.78836">
        <ele>564.5</ele>
        <time>2013-08-31T07:59:24Z</time>
      </trkpt>
      <trkpt lat="45.84214" lon="4.78832">
        <ele>564</ele>
        <time>2013-08-31T07:59:25Z</time>
      </trkpt>
      <trkpt lat="45.84217" lon="4.78821">
        <ele>563.5</ele>
        <time>2013-08-31T07:59:27Z</time>
      </trkpt>
      <trkpt lat="45.84218" lon="4.78816">
        <ele>562.0999756</ele>
        <time>2013-08-31T07:59:28Z</time>
      </trkpt>
      <trkpt lat="45.8422" lon="4.78807">
        <ele>560.5</ele>
        <time>2013-08-31T07:59:30Z</time>
      </trkpt>
      <trkpt lat="45.8422" lon="4.78802">
        <ele>560.4000244</ele>
        <time>2013-08-31T07:59:31Z</time>
      </trkpt>
      <trkpt lat="45.84222" lon="4.78791">
        <ele>559.5999756</ele>
        <time>2013-08-31T07:59:33Z</time>
      </trkpt>
      <trkpt lat="45.84224" lon="4.78781">
        <ele>558.2999878</ele>
        <time>2013-08-31T07:59:34Z</time>
      </trkpt>
      <trkpt lat="45.84226" lon="4.7877">
        <ele>558.2999878</ele>
        <time>2013-08-31T07:59:36Z</time>
      </trkpt>
      <trkpt lat="45.84228" lon="4.78761">
        <ele>557.2999878</ele>
        <time>2013-08-31T07:59:37Z</time>
      </trkpt>
      <trkpt lat="45.84229" lon="4.78753">
        <ele>556.4000244</ele>
        <time>2013-08-31T07:59:38Z</time>
      </trkpt>
      <trkpt lat="45.84231" lon="4.78746">
        <ele>556.7000122</ele>
        <time>2013-08-31T07:59:39Z</time>
      </trkpt>
      <trkpt lat="45.84234" lon="4.78736">
        <ele>557.2000122</ele>
        <time>2013-08-31T07:59:41Z</time>
      </trkpt>
      <trkpt lat="45.84236" lon="4.7873">
        <ele>557.0999756</ele>
        <time>2013-08-31T07:59:42Z</time>
      </trkpt>
      <trkpt lat="45.84237" lon="4.78724">
        <ele>557.4000244</ele>
        <time>2013-08-31T07:59:43Z</time>
      </trkpt>
      <trkpt lat="45.8424" lon="4.78717">
        <ele>557.5999756</ele>
        <time>2013-08-31T07:59:44Z</time>
      </trkpt>
      <trkpt lat="45.84244" lon="4.78708">
        <ele>559.2000122</ele>
        <time>2013-08-31T07:59:45Z</time>
      </trkpt>
      <trkpt lat="45.84248" lon="4.78698">
        <ele>559.2999878</ele>
        <time>2013-08-31T07:59:46Z</time>
      </trkpt>
      <trkpt lat="45.84251" lon="4.78691">
        <ele>558.9000244</ele>
        <time>2013-08-31T07:59:47Z</time>
      </trkpt>
      <trkpt lat="45.84253" lon="4.78681">
        <ele>558.7999878</ele>
        <time>2013-08-31T07:59:48Z</time>
      </trkpt>
      <trkpt lat="45.84257" lon="4.78674">
        <ele>559</ele>
        <time>2013-08-31T07:59:49Z</time>
      </trkpt>
      <trkpt lat="45.8426" lon="4.78668">
        <ele>559.2999878</ele>
        <time>2013-08-31T07:59:50Z</time>
      </trkpt>
      <trkpt lat="45.84265" lon="4.7866">
        <ele>559.2999878</ele>
        <time>2013-08-31T07:59:51Z</time>
      </trkpt>
      <trkpt lat="45.8427" lon="4.78656">
        <ele>559.2999878</ele>
        <time>2013-08-31T07:59:52Z</time>
      </trkpt>
      <trkpt lat="45.84273" lon="4.78648">
        <ele>559.5</ele>
        <time>2013-08-31T07:59:53Z</time>
      </trkpt>
      <trkpt lat="45.84277" lon="4.7864">
        <ele>559.4000244</ele>
        <time>2013-08-31T07:59:54Z</time>
      </trkpt>
      <trkpt lat="45.84279" lon="4.78631">
        <ele>559.2999878</ele>
        <time>2013-08-31T07:59:55Z</time>
      </trkpt>
      <trkpt lat="45.8428" lon="4.78622">
        <ele>559.0999756</ele>
        <time>2013-08-31T07:59:56Z</time>
      </trkpt>
      <trkpt lat="45.84281" lon="4.78613">
        <ele>559.0999756</ele>
        <time>2013-08-31T07:59:57Z</time>
      </trkpt>
      <trkpt lat="45.84281" lon="4.78603">
        <ele>558.9000244</ele>
        <time>2013-08-31T07:59:58Z</time>
      </trkpt>
      <trkpt lat="45.84282" lon="4.78595">
        <ele>558.5</ele>
        <time>2013-08-31T07:59:59Z</time>
      </trkpt>
      <trkpt lat="45.84279" lon="4.78585">
        <ele>558.2000122</ele>
        <time>2013-08-31T08:00:00Z</time>
      </trkpt>
      <trkpt lat="45.84277" lon="4.78574">
        <ele>558</ele>
        <time>2013-08-31T08:00:01Z</time>
      </trkpt>
      <trkpt lat="45.84281" lon="4.78565">
        <ele>557.2999878</ele>
        <time>2013-08-31T08:00:02Z</time>
      </trkpt>
      <trkpt lat="45.84277" lon="4.78555">
        <ele>557.4000244</ele>
        <time>2013-08-31T08:00:03Z</time>
      </trkpt>
      <trkpt lat="45.84274" lon="4.78544">
        <ele>557.7999878</ele>
        <time>2013-08-31T08:00:04Z</time>
      </trkpt>
      <trkpt lat="45.84273" lon="4.78535">
        <ele>557.9000244</ele>
        <time>2013-08-31T08:00:05Z</time>
      </trkpt>
      <trkpt lat="45.84269" lon="4.78524">
        <ele>558.2999878</ele>
        <time>2013-08-31T08:00:06Z</time>
      </trkpt>
      <trkpt lat="45.84268" lon="4.7851">
        <ele>557.7000122</ele>
        <time>2013-08-31T08:00:07Z</time>
      </trkpt>
      <trkpt lat="45.84265" lon="4.78496">
        <ele>557.2000122</ele>
        <time>2013-08-31T08:00:08Z</time>
      </trkpt>
      <trkpt lat="45.84265" lon="4.78483">
        <ele>557.0999756</ele>
        <time>2013-08-31T08:00:09Z</time>
      </trkpt>
      <trkpt lat="45.84265" lon="4.78471">
        <ele>557.2999878</ele>
        <time>2013-08-31T08:00:10Z</time>
      </trkpt>
      <trkpt lat="45.84265" lon="4.7846">
        <ele>557.9000244</ele>
        <time>2013-08-31T08:00:11Z</time>
      </trkpt>
      <trkpt lat="45.84264" lon="4.78447">
        <ele>558.5999756</ele>
        <time>2013-08-31T08:00:12Z</time>
      </trkpt>
      <trkpt lat="45.84264" lon="4.78431">
        <ele>559</ele>
        <time>2013-08-31T08:00:13Z</time>
      </trkpt>
      <trkpt lat="45.8426" lon="4.78412">
        <ele>557</ele>
        <time>2013-08-31T08:00:14Z</time>
      </trkpt>
      <trkpt lat="45.8426" lon="4.78397">
        <ele>555.5999756</ele>
        <time>2013-08-31T08:00:15Z</time>
      </trkpt>
      <trkpt lat="45.84261" lon="4.78384">
        <ele>555.7000122</ele>
        <time>2013-08-31T08:00:16Z</time>
      </trkpt>
      <trkpt lat="45.84262" lon="4.78372">
        <ele>556</ele>
        <time>2013-08-31T08:00:17Z</time>
      </trkpt>
      <trkpt lat="45.84268" lon="4.78363">
        <ele>556</ele>
        <time>2013-08-31T08:00:18Z</time>
      </trkpt>
      <trkpt lat="45.8427" lon="4.78353">
        <ele>556.0999756</ele>
        <time>2013-08-31T08:00:19Z</time>
      </trkpt>
      <trkpt lat="45.84272" lon="4.78347">
        <ele>555.9000244</ele>
        <time>2013-08-31T08:00:20Z</time>
      </trkpt>
      <trkpt lat="45.84274" lon="4.78342">
        <ele>555.9000244</ele>
        <time>2013-08-31T08:00:21Z</time>
      </trkpt>
      <trkpt lat="45.8428" lon="4.78332">
        <ele>557.2999878</ele>
        <time>2013-08-31T08:00:25Z</time>
      </trkpt>
      <trkpt lat="45.84284" lon="4.7833">
        <ele>558</ele>
        <time>2013-08-31T08:00:26Z</time>
      </trkpt>
      <trkpt lat="45.84289" lon="4.7833">
        <ele>559.7999878</ele>
        <time>2013-08-31T08:00:28Z</time>
      </trkpt>
      <trkpt lat="45.84293" lon="4.7833">
        <ele>560.9000244</ele>
        <time>2013-08-31T08:00:29Z</time>
      </trkpt>
      <trkpt lat="45.84301" lon="4.78328">
        <ele>562.2000122</ele>
        <time>2013-08-31T08:00:31Z</time>
      </trkpt>
      <trkpt lat="45.84308" lon="4.78329">
        <ele>562.2999878</ele>
        <time>2013-08-31T08:00:32Z</time>
      </trkpt>
      <trkpt lat="45.84314" lon="4.78332">
        <ele>561.5</ele>
        <time>2013-08-31T08:00:33Z</time>
      </trkpt>
      <trkpt lat="45.84322" lon="4.78336">
        <ele>561.5999756</ele>
        <time>2013-08-31T08:00:34Z</time>
      </trkpt>
      <trkpt lat="45.84329" lon="4.78339">
        <ele>561.9000244</ele>
        <time>2013-08-31T08:00:37Z</time>
      </trkpt>
      <trkpt lat="45.84332" lon="4.78341">
        <ele>561.9000244</ele>
        <time>2013-08-31T08:00:38Z</time>
      </trkpt>
      <trkpt lat="45.84338" lon="4.78342">
        <ele>561.7000122</ele>
        <time>2013-08-31T08:00:39Z</time>
      </trkpt>
      <trkpt lat="45.84342" lon="4.78343">
        <ele>562</ele>
        <time>2013-08-31T08:00:40Z</time>
      </trkpt>
      <trkpt lat="45.8435" lon="4.78346">
        <ele>561.7000122</ele>
        <time>2013-08-31T08:00:43Z</time>
      </trkpt>
      <trkpt lat="45.84351" lon="4.78348">
        <ele>562.0999756</ele>
        <time>2013-08-31T08:00:44Z</time>
      </trkpt>
      <trkpt lat="45.84359" lon="4.78355">
        <ele>561.2999878</ele>
        <time>2013-08-31T08:00:46Z</time>
      </trkpt>
      <trkpt lat="45.84361" lon="4.78356">
        <ele>561.2999878</ele>
        <time>2013-08-31T08:00:47Z</time>
      </trkpt>
      <trkpt lat="45.8437" lon="4.78356">
        <ele>558.5999756</ele>
        <time>2013-08-31T08:00:53Z</time>
      </trkpt>
      <trkpt lat="45.84371" lon="4.78356">
        <ele>558</ele>
        <time>2013-08-31T08:00:54Z</time>
      </trkpt>
      <trkpt lat="45.84373" lon="4.78356">
        <ele>556.5999756</ele>
        <time>2013-08-31T08:01:02Z</time>
      </trkpt>
      <trkpt lat="45.84373" lon="4.78355">
        <ele>556.4000244</ele>
        <time>2013-08-31T08:01:03Z</time>
      </trkpt>
      <trkpt lat="45.84373" lon="4.78356">
        <ele>556.5</ele>
        <time>2013-08-31T08:01:04Z</time>
      </trkpt>
      <trkpt lat="45.84373" lon="4.78356">
        <ele>556</ele>
        <time>2013-08-31T08:01:05Z</time>
      </trkpt>
      <trkpt lat="45.84373" lon="4.78357">
        <ele>556.2000122</ele>
        <time>2013-08-31T08:01:07Z</time>
      </trkpt>
      <trkpt lat="45.84373" lon="4.78358">
        <ele>556.2999878</ele>
        <time>2013-08-31T08:01:08Z</time>
      </trkpt>
      <trkpt lat="45.84373" lon="4.7836">
        <ele>553.4000244</ele>
        <time>2013-08-31T08:01:09Z</time>
      </trkpt>
      <trkpt lat="45.84373" lon="4.78372">
        <ele>550.5999756</ele>
        <time>2013-08-31T08:01:27Z</time>
      </trkpt>
      <trkpt lat="45.84372" lon="4.78375">
        <ele>552.7999878</ele>
        <time>2013-08-31T08:01:28Z</time>
      </trkpt>
      <trkpt lat="45.84369" lon="4.78384">
        <ele>551.5999756</ele>
        <time>2013-08-31T08:01:31Z</time>
      </trkpt>
      <trkpt lat="45.84368" lon="4.78387">
        <ele>551.5</ele>
        <time>2013-08-31T08:01:32Z</time>
      </trkpt>
      <trkpt lat="45.84368" lon="4.784">
        <ele>546.7000122</ele>
        <time>2013-08-31T08:01:38Z</time>
      </trkpt>
      <trkpt lat="45.84367" lon="4.78403">
        <ele>544.9000244</ele>
        <time>2013-08-31T08:01:39Z</time>
      </trkpt>
      <trkpt lat="45.84367" lon="4.78408">
        <ele>539.7000122</ele>
        <time>2013-08-31T08:01:42Z</time>
      </trkpt>
      <trkpt lat="45.84367" lon="4.78408">
        <ele>538.7000122</ele>
        <time>2013-08-31T08:01:43Z</time>
      </trkpt>
      <trkpt lat="45.84368" lon="4.78407">
        <ele>538.4000244</ele>
        <time>2013-08-31T08:01:44Z</time>
      </trkpt>
      <trkpt lat="45.84368" lon="4.78407">
        <ele>537.7000122</ele>
        <time>2013-08-31T08:01:45Z</time>
      </trkpt>
      <trkpt lat="45.84368" lon="4.78408">
        <ele>536.9000244</ele>
        <time>2013-08-31T08:01:46Z</time>
      </trkpt>
      <trkpt lat="45.84368" lon="4.78408">
        <ele>536.4000244</ele>
        <time>2013-08-31T08:01:47Z</time>
      </trkpt>
      <trkpt lat="45.84369" lon="4.78409">
        <ele>533.5999756</ele>
        <time>2013-08-31T08:01:50Z</time>
      </trkpt>
      <trkpt lat="45.84369" lon="4.78409">
        <ele>533.0999756</ele>
        <time>2013-08-31T08:01:51Z</time>
      </trkpt>
      <trkpt lat="45.84369" lon="4.78409">
        <ele>532.5999756</ele>
        <time>2013-08-31T08:02:13Z</time>
      </trkpt>
      <trkpt lat="45.8437" lon="4.7841">
        <ele>532.5999756</ele>
        <time>2013-08-31T08:02:14Z</time>
      </trkpt>
      <trkpt lat="45.84373" lon="4.78416">
        <ele>531.4000244</ele>
        <time>2013-08-31T08:02:15Z</time>
      </trkpt>
      <trkpt lat="45.84374" lon="4.78423">
        <ele>529.5</ele>
        <time>2013-08-31T08:02:16Z</time>
      </trkpt>
      <trkpt lat="45.84378" lon="4.78435">
        <ele>527.7999878</ele>
        <time>2013-08-31T08:02:18Z</time>
      </trkpt>
      <trkpt lat="45.84377" lon="4.78437">
        <ele>527.0999756</ele>
        <time>2013-08-31T08:02:19Z</time>
      </trkpt>
      <trkpt lat="45.8438" lon="4.78448">
        <ele>525.7000122</ele>
        <time>2013-08-31T08:02:22Z</time>
      </trkpt>
      <trkpt lat="45.84383" lon="4.78454">
        <ele>525.2999878</ele>
        <time>2013-08-31T08:02:23Z</time>
      </trkpt>
      <trkpt lat="45.84387" lon="4.78458">
        <ele>526.7000122</ele>
        <time>2013-08-31T08:02:24Z</time>
      </trkpt>
      <trkpt lat="45.84396" lon="4.78466">
        <ele>527.5</ele>
        <time>2013-08-31T08:02:25Z</time>
      </trkpt>
      <trkpt lat="45.84402" lon="4.78473">
        <ele>527.2000122</ele>
        <time>2013-08-31T08:02:26Z</time>
      </trkpt>
      <trkpt lat="45.84403" lon="4.78479">
        <ele>526.7999878</ele>
        <time>2013-08-31T08:02:27Z</time>
      </trkpt>
      <trkpt lat="45.84406" lon="4.78485">
        <ele>526.2999878</ele>
        <time>2013-08-31T08:02:28Z</time>
      </trkpt>
      <trkpt lat="45.84408" lon="4.78492">
        <ele>526.2999878</ele>
        <time>2013-08-31T08:02:29Z</time>
      </trkpt>
      <trkpt lat="45.84409" lon="4.78499">
        <ele>526.9000244</ele>
        <time>2013-08-31T08:02:30Z</time>
      </trkpt>
      <trkpt lat="45.84417" lon="4.78508">
        <ele>526.7000122</ele>
        <time>2013-08-31T08:02:31Z</time>
      </trkpt>
      <trkpt lat="45.84421" lon="4.78513">
        <ele>528</ele>
        <time>2013-08-31T08:02:32Z</time>
      </trkpt>
      <trkpt lat="45.84425" lon="4.7852">
        <ele>528.5</ele>
        <time>2013-08-31T08:02:33Z</time>
      </trkpt>
      <trkpt lat="45.84432" lon="4.78529">
        <ele>527.4000244</ele>
        <time>2013-08-31T08:02:34Z</time>
      </trkpt>
      <trkpt lat="45.84436" lon="4.78536">
        <ele>527.2999878</ele>
        <time>2013-08-31T08:02:35Z</time>
      </trkpt>
      <trkpt lat="45.84443" lon="4.78541">
        <ele>528.0999756</ele>
        <time>2013-08-31T08:02:36Z</time>
      </trkpt>
      <trkpt lat="45.84447" lon="4.78545">
        <ele>528.5</ele>
        <time>2013-08-31T08:02:37Z</time>
      </trkpt>
      <trkpt lat="45.84455" lon="4.78554">
        <ele>527.2000122</ele>
        <time>2013-08-31T08:02:38Z</time>
      </trkpt>
      <trkpt lat="45.84459" lon="4.78561">
        <ele>526.5999756</ele>
        <time>2013-08-31T08:02:39Z</time>
      </trkpt>
      <trkpt lat="45.84463" lon="4.78569">
        <ele>526</ele>
        <time>2013-08-31T08:02:40Z</time>
      </trkpt>
      <trkpt lat="45.84468" lon="4.78578">
        <ele>525.2999878</ele>
        <time>2013-08-31T08:02:41Z</time>
      </trkpt>
      <trkpt lat="45.84472" lon="4.78586">
        <ele>525.2999878</ele>
        <time>2013-08-31T08:02:42Z</time>
      </trkpt>
      <trkpt lat="45.84481" lon="4.78595">
        <ele>525.4000244</ele>
        <time>2013-08-31T08:02:43Z</time>
      </trkpt>
      <trkpt lat="45.84485" lon="4.78604">
        <ele>524</ele>
        <time>2013-08-31T08:02:44Z</time>
      </trkpt>
      <trkpt lat="45.8449" lon="4.78613">
        <ele>523.4000244</ele>
        <time>2013-08-31T08:02:45Z</time>
      </trkpt>
      <trkpt lat="45.84497" lon="4.78619">
        <ele>523.2000122</ele>
        <time>2013-08-31T08:02:46Z</time>
      </trkpt>
      <trkpt lat="45.84503" lon="4.78628">
        <ele>523.4000244</ele>
        <time>2013-08-31T08:02:47Z</time>
      </trkpt>
      <trkpt lat="45.8451" lon="4.78635">
        <ele>522.0999756</ele>
        <time>2013-08-31T08:02:48Z</time>
      </trkpt>
      <trkpt lat="45.84517" lon="4.78644">
        <ele>521.7000122</ele>
        <time>2013-08-31T08:02:49Z</time>
      </trkpt>
      <trkpt lat="45.84521" lon="4.78649">
        <ele>522</ele>
        <time>2013-08-31T08:02:50Z</time>
      </trkpt>
      <trkpt lat="45.84526" lon="4.78655">
        <ele>521.5999756</ele>
        <time>2013-08-31T08:02:51Z</time>
      </trkpt>
      <trkpt lat="45.84531" lon="4.78662">
        <ele>519.7000122</ele>
        <time>2013-08-31T08:02:52Z</time>
      </trkpt>
      <trkpt lat="45.84538" lon="4.78669">
        <ele>517.7999878</ele>
        <time>2013-08-31T08:02:53Z</time>
      </trkpt>
      <trkpt lat="45.84546" lon="4.78676">
        <ele>515.7000122</ele>
        <time>2013-08-31T08:02:54Z</time>
      </trkpt>
      <trkpt lat="45.84552" lon="4.78683">
        <ele>514.4000244</ele>
        <time>2013-08-31T08:02:55Z</time>
      </trkpt>
      <trkpt lat="45.84561" lon="4.78689">
        <ele>513.0999756</ele>
        <time>2013-08-31T08:02:56Z</time>
      </trkpt>
      <trkpt lat="45.84567" lon="4.7869">
        <ele>511.6000061</ele>
        <time>2013-08-31T08:02:57Z</time>
      </trkpt>
      <trkpt lat="45.84571" lon="4.78694">
        <ele>510.7000122</ele>
        <time>2013-08-31T08:02:58Z</time>
      </trkpt>
      <trkpt lat="45.84578" lon="4.78697">
        <ele>509.5</ele>
        <time>2013-08-31T08:03:00Z</time>
      </trkpt>
      <trkpt lat="45.84583" lon="4.78701">
        <ele>509.5</ele>
        <time>2013-08-31T08:03:01Z</time>
      </trkpt>
      <trkpt lat="45.84588" lon="4.78707">
        <ele>510.7999878</ele>
        <time>2013-08-31T08:03:02Z</time>
      </trkpt>
      <trkpt lat="45.8459" lon="4.78712">
        <ele>511.6000061</ele>
        <time>2013-08-31T08:03:03Z</time>
      </trkpt>
      <trkpt lat="45.84593" lon="4.78721">
        <ele>512.5</ele>
        <time>2013-08-31T08:03:05Z</time>
      </trkpt>
      <trkpt lat="45.84596" lon="4.78729">
        <ele>512.2999878</ele>
        <time>2013-08-31T08:03:06Z</time>
      </trkpt>
      <trkpt lat="45.84598" lon="4.78737">
        <ele>512.5999756</ele>
        <time>2013-08-31T08:03:07Z</time>
      </trkpt>
      <trkpt lat="45.84599" lon="4.78744">
        <ele>513</ele>
        <time>2013-08-31T08:03:08Z</time>
      </trkpt>
      <trkpt lat="45.84599" lon="4.78749">
        <ele>513.2000122</ele>
        <time>2013-08-31T08:03:09Z</time>
      </trkpt>
      <trkpt lat="45.84601" lon="4.78757">
        <ele>512</ele>
        <time>2013-08-31T08:03:10Z</time>
      </trkpt>
      <trkpt lat="45.84604" lon="4.78769">
        <ele>510.7000122</ele>
        <time>2013-08-31T08:03:12Z</time>
      </trkpt>
      <trkpt lat="45.84606" lon="4.78774">
        <ele>509.8999939</ele>
        <time>2013-08-31T08:03:13Z</time>
      </trkpt>
      <trkpt lat="45.84611" lon="4.78784">
        <ele>508.2999878</ele>
        <time>2013-08-31T08:03:15Z</time>
      </trkpt>
      <trkpt lat="45.84613" lon="4.78789">
        <ele>506.7999878</ele>
        <time>2013-08-31T08:03:16Z</time>
      </trkpt>
      <trkpt lat="45.8462" lon="4.78801">
        <ele>503.7000122</ele>
        <time>2013-08-31T08:03:17Z</time>
      </trkpt>
      <trkpt lat="45.84629" lon="4.78809">
        <ele>501.2999878</ele>
        <time>2013-08-31T08:03:18Z</time>
      </trkpt>
      <trkpt lat="45.84634" lon="4.78816">
        <ele>500.2000122</ele>
        <time>2013-08-31T08:03:19Z</time>
      </trkpt>
      <trkpt lat="45.84635" lon="4.78826">
        <ele>495.2999878</ele>
        <time>2013-08-31T08:03:20Z</time>
      </trkpt>
      <trkpt lat="45.84638" lon="4.7883">
        <ele>494.8999939</ele>
        <time>2013-08-31T08:03:21Z</time>
      </trkpt>
      <trkpt lat="45.84646" lon="4.78835">
        <ele>494.2000122</ele>
        <time>2013-08-31T08:03:22Z</time>
      </trkpt>
      <trkpt lat="45.84661" lon="4.78846">
        <ele>491.3999939</ele>
        <time>2013-08-31T08:03:23Z</time>
      </trkpt>
      <trkpt lat="45.84672" lon="4.78854">
        <ele>490.1000061</ele>
        <time>2013-08-31T08:03:24Z</time>
      </trkpt>
      <trkpt lat="45.84684" lon="4.78864">
        <ele>488.6000061</ele>
        <time>2013-08-31T08:03:25Z</time>
      </trkpt>
      <trkpt lat="45.84695" lon="4.78869">
        <ele>487.7000122</ele>
        <time>2013-08-31T08:03:26Z</time>
      </trkpt>
      <trkpt lat="45.84701" lon="4.78874">
        <ele>487.7999878</ele>
        <time>2013-08-31T08:03:27Z</time>
      </trkpt>
      <trkpt lat="45.84709" lon="4.78879">
        <ele>487.5</ele>
        <time>2013-08-31T08:03:28Z</time>
      </trkpt>
      <trkpt lat="45.84714" lon="4.78883">
        <ele>487.6000061</ele>
        <time>2013-08-31T08:03:29Z</time>
      </trkpt>
      <trkpt lat="45.84718" lon="4.78892">
        <ele>486</ele>
        <time>2013-08-31T08:03:30Z</time>
      </trkpt>
      <trkpt lat="45.84728" lon="4.789">
        <ele>485.2999878</ele>
        <time>2013-08-31T08:03:31Z</time>
      </trkpt>
      <trkpt lat="45.84736" lon="4.78906">
        <ele>484.7000122</ele>
        <time>2013-08-31T08:03:32Z</time>
      </trkpt>
      <trkpt lat="45.84745" lon="4.78913">
        <ele>484.5</ele>
        <time>2013-08-31T08:03:33Z</time>
      </trkpt>
      <trkpt lat="45.84754" lon="4.7892">
        <ele>484.2000122</ele>
        <time>2013-08-31T08:03:34Z</time>
      </trkpt>
      <trkpt lat="45.84763" lon="4.78929">
        <ele>484.1000061</ele>
        <time>2013-08-31T08:03:35Z</time>
      </trkpt>
      <trkpt lat="45.8477" lon="4.78933">
        <ele>483.7000122</ele>
        <time>2013-08-31T08:03:36Z</time>
      </trkpt>
      <trkpt lat="45.84776" lon="4.78941">
        <ele>483.7000122</ele>
        <time>2013-08-31T08:03:37Z</time>
      </trkpt>
      <trkpt lat="45.84782" lon="4.7895">
        <ele>483.6000061</ele>
        <time>2013-08-31T08:03:38Z</time>
      </trkpt>
      <trkpt lat="45.84791" lon="4.7896">
        <ele>482</ele>
        <time>2013-08-31T08:03:39Z</time>
      </trkpt>
      <trkpt lat="45.84797" lon="4.78967">
        <ele>480.7999878</ele>
        <time>2013-08-31T08:03:40Z</time>
      </trkpt>
      <trkpt lat="45.84805" lon="4.78977">
        <ele>480.2000122</ele>
        <time>2013-08-31T08:03:41Z</time>
      </trkpt>
      <trkpt lat="45.84812" lon="4.78984">
        <ele>478.7999878</ele>
        <time>2013-08-31T08:03:42Z</time>
      </trkpt>
      <trkpt lat="45.84816" lon="4.78991">
        <ele>479</ele>
        <time>2013-08-31T08:03:43Z</time>
      </trkpt>
      <trkpt lat="45.84821" lon="4.78997">
        <ele>477.7000122</ele>
        <time>2013-08-31T08:03:44Z</time>
      </trkpt>
      <trkpt lat="45.84824" lon="4.79001">
        <ele>476.6000061</ele>
        <time>2013-08-31T08:03:45Z</time>
      </trkpt>
      <trkpt lat="45.84831" lon="4.79007">
        <ele>476.6000061</ele>
        <time>2013-08-31T08:03:47Z</time>
      </trkpt>
      <trkpt lat="45.84833" lon="4.79008">
        <ele>476.2000122</ele>
        <time>2013-08-31T08:03:48Z</time>
      </trkpt>
      <trkpt lat="45.84841" lon="4.79014">
        <ele>475.1000061</ele>
        <time>2013-08-31T08:03:50Z</time>
      </trkpt>
      <trkpt lat="45.84843" lon="4.79018">
        <ele>474.6000061</ele>
        <time>2013-08-31T08:03:51Z</time>
      </trkpt>
      <trkpt lat="45.84847" lon="4.79028">
        <ele>470.8999939</ele>
        <time>2013-08-31T08:03:56Z</time>
      </trkpt>
      <trkpt lat="45.84849" lon="4.79033">
        <ele>469.7000122</ele>
        <time>2013-08-31T08:03:57Z</time>
      </trkpt>
      <trkpt lat="45.8485" lon="4.79042">
        <ele>463.5</ele>
        <time>2013-08-31T08:03:59Z</time>
      </trkpt>
      <trkpt lat="45.84853" lon="4.79045">
        <ele>462.5</ele>
        <time>2013-08-31T08:04:00Z</time>
      </trkpt>
      <trkpt lat="45.84852" lon="4.79052">
        <ele>452.8999939</ele>
        <time>2013-08-31T08:04:07Z</time>
      </trkpt>
      <trkpt lat="45.84852" lon="4.79052">
        <ele>452.3999939</ele>
        <time>2013-08-31T08:04:08Z</time>
      </trkpt>
      <trkpt lat="45.84852" lon="4.79052">
        <ele>452.8999939</ele>
        <time>2013-08-31T08:04:09Z</time>
      </trkpt>
      <trkpt lat="45.84853" lon="4.79053">
        <ele>452.1000061</ele>
        <time>2013-08-31T08:04:13Z</time>
      </trkpt>
      <trkpt lat="45.84853" lon="4.79053">
        <ele>452</ele>
        <time>2013-08-31T08:04:14Z</time>
      </trkpt>
      <trkpt lat="45.84853" lon="4.79053">
        <ele>452.1000061</ele>
        <time>2013-08-31T08:04:20Z</time>
      </trkpt>
      <trkpt lat="45.84852" lon="4.79053">
        <ele>452.2000122</ele>
        <time>2013-08-31T08:04:21Z</time>
      </trkpt>
      <trkpt lat="45.84852" lon="4.79052">
        <ele>450.6000061</ele>
        <time>2013-08-31T08:04:23Z</time>
      </trkpt>
      <trkpt lat="45.84852" lon="4.79052">
        <ele>450.2000122</ele>
        <time>2013-08-31T08:04:24Z</time>
      </trkpt>
      <trkpt lat="45.84852" lon="4.79052">
        <ele>450</ele>
        <time>2013-08-31T08:04:26Z</time>
      </trkpt>
      <trkpt lat="45.84852" lon="4.79052">
        <ele>450</ele>
        <time>2013-08-31T08:04:27Z</time>
      </trkpt>
      <trkpt lat="45.84852" lon="4.79052">
        <ele>450</ele>
        <time>2013-08-31T08:04:28Z</time>
      </trkpt>
      <trkpt lat="45.84852" lon="4.79051">
        <ele>450.1000061</ele>
        <time>2013-08-31T08:04:30Z</time>
      </trkpt>
      <trkpt lat="45.84852" lon="4.79051">
        <ele>450</ele>
        <time>2013-08-31T08:04:31Z</time>
      </trkpt>
      <trkpt lat="45.84852" lon="4.79051">
        <ele>450.1000061</ele>
        <time>2013-08-31T08:04:32Z</time>
      </trkpt>
      <trkpt lat="45.84852" lon="4.79051">
        <ele>450.1000061</ele>
        <time>2013-08-31T08:04:44Z</time>
      </trkpt>
      <trkpt lat="45.84852" lon="4.79051">
        <ele>450.1000061</ele>
        <time>2013-08-31T08:04:45Z</time>
      </trkpt>
      <trkpt lat="45.84852" lon="4.79051">
        <ele>450.1000061</ele>
        <time>2013-08-31T08:04:46Z</time>
      </trkpt>
      <trkpt lat="45.84852" lon="4.79051">
        <ele>450.2000122</ele>
        <time>2013-08-31T08:04:47Z</time>
      </trkpt>
      <trkpt lat="45.84852" lon="4.79055">
        <ele>452.7000122</ele>
        <time>2013-08-31T08:04:52Z</time>
      </trkpt>
      <trkpt lat="45.84852" lon="4.79055">
        <ele>453.2000122</ele>
        <time>2013-08-31T08:04:53Z</time>
      </trkpt>
      <trkpt lat="45.84852" lon="4.79055">
        <ele>453.7000122</ele>
        <time>2013-08-31T08:04:54Z</time>
      </trkpt>
      <trkpt lat="45.84852" lon="4.79054">
        <ele>453.7000122</ele>
        <time>2013-08-31T08:04:55Z</time>
      </trkpt>
      <trkpt lat="45.84852" lon="4.79054">
        <ele>453.2999878</ele>
        <time>2013-08-31T08:04:56Z</time>
      </trkpt>
      <trkpt lat="45.84851" lon="4.79054">
        <ele>452.2999878</ele>
        <time>2013-08-31T08:04:57Z</time>
      </trkpt>
      <trkpt lat="45.84851" lon="4.79054">
        <ele>452.1000061</ele>
        <time>2013-08-31T08:04:58Z</time>
      </trkpt>
      <trkpt lat="45.84851" lon="4.79054">
        <ele>452.1000061</ele>
        <time>2013-08-31T08:04:59Z</time>
      </trkpt>
      <trkpt lat="45.84851" lon="4.79054">
        <ele>452</ele>
        <time>2013-08-31T08:05:11Z</time>
      </trkpt>
      <trkpt lat="45.8485" lon="4.79054">
        <ele>451.8999939</ele>
        <time>2013-08-31T08:05:12Z</time>
      </trkpt>
      <trkpt lat="45.84855" lon="4.79063">
        <ele>453.2000122</ele>
        <time>2013-08-31T08:05:16Z</time>
      </trkpt>
      <trkpt lat="45.84855" lon="4.79067">
        <ele>453.7999878</ele>
        <time>2013-08-31T08:05:17Z</time>
      </trkpt>
      <trkpt lat="45.84859" lon="4.79071">
        <ele>454.3999939</ele>
        <time>2013-08-31T08:05:19Z</time>
      </trkpt>
      <trkpt lat="45.84862" lon="4.79076">
        <ele>455.7999878</ele>
        <time>2013-08-31T08:05:20Z</time>
      </trkpt>
      <trkpt lat="45.84865" lon="4.79088">
        <ele>457.3999939</ele>
        <time>2013-08-31T08:05:22Z</time>
      </trkpt>
      <trkpt lat="45.84868" lon="4.79095">
        <ele>458.5</ele>
        <time>2013-08-31T08:05:23Z</time>
      </trkpt>
      <trkpt lat="45.84873" lon="4.79105">
        <ele>460.7000122</ele>
        <time>2013-08-31T08:05:25Z</time>
      </trkpt>
      <trkpt lat="45.84875" lon="4.79112">
        <ele>461.5</ele>
        <time>2013-08-31T08:05:26Z</time>
      </trkpt>
      <trkpt lat="45.84875" lon="4.79118">
        <ele>462.7000122</ele>
        <time>2013-08-31T08:05:27Z</time>
      </trkpt>
      <trkpt lat="45.84875" lon="4.79126">
        <ele>462.8999939</ele>
        <time>2013-08-31T08:05:28Z</time>
      </trkpt>
      <trkpt lat="45.84874" lon="4.79135">
        <ele>463.5</ele>
        <time>2013-08-31T08:05:30Z</time>
      </trkpt>
      <trkpt lat="45.84875" lon="4.79139">
        <ele>464</ele>
        <time>2013-08-31T08:05:31Z</time>
      </trkpt>
      <trkpt lat="45.84877" lon="4.7915">
        <ele>465.7000122</ele>
        <time>2013-08-31T08:05:34Z</time>
      </trkpt>
      <trkpt lat="45.84876" lon="4.79154">
        <ele>466</ele>
        <time>2013-08-31T08:05:35Z</time>
      </trkpt>
      <trkpt lat="45.84878" lon="4.79166">
        <ele>466.7000122</ele>
        <time>2013-08-31T08:05:39Z</time>
      </trkpt>
      <trkpt lat="45.84877" lon="4.79168">
        <ele>467.5</ele>
        <time>2013-08-31T08:05:40Z</time>
      </trkpt>
      <trkpt lat="45.84876" lon="4.7918">
        <ele>467.8999939</ele>
        <time>2013-08-31T08:05:44Z</time>
      </trkpt>
      <trkpt lat="45.84876" lon="4.79184">
        <ele>467.5</ele>
        <time>2013-08-31T08:05:45Z</time>
      </trkpt>
      <trkpt lat="45.84872" lon="4.79194">
        <ele>466.3999939</ele>
        <time>2013-08-31T08:05:49Z</time>
      </trkpt>
      <trkpt lat="45.84871" lon="4.79197">
        <ele>466</ele>
        <time>2013-08-31T08:05:50Z</time>
      </trkpt>
      <trkpt lat="45.84866" lon="4.79204">
        <ele>465.3999939</ele>
        <time>2013-08-31T08:05:52Z</time>
      </trkpt>
      <trkpt lat="45.84865" lon="4.79207">
        <ele>464.7000122</ele>
        <time>2013-08-31T08:05:53Z</time>
      </trkpt>
      <trkpt lat="45.84868" lon="4.79218">
        <ele>463.2999878</ele>
        <time>2013-08-31T08:06:02Z</time>
      </trkpt>
      <trkpt lat="45.84868" lon="4.7922">
        <ele>463.2000122</ele>
        <time>2013-08-31T08:06:03Z</time>
      </trkpt>
      <trkpt lat="45.8487" lon="4.79222">
        <ele>462.7000122</ele>
        <time>2013-08-31T08:06:06Z</time>
      </trkpt>
      <trkpt lat="45.8487" lon="4.79222">
        <ele>462.7000122</ele>
        <time>2013-08-31T08:06:07Z</time>
      </trkpt>
      <trkpt lat="45.84871" lon="4.79223">
        <ele>462.7000122</ele>
        <time>2013-08-31T08:06:11Z</time>
      </trkpt>
      <trkpt lat="45.84877" lon="4.7923">
        <ele>461.7999878</ele>
        <time>2013-08-31T08:06:12Z</time>
      </trkpt>
      <trkpt lat="45.84883" lon="4.79237">
        <ele>463.7999878</ele>
        <time>2013-08-31T08:06:13Z</time>
      </trkpt>
      <trkpt lat="45.84884" lon="4.79244">
        <ele>461.8999939</ele>
        <time>2013-08-31T08:06:14Z</time>
      </trkpt>
      <trkpt lat="45.84887" lon="4.79251">
        <ele>460.2999878</ele>
        <time>2013-08-31T08:06:16Z</time>
      </trkpt>
      <trkpt lat="45.84891" lon="4.79255">
        <ele>459.7000122</ele>
        <time>2013-08-31T08:06:17Z</time>
      </trkpt>
      <trkpt lat="45.84892" lon="4.79265">
        <ele>457.7000122</ele>
        <time>2013-08-31T08:06:19Z</time>
      </trkpt>
      <trkpt lat="45.84894" lon="4.79267">
        <ele>457.6000061</ele>
        <time>2013-08-31T08:06:20Z</time>
      </trkpt>
      <trkpt lat="45.84899" lon="4.79273">
        <ele>454.7000122</ele>
        <time>2013-08-31T08:06:22Z</time>
      </trkpt>
      <trkpt lat="45.84902" lon="4.79276">
        <ele>454.5</ele>
        <time>2013-08-31T08:06:23Z</time>
      </trkpt>
      <trkpt lat="45.84908" lon="4.79281">
        <ele>454.7000122</ele>
        <time>2013-08-31T08:06:25Z</time>
      </trkpt>
      <trkpt lat="45.84913" lon="4.79285">
        <ele>454.7999878</ele>
        <time>2013-08-31T08:06:26Z</time>
      </trkpt>
      <trkpt lat="45.8492" lon="4.7929">
        <ele>457.7000122</ele>
        <time>2013-08-31T08:06:29Z</time>
      </trkpt>
      <trkpt lat="45.84922" lon="4.79291">
        <ele>458.3999939</ele>
        <time>2013-08-31T08:06:30Z</time>
      </trkpt>
      <trkpt lat="45.84928" lon="4.79295">
        <ele>458.7000122</ele>
        <time>2013-08-31T08:06:35Z</time>
      </trkpt>
      <trkpt lat="45.84928" lon="4.79295">
        <ele>459.2000122</ele>
        <time>2013-08-31T08:06:36Z</time>
      </trkpt>
      <trkpt lat="45.84929" lon="4.79295">
        <ele>459.6000061</ele>
        <time>2013-08-31T08:06:37Z</time>
      </trkpt>
      <trkpt lat="45.84938" lon="4.79297">
        <ele>460.2999878</ele>
        <time>2013-08-31T08:06:41Z</time>
      </trkpt>
      <trkpt lat="45.8494" lon="4.79298">
        <ele>460.7000122</ele>
        <time>2013-08-31T08:06:42Z</time>
      </trkpt>
      <trkpt lat="45.84949" lon="4.79301">
        <ele>459.5</ele>
        <time>2013-08-31T08:06:48Z</time>
      </trkpt>
      <trkpt lat="45.84951" lon="4.79301">
        <ele>459.1000061</ele>
        <time>2013-08-31T08:06:49Z</time>
      </trkpt>
      <trkpt lat="45.84951" lon="4.79288">
        <ele>463.2000122</ele>
        <time>2013-08-31T08:07:04Z</time>
      </trkpt>
      <trkpt lat="45.8495" lon="4.79285">
        <ele>463.2000122</ele>
        <time>2013-08-31T08:07:05Z</time>
      </trkpt>
      <trkpt lat="45.84946" lon="4.79279">
        <ele>464.7999878</ele>
        <time>2013-08-31T08:07:10Z</time>
      </trkpt>
      <trkpt lat="45.84946" lon="4.79279">
        <ele>465.5</ele>
        <time>2013-08-31T08:07:11Z</time>
      </trkpt>
      <trkpt lat="45.84945" lon="4.79278">
        <ele>465.5</ele>
        <time>2013-08-31T08:07:12Z</time>
      </trkpt>
      <trkpt lat="45.84942" lon="4.79269">
        <ele>464.7000122</ele>
        <time>2013-08-31T08:07:16Z</time>
      </trkpt>
      <trkpt lat="45.84943" lon="4.79263">
        <ele>464.6000061</ele>
        <time>2013-08-31T08:07:17Z</time>
      </trkpt>
      <trkpt lat="45.84944" lon="4.79253">
        <ele>463.6000061</ele>
        <time>2013-08-31T08:07:19Z</time>
      </trkpt>
      <trkpt lat="45.84947" lon="4.79251">
        <ele>461.2999878</ele>
        <time>2013-08-31T08:07:20Z</time>
      </trkpt>
      <trkpt lat="45.84955" lon="4.79246">
        <ele>466.2000122</ele>
        <time>2013-08-31T08:07:27Z</time>
      </trkpt>
      <trkpt lat="45.84956" lon="4.79245">
        <ele>466.2000122</ele>
        <time>2013-08-31T08:07:28Z</time>
      </trkpt>
      <trkpt lat="45.84963" lon="4.79243">
        <ele>469.3999939</ele>
        <time>2013-08-31T08:07:33Z</time>
      </trkpt>
      <trkpt lat="45.84966" lon="4.79243">
        <ele>468.5</ele>
        <time>2013-08-31T08:07:34Z</time>
      </trkpt>
      <trkpt lat="45.84973" lon="4.7924">
        <ele>468.6000061</ele>
        <time>2013-08-31T08:07:40Z</time>
      </trkpt>
      <trkpt lat="45.84975" lon="4.7924">
        <ele>469.3999939</ele>
        <time>2013-08-31T08:07:41Z</time>
      </trkpt>
      <trkpt lat="45.84983" lon="4.7924">
        <ele>471.2000122</ele>
        <time>2013-08-31T08:07:46Z</time>
      </trkpt>
      <trkpt lat="45.84985" lon="4.79238">
        <ele>471.1000061</ele>
        <time>2013-08-31T08:07:47Z</time>
      </trkpt>
      <trkpt lat="45.84988" lon="4.79239">
        <ele>471</ele>
        <time>2013-08-31T08:07:48Z</time>
      </trkpt>
      <trkpt lat="45.84994" lon="4.79241">
        <ele>471</ele>
        <time>2013-08-31T08:07:49Z</time>
      </trkpt>
      <trkpt lat="45.85003" lon="4.7924">
        <ele>473.1000061</ele>
        <time>2013-08-31T08:07:54Z</time>
      </trkpt>
      <trkpt lat="45.85004" lon="4.7924">
        <ele>472.7000122</ele>
        <time>2013-08-31T08:07:55Z</time>
      </trkpt>
      <trkpt lat="45.8501" lon="4.7924">
        <ele>473.2000122</ele>
        <time>2013-08-31T08:07:58Z</time>
      </trkpt>
      <trkpt lat="45.85013" lon="4.79241">
        <ele>473.7999878</ele>
        <time>2013-08-31T08:07:59Z</time>
      </trkpt>
      <trkpt lat="45.8502" lon="4.79239">
        <ele>474.2000122</ele>
        <time>2013-08-31T08:08:02Z</time>
      </trkpt>
      <trkpt lat="45.85022" lon="4.79239">
        <ele>474</ele>
        <time>2013-08-31T08:08:03Z</time>
      </trkpt>
      <trkpt lat="45.85028" lon="4.79243">
        <ele>473.5</ele>
        <time>2013-08-31T08:08:06Z</time>
      </trkpt>
      <trkpt lat="45.85033" lon="4.79242">
        <ele>469.2000122</ele>
        <time>2013-08-31T08:08:07Z</time>
      </trkpt>
      <trkpt lat="45.8504" lon="4.79241">
        <ele>466.2999878</ele>
        <time>2013-08-31T08:08:10Z</time>
      </trkpt>
      <trkpt lat="45.85042" lon="4.79242">
        <ele>466.2999878</ele>
        <time>2013-08-31T08:08:11Z</time>
      </trkpt>
      <trkpt lat="45.85048" lon="4.79245">
        <ele>467.7000122</ele>
        <time>2013-08-31T08:08:19Z</time>
      </trkpt>
      <trkpt lat="45.85048" lon="4.79245">
        <ele>467.7000122</ele>
        <time>2013-08-31T08:08:20Z</time>
      </trkpt>
      <trkpt lat="45.85048" lon="4.79245">
        <ele>468.1000061</ele>
        <time>2013-08-31T08:08:21Z</time>
      </trkpt>
      <trkpt lat="45.85049" lon="4.79245">
        <ele>468.3999939</ele>
        <time>2013-08-31T08:08:22Z</time>
      </trkpt>
      <trkpt lat="45.85054" lon="4.79244">
        <ele>469.1000061</ele>
        <time>2013-08-31T08:08:24Z</time>
      </trkpt>
      <trkpt lat="45.85061" lon="4.79244">
        <ele>469.5</ele>
        <time>2013-08-31T08:08:25Z</time>
      </trkpt>
      <trkpt lat="45.85069" lon="4.79244">
        <ele>470.2999878</ele>
        <time>2013-08-31T08:08:27Z</time>
      </trkpt>
      <trkpt lat="45.85074" lon="4.79244">
        <ele>471.6000061</ele>
        <time>2013-08-31T08:08:28Z</time>
      </trkpt>
      <trkpt lat="45.85081" lon="4.7924">
        <ele>472.5</ele>
        <time>2013-08-31T08:08:30Z</time>
      </trkpt>
      <trkpt lat="45.85083" lon="4.7924">
        <ele>473.7000122</ele>
        <time>2013-08-31T08:08:31Z</time>
      </trkpt>
      <trkpt lat="45.85092" lon="4.7924">
        <ele>476</ele>
        <time>2013-08-31T08:08:34Z</time>
      </trkpt>
      <trkpt lat="45.85093" lon="4.79239">
        <ele>476.8999939</ele>
        <time>2013-08-31T08:08:35Z</time>
      </trkpt>
      <trkpt lat="45.851" lon="4.79233">
        <ele>475.7000122</ele>
        <time>2013-08-31T08:08:38Z</time>
      </trkpt>
      <trkpt lat="45.85102" lon="4.79232">
        <ele>475.7000122</ele>
        <time>2013-08-31T08:08:39Z</time>
      </trkpt>
      <trkpt lat="45.85111" lon="4.79228">
        <ele>477</ele>
        <time>2013-08-31T08:08:43Z</time>
      </trkpt>
      <trkpt lat="45.85113" lon="4.79228">
        <ele>477</ele>
        <time>2013-08-31T08:08:44Z</time>
      </trkpt>
      <trkpt lat="45.85119" lon="4.79221">
        <ele>480</ele>
        <time>2013-08-31T08:08:48Z</time>
      </trkpt>
      <trkpt lat="45.85122" lon="4.7922">
        <ele>479.6000061</ele>
        <time>2013-08-31T08:08:49Z</time>
      </trkpt>
      <trkpt lat="45.85127" lon="4.7922">
        <ele>479.6000061</ele>
        <time>2013-08-31T08:08:51Z</time>
      </trkpt>
      <trkpt lat="45.85131" lon="4.7922">
        <ele>479.3999939</ele>
        <time>2013-08-31T08:08:52Z</time>
      </trkpt>
      <trkpt lat="45.85138" lon="4.79225">
        <ele>482.5</ele>
        <time>2013-08-31T08:08:56Z</time>
      </trkpt>
      <trkpt lat="45.85139" lon="4.79227">
        <ele>483</ele>
        <time>2013-08-31T08:08:57Z</time>
      </trkpt>
      <trkpt lat="45.85145" lon="4.79232">
        <ele>488.5</ele>
        <time>2013-08-31T08:09:05Z</time>
      </trkpt>
      <trkpt lat="45.85149" lon="4.79235">
        <ele>488.6000061</ele>
        <time>2013-08-31T08:09:06Z</time>
      </trkpt>
      <trkpt lat="45.85155" lon="4.79241">
        <ele>483.2000122</ele>
        <time>2013-08-31T08:09:13Z</time>
      </trkpt>
      <trkpt lat="45.85157" lon="4.7924">
        <ele>482.7000122</ele>
        <time>2013-08-31T08:09:14Z</time>
      </trkpt>
      <trkpt lat="45.85165" lon="4.79243">
        <ele>483.7999878</ele>
        <time>2013-08-31T08:09:19Z</time>
      </trkpt>
      <trkpt lat="45.85167" lon="4.79244">
        <ele>484.1000061</ele>
        <time>2013-08-31T08:09:20Z</time>
      </trkpt>
      <trkpt lat="45.85175" lon="4.79242">
        <ele>484.2999878</ele>
        <time>2013-08-31T08:09:26Z</time>
      </trkpt>
      <trkpt lat="45.85177" lon="4.79241">
        <ele>486.1000061</ele>
        <time>2013-08-31T08:09:27Z</time>
      </trkpt>
      <trkpt lat="45.85185" lon="4.79238">
        <ele>488.8999939</ele>
        <time>2013-08-31T08:09:31Z</time>
      </trkpt>
      <trkpt lat="45.85186" lon="4.79237">
        <ele>489.1000061</ele>
        <time>2013-08-31T08:09:32Z</time>
      </trkpt>
      <trkpt lat="45.85194" lon="4.79231">
        <ele>488.7999878</ele>
        <time>2013-08-31T08:09:37Z</time>
      </trkpt>
      <trkpt lat="45.85195" lon="4.79231">
        <ele>488.6000061</ele>
        <time>2013-08-31T08:09:38Z</time>
      </trkpt>
      <trkpt lat="45.85203" lon="4.79227">
        <ele>488.8999939</ele>
        <time>2013-08-31T08:09:43Z</time>
      </trkpt>
      <trkpt lat="45.85205" lon="4.79226">
        <ele>489.1000061</ele>
        <time>2013-08-31T08:09:44Z</time>
      </trkpt>
      <trkpt lat="45.85209" lon="4.7922">
        <ele>490.1000061</ele>
        <time>2013-08-31T08:09:53Z</time>
      </trkpt>
      <trkpt lat="45.85209" lon="4.7922">
        <ele>490.2000122</ele>
        <time>2013-08-31T08:09:54Z</time>
      </trkpt>
      <trkpt lat="45.85209" lon="4.7922">
        <ele>490.2999878</ele>
        <time>2013-08-31T08:09:57Z</time>
      </trkpt>
      <trkpt lat="45.85209" lon="4.79221">
        <ele>492.3999939</ele>
        <time>2013-08-31T08:09:58Z</time>
      </trkpt>
      <trkpt lat="45.85208" lon="4.79222">
        <ele>492.6000061</ele>
        <time>2013-08-31T08:09:59Z</time>
      </trkpt>
      <trkpt lat="45.85208" lon="4.79222">
        <ele>492.5</ele>
        <time>2013-08-31T08:10:00Z</time>
      </trkpt>
      <trkpt lat="45.85209" lon="4.79222">
        <ele>492.7000122</ele>
        <time>2013-08-31T08:10:05Z</time>
      </trkpt>
      <trkpt lat="45.8521" lon="4.79222">
        <ele>492.6000061</ele>
        <time>2013-08-31T08:10:06Z</time>
      </trkpt>
      <trkpt lat="45.85214" lon="4.7922">
        <ele>490.7999878</ele>
        <time>2013-08-31T08:10:14Z</time>
      </trkpt>
      <trkpt lat="45.85214" lon="4.7922">
        <ele>491</ele>
        <time>2013-08-31T08:10:15Z</time>
      </trkpt>
      <trkpt lat="45.85214" lon="4.7922">
        <ele>491.1000061</ele>
        <time>2013-08-31T08:10:19Z</time>
      </trkpt>
      <trkpt lat="45.85214" lon="4.79219">
        <ele>491.2000122</ele>
        <time>2013-08-31T08:10:20Z</time>
      </trkpt>
      <trkpt lat="45.85206" lon="4.79221">
        <ele>493.3999939</ele>
        <time>2013-08-31T08:10:31Z</time>
      </trkpt>
      <trkpt lat="45.85205" lon="4.7922">
        <ele>493.5</ele>
        <time>2013-08-31T08:10:32Z</time>
      </trkpt>
      <trkpt lat="45.85207" lon="4.79209">
        <ele>489.8999939</ele>
        <time>2013-08-31T08:10:40Z</time>
      </trkpt>
      <trkpt lat="45.85207" lon="4.79206">
        <ele>490.1000061</ele>
        <time>2013-08-31T08:10:41Z</time>
      </trkpt>
      <trkpt lat="45.85208" lon="4.792">
        <ele>489.2000122</ele>
        <time>2013-08-31T08:10:46Z</time>
      </trkpt>
      <trkpt lat="45.85208" lon="4.792">
        <ele>489.2999878</ele>
        <time>2013-08-31T08:10:47Z</time>
      </trkpt>
      <trkpt lat="45.85207" lon="4.792">
        <ele>489.2999878</ele>
        <time>2013-08-31T08:10:51Z</time>
      </trkpt>
      <trkpt lat="45.85208" lon="4.79199">
        <ele>489.3999939</ele>
        <time>2013-08-31T08:10:52Z</time>
      </trkpt>
      <trkpt lat="45.85207" lon="4.79199">
        <ele>489.6000061</ele>
        <time>2013-08-31T08:10:53Z</time>
      </trkpt>
      <trkpt lat="45.85207" lon="4.792">
        <ele>489.3999939</ele>
        <time>2013-08-31T08:10:57Z</time>
      </trkpt>
      <trkpt lat="45.85207" lon="4.79199">
        <ele>488.7999878</ele>
        <time>2013-08-31T08:10:58Z</time>
      </trkpt>
      <trkpt lat="45.85207" lon="4.79199">
        <ele>489.2000122</ele>
        <time>2013-08-31T08:11:00Z</time>
      </trkpt>
      <trkpt lat="45.85207" lon="4.79199">
        <ele>489.2000122</ele>
        <time>2013-08-31T08:11:01Z</time>
      </trkpt>
      <trkpt lat="45.85207" lon="4.79199">
        <ele>489.2999878</ele>
        <time>2013-08-31T08:11:02Z</time>
      </trkpt>
      <trkpt lat="45.85206" lon="4.79199">
        <ele>489.2999878</ele>
        <time>2013-08-31T08:11:04Z</time>
      </trkpt>
      <trkpt lat="45.85206" lon="4.79199">
        <ele>489.2999878</ele>
        <time>2013-08-31T08:11:05Z</time>
      </trkpt>
      <trkpt lat="45.85206" lon="4.79199">
        <ele>489.3999939</ele>
        <time>2013-08-31T08:11:06Z</time>
      </trkpt>
      <trkpt lat="45.85205" lon="4.792">
        <ele>489.7999878</ele>
        <time>2013-08-31T08:11:07Z</time>
      </trkpt>
      <trkpt lat="45.85203" lon="4.79211">
        <ele>488.6000061</ele>
        <time>2013-08-31T08:11:11Z</time>
      </trkpt>
      <trkpt lat="45.85202" lon="4.79213">
        <ele>488.2999878</ele>
        <time>2013-08-31T08:11:12Z</time>
      </trkpt>
      <trkpt lat="45.85198" lon="4.79222">
        <ele>489.8999939</ele>
        <time>2013-08-31T08:11:16Z</time>
      </trkpt>
      <trkpt lat="45.85198" lon="4.79224">
        <ele>490.2999878</ele>
        <time>2013-08-31T08:11:17Z</time>
      </trkpt>
      <trkpt lat="45.85191" lon="4.79231">
        <ele>490</ele>
        <time>2013-08-31T08:11:24Z</time>
      </trkpt>
      <trkpt lat="45.85191" lon="4.79231">
        <ele>490</ele>
        <time>2013-08-31T08:11:25Z</time>
      </trkpt>
      <trkpt lat="45.85191" lon="4.79231">
        <ele>490.1000061</ele>
        <time>2013-08-31T08:11:31Z</time>
      </trkpt>
      <trkpt lat="45.8519" lon="4.79231">
        <ele>490.3999939</ele>
        <time>2013-08-31T08:11:32Z</time>
      </trkpt>
      <trkpt lat="45.85186" lon="4.79236">
        <ele>491.5</ele>
        <time>2013-08-31T08:11:37Z</time>
      </trkpt>
      <trkpt lat="45.85182" lon="4.79238">
        <ele>491.5</ele>
        <time>2013-08-31T08:11:38Z</time>
      </trkpt>
      <trkpt lat="45.85176" lon="4.79245">
        <ele>490.3999939</ele>
        <time>2013-08-31T08:11:42Z</time>
      </trkpt>
      <trkpt lat="45.85174" lon="4.79246">
        <ele>490</ele>
        <time>2013-08-31T08:11:43Z</time>
      </trkpt>
      <trkpt lat="45.85167" lon="4.79253">
        <ele>491.3999939</ele>
        <time>2013-08-31T08:11:49Z</time>
      </trkpt>
      <trkpt lat="45.85166" lon="4.79254">
        <ele>491.6000061</ele>
        <time>2013-08-31T08:11:50Z</time>
      </trkpt>
      <trkpt lat="45.85161" lon="4.79261">
        <ele>493.2999878</ele>
        <time>2013-08-31T08:12:00Z</time>
      </trkpt>
      <trkpt lat="45.85161" lon="4.7926">
        <ele>493.2000122</ele>
        <time>2013-08-31T08:12:01Z</time>
      </trkpt>
      <trkpt lat="45.8516" lon="4.7926">
        <ele>493.1000061</ele>
        <time>2013-08-31T08:12:03Z</time>
      </trkpt>
      <trkpt lat="45.8516" lon="4.79259">
        <ele>493.1000061</ele>
        <time>2013-08-31T08:12:04Z</time>
      </trkpt>
      <trkpt lat="45.85157" lon="4.79248">
        <ele>493.7000122</ele>
        <time>2013-08-31T08:12:09Z</time>
      </trkpt>
      <trkpt lat="45.85155" lon="4.79245">
        <ele>494.2999878</ele>
        <time>2013-08-31T08:12:10Z</time>
      </trkpt>
      <trkpt lat="45.85148" lon="4.79241">
        <ele>491.8999939</ele>
        <time>2013-08-31T08:12:11Z</time>
      </trkpt>
      <trkpt lat="45.85146" lon="4.79237">
        <ele>491.8999939</ele>
        <time>2013-08-31T08:12:12Z</time>
      </trkpt>
      <trkpt lat="45.85142" lon="4.79228">
        <ele>493.2999878</ele>
        <time>2013-08-31T08:12:17Z</time>
      </trkpt>
      <trkpt lat="45.8514" lon="4.79227">
        <ele>493.1000061</ele>
        <time>2013-08-31T08:12:18Z</time>
      </trkpt>
      <trkpt lat="45.85132" lon="4.79229">
        <ele>493.3999939</ele>
        <time>2013-08-31T08:12:21Z</time>
      </trkpt>
      <trkpt lat="45.85129" lon="4.7923">
        <ele>493</ele>
        <time>2013-08-31T08:12:22Z</time>
      </trkpt>
      <trkpt lat="45.85123" lon="4.79231">
        <ele>492.3999939</ele>
        <time>2013-08-31T08:12:24Z</time>
      </trkpt>
      <trkpt lat="45.8512" lon="4.79233">
        <ele>492.2000122</ele>
        <time>2013-08-31T08:12:25Z</time>
      </trkpt>
      <trkpt lat="45.85111" lon="4.79236">
        <ele>491.7000122</ele>
        <time>2013-08-31T08:12:28Z</time>
      </trkpt>
      <trkpt lat="45.85108" lon="4.79236">
        <ele>491.6000061</ele>
        <time>2013-08-31T08:12:29Z</time>
      </trkpt>
      <trkpt lat="45.85102" lon="4.79238">
        <ele>491.1000061</ele>
        <time>2013-08-31T08:12:31Z</time>
      </trkpt>
      <trkpt lat="45.85097" lon="4.7924">
        <ele>491.3999939</ele>
        <time>2013-08-31T08:12:32Z</time>
      </trkpt>
      <trkpt lat="45.8509" lon="4.79241">
        <ele>493.5</ele>
        <time>2013-08-31T08:12:35Z</time>
      </trkpt>
      <trkpt lat="45.85087" lon="4.79241">
        <ele>493.2000122</ele>
        <time>2013-08-31T08:12:36Z</time>
      </trkpt>
      <trkpt lat="45.8508" lon="4.79242">
        <ele>492.3999939</ele>
        <time>2013-08-31T08:12:39Z</time>
      </trkpt>
      <trkpt lat="45.85076" lon="4.79244">
        <ele>494.8999939</ele>
        <time>2013-08-31T08:12:40Z</time>
      </trkpt>
      <trkpt lat="45.85075" lon="4.79256">
        <ele>489.2999878</ele>
        <time>2013-08-31T08:12:46Z</time>
      </trkpt>
      <trkpt lat="45.85075" lon="4.79257">
        <ele>488.7999878</ele>
        <time>2013-08-31T08:12:47Z</time>
      </trkpt>
      <trkpt lat="45.85079" lon="4.79268">
        <ele>485.6000061</ele>
        <time>2013-08-31T08:12:52Z</time>
      </trkpt>
      <trkpt lat="45.8508" lon="4.7927">
        <ele>484.6000061</ele>
        <time>2013-08-31T08:12:53Z</time>
      </trkpt>
      <trkpt lat="45.85087" lon="4.7927">
        <ele>483.8999939</ele>
        <time>2013-08-31T08:12:56Z</time>
      </trkpt>
      <trkpt lat="45.85089" lon="4.7927">
        <ele>483.2999878</ele>
        <time>2013-08-31T08:12:57Z</time>
      </trkpt>
      <trkpt lat="45.85097" lon="4.7927">
        <ele>483.7999878</ele>
        <time>2013-08-31T08:13:00Z</time>
      </trkpt>
      <trkpt lat="45.85099" lon="4.79271">
        <ele>484.7999878</ele>
        <time>2013-08-31T08:13:01Z</time>
      </trkpt>
      <trkpt lat="45.85108" lon="4.79271">
        <ele>484.5</ele>
        <time>2013-08-31T08:13:05Z</time>
      </trkpt>
      <trkpt lat="45.85109" lon="4.79271">
        <ele>484.5</ele>
        <time>2013-08-31T08:13:06Z</time>
      </trkpt>
      <trkpt lat="45.85117" lon="4.79271">
        <ele>485</ele>
        <time>2013-08-31T08:13:12Z</time>
      </trkpt>
      <trkpt lat="45.85121" lon="4.79271">
        <ele>483.6000061</ele>
        <time>2013-08-31T08:13:13Z</time>
      </trkpt>
      <trkpt lat="45.85127" lon="4.7927">
        <ele>483.2999878</ele>
        <time>2013-08-31T08:13:15Z</time>
      </trkpt>
      <trkpt lat="45.85131" lon="4.79272">
        <ele>483</ele>
        <time>2013-08-31T08:13:16Z</time>
      </trkpt>
      <trkpt lat="45.8514" lon="4.79269">
        <ele>479.3999939</ele>
        <time>2013-08-31T08:13:20Z</time>
      </trkpt>
      <trkpt lat="45.8514" lon="4.79267">
        <ele>479.2000122</ele>
        <time>2013-08-31T08:13:21Z</time>
      </trkpt>
      <trkpt lat="45.85147" lon="4.79264">
        <ele>479.7999878</ele>
        <time>2013-08-31T08:13:26Z</time>
      </trkpt>
      <trkpt lat="45.8515" lon="4.79264">
        <ele>480</ele>
        <time>2013-08-31T08:13:27Z</time>
      </trkpt>
      <trkpt lat="45.85155" lon="4.79266">
        <ele>481.2000122</ele>
        <time>2013-08-31T08:13:29Z</time>
      </trkpt>
      <trkpt lat="45.8516" lon="4.79268">
        <ele>481.3999939</ele>
        <time>2013-08-31T08:13:30Z</time>
      </trkpt>
      <trkpt lat="45.85167" lon="4.79272">
        <ele>479.8999939</ele>
        <time>2013-08-31T08:13:32Z</time>
      </trkpt>
      <trkpt lat="45.8517" lon="4.79273">
        <ele>479.6000061</ele>
        <time>2013-08-31T08:13:33Z</time>
      </trkpt>
      <trkpt lat="45.85177" lon="4.79276">
        <ele>479.8999939</ele>
        <time>2013-08-31T08:13:38Z</time>
      </trkpt>
      <trkpt lat="45.85178" lon="4.79277">
        <ele>480.1000061</ele>
        <time>2013-08-31T08:13:39Z</time>
      </trkpt>
      <trkpt lat="45.85185" lon="4.79285">
        <ele>480.6000061</ele>
        <time>2013-08-31T08:13:43Z</time>
      </trkpt>
      <trkpt lat="45.85188" lon="4.79287">
        <ele>481.3999939</ele>
        <time>2013-08-31T08:13:44Z</time>
      </trkpt>
      <trkpt lat="45.85194" lon="4.79293">
        <ele>481.3999939</ele>
        <time>2013-08-31T08:13:47Z</time>
      </trkpt>
      <trkpt lat="45.85195" lon="4.79296">
        <ele>481.1000061</ele>
        <time>2013-08-31T08:13:48Z</time>
      </trkpt>
      <trkpt lat="45.85199" lon="4.79303">
        <ele>480.5</ele>
        <time>2013-08-31T08:13:50Z</time>
      </trkpt>
      <trkpt lat="45.85202" lon="4.79306">
        <ele>480.1000061</ele>
        <time>2013-08-31T08:13:51Z</time>
      </trkpt>
      <trkpt lat="45.85206" lon="4.79312">
        <ele>479.2000122</ele>
        <time>2013-08-31T08:13:53Z</time>
      </trkpt>
      <trkpt lat="45.8521" lon="4.79315">
        <ele>478.5</ele>
        <time>2013-08-31T08:13:54Z</time>
      </trkpt>
      <trkpt lat="45.85217" lon="4.79322">
        <ele>476.1000061</ele>
        <time>2013-08-31T08:13:56Z</time>
      </trkpt>
      <trkpt lat="45.85221" lon="4.79325">
        <ele>475.2999878</ele>
        <time>2013-08-31T08:13:57Z</time>
      </trkpt>
      <trkpt lat="45.85226" lon="4.79331">
        <ele>470</ele>
        <time>2013-08-31T08:14:02Z</time>
      </trkpt>
      <trkpt lat="45.85226" lon="4.79331">
        <ele>469.8999939</ele>
        <time>2013-08-31T08:14:03Z</time>
      </trkpt>
      <trkpt lat="45.85227" lon="4.79333">
        <ele>469.2000122</ele>
        <time>2013-08-31T08:14:04Z</time>
      </trkpt>
      <trkpt lat="45.85233" lon="4.79335">
        <ele>464.7000122</ele>
        <time>2013-08-31T08:14:08Z</time>
      </trkpt>
      <trkpt lat="45.85233" lon="4.79335">
        <ele>464.2999878</ele>
        <time>2013-08-31T08:14:09Z</time>
      </trkpt>
      <trkpt lat="45.85233" lon="4.79335">
        <ele>464.2000122</ele>
        <time>2013-08-31T08:14:10Z</time>
      </trkpt>
      <trkpt lat="45.85233" lon="4.79336">
        <ele>463.7999878</ele>
        <time>2013-08-31T08:14:11Z</time>
      </trkpt>
      <trkpt lat="45.85234" lon="4.79336">
        <ele>463.6000061</ele>
        <time>2013-08-31T08:14:12Z</time>
      </trkpt>
      <trkpt lat="45.85234" lon="4.79335">
        <ele>462.7999878</ele>
        <time>2013-08-31T08:14:13Z</time>
      </trkpt>
      <trkpt lat="45.85234" lon="4.79336">
        <ele>463.3999939</ele>
        <time>2013-08-31T08:14:15Z</time>
      </trkpt>
      <trkpt lat="45.85234" lon="4.79336">
        <ele>463.2999878</ele>
        <time>2013-08-31T08:14:16Z</time>
      </trkpt>
      <trkpt lat="45.85235" lon="4.79336">
        <ele>463</ele>
        <time>2013-08-31T08:14:17Z</time>
      </trkpt>
      <trkpt lat="45.85235" lon="4.79336">
        <ele>463.3999939</ele>
        <time>2013-08-31T08:14:18Z</time>
      </trkpt>
      <trkpt lat="45.85235" lon="4.79336">
        <ele>463.3999939</ele>
        <time>2013-08-31T08:14:19Z</time>
      </trkpt>
      <trkpt lat="45.85235" lon="4.79336">
        <ele>463.6000061</ele>
        <time>2013-08-31T08:14:20Z</time>
      </trkpt>
      <trkpt lat="45.85242" lon="4.79335">
        <ele>464.1000061</ele>
        <time>2013-08-31T08:14:23Z</time>
      </trkpt>
      <trkpt lat="45.85246" lon="4.79334">
        <ele>463.8999939</ele>
        <time>2013-08-31T08:14:24Z</time>
      </trkpt>
      <trkpt lat="45.85252" lon="4.79334">
        <ele>464</ele>
        <time>2013-08-31T08:14:26Z</time>
      </trkpt>
      <trkpt lat="45.85255" lon="4.79334">
        <ele>463.7999878</ele>
        <time>2013-08-31T08:14:27Z</time>
      </trkpt>
      <trkpt lat="45.85262" lon="4.79334">
        <ele>463.3999939</ele>
        <time>2013-08-31T08:14:29Z</time>
      </trkpt>
      <trkpt lat="45.85265" lon="4.79333">
        <ele>462.6000061</ele>
        <time>2013-08-31T08:14:30Z</time>
      </trkpt>
      <trkpt lat="45.85273" lon="4.79334">
        <ele>462.1000061</ele>
        <time>2013-08-31T08:14:32Z</time>
      </trkpt>
      <trkpt lat="45.85277" lon="4.79333">
        <ele>461.7000122</ele>
        <time>2013-08-31T08:14:33Z</time>
      </trkpt>
      <trkpt lat="45.85281" lon="4.79333">
        <ele>461.5</ele>
        <time>2013-08-31T08:14:34Z</time>
      </trkpt>
      <trkpt lat="45.85288" lon="4.79334">
        <ele>461.6000061</ele>
        <time>2013-08-31T08:14:35Z</time>
      </trkpt>
      <trkpt lat="45.85293" lon="4.79335">
        <ele>462.2999878</ele>
        <time>2013-08-31T08:14:36Z</time>
      </trkpt>
      <trkpt lat="45.853" lon="4.79332">
        <ele>460.2999878</ele>
        <time>2013-08-31T08:14:37Z</time>
      </trkpt>
      <trkpt lat="45.85306" lon="4.79334">
        <ele>459.5</ele>
        <time>2013-08-31T08:14:38Z</time>
      </trkpt>
      <trkpt lat="45.85319" lon="4.79341">
        <ele>457.2000122</ele>
        <time>2013-08-31T08:14:39Z</time>
      </trkpt>
      <trkpt lat="45.85328" lon="4.79346">
        <ele>455.7999878</ele>
        <time>2013-08-31T08:14:40Z</time>
      </trkpt>
      <trkpt lat="45.85335" lon="4.7935">
        <ele>453.6000061</ele>
        <time>2013-08-31T08:14:41Z</time>
      </trkpt>
      <trkpt lat="45.85343" lon="4.79354">
        <ele>453.2000122</ele>
        <time>2013-08-31T08:14:42Z</time>
      </trkpt>
      <trkpt lat="45.85352" lon="4.79359">
        <ele>454.1000061</ele>
        <time>2013-08-31T08:14:43Z</time>
      </trkpt>
      <trkpt lat="45.85359" lon="4.79364">
        <ele>455.2999878</ele>
        <time>2013-08-31T08:14:44Z</time>
      </trkpt>
      <trkpt lat="45.85365" lon="4.79367">
        <ele>455.1000061</ele>
        <time>2013-08-31T08:14:45Z</time>
      </trkpt>
      <trkpt lat="45.8537" lon="4.79369">
        <ele>454.3999939</ele>
        <time>2013-08-31T08:14:46Z</time>
      </trkpt>
      <trkpt lat="45.85374" lon="4.79371">
        <ele>455.1000061</ele>
        <time>2013-08-31T08:14:47Z</time>
      </trkpt>
      <trkpt lat="45.85382" lon="4.79373">
        <ele>454.8999939</ele>
        <time>2013-08-31T08:14:49Z</time>
      </trkpt>
      <trkpt lat="45.85385" lon="4.79371">
        <ele>455.1000061</ele>
        <time>2013-08-31T08:14:50Z</time>
      </trkpt>
      <trkpt lat="45.85386" lon="4.79361">
        <ele>453.3999939</ele>
        <time>2013-08-31T08:14:54Z</time>
      </trkpt>
      <trkpt lat="45.85386" lon="4.79358">
        <ele>453</ele>
        <time>2013-08-31T08:14:55Z</time>
      </trkpt>
      <trkpt lat="45.85386" lon="4.79348">
        <ele>451.7000122</ele>
        <time>2013-08-31T08:14:59Z</time>
      </trkpt>
      <trkpt lat="45.85387" lon="4.79345">
        <ele>451.8999939</ele>
        <time>2013-08-31T08:15:00Z</time>
      </trkpt>
      <trkpt lat="45.85387" lon="4.79333">
        <ele>451.2000122</ele>
        <time>2013-08-31T08:15:05Z</time>
      </trkpt>
      <trkpt lat="45.85387" lon="4.7933">
        <ele>451.3999939</ele>
        <time>2013-08-31T08:15:06Z</time>
      </trkpt>
      <trkpt lat="45.85389" lon="4.7932">
        <ele>450.2999878</ele>
        <time>2013-08-31T08:15:10Z</time>
      </trkpt>
      <trkpt lat="45.85389" lon="4.79317">
        <ele>451</ele>
        <time>2013-08-31T08:15:11Z</time>
      </trkpt>
      <trkpt lat="45.8539" lon="4.79308">
        <ele>451.3999939</ele>
        <time>2013-08-31T08:15:15Z</time>
      </trkpt>
      <trkpt lat="45.85391" lon="4.79305">
        <ele>451.2999878</ele>
        <time>2013-08-31T08:15:16Z</time>
      </trkpt>
      <trkpt lat="45.85397" lon="4.79297">
        <ele>450.8999939</ele>
        <time>2013-08-31T08:15:20Z</time>
      </trkpt>
      <trkpt lat="45.854" lon="4.79297">
        <ele>450.7000122</ele>
        <time>2013-08-31T08:15:21Z</time>
      </trkpt>
      <trkpt lat="45.85406" lon="4.79295">
        <ele>450.2999878</ele>
        <time>2013-08-31T08:15:24Z</time>
      </trkpt>
      <trkpt lat="45.85409" lon="4.79297">
        <ele>450.5</ele>
        <time>2013-08-31T08:15:25Z</time>
      </trkpt>
      <trkpt lat="45.85415" lon="4.79299">
        <ele>451</ele>
        <time>2013-08-31T08:15:27Z</time>
      </trkpt>
      <trkpt lat="45.85418" lon="4.793">
        <ele>450.7999878</ele>
        <time>2013-08-31T08:15:28Z</time>
      </trkpt>
      <trkpt lat="45.85426" lon="4.79303">
        <ele>451.2000122</ele>
        <time>2013-08-31T08:15:31Z</time>
      </trkpt>
      <trkpt lat="45.85429" lon="4.79304">
        <ele>451.3999939</ele>
        <time>2013-08-31T08:15:32Z</time>
      </trkpt>
      <trkpt lat="45.85436" lon="4.79306">
        <ele>451.7000122</ele>
        <time>2013-08-31T08:15:35Z</time>
      </trkpt>
      <trkpt lat="45.85439" lon="4.79308">
        <ele>452.3999939</ele>
        <time>2013-08-31T08:15:36Z</time>
      </trkpt>
      <trkpt lat="45.85446" lon="4.79311">
        <ele>453.2000122</ele>
        <time>2013-08-31T08:15:39Z</time>
      </trkpt>
      <trkpt lat="45.85448" lon="4.79312">
        <ele>453.2999878</ele>
        <time>2013-08-31T08:15:40Z</time>
      </trkpt>
      <trkpt lat="45.85456" lon="4.79315">
        <ele>455</ele>
        <time>2013-08-31T08:15:43Z</time>
      </trkpt>
      <trkpt lat="45.85459" lon="4.79316">
        <ele>455.7999878</ele>
        <time>2013-08-31T08:15:44Z</time>
      </trkpt>
      <trkpt lat="45.85467" lon="4.79314">
        <ele>456</ele>
        <time>2013-08-31T08:15:48Z</time>
      </trkpt>
      <trkpt lat="45.85468" lon="4.79312">
        <ele>456.1000061</ele>
        <time>2013-08-31T08:15:49Z</time>
      </trkpt>
      <trkpt lat="45.85468" lon="4.79299">
        <ele>456.1000061</ele>
        <time>2013-08-31T08:15:52Z</time>
      </trkpt>
      <trkpt lat="45.85468" lon="4.79296">
        <ele>456.3999939</ele>
        <time>2013-08-31T08:15:53Z</time>
      </trkpt>
      <trkpt lat="45.85468" lon="4.79285">
        <ele>456.7999878</ele>
        <time>2013-08-31T08:15:56Z</time>
      </trkpt>
      <trkpt lat="45.85469" lon="4.79282">
        <ele>457.5</ele>
        <time>2013-08-31T08:15:57Z</time>
      </trkpt>
      <trkpt lat="45.85476" lon="4.79277">
        <ele>455.8999939</ele>
        <time>2013-08-31T08:16:00Z</time>
      </trkpt>
      <trkpt lat="45.85477" lon="4.79277">
        <ele>456.6000061</ele>
        <time>2013-08-31T08:16:01Z</time>
      </trkpt>
      <trkpt lat="45.85484" lon="4.79275">
        <ele>456.3999939</ele>
        <time>2013-08-31T08:16:04Z</time>
      </trkpt>
      <trkpt lat="45.85487" lon="4.79275">
        <ele>456.3999939</ele>
        <time>2013-08-31T08:16:05Z</time>
      </trkpt>
      <trkpt lat="45.85494" lon="4.79273">
        <ele>456.7000122</ele>
        <time>2013-08-31T08:16:08Z</time>
      </trkpt>
      <trkpt lat="45.85497" lon="4.79272">
        <ele>456.8999939</ele>
        <time>2013-08-31T08:16:09Z</time>
      </trkpt>
      <trkpt lat="45.85504" lon="4.79272">
        <ele>457.3999939</ele>
        <time>2013-08-31T08:16:12Z</time>
      </trkpt>
      <trkpt lat="45.85507" lon="4.79271">
        <ele>457.7999878</ele>
        <time>2013-08-31T08:16:13Z</time>
      </trkpt>
      <trkpt lat="45.85514" lon="4.7927">
        <ele>458</ele>
        <time>2013-08-31T08:16:16Z</time>
      </trkpt>
      <trkpt lat="45.85516" lon="4.7927">
        <ele>458.1000061</ele>
        <time>2013-08-31T08:16:17Z</time>
      </trkpt>
      <trkpt lat="45.85523" lon="4.79268">
        <ele>457.6000061</ele>
        <time>2013-08-31T08:16:20Z</time>
      </trkpt>
      <trkpt lat="45.85525" lon="4.79268">
        <ele>457.5</ele>
        <time>2013-08-31T08:16:21Z</time>
      </trkpt>
      <trkpt lat="45.85532" lon="4.79267">
        <ele>458.6000061</ele>
        <time>2013-08-31T08:16:24Z</time>
      </trkpt>
      <trkpt lat="45.85535" lon="4.79266">
        <ele>458.5</ele>
        <time>2013-08-31T08:16:25Z</time>
      </trkpt>
      <trkpt lat="45.85543" lon="4.79265">
        <ele>460.5</ele>
        <time>2013-08-31T08:16:28Z</time>
      </trkpt>
      <trkpt lat="45.85545" lon="4.79265">
        <ele>460.7000122</ele>
        <time>2013-08-31T08:16:29Z</time>
      </trkpt>
      <trkpt lat="45.85553" lon="4.79265">
        <ele>461.8999939</ele>
        <time>2013-08-31T08:16:33Z</time>
      </trkpt>
      <trkpt lat="45.85555" lon="4.79266">
        <ele>462.2000122</ele>
        <time>2013-08-31T08:16:34Z</time>
      </trkpt>
      <trkpt lat="45.85562" lon="4.7927">
        <ele>464</ele>
        <time>2013-08-31T08:16:38Z</time>
      </trkpt>
      <trkpt lat="45.85564" lon="4.79271">
        <ele>464.2000122</ele>
        <time>2013-08-31T08:16:39Z</time>
      </trkpt>
      <trkpt lat="45.85571" lon="4.79275">
        <ele>465.1000061</ele>
        <time>2013-08-31T08:16:42Z</time>
      </trkpt>
      <trkpt lat="45.85573" lon="4.79276">
        <ele>465.6000061</ele>
        <time>2013-08-31T08:16:43Z</time>
      </trkpt>
      <trkpt lat="45.8558" lon="4.79283">
        <ele>467.7000122</ele>
        <time>2013-08-31T08:16:47Z</time>
      </trkpt>
      <trkpt lat="45.85582" lon="4.79284">
        <ele>468.1000061</ele>
        <time>2013-08-31T08:16:48Z</time>
      </trkpt>
      <trkpt lat="45.85589" lon="4.7929">
        <ele>469.1000061</ele>
        <time>2013-08-31T08:16:52Z</time>
      </trkpt>
      <trkpt lat="45.85591" lon="4.79291">
        <ele>469.6000061</ele>
        <time>2013-08-31T08:16:53Z</time>
      </trkpt>
      <trkpt lat="45.85596" lon="4.79301">
        <ele>471.5</ele>
        <time>2013-08-31T08:17:00Z</time>
      </trkpt>
      <trkpt lat="45.85596" lon="4.79302">
        <ele>471.5</ele>
        <time>2013-08-31T08:17:01Z</time>
      </trkpt>
      <trkpt lat="45.85596" lon="4.79302">
        <ele>471</ele>
        <time>2013-08-31T08:17:03Z</time>
      </trkpt>
      <trkpt lat="45.85596" lon="4.79302">
        <ele>471</ele>
        <time>2013-08-31T08:17:04Z</time>
      </trkpt>
      <trkpt lat="45.85596" lon="4.79302">
        <ele>470.7999878</ele>
        <time>2013-08-31T08:17:05Z</time>
      </trkpt>
      <trkpt lat="45.85596" lon="4.79302">
        <ele>470.6000061</ele>
        <time>2013-08-31T08:17:06Z</time>
      </trkpt>
      <trkpt lat="45.85596" lon="4.79304">
        <ele>470.8999939</ele>
        <time>2013-08-31T08:17:11Z</time>
      </trkpt>
      <trkpt lat="45.85596" lon="4.79304">
        <ele>471</ele>
        <time>2013-08-31T08:17:12Z</time>
      </trkpt>
      <trkpt lat="45.85596" lon="4.79304">
        <ele>470.8999939</ele>
        <time>2013-08-31T08:17:13Z</time>
      </trkpt>
      <trkpt lat="45.85596" lon="4.79303">
        <ele>470.7999878</ele>
        <time>2013-08-31T08:17:14Z</time>
      </trkpt>
      <trkpt lat="45.85597" lon="4.79302">
        <ele>470.8999939</ele>
        <time>2013-08-31T08:17:18Z</time>
      </trkpt>
      <trkpt lat="45.85597" lon="4.79302">
        <ele>471</ele>
        <time>2013-08-31T08:17:19Z</time>
      </trkpt>
      <trkpt lat="45.85597" lon="4.79302">
        <ele>470.6000061</ele>
        <time>2013-08-31T08:17:20Z</time>
      </trkpt>
      <trkpt lat="45.85597" lon="4.79301">
        <ele>470.3999939</ele>
        <time>2013-08-31T08:17:23Z</time>
      </trkpt>
      <trkpt lat="45.85597" lon="4.79301">
        <ele>470.6000061</ele>
        <time>2013-08-31T08:17:24Z</time>
      </trkpt>
      <trkpt lat="45.85597" lon="4.79301">
        <ele>470.2999878</ele>
        <time>2013-08-31T08:17:25Z</time>
      </trkpt>
      <trkpt lat="45.85595" lon="4.79299">
        <ele>469.2999878</ele>
        <time>2013-08-31T08:17:28Z</time>
      </trkpt>
      <trkpt lat="45.85595" lon="4.79299">
        <ele>469.3999939</ele>
        <time>2013-08-31T08:17:29Z</time>
      </trkpt>
      <trkpt lat="45.85596" lon="4.79299">
        <ele>468.7000122</ele>
        <time>2013-08-31T08:17:30Z</time>
      </trkpt>
      <trkpt lat="45.85596" lon="4.79298">
        <ele>468.7999878</ele>
        <time>2013-08-31T08:17:33Z</time>
      </trkpt>
      <trkpt lat="45.85596" lon="4.79298">
        <ele>468.7000122</ele>
        <time>2013-08-31T08:17:34Z</time>
      </trkpt>
      <trkpt lat="45.85596" lon="4.79298">
        <ele>468.5</ele>
        <time>2013-08-31T08:17:36Z</time>
      </trkpt>
      <trkpt lat="45.85596" lon="4.79298">
        <ele>468.6000061</ele>
        <time>2013-08-31T08:17:37Z</time>
      </trkpt>
      <trkpt lat="45.85595" lon="4.79298">
        <ele>469.6000061</ele>
        <time>2013-08-31T08:17:41Z</time>
      </trkpt>
      <trkpt lat="45.85595" lon="4.79298">
        <ele>469.6000061</ele>
        <time>2013-08-31T08:17:42Z</time>
      </trkpt>
      <trkpt lat="45.85595" lon="4.79298">
        <ele>469.6000061</ele>
        <time>2013-08-31T08:17:43Z</time>
      </trkpt>
      <trkpt lat="45.85596" lon="4.79298">
        <ele>469.6000061</ele>
        <time>2013-08-31T08:17:44Z</time>
      </trkpt>
      <trkpt lat="45.85595" lon="4.79297">
        <ele>469.5</ele>
        <time>2013-08-31T08:17:45Z</time>
      </trkpt>
      <trkpt lat="45.85595" lon="4.79297">
        <ele>469.3999939</ele>
        <time>2013-08-31T08:17:46Z</time>
      </trkpt>
      <trkpt lat="45.85596" lon="4.79297">
        <ele>469.2000122</ele>
        <time>2013-08-31T08:17:47Z</time>
      </trkpt>
      <trkpt lat="45.85595" lon="4.79297">
        <ele>469.2000122</ele>
        <time>2013-08-31T08:17:48Z</time>
      </trkpt>
      <trkpt lat="45.85595" lon="4.79297">
        <ele>469.2999878</ele>
        <time>2013-08-31T08:23:54Z</time>
      </trkpt>
      <trkpt lat="45.85595" lon="4.79297">
        <ele>467.8999939</ele>
        <time>2013-08-31T08:23:55Z</time>
      </trkpt>
      <trkpt lat="45.85595" lon="4.79296">
        <ele>467.7000122</ele>
        <time>2013-08-31T08:23:58Z</time>
      </trkpt>
      <trkpt lat="45.85595" lon="4.79296">
        <ele>468.1000061</ele>
        <time>2013-08-31T08:23:59Z</time>
      </trkpt>
      <trkpt lat="45.85594" lon="4.79296">
        <ele>467.8999939</ele>
        <time>2013-08-31T08:24:02Z</time>
      </trkpt>
      <trkpt lat="45.85595" lon="4.79295">
        <ele>467.6000061</ele>
        <time>2013-08-31T08:24:03Z</time>
      </trkpt>
      <trkpt lat="45.85595" lon="4.79291">
        <ele>469.3999939</ele>
        <time>2013-08-31T08:24:08Z</time>
      </trkpt>
      <trkpt lat="45.85595" lon="4.79291">
        <ele>469.7000122</ele>
        <time>2013-08-31T08:24:09Z</time>
      </trkpt>
      <trkpt lat="45.85595" lon="4.79291">
        <ele>469.7000122</ele>
        <time>2013-08-31T08:24:10Z</time>
      </trkpt>
      <trkpt lat="45.85595" lon="4.79292">
        <ele>470</ele>
        <time>2013-08-31T08:24:11Z</time>
      </trkpt>
      <trkpt lat="45.85595" lon="4.79292">
        <ele>470</ele>
        <time>2013-08-31T08:24:12Z</time>
      </trkpt>
      <trkpt lat="45.85594" lon="4.79292">
        <ele>469.6000061</ele>
        <time>2013-08-31T08:24:13Z</time>
      </trkpt>
      <trkpt lat="45.85592" lon="4.79293">
        <ele>469.6000061</ele>
        <time>2013-08-31T08:24:22Z</time>
      </trkpt>
      <trkpt lat="45.85592" lon="4.79293">
        <ele>469.7999878</ele>
        <time>2013-08-31T08:24:23Z</time>
      </trkpt>
      <trkpt lat="45.85593" lon="4.79293">
        <ele>470.2000122</ele>
        <time>2013-08-31T08:24:24Z</time>
      </trkpt>
      <trkpt lat="45.85593" lon="4.79293">
        <ele>471</ele>
        <time>2013-08-31T08:24:26Z</time>
      </trkpt>
      <trkpt lat="45.85593" lon="4.79293">
        <ele>471</ele>
        <time>2013-08-31T08:24:27Z</time>
      </trkpt>
      <trkpt lat="45.85593" lon="4.79294">
        <ele>471</ele>
        <time>2013-08-31T08:24:28Z</time>
      </trkpt>
      <trkpt lat="45.85595" lon="4.79297">
        <ele>468.5</ele>
        <time>2013-08-31T08:24:36Z</time>
      </trkpt>
      <trkpt lat="45.85595" lon="4.79297">
        <ele>468.7000122</ele>
        <time>2013-08-31T08:24:37Z</time>
      </trkpt>
      <trkpt lat="45.85595" lon="4.79297">
        <ele>469.2000122</ele>
        <time>2013-08-31T08:24:39Z</time>
      </trkpt>
      <trkpt lat="45.85595" lon="4.79297">
        <ele>469</ele>
        <time>2013-08-31T08:24:40Z</time>
      </trkpt>
      <trkpt lat="45.85595" lon="4.79297">
        <ele>469.3999939</ele>
        <time>2013-08-31T08:24:41Z</time>
      </trkpt>
      <trkpt lat="45.85595" lon="4.79297">
        <ele>469.3999939</ele>
        <time>2013-08-31T08:24:42Z</time>
      </trkpt>
      <trkpt lat="45.85596" lon="4.79299">
        <ele>470.2000122</ele>
        <time>2013-08-31T08:24:43Z</time>
      </trkpt>
      <trkpt lat="45.85597" lon="4.79299">
        <ele>470.7000122</ele>
        <time>2013-08-31T08:24:47Z</time>
      </trkpt>
      <trkpt lat="45.85597" lon="4.79299">
        <ele>470.3999939</ele>
        <time>2013-08-31T08:24:48Z</time>
      </trkpt>
      <trkpt lat="45.85597" lon="4.79299">
        <ele>470.5</ele>
        <time>2013-08-31T08:24:58Z</time>
      </trkpt>
      <trkpt lat="45.85597" lon="4.79298">
        <ele>470.3999939</ele>
        <time>2013-08-31T08:24:59Z</time>
      </trkpt>
      <trkpt lat="45.85593" lon="4.79294">
        <ele>469.2999878</ele>
        <time>2013-08-31T08:25:06Z</time>
      </trkpt>
      <trkpt lat="45.85593" lon="4.79293">
        <ele>468.7000122</ele>
        <time>2013-08-31T08:25:07Z</time>
      </trkpt>
      <trkpt lat="45.85593" lon="4.79295">
        <ele>468.8999939</ele>
        <time>2013-08-31T08:25:08Z</time>
      </trkpt>
      <trkpt lat="45.85593" lon="4.79294">
        <ele>468.6000061</ele>
        <time>2013-08-31T08:25:10Z</time>
      </trkpt>
      <trkpt lat="45.85593" lon="4.79294">
        <ele>468.7000122</ele>
        <time>2013-08-31T08:25:11Z</time>
      </trkpt>
      <trkpt lat="45.85594" lon="4.79295">
        <ele>468.3999939</ele>
        <time>2013-08-31T08:25:12Z</time>
      </trkpt>
      <trkpt lat="45.85594" lon="4.79294">
        <ele>468.1000061</ele>
        <time>2013-08-31T08:25:13Z</time>
      </trkpt>
      <trkpt lat="45.85593" lon="4.79294">
        <ele>468.1000061</ele>
        <time>2013-08-31T08:25:14Z</time>
      </trkpt>
      <trkpt lat="45.85593" lon="4.79295">
        <ele>468.1000061</ele>
        <time>2013-08-31T08:25:15Z</time>
      </trkpt>
      <trkpt lat="45.85593" lon="4.79295">
        <ele>468.1000061</ele>
        <time>2013-08-31T08:25:16Z</time>
      </trkpt>
      <trkpt lat="45.85593" lon="4.79295">
        <ele>467.8999939</ele>
        <time>2013-08-31T08:25:17Z</time>
      </trkpt>
      <trkpt lat="45.85593" lon="4.79295">
        <ele>467.7999878</ele>
        <time>2013-08-31T08:25:30Z</time>
      </trkpt>
      <trkpt lat="45.85593" lon="4.79295">
        <ele>468.2999878</ele>
        <time>2013-08-31T08:25:31Z</time>
      </trkpt>
      <trkpt lat="45.85593" lon="4.79295">
        <ele>468.2000122</ele>
        <time>2013-08-31T08:25:32Z</time>
      </trkpt>
      <trkpt lat="45.85593" lon="4.79295">
        <ele>468</ele>
        <time>2013-08-31T08:25:33Z</time>
      </trkpt>
      <trkpt lat="45.85593" lon="4.79296">
        <ele>468.7999878</ele>
        <time>2013-08-31T08:25:44Z</time>
      </trkpt>
      <trkpt lat="45.85593" lon="4.79296">
        <ele>468.7000122</ele>
        <time>2013-08-31T08:25:45Z</time>
      </trkpt>
      <trkpt lat="45.85593" lon="4.79298">
        <ele>469.3999939</ele>
        <time>2013-08-31T08:25:49Z</time>
      </trkpt>
      <trkpt lat="45.85593" lon="4.79298">
        <ele>469.3999939</ele>
        <time>2013-08-31T08:25:50Z</time>
      </trkpt>
      <trkpt lat="45.85593" lon="4.79299">
        <ele>469.7000122</ele>
        <time>2013-08-31T08:25:52Z</time>
      </trkpt>
      <trkpt lat="45.85594" lon="4.79299">
        <ele>469.6000061</ele>
        <time>2013-08-31T08:25:53Z</time>
      </trkpt>
      <trkpt lat="45.85593" lon="4.79299">
        <ele>469.5</ele>
        <time>2013-08-31T08:25:54Z</time>
      </trkpt>
      <trkpt lat="45.85593" lon="4.79299">
        <ele>469.5</ele>
        <time>2013-08-31T08:25:55Z</time>
      </trkpt>
      <trkpt lat="45.85593" lon="4.79299">
        <ele>469.6000061</ele>
        <time>2013-08-31T08:25:56Z</time>
      </trkpt>
      <trkpt lat="45.85594" lon="4.793">
        <ele>470.1000061</ele>
        <time>2013-08-31T08:25:57Z</time>
      </trkpt>
      <trkpt lat="45.85594" lon="4.793">
        <ele>469.7000122</ele>
        <time>2013-08-31T08:25:59Z</time>
      </trkpt>
      <trkpt lat="45.85594" lon="4.793">
        <ele>469.7000122</ele>
        <time>2013-08-31T08:26:00Z</time>
      </trkpt>
      <trkpt lat="45.85594" lon="4.793">
        <ele>469.2999878</ele>
        <time>2013-08-31T08:26:01Z</time>
      </trkpt>
      <trkpt lat="45.85594" lon="4.793">
        <ele>469.2000122</ele>
        <time>2013-08-31T08:26:02Z</time>
      </trkpt>
      <trkpt lat="45.85594" lon="4.793">
        <ele>469.2000122</ele>
        <time>2013-08-31T08:26:03Z</time>
      </trkpt>
      <trkpt lat="45.85594" lon="4.793">
        <ele>469.2000122</ele>
        <time>2013-08-31T08:26:04Z</time>
      </trkpt>
      <trkpt lat="45.85594" lon="4.793">
        <ele>469.2999878</ele>
        <time>2013-08-31T08:26:05Z</time>
      </trkpt>
      <trkpt lat="45.85594" lon="4.793">
        <ele>468.8999939</ele>
        <time>2013-08-31T08:26:06Z</time>
      </trkpt>
      <trkpt lat="45.85594" lon="4.793">
        <ele>468.8999939</ele>
        <time>2013-08-31T08:26:07Z</time>
      </trkpt>
      <trkpt lat="45.85594" lon="4.7931">
        <ele>470.7000122</ele>
        <time>2013-08-31T08:26:13Z</time>
      </trkpt>
      <trkpt lat="45.85596" lon="4.79313">
        <ele>470.6000061</ele>
        <time>2013-08-31T08:26:14Z</time>
      </trkpt>
      <trkpt lat="45.85601" lon="4.79323">
        <ele>468.2999878</ele>
        <time>2013-08-31T08:26:18Z</time>
      </trkpt>
      <trkpt lat="45.85602" lon="4.79326">
        <ele>468.2000122</ele>
        <time>2013-08-31T08:26:19Z</time>
      </trkpt>
      <trkpt lat="45.85607" lon="4.79335">
        <ele>469.2999878</ele>
        <time>2013-08-31T08:26:23Z</time>
      </trkpt>
      <trkpt lat="45.85609" lon="4.79337">
        <ele>469.3999939</ele>
        <time>2013-08-31T08:26:24Z</time>
      </trkpt>
      <trkpt lat="45.85614" lon="4.79346">
        <ele>470.2999878</ele>
        <time>2013-08-31T08:26:28Z</time>
      </trkpt>
      <trkpt lat="45.85615" lon="4.79348">
        <ele>470.2000122</ele>
        <time>2013-08-31T08:26:29Z</time>
      </trkpt>
      <trkpt lat="45.85619" lon="4.79337">
        <ele>471.5</ele>
        <time>2013-08-31T08:26:41Z</time>
      </trkpt>
      <trkpt lat="45.85619" lon="4.79334">
        <ele>471.5</ele>
        <time>2013-08-31T08:26:42Z</time>
      </trkpt>
      <trkpt lat="45.85617" lon="4.79325">
        <ele>472.1000061</ele>
        <time>2013-08-31T08:26:45Z</time>
      </trkpt>
      <trkpt lat="45.85616" lon="4.79321">
        <ele>472.7000122</ele>
        <time>2013-08-31T08:26:46Z</time>
      </trkpt>
      <trkpt lat="45.85613" lon="4.7931">
        <ele>473.2000122</ele>
        <time>2013-08-31T08:26:49Z</time>
      </trkpt>
      <trkpt lat="45.85612" lon="4.79307">
        <ele>473.2999878</ele>
        <time>2013-08-31T08:26:50Z</time>
      </trkpt>
      <trkpt lat="45.8561" lon="4.79295">
        <ele>473.5</ele>
        <time>2013-08-31T08:26:53Z</time>
      </trkpt>
      <trkpt lat="45.85609" lon="4.79292">
        <ele>473.5</ele>
        <time>2013-08-31T08:26:54Z</time>
      </trkpt>
      <trkpt lat="45.85607" lon="4.79283">
        <ele>473.5</ele>
        <time>2013-08-31T08:26:56Z</time>
      </trkpt>
      <trkpt lat="45.85606" lon="4.79279">
        <ele>473.6000061</ele>
        <time>2013-08-31T08:26:57Z</time>
      </trkpt>
      <trkpt lat="45.85604" lon="4.79271">
        <ele>473.7999878</ele>
        <time>2013-08-31T08:26:59Z</time>
      </trkpt>
      <trkpt lat="45.85603" lon="4.79266">
        <ele>473.6000061</ele>
        <time>2013-08-31T08:27:00Z</time>
      </trkpt>
      <trkpt lat="45.85602" lon="4.79257">
        <ele>474</ele>
        <time>2013-08-31T08:27:02Z</time>
      </trkpt>
      <trkpt lat="45.85601" lon="4.79252">
        <ele>474.2000122</ele>
        <time>2013-08-31T08:27:03Z</time>
      </trkpt>
      <trkpt lat="45.856" lon="4.79243">
        <ele>474.6000061</ele>
        <time>2013-08-31T08:27:05Z</time>
      </trkpt>
      <trkpt lat="45.856" lon="4.79239">
        <ele>474.5</ele>
        <time>2013-08-31T08:27:06Z</time>
      </trkpt>
      <trkpt lat="45.85599" lon="4.79226">
        <ele>475.2999878</ele>
        <time>2013-08-31T08:27:09Z</time>
      </trkpt>
      <trkpt lat="45.85599" lon="4.79222">
        <ele>475.7999878</ele>
        <time>2013-08-31T08:27:10Z</time>
      </trkpt>
      <trkpt lat="45.85599" lon="4.79209">
        <ele>476.6000061</ele>
        <time>2013-08-31T08:27:13Z</time>
      </trkpt>
      <trkpt lat="45.85599" lon="4.79204">
        <ele>476.7000122</ele>
        <time>2013-08-31T08:27:14Z</time>
      </trkpt>
      <trkpt lat="45.85599" lon="4.79191">
        <ele>477</ele>
        <time>2013-08-31T08:27:17Z</time>
      </trkpt>
      <trkpt lat="45.85599" lon="4.79187">
        <ele>477.6000061</ele>
        <time>2013-08-31T08:27:18Z</time>
      </trkpt>
      <trkpt lat="45.85599" lon="4.79174">
        <ele>477.8999939</ele>
        <time>2013-08-31T08:27:21Z</time>
      </trkpt>
      <trkpt lat="45.85599" lon="4.7917">
        <ele>477.7000122</ele>
        <time>2013-08-31T08:27:22Z</time>
      </trkpt>
      <trkpt lat="45.856" lon="4.79158">
        <ele>478.3999939</ele>
        <time>2013-08-31T08:27:25Z</time>
      </trkpt>
      <trkpt lat="45.856" lon="4.79155">
        <ele>478.7999878</ele>
        <time>2013-08-31T08:27:26Z</time>
      </trkpt>
      <trkpt lat="45.85599" lon="4.79143">
        <ele>479.7999878</ele>
        <time>2013-08-31T08:27:29Z</time>
      </trkpt>
      <trkpt lat="45.85599" lon="4.79139">
        <ele>479.8999939</ele>
        <time>2013-08-31T08:27:30Z</time>
      </trkpt>
      <trkpt lat="45.85599" lon="4.79127">
        <ele>481.1000061</ele>
        <time>2013-08-31T08:27:33Z</time>
      </trkpt>
      <trkpt lat="45.85599" lon="4.79123">
        <ele>481</ele>
        <time>2013-08-31T08:27:34Z</time>
      </trkpt>
      <trkpt lat="45.85598" lon="4.79112">
        <ele>481.6000061</ele>
        <time>2013-08-31T08:27:37Z</time>
      </trkpt>
      <trkpt lat="45.85597" lon="4.79107">
        <ele>481.7999878</ele>
        <time>2013-08-31T08:27:38Z</time>
      </trkpt>
      <trkpt lat="45.85594" lon="4.79096">
        <ele>482.1000061</ele>
        <time>2013-08-31T08:27:41Z</time>
      </trkpt>
      <trkpt lat="45.85593" lon="4.79093">
        <ele>482</ele>
        <time>2013-08-31T08:27:42Z</time>
      </trkpt>
      <trkpt lat="45.85588" lon="4.79086">
        <ele>482.8999939</ele>
        <time>2013-08-31T08:27:44Z</time>
      </trkpt>
      <trkpt lat="45.85586" lon="4.79083">
        <ele>482.8999939</ele>
        <time>2013-08-31T08:27:45Z</time>
      </trkpt>
      <trkpt lat="45.8558" lon="4.79077">
        <ele>483.1000061</ele>
        <time>2013-08-31T08:27:48Z</time>
      </trkpt>
      <trkpt lat="45.85577" lon="4.79075">
        <ele>483</ele>
        <time>2013-08-31T08:27:49Z</time>
      </trkpt>
      <trkpt lat="45.85571" lon="4.7907">
        <ele>483.2000122</ele>
        <time>2013-08-31T08:27:52Z</time>
      </trkpt>
      <trkpt lat="45.85569" lon="4.79068">
        <ele>483.2999878</ele>
        <time>2013-08-31T08:27:53Z</time>
      </trkpt>
      <trkpt lat="45.85563" lon="4.79064">
        <ele>484.7999878</ele>
        <time>2013-08-31T08:27:56Z</time>
      </trkpt>
      <trkpt lat="45.85561" lon="4.79063">
        <ele>485.2999878</ele>
        <time>2013-08-31T08:27:57Z</time>
      </trkpt>
      <trkpt lat="45.85554" lon="4.79058">
        <ele>485.7999878</ele>
        <time>2013-08-31T08:28:00Z</time>
      </trkpt>
      <trkpt lat="45.85551" lon="4.79057">
        <ele>486.6000061</ele>
        <time>2013-08-31T08:28:01Z</time>
      </trkpt>
      <trkpt lat="45.85544" lon="4.79052">
        <ele>487.8999939</ele>
        <time>2013-08-31T08:28:04Z</time>
      </trkpt>
      <trkpt lat="45.85542" lon="4.7905">
        <ele>488.3999939</ele>
        <time>2013-08-31T08:28:05Z</time>
      </trkpt>
      <trkpt lat="45.85534" lon="4.79045">
        <ele>490</ele>
        <time>2013-08-31T08:28:08Z</time>
      </trkpt>
      <trkpt lat="45.85532" lon="4.79043">
        <ele>490.3999939</ele>
        <time>2013-08-31T08:28:09Z</time>
      </trkpt>
      <trkpt lat="45.85524" lon="4.79036">
        <ele>491.2999878</ele>
        <time>2013-08-31T08:28:12Z</time>
      </trkpt>
      <trkpt lat="45.85521" lon="4.79034">
        <ele>491.3999939</ele>
        <time>2013-08-31T08:28:13Z</time>
      </trkpt>
      <trkpt lat="45.85514" lon="4.79028">
        <ele>492.6000061</ele>
        <time>2013-08-31T08:28:16Z</time>
      </trkpt>
      <trkpt lat="45.85512" lon="4.79027">
        <ele>492.7999878</ele>
        <time>2013-08-31T08:28:17Z</time>
      </trkpt>
      <trkpt lat="45.85505" lon="4.79022">
        <ele>492.8999939</ele>
        <time>2013-08-31T08:28:20Z</time>
      </trkpt>
      <trkpt lat="45.85503" lon="4.79019">
        <ele>492.6000061</ele>
        <time>2013-08-31T08:28:21Z</time>
      </trkpt>
      <trkpt lat="45.85511" lon="4.79019">
        <ele>491.3999939</ele>
        <time>2013-08-31T08:28:28Z</time>
      </trkpt>
      <trkpt lat="45.85514" lon="4.79021">
        <ele>491.7000122</ele>
        <time>2013-08-31T08:28:29Z</time>
      </trkpt>
      <trkpt lat="45.85521" lon="4.79025">
        <ele>491.7999878</ele>
        <time>2013-08-31T08:28:32Z</time>
      </trkpt>
      <trkpt lat="45.85524" lon="4.79026">
        <ele>491.7999878</ele>
        <time>2013-08-31T08:28:33Z</time>
      </trkpt>
      <trkpt lat="45.85531" lon="4.79032">
        <ele>491.5</ele>
        <time>2013-08-31T08:28:38Z</time>
      </trkpt>
      <trkpt lat="45.85533" lon="4.79034">
        <ele>491.2999878</ele>
        <time>2013-08-31T08:28:39Z</time>
      </trkpt>
      <trkpt lat="45.85539" lon="4.79038">
        <ele>491</ele>
        <time>2013-08-31T08:28:41Z</time>
      </trkpt>
      <trkpt lat="45.85543" lon="4.79042">
        <ele>490</ele>
        <time>2013-08-31T08:28:42Z</time>
      </trkpt>
      <trkpt lat="45.8555" lon="4.79047">
        <ele>487.3999939</ele>
        <time>2013-08-31T08:28:44Z</time>
      </trkpt>
      <trkpt lat="45.85553" lon="4.79049">
        <ele>486.7999878</ele>
        <time>2013-08-31T08:28:45Z</time>
      </trkpt>
      <trkpt lat="45.8556" lon="4.79053">
        <ele>486.2999878</ele>
        <time>2013-08-31T08:28:47Z</time>
      </trkpt>
      <trkpt lat="45.85564" lon="4.79055">
        <ele>486.2999878</ele>
        <time>2013-08-31T08:28:48Z</time>
      </trkpt>
      <trkpt lat="45.85571" lon="4.79053">
        <ele>486.2000122</ele>
        <time>2013-08-31T08:28:52Z</time>
      </trkpt>
      <trkpt lat="45.85575" lon="4.79054">
        <ele>485.7000122</ele>
        <time>2013-08-31T08:28:53Z</time>
      </trkpt>
      <trkpt lat="45.85583" lon="4.79055">
        <ele>484.5</ele>
        <time>2013-08-31T08:28:55Z</time>
      </trkpt>
      <trkpt lat="45.85587" lon="4.79055">
        <ele>484.1000061</ele>
        <time>2013-08-31T08:28:56Z</time>
      </trkpt>
      <trkpt lat="45.85595" lon="4.79056">
        <ele>484.6000061</ele>
        <time>2013-08-31T08:28:59Z</time>
      </trkpt>
      <trkpt lat="45.85598" lon="4.79056">
        <ele>484.6000061</ele>
        <time>2013-08-31T08:29:00Z</time>
      </trkpt>
      <trkpt lat="45.85605" lon="4.79058">
        <ele>485.1000061</ele>
        <time>2013-08-31T08:29:04Z</time>
      </trkpt>
      <trkpt lat="45.85607" lon="4.79058">
        <ele>486.2999878</ele>
        <time>2013-08-31T08:29:05Z</time>
      </trkpt>
      <trkpt lat="45.85609" lon="4.79058">
        <ele>487.2000122</ele>
        <time>2013-08-31T08:29:10Z</time>
      </trkpt>
      <trkpt lat="45.85609" lon="4.79058">
        <ele>487.3999939</ele>
        <time>2013-08-31T08:29:11Z</time>
      </trkpt>
      <trkpt lat="45.8561" lon="4.79058">
        <ele>487.5</ele>
        <time>2013-08-31T08:29:13Z</time>
      </trkpt>
      <trkpt lat="45.8561" lon="4.79058">
        <ele>486.7999878</ele>
        <time>2013-08-31T08:29:14Z</time>
      </trkpt>
      <trkpt lat="45.85611" lon="4.79059">
        <ele>486.3999939</ele>
        <time>2013-08-31T08:29:16Z</time>
      </trkpt>
      <trkpt lat="45.85611" lon="4.79059">
        <ele>486.6000061</ele>
        <time>2013-08-31T08:29:17Z</time>
      </trkpt>
      <trkpt lat="45.85611" lon="4.79059">
        <ele>486.6000061</ele>
        <time>2013-08-31T08:29:18Z</time>
      </trkpt>
      <trkpt lat="45.85611" lon="4.79059">
        <ele>487.2999878</ele>
        <time>2013-08-31T08:29:19Z</time>
      </trkpt>
      <trkpt lat="45.85611" lon="4.79059">
        <ele>487.5</ele>
        <time>2013-08-31T08:29:20Z</time>
      </trkpt>
      <trkpt lat="45.85611" lon="4.79059">
        <ele>487.2999878</ele>
        <time>2013-08-31T08:29:22Z</time>
      </trkpt>
      <trkpt lat="45.85612" lon="4.7906">
        <ele>487.7000122</ele>
        <time>2013-08-31T08:29:23Z</time>
      </trkpt>
      <trkpt lat="45.85613" lon="4.7906">
        <ele>488.1000061</ele>
        <time>2013-08-31T08:29:26Z</time>
      </trkpt>
      <trkpt lat="45.85613" lon="4.7906">
        <ele>488</ele>
        <time>2013-08-31T08:29:27Z</time>
      </trkpt>
      <trkpt lat="45.85613" lon="4.79061">
        <ele>488.2000122</ele>
        <time>2013-08-31T08:29:29Z</time>
      </trkpt>
      <trkpt lat="45.85614" lon="4.79061">
        <ele>487.8999939</ele>
        <time>2013-08-31T08:29:30Z</time>
      </trkpt>
      <trkpt lat="45.85622" lon="4.79063">
        <ele>489.1000061</ele>
        <time>2013-08-31T08:29:34Z</time>
      </trkpt>
      <trkpt lat="45.85624" lon="4.79064">
        <ele>488.8999939</ele>
        <time>2013-08-31T08:29:35Z</time>
      </trkpt>
      <trkpt lat="45.85632" lon="4.79067">
        <ele>489.8999939</ele>
        <time>2013-08-31T08:29:38Z</time>
      </trkpt>
      <trkpt lat="45.85634" lon="4.79068">
        <ele>489.8999939</ele>
        <time>2013-08-31T08:29:39Z</time>
      </trkpt>
      <trkpt lat="45.85642" lon="4.79072">
        <ele>490.3999939</ele>
        <time>2013-08-31T08:29:43Z</time>
      </trkpt>
      <trkpt lat="45.85644" lon="4.79074">
        <ele>491.2999878</ele>
        <time>2013-08-31T08:29:44Z</time>
      </trkpt>
      <trkpt lat="45.85652" lon="4.79081">
        <ele>491.2000122</ele>
        <time>2013-08-31T08:29:48Z</time>
      </trkpt>
      <trkpt lat="45.85654" lon="4.79083">
        <ele>490.8999939</ele>
        <time>2013-08-31T08:29:49Z</time>
      </trkpt>
      <trkpt lat="45.85662" lon="4.79089">
        <ele>491.2000122</ele>
        <time>2013-08-31T08:29:53Z</time>
      </trkpt>
      <trkpt lat="45.85664" lon="4.79092">
        <ele>491.8999939</ele>
        <time>2013-08-31T08:29:54Z</time>
      </trkpt>
      <trkpt lat="45.85672" lon="4.79096">
        <ele>492.5</ele>
        <time>2013-08-31T08:29:58Z</time>
      </trkpt>
      <trkpt lat="45.85673" lon="4.79098">
        <ele>493</ele>
        <time>2013-08-31T08:29:59Z</time>
      </trkpt>
      <trkpt lat="45.85679" lon="4.79102">
        <ele>493.7000122</ele>
        <time>2013-08-31T08:30:02Z</time>
      </trkpt>
      <trkpt lat="45.85681" lon="4.79104">
        <ele>494.1000061</ele>
        <time>2013-08-31T08:30:03Z</time>
      </trkpt>
      <trkpt lat="45.85688" lon="4.7911">
        <ele>493.7000122</ele>
        <time>2013-08-31T08:30:06Z</time>
      </trkpt>
      <trkpt lat="45.85691" lon="4.79111">
        <ele>493.7999878</ele>
        <time>2013-08-31T08:30:07Z</time>
      </trkpt>
      <trkpt lat="45.85698" lon="4.79115">
        <ele>493.2999878</ele>
        <time>2013-08-31T08:30:10Z</time>
      </trkpt>
      <trkpt lat="45.857" lon="4.79116">
        <ele>493.6000061</ele>
        <time>2013-08-31T08:30:11Z</time>
      </trkpt>
      <trkpt lat="45.85708" lon="4.79121">
        <ele>494.3999939</ele>
        <time>2013-08-31T08:30:14Z</time>
      </trkpt>
      <trkpt lat="45.8571" lon="4.79123">
        <ele>494.7000122</ele>
        <time>2013-08-31T08:30:15Z</time>
      </trkpt>
      <trkpt lat="45.85717" lon="4.79125">
        <ele>496</ele>
        <time>2013-08-31T08:30:18Z</time>
      </trkpt>
      <trkpt lat="45.8572" lon="4.79126">
        <ele>496.2999878</ele>
        <time>2013-08-31T08:30:19Z</time>
      </trkpt>
      <trkpt lat="45.85726" lon="4.79126">
        <ele>498.7999878</ele>
        <time>2013-08-31T08:30:22Z</time>
      </trkpt>
      <trkpt lat="45.85729" lon="4.79127">
        <ele>499.1000061</ele>
        <time>2013-08-31T08:30:23Z</time>
      </trkpt>
      <trkpt lat="45.85738" lon="4.79131">
        <ele>500.1000061</ele>
        <time>2013-08-31T08:30:27Z</time>
      </trkpt>
      <trkpt lat="45.8574" lon="4.79132">
        <ele>500.2000122</ele>
        <time>2013-08-31T08:30:28Z</time>
      </trkpt>
      <trkpt lat="45.85748" lon="4.79133">
        <ele>501.3999939</ele>
        <time>2013-08-31T08:30:32Z</time>
      </trkpt>
      <trkpt lat="45.8575" lon="4.79134">
        <ele>501.5</ele>
        <time>2013-08-31T08:30:33Z</time>
      </trkpt>
      <trkpt lat="45.85757" lon="4.79138">
        <ele>502.8999939</ele>
        <time>2013-08-31T08:30:36Z</time>
      </trkpt>
      <trkpt lat="45.85759" lon="4.79139">
        <ele>503.7999878</ele>
        <time>2013-08-31T08:30:37Z</time>
      </trkpt>
      <trkpt lat="45.85766" lon="4.79144">
        <ele>504.2000122</ele>
        <time>2013-08-31T08:30:40Z</time>
      </trkpt>
      <trkpt lat="45.85768" lon="4.79145">
        <ele>503.8999939</ele>
        <time>2013-08-31T08:30:41Z</time>
      </trkpt>
      <trkpt lat="45.85775" lon="4.79147">
        <ele>503.7999878</ele>
        <time>2013-08-31T08:30:43Z</time>
      </trkpt>
      <trkpt lat="45.85778" lon="4.79149">
        <ele>503.7000122</ele>
        <time>2013-08-31T08:30:44Z</time>
      </trkpt>
      <trkpt lat="45.85785" lon="4.79152">
        <ele>503.8999939</ele>
        <time>2013-08-31T08:30:46Z</time>
      </trkpt>
      <trkpt lat="45.85789" lon="4.79154">
        <ele>504.2000122</ele>
        <time>2013-08-31T08:30:47Z</time>
      </trkpt>
      <trkpt lat="45.85796" lon="4.79156">
        <ele>503.8999939</ele>
        <time>2013-08-31T08:30:49Z</time>
      </trkpt>
      <trkpt lat="45.85799" lon="4.79157">
        <ele>504</ele>
        <time>2013-08-31T08:30:50Z</time>
      </trkpt>
      <trkpt lat="45.85806" lon="4.79162">
        <ele>506.5</ele>
        <time>2013-08-31T08:30:52Z</time>
      </trkpt>
      <trkpt lat="45.85809" lon="4.79164">
        <ele>507.2999878</ele>
        <time>2013-08-31T08:30:53Z</time>
      </trkpt>
      <trkpt lat="45.85815" lon="4.79166">
        <ele>507.7000122</ele>
        <time>2013-08-31T08:30:55Z</time>
      </trkpt>
      <trkpt lat="45.85818" lon="4.79168">
        <ele>507.3999939</ele>
        <time>2013-08-31T08:30:56Z</time>
      </trkpt>
      <trkpt lat="45.85824" lon="4.79172">
        <ele>507.2000122</ele>
        <time>2013-08-31T08:30:58Z</time>
      </trkpt>
      <trkpt lat="45.85827" lon="4.79174">
        <ele>507</ele>
        <time>2013-08-31T08:30:59Z</time>
      </trkpt>
      <trkpt lat="45.85833" lon="4.79177">
        <ele>506.6000061</ele>
        <time>2013-08-31T08:31:01Z</time>
      </trkpt>
      <trkpt lat="45.85836" lon="4.79178">
        <ele>506.3999939</ele>
        <time>2013-08-31T08:31:02Z</time>
      </trkpt>
      <trkpt lat="45.85842" lon="4.79181">
        <ele>506.3999939</ele>
        <time>2013-08-31T08:31:04Z</time>
      </trkpt>
      <trkpt lat="45.85845" lon="4.79182">
        <ele>506.6000061</ele>
        <time>2013-08-31T08:31:05Z</time>
      </trkpt>
      <trkpt lat="45.85852" lon="4.79186">
        <ele>506.7999878</ele>
        <time>2013-08-31T08:31:08Z</time>
      </trkpt>
      <trkpt lat="45.85854" lon="4.79187">
        <ele>506.5</ele>
        <time>2013-08-31T08:31:09Z</time>
      </trkpt>
      <trkpt lat="45.85863" lon="4.79187">
        <ele>506.8999939</ele>
        <time>2013-08-31T08:31:14Z</time>
      </trkpt>
      <trkpt lat="45.85864" lon="4.79185">
        <ele>507.2000122</ele>
        <time>2013-08-31T08:31:15Z</time>
      </trkpt>
      <trkpt lat="45.85865" lon="4.79174">
        <ele>509.8999939</ele>
        <time>2013-08-31T08:31:20Z</time>
      </trkpt>
      <trkpt lat="45.85864" lon="4.79171">
        <ele>510.1000061</ele>
        <time>2013-08-31T08:31:21Z</time>
      </trkpt>
      <trkpt lat="45.85863" lon="4.79161">
        <ele>510.3999939</ele>
        <time>2013-08-31T08:31:24Z</time>
      </trkpt>
      <trkpt lat="45.85862" lon="4.79157">
        <ele>510.2999878</ele>
        <time>2013-08-31T08:31:25Z</time>
      </trkpt>
      <trkpt lat="45.85859" lon="4.79146">
        <ele>510.2000122</ele>
        <time>2013-08-31T08:31:28Z</time>
      </trkpt>
      <trkpt lat="45.85859" lon="4.79142">
        <ele>510.2000122</ele>
        <time>2013-08-31T08:31:29Z</time>
      </trkpt>
      <trkpt lat="45.85855" lon="4.79131">
        <ele>510.7000122</ele>
        <time>2013-08-31T08:31:32Z</time>
      </trkpt>
      <trkpt lat="45.85854" lon="4.79127">
        <ele>510.8999939</ele>
        <time>2013-08-31T08:31:33Z</time>
      </trkpt>
      <trkpt lat="45.85851" lon="4.79116">
        <ele>510.7999878</ele>
        <time>2013-08-31T08:31:36Z</time>
      </trkpt>
      <trkpt lat="45.8585" lon="4.79113">
        <ele>510.7000122</ele>
        <time>2013-08-31T08:31:37Z</time>
      </trkpt>
      <trkpt lat="45.85848" lon="4.79104">
        <ele>511.1000061</ele>
        <time>2013-08-31T08:31:39Z</time>
      </trkpt>
      <trkpt lat="45.85847" lon="4.791">
        <ele>511</ele>
        <time>2013-08-31T08:31:40Z</time>
      </trkpt>
      <trkpt lat="45.85844" lon="4.79088">
        <ele>511.3999939</ele>
        <time>2013-08-31T08:31:43Z</time>
      </trkpt>
      <trkpt lat="45.85842" lon="4.79084">
        <ele>512</ele>
        <time>2013-08-31T08:31:44Z</time>
      </trkpt>
      <trkpt lat="45.85839" lon="4.79074">
        <ele>512.7999878</ele>
        <time>2013-08-31T08:31:47Z</time>
      </trkpt>
      <trkpt lat="45.85837" lon="4.7907">
        <ele>512.7999878</ele>
        <time>2013-08-31T08:31:48Z</time>
      </trkpt>
      <trkpt lat="45.85833" lon="4.79058">
        <ele>514.0999756</ele>
        <time>2013-08-31T08:31:51Z</time>
      </trkpt>
      <trkpt lat="45.85832" lon="4.79055">
        <ele>514</ele>
        <time>2013-08-31T08:31:52Z</time>
      </trkpt>
      <trkpt lat="45.85829" lon="4.79044">
        <ele>514.0999756</ele>
        <time>2013-08-31T08:31:55Z</time>
      </trkpt>
      <trkpt lat="45.85828" lon="4.79041">
        <ele>514</ele>
        <time>2013-08-31T08:31:56Z</time>
      </trkpt>
      <trkpt lat="45.85825" lon="4.79029">
        <ele>514</ele>
        <time>2013-08-31T08:31:59Z</time>
      </trkpt>
      <trkpt lat="45.85824" lon="4.79026">
        <ele>512.7999878</ele>
        <time>2013-08-31T08:32:00Z</time>
      </trkpt>
      <trkpt lat="45.85821" lon="4.79015">
        <ele>513.7000122</ele>
        <time>2013-08-31T08:32:03Z</time>
      </trkpt>
      <trkpt lat="45.8582" lon="4.79011">
        <ele>514.2000122</ele>
        <time>2013-08-31T08:32:04Z</time>
      </trkpt>
      <trkpt lat="45.85818" lon="4.79003">
        <ele>514.5999756</ele>
        <time>2013-08-31T08:32:06Z</time>
      </trkpt>
      <trkpt lat="45.85816" lon="4.78999">
        <ele>515.4000244</ele>
        <time>2013-08-31T08:32:07Z</time>
      </trkpt>
      <trkpt lat="45.85814" lon="4.78987">
        <ele>515.5999756</ele>
        <time>2013-08-31T08:32:10Z</time>
      </trkpt>
      <trkpt lat="45.85813" lon="4.78983">
        <ele>515.7999878</ele>
        <time>2013-08-31T08:32:11Z</time>
      </trkpt>
      <trkpt lat="45.8581" lon="4.78972">
        <ele>516.7999878</ele>
        <time>2013-08-31T08:32:14Z</time>
      </trkpt>
      <trkpt lat="45.85809" lon="4.78968">
        <ele>517</ele>
        <time>2013-08-31T08:32:15Z</time>
      </trkpt>
      <trkpt lat="45.85806" lon="4.78957">
        <ele>518</ele>
        <time>2013-08-31T08:32:18Z</time>
      </trkpt>
      <trkpt lat="45.85805" lon="4.78953">
        <ele>518.2999878</ele>
        <time>2013-08-31T08:32:19Z</time>
      </trkpt>
      <trkpt lat="45.85802" lon="4.78943">
        <ele>518.7000122</ele>
        <time>2013-08-31T08:32:22Z</time>
      </trkpt>
      <trkpt lat="45.85801" lon="4.7894">
        <ele>520.2999878</ele>
        <time>2013-08-31T08:32:23Z</time>
      </trkpt>
      <trkpt lat="45.85798" lon="4.78928">
        <ele>520.4000244</ele>
        <time>2013-08-31T08:32:26Z</time>
      </trkpt>
      <trkpt lat="45.85797" lon="4.78924">
        <ele>520.7999878</ele>
        <time>2013-08-31T08:32:27Z</time>
      </trkpt>
      <trkpt lat="45.85794" lon="4.78914">
        <ele>520.7999878</ele>
        <time>2013-08-31T08:32:30Z</time>
      </trkpt>
      <trkpt lat="45.85793" lon="4.78911">
        <ele>521.5</ele>
        <time>2013-08-31T08:32:31Z</time>
      </trkpt>
      <trkpt lat="45.85791" lon="4.789">
        <ele>521.9000244</ele>
        <time>2013-08-31T08:32:34Z</time>
      </trkpt>
      <trkpt lat="45.8579" lon="4.78897">
        <ele>523</ele>
        <time>2013-08-31T08:32:35Z</time>
      </trkpt>
      <trkpt lat="45.85791" lon="4.78887">
        <ele>524.7999878</ele>
        <time>2013-08-31T08:32:38Z</time>
      </trkpt>
      <trkpt lat="45.85792" lon="4.78884">
        <ele>525.2999878</ele>
        <time>2013-08-31T08:32:39Z</time>
      </trkpt>
      <trkpt lat="45.85796" lon="4.78874">
        <ele>526.0999756</ele>
        <time>2013-08-31T08:32:43Z</time>
      </trkpt>
      <trkpt lat="45.85796" lon="4.78872">
        <ele>526.7000122</ele>
        <time>2013-08-31T08:32:44Z</time>
      </trkpt>
      <trkpt lat="45.85799" lon="4.78861">
        <ele>527.7999878</ele>
        <time>2013-08-31T08:32:48Z</time>
      </trkpt>
      <trkpt lat="45.858" lon="4.78859">
        <ele>527.9000244</ele>
        <time>2013-08-31T08:32:49Z</time>
      </trkpt>
      <trkpt lat="45.85802" lon="4.78849">
        <ele>529.7999878</ele>
        <time>2013-08-31T08:32:53Z</time>
      </trkpt>
      <trkpt lat="45.85803" lon="4.78847">
        <ele>529.9000244</ele>
        <time>2013-08-31T08:32:54Z</time>
      </trkpt>
      <trkpt lat="45.85805" lon="4.78834">
        <ele>532.2999878</ele>
        <time>2013-08-31T08:32:59Z</time>
      </trkpt>
      <trkpt lat="45.85806" lon="4.78832">
        <ele>532.4000244</ele>
        <time>2013-08-31T08:33:00Z</time>
      </trkpt>
      <trkpt lat="45.85809" lon="4.78824">
        <ele>532.9000244</ele>
        <time>2013-08-31T08:33:04Z</time>
      </trkpt>
      <trkpt lat="45.85811" lon="4.78821">
        <ele>533.0999756</ele>
        <time>2013-08-31T08:33:05Z</time>
      </trkpt>
      <trkpt lat="45.85815" lon="4.7881">
        <ele>534.0999756</ele>
        <time>2013-08-31T08:33:09Z</time>
      </trkpt>
      <trkpt lat="45.85816" lon="4.78809">
        <ele>533.9000244</ele>
        <time>2013-08-31T08:33:10Z</time>
      </trkpt>
      <trkpt lat="45.8582" lon="4.78807">
        <ele>533.0999756</ele>
        <time>2013-08-31T08:33:14Z</time>
      </trkpt>
      <trkpt lat="45.8582" lon="4.78807">
        <ele>533.2999878</ele>
        <time>2013-08-31T08:33:15Z</time>
      </trkpt>
      <trkpt lat="45.8582" lon="4.78808">
        <ele>533.2000122</ele>
        <time>2013-08-31T08:34:42Z</time>
      </trkpt>
      <trkpt lat="45.8582" lon="4.78808">
        <ele>533.2999878</ele>
        <time>2013-08-31T08:34:43Z</time>
      </trkpt>
      <trkpt lat="45.8582" lon="4.78807">
        <ele>533.2999878</ele>
        <time>2013-08-31T08:34:44Z</time>
      </trkpt>
      <trkpt lat="45.8582" lon="4.78807">
        <ele>533.5</ele>
        <time>2013-08-31T08:34:45Z</time>
      </trkpt>
      <trkpt lat="45.85819" lon="4.78808">
        <ele>533.7000122</ele>
        <time>2013-08-31T08:34:46Z</time>
      </trkpt>
      <trkpt lat="45.85818" lon="4.78808">
        <ele>533.7999878</ele>
        <time>2013-08-31T08:34:49Z</time>
      </trkpt>
      <trkpt lat="45.85818" lon="4.78808">
        <ele>533.9000244</ele>
        <time>2013-08-31T08:34:50Z</time>
      </trkpt>
      <trkpt lat="45.85818" lon="4.78808">
        <ele>534</ele>
        <time>2013-08-31T08:34:51Z</time>
      </trkpt>
      <trkpt lat="45.85818" lon="4.78809">
        <ele>534.2000122</ele>
        <time>2013-08-31T08:34:52Z</time>
      </trkpt>
      <trkpt lat="45.85818" lon="4.78809">
        <ele>534.0999756</ele>
        <time>2013-08-31T08:34:53Z</time>
      </trkpt>
      <trkpt lat="45.85818" lon="4.78809">
        <ele>534.2000122</ele>
        <time>2013-08-31T08:35:44Z</time>
      </trkpt>
      <trkpt lat="45.85818" lon="4.78809">
        <ele>534.2000122</ele>
        <time>2013-08-31T08:35:45Z</time>
      </trkpt>
      <trkpt lat="45.85818" lon="4.78809">
        <ele>533.4000244</ele>
        <time>2013-08-31T08:35:49Z</time>
      </trkpt>
      <trkpt lat="45.85819" lon="4.78809">
        <ele>533.4000244</ele>
        <time>2013-08-31T08:35:50Z</time>
      </trkpt>
      <trkpt lat="45.85818" lon="4.78809">
        <ele>533.5</ele>
        <time>2013-08-31T08:35:51Z</time>
      </trkpt>
      <trkpt lat="45.85818" lon="4.78809">
        <ele>533.5999756</ele>
        <time>2013-08-31T08:35:52Z</time>
      </trkpt>
      <trkpt lat="45.85818" lon="4.78809">
        <ele>533.5999756</ele>
        <time>2013-08-31T08:35:53Z</time>
      </trkpt>
      <trkpt lat="45.85818" lon="4.78809">
        <ele>533.4000244</ele>
        <time>2013-08-31T08:35:54Z</time>
      </trkpt>
      <trkpt lat="45.85818" lon="4.78809">
        <ele>533.2999878</ele>
        <time>2013-08-31T08:35:55Z</time>
      </trkpt>
      <trkpt lat="45.85818" lon="4.78809">
        <ele>533.5</ele>
        <time>2013-08-31T08:36:19Z</time>
      </trkpt>
      <trkpt lat="45.85814" lon="4.78812">
        <ele>535</ele>
        <time>2013-08-31T08:36:20Z</time>
      </trkpt>
      <trkpt lat="45.85817" lon="4.78809">
        <ele>535.2000122</ele>
        <time>2013-08-31T08:36:29Z</time>
      </trkpt>
      <trkpt lat="45.85817" lon="4.78809">
        <ele>535.2999878</ele>
        <time>2013-08-31T08:36:30Z</time>
      </trkpt>
      <trkpt lat="45.85817" lon="4.78809">
        <ele>535.5</ele>
        <time>2013-08-31T08:37:18Z</time>
      </trkpt>
      <trkpt lat="45.85819" lon="4.78808">
        <ele>534.0999756</ele>
        <time>2013-08-31T08:37:19Z</time>
      </trkpt>
      <trkpt lat="45.85827" lon="4.78808">
        <ele>531.9000244</ele>
        <time>2013-08-31T08:37:25Z</time>
      </trkpt>
      <trkpt lat="45.85829" lon="4.7881">
        <ele>532.2999878</ele>
        <time>2013-08-31T08:37:26Z</time>
      </trkpt>
      <trkpt lat="45.85835" lon="4.78817">
        <ele>533.5</ele>
        <time>2013-08-31T08:37:30Z</time>
      </trkpt>
      <trkpt lat="45.85836" lon="4.78821">
        <ele>534</ele>
        <time>2013-08-31T08:37:31Z</time>
      </trkpt>
      <trkpt lat="45.85842" lon="4.78829">
        <ele>534.2000122</ele>
        <time>2013-08-31T08:37:36Z</time>
      </trkpt>
      <trkpt lat="45.85843" lon="4.78829">
        <ele>534.5999756</ele>
        <time>2013-08-31T08:37:37Z</time>
      </trkpt>
      <trkpt lat="45.8585" lon="4.78824">
        <ele>535.9000244</ele>
        <time>2013-08-31T08:37:41Z</time>
      </trkpt>
      <trkpt lat="45.85852" lon="4.78822">
        <ele>536.4000244</ele>
        <time>2013-08-31T08:37:42Z</time>
      </trkpt>
      <trkpt lat="45.85858" lon="4.78821">
        <ele>537.0999756</ele>
        <time>2013-08-31T08:37:44Z</time>
      </trkpt>
      <trkpt lat="45.85862" lon="4.78821">
        <ele>537.2999878</ele>
        <time>2013-08-31T08:37:45Z</time>
      </trkpt>
      <trkpt lat="45.85869" lon="4.78819">
        <ele>537.9000244</ele>
        <time>2013-08-31T08:37:47Z</time>
      </trkpt>
      <trkpt lat="45.85874" lon="4.7882">
        <ele>538.0999756</ele>
        <time>2013-08-31T08:37:48Z</time>
      </trkpt>
      <trkpt lat="45.85881" lon="4.78821">
        <ele>538.5</ele>
        <time>2013-08-31T08:37:49Z</time>
      </trkpt>
      <trkpt lat="45.85886" lon="4.78823">
        <ele>538</ele>
        <time>2013-08-31T08:37:50Z</time>
      </trkpt>
      <trkpt lat="45.85893" lon="4.78825">
        <ele>537.5999756</ele>
        <time>2013-08-31T08:37:51Z</time>
      </trkpt>
      <trkpt lat="45.85898" lon="4.78828">
        <ele>537.7000122</ele>
        <time>2013-08-31T08:37:52Z</time>
      </trkpt>
      <trkpt lat="45.85907" lon="4.78831">
        <ele>538.2999878</ele>
        <time>2013-08-31T08:37:54Z</time>
      </trkpt>
      <trkpt lat="45.8591" lon="4.78831">
        <ele>538.5</ele>
        <time>2013-08-31T08:37:55Z</time>
      </trkpt>
      <trkpt lat="45.85918" lon="4.78827">
        <ele>541.9000244</ele>
        <time>2013-08-31T08:38:01Z</time>
      </trkpt>
      <trkpt lat="45.8592" lon="4.78826">
        <ele>542.4000244</ele>
        <time>2013-08-31T08:38:02Z</time>
      </trkpt>
      <trkpt lat="45.85928" lon="4.78827">
        <ele>542.7000122</ele>
        <time>2013-08-31T08:38:04Z</time>
      </trkpt>
      <trkpt lat="45.85935" lon="4.7883">
        <ele>545.5</ele>
        <time>2013-08-31T08:38:05Z</time>
      </trkpt>
      <trkpt lat="45.85939" lon="4.78832">
        <ele>545.2000122</ele>
        <time>2013-08-31T08:38:06Z</time>
      </trkpt>
      <trkpt lat="45.85944" lon="4.78833">
        <ele>545.5</ele>
        <time>2013-08-31T08:38:07Z</time>
      </trkpt>
      <trkpt lat="45.8595" lon="4.78834">
        <ele>545.7000122</ele>
        <time>2013-08-31T08:38:09Z</time>
      </trkpt>
      <trkpt lat="45.85953" lon="4.78835">
        <ele>546.2000122</ele>
        <time>2013-08-31T08:38:10Z</time>
      </trkpt>
      <trkpt lat="45.8596" lon="4.78841">
        <ele>545.5999756</ele>
        <time>2013-08-31T08:38:12Z</time>
      </trkpt>
      <trkpt lat="45.85962" lon="4.7884">
        <ele>545.2000122</ele>
        <time>2013-08-31T08:38:13Z</time>
      </trkpt>
      <trkpt lat="45.8597" lon="4.78843">
        <ele>544.4000244</ele>
        <time>2013-08-31T08:38:16Z</time>
      </trkpt>
      <trkpt lat="45.85972" lon="4.78844">
        <ele>544.0999756</ele>
        <time>2013-08-31T08:38:17Z</time>
      </trkpt>
      <trkpt lat="45.8598" lon="4.78847">
        <ele>543.2000122</ele>
        <time>2013-08-31T08:38:23Z</time>
      </trkpt>
      <trkpt lat="45.85984" lon="4.78852">
        <ele>543.2000122</ele>
        <time>2013-08-31T08:38:24Z</time>
      </trkpt>
      <trkpt lat="45.85988" lon="4.78853">
        <ele>543.5</ele>
        <time>2013-08-31T08:38:25Z</time>
      </trkpt>
      <trkpt lat="45.85993" lon="4.78855">
        <ele>543.2999878</ele>
        <time>2013-08-31T08:38:26Z</time>
      </trkpt>
      <trkpt lat="45.86" lon="4.78858">
        <ele>543.5999756</ele>
        <time>2013-08-31T08:38:27Z</time>
      </trkpt>
      <trkpt lat="45.86006" lon="4.78861">
        <ele>543.4000244</ele>
        <time>2013-08-31T08:38:28Z</time>
      </trkpt>
      <trkpt lat="45.86011" lon="4.78864">
        <ele>543.4000244</ele>
        <time>2013-08-31T08:38:29Z</time>
      </trkpt>
      <trkpt lat="45.86016" lon="4.78869">
        <ele>543.2000122</ele>
        <time>2013-08-31T08:38:30Z</time>
      </trkpt>
      <trkpt lat="45.86021" lon="4.78873">
        <ele>543.2000122</ele>
        <time>2013-08-31T08:38:31Z</time>
      </trkpt>
      <trkpt lat="45.86024" lon="4.78876">
        <ele>543.2999878</ele>
        <time>2013-08-31T08:38:32Z</time>
      </trkpt>
      <trkpt lat="45.86032" lon="4.7888">
        <ele>543.9000244</ele>
        <time>2013-08-31T08:38:34Z</time>
      </trkpt>
      <trkpt lat="45.86038" lon="4.78882">
        <ele>543.9000244</ele>
        <time>2013-08-31T08:38:35Z</time>
      </trkpt>
      <trkpt lat="45.86046" lon="4.78887">
        <ele>543.7999878</ele>
        <time>2013-08-31T08:38:36Z</time>
      </trkpt>
      <trkpt lat="45.86053" lon="4.78891">
        <ele>543.7999878</ele>
        <time>2013-08-31T08:38:37Z</time>
      </trkpt>
      <trkpt lat="45.86057" lon="4.78895">
        <ele>543.5</ele>
        <time>2013-08-31T08:38:38Z</time>
      </trkpt>
      <trkpt lat="45.86062" lon="4.78897">
        <ele>543.5</ele>
        <time>2013-08-31T08:38:39Z</time>
      </trkpt>
      <trkpt lat="45.8607" lon="4.789">
        <ele>543.7000122</ele>
        <time>2013-08-31T08:38:40Z</time>
      </trkpt>
      <trkpt lat="45.86075" lon="4.78905">
        <ele>543.9000244</ele>
        <time>2013-08-31T08:38:41Z</time>
      </trkpt>
      <trkpt lat="45.86082" lon="4.7891">
        <ele>544.0999756</ele>
        <time>2013-08-31T08:38:42Z</time>
      </trkpt>
      <trkpt lat="45.86088" lon="4.78917">
        <ele>544.2999878</ele>
        <time>2013-08-31T08:38:43Z</time>
      </trkpt>
      <trkpt lat="45.86095" lon="4.78921">
        <ele>544.0999756</ele>
        <time>2013-08-31T08:38:44Z</time>
      </trkpt>
      <trkpt lat="45.86101" lon="4.78926">
        <ele>543.5</ele>
        <time>2013-08-31T08:38:45Z</time>
      </trkpt>
      <trkpt lat="45.86108" lon="4.78929">
        <ele>543.5999756</ele>
        <time>2013-08-31T08:38:46Z</time>
      </trkpt>
      <trkpt lat="45.86112" lon="4.78933">
        <ele>543.7999878</ele>
        <time>2013-08-31T08:38:47Z</time>
      </trkpt>
      <trkpt lat="45.86119" lon="4.78941">
        <ele>544.5</ele>
        <time>2013-08-31T08:38:49Z</time>
      </trkpt>
      <trkpt lat="45.86122" lon="4.78942">
        <ele>545.2999878</ele>
        <time>2013-08-31T08:38:50Z</time>
      </trkpt>
      <trkpt lat="45.86126" lon="4.78952">
        <ele>546</ele>
        <time>2013-08-31T08:38:52Z</time>
      </trkpt>
      <trkpt lat="45.86129" lon="4.78959">
        <ele>546.0999756</ele>
        <time>2013-08-31T08:38:53Z</time>
      </trkpt>
      <trkpt lat="45.86132" lon="4.78965">
        <ele>546.4000244</ele>
        <time>2013-08-31T08:38:54Z</time>
      </trkpt>
      <trkpt lat="45.86134" lon="4.78971">
        <ele>546.7999878</ele>
        <time>2013-08-31T08:38:55Z</time>
      </trkpt>
      <trkpt lat="45.86139" lon="4.78979">
        <ele>547.5</ele>
        <time>2013-08-31T08:38:57Z</time>
      </trkpt>
      <trkpt lat="45.86139" lon="4.78982">
        <ele>547.7999878</ele>
        <time>2013-08-31T08:38:58Z</time>
      </trkpt>
      <trkpt lat="45.86145" lon="4.78988">
        <ele>550.2999878</ele>
        <time>2013-08-31T08:39:01Z</time>
      </trkpt>
      <trkpt lat="45.86148" lon="4.78991">
        <ele>550.4000244</ele>
        <time>2013-08-31T08:39:02Z</time>
      </trkpt>
      <trkpt lat="45.86155" lon="4.78998">
        <ele>550.7000122</ele>
        <time>2013-08-31T08:39:04Z</time>
      </trkpt>
      <trkpt lat="45.86158" lon="4.79003">
        <ele>550.2000122</ele>
        <time>2013-08-31T08:39:05Z</time>
      </trkpt>
      <trkpt lat="45.86163" lon="4.7901">
        <ele>550.5999756</ele>
        <time>2013-08-31T08:39:06Z</time>
      </trkpt>
      <trkpt lat="45.86168" lon="4.79017">
        <ele>551.2999878</ele>
        <time>2013-08-31T08:39:07Z</time>
      </trkpt>
      <trkpt lat="45.86173" lon="4.79022">
        <ele>551.7999878</ele>
        <time>2013-08-31T08:39:08Z</time>
      </trkpt>
      <trkpt lat="45.86178" lon="4.79028">
        <ele>551.2999878</ele>
        <time>2013-08-31T08:39:09Z</time>
      </trkpt>
      <trkpt lat="45.86183" lon="4.79036">
        <ele>551.9000244</ele>
        <time>2013-08-31T08:39:10Z</time>
      </trkpt>
      <trkpt lat="45.86188" lon="4.79045">
        <ele>551.0999756</ele>
        <time>2013-08-31T08:39:11Z</time>
      </trkpt>
      <trkpt lat="45.86195" lon="4.79052">
        <ele>551.7999878</ele>
        <time>2013-08-31T08:39:12Z</time>
      </trkpt>
      <trkpt lat="45.862" lon="4.79058">
        <ele>551</ele>
        <time>2013-08-31T08:39:13Z</time>
      </trkpt>
      <trkpt lat="45.86205" lon="4.79065">
        <ele>549.9000244</ele>
        <time>2013-08-31T08:39:14Z</time>
      </trkpt>
      <trkpt lat="45.86209" lon="4.79071">
        <ele>550.2000122</ele>
        <time>2013-08-31T08:39:15Z</time>
      </trkpt>
      <trkpt lat="45.86216" lon="4.7908">
        <ele>550.0999756</ele>
        <time>2013-08-31T08:39:16Z</time>
      </trkpt>
      <trkpt lat="45.8622" lon="4.79086">
        <ele>550.2999878</ele>
        <time>2013-08-31T08:39:17Z</time>
      </trkpt>
      <trkpt lat="45.86223" lon="4.79092">
        <ele>550.5999756</ele>
        <time>2013-08-31T08:39:18Z</time>
      </trkpt>
      <trkpt lat="45.86229" lon="4.79098">
        <ele>551.0999756</ele>
        <time>2013-08-31T08:39:19Z</time>
      </trkpt>
      <trkpt lat="45.86233" lon="4.79104">
        <ele>551</ele>
        <time>2013-08-31T08:39:20Z</time>
      </trkpt>
      <trkpt lat="45.86237" lon="4.79115">
        <ele>551</ele>
        <time>2013-08-31T08:39:22Z</time>
      </trkpt>
      <trkpt lat="45.86241" lon="4.79121">
        <ele>550.7000122</ele>
        <time>2013-08-31T08:39:23Z</time>
      </trkpt>
      <trkpt lat="45.86246" lon="4.79123">
        <ele>550.7000122</ele>
        <time>2013-08-31T08:39:24Z</time>
      </trkpt>
      <trkpt lat="45.86249" lon="4.79127">
        <ele>550.2000122</ele>
        <time>2013-08-31T08:39:25Z</time>
      </trkpt>
      <trkpt lat="45.86254" lon="4.7913">
        <ele>550.4000244</ele>
        <time>2013-08-31T08:39:26Z</time>
      </trkpt>
      <trkpt lat="45.86258" lon="4.79138">
        <ele>550.2999878</ele>
        <time>2013-08-31T08:39:27Z</time>
      </trkpt>
      <trkpt lat="45.86262" lon="4.79142">
        <ele>550.2999878</ele>
        <time>2013-08-31T08:39:28Z</time>
      </trkpt>
      <trkpt lat="45.86264" lon="4.79151">
        <ele>549.4000244</ele>
        <time>2013-08-31T08:39:29Z</time>
      </trkpt>
      <trkpt lat="45.86267" lon="4.79159">
        <ele>549</ele>
        <time>2013-08-31T08:39:30Z</time>
      </trkpt>
      <trkpt lat="45.86271" lon="4.79164">
        <ele>549</ele>
        <time>2013-08-31T08:39:31Z</time>
      </trkpt>
      <trkpt lat="45.86277" lon="4.79168">
        <ele>548.7000122</ele>
        <time>2013-08-31T08:39:33Z</time>
      </trkpt>
      <trkpt lat="45.86279" lon="4.7917">
        <ele>548.7999878</ele>
        <time>2013-08-31T08:39:34Z</time>
      </trkpt>
      <trkpt lat="45.86285" lon="4.79174">
        <ele>549.2000122</ele>
        <time>2013-08-31T08:39:35Z</time>
      </trkpt>
      <trkpt lat="45.8629" lon="4.79177">
        <ele>548.7000122</ele>
        <time>2013-08-31T08:39:36Z</time>
      </trkpt>
      <trkpt lat="45.86296" lon="4.79186">
        <ele>547.2999878</ele>
        <time>2013-08-31T08:39:38Z</time>
      </trkpt>
      <trkpt lat="45.863" lon="4.79193">
        <ele>547</ele>
        <time>2013-08-31T08:39:39Z</time>
      </trkpt>
      <trkpt lat="45.86303" lon="4.79197">
        <ele>547.4000244</ele>
        <time>2013-08-31T08:39:40Z</time>
      </trkpt>
      <trkpt lat="45.8631" lon="4.79204">
        <ele>547.0999756</ele>
        <time>2013-08-31T08:39:41Z</time>
      </trkpt>
      <trkpt lat="45.86314" lon="4.79208">
        <ele>547.0999756</ele>
        <time>2013-08-31T08:39:42Z</time>
      </trkpt>
      <trkpt lat="45.8632" lon="4.79216">
        <ele>546.7000122</ele>
        <time>2013-08-31T08:39:43Z</time>
      </trkpt>
      <trkpt lat="45.86327" lon="4.79224">
        <ele>545.9000244</ele>
        <time>2013-08-31T08:39:44Z</time>
      </trkpt>
      <trkpt lat="45.86333" lon="4.7923">
        <ele>546.2999878</ele>
        <time>2013-08-31T08:39:45Z</time>
      </trkpt>
      <trkpt lat="45.86341" lon="4.7924">
        <ele>545.9000244</ele>
        <time>2013-08-31T08:39:46Z</time>
      </trkpt>
      <trkpt lat="45.86348" lon="4.79246">
        <ele>545.4000244</ele>
        <time>2013-08-31T08:39:47Z</time>
      </trkpt>
      <trkpt lat="45.86354" lon="4.7925">
        <ele>544.2999878</ele>
        <time>2013-08-31T08:39:48Z</time>
      </trkpt>
      <trkpt lat="45.86363" lon="4.79258">
        <ele>543.9000244</ele>
        <time>2013-08-31T08:39:49Z</time>
      </trkpt>
      <trkpt lat="45.86371" lon="4.79268">
        <ele>544.4000244</ele>
        <time>2013-08-31T08:39:50Z</time>
      </trkpt>
      <trkpt lat="45.86379" lon="4.79277">
        <ele>544.5</ele>
        <time>2013-08-31T08:39:51Z</time>
      </trkpt>
      <trkpt lat="45.86389" lon="4.79287">
        <ele>544.7999878</ele>
        <time>2013-08-31T08:39:52Z</time>
      </trkpt>
      <trkpt lat="45.86396" lon="4.79297">
        <ele>545</ele>
        <time>2013-08-31T08:39:53Z</time>
      </trkpt>
      <trkpt lat="45.86406" lon="4.79305">
        <ele>544.2999878</ele>
        <time>2013-08-31T08:39:54Z</time>
      </trkpt>
      <trkpt lat="45.86414" lon="4.79315">
        <ele>544.2000122</ele>
        <time>2013-08-31T08:39:55Z</time>
      </trkpt>
      <trkpt lat="45.86422" lon="4.79325">
        <ele>543.5999756</ele>
        <time>2013-08-31T08:39:56Z</time>
      </trkpt>
      <trkpt lat="45.86431" lon="4.79337">
        <ele>543</ele>
        <time>2013-08-31T08:39:57Z</time>
      </trkpt>
      <trkpt lat="45.86438" lon="4.79344">
        <ele>542.4000244</ele>
        <time>2013-08-31T08:39:58Z</time>
      </trkpt>
      <trkpt lat="45.86446" lon="4.79355">
        <ele>540.5</ele>
        <time>2013-08-31T08:39:59Z</time>
      </trkpt>
      <trkpt lat="45.86452" lon="4.79363">
        <ele>540</ele>
        <time>2013-08-31T08:40:00Z</time>
      </trkpt>
      <trkpt lat="45.86459" lon="4.79372">
        <ele>539.5</ele>
        <time>2013-08-31T08:40:01Z</time>
      </trkpt>
      <trkpt lat="45.86465" lon="4.79379">
        <ele>539.5</ele>
        <time>2013-08-31T08:40:02Z</time>
      </trkpt>
      <trkpt lat="45.8647" lon="4.79384">
        <ele>539.0999756</ele>
        <time>2013-08-31T08:40:03Z</time>
      </trkpt>
      <trkpt lat="45.86476" lon="4.7939">
        <ele>539.2000122</ele>
        <time>2013-08-31T08:40:04Z</time>
      </trkpt>
      <trkpt lat="45.8648" lon="4.79396">
        <ele>539.0999756</ele>
        <time>2013-08-31T08:40:05Z</time>
      </trkpt>
      <trkpt lat="45.86482" lon="4.794">
        <ele>538.7000122</ele>
        <time>2013-08-31T08:40:06Z</time>
      </trkpt>
      <trkpt lat="45.86488" lon="4.79405">
        <ele>538.4000244</ele>
        <time>2013-08-31T08:40:07Z</time>
      </trkpt>
      <trkpt lat="45.86493" lon="4.79416">
        <ele>538.2999878</ele>
        <time>2013-08-31T08:40:08Z</time>
      </trkpt>
      <trkpt lat="45.86497" lon="4.79424">
        <ele>538</ele>
        <time>2013-08-31T08:40:09Z</time>
      </trkpt>
      <trkpt lat="45.86503" lon="4.79432">
        <ele>537.5999756</ele>
        <time>2013-08-31T08:40:10Z</time>
      </trkpt>
      <trkpt lat="45.86508" lon="4.79439">
        <ele>537.7000122</ele>
        <time>2013-08-31T08:40:11Z</time>
      </trkpt>
      <trkpt lat="45.86515" lon="4.79447">
        <ele>537.7999878</ele>
        <time>2013-08-31T08:40:12Z</time>
      </trkpt>
      <trkpt lat="45.86524" lon="4.79455">
        <ele>537.7000122</ele>
        <time>2013-08-31T08:40:13Z</time>
      </trkpt>
      <trkpt lat="45.86535" lon="4.79462">
        <ele>537.2000122</ele>
        <time>2013-08-31T08:40:14Z</time>
      </trkpt>
      <trkpt lat="45.86542" lon="4.79475">
        <ele>537</ele>
        <time>2013-08-31T08:40:15Z</time>
      </trkpt>
      <trkpt lat="45.8655" lon="4.79481">
        <ele>536.7000122</ele>
        <time>2013-08-31T08:40:16Z</time>
      </trkpt>
      <trkpt lat="45.86557" lon="4.79488">
        <ele>536.0999756</ele>
        <time>2013-08-31T08:40:17Z</time>
      </trkpt>
      <trkpt lat="45.86564" lon="4.79492">
        <ele>536.0999756</ele>
        <time>2013-08-31T08:40:18Z</time>
      </trkpt>
      <trkpt lat="45.86567" lon="4.79498">
        <ele>535.5999756</ele>
        <time>2013-08-31T08:40:19Z</time>
      </trkpt>
      <trkpt lat="45.86572" lon="4.795">
        <ele>534.9000244</ele>
        <time>2013-08-31T08:40:20Z</time>
      </trkpt>
      <trkpt lat="45.86578" lon="4.79504">
        <ele>534.7000122</ele>
        <time>2013-08-31T08:40:21Z</time>
      </trkpt>
      <trkpt lat="45.86581" lon="4.79509">
        <ele>534.7000122</ele>
        <time>2013-08-31T08:40:22Z</time>
      </trkpt>
      <trkpt lat="45.86586" lon="4.79516">
        <ele>533.7999878</ele>
        <time>2013-08-31T08:40:23Z</time>
      </trkpt>
      <trkpt lat="45.86591" lon="4.79523">
        <ele>532.7000122</ele>
        <time>2013-08-31T08:40:24Z</time>
      </trkpt>
      <trkpt lat="45.86595" lon="4.79531">
        <ele>531.2999878</ele>
        <time>2013-08-31T08:40:25Z</time>
      </trkpt>
      <trkpt lat="45.866" lon="4.79541">
        <ele>527.2999878</ele>
        <time>2013-08-31T08:40:26Z</time>
      </trkpt>
      <trkpt lat="45.86604" lon="4.7955">
        <ele>523.5999756</ele>
        <time>2013-08-31T08:40:27Z</time>
      </trkpt>
      <trkpt lat="45.86609" lon="4.79563">
        <ele>518.0999756</ele>
        <time>2013-08-31T08:40:28Z</time>
      </trkpt>
      <trkpt lat="45.86614" lon="4.79572">
        <ele>515.2000122</ele>
        <time>2013-08-31T08:40:29Z</time>
      </trkpt>
      <trkpt lat="45.86617" lon="4.79586">
        <ele>512.7999878</ele>
        <time>2013-08-31T08:40:30Z</time>
      </trkpt>
      <trkpt lat="45.8662" lon="4.79593">
        <ele>510.2999878</ele>
        <time>2013-08-31T08:40:31Z</time>
      </trkpt>
      <trkpt lat="45.86621" lon="4.796">
        <ele>509.3999939</ele>
        <time>2013-08-31T08:40:32Z</time>
      </trkpt>
      <trkpt lat="45.86623" lon="4.79608">
        <ele>508.8999939</ele>
        <time>2013-08-31T08:40:34Z</time>
      </trkpt>
      <trkpt lat="45.86625" lon="4.79612">
        <ele>508</ele>
        <time>2013-08-31T08:40:35Z</time>
      </trkpt>
      <trkpt lat="45.86632" lon="4.79618">
        <ele>505.5</ele>
        <time>2013-08-31T08:40:37Z</time>
      </trkpt>
      <trkpt lat="45.86632" lon="4.79622">
        <ele>505</ele>
        <time>2013-08-31T08:40:38Z</time>
      </trkpt>
      <trkpt lat="45.86634" lon="4.79629">
        <ele>502.7999878</ele>
        <time>2013-08-31T08:40:40Z</time>
      </trkpt>
      <trkpt lat="45.86637" lon="4.79634">
        <ele>502.3999939</ele>
        <time>2013-08-31T08:40:41Z</time>
      </trkpt>
      <trkpt lat="45.86642" lon="4.79643">
        <ele>500</ele>
        <time>2013-08-31T08:40:43Z</time>
      </trkpt>
      <trkpt lat="45.86648" lon="4.79648">
        <ele>494.2999878</ele>
        <time>2013-08-31T08:40:44Z</time>
      </trkpt>
      <trkpt lat="45.86655" lon="4.79656">
        <ele>488.8999939</ele>
        <time>2013-08-31T08:40:46Z</time>
      </trkpt>
      <trkpt lat="45.86659" lon="4.79658">
        <ele>485.8999939</ele>
        <time>2013-08-31T08:40:47Z</time>
      </trkpt>
      <trkpt lat="45.86659" lon="4.7966">
        <ele>481.1000061</ele>
        <time>2013-08-31T08:40:49Z</time>
      </trkpt>
      <trkpt lat="45.86659" lon="4.7966">
        <ele>480.5</ele>
        <time>2013-08-31T08:40:50Z</time>
      </trkpt>
      <trkpt lat="45.86659" lon="4.7966">
        <ele>480</ele>
        <time>2013-08-31T08:40:51Z</time>
      </trkpt>
      <trkpt lat="45.86662" lon="4.79657">
        <ele>476</ele>
        <time>2013-08-31T08:40:58Z</time>
      </trkpt>
      <trkpt lat="45.86662" lon="4.79658">
        <ele>476</ele>
        <time>2013-08-31T08:40:59Z</time>
      </trkpt>
      <trkpt lat="45.86663" lon="4.79658">
        <ele>473.8999939</ele>
        <time>2013-08-31T08:43:45Z</time>
      </trkpt>
      <trkpt lat="45.86663" lon="4.79658">
        <ele>474.1000061</ele>
        <time>2013-08-31T08:43:46Z</time>
      </trkpt>
      <trkpt lat="45.86655" lon="4.79659">
        <ele>471.7000122</ele>
        <time>2013-08-31T08:43:48Z</time>
      </trkpt>
      <trkpt lat="45.86653" lon="4.79659">
        <ele>470</ele>
        <time>2013-08-31T08:43:49Z</time>
      </trkpt>
      <trkpt lat="45.86646" lon="4.7965">
        <ele>464.1000061</ele>
        <time>2013-08-31T08:43:52Z</time>
      </trkpt>
      <trkpt lat="45.86652" lon="4.79643">
        <ele>461.7999878</ele>
        <time>2013-08-31T08:43:53Z</time>
      </trkpt>
      <trkpt lat="45.86647" lon="4.79634">
        <ele>459</ele>
        <time>2013-08-31T08:43:55Z</time>
      </trkpt>
      <trkpt lat="45.86647" lon="4.79629">
        <ele>457.8999939</ele>
        <time>2013-08-31T08:43:56Z</time>
      </trkpt>
      <trkpt lat="45.86646" lon="4.79619">
        <ele>456.7999878</ele>
        <time>2013-08-31T08:43:59Z</time>
      </trkpt>
      <trkpt lat="45.86646" lon="4.79615">
        <ele>456.6000061</ele>
        <time>2013-08-31T08:44:00Z</time>
      </trkpt>
      <trkpt lat="45.86644" lon="4.79607">
        <ele>456.1000061</ele>
        <time>2013-08-31T08:44:02Z</time>
      </trkpt>
      <trkpt lat="45.86643" lon="4.79602">
        <ele>456.2000122</ele>
        <time>2013-08-31T08:44:03Z</time>
      </trkpt>
      <trkpt lat="45.86642" lon="4.79595">
        <ele>455.3999939</ele>
        <time>2013-08-31T08:44:05Z</time>
      </trkpt>
      <trkpt lat="45.86638" lon="4.79591">
        <ele>455.2999878</ele>
        <time>2013-08-31T08:44:06Z</time>
      </trkpt>
      <trkpt lat="45.86636" lon="4.79579">
        <ele>454.5</ele>
        <time>2013-08-31T08:44:09Z</time>
      </trkpt>
      <trkpt lat="45.86636" lon="4.79573">
        <ele>454.6000061</ele>
        <time>2013-08-31T08:44:10Z</time>
      </trkpt>
      <trkpt lat="45.86639" lon="4.79563">
        <ele>455.5</ele>
        <time>2013-08-31T08:44:12Z</time>
      </trkpt>
      <trkpt lat="45.8664" lon="4.79559">
        <ele>456</ele>
        <time>2013-08-31T08:44:13Z</time>
      </trkpt>
      <trkpt lat="45.86643" lon="4.79549">
        <ele>454.8999939</ele>
        <time>2013-08-31T08:44:15Z</time>
      </trkpt>
      <trkpt lat="45.86646" lon="4.79544">
        <ele>455.2000122</ele>
        <time>2013-08-31T08:44:16Z</time>
      </trkpt>
      <trkpt lat="45.86647" lon="4.79534">
        <ele>452.6000061</ele>
        <time>2013-08-31T08:44:17Z</time>
      </trkpt>
      <trkpt lat="45.86648" lon="4.79527">
        <ele>451.7999878</ele>
        <time>2013-08-31T08:44:18Z</time>
      </trkpt>
      <trkpt lat="45.86648" lon="4.7952">
        <ele>451</ele>
        <time>2013-08-31T08:44:19Z</time>
      </trkpt>
      <trkpt lat="45.86648" lon="4.79512">
        <ele>449.8999939</ele>
        <time>2013-08-31T08:44:20Z</time>
      </trkpt>
      <trkpt lat="45.8665" lon="4.79506">
        <ele>450.5</ele>
        <time>2013-08-31T08:44:21Z</time>
      </trkpt>
      <trkpt lat="45.8665" lon="4.79499">
        <ele>450.7000122</ele>
        <time>2013-08-31T08:44:22Z</time>
      </trkpt>
      <trkpt lat="45.86652" lon="4.79491">
        <ele>449.7999878</ele>
        <time>2013-08-31T08:44:23Z</time>
      </trkpt>
      <trkpt lat="45.86652" lon="4.79484">
        <ele>449.6000061</ele>
        <time>2013-08-31T08:44:24Z</time>
      </trkpt>
      <trkpt lat="45.86651" lon="4.79477">
        <ele>448.5</ele>
        <time>2013-08-31T08:44:25Z</time>
      </trkpt>
      <trkpt lat="45.86652" lon="4.7947">
        <ele>448.6000061</ele>
        <time>2013-08-31T08:44:26Z</time>
      </trkpt>
      <trkpt lat="45.86652" lon="4.79457">
        <ele>448.1000061</ele>
        <time>2013-08-31T08:44:28Z</time>
      </trkpt>
      <trkpt lat="45.86653" lon="4.79449">
        <ele>447.5</ele>
        <time>2013-08-31T08:44:29Z</time>
      </trkpt>
      <trkpt lat="45.86653" lon="4.7944">
        <ele>446.7999878</ele>
        <time>2013-08-31T08:44:30Z</time>
      </trkpt>
      <trkpt lat="45.86652" lon="4.79433">
        <ele>446</ele>
        <time>2013-08-31T08:44:31Z</time>
      </trkpt>
      <trkpt lat="45.8665" lon="4.79421">
        <ele>445.2000122</ele>
        <time>2013-08-31T08:44:33Z</time>
      </trkpt>
      <trkpt lat="45.8665" lon="4.79417">
        <ele>444.8999939</ele>
        <time>2013-08-31T08:44:34Z</time>
      </trkpt>
      <trkpt lat="45.86651" lon="4.79405">
        <ele>443.2999878</ele>
        <time>2013-08-31T08:44:38Z</time>
      </trkpt>
      <trkpt lat="45.86651" lon="4.79404">
        <ele>442.3999939</ele>
        <time>2013-08-31T08:44:39Z</time>
      </trkpt>
      <trkpt lat="45.86651" lon="4.79404">
        <ele>442.5</ele>
        <time>2013-08-31T08:44:40Z</time>
      </trkpt>
      <trkpt lat="45.86651" lon="4.79403">
        <ele>442.1000061</ele>
        <time>2013-08-31T08:44:41Z</time>
      </trkpt>
      <trkpt lat="45.86654" lon="4.79394">
        <ele>440.1000061</ele>
        <time>2013-08-31T08:44:45Z</time>
      </trkpt>
      <trkpt lat="45.86654" lon="4.79389">
        <ele>439.7999878</ele>
        <time>2013-08-31T08:44:46Z</time>
      </trkpt>
      <trkpt lat="45.86656" lon="4.7938">
        <ele>439.8999939</ele>
        <time>2013-08-31T08:44:48Z</time>
      </trkpt>
      <trkpt lat="45.86657" lon="4.79376">
        <ele>439.7999878</ele>
        <time>2013-08-31T08:44:49Z</time>
      </trkpt>
      <trkpt lat="45.86658" lon="4.79366">
        <ele>440.1000061</ele>
        <time>2013-08-31T08:44:51Z</time>
      </trkpt>
      <trkpt lat="45.86656" lon="4.79363">
        <ele>439</ele>
        <time>2013-08-31T08:44:52Z</time>
      </trkpt>
      <trkpt lat="45.86653" lon="4.79369">
        <ele>439.5</ele>
        <time>2013-08-31T08:44:54Z</time>
      </trkpt>
      <trkpt lat="45.86653" lon="4.79369">
        <ele>439.2999878</ele>
        <time>2013-08-31T08:44:55Z</time>
      </trkpt>
      <trkpt lat="45.86653" lon="4.79368">
        <ele>439.6000061</ele>
        <time>2013-08-31T08:44:56Z</time>
      </trkpt>
      <trkpt lat="45.86653" lon="4.79368">
        <ele>439.8999939</ele>
        <time>2013-08-31T08:44:57Z</time>
      </trkpt>
      <trkpt lat="45.86652" lon="4.79368">
        <ele>439.6000061</ele>
        <time>2013-08-31T08:44:59Z</time>
      </trkpt>
      <trkpt lat="45.86652" lon="4.79368">
        <ele>439.7000122</ele>
        <time>2013-08-31T08:45:00Z</time>
      </trkpt>
      <trkpt lat="45.86653" lon="4.79369">
        <ele>439.6000061</ele>
        <time>2013-08-31T08:45:01Z</time>
      </trkpt>
      <trkpt lat="45.86653" lon="4.79368">
        <ele>439.7999878</ele>
        <time>2013-08-31T08:45:02Z</time>
      </trkpt>
      <trkpt lat="45.86653" lon="4.79369">
        <ele>439.8999939</ele>
        <time>2013-08-31T08:45:03Z</time>
      </trkpt>
      <trkpt lat="45.86652" lon="4.79365">
        <ele>440.6000061</ele>
        <time>2013-08-31T08:45:08Z</time>
      </trkpt>
      <trkpt lat="45.86652" lon="4.79366">
        <ele>440.5</ele>
        <time>2013-08-31T08:45:09Z</time>
      </trkpt>
      <trkpt lat="45.86652" lon="4.79365">
        <ele>440.5</ele>
        <time>2013-08-31T08:45:10Z</time>
      </trkpt>
      <trkpt lat="45.86653" lon="4.79363">
        <ele>440.8999939</ele>
        <time>2013-08-31T08:45:17Z</time>
      </trkpt>
      <trkpt lat="45.86653" lon="4.79363">
        <ele>440.8999939</ele>
        <time>2013-08-31T08:45:18Z</time>
      </trkpt>
      <trkpt lat="45.86653" lon="4.79363">
        <ele>440.8999939</ele>
        <time>2013-08-31T08:45:20Z</time>
      </trkpt>
      <trkpt lat="45.86652" lon="4.79361">
        <ele>440.1000061</ele>
        <time>2013-08-31T08:45:21Z</time>
      </trkpt>
      <trkpt lat="45.86654" lon="4.79369">
        <ele>436.7000122</ele>
        <time>2013-08-31T08:45:40Z</time>
      </trkpt>
      <trkpt lat="45.86653" lon="4.79369">
        <ele>436.5</ele>
        <time>2013-08-31T08:45:41Z</time>
      </trkpt>
      <trkpt lat="45.86654" lon="4.7937">
        <ele>436.5</ele>
        <time>2013-08-31T08:45:42Z</time>
      </trkpt>
      <trkpt lat="45.86654" lon="4.7937">
        <ele>436.2999878</ele>
        <time>2013-08-31T08:45:43Z</time>
      </trkpt>
      <trkpt lat="45.86655" lon="4.79369">
        <ele>436.2999878</ele>
        <time>2013-08-31T08:45:44Z</time>
      </trkpt>
      <trkpt lat="45.86655" lon="4.7937">
        <ele>436.1000061</ele>
        <time>2013-08-31T08:45:45Z</time>
      </trkpt>
      <trkpt lat="45.86663" lon="4.79373">
        <ele>436.6000061</ele>
        <time>2013-08-31T08:45:56Z</time>
      </trkpt>
      <trkpt lat="45.86663" lon="4.79373">
        <ele>436.8999939</ele>
        <time>2013-08-31T08:45:57Z</time>
      </trkpt>
      <trkpt lat="45.86663" lon="4.79373">
        <ele>437</ele>
        <time>2013-08-31T08:45:58Z</time>
      </trkpt>
      <trkpt lat="45.86663" lon="4.79373">
        <ele>436.8999939</ele>
        <time>2013-08-31T08:45:59Z</time>
      </trkpt>
      <trkpt lat="45.86662" lon="4.79373">
        <ele>436.7000122</ele>
        <time>2013-08-31T08:46:00Z</time>
      </trkpt>
      <trkpt lat="45.86662" lon="4.79373">
        <ele>436.5</ele>
        <time>2013-08-31T08:46:01Z</time>
      </trkpt>
      <trkpt lat="45.86662" lon="4.79373">
        <ele>436.2999878</ele>
        <time>2013-08-31T08:46:02Z</time>
      </trkpt>
      <trkpt lat="45.86662" lon="4.79373">
        <ele>436.2999878</ele>
        <time>2013-08-31T08:46:03Z</time>
      </trkpt>
      <trkpt lat="45.86663" lon="4.79373">
        <ele>436.2000122</ele>
        <time>2013-08-31T08:46:13Z</time>
      </trkpt>
      <trkpt lat="45.86662" lon="4.79373">
        <ele>435.5</ele>
        <time>2013-08-31T08:46:14Z</time>
      </trkpt>
      <trkpt lat="45.86662" lon="4.79373">
        <ele>435.6000061</ele>
        <time>2013-08-31T08:46:15Z</time>
      </trkpt>
      <trkpt lat="45.86662" lon="4.79373">
        <ele>435.6000061</ele>
        <time>2013-08-31T08:46:27Z</time>
      </trkpt>
      <trkpt lat="45.86662" lon="4.79373">
        <ele>435.7000122</ele>
        <time>2013-08-31T08:46:28Z</time>
      </trkpt>
      <trkpt lat="45.86655" lon="4.79373">
        <ele>439.2999878</ele>
        <time>2013-08-31T08:46:46Z</time>
      </trkpt>
      <trkpt lat="45.86655" lon="4.79373">
        <ele>439</ele>
        <time>2013-08-31T08:46:47Z</time>
      </trkpt>
      <trkpt lat="45.86655" lon="4.79373">
        <ele>439</ele>
        <time>2013-08-31T08:46:48Z</time>
      </trkpt>
      <trkpt lat="45.86655" lon="4.79373">
        <ele>438.8999939</ele>
        <time>2013-08-31T08:46:49Z</time>
      </trkpt>
      <trkpt lat="45.86655" lon="4.79373">
        <ele>438.7999878</ele>
        <time>2013-08-31T08:46:50Z</time>
      </trkpt>
      <trkpt lat="45.86655" lon="4.79373">
        <ele>438.6000061</ele>
        <time>2013-08-31T08:46:53Z</time>
      </trkpt>
      <trkpt lat="45.86655" lon="4.79373">
        <ele>439</ele>
        <time>2013-08-31T08:46:54Z</time>
      </trkpt>
      <trkpt lat="45.86655" lon="4.79373">
        <ele>439.1000061</ele>
        <time>2013-08-31T08:46:55Z</time>
      </trkpt>
      <trkpt lat="45.86655" lon="4.79372">
        <ele>439.2000122</ele>
        <time>2013-08-31T08:46:56Z</time>
      </trkpt>
      <trkpt lat="45.86655" lon="4.79373">
        <ele>439.6000061</ele>
        <time>2013-08-31T08:46:57Z</time>
      </trkpt>
      <trkpt lat="45.86655" lon="4.79373">
        <ele>439.3999939</ele>
        <time>2013-08-31T08:46:58Z</time>
      </trkpt>
      <trkpt lat="45.86655" lon="4.79374">
        <ele>439.7999878</ele>
        <time>2013-08-31T08:47:22Z</time>
      </trkpt>
      <trkpt lat="45.86655" lon="4.79372">
        <ele>439.5</ele>
        <time>2013-08-31T08:47:23Z</time>
      </trkpt>
      <trkpt lat="45.86655" lon="4.79371">
        <ele>438.2000122</ele>
        <time>2013-08-31T08:47:27Z</time>
      </trkpt>
      <trkpt lat="45.86655" lon="4.79371">
        <ele>438</ele>
        <time>2013-08-31T08:47:28Z</time>
      </trkpt>
      <trkpt lat="45.86656" lon="4.79371">
        <ele>437.7999878</ele>
        <time>2013-08-31T08:47:29Z</time>
      </trkpt>
      <trkpt lat="45.86656" lon="4.79373">
        <ele>437.7999878</ele>
        <time>2013-08-31T08:47:33Z</time>
      </trkpt>
      <trkpt lat="45.86656" lon="4.79372">
        <ele>437.7999878</ele>
        <time>2013-08-31T08:47:34Z</time>
      </trkpt>
      <trkpt lat="45.86654" lon="4.79372">
        <ele>438.7000122</ele>
        <time>2013-08-31T08:47:35Z</time>
      </trkpt>
      <trkpt lat="45.86651" lon="4.79362">
        <ele>438.1000061</ele>
        <time>2013-08-31T08:47:47Z</time>
      </trkpt>
      <trkpt lat="45.86651" lon="4.79362">
        <ele>438.1000061</ele>
        <time>2013-08-31T08:47:48Z</time>
      </trkpt>
      <trkpt lat="45.86651" lon="4.79362">
        <ele>438</ele>
        <time>2013-08-31T08:47:49Z</time>
      </trkpt>
      <trkpt lat="45.86651" lon="4.79364">
        <ele>438.3999939</ele>
        <time>2013-08-31T08:47:51Z</time>
      </trkpt>
      <trkpt lat="45.86651" lon="4.79364">
        <ele>438.5</ele>
        <time>2013-08-31T08:47:52Z</time>
      </trkpt>
      <trkpt lat="45.86651" lon="4.79365">
        <ele>438.1000061</ele>
        <time>2013-08-31T08:47:53Z</time>
      </trkpt>
      <trkpt lat="45.86651" lon="4.79366">
        <ele>438</ele>
        <time>2013-08-31T08:47:54Z</time>
      </trkpt>
      <trkpt lat="45.86651" lon="4.79366">
        <ele>437.7000122</ele>
        <time>2013-08-31T08:47:55Z</time>
      </trkpt>
      <trkpt lat="45.86652" lon="4.79366">
        <ele>437.6000061</ele>
        <time>2013-08-31T08:47:56Z</time>
      </trkpt>
      <trkpt lat="45.86652" lon="4.79366">
        <ele>437.6000061</ele>
        <time>2013-08-31T08:47:57Z</time>
      </trkpt>
      <trkpt lat="45.86651" lon="4.79365">
        <ele>438</ele>
        <time>2013-08-31T08:48:04Z</time>
      </trkpt>
      <trkpt lat="45.86651" lon="4.79365">
        <ele>438.2000122</ele>
        <time>2013-08-31T08:48:05Z</time>
      </trkpt>
      <trkpt lat="45.86651" lon="4.79365">
        <ele>439.1000061</ele>
        <time>2013-08-31T08:48:12Z</time>
      </trkpt>
      <trkpt lat="45.86651" lon="4.79365">
        <ele>439.2999878</ele>
        <time>2013-08-31T08:48:13Z</time>
      </trkpt>
      <trkpt lat="45.86651" lon="4.79366">
        <ele>439.2999878</ele>
        <time>2013-08-31T08:48:14Z</time>
      </trkpt>
      <trkpt lat="45.86652" lon="4.79365">
        <ele>439.2000122</ele>
        <time>2013-08-31T08:48:16Z</time>
      </trkpt>
      <trkpt lat="45.86651" lon="4.79365">
        <ele>439.1000061</ele>
        <time>2013-08-31T08:48:17Z</time>
      </trkpt>
      <trkpt lat="45.86651" lon="4.79365">
        <ele>439</ele>
        <time>2013-08-31T08:48:18Z</time>
      </trkpt>
      <trkpt lat="45.86651" lon="4.79366">
        <ele>439.3999939</ele>
        <time>2013-08-31T08:48:19Z</time>
      </trkpt>
      <trkpt lat="45.86651" lon="4.79366">
        <ele>439.3999939</ele>
        <time>2013-08-31T08:48:20Z</time>
      </trkpt>
      <trkpt lat="45.8665" lon="4.79365">
        <ele>438.7000122</ele>
        <time>2013-08-31T08:48:21Z</time>
      </trkpt>
      <trkpt lat="45.8665" lon="4.79364">
        <ele>438.6000061</ele>
        <time>2013-08-31T08:48:23Z</time>
      </trkpt>
      <trkpt lat="45.86649" lon="4.79364">
        <ele>438.7000122</ele>
        <time>2013-08-31T08:48:24Z</time>
      </trkpt>
      <trkpt lat="45.8665" lon="4.79365">
        <ele>438.7000122</ele>
        <time>2013-08-31T08:48:25Z</time>
      </trkpt>
      <trkpt lat="45.8665" lon="4.79365">
        <ele>439</ele>
        <time>2013-08-31T08:48:27Z</time>
      </trkpt>
      <trkpt lat="45.8665" lon="4.79365">
        <ele>438.8999939</ele>
        <time>2013-08-31T08:48:28Z</time>
      </trkpt>
      <trkpt lat="45.86649" lon="4.79366">
        <ele>438.6000061</ele>
        <time>2013-08-31T08:48:29Z</time>
      </trkpt>
      <trkpt lat="45.8665" lon="4.79365">
        <ele>438.7000122</ele>
        <time>2013-08-31T08:48:30Z</time>
      </trkpt>
      <trkpt lat="45.8665" lon="4.79364">
        <ele>436.3999939</ele>
        <time>2013-08-31T08:48:31Z</time>
      </trkpt>
      <trkpt lat="45.86649" lon="4.79365">
        <ele>436.2999878</ele>
        <time>2013-08-31T08:48:33Z</time>
      </trkpt>
      <trkpt lat="45.86649" lon="4.79365">
        <ele>436.2999878</ele>
        <time>2013-08-31T08:48:34Z</time>
      </trkpt>
      <trkpt lat="45.86649" lon="4.79365">
        <ele>435.5</ele>
        <time>2013-08-31T08:48:35Z</time>
      </trkpt>
      <trkpt lat="45.86649" lon="4.79366">
        <ele>437</ele>
        <time>2013-08-31T08:48:36Z</time>
      </trkpt>
      <trkpt lat="45.86649" lon="4.79366">
        <ele>436.6000061</ele>
        <time>2013-08-31T08:48:37Z</time>
      </trkpt>
      <trkpt lat="45.86649" lon="4.79366">
        <ele>436.7000122</ele>
        <time>2013-08-31T08:48:38Z</time>
      </trkpt>
      <trkpt lat="45.86649" lon="4.79366">
        <ele>436.7000122</ele>
        <time>2013-08-31T08:48:39Z</time>
      </trkpt>
      <trkpt lat="45.86645" lon="4.79357">
        <ele>437.5</ele>
        <time>2013-08-31T08:48:43Z</time>
      </trkpt>
      <trkpt lat="45.86645" lon="4.79354">
        <ele>437</ele>
        <time>2013-08-31T08:48:44Z</time>
      </trkpt>
      <trkpt lat="45.86643" lon="4.79346">
        <ele>436.7999878</ele>
        <time>2013-08-31T08:48:46Z</time>
      </trkpt>
      <trkpt lat="45.86642" lon="4.79341">
        <ele>437</ele>
        <time>2013-08-31T08:48:47Z</time>
      </trkpt>
      <trkpt lat="45.8664" lon="4.79331">
        <ele>437.1000061</ele>
        <time>2013-08-31T08:48:49Z</time>
      </trkpt>
      <trkpt lat="45.86637" lon="4.79324">
        <ele>437.1000061</ele>
        <time>2013-08-31T08:48:50Z</time>
      </trkpt>
      <trkpt lat="45.86635" lon="4.79318">
        <ele>436.8999939</ele>
        <time>2013-08-31T08:48:51Z</time>
      </trkpt>
      <trkpt lat="45.86633" lon="4.79312">
        <ele>436.7999878</ele>
        <time>2013-08-31T08:48:52Z</time>
      </trkpt>
      <trkpt lat="45.86631" lon="4.79306">
        <ele>436.7000122</ele>
        <time>2013-08-31T08:48:53Z</time>
      </trkpt>
      <trkpt lat="45.86627" lon="4.79301">
        <ele>437.2999878</ele>
        <time>2013-08-31T08:48:54Z</time>
      </trkpt>
      <trkpt lat="45.86624" lon="4.79295">
        <ele>437.7999878</ele>
        <time>2013-08-31T08:48:55Z</time>
      </trkpt>
      <trkpt lat="45.86622" lon="4.79288">
        <ele>437.5</ele>
        <time>2013-08-31T08:48:56Z</time>
      </trkpt>
      <trkpt lat="45.86619" lon="4.79283">
        <ele>438</ele>
        <time>2013-08-31T08:48:57Z</time>
      </trkpt>
      <trkpt lat="45.86616" lon="4.79277">
        <ele>438.8999939</ele>
        <time>2013-08-31T08:48:58Z</time>
      </trkpt>
      <trkpt lat="45.86613" lon="4.79271">
        <ele>439</ele>
        <time>2013-08-31T08:48:59Z</time>
      </trkpt>
      <trkpt lat="45.86611" lon="4.79265">
        <ele>439.1000061</ele>
        <time>2013-08-31T08:49:00Z</time>
      </trkpt>
      <trkpt lat="45.86606" lon="4.79255">
        <ele>439</ele>
        <time>2013-08-31T08:49:02Z</time>
      </trkpt>
      <trkpt lat="45.86604" lon="4.7925">
        <ele>438.8999939</ele>
        <time>2013-08-31T08:49:03Z</time>
      </trkpt>
      <trkpt lat="45.866" lon="4.79239">
        <ele>439</ele>
        <time>2013-08-31T08:49:05Z</time>
      </trkpt>
      <trkpt lat="45.86598" lon="4.79235">
        <ele>438.7999878</ele>
        <time>2013-08-31T08:49:06Z</time>
      </trkpt>
      <trkpt lat="45.86594" lon="4.79225">
        <ele>439.2000122</ele>
        <time>2013-08-31T08:49:08Z</time>
      </trkpt>
      <trkpt lat="45.86591" lon="4.7922">
        <ele>439.3999939</ele>
        <time>2013-08-31T08:49:09Z</time>
      </trkpt>
      <trkpt lat="45.86587" lon="4.79211">
        <ele>440.2000122</ele>
        <time>2013-08-31T08:49:11Z</time>
      </trkpt>
      <trkpt lat="45.86585" lon="4.79206">
        <ele>440.3999939</ele>
        <time>2013-08-31T08:49:12Z</time>
      </trkpt>
      <trkpt lat="45.86581" lon="4.79196">
        <ele>440.7999878</ele>
        <time>2013-08-31T08:49:14Z</time>
      </trkpt>
      <trkpt lat="45.86579" lon="4.79191">
        <ele>441</ele>
        <time>2013-08-31T08:49:15Z</time>
      </trkpt>
      <trkpt lat="45.86575" lon="4.79182">
        <ele>441.3999939</ele>
        <time>2013-08-31T08:49:17Z</time>
      </trkpt>
      <trkpt lat="45.86573" lon="4.79177">
        <ele>441.7999878</ele>
        <time>2013-08-31T08:49:18Z</time>
      </trkpt>
      <trkpt lat="45.86568" lon="4.79167">
        <ele>441.7000122</ele>
        <time>2013-08-31T08:49:20Z</time>
      </trkpt>
      <trkpt lat="45.86565" lon="4.79162">
        <ele>442.1000061</ele>
        <time>2013-08-31T08:49:21Z</time>
      </trkpt>
      <trkpt lat="45.86561" lon="4.79152">
        <ele>442.2999878</ele>
        <time>2013-08-31T08:49:23Z</time>
      </trkpt>
      <trkpt lat="45.86558" lon="4.79147">
        <ele>442.7000122</ele>
        <time>2013-08-31T08:49:24Z</time>
      </trkpt>
      <trkpt lat="45.86556" lon="4.79142">
        <ele>443.2000122</ele>
        <time>2013-08-31T08:49:25Z</time>
      </trkpt>
      <trkpt lat="45.86551" lon="4.79139">
        <ele>442.1000061</ele>
        <time>2013-08-31T08:49:26Z</time>
      </trkpt>
      <trkpt lat="45.86547" lon="4.79129">
        <ele>443.2999878</ele>
        <time>2013-08-31T08:49:28Z</time>
      </trkpt>
      <trkpt lat="45.86545" lon="4.79125">
        <ele>443.5</ele>
        <time>2013-08-31T08:49:29Z</time>
      </trkpt>
      <trkpt lat="45.86539" lon="4.79116">
        <ele>443.3999939</ele>
        <time>2013-08-31T08:49:31Z</time>
      </trkpt>
      <trkpt lat="45.86537" lon="4.79112">
        <ele>443.2999878</ele>
        <time>2013-08-31T08:49:32Z</time>
      </trkpt>
      <trkpt lat="45.86533" lon="4.79102">
        <ele>444.3999939</ele>
        <time>2013-08-31T08:49:35Z</time>
      </trkpt>
      <trkpt lat="45.8653" lon="4.79098">
        <ele>444.7999878</ele>
        <time>2013-08-31T08:49:36Z</time>
      </trkpt>
      <trkpt lat="45.86525" lon="4.79089">
        <ele>445.7000122</ele>
        <time>2013-08-31T08:49:38Z</time>
      </trkpt>
      <trkpt lat="45.86522" lon="4.79085">
        <ele>446.2000122</ele>
        <time>2013-08-31T08:49:39Z</time>
      </trkpt>
      <trkpt lat="45.86517" lon="4.79077">
        <ele>446.7999878</ele>
        <time>2013-08-31T08:49:41Z</time>
      </trkpt>
      <trkpt lat="45.86515" lon="4.79074">
        <ele>446.8999939</ele>
        <time>2013-08-31T08:49:42Z</time>
      </trkpt>
      <trkpt lat="45.8651" lon="4.79065">
        <ele>448.6000061</ele>
        <time>2013-08-31T08:49:44Z</time>
      </trkpt>
      <trkpt lat="45.86508" lon="4.79062">
        <ele>448.8999939</ele>
        <time>2013-08-31T08:49:45Z</time>
      </trkpt>
      <trkpt lat="45.86503" lon="4.79055">
        <ele>449.2999878</ele>
        <time>2013-08-31T08:49:47Z</time>
      </trkpt>
      <trkpt lat="45.865" lon="4.79051">
        <ele>449.8999939</ele>
        <time>2013-08-31T08:49:48Z</time>
      </trkpt>
      <trkpt lat="45.86496" lon="4.79043">
        <ele>450.7000122</ele>
        <time>2013-08-31T08:49:50Z</time>
      </trkpt>
      <trkpt lat="45.86493" lon="4.7904">
        <ele>450.7999878</ele>
        <time>2013-08-31T08:49:51Z</time>
      </trkpt>
      <trkpt lat="45.86489" lon="4.79032">
        <ele>451.5</ele>
        <time>2013-08-31T08:49:53Z</time>
      </trkpt>
      <trkpt lat="45.86486" lon="4.79028">
        <ele>451.7000122</ele>
        <time>2013-08-31T08:49:54Z</time>
      </trkpt>
      <trkpt lat="45.86481" lon="4.79021">
        <ele>451.7999878</ele>
        <time>2013-08-31T08:49:56Z</time>
      </trkpt>
      <trkpt lat="45.86479" lon="4.79017">
        <ele>452.1000061</ele>
        <time>2013-08-31T08:49:57Z</time>
      </trkpt>
      <trkpt lat="45.86474" lon="4.7901">
        <ele>452.7999878</ele>
        <time>2013-08-31T08:49:59Z</time>
      </trkpt>
      <trkpt lat="45.86472" lon="4.79006">
        <ele>452.8999939</ele>
        <time>2013-08-31T08:50:00Z</time>
      </trkpt>
      <trkpt lat="45.86467" lon="4.78999">
        <ele>452.8999939</ele>
        <time>2013-08-31T08:50:02Z</time>
      </trkpt>
      <trkpt lat="45.86464" lon="4.78994">
        <ele>453.2000122</ele>
        <time>2013-08-31T08:50:03Z</time>
      </trkpt>
      <trkpt lat="45.86458" lon="4.78985">
        <ele>453.3999939</ele>
        <time>2013-08-31T08:50:05Z</time>
      </trkpt>
      <trkpt lat="45.86455" lon="4.78981">
        <ele>453.1000061</ele>
        <time>2013-08-31T08:50:06Z</time>
      </trkpt>
      <trkpt lat="45.8645" lon="4.78972">
        <ele>453.5</ele>
        <time>2013-08-31T08:50:08Z</time>
      </trkpt>
      <trkpt lat="45.86447" lon="4.78968">
        <ele>453</ele>
        <time>2013-08-31T08:50:09Z</time>
      </trkpt>
      <trkpt lat="45.86442" lon="4.7896">
        <ele>453.7000122</ele>
        <time>2013-08-31T08:50:11Z</time>
      </trkpt>
      <trkpt lat="45.86439" lon="4.78956">
        <ele>453.5</ele>
        <time>2013-08-31T08:50:12Z</time>
      </trkpt>
      <trkpt lat="45.86434" lon="4.78946">
        <ele>453.2999878</ele>
        <time>2013-08-31T08:50:14Z</time>
      </trkpt>
      <trkpt lat="45.86432" lon="4.78941">
        <ele>453.3999939</ele>
        <time>2013-08-31T08:50:15Z</time>
      </trkpt>
      <trkpt lat="45.86427" lon="4.78931">
        <ele>454.1000061</ele>
        <time>2013-08-31T08:50:17Z</time>
      </trkpt>
      <trkpt lat="45.86424" lon="4.78926">
        <ele>454.6000061</ele>
        <time>2013-08-31T08:50:18Z</time>
      </trkpt>
      <trkpt lat="45.86421" lon="4.7892">
        <ele>455.2999878</ele>
        <time>2013-08-31T08:50:19Z</time>
      </trkpt>
      <trkpt lat="45.8642" lon="4.78914">
        <ele>455.2000122</ele>
        <time>2013-08-31T08:50:20Z</time>
      </trkpt>
      <trkpt lat="45.86417" lon="4.78908">
        <ele>455.1000061</ele>
        <time>2013-08-31T08:50:21Z</time>
      </trkpt>
      <trkpt lat="45.86414" lon="4.78903">
        <ele>455</ele>
        <time>2013-08-31T08:50:22Z</time>
      </trkpt>
      <trkpt lat="45.86412" lon="4.78897">
        <ele>454.7999878</ele>
        <time>2013-08-31T08:50:23Z</time>
      </trkpt>
      <trkpt lat="45.8641" lon="4.78891">
        <ele>455</ele>
        <time>2013-08-31T08:50:24Z</time>
      </trkpt>
      <trkpt lat="45.86405" lon="4.7888">
        <ele>455</ele>
        <time>2013-08-31T08:50:26Z</time>
      </trkpt>
      <trkpt lat="45.86403" lon="4.78875">
        <ele>455.3999939</ele>
        <time>2013-08-31T08:50:27Z</time>
      </trkpt>
      <trkpt lat="45.86401" lon="4.78869">
        <ele>455.3999939</ele>
        <time>2013-08-31T08:50:28Z</time>
      </trkpt>
      <trkpt lat="45.86398" lon="4.78863">
        <ele>455.5</ele>
        <time>2013-08-31T08:50:29Z</time>
      </trkpt>
      <trkpt lat="45.86393" lon="4.78853">
        <ele>455.7999878</ele>
        <time>2013-08-31T08:50:31Z</time>
      </trkpt>
      <trkpt lat="45.8639" lon="4.78849">
        <ele>455.7000122</ele>
        <time>2013-08-31T08:50:32Z</time>
      </trkpt>
      <trkpt lat="45.86384" lon="4.7884">
        <ele>455.2000122</ele>
        <time>2013-08-31T08:50:34Z</time>
      </trkpt>
      <trkpt lat="45.86381" lon="4.78836">
        <ele>455.3999939</ele>
        <time>2013-08-31T08:50:35Z</time>
      </trkpt>
      <trkpt lat="45.86374" lon="4.78829">
        <ele>454.8999939</ele>
        <time>2013-08-31T08:50:37Z</time>
      </trkpt>
      <trkpt lat="45.86371" lon="4.78827">
        <ele>454.8999939</ele>
        <time>2013-08-31T08:50:38Z</time>
      </trkpt>
      <trkpt lat="45.86365" lon="4.78819">
        <ele>454.6000061</ele>
        <time>2013-08-31T08:50:40Z</time>
      </trkpt>
      <trkpt lat="45.86362" lon="4.78816">
        <ele>454.8999939</ele>
        <time>2013-08-31T08:50:41Z</time>
      </trkpt>
      <trkpt lat="45.86356" lon="4.78809">
        <ele>454.8999939</ele>
        <time>2013-08-31T08:50:43Z</time>
      </trkpt>
      <trkpt lat="45.86353" lon="4.78806">
        <ele>454.8999939</ele>
        <time>2013-08-31T08:50:44Z</time>
      </trkpt>
      <trkpt lat="45.86347" lon="4.788">
        <ele>455.7999878</ele>
        <time>2013-08-31T08:50:46Z</time>
      </trkpt>
      <trkpt lat="45.86345" lon="4.78797">
        <ele>456.6000061</ele>
        <time>2013-08-31T08:50:47Z</time>
      </trkpt>
      <trkpt lat="45.86339" lon="4.78792">
        <ele>457</ele>
        <time>2013-08-31T08:50:49Z</time>
      </trkpt>
      <trkpt lat="45.86336" lon="4.78789">
        <ele>457.2999878</ele>
        <time>2013-08-31T08:50:50Z</time>
      </trkpt>
      <trkpt lat="45.86331" lon="4.78783">
        <ele>458.1000061</ele>
        <time>2013-08-31T08:50:52Z</time>
      </trkpt>
      <trkpt lat="45.86328" lon="4.7878">
        <ele>458.2000122</ele>
        <time>2013-08-31T08:50:53Z</time>
      </trkpt>
      <trkpt lat="45.86322" lon="4.78774">
        <ele>461</ele>
        <time>2013-08-31T08:50:56Z</time>
      </trkpt>
      <trkpt lat="45.86321" lon="4.78772">
        <ele>461.6000061</ele>
        <time>2013-08-31T08:50:57Z</time>
      </trkpt>
      <trkpt lat="45.86314" lon="4.78765">
        <ele>462.1000061</ele>
        <time>2013-08-31T08:51:00Z</time>
      </trkpt>
      <trkpt lat="45.86311" lon="4.78763">
        <ele>461.6000061</ele>
        <time>2013-08-31T08:51:01Z</time>
      </trkpt>
      <trkpt lat="45.86305" lon="4.78755">
        <ele>461.8999939</ele>
        <time>2013-08-31T08:51:04Z</time>
      </trkpt>
      <trkpt lat="45.86303" lon="4.78753">
        <ele>463.2000122</ele>
        <time>2013-08-31T08:51:05Z</time>
      </trkpt>
      <trkpt lat="45.86298" lon="4.78744">
        <ele>465.5</ele>
        <time>2013-08-31T08:51:09Z</time>
      </trkpt>
      <trkpt lat="45.86295" lon="4.78742">
        <ele>466.2999878</ele>
        <time>2013-08-31T08:51:10Z</time>
      </trkpt>
      <trkpt lat="45.86291" lon="4.78739">
        <ele>467</ele>
        <time>2013-08-31T08:51:12Z</time>
      </trkpt>
      <trkpt lat="45.86287" lon="4.78737">
        <ele>467.2000122</ele>
        <time>2013-08-31T08:51:13Z</time>
      </trkpt>
      <trkpt lat="45.86281" lon="4.78733">
        <ele>467.3999939</ele>
        <time>2013-08-31T08:51:15Z</time>
      </trkpt>
      <trkpt lat="45.86275" lon="4.78731">
        <ele>467.2999878</ele>
        <time>2013-08-31T08:51:16Z</time>
      </trkpt>
      <trkpt lat="45.86269" lon="4.78728">
        <ele>468.2000122</ele>
        <time>2013-08-31T08:51:19Z</time>
      </trkpt>
      <trkpt lat="45.86266" lon="4.78726">
        <ele>468</ele>
        <time>2013-08-31T08:51:20Z</time>
      </trkpt>
      <trkpt lat="45.8626" lon="4.78723">
        <ele>468</ele>
        <time>2013-08-31T08:51:22Z</time>
      </trkpt>
      <trkpt lat="45.86256" lon="4.7872">
        <ele>467.8999939</ele>
        <time>2013-08-31T08:51:23Z</time>
      </trkpt>
      <trkpt lat="45.86249" lon="4.78714">
        <ele>467.7000122</ele>
        <time>2013-08-31T08:51:26Z</time>
      </trkpt>
      <trkpt lat="45.86246" lon="4.78712">
        <ele>467.8999939</ele>
        <time>2013-08-31T08:51:27Z</time>
      </trkpt>
      <trkpt lat="45.86239" lon="4.78708">
        <ele>468.2999878</ele>
        <time>2013-08-31T08:51:29Z</time>
      </trkpt>
      <trkpt lat="45.86235" lon="4.78706">
        <ele>468.5</ele>
        <time>2013-08-31T08:51:30Z</time>
      </trkpt>
      <trkpt lat="45.86229" lon="4.78698">
        <ele>468.2000122</ele>
        <time>2013-08-31T08:51:33Z</time>
      </trkpt>
      <trkpt lat="45.86227" lon="4.78696">
        <ele>467.6000061</ele>
        <time>2013-08-31T08:51:34Z</time>
      </trkpt>
      <trkpt lat="45.86218" lon="4.78692">
        <ele>468</ele>
        <time>2013-08-31T08:51:36Z</time>
      </trkpt>
      <trkpt lat="45.86218" lon="4.78691">
        <ele>468.2000122</ele>
        <time>2013-08-31T08:51:37Z</time>
      </trkpt>
      <trkpt lat="45.86212" lon="4.78688">
        <ele>467.2000122</ele>
        <time>2013-08-31T08:51:38Z</time>
      </trkpt>
      <trkpt lat="45.86209" lon="4.78686">
        <ele>467.1000061</ele>
        <time>2013-08-31T08:51:39Z</time>
      </trkpt>
      <trkpt lat="45.86203" lon="4.78682">
        <ele>466.8999939</ele>
        <time>2013-08-31T08:51:41Z</time>
      </trkpt>
      <trkpt lat="45.862" lon="4.78678">
        <ele>467.1000061</ele>
        <time>2013-08-31T08:51:42Z</time>
      </trkpt>
      <trkpt lat="45.86192" lon="4.78674">
        <ele>467</ele>
        <time>2013-08-31T08:51:45Z</time>
      </trkpt>
      <trkpt lat="45.86189" lon="4.78672">
        <ele>467.3999939</ele>
        <time>2013-08-31T08:51:46Z</time>
      </trkpt>
      <trkpt lat="45.86183" lon="4.78666">
        <ele>467.2999878</ele>
        <time>2013-08-31T08:51:48Z</time>
      </trkpt>
      <trkpt lat="45.8618" lon="4.78662">
        <ele>467.7000122</ele>
        <time>2013-08-31T08:51:49Z</time>
      </trkpt>
      <trkpt lat="45.86172" lon="4.78658">
        <ele>468</ele>
        <time>2013-08-31T08:51:51Z</time>
      </trkpt>
      <trkpt lat="45.86169" lon="4.78656">
        <ele>467.5</ele>
        <time>2013-08-31T08:51:52Z</time>
      </trkpt>
      <trkpt lat="45.86165" lon="4.78653">
        <ele>467.2000122</ele>
        <time>2013-08-31T08:51:54Z</time>
      </trkpt>
      <trkpt lat="45.8616" lon="4.7865">
        <ele>467.8999939</ele>
        <time>2013-08-31T08:51:55Z</time>
      </trkpt>
      <trkpt lat="45.86156" lon="4.78647">
        <ele>468.2000122</ele>
        <time>2013-08-31T08:51:56Z</time>
      </trkpt>
      <trkpt lat="45.86152" lon="4.78642">
        <ele>469.2000122</ele>
        <time>2013-08-31T08:51:57Z</time>
      </trkpt>
      <trkpt lat="45.86144" lon="4.78636">
        <ele>469</ele>
        <time>2013-08-31T08:51:59Z</time>
      </trkpt>
      <trkpt lat="45.8614" lon="4.78633">
        <ele>469.1000061</ele>
        <time>2013-08-31T08:52:00Z</time>
      </trkpt>
      <trkpt lat="45.86134" lon="4.78631">
        <ele>468.3999939</ele>
        <time>2013-08-31T08:52:01Z</time>
      </trkpt>
      <trkpt lat="45.86129" lon="4.78629">
        <ele>468.1000061</ele>
        <time>2013-08-31T08:52:02Z</time>
      </trkpt>
      <trkpt lat="45.86125" lon="4.78626">
        <ele>468.7999878</ele>
        <time>2013-08-31T08:52:03Z</time>
      </trkpt>
      <trkpt lat="45.86121" lon="4.78623">
        <ele>469.2000122</ele>
        <time>2013-08-31T08:52:04Z</time>
      </trkpt>
      <trkpt lat="45.86116" lon="4.78619">
        <ele>469.2999878</ele>
        <time>2013-08-31T08:52:05Z</time>
      </trkpt>
      <trkpt lat="45.86112" lon="4.78616">
        <ele>469.5</ele>
        <time>2013-08-31T08:52:06Z</time>
      </trkpt>
      <trkpt lat="45.86108" lon="4.78613">
        <ele>469.2000122</ele>
        <time>2013-08-31T08:52:07Z</time>
      </trkpt>
      <trkpt lat="45.86104" lon="4.7861">
        <ele>469</ele>
        <time>2013-08-31T08:52:08Z</time>
      </trkpt>
      <trkpt lat="45.86096" lon="4.78604">
        <ele>469</ele>
        <time>2013-08-31T08:52:10Z</time>
      </trkpt>
      <trkpt lat="45.86092" lon="4.78601">
        <ele>469.1000061</ele>
        <time>2013-08-31T08:52:11Z</time>
      </trkpt>
      <trkpt lat="45.86084" lon="4.78597">
        <ele>470</ele>
        <time>2013-08-31T08:52:13Z</time>
      </trkpt>
      <trkpt lat="45.8608" lon="4.78595">
        <ele>470.5</ele>
        <time>2013-08-31T08:52:14Z</time>
      </trkpt>
      <trkpt lat="45.86072" lon="4.7859">
        <ele>470.7000122</ele>
        <time>2013-08-31T08:52:16Z</time>
      </trkpt>
      <trkpt lat="45.86068" lon="4.78588">
        <ele>470.7000122</ele>
        <time>2013-08-31T08:52:17Z</time>
      </trkpt>
      <trkpt lat="45.8606" lon="4.78583">
        <ele>471.2000122</ele>
        <time>2013-08-31T08:52:19Z</time>
      </trkpt>
      <trkpt lat="45.86056" lon="4.78581">
        <ele>471.3999939</ele>
        <time>2013-08-31T08:52:20Z</time>
      </trkpt>
      <trkpt lat="45.86048" lon="4.78576">
        <ele>471</ele>
        <time>2013-08-31T08:52:22Z</time>
      </trkpt>
      <trkpt lat="45.86044" lon="4.78573">
        <ele>471.2999878</ele>
        <time>2013-08-31T08:52:23Z</time>
      </trkpt>
      <trkpt lat="45.86036" lon="4.78568">
        <ele>471.7999878</ele>
        <time>2013-08-31T08:52:25Z</time>
      </trkpt>
      <trkpt lat="45.86032" lon="4.78566">
        <ele>471.7999878</ele>
        <time>2013-08-31T08:52:26Z</time>
      </trkpt>
      <trkpt lat="45.86023" lon="4.78561">
        <ele>471.7999878</ele>
        <time>2013-08-31T08:52:28Z</time>
      </trkpt>
      <trkpt lat="45.8602" lon="4.78558">
        <ele>472.6000061</ele>
        <time>2013-08-31T08:52:29Z</time>
      </trkpt>
      <trkpt lat="45.86012" lon="4.78554">
        <ele>472.5</ele>
        <time>2013-08-31T08:52:31Z</time>
      </trkpt>
      <trkpt lat="45.86007" lon="4.78551">
        <ele>472.5</ele>
        <time>2013-08-31T08:52:32Z</time>
      </trkpt>
      <trkpt lat="45.86" lon="4.78545">
        <ele>473</ele>
        <time>2013-08-31T08:52:34Z</time>
      </trkpt>
      <trkpt lat="45.85996" lon="4.78542">
        <ele>472.8999939</ele>
        <time>2013-08-31T08:52:35Z</time>
      </trkpt>
      <trkpt lat="45.85992" lon="4.7854">
        <ele>473.5</ele>
        <time>2013-08-31T08:52:36Z</time>
      </trkpt>
      <trkpt lat="45.85987" lon="4.78539">
        <ele>473.1000061</ele>
        <time>2013-08-31T08:52:37Z</time>
      </trkpt>
      <trkpt lat="45.85981" lon="4.78535">
        <ele>473.3999939</ele>
        <time>2013-08-31T08:52:39Z</time>
      </trkpt>
      <trkpt lat="45.85977" lon="4.78531">
        <ele>473.7000122</ele>
        <time>2013-08-31T08:52:40Z</time>
      </trkpt>
      <trkpt lat="45.85974" lon="4.78519">
        <ele>474.3999939</ele>
        <time>2013-08-31T08:52:42Z</time>
      </trkpt>
      <trkpt lat="45.8597" lon="4.78513">
        <ele>474.6000061</ele>
        <time>2013-08-31T08:52:43Z</time>
      </trkpt>
      <trkpt lat="45.85967" lon="4.78508">
        <ele>474.3999939</ele>
        <time>2013-08-31T08:52:44Z</time>
      </trkpt>
      <trkpt lat="45.85963" lon="4.78503">
        <ele>474.7000122</ele>
        <time>2013-08-31T08:52:45Z</time>
      </trkpt>
      <trkpt lat="45.85958" lon="4.78492">
        <ele>474.1000061</ele>
        <time>2013-08-31T08:52:47Z</time>
      </trkpt>
      <trkpt lat="45.85956" lon="4.78486">
        <ele>474.2000122</ele>
        <time>2013-08-31T08:52:48Z</time>
      </trkpt>
      <trkpt lat="45.85952" lon="4.78476">
        <ele>475</ele>
        <time>2013-08-31T08:52:50Z</time>
      </trkpt>
      <trkpt lat="45.8595" lon="4.78472">
        <ele>476</ele>
        <time>2013-08-31T08:52:51Z</time>
      </trkpt>
      <trkpt lat="45.85946" lon="4.78463">
        <ele>476.7000122</ele>
        <time>2013-08-31T08:52:53Z</time>
      </trkpt>
      <trkpt lat="45.85944" lon="4.78459">
        <ele>476.7999878</ele>
        <time>2013-08-31T08:52:54Z</time>
      </trkpt>
      <trkpt lat="45.85938" lon="4.78451">
        <ele>476.5</ele>
        <time>2013-08-31T08:52:56Z</time>
      </trkpt>
      <trkpt lat="45.85934" lon="4.78446">
        <ele>477.1000061</ele>
        <time>2013-08-31T08:52:57Z</time>
      </trkpt>
      <trkpt lat="45.85929" lon="4.7844">
        <ele>477.2999878</ele>
        <time>2013-08-31T08:52:59Z</time>
      </trkpt>
      <trkpt lat="45.85925" lon="4.78437">
        <ele>476.7999878</ele>
        <time>2013-08-31T08:53:00Z</time>
      </trkpt>
      <trkpt lat="45.85917" lon="4.78436">
        <ele>477.1000061</ele>
        <time>2013-08-31T08:53:02Z</time>
      </trkpt>
      <trkpt lat="45.85913" lon="4.78436">
        <ele>477.3999939</ele>
        <time>2013-08-31T08:53:03Z</time>
      </trkpt>
      <trkpt lat="45.85906" lon="4.78434">
        <ele>481.5</ele>
        <time>2013-08-31T08:53:06Z</time>
      </trkpt>
      <trkpt lat="45.85901" lon="4.78431">
        <ele>481.1000061</ele>
        <time>2013-08-31T08:53:07Z</time>
      </trkpt>
      <trkpt lat="45.85894" lon="4.78428">
        <ele>480.1000061</ele>
        <time>2013-08-31T08:53:09Z</time>
      </trkpt>
      <trkpt lat="45.85891" lon="4.78426">
        <ele>480.2000122</ele>
        <time>2013-08-31T08:53:10Z</time>
      </trkpt>
      <trkpt lat="45.85884" lon="4.78421">
        <ele>480.3999939</ele>
        <time>2013-08-31T08:53:12Z</time>
      </trkpt>
      <trkpt lat="45.85881" lon="4.78419">
        <ele>480.7000122</ele>
        <time>2013-08-31T08:53:13Z</time>
      </trkpt>
      <trkpt lat="45.85875" lon="4.78415">
        <ele>481</ele>
        <time>2013-08-31T08:53:15Z</time>
      </trkpt>
      <trkpt lat="45.85872" lon="4.78413">
        <ele>480.6000061</ele>
        <time>2013-08-31T08:53:16Z</time>
      </trkpt>
      <trkpt lat="45.85866" lon="4.78411">
        <ele>480.7999878</ele>
        <time>2013-08-31T08:53:18Z</time>
      </trkpt>
      <trkpt lat="45.85862" lon="4.78409">
        <ele>481.2000122</ele>
        <time>2013-08-31T08:53:19Z</time>
      </trkpt>
      <trkpt lat="45.85856" lon="4.78406">
        <ele>481</ele>
        <time>2013-08-31T08:53:21Z</time>
      </trkpt>
      <trkpt lat="45.85853" lon="4.78404">
        <ele>480.8999939</ele>
        <time>2013-08-31T08:53:22Z</time>
      </trkpt>
      <trkpt lat="45.85846" lon="4.78399">
        <ele>481.8999939</ele>
        <time>2013-08-31T08:53:25Z</time>
      </trkpt>
      <trkpt lat="45.85843" lon="4.78398">
        <ele>482.2000122</ele>
        <time>2013-08-31T08:53:26Z</time>
      </trkpt>
      <trkpt lat="45.85835" lon="4.78394">
        <ele>482.7999878</ele>
        <time>2013-08-31T08:53:29Z</time>
      </trkpt>
      <trkpt lat="45.85834" lon="4.78393">
        <ele>484.2000122</ele>
        <time>2013-08-31T08:53:30Z</time>
      </trkpt>
      <trkpt lat="45.85826" lon="4.78388">
        <ele>484.6000061</ele>
        <time>2013-08-31T08:53:33Z</time>
      </trkpt>
      <trkpt lat="45.85823" lon="4.78387">
        <ele>484.5</ele>
        <time>2013-08-31T08:53:34Z</time>
      </trkpt>
      <trkpt lat="45.85817" lon="4.78384">
        <ele>486</ele>
        <time>2013-08-31T08:53:36Z</time>
      </trkpt>
      <trkpt lat="45.85814" lon="4.78383">
        <ele>486.5</ele>
        <time>2013-08-31T08:53:37Z</time>
      </trkpt>
      <trkpt lat="45.85809" lon="4.78379">
        <ele>486.5</ele>
        <time>2013-08-31T08:53:39Z</time>
      </trkpt>
      <trkpt lat="45.85806" lon="4.78379">
        <ele>487.7000122</ele>
        <time>2013-08-31T08:53:40Z</time>
      </trkpt>
      <trkpt lat="45.858" lon="4.78376">
        <ele>489</ele>
        <time>2013-08-31T08:53:42Z</time>
      </trkpt>
      <trkpt lat="45.85797" lon="4.78375">
        <ele>489.1000061</ele>
        <time>2013-08-31T08:53:43Z</time>
      </trkpt>
      <trkpt lat="45.8579" lon="4.78373">
        <ele>491.2000122</ele>
        <time>2013-08-31T08:53:45Z</time>
      </trkpt>
      <trkpt lat="45.85787" lon="4.78371">
        <ele>491.5</ele>
        <time>2013-08-31T08:53:46Z</time>
      </trkpt>
      <trkpt lat="45.8578" lon="4.78368">
        <ele>491.5</ele>
        <time>2013-08-31T08:53:48Z</time>
      </trkpt>
      <trkpt lat="45.85777" lon="4.78366">
        <ele>491.6000061</ele>
        <time>2013-08-31T08:53:49Z</time>
      </trkpt>
      <trkpt lat="45.85769" lon="4.7836">
        <ele>492.1000061</ele>
        <time>2013-08-31T08:53:52Z</time>
      </trkpt>
      <trkpt lat="45.85766" lon="4.78358">
        <ele>492.2999878</ele>
        <time>2013-08-31T08:53:53Z</time>
      </trkpt>
      <trkpt lat="45.85758" lon="4.78354">
        <ele>493.8999939</ele>
        <time>2013-08-31T08:53:56Z</time>
      </trkpt>
      <trkpt lat="45.85753" lon="4.78352">
        <ele>494</ele>
        <time>2013-08-31T08:53:57Z</time>
      </trkpt>
      <trkpt lat="45.85746" lon="4.78348">
        <ele>494.3999939</ele>
        <time>2013-08-31T08:54:00Z</time>
      </trkpt>
      <trkpt lat="45.85741" lon="4.78347">
        <ele>494.2999878</ele>
        <time>2013-08-31T08:54:01Z</time>
      </trkpt>
      <trkpt lat="45.85733" lon="4.78342">
        <ele>494.2000122</ele>
        <time>2013-08-31T08:54:03Z</time>
      </trkpt>
      <trkpt lat="45.8573" lon="4.7834">
        <ele>494.7000122</ele>
        <time>2013-08-31T08:54:04Z</time>
      </trkpt>
      <trkpt lat="45.85723" lon="4.78334">
        <ele>493.5</ele>
        <time>2013-08-31T08:54:07Z</time>
      </trkpt>
      <trkpt lat="45.8572" lon="4.78332">
        <ele>493.7999878</ele>
        <time>2013-08-31T08:54:08Z</time>
      </trkpt>
      <trkpt lat="45.85714" lon="4.78327">
        <ele>493.6000061</ele>
        <time>2013-08-31T08:54:10Z</time>
      </trkpt>
      <trkpt lat="45.85712" lon="4.78326">
        <ele>493.2000122</ele>
        <time>2013-08-31T08:54:11Z</time>
      </trkpt>
      <trkpt lat="45.85704" lon="4.7832">
        <ele>494.3999939</ele>
        <time>2013-08-31T08:54:14Z</time>
      </trkpt>
      <trkpt lat="45.85701" lon="4.78319">
        <ele>494.2999878</ele>
        <time>2013-08-31T08:54:15Z</time>
      </trkpt>
      <trkpt lat="45.85693" lon="4.78315">
        <ele>494.7999878</ele>
        <time>2013-08-31T08:54:19Z</time>
      </trkpt>
      <trkpt lat="45.85691" lon="4.78315">
        <ele>494.6000061</ele>
        <time>2013-08-31T08:54:20Z</time>
      </trkpt>
      <trkpt lat="45.85684" lon="4.78309">
        <ele>495.7999878</ele>
        <time>2013-08-31T08:54:26Z</time>
      </trkpt>
      <trkpt lat="45.85682" lon="4.78308">
        <ele>495.6000061</ele>
        <time>2013-08-31T08:54:27Z</time>
      </trkpt>
      <trkpt lat="45.85682" lon="4.78307">
        <ele>496</ele>
        <time>2013-08-31T08:54:35Z</time>
      </trkpt>
      <trkpt lat="45.85682" lon="4.78307">
        <ele>496</ele>
        <time>2013-08-31T08:54:36Z</time>
      </trkpt>
      <trkpt lat="45.85682" lon="4.78307">
        <ele>496</ele>
        <time>2013-08-31T08:54:37Z</time>
      </trkpt>
      <trkpt lat="45.85678" lon="4.78297">
        <ele>497</ele>
        <time>2013-08-31T08:54:44Z</time>
      </trkpt>
      <trkpt lat="45.85677" lon="4.78296">
        <ele>495.7000122</ele>
        <time>2013-08-31T08:54:45Z</time>
      </trkpt>
      <trkpt lat="45.85671" lon="4.78289">
        <ele>496.5</ele>
        <time>2013-08-31T08:54:54Z</time>
      </trkpt>
      <trkpt lat="45.8567" lon="4.78287">
        <ele>496.8999939</ele>
        <time>2013-08-31T08:54:55Z</time>
      </trkpt>
      <trkpt lat="45.8567" lon="4.78286">
        <ele>496.6000061</ele>
        <time>2013-08-31T08:54:57Z</time>
      </trkpt>
      <trkpt lat="45.8567" lon="4.78286">
        <ele>496.6000061</ele>
        <time>2013-08-31T08:54:58Z</time>
      </trkpt>
      <trkpt lat="45.8567" lon="4.78286">
        <ele>497.3999939</ele>
        <time>2013-08-31T08:54:59Z</time>
      </trkpt>
      <trkpt lat="45.85671" lon="4.78286">
        <ele>497.6000061</ele>
        <time>2013-08-31T08:55:01Z</time>
      </trkpt>
      <trkpt lat="45.85671" lon="4.78286">
        <ele>497.6000061</ele>
        <time>2013-08-31T08:55:02Z</time>
      </trkpt>
      <trkpt lat="45.85671" lon="4.78286">
        <ele>497.6000061</ele>
        <time>2013-08-31T08:55:05Z</time>
      </trkpt>
      <trkpt lat="45.85672" lon="4.78284">
        <ele>498.2000122</ele>
        <time>2013-08-31T08:55:06Z</time>
      </trkpt>
      <trkpt lat="45.85666" lon="4.78275">
        <ele>499.7999878</ele>
        <time>2013-08-31T08:55:10Z</time>
      </trkpt>
      <trkpt lat="45.85665" lon="4.78273">
        <ele>499.3999939</ele>
        <time>2013-08-31T08:55:11Z</time>
      </trkpt>
      <trkpt lat="45.85662" lon="4.78262">
        <ele>501.6000061</ele>
        <time>2013-08-31T08:55:16Z</time>
      </trkpt>
      <trkpt lat="45.85661" lon="4.7826">
        <ele>501.6000061</ele>
        <time>2013-08-31T08:55:17Z</time>
      </trkpt>
      <trkpt lat="45.85657" lon="4.7825">
        <ele>501.7000122</ele>
        <time>2013-08-31T08:55:22Z</time>
      </trkpt>
      <trkpt lat="45.85656" lon="4.78248">
        <ele>501.7999878</ele>
        <time>2013-08-31T08:55:23Z</time>
      </trkpt>
      <trkpt lat="45.85651" lon="4.7824">
        <ele>502</ele>
        <time>2013-08-31T08:55:26Z</time>
      </trkpt>
      <trkpt lat="45.85648" lon="4.7824">
        <ele>502.1000061</ele>
        <time>2013-08-31T08:55:27Z</time>
      </trkpt>
      <trkpt lat="45.85641" lon="4.78234">
        <ele>502.2000122</ele>
        <time>2013-08-31T08:55:30Z</time>
      </trkpt>
      <trkpt lat="45.85641" lon="4.78231">
        <ele>502.2000122</ele>
        <time>2013-08-31T08:55:31Z</time>
      </trkpt>
      <trkpt lat="45.85633" lon="4.78227">
        <ele>502.7000122</ele>
        <time>2013-08-31T08:55:35Z</time>
      </trkpt>
      <trkpt lat="45.85631" lon="4.78226">
        <ele>502.8999939</ele>
        <time>2013-08-31T08:55:36Z</time>
      </trkpt>
      <trkpt lat="45.85624" lon="4.7822">
        <ele>504.7000122</ele>
        <time>2013-08-31T08:55:40Z</time>
      </trkpt>
      <trkpt lat="45.85622" lon="4.78219">
        <ele>505.6000061</ele>
        <time>2013-08-31T08:55:41Z</time>
      </trkpt>
      <trkpt lat="45.85614" lon="4.78213">
        <ele>504.8999939</ele>
        <time>2013-08-31T08:55:45Z</time>
      </trkpt>
      <trkpt lat="45.85611" lon="4.78211">
        <ele>504.7000122</ele>
        <time>2013-08-31T08:55:46Z</time>
      </trkpt>
      <trkpt lat="45.85607" lon="4.78202">
        <ele>505</ele>
        <time>2013-08-31T08:55:50Z</time>
      </trkpt>
      <trkpt lat="45.85606" lon="4.782">
        <ele>506.2000122</ele>
        <time>2013-08-31T08:55:51Z</time>
      </trkpt>
      <trkpt lat="45.85599" lon="4.78195">
        <ele>509.1000061</ele>
        <time>2013-08-31T08:55:55Z</time>
      </trkpt>
      <trkpt lat="45.85597" lon="4.78194">
        <ele>509.6000061</ele>
        <time>2013-08-31T08:55:56Z</time>
      </trkpt>
      <trkpt lat="45.85589" lon="4.78189">
        <ele>509.7000122</ele>
        <time>2013-08-31T08:55:59Z</time>
      </trkpt>
      <trkpt lat="45.85587" lon="4.78187">
        <ele>509.7999878</ele>
        <time>2013-08-31T08:56:00Z</time>
      </trkpt>
      <trkpt lat="45.8558" lon="4.7818">
        <ele>509.1000061</ele>
        <time>2013-08-31T08:56:05Z</time>
      </trkpt>
      <trkpt lat="45.85578" lon="4.78178">
        <ele>508.5</ele>
        <time>2013-08-31T08:56:06Z</time>
      </trkpt>
      <trkpt lat="45.85574" lon="4.7817">
        <ele>508.8999939</ele>
        <time>2013-08-31T08:56:08Z</time>
      </trkpt>
      <trkpt lat="45.85572" lon="4.78167">
        <ele>509.1000061</ele>
        <time>2013-08-31T08:56:09Z</time>
      </trkpt>
      <trkpt lat="45.85566" lon="4.78159">
        <ele>510.1000061</ele>
        <time>2013-08-31T08:56:14Z</time>
      </trkpt>
      <trkpt lat="45.85564" lon="4.78158">
        <ele>510.2000122</ele>
        <time>2013-08-31T08:56:15Z</time>
      </trkpt>
      <trkpt lat="45.85558" lon="4.78148">
        <ele>511.3999939</ele>
        <time>2013-08-31T08:56:20Z</time>
      </trkpt>
      <trkpt lat="45.85558" lon="4.78146">
        <ele>511.3999939</ele>
        <time>2013-08-31T08:56:21Z</time>
      </trkpt>
      <trkpt lat="45.85552" lon="4.7814">
        <ele>511.7000122</ele>
        <time>2013-08-31T08:56:25Z</time>
      </trkpt>
      <trkpt lat="45.85551" lon="4.78137">
        <ele>512</ele>
        <time>2013-08-31T08:56:26Z</time>
      </trkpt>
      <trkpt lat="45.85545" lon="4.78131">
        <ele>512.0999756</ele>
        <time>2013-08-31T08:56:31Z</time>
      </trkpt>
      <trkpt lat="45.85543" lon="4.7813">
        <ele>511.8999939</ele>
        <time>2013-08-31T08:56:32Z</time>
      </trkpt>
      <trkpt lat="45.85537" lon="4.78125">
        <ele>512</ele>
        <time>2013-08-31T08:56:35Z</time>
      </trkpt>
      <trkpt lat="45.85535" lon="4.78123">
        <ele>512.0999756</ele>
        <time>2013-08-31T08:56:36Z</time>
      </trkpt>
      <trkpt lat="45.85527" lon="4.78116">
        <ele>512.7999878</ele>
        <time>2013-08-31T08:56:40Z</time>
      </trkpt>
      <trkpt lat="45.85525" lon="4.78115">
        <ele>512.5999756</ele>
        <time>2013-08-31T08:56:41Z</time>
      </trkpt>
      <trkpt lat="45.85518" lon="4.78109">
        <ele>512.5999756</ele>
        <time>2013-08-31T08:56:45Z</time>
      </trkpt>
      <trkpt lat="45.85515" lon="4.78107">
        <ele>512.5999756</ele>
        <time>2013-08-31T08:56:46Z</time>
      </trkpt>
      <trkpt lat="45.85508" lon="4.78102">
        <ele>512.7000122</ele>
        <time>2013-08-31T08:56:49Z</time>
      </trkpt>
      <trkpt lat="45.85505" lon="4.781">
        <ele>512.5999756</ele>
        <time>2013-08-31T08:56:50Z</time>
      </trkpt>
      <trkpt lat="45.85498" lon="4.78092">
        <ele>512.2000122</ele>
        <time>2013-08-31T08:56:53Z</time>
      </trkpt>
      <trkpt lat="45.85496" lon="4.7809">
        <ele>512.2000122</ele>
        <time>2013-08-31T08:56:54Z</time>
      </trkpt>
      <trkpt lat="45.8549" lon="4.78085">
        <ele>512.2000122</ele>
        <time>2013-08-31T08:56:56Z</time>
      </trkpt>
      <trkpt lat="45.85488" lon="4.78082">
        <ele>512.2000122</ele>
        <time>2013-08-31T08:56:57Z</time>
      </trkpt>
      <trkpt lat="45.85482" lon="4.78075">
        <ele>512.2999878</ele>
        <time>2013-08-31T08:56:59Z</time>
      </trkpt>
      <trkpt lat="45.8548" lon="4.78073">
        <ele>512.2999878</ele>
        <time>2013-08-31T08:57:00Z</time>
      </trkpt>
      <trkpt lat="45.85475" lon="4.78067">
        <ele>513.0999756</ele>
        <time>2013-08-31T08:57:02Z</time>
      </trkpt>
      <trkpt lat="45.85472" lon="4.78064">
        <ele>512.7999878</ele>
        <time>2013-08-31T08:57:03Z</time>
      </trkpt>
      <trkpt lat="45.85466" lon="4.78059">
        <ele>512.5999756</ele>
        <time>2013-08-31T08:57:05Z</time>
      </trkpt>
      <trkpt lat="45.85463" lon="4.78056">
        <ele>513</ele>
        <time>2013-08-31T08:57:06Z</time>
      </trkpt>
      <trkpt lat="45.85457" lon="4.7805">
        <ele>512.9000244</ele>
        <time>2013-08-31T08:57:08Z</time>
      </trkpt>
      <trkpt lat="45.85454" lon="4.78047">
        <ele>513.2000122</ele>
        <time>2013-08-31T08:57:09Z</time>
      </trkpt>
      <trkpt lat="45.85449" lon="4.7804">
        <ele>513.4000244</ele>
        <time>2013-08-31T08:57:11Z</time>
      </trkpt>
      <trkpt lat="45.85446" lon="4.78037">
        <ele>513.5999756</ele>
        <time>2013-08-31T08:57:12Z</time>
      </trkpt>
      <trkpt lat="45.85441" lon="4.78032">
        <ele>513.2000122</ele>
        <time>2013-08-31T08:57:14Z</time>
      </trkpt>
      <trkpt lat="45.85438" lon="4.78028">
        <ele>513.5</ele>
        <time>2013-08-31T08:57:15Z</time>
      </trkpt>
      <trkpt lat="45.85433" lon="4.78022">
        <ele>514</ele>
        <time>2013-08-31T08:57:17Z</time>
      </trkpt>
      <trkpt lat="45.8543" lon="4.78018">
        <ele>514.2999878</ele>
        <time>2013-08-31T08:57:18Z</time>
      </trkpt>
      <trkpt lat="45.85424" lon="4.78012">
        <ele>514.4000244</ele>
        <time>2013-08-31T08:57:20Z</time>
      </trkpt>
      <trkpt lat="45.85421" lon="4.78008">
        <ele>514.5999756</ele>
        <time>2013-08-31T08:57:21Z</time>
      </trkpt>
      <trkpt lat="45.85416" lon="4.78002">
        <ele>515</ele>
        <time>2013-08-31T08:57:23Z</time>
      </trkpt>
      <trkpt lat="45.85413" lon="4.77998">
        <ele>514.9000244</ele>
        <time>2013-08-31T08:57:24Z</time>
      </trkpt>
      <trkpt lat="45.85406" lon="4.77991">
        <ele>515.0999756</ele>
        <time>2013-08-31T08:57:26Z</time>
      </trkpt>
      <trkpt lat="45.85403" lon="4.77987">
        <ele>515.2999878</ele>
        <time>2013-08-31T08:57:27Z</time>
      </trkpt>
      <trkpt lat="45.85397" lon="4.77981">
        <ele>515.9000244</ele>
        <time>2013-08-31T08:57:29Z</time>
      </trkpt>
      <trkpt lat="45.85394" lon="4.77977">
        <ele>515.7000122</ele>
        <time>2013-08-31T08:57:30Z</time>
      </trkpt>
      <trkpt lat="45.85387" lon="4.77971">
        <ele>515.7000122</ele>
        <time>2013-08-31T08:57:32Z</time>
      </trkpt>
      <trkpt lat="45.85384" lon="4.77967">
        <ele>516</ele>
        <time>2013-08-31T08:57:33Z</time>
      </trkpt>
      <trkpt lat="45.85378" lon="4.77961">
        <ele>515.9000244</ele>
        <time>2013-08-31T08:57:35Z</time>
      </trkpt>
      <trkpt lat="45.85374" lon="4.77958">
        <ele>516.2000122</ele>
        <time>2013-08-31T08:57:36Z</time>
      </trkpt>
      <trkpt lat="45.85369" lon="4.77952">
        <ele>516.7999878</ele>
        <time>2013-08-31T08:57:38Z</time>
      </trkpt>
      <trkpt lat="45.85367" lon="4.77949">
        <ele>516.7000122</ele>
        <time>2013-08-31T08:57:39Z</time>
      </trkpt>
      <trkpt lat="45.85358" lon="4.77949">
        <ele>516.9000244</ele>
        <time>2013-08-31T08:57:41Z</time>
      </trkpt>
      <trkpt lat="45.85355" lon="4.77948">
        <ele>516.9000244</ele>
        <time>2013-08-31T08:57:42Z</time>
      </trkpt>
      <trkpt lat="45.85351" lon="4.77957">
        <ele>516.7999878</ele>
        <time>2013-08-31T08:57:45Z</time>
      </trkpt>
      <trkpt lat="45.85349" lon="4.77958">
        <ele>517</ele>
        <time>2013-08-31T08:57:46Z</time>
      </trkpt>
      <trkpt lat="45.8534" lon="4.77959">
        <ele>518.0999756</ele>
        <time>2013-08-31T08:57:50Z</time>
      </trkpt>
      <trkpt lat="45.85339" lon="4.77959">
        <ele>518.5999756</ele>
        <time>2013-08-31T08:57:51Z</time>
      </trkpt>
      <trkpt lat="45.85332" lon="4.77965">
        <ele>519.9000244</ele>
        <time>2013-08-31T08:57:54Z</time>
      </trkpt>
      <trkpt lat="45.8533" lon="4.77967">
        <ele>520.2999878</ele>
        <time>2013-08-31T08:57:55Z</time>
      </trkpt>
      <trkpt lat="45.85323" lon="4.77968">
        <ele>522.9000244</ele>
        <time>2013-08-31T08:57:58Z</time>
      </trkpt>
      <trkpt lat="45.8532" lon="4.77968">
        <ele>524.2999878</ele>
        <time>2013-08-31T08:57:59Z</time>
      </trkpt>
      <trkpt lat="45.85311" lon="4.77965">
        <ele>526.2999878</ele>
        <time>2013-08-31T08:58:03Z</time>
      </trkpt>
      <trkpt lat="45.8531" lon="4.77963">
        <ele>526.2000122</ele>
        <time>2013-08-31T08:58:04Z</time>
      </trkpt>
      <trkpt lat="45.85306" lon="4.77954">
        <ele>525.2999878</ele>
        <time>2013-08-31T08:58:07Z</time>
      </trkpt>
      <trkpt lat="45.85305" lon="4.7795">
        <ele>524.7000122</ele>
        <time>2013-08-31T08:58:08Z</time>
      </trkpt>
      <trkpt lat="45.85305" lon="4.77937">
        <ele>528.0999756</ele>
        <time>2013-08-31T08:58:12Z</time>
      </trkpt>
      <trkpt lat="45.85304" lon="4.77932">
        <ele>527.7999878</ele>
        <time>2013-08-31T08:58:13Z</time>
      </trkpt>
      <trkpt lat="45.85302" lon="4.77923">
        <ele>528.7999878</ele>
        <time>2013-08-31T08:58:15Z</time>
      </trkpt>
      <trkpt lat="45.85302" lon="4.77919">
        <ele>528.5999756</ele>
        <time>2013-08-31T08:58:16Z</time>
      </trkpt>
      <trkpt lat="45.85301" lon="4.7791">
        <ele>528.0999756</ele>
        <time>2013-08-31T08:58:18Z</time>
      </trkpt>
      <trkpt lat="45.853" lon="4.77904">
        <ele>527.7999878</ele>
        <time>2013-08-31T08:58:19Z</time>
      </trkpt>
      <trkpt lat="45.85298" lon="4.77895">
        <ele>527.5999756</ele>
        <time>2013-08-31T08:58:21Z</time>
      </trkpt>
      <trkpt lat="45.85297" lon="4.7789">
        <ele>527.5999756</ele>
        <time>2013-08-31T08:58:22Z</time>
      </trkpt>
      <trkpt lat="45.85295" lon="4.77878">
        <ele>527.7000122</ele>
        <time>2013-08-31T08:58:24Z</time>
      </trkpt>
      <trkpt lat="45.85294" lon="4.77873">
        <ele>527.5</ele>
        <time>2013-08-31T08:58:25Z</time>
      </trkpt>
      <trkpt lat="45.85292" lon="4.77862">
        <ele>527.9000244</ele>
        <time>2013-08-31T08:58:27Z</time>
      </trkpt>
      <trkpt lat="45.85291" lon="4.77856">
        <ele>528.2000122</ele>
        <time>2013-08-31T08:58:28Z</time>
      </trkpt>
      <trkpt lat="45.8529" lon="4.77849">
        <ele>527.5999756</ele>
        <time>2013-08-31T08:58:29Z</time>
      </trkpt>
      <trkpt lat="45.85289" lon="4.77842">
        <ele>527.2999878</ele>
        <time>2013-08-31T08:58:30Z</time>
      </trkpt>
      <trkpt lat="45.85288" lon="4.77835">
        <ele>526.7000122</ele>
        <time>2013-08-31T08:58:31Z</time>
      </trkpt>
      <trkpt lat="45.85287" lon="4.77828">
        <ele>526.2999878</ele>
        <time>2013-08-31T08:58:32Z</time>
      </trkpt>
      <trkpt lat="45.85286" lon="4.77821">
        <ele>526.0999756</ele>
        <time>2013-08-31T08:58:33Z</time>
      </trkpt>
      <trkpt lat="45.85285" lon="4.77815">
        <ele>525.9000244</ele>
        <time>2013-08-31T08:58:34Z</time>
      </trkpt>
      <trkpt lat="45.85284" lon="4.77807">
        <ele>526.2999878</ele>
        <time>2013-08-31T08:58:35Z</time>
      </trkpt>
      <trkpt lat="45.85284" lon="4.77802">
        <ele>526.7000122</ele>
        <time>2013-08-31T08:58:36Z</time>
      </trkpt>
      <trkpt lat="45.85284" lon="4.77797">
        <ele>527</ele>
        <time>2013-08-31T08:58:37Z</time>
      </trkpt>
      <trkpt lat="45.8528" lon="4.77789">
        <ele>525.7000122</ele>
        <time>2013-08-31T08:58:38Z</time>
      </trkpt>
      <trkpt lat="45.85277" lon="4.77779">
        <ele>525.0999756</ele>
        <time>2013-08-31T08:58:40Z</time>
      </trkpt>
      <trkpt lat="45.85276" lon="4.77775">
        <ele>525.7000122</ele>
        <time>2013-08-31T08:58:41Z</time>
      </trkpt>
      <trkpt lat="45.85273" lon="4.77765">
        <ele>525.7000122</ele>
        <time>2013-08-31T08:58:44Z</time>
      </trkpt>
      <trkpt lat="45.85273" lon="4.77761">
        <ele>525.9000244</ele>
        <time>2013-08-31T08:58:45Z</time>
      </trkpt>
      <trkpt lat="45.85274" lon="4.77757">
        <ele>526</ele>
        <time>2013-08-31T08:58:46Z</time>
      </trkpt>
      <trkpt lat="45.85274" lon="4.77747">
        <ele>525.2999878</ele>
        <time>2013-08-31T08:58:48Z</time>
      </trkpt>
      <trkpt lat="45.85275" lon="4.77736">
        <ele>524.9000244</ele>
        <time>2013-08-31T08:58:50Z</time>
      </trkpt>
      <trkpt lat="45.85275" lon="4.7773">
        <ele>525</ele>
        <time>2013-08-31T08:58:51Z</time>
      </trkpt>
      <trkpt lat="45.85276" lon="4.77718">
        <ele>524.7999878</ele>
        <time>2013-08-31T08:58:53Z</time>
      </trkpt>
      <trkpt lat="45.85276" lon="4.77713">
        <ele>525.0999756</ele>
        <time>2013-08-31T08:58:54Z</time>
      </trkpt>
      <trkpt lat="45.8527" lon="4.77703">
        <ele>525.2000122</ele>
        <time>2013-08-31T08:58:56Z</time>
      </trkpt>
      <trkpt lat="45.85268" lon="4.77699">
        <ele>525.4000244</ele>
        <time>2013-08-31T08:58:57Z</time>
      </trkpt>
      <trkpt lat="45.85262" lon="4.77694">
        <ele>525.2999878</ele>
        <time>2013-08-31T08:58:59Z</time>
      </trkpt>
      <trkpt lat="45.8526" lon="4.77691">
        <ele>525.2000122</ele>
        <time>2013-08-31T08:59:00Z</time>
      </trkpt>
      <trkpt lat="45.85254" lon="4.77685">
        <ele>524.7999878</ele>
        <time>2013-08-31T08:59:02Z</time>
      </trkpt>
      <trkpt lat="45.85251" lon="4.77683">
        <ele>524.9000244</ele>
        <time>2013-08-31T08:59:03Z</time>
      </trkpt>
      <trkpt lat="45.85247" lon="4.77675">
        <ele>524.5999756</ele>
        <time>2013-08-31T08:59:05Z</time>
      </trkpt>
      <trkpt lat="45.85245" lon="4.77672">
        <ele>525.0999756</ele>
        <time>2013-08-31T08:59:06Z</time>
      </trkpt>
      <trkpt lat="45.85239" lon="4.77665">
        <ele>526.5</ele>
        <time>2013-08-31T08:59:08Z</time>
      </trkpt>
      <trkpt lat="45.85238" lon="4.77662">
        <ele>526.7999878</ele>
        <time>2013-08-31T08:59:09Z</time>
      </trkpt>
      <trkpt lat="45.85232" lon="4.77653">
        <ele>527.2999878</ele>
        <time>2013-08-31T08:59:12Z</time>
      </trkpt>
      <trkpt lat="45.85229" lon="4.7765">
        <ele>526.9000244</ele>
        <time>2013-08-31T08:59:13Z</time>
      </trkpt>
      <trkpt lat="45.85225" lon="4.77644">
        <ele>526.5999756</ele>
        <time>2013-08-31T08:59:15Z</time>
      </trkpt>
      <trkpt lat="45.85221" lon="4.77643">
        <ele>527.7999878</ele>
        <time>2013-08-31T08:59:16Z</time>
      </trkpt>
      <trkpt lat="45.85216" lon="4.77637">
        <ele>527.9000244</ele>
        <time>2013-08-31T08:59:18Z</time>
      </trkpt>
      <trkpt lat="45.85214" lon="4.77634">
        <ele>528</ele>
        <time>2013-08-31T08:59:19Z</time>
      </trkpt>
      <trkpt lat="45.85208" lon="4.77625">
        <ele>529.2999878</ele>
        <time>2013-08-31T08:59:22Z</time>
      </trkpt>
      <trkpt lat="45.85205" lon="4.77623">
        <ele>530.0999756</ele>
        <time>2013-08-31T08:59:23Z</time>
      </trkpt>
      <trkpt lat="45.852" lon="4.77618">
        <ele>530.5999756</ele>
        <time>2013-08-31T08:59:25Z</time>
      </trkpt>
      <trkpt lat="45.85198" lon="4.77614">
        <ele>530.5</ele>
        <time>2013-08-31T08:59:26Z</time>
      </trkpt>
      <trkpt lat="45.85191" lon="4.77607">
        <ele>531.4000244</ele>
        <time>2013-08-31T08:59:29Z</time>
      </trkpt>
      <trkpt lat="45.85189" lon="4.77606">
        <ele>531.9000244</ele>
        <time>2013-08-31T08:59:30Z</time>
      </trkpt>
      <trkpt lat="45.85182" lon="4.77602">
        <ele>532</ele>
        <time>2013-08-31T08:59:33Z</time>
      </trkpt>
      <trkpt lat="45.8518" lon="4.77602">
        <ele>531.5</ele>
        <time>2013-08-31T08:59:34Z</time>
      </trkpt>
      <trkpt lat="45.85174" lon="4.77611">
        <ele>532.5</ele>
        <time>2013-08-31T08:59:38Z</time>
      </trkpt>
      <trkpt lat="45.85173" lon="4.77613">
        <ele>532.5999756</ele>
        <time>2013-08-31T08:59:39Z</time>
      </trkpt>
      <trkpt lat="45.85166" lon="4.77614">
        <ele>533.4000244</ele>
        <time>2013-08-31T08:59:43Z</time>
      </trkpt>
      <trkpt lat="45.85163" lon="4.77613">
        <ele>534.0999756</ele>
        <time>2013-08-31T08:59:44Z</time>
      </trkpt>
      <trkpt lat="45.85156" lon="4.77611">
        <ele>537</ele>
        <time>2013-08-31T08:59:49Z</time>
      </trkpt>
      <trkpt lat="45.85151" lon="4.77612">
        <ele>536.2000122</ele>
        <time>2013-08-31T08:59:50Z</time>
      </trkpt>
      <trkpt lat="45.85143" lon="4.77616">
        <ele>539.5999756</ele>
        <time>2013-08-31T08:59:56Z</time>
      </trkpt>
      <trkpt lat="45.85142" lon="4.77616">
        <ele>539.9000244</ele>
        <time>2013-08-31T08:59:57Z</time>
      </trkpt>
      <trkpt lat="45.85133" lon="4.77616">
        <ele>540.7000122</ele>
        <time>2013-08-31T09:00:06Z</time>
      </trkpt>
      <trkpt lat="45.85133" lon="4.77616">
        <ele>540.7999878</ele>
        <time>2013-08-31T09:00:07Z</time>
      </trkpt>
      <trkpt lat="45.85133" lon="4.77617">
        <ele>541.2999878</ele>
        <time>2013-08-31T09:00:09Z</time>
      </trkpt>
      <trkpt lat="45.85133" lon="4.77617">
        <ele>541.2999878</ele>
        <time>2013-08-31T09:00:10Z</time>
      </trkpt>
      <trkpt lat="45.85125" lon="4.77616">
        <ele>543.5</ele>
        <time>2013-08-31T09:00:14Z</time>
      </trkpt>
      <trkpt lat="45.85122" lon="4.77619">
        <ele>544.7999878</ele>
        <time>2013-08-31T09:00:15Z</time>
      </trkpt>
      <trkpt lat="45.85116" lon="4.77622">
        <ele>547.4000244</ele>
        <time>2013-08-31T09:00:20Z</time>
      </trkpt>
      <trkpt lat="45.85112" lon="4.77623">
        <ele>547.7000122</ele>
        <time>2013-08-31T09:00:21Z</time>
      </trkpt>
      <trkpt lat="45.85112" lon="4.77624">
        <ele>548.4000244</ele>
        <time>2013-08-31T09:00:22Z</time>
      </trkpt>
      <trkpt lat="45.85112" lon="4.77624">
        <ele>548.7000122</ele>
        <time>2013-08-31T09:00:23Z</time>
      </trkpt>
      <trkpt lat="45.85111" lon="4.77624">
        <ele>548.7999878</ele>
        <time>2013-08-31T09:00:24Z</time>
      </trkpt>
      <trkpt lat="45.85108" lon="4.77625">
        <ele>549.7999878</ele>
        <time>2013-08-31T09:00:28Z</time>
      </trkpt>
      <trkpt lat="45.85108" lon="4.77625">
        <ele>549.7999878</ele>
        <time>2013-08-31T09:00:29Z</time>
      </trkpt>
      <trkpt lat="45.85108" lon="4.77625">
        <ele>549.7000122</ele>
        <time>2013-08-31T09:00:30Z</time>
      </trkpt>
      <trkpt lat="45.85108" lon="4.77625">
        <ele>549.7000122</ele>
        <time>2013-08-31T09:00:31Z</time>
      </trkpt>
      <trkpt lat="45.85108" lon="4.77625">
        <ele>549.7000122</ele>
        <time>2013-08-31T09:00:32Z</time>
      </trkpt>
      <trkpt lat="45.85107" lon="4.77625">
        <ele>549.5999756</ele>
        <time>2013-08-31T09:00:33Z</time>
      </trkpt>
      <trkpt lat="45.85107" lon="4.77625">
        <ele>549.7000122</ele>
        <time>2013-08-31T09:00:34Z</time>
      </trkpt>
      <trkpt lat="45.85107" lon="4.77625">
        <ele>549.7000122</ele>
        <time>2013-08-31T09:00:35Z</time>
      </trkpt>
      <trkpt lat="45.85107" lon="4.77625">
        <ele>549.7000122</ele>
        <time>2013-08-31T09:00:36Z</time>
      </trkpt>
      <trkpt lat="45.85107" lon="4.77625">
        <ele>549.7000122</ele>
        <time>2013-08-31T09:00:37Z</time>
      </trkpt>
      <trkpt lat="45.85107" lon="4.77625">
        <ele>549.7000122</ele>
        <time>2013-08-31T09:00:38Z</time>
      </trkpt>
      <trkpt lat="45.85106" lon="4.77625">
        <ele>549.7999878</ele>
        <time>2013-08-31T09:00:54Z</time>
      </trkpt>
      <trkpt lat="45.85105" lon="4.77625">
        <ele>549.7999878</ele>
        <time>2013-08-31T09:00:55Z</time>
      </trkpt>
      <trkpt lat="45.85099" lon="4.77627">
        <ele>554.5999756</ele>
        <time>2013-08-31T09:01:07Z</time>
      </trkpt>
      <trkpt lat="45.85096" lon="4.77628">
        <ele>555.5999756</ele>
        <time>2013-08-31T09:01:08Z</time>
      </trkpt>
      <trkpt lat="45.85089" lon="4.77629">
        <ele>557.0999756</ele>
        <time>2013-08-31T09:01:10Z</time>
      </trkpt>
      <trkpt lat="45.85086" lon="4.77629">
        <ele>557.7000122</ele>
        <time>2013-08-31T09:01:11Z</time>
      </trkpt>
      <trkpt lat="45.85079" lon="4.77632">
        <ele>558.0999756</ele>
        <time>2013-08-31T09:01:15Z</time>
      </trkpt>
      <trkpt lat="45.85077" lon="4.77634">
        <ele>558.0999756</ele>
        <time>2013-08-31T09:01:16Z</time>
      </trkpt>
      <trkpt lat="45.8507" lon="4.77636">
        <ele>558.4000244</ele>
        <time>2013-08-31T09:01:19Z</time>
      </trkpt>
      <trkpt lat="45.85068" lon="4.77635">
        <ele>561.2000122</ele>
        <time>2013-08-31T09:01:20Z</time>
      </trkpt>
      <trkpt lat="45.85059" lon="4.77635">
        <ele>563.7000122</ele>
        <time>2013-08-31T09:01:24Z</time>
      </trkpt>
      <trkpt lat="45.85057" lon="4.77635">
        <ele>562.7000122</ele>
        <time>2013-08-31T09:01:25Z</time>
      </trkpt>
      <trkpt lat="45.85049" lon="4.77634">
        <ele>563.9000244</ele>
        <time>2013-08-31T09:01:29Z</time>
      </trkpt>
      <trkpt lat="45.85047" lon="4.77632">
        <ele>563.0999756</ele>
        <time>2013-08-31T09:01:30Z</time>
      </trkpt>
      <trkpt lat="45.8504" lon="4.77631">
        <ele>563.7000122</ele>
        <time>2013-08-31T09:01:33Z</time>
      </trkpt>
      <trkpt lat="45.85037" lon="4.77631">
        <ele>563.0999756</ele>
        <time>2013-08-31T09:01:34Z</time>
      </trkpt>
      <trkpt lat="45.85029" lon="4.77628">
        <ele>566.2000122</ele>
        <time>2013-08-31T09:01:39Z</time>
      </trkpt>
      <trkpt lat="45.85028" lon="4.77626">
        <ele>566.9000244</ele>
        <time>2013-08-31T09:01:40Z</time>
      </trkpt>
      <trkpt lat="45.8502" lon="4.77623">
        <ele>568.4000244</ele>
        <time>2013-08-31T09:01:43Z</time>
      </trkpt>
      <trkpt lat="45.85018" lon="4.77621">
        <ele>569.2000122</ele>
        <time>2013-08-31T09:01:44Z</time>
      </trkpt>
      <trkpt lat="45.85013" lon="4.7762">
        <ele>568.7999878</ele>
        <time>2013-08-31T09:01:45Z</time>
      </trkpt>
      <trkpt lat="45.85003" lon="4.77619">
        <ele>568.5</ele>
        <time>2013-08-31T09:01:46Z</time>
      </trkpt>
      <trkpt lat="45.84998" lon="4.77618">
        <ele>568.9000244</ele>
        <time>2013-08-31T09:01:47Z</time>
      </trkpt>
      <trkpt lat="45.84994" lon="4.77617">
        <ele>568.7999878</ele>
        <time>2013-08-31T09:01:48Z</time>
      </trkpt>
      <trkpt lat="45.84986" lon="4.77615">
        <ele>577.5999756</ele>
        <time>2013-08-31T09:01:51Z</time>
      </trkpt>
      <trkpt lat="45.84981" lon="4.77613">
        <ele>577.4000244</ele>
        <time>2013-08-31T09:01:52Z</time>
      </trkpt>
      <trkpt lat="45.84974" lon="4.77614">
        <ele>574.5</ele>
        <time>2013-08-31T09:01:53Z</time>
      </trkpt>
      <trkpt lat="45.84969" lon="4.77613">
        <ele>573.7999878</ele>
        <time>2013-08-31T09:01:54Z</time>
      </trkpt>
      <trkpt lat="45.84964" lon="4.77612">
        <ele>573.4000244</ele>
        <time>2013-08-31T09:01:55Z</time>
      </trkpt>
      <trkpt lat="45.84959" lon="4.77613">
        <ele>572.5999756</ele>
        <time>2013-08-31T09:01:56Z</time>
      </trkpt>
      <trkpt lat="45.84955" lon="4.77613">
        <ele>571.9000244</ele>
        <time>2013-08-31T09:01:57Z</time>
      </trkpt>
      <trkpt lat="45.8495" lon="4.77615">
        <ele>571.5999756</ele>
        <time>2013-08-31T09:01:58Z</time>
      </trkpt>
      <trkpt lat="45.84945" lon="4.77616">
        <ele>571</ele>
        <time>2013-08-31T09:01:59Z</time>
      </trkpt>
      <trkpt lat="45.84941" lon="4.77613">
        <ele>570.7999878</ele>
        <time>2013-08-31T09:02:00Z</time>
      </trkpt>
      <trkpt lat="45.84938" lon="4.77613">
        <ele>570.5</ele>
        <time>2013-08-31T09:02:01Z</time>
      </trkpt>
      <trkpt lat="45.84931" lon="4.77613">
        <ele>571</ele>
        <time>2013-08-31T09:02:02Z</time>
      </trkpt>
      <trkpt lat="45.84926" lon="4.77612">
        <ele>569.5999756</ele>
        <time>2013-08-31T09:02:03Z</time>
      </trkpt>
      <trkpt lat="45.84922" lon="4.77613">
        <ele>569.0999756</ele>
        <time>2013-08-31T09:02:04Z</time>
      </trkpt>
      <trkpt lat="45.84915" lon="4.77609">
        <ele>568.2000122</ele>
        <time>2013-08-31T09:02:06Z</time>
      </trkpt>
      <trkpt lat="45.84911" lon="4.77611">
        <ele>567.7000122</ele>
        <time>2013-08-31T09:02:07Z</time>
      </trkpt>
      <trkpt lat="45.84906" lon="4.7761">
        <ele>567.5999756</ele>
        <time>2013-08-31T09:02:08Z</time>
      </trkpt>
      <trkpt lat="45.84902" lon="4.7761">
        <ele>567.0999756</ele>
        <time>2013-08-31T09:02:09Z</time>
      </trkpt>
      <trkpt lat="45.84894" lon="4.7761">
        <ele>566.5</ele>
        <time>2013-08-31T09:02:10Z</time>
      </trkpt>
      <trkpt lat="45.84887" lon="4.77608">
        <ele>567.7999878</ele>
        <time>2013-08-31T09:02:11Z</time>
      </trkpt>
      <trkpt lat="45.84881" lon="4.77609">
        <ele>568</ele>
        <time>2013-08-31T09:02:12Z</time>
      </trkpt>
      <trkpt lat="45.84876" lon="4.77607">
        <ele>568.2000122</ele>
        <time>2013-08-31T09:02:13Z</time>
      </trkpt>
      <trkpt lat="45.8487" lon="4.77605">
        <ele>568.0999756</ele>
        <time>2013-08-31T09:02:14Z</time>
      </trkpt>
      <trkpt lat="45.84863" lon="4.77602">
        <ele>567.5</ele>
        <time>2013-08-31T09:02:15Z</time>
      </trkpt>
      <trkpt lat="45.84856" lon="4.776">
        <ele>567.2000122</ele>
        <time>2013-08-31T09:02:16Z</time>
      </trkpt>
      <trkpt lat="45.84848" lon="4.77602">
        <ele>566.9000244</ele>
        <time>2013-08-31T09:02:17Z</time>
      </trkpt>
      <trkpt lat="45.84842" lon="4.77603">
        <ele>566.0999756</ele>
        <time>2013-08-31T09:02:18Z</time>
      </trkpt>
      <trkpt lat="45.84833" lon="4.77607">
        <ele>565.9000244</ele>
        <time>2013-08-31T09:02:19Z</time>
      </trkpt>
      <trkpt lat="45.84825" lon="4.77609">
        <ele>565.5999756</ele>
        <time>2013-08-31T09:02:20Z</time>
      </trkpt>
      <trkpt lat="45.84817" lon="4.77609">
        <ele>565.2999878</ele>
        <time>2013-08-31T09:02:21Z</time>
      </trkpt>
      <trkpt lat="45.8481" lon="4.7761">
        <ele>564.7000122</ele>
        <time>2013-08-31T09:02:22Z</time>
      </trkpt>
      <trkpt lat="45.84801" lon="4.77611">
        <ele>564.4000244</ele>
        <time>2013-08-31T09:02:23Z</time>
      </trkpt>
      <trkpt lat="45.84794" lon="4.77612">
        <ele>563.5</ele>
        <time>2013-08-31T09:02:24Z</time>
      </trkpt>
      <trkpt lat="45.84791" lon="4.77614">
        <ele>562.7000122</ele>
        <time>2013-08-31T09:02:25Z</time>
      </trkpt>
      <trkpt lat="45.84785" lon="4.77613">
        <ele>562.5</ele>
        <time>2013-08-31T09:02:26Z</time>
      </trkpt>
      <trkpt lat="45.8478" lon="4.77612">
        <ele>562.2999878</ele>
        <time>2013-08-31T09:02:27Z</time>
      </trkpt>
      <trkpt lat="45.84776" lon="4.77614">
        <ele>561.7999878</ele>
        <time>2013-08-31T09:02:28Z</time>
      </trkpt>
      <trkpt lat="45.84772" lon="4.77614">
        <ele>561.2999878</ele>
        <time>2013-08-31T09:02:29Z</time>
      </trkpt>
      <trkpt lat="45.84764" lon="4.77611">
        <ele>560.2000122</ele>
        <time>2013-08-31T09:02:32Z</time>
      </trkpt>
      <trkpt lat="45.84759" lon="4.77609">
        <ele>560.0999756</ele>
        <time>2013-08-31T09:02:33Z</time>
      </trkpt>
      <trkpt lat="45.84753" lon="4.77605">
        <ele>560.0999756</ele>
        <time>2013-08-31T09:02:34Z</time>
      </trkpt>
      <trkpt lat="45.84744" lon="4.77603">
        <ele>560.2999878</ele>
        <time>2013-08-31T09:02:35Z</time>
      </trkpt>
      <trkpt lat="45.84737" lon="4.77601">
        <ele>560.5999756</ele>
        <time>2013-08-31T09:02:37Z</time>
      </trkpt>
      <trkpt lat="45.84733" lon="4.776">
        <ele>560.2000122</ele>
        <time>2013-08-31T09:02:38Z</time>
      </trkpt>
      <trkpt lat="45.84726" lon="4.77595">
        <ele>560.2999878</ele>
        <time>2013-08-31T09:02:41Z</time>
      </trkpt>
      <trkpt lat="45.84724" lon="4.77594">
        <ele>560.0999756</ele>
        <time>2013-08-31T09:02:42Z</time>
      </trkpt>
      <trkpt lat="45.84718" lon="4.77586">
        <ele>558.7000122</ele>
        <time>2013-08-31T09:02:46Z</time>
      </trkpt>
      <trkpt lat="45.84716" lon="4.77584">
        <ele>558.7999878</ele>
        <time>2013-08-31T09:02:47Z</time>
      </trkpt>
      <trkpt lat="45.84712" lon="4.77577">
        <ele>558.2000122</ele>
        <time>2013-08-31T09:02:50Z</time>
      </trkpt>
      <trkpt lat="45.84708" lon="4.77574">
        <ele>557.7000122</ele>
        <time>2013-08-31T09:02:51Z</time>
      </trkpt>
      <trkpt lat="45.84703" lon="4.77571">
        <ele>558</ele>
        <time>2013-08-31T09:02:53Z</time>
      </trkpt>
      <trkpt lat="45.84699" lon="4.77568">
        <ele>557.5999756</ele>
        <time>2013-08-31T09:02:54Z</time>
      </trkpt>
      <trkpt lat="45.84695" lon="4.77565">
        <ele>557.4000244</ele>
        <time>2013-08-31T09:02:55Z</time>
      </trkpt>
      <trkpt lat="45.8469" lon="4.77562">
        <ele>557.5999756</ele>
        <time>2013-08-31T09:02:56Z</time>
      </trkpt>
      <trkpt lat="45.84682" lon="4.77558">
        <ele>557.2999878</ele>
        <time>2013-08-31T09:02:58Z</time>
      </trkpt>
      <trkpt lat="45.84678" lon="4.77556">
        <ele>557</ele>
        <time>2013-08-31T09:02:59Z</time>
      </trkpt>
      <trkpt lat="45.84672" lon="4.77555">
        <ele>556.7999878</ele>
        <time>2013-08-31T09:03:00Z</time>
      </trkpt>
      <trkpt lat="45.84666" lon="4.77553">
        <ele>556.4000244</ele>
        <time>2013-08-31T09:03:01Z</time>
      </trkpt>
      <trkpt lat="45.84662" lon="4.77553">
        <ele>556.5999756</ele>
        <time>2013-08-31T09:03:02Z</time>
      </trkpt>
      <trkpt lat="45.84654" lon="4.77553">
        <ele>555.7000122</ele>
        <time>2013-08-31T09:03:03Z</time>
      </trkpt>
      <trkpt lat="45.84646" lon="4.77555">
        <ele>555.2000122</ele>
        <time>2013-08-31T09:03:04Z</time>
      </trkpt>
      <trkpt lat="45.84639" lon="4.77558">
        <ele>555.2999878</ele>
        <time>2013-08-31T09:03:05Z</time>
      </trkpt>
      <trkpt lat="45.84632" lon="4.77559">
        <ele>555.2999878</ele>
        <time>2013-08-31T09:03:06Z</time>
      </trkpt>
      <trkpt lat="45.84623" lon="4.77559">
        <ele>555.2000122</ele>
        <time>2013-08-31T09:03:07Z</time>
      </trkpt>
      <trkpt lat="45.84615" lon="4.77563">
        <ele>555.0999756</ele>
        <time>2013-08-31T09:03:08Z</time>
      </trkpt>
      <trkpt lat="45.84607" lon="4.77565">
        <ele>555</ele>
        <time>2013-08-31T09:03:09Z</time>
      </trkpt>
      <trkpt lat="45.84599" lon="4.77569">
        <ele>555.0999756</ele>
        <time>2013-08-31T09:03:10Z</time>
      </trkpt>
      <trkpt lat="45.84589" lon="4.77573">
        <ele>555</ele>
        <time>2013-08-31T09:03:11Z</time>
      </trkpt>
      <trkpt lat="45.84581" lon="4.77576">
        <ele>554.5999756</ele>
        <time>2013-08-31T09:03:12Z</time>
      </trkpt>
      <trkpt lat="45.84573" lon="4.77579">
        <ele>554.7999878</ele>
        <time>2013-08-31T09:03:13Z</time>
      </trkpt>
      <trkpt lat="45.84565" lon="4.77581">
        <ele>554.2999878</ele>
        <time>2013-08-31T09:03:14Z</time>
      </trkpt>
      <trkpt lat="45.84557" lon="4.77586">
        <ele>554.2999878</ele>
        <time>2013-08-31T09:03:15Z</time>
      </trkpt>
      <trkpt lat="45.84549" lon="4.77592">
        <ele>553.2000122</ele>
        <time>2013-08-31T09:03:16Z</time>
      </trkpt>
      <trkpt lat="45.8454" lon="4.77599">
        <ele>552.7000122</ele>
        <time>2013-08-31T09:03:17Z</time>
      </trkpt>
      <trkpt lat="45.84532" lon="4.77602">
        <ele>552.5999756</ele>
        <time>2013-08-31T09:03:18Z</time>
      </trkpt>
      <trkpt lat="45.84526" lon="4.7761">
        <ele>552.5999756</ele>
        <time>2013-08-31T09:03:19Z</time>
      </trkpt>
      <trkpt lat="45.84519" lon="4.77615">
        <ele>553.7000122</ele>
        <time>2013-08-31T09:03:20Z</time>
      </trkpt>
      <trkpt lat="45.84512" lon="4.77619">
        <ele>554</ele>
        <time>2013-08-31T09:03:21Z</time>
      </trkpt>
      <trkpt lat="45.84507" lon="4.77621">
        <ele>554.5</ele>
        <time>2013-08-31T09:03:22Z</time>
      </trkpt>
      <trkpt lat="45.845" lon="4.77623">
        <ele>553.7000122</ele>
        <time>2013-08-31T09:03:23Z</time>
      </trkpt>
      <trkpt lat="45.84495" lon="4.77626">
        <ele>553.2000122</ele>
        <time>2013-08-31T09:03:24Z</time>
      </trkpt>
      <trkpt lat="45.84488" lon="4.7763">
        <ele>552.7999878</ele>
        <time>2013-08-31T09:03:25Z</time>
      </trkpt>
      <trkpt lat="45.84481" lon="4.7763">
        <ele>552.9000244</ele>
        <time>2013-08-31T09:03:26Z</time>
      </trkpt>
      <trkpt lat="45.84476" lon="4.77636">
        <ele>552.4000244</ele>
        <time>2013-08-31T09:03:27Z</time>
      </trkpt>
      <trkpt lat="45.84467" lon="4.77637">
        <ele>552.5999756</ele>
        <time>2013-08-31T09:03:28Z</time>
      </trkpt>
      <trkpt lat="45.84465" lon="4.77638">
        <ele>552.2999878</ele>
        <time>2013-08-31T09:03:29Z</time>
      </trkpt>
      <trkpt lat="45.84459" lon="4.77666">
        <ele>551.5</ele>
        <time>2013-08-31T09:03:30Z</time>
      </trkpt>
      <trkpt lat="45.84453" lon="4.77683">
        <ele>550.5999756</ele>
        <time>2013-08-31T09:03:31Z</time>
      </trkpt>
      <trkpt lat="45.84439" lon="4.7769">
        <ele>549.9000244</ele>
        <time>2013-08-31T09:03:32Z</time>
      </trkpt>
      <trkpt lat="45.84434" lon="4.77667">
        <ele>550.0999756</ele>
        <time>2013-08-31T09:03:33Z</time>
      </trkpt>
      <trkpt lat="45.84429" lon="4.77666">
        <ele>549.5</ele>
        <time>2013-08-31T09:03:34Z</time>
      </trkpt>
      <trkpt lat="45.84421" lon="4.77671">
        <ele>548.5999756</ele>
        <time>2013-08-31T09:03:35Z</time>
      </trkpt>
      <trkpt lat="45.84415" lon="4.77673">
        <ele>547.7999878</ele>
        <time>2013-08-31T09:03:36Z</time>
      </trkpt>
      <trkpt lat="45.84411" lon="4.77679">
        <ele>547.9000244</ele>
        <time>2013-08-31T09:03:37Z</time>
      </trkpt>
      <trkpt lat="45.84405" lon="4.77681">
        <ele>548</ele>
        <time>2013-08-31T09:03:38Z</time>
      </trkpt>
      <trkpt lat="45.84401" lon="4.77684">
        <ele>547.7000122</ele>
        <time>2013-08-31T09:03:39Z</time>
      </trkpt>
      <trkpt lat="45.84394" lon="4.77691">
        <ele>546.7000122</ele>
        <time>2013-08-31T09:03:40Z</time>
      </trkpt>
      <trkpt lat="45.84389" lon="4.77686">
        <ele>546.2999878</ele>
        <time>2013-08-31T09:03:41Z</time>
      </trkpt>
      <trkpt lat="45.84383" lon="4.77685">
        <ele>545.5</ele>
        <time>2013-08-31T09:03:42Z</time>
      </trkpt>
      <trkpt lat="45.84375" lon="4.77691">
        <ele>544.7000122</ele>
        <time>2013-08-31T09:03:43Z</time>
      </trkpt>
      <trkpt lat="45.84368" lon="4.77693">
        <ele>544.4000244</ele>
        <time>2013-08-31T09:03:44Z</time>
      </trkpt>
      <trkpt lat="45.84363" lon="4.77694">
        <ele>543.2000122</ele>
        <time>2013-08-31T09:03:45Z</time>
      </trkpt>
      <trkpt lat="45.84356" lon="4.77694">
        <ele>539.0999756</ele>
        <time>2013-08-31T09:03:49Z</time>
      </trkpt>
      <trkpt lat="45.84353" lon="4.77693">
        <ele>539.0999756</ele>
        <time>2013-08-31T09:03:50Z</time>
      </trkpt>
      <trkpt lat="45.84348" lon="4.77695">
        <ele>537.7000122</ele>
        <time>2013-08-31T09:03:52Z</time>
      </trkpt>
      <trkpt lat="45.84345" lon="4.77699">
        <ele>537.2999878</ele>
        <time>2013-08-31T09:03:53Z</time>
      </trkpt>
      <trkpt lat="45.84336" lon="4.777">
        <ele>535.7999878</ele>
        <time>2013-08-31T09:03:55Z</time>
      </trkpt>
      <trkpt lat="45.84331" lon="4.77702">
        <ele>535.7999878</ele>
        <time>2013-08-31T09:03:56Z</time>
      </trkpt>
      <trkpt lat="45.84324" lon="4.77703">
        <ele>534.7999878</ele>
        <time>2013-08-31T09:03:57Z</time>
      </trkpt>
      <trkpt lat="45.8432" lon="4.77707">
        <ele>533.5</ele>
        <time>2013-08-31T09:03:58Z</time>
      </trkpt>
      <trkpt lat="45.84314" lon="4.7771">
        <ele>532.5</ele>
        <time>2013-08-31T09:03:59Z</time>
      </trkpt>
      <trkpt lat="45.84306" lon="4.77715">
        <ele>531.7999878</ele>
        <time>2013-08-31T09:04:00Z</time>
      </trkpt>
      <trkpt lat="45.84299" lon="4.77718">
        <ele>531.2000122</ele>
        <time>2013-08-31T09:04:01Z</time>
      </trkpt>
      <trkpt lat="45.84293" lon="4.7772">
        <ele>530</ele>
        <time>2013-08-31T09:04:02Z</time>
      </trkpt>
      <trkpt lat="45.84287" lon="4.7772">
        <ele>529.5</ele>
        <time>2013-08-31T09:04:03Z</time>
      </trkpt>
      <trkpt lat="45.84278" lon="4.77719">
        <ele>529.0999756</ele>
        <time>2013-08-31T09:04:04Z</time>
      </trkpt>
      <trkpt lat="45.8427" lon="4.7772">
        <ele>528.5999756</ele>
        <time>2013-08-31T09:04:05Z</time>
      </trkpt>
      <trkpt lat="45.84263" lon="4.7772">
        <ele>527.9000244</ele>
        <time>2013-08-31T09:04:06Z</time>
      </trkpt>
      <trkpt lat="45.84257" lon="4.77721">
        <ele>527.7000122</ele>
        <time>2013-08-31T09:04:07Z</time>
      </trkpt>
      <trkpt lat="45.84251" lon="4.77722">
        <ele>528</ele>
        <time>2013-08-31T09:04:08Z</time>
      </trkpt>
      <trkpt lat="45.84244" lon="4.77725">
        <ele>527.2000122</ele>
        <time>2013-08-31T09:04:10Z</time>
      </trkpt>
      <trkpt lat="45.8424" lon="4.77726">
        <ele>526.7999878</ele>
        <time>2013-08-31T09:04:11Z</time>
      </trkpt>
      <trkpt lat="45.84233" lon="4.7773">
        <ele>525.5</ele>
        <time>2013-08-31T09:04:14Z</time>
      </trkpt>
      <trkpt lat="45.84229" lon="4.77736">
        <ele>524.0999756</ele>
        <time>2013-08-31T09:04:15Z</time>
      </trkpt>
      <trkpt lat="45.84223" lon="4.7774">
        <ele>523.0999756</ele>
        <time>2013-08-31T09:04:17Z</time>
      </trkpt>
      <trkpt lat="45.84219" lon="4.7774">
        <ele>522.7000122</ele>
        <time>2013-08-31T09:04:18Z</time>
      </trkpt>
      <trkpt lat="45.84214" lon="4.77742">
        <ele>522.7000122</ele>
        <time>2013-08-31T09:04:19Z</time>
      </trkpt>
      <trkpt lat="45.84209" lon="4.77741">
        <ele>522.0999756</ele>
        <time>2013-08-31T09:04:20Z</time>
      </trkpt>
      <trkpt lat="45.84204" lon="4.7774">
        <ele>522</ele>
        <time>2013-08-31T09:04:21Z</time>
      </trkpt>
      <trkpt lat="45.84197" lon="4.77742">
        <ele>520.2999878</ele>
        <time>2013-08-31T09:04:22Z</time>
      </trkpt>
      <trkpt lat="45.84187" lon="4.77744">
        <ele>519.5</ele>
        <time>2013-08-31T09:04:23Z</time>
      </trkpt>
      <trkpt lat="45.8418" lon="4.77747">
        <ele>518.5</ele>
        <time>2013-08-31T09:04:24Z</time>
      </trkpt>
      <trkpt lat="45.84173" lon="4.77747">
        <ele>517.5999756</ele>
        <time>2013-08-31T09:04:25Z</time>
      </trkpt>
      <trkpt lat="45.84165" lon="4.77749">
        <ele>516.9000244</ele>
        <time>2013-08-31T09:04:26Z</time>
      </trkpt>
      <trkpt lat="45.84157" lon="4.77752">
        <ele>516.2000122</ele>
        <time>2013-08-31T09:04:27Z</time>
      </trkpt>
      <trkpt lat="45.84148" lon="4.77756">
        <ele>515.7000122</ele>
        <time>2013-08-31T09:04:28Z</time>
      </trkpt>
      <trkpt lat="45.84144" lon="4.77762">
        <ele>514.7999878</ele>
        <time>2013-08-31T09:04:29Z</time>
      </trkpt>
      <trkpt lat="45.84139" lon="4.77768">
        <ele>514.0999756</ele>
        <time>2013-08-31T09:04:30Z</time>
      </trkpt>
      <trkpt lat="45.84132" lon="4.77772">
        <ele>514</ele>
        <time>2013-08-31T09:04:31Z</time>
      </trkpt>
      <trkpt lat="45.8413" lon="4.77774">
        <ele>513.5999756</ele>
        <time>2013-08-31T09:04:32Z</time>
      </trkpt>
      <trkpt lat="45.84122" lon="4.77777">
        <ele>508.7999878</ele>
        <time>2013-08-31T09:04:36Z</time>
      </trkpt>
      <trkpt lat="45.84117" lon="4.77776">
        <ele>507.8999939</ele>
        <time>2013-08-31T09:04:37Z</time>
      </trkpt>
      <trkpt lat="45.8411" lon="4.77779">
        <ele>507</ele>
        <time>2013-08-31T09:04:38Z</time>
      </trkpt>
      <trkpt lat="45.84107" lon="4.77778">
        <ele>506.1000061</ele>
        <time>2013-08-31T09:04:39Z</time>
      </trkpt>
      <trkpt lat="45.84102" lon="4.77776">
        <ele>505.7000122</ele>
        <time>2013-08-31T09:04:41Z</time>
      </trkpt>
      <trkpt lat="45.84094" lon="4.77777">
        <ele>505.2000122</ele>
        <time>2013-08-31T09:04:42Z</time>
      </trkpt>
      <trkpt lat="45.84087" lon="4.77777">
        <ele>503.7000122</ele>
        <time>2013-08-31T09:04:44Z</time>
      </trkpt>
      <trkpt lat="45.84084" lon="4.77776">
        <ele>505.7000122</ele>
        <time>2013-08-31T09:04:45Z</time>
      </trkpt>
      <trkpt lat="45.84076" lon="4.77777">
        <ele>501.1000061</ele>
        <time>2013-08-31T09:04:49Z</time>
      </trkpt>
      <trkpt lat="45.84073" lon="4.77778">
        <ele>500.5</ele>
        <time>2013-08-31T09:04:50Z</time>
      </trkpt>
      <trkpt lat="45.84067" lon="4.77782">
        <ele>497.8999939</ele>
        <time>2013-08-31T09:04:53Z</time>
      </trkpt>
      <trkpt lat="45.84065" lon="4.77784">
        <ele>497.1000061</ele>
        <time>2013-08-31T09:04:54Z</time>
      </trkpt>
      <trkpt lat="45.84062" lon="4.77784">
        <ele>495.7999878</ele>
        <time>2013-08-31T09:04:55Z</time>
      </trkpt>
      <trkpt lat="45.84053" lon="4.77786">
        <ele>499.2999878</ele>
        <time>2013-08-31T09:04:56Z</time>
      </trkpt>
      <trkpt lat="45.84046" lon="4.77788">
        <ele>500.3999939</ele>
        <time>2013-08-31T09:04:58Z</time>
      </trkpt>
      <trkpt lat="45.84042" lon="4.7779">
        <ele>500.2999878</ele>
        <time>2013-08-31T09:04:59Z</time>
      </trkpt>
      <trkpt lat="45.84033" lon="4.77791">
        <ele>499.2999878</ele>
        <time>2013-08-31T09:05:02Z</time>
      </trkpt>
      <trkpt lat="45.8403" lon="4.77792">
        <ele>499.2999878</ele>
        <time>2013-08-31T09:05:03Z</time>
      </trkpt>
      <trkpt lat="45.84026" lon="4.77795">
        <ele>497.3999939</ele>
        <time>2013-08-31T09:05:08Z</time>
      </trkpt>
      <trkpt lat="45.84026" lon="4.77795">
        <ele>497.3999939</ele>
        <time>2013-08-31T09:05:09Z</time>
      </trkpt>
      <trkpt lat="45.84026" lon="4.77795">
        <ele>496.7999878</ele>
        <time>2013-08-31T09:05:10Z</time>
      </trkpt>
      <trkpt lat="45.84025" lon="4.77798">
        <ele>495.5</ele>
        <time>2013-08-31T09:05:18Z</time>
      </trkpt>
      <trkpt lat="45.84025" lon="4.77798">
        <ele>495.2999878</ele>
        <time>2013-08-31T09:05:19Z</time>
      </trkpt>
      <trkpt lat="45.84025" lon="4.77798">
        <ele>495</ele>
        <time>2013-08-31T09:05:35Z</time>
      </trkpt>
      <trkpt lat="45.84024" lon="4.77798">
        <ele>495</ele>
        <time>2013-08-31T09:05:36Z</time>
      </trkpt>
      <trkpt lat="45.84017" lon="4.778">
        <ele>491.2000122</ele>
        <time>2013-08-31T09:05:38Z</time>
      </trkpt>
      <trkpt lat="45.84014" lon="4.77799">
        <ele>491</ele>
        <time>2013-08-31T09:05:39Z</time>
      </trkpt>
      <trkpt lat="45.84007" lon="4.77799">
        <ele>489.7000122</ele>
        <time>2013-08-31T09:05:40Z</time>
      </trkpt>
      <trkpt lat="45.84001" lon="4.77799">
        <ele>491</ele>
        <time>2013-08-31T09:05:41Z</time>
      </trkpt>
      <trkpt lat="45.83997" lon="4.77798">
        <ele>491.1000061</ele>
        <time>2013-08-31T09:05:42Z</time>
      </trkpt>
      <trkpt lat="45.83992" lon="4.77799">
        <ele>491.1000061</ele>
        <time>2013-08-31T09:05:43Z</time>
      </trkpt>
      <trkpt lat="45.83985" lon="4.77799">
        <ele>491.2000122</ele>
        <time>2013-08-31T09:05:44Z</time>
      </trkpt>
      <trkpt lat="45.83977" lon="4.77801">
        <ele>490.8999939</ele>
        <time>2013-08-31T09:05:45Z</time>
      </trkpt>
      <trkpt lat="45.83968" lon="4.77799">
        <ele>490.7000122</ele>
        <time>2013-08-31T09:05:46Z</time>
      </trkpt>
      <trkpt lat="45.83959" lon="4.77801">
        <ele>490.3999939</ele>
        <time>2013-08-31T09:05:47Z</time>
      </trkpt>
      <trkpt lat="45.83951" lon="4.77802">
        <ele>490.3999939</ele>
        <time>2013-08-31T09:05:48Z</time>
      </trkpt>
      <trkpt lat="45.83942" lon="4.77801">
        <ele>487.2999878</ele>
        <time>2013-08-31T09:05:49Z</time>
      </trkpt>
      <trkpt lat="45.83934" lon="4.77801">
        <ele>484.1000061</ele>
        <time>2013-08-31T09:05:50Z</time>
      </trkpt>
      <trkpt lat="45.83926" lon="4.778">
        <ele>483.1000061</ele>
        <time>2013-08-31T09:05:51Z</time>
      </trkpt>
      <trkpt lat="45.83918" lon="4.77801">
        <ele>482.3999939</ele>
        <time>2013-08-31T09:05:52Z</time>
      </trkpt>
      <trkpt lat="45.83913" lon="4.77797">
        <ele>481.7999878</ele>
        <time>2013-08-31T09:05:53Z</time>
      </trkpt>
      <trkpt lat="45.83905" lon="4.77796">
        <ele>481.2000122</ele>
        <time>2013-08-31T09:05:54Z</time>
      </trkpt>
      <trkpt lat="45.83898" lon="4.77795">
        <ele>478.7999878</ele>
        <time>2013-08-31T09:05:55Z</time>
      </trkpt>
      <trkpt lat="45.8389" lon="4.77795">
        <ele>477.2000122</ele>
        <time>2013-08-31T09:05:56Z</time>
      </trkpt>
      <trkpt lat="45.8388" lon="4.77798">
        <ele>475.5</ele>
        <time>2013-08-31T09:05:57Z</time>
      </trkpt>
      <trkpt lat="45.83869" lon="4.77798">
        <ele>474.7999878</ele>
        <time>2013-08-31T09:05:58Z</time>
      </trkpt>
      <trkpt lat="45.83859" lon="4.77794">
        <ele>473.2999878</ele>
        <time>2013-08-31T09:05:59Z</time>
      </trkpt>
      <trkpt lat="45.83849" lon="4.77789">
        <ele>471.2000122</ele>
        <time>2013-08-31T09:06:00Z</time>
      </trkpt>
      <trkpt lat="45.83842" lon="4.7778">
        <ele>470.3999939</ele>
        <time>2013-08-31T09:06:01Z</time>
      </trkpt>
      <trkpt lat="45.83835" lon="4.77767">
        <ele>468.2000122</ele>
        <time>2013-08-31T09:06:02Z</time>
      </trkpt>
      <trkpt lat="45.83827" lon="4.77754">
        <ele>467.7999878</ele>
        <time>2013-08-31T09:06:03Z</time>
      </trkpt>
      <trkpt lat="45.83822" lon="4.77741">
        <ele>467</ele>
        <time>2013-08-31T09:06:04Z</time>
      </trkpt>
      <trkpt lat="45.83818" lon="4.77726">
        <ele>464.7999878</ele>
        <time>2013-08-31T09:06:05Z</time>
      </trkpt>
      <trkpt lat="45.83812" lon="4.77711">
        <ele>463.2000122</ele>
        <time>2013-08-31T09:06:06Z</time>
      </trkpt>
      <trkpt lat="45.83805" lon="4.77697">
        <ele>463.2999878</ele>
        <time>2013-08-31T09:06:07Z</time>
      </trkpt>
      <trkpt lat="45.83799" lon="4.77682">
        <ele>462.7999878</ele>
        <time>2013-08-31T09:06:08Z</time>
      </trkpt>
      <trkpt lat="45.83795" lon="4.77667">
        <ele>461.7999878</ele>
        <time>2013-08-31T09:06:09Z</time>
      </trkpt>
      <trkpt lat="45.83789" lon="4.77654">
        <ele>461.1000061</ele>
        <time>2013-08-31T09:06:10Z</time>
      </trkpt>
      <trkpt lat="45.83786" lon="4.77636">
        <ele>456.2999878</ele>
        <time>2013-08-31T09:06:11Z</time>
      </trkpt>
      <trkpt lat="45.83783" lon="4.7762">
        <ele>455.6000061</ele>
        <time>2013-08-31T09:06:12Z</time>
      </trkpt>
      <trkpt lat="45.8378" lon="4.77604">
        <ele>454.8999939</ele>
        <time>2013-08-31T09:06:13Z</time>
      </trkpt>
      <trkpt lat="45.83776" lon="4.77589">
        <ele>452.2999878</ele>
        <time>2013-08-31T09:06:14Z</time>
      </trkpt>
      <trkpt lat="45.83772" lon="4.77573">
        <ele>451.5</ele>
        <time>2013-08-31T09:06:15Z</time>
      </trkpt>
      <trkpt lat="45.83771" lon="4.77558">
        <ele>449.6000061</ele>
        <time>2013-08-31T09:06:16Z</time>
      </trkpt>
      <trkpt lat="45.83771" lon="4.77543">
        <ele>447.7000122</ele>
        <time>2013-08-31T09:06:17Z</time>
      </trkpt>
      <trkpt lat="45.83769" lon="4.7753">
        <ele>447</ele>
        <time>2013-08-31T09:06:18Z</time>
      </trkpt>
      <trkpt lat="45.83768" lon="4.77519">
        <ele>445.7999878</ele>
        <time>2013-08-31T09:06:19Z</time>
      </trkpt>
      <trkpt lat="45.83767" lon="4.77511">
        <ele>444.5</ele>
        <time>2013-08-31T09:06:20Z</time>
      </trkpt>
      <trkpt lat="45.83761" lon="4.77503">
        <ele>442.7000122</ele>
        <time>2013-08-31T09:06:22Z</time>
      </trkpt>
      <trkpt lat="45.83758" lon="4.77503">
        <ele>442.3999939</ele>
        <time>2013-08-31T09:06:23Z</time>
      </trkpt>
      <trkpt lat="45.83753" lon="4.77508">
        <ele>441.7000122</ele>
        <time>2013-08-31T09:06:27Z</time>
      </trkpt>
      <trkpt lat="45.83755" lon="4.77515">
        <ele>441</ele>
        <time>2013-08-31T09:06:28Z</time>
      </trkpt>
      <trkpt lat="45.83757" lon="4.77527">
        <ele>440.1000061</ele>
        <time>2013-08-31T09:06:30Z</time>
      </trkpt>
      <trkpt lat="45.83758" lon="4.77534">
        <ele>439.2999878</ele>
        <time>2013-08-31T09:06:31Z</time>
      </trkpt>
      <trkpt lat="45.83758" lon="4.77541">
        <ele>439</ele>
        <time>2013-08-31T09:06:32Z</time>
      </trkpt>
      <trkpt lat="45.83758" lon="4.77548">
        <ele>438.5</ele>
        <time>2013-08-31T09:06:33Z</time>
      </trkpt>
      <trkpt lat="45.83758" lon="4.77555">
        <ele>438.5</ele>
        <time>2013-08-31T09:06:34Z</time>
      </trkpt>
      <trkpt lat="45.83758" lon="4.77562">
        <ele>438.7999878</ele>
        <time>2013-08-31T09:06:35Z</time>
      </trkpt>
      <trkpt lat="45.83758" lon="4.77568">
        <ele>439</ele>
        <time>2013-08-31T09:06:36Z</time>
      </trkpt>
      <trkpt lat="45.83757" lon="4.77575">
        <ele>439</ele>
        <time>2013-08-31T09:06:37Z</time>
      </trkpt>
      <trkpt lat="45.83757" lon="4.77583">
        <ele>439.1000061</ele>
        <time>2013-08-31T09:06:38Z</time>
      </trkpt>
      <trkpt lat="45.83757" lon="4.77591">
        <ele>439</ele>
        <time>2013-08-31T09:06:39Z</time>
      </trkpt>
      <trkpt lat="45.83757" lon="4.77598">
        <ele>438.8999939</ele>
        <time>2013-08-31T09:06:40Z</time>
      </trkpt>
      <trkpt lat="45.83759" lon="4.77606">
        <ele>438</ele>
        <time>2013-08-31T09:06:41Z</time>
      </trkpt>
      <trkpt lat="45.83759" lon="4.77613">
        <ele>437.7000122</ele>
        <time>2013-08-31T09:06:42Z</time>
      </trkpt>
      <trkpt lat="45.8376" lon="4.7762">
        <ele>437.3999939</ele>
        <time>2013-08-31T09:06:43Z</time>
      </trkpt>
      <trkpt lat="45.83759" lon="4.77627">
        <ele>437</ele>
        <time>2013-08-31T09:06:44Z</time>
      </trkpt>
      <trkpt lat="45.83759" lon="4.77634">
        <ele>436.2999878</ele>
        <time>2013-08-31T09:06:45Z</time>
      </trkpt>
      <trkpt lat="45.83759" lon="4.77641">
        <ele>435.8999939</ele>
        <time>2013-08-31T09:06:46Z</time>
      </trkpt>
      <trkpt lat="45.8376" lon="4.77648">
        <ele>435.1000061</ele>
        <time>2013-08-31T09:06:47Z</time>
      </trkpt>
      <trkpt lat="45.8376" lon="4.77656">
        <ele>434.7999878</ele>
        <time>2013-08-31T09:06:48Z</time>
      </trkpt>
      <trkpt lat="45.83761" lon="4.77663">
        <ele>434.8999939</ele>
        <time>2013-08-31T09:06:49Z</time>
      </trkpt>
      <trkpt lat="45.83761" lon="4.7767">
        <ele>435.7000122</ele>
        <time>2013-08-31T09:06:50Z</time>
      </trkpt>
      <trkpt lat="45.83761" lon="4.77678">
        <ele>435.2000122</ele>
        <time>2013-08-31T09:06:51Z</time>
      </trkpt>
      <trkpt lat="45.83762" lon="4.77686">
        <ele>434.7000122</ele>
        <time>2013-08-31T09:06:52Z</time>
      </trkpt>
      <trkpt lat="45.83761" lon="4.77693">
        <ele>434.8999939</ele>
        <time>2013-08-31T09:06:53Z</time>
      </trkpt>
      <trkpt lat="45.83762" lon="4.77704">
        <ele>435.3999939</ele>
        <time>2013-08-31T09:06:55Z</time>
      </trkpt>
      <trkpt lat="45.8376" lon="4.77713">
        <ele>435.2999878</ele>
        <time>2013-08-31T09:06:56Z</time>
      </trkpt>
      <trkpt lat="45.83763" lon="4.77723">
        <ele>435.2000122</ele>
        <time>2013-08-31T09:06:57Z</time>
      </trkpt>
      <trkpt lat="45.83764" lon="4.77732">
        <ele>435</ele>
        <time>2013-08-31T09:06:58Z</time>
      </trkpt>
      <trkpt lat="45.83766" lon="4.7774">
        <ele>434.7000122</ele>
        <time>2013-08-31T09:06:59Z</time>
      </trkpt>
      <trkpt lat="45.83768" lon="4.77748">
        <ele>434.1000061</ele>
        <time>2013-08-31T09:07:00Z</time>
      </trkpt>
      <trkpt lat="45.8377" lon="4.77756">
        <ele>434.2000122</ele>
        <time>2013-08-31T09:07:01Z</time>
      </trkpt>
      <trkpt lat="45.83772" lon="4.77763">
        <ele>433.7999878</ele>
        <time>2013-08-31T09:07:02Z</time>
      </trkpt>
      <trkpt lat="45.83774" lon="4.77771">
        <ele>433.7999878</ele>
        <time>2013-08-31T09:07:03Z</time>
      </trkpt>
      <trkpt lat="45.83776" lon="4.77779">
        <ele>433.1000061</ele>
        <time>2013-08-31T09:07:04Z</time>
      </trkpt>
      <trkpt lat="45.83777" lon="4.77787">
        <ele>432.8999939</ele>
        <time>2013-08-31T09:07:05Z</time>
      </trkpt>
      <trkpt lat="45.83779" lon="4.77794">
        <ele>432.7999878</ele>
        <time>2013-08-31T09:07:06Z</time>
      </trkpt>
      <trkpt lat="45.8378" lon="4.77801">
        <ele>433</ele>
        <time>2013-08-31T09:07:07Z</time>
      </trkpt>
      <trkpt lat="45.83782" lon="4.77807">
        <ele>433.2999878</ele>
        <time>2013-08-31T09:07:08Z</time>
      </trkpt>
      <trkpt lat="45.83786" lon="4.77817">
        <ele>433.7000122</ele>
        <time>2013-08-31T09:07:10Z</time>
      </trkpt>
      <trkpt lat="45.83788" lon="4.77823">
        <ele>433.5</ele>
        <time>2013-08-31T09:07:11Z</time>
      </trkpt>
      <trkpt lat="45.83792" lon="4.77831">
        <ele>433.5</ele>
        <time>2013-08-31T09:07:13Z</time>
      </trkpt>
      <trkpt lat="45.83795" lon="4.77835">
        <ele>433.2000122</ele>
        <time>2013-08-31T09:07:14Z</time>
      </trkpt>
      <trkpt lat="45.83793" lon="4.7784">
        <ele>433.5</ele>
        <time>2013-08-31T09:07:15Z</time>
      </trkpt>
      <trkpt lat="45.83787" lon="4.77843">
        <ele>433.8999939</ele>
        <time>2013-08-31T09:07:16Z</time>
      </trkpt>
      <trkpt lat="45.83778" lon="4.77844">
        <ele>433.7999878</ele>
        <time>2013-08-31T09:07:17Z</time>
      </trkpt>
      <trkpt lat="45.83771" lon="4.77846">
        <ele>433.8999939</ele>
        <time>2013-08-31T09:07:18Z</time>
      </trkpt>
      <trkpt lat="45.83765" lon="4.77847">
        <ele>433.2999878</ele>
        <time>2013-08-31T09:07:19Z</time>
      </trkpt>
      <trkpt lat="45.8376" lon="4.77847">
        <ele>433</ele>
        <time>2013-08-31T09:07:20Z</time>
      </trkpt>
      <trkpt lat="45.83754" lon="4.77844">
        <ele>433.1000061</ele>
        <time>2013-08-31T09:07:21Z</time>
      </trkpt>
      <trkpt lat="45.83748" lon="4.77842">
        <ele>432.2999878</ele>
        <time>2013-08-31T09:07:22Z</time>
      </trkpt>
      <trkpt lat="45.83742" lon="4.7784">
        <ele>432.2000122</ele>
        <time>2013-08-31T09:07:23Z</time>
      </trkpt>
      <trkpt lat="45.83738" lon="4.77839">
        <ele>431.8999939</ele>
        <time>2013-08-31T09:07:24Z</time>
      </trkpt>
      <trkpt lat="45.83732" lon="4.77839">
        <ele>431.5</ele>
        <time>2013-08-31T09:07:25Z</time>
      </trkpt>
      <trkpt lat="45.83727" lon="4.77837">
        <ele>431.2000122</ele>
        <time>2013-08-31T09:07:26Z</time>
      </trkpt>
      <trkpt lat="45.83722" lon="4.77835">
        <ele>430.2000122</ele>
        <time>2013-08-31T09:07:27Z</time>
      </trkpt>
      <trkpt lat="45.83717" lon="4.77833">
        <ele>430.5</ele>
        <time>2013-08-31T09:07:28Z</time>
      </trkpt>
      <trkpt lat="45.83709" lon="4.7783">
        <ele>430.1000061</ele>
        <time>2013-08-31T09:07:30Z</time>
      </trkpt>
      <trkpt lat="45.83704" lon="4.77828">
        <ele>430.7000122</ele>
        <time>2013-08-31T09:07:31Z</time>
      </trkpt>
      <trkpt lat="45.83696" lon="4.77826">
        <ele>431.1000061</ele>
        <time>2013-08-31T09:07:33Z</time>
      </trkpt>
      <trkpt lat="45.83691" lon="4.77825">
        <ele>431.2999878</ele>
        <time>2013-08-31T09:07:34Z</time>
      </trkpt>
      <trkpt lat="45.83684" lon="4.77824">
        <ele>430.5</ele>
        <time>2013-08-31T09:07:36Z</time>
      </trkpt>
      <trkpt lat="45.8368" lon="4.77822">
        <ele>430.2000122</ele>
        <time>2013-08-31T09:07:37Z</time>
      </trkpt>
      <trkpt lat="45.83673" lon="4.77821">
        <ele>430.7999878</ele>
        <time>2013-08-31T09:07:39Z</time>
      </trkpt>
      <trkpt lat="45.83671" lon="4.77821">
        <ele>431.2999878</ele>
        <time>2013-08-31T09:07:40Z</time>
      </trkpt>
      <trkpt lat="45.83666" lon="4.77812">
        <ele>432.7999878</ele>
        <time>2013-08-31T09:07:49Z</time>
      </trkpt>
      <trkpt lat="45.83666" lon="4.77811">
        <ele>432.7999878</ele>
        <time>2013-08-31T09:07:50Z</time>
      </trkpt>
      <trkpt lat="45.83665" lon="4.77811">
        <ele>432.7999878</ele>
        <time>2013-08-31T09:07:51Z</time>
      </trkpt>
      <trkpt lat="45.83665" lon="4.77811">
        <ele>432.6000061</ele>
        <time>2013-08-31T09:07:52Z</time>
      </trkpt>
      <trkpt lat="45.83665" lon="4.77811">
        <ele>432.3999939</ele>
        <time>2013-08-31T09:07:53Z</time>
      </trkpt>
      <trkpt lat="45.83666" lon="4.77812">
        <ele>432.6000061</ele>
        <time>2013-08-31T09:07:54Z</time>
      </trkpt>
      <trkpt lat="45.83666" lon="4.77812">
        <ele>432.6000061</ele>
        <time>2013-08-31T09:07:55Z</time>
      </trkpt>
      <trkpt lat="45.83666" lon="4.77812">
        <ele>432.5</ele>
        <time>2013-08-31T09:08:56Z</time>
      </trkpt>
      <trkpt lat="45.83666" lon="4.77812">
        <ele>432.6000061</ele>
        <time>2013-08-31T09:08:57Z</time>
      </trkpt>
      <trkpt lat="45.83663" lon="4.77813">
        <ele>432.2999878</ele>
        <time>2013-08-31T09:09:04Z</time>
      </trkpt>
      <trkpt lat="45.83663" lon="4.77814">
        <ele>432.2999878</ele>
        <time>2013-08-31T09:09:05Z</time>
      </trkpt>
      <trkpt lat="45.83664" lon="4.77814">
        <ele>431.7000122</ele>
        <time>2013-08-31T09:09:06Z</time>
      </trkpt>
      <trkpt lat="45.83664" lon="4.77815">
        <ele>431.2000122</ele>
        <time>2013-08-31T09:09:09Z</time>
      </trkpt>
      <trkpt lat="45.83664" lon="4.77815">
        <ele>431.2000122</ele>
        <time>2013-08-31T09:09:10Z</time>
      </trkpt>
      <trkpt lat="45.83664" lon="4.77815">
        <ele>431.2000122</ele>
        <time>2013-08-31T09:09:36Z</time>
      </trkpt>
      <trkpt lat="45.83664" lon="4.77815">
        <ele>431.3999939</ele>
        <time>2013-08-31T09:09:37Z</time>
      </trkpt>
      <trkpt lat="45.83664" lon="4.77815">
        <ele>431.3999939</ele>
        <time>2013-08-31T09:09:38Z</time>
      </trkpt>
      <trkpt lat="45.83664" lon="4.77816">
        <ele>432.7000122</ele>
        <time>2013-08-31T09:10:28Z</time>
      </trkpt>
      <trkpt lat="45.83664" lon="4.77817">
        <ele>433.5</ele>
        <time>2013-08-31T09:10:29Z</time>
      </trkpt>
      <trkpt lat="45.83664" lon="4.7781">
        <ele>434.1000061</ele>
        <time>2013-08-31T09:10:37Z</time>
      </trkpt>
      <trkpt lat="45.83665" lon="4.77803">
        <ele>433.8999939</ele>
        <time>2013-08-31T09:10:38Z</time>
      </trkpt>
      <trkpt lat="45.83666" lon="4.77793">
        <ele>431.3999939</ele>
        <time>2013-08-31T09:10:40Z</time>
      </trkpt>
      <trkpt lat="45.83666" lon="4.77789">
        <ele>430.7999878</ele>
        <time>2013-08-31T09:10:41Z</time>
      </trkpt>
      <trkpt lat="45.83668" lon="4.77777">
        <ele>430.7999878</ele>
        <time>2013-08-31T09:10:44Z</time>
      </trkpt>
      <trkpt lat="45.8367" lon="4.77773">
        <ele>430.7999878</ele>
        <time>2013-08-31T09:10:45Z</time>
      </trkpt>
      <trkpt lat="45.83671" lon="4.77763">
        <ele>424.1000061</ele>
        <time>2013-08-31T09:10:49Z</time>
      </trkpt>
      <trkpt lat="45.83672" lon="4.77758">
        <ele>424.5</ele>
        <time>2013-08-31T09:10:50Z</time>
      </trkpt>
      <trkpt lat="45.83672" lon="4.77749">
        <ele>425</ele>
        <time>2013-08-31T09:10:52Z</time>
      </trkpt>
      <trkpt lat="45.83673" lon="4.77742">
        <ele>424.2000122</ele>
        <time>2013-08-31T09:10:53Z</time>
      </trkpt>
      <trkpt lat="45.8367" lon="4.77733">
        <ele>423.5</ele>
        <time>2013-08-31T09:10:54Z</time>
      </trkpt>
      <trkpt lat="45.83668" lon="4.77725">
        <ele>423.1000061</ele>
        <time>2013-08-31T09:10:55Z</time>
      </trkpt>
      <trkpt lat="45.83667" lon="4.77718">
        <ele>422.7999878</ele>
        <time>2013-08-31T09:10:56Z</time>
      </trkpt>
      <trkpt lat="45.83664" lon="4.77711">
        <ele>423.1000061</ele>
        <time>2013-08-31T09:10:57Z</time>
      </trkpt>
      <trkpt lat="45.83661" lon="4.77703">
        <ele>423.2000122</ele>
        <time>2013-08-31T09:10:58Z</time>
      </trkpt>
      <trkpt lat="45.83658" lon="4.77695">
        <ele>423.3999939</ele>
        <time>2013-08-31T09:10:59Z</time>
      </trkpt>
      <trkpt lat="45.83654" lon="4.77688">
        <ele>423.1000061</ele>
        <time>2013-08-31T09:11:00Z</time>
      </trkpt>
      <trkpt lat="45.83651" lon="4.77682">
        <ele>423.2000122</ele>
        <time>2013-08-31T09:11:01Z</time>
      </trkpt>
      <trkpt lat="45.83648" lon="4.77673">
        <ele>423.2999878</ele>
        <time>2013-08-31T09:11:02Z</time>
      </trkpt>
      <trkpt lat="45.83645" lon="4.77667">
        <ele>423.1000061</ele>
        <time>2013-08-31T09:11:03Z</time>
      </trkpt>
      <trkpt lat="45.83639" lon="4.77659">
        <ele>423.7000122</ele>
        <time>2013-08-31T09:11:05Z</time>
      </trkpt>
      <trkpt lat="45.83633" lon="4.77655">
        <ele>423.2000122</ele>
        <time>2013-08-31T09:11:06Z</time>
      </trkpt>
      <trkpt lat="45.83627" lon="4.77648">
        <ele>423.5</ele>
        <time>2013-08-31T09:11:08Z</time>
      </trkpt>
      <trkpt lat="45.83623" lon="4.77644">
        <ele>424.3999939</ele>
        <time>2013-08-31T09:11:09Z</time>
      </trkpt>
      <trkpt lat="45.83615" lon="4.77639">
        <ele>424.7999878</ele>
        <time>2013-08-31T09:11:12Z</time>
      </trkpt>
      <trkpt lat="45.83612" lon="4.77638">
        <ele>424.8999939</ele>
        <time>2013-08-31T09:11:13Z</time>
      </trkpt>
      <trkpt lat="45.83607" lon="4.77628">
        <ele>425</ele>
        <time>2013-08-31T09:11:18Z</time>
      </trkpt>
      <trkpt lat="45.83606" lon="4.77624">
        <ele>425.6000061</ele>
        <time>2013-08-31T09:11:19Z</time>
      </trkpt>
      <trkpt lat="45.83603" lon="4.77617">
        <ele>426.6000061</ele>
        <time>2013-08-31T09:11:21Z</time>
      </trkpt>
      <trkpt lat="45.83602" lon="4.77612">
        <ele>426.8999939</ele>
        <time>2013-08-31T09:11:22Z</time>
      </trkpt>
      <trkpt lat="45.83597" lon="4.77604">
        <ele>427.7000122</ele>
        <time>2013-08-31T09:11:24Z</time>
      </trkpt>
      <trkpt lat="45.83594" lon="4.77598">
        <ele>427.7000122</ele>
        <time>2013-08-31T09:11:25Z</time>
      </trkpt>
      <trkpt lat="45.8359" lon="4.77591">
        <ele>428</ele>
        <time>2013-08-31T09:11:26Z</time>
      </trkpt>
      <trkpt lat="45.83587" lon="4.77584">
        <ele>427.7999878</ele>
        <time>2013-08-31T09:11:27Z</time>
      </trkpt>
      <trkpt lat="45.83583" lon="4.77577">
        <ele>426.7000122</ele>
        <time>2013-08-31T09:11:28Z</time>
      </trkpt>
      <trkpt lat="45.8358" lon="4.77571">
        <ele>426.5</ele>
        <time>2013-08-31T09:11:29Z</time>
      </trkpt>
      <trkpt lat="45.83575" lon="4.77568">
        <ele>425</ele>
        <time>2013-08-31T09:11:30Z</time>
      </trkpt>
      <trkpt lat="45.83568" lon="4.77563">
        <ele>425.7000122</ele>
        <time>2013-08-31T09:11:31Z</time>
      </trkpt>
      <trkpt lat="45.83561" lon="4.77556">
        <ele>425.2999878</ele>
        <time>2013-08-31T09:11:33Z</time>
      </trkpt>
      <trkpt lat="45.83559" lon="4.77551">
        <ele>424.6000061</ele>
        <time>2013-08-31T09:11:34Z</time>
      </trkpt>
      <trkpt lat="45.83554" lon="4.77543">
        <ele>424.1000061</ele>
        <time>2013-08-31T09:11:36Z</time>
      </trkpt>
      <trkpt lat="45.83554" lon="4.77537">
        <ele>424.2999878</ele>
        <time>2013-08-31T09:11:37Z</time>
      </trkpt>
      <trkpt lat="45.8355" lon="4.77527">
        <ele>423.8999939</ele>
        <time>2013-08-31T09:11:39Z</time>
      </trkpt>
      <trkpt lat="45.83548" lon="4.77522">
        <ele>423.8999939</ele>
        <time>2013-08-31T09:11:40Z</time>
      </trkpt>
      <trkpt lat="45.83545" lon="4.77512">
        <ele>423.7999878</ele>
        <time>2013-08-31T09:11:42Z</time>
      </trkpt>
      <trkpt lat="45.83544" lon="4.77507">
        <ele>423.2999878</ele>
        <time>2013-08-31T09:11:43Z</time>
      </trkpt>
      <trkpt lat="45.8354" lon="4.77499">
        <ele>422.7000122</ele>
        <time>2013-08-31T09:11:45Z</time>
      </trkpt>
      <trkpt lat="45.83537" lon="4.77494">
        <ele>422.3999939</ele>
        <time>2013-08-31T09:11:46Z</time>
      </trkpt>
      <trkpt lat="45.83531" lon="4.77486">
        <ele>424</ele>
        <time>2013-08-31T09:11:48Z</time>
      </trkpt>
      <trkpt lat="45.83528" lon="4.77482">
        <ele>424.2999878</ele>
        <time>2013-08-31T09:11:49Z</time>
      </trkpt>
      <trkpt lat="45.83522" lon="4.77475">
        <ele>423.8999939</ele>
        <time>2013-08-31T09:11:52Z</time>
      </trkpt>
      <trkpt lat="45.83522" lon="4.77472">
        <ele>423.5</ele>
        <time>2013-08-31T09:11:53Z</time>
      </trkpt>
      <trkpt lat="45.83518" lon="4.77467">
        <ele>419.8999939</ele>
        <time>2013-08-31T09:12:07Z</time>
      </trkpt>
      <trkpt lat="45.83518" lon="4.77467">
        <ele>419.8999939</ele>
        <time>2013-08-31T09:12:08Z</time>
      </trkpt>
      <trkpt lat="45.83518" lon="4.77467">
        <ele>420</ele>
        <time>2013-08-31T09:12:09Z</time>
      </trkpt>
      <trkpt lat="45.83517" lon="4.77466">
        <ele>419.2999878</ele>
        <time>2013-08-31T09:12:10Z</time>
      </trkpt>
      <trkpt lat="45.83511" lon="4.77465">
        <ele>420</ele>
        <time>2013-08-31T09:12:19Z</time>
      </trkpt>
      <trkpt lat="45.83511" lon="4.77465">
        <ele>420</ele>
        <time>2013-08-31T09:12:20Z</time>
      </trkpt>
      <trkpt lat="45.83512" lon="4.77465">
        <ele>419.2999878</ele>
        <time>2013-08-31T09:12:21Z</time>
      </trkpt>
      <trkpt lat="45.83519" lon="4.77467">
        <ele>417.7000122</ele>
        <time>2013-08-31T09:12:25Z</time>
      </trkpt>
      <trkpt lat="45.83522" lon="4.77469">
        <ele>417.7000122</ele>
        <time>2013-08-31T09:12:26Z</time>
      </trkpt>
      <trkpt lat="45.8353" lon="4.77472">
        <ele>416.5</ele>
        <time>2013-08-31T09:12:30Z</time>
      </trkpt>
      <trkpt lat="45.83532" lon="4.77473">
        <ele>415.7000122</ele>
        <time>2013-08-31T09:12:31Z</time>
      </trkpt>
      <trkpt lat="45.83535" lon="4.77462">
        <ele>418.5</ele>
        <time>2013-08-31T09:12:43Z</time>
      </trkpt>
      <trkpt lat="45.83535" lon="4.77459">
        <ele>418.1000061</ele>
        <time>2013-08-31T09:12:44Z</time>
      </trkpt>
      <trkpt lat="45.83531" lon="4.77449">
        <ele>419</ele>
        <time>2013-08-31T09:12:48Z</time>
      </trkpt>
      <trkpt lat="45.8353" lon="4.77446">
        <ele>418.8999939</ele>
        <time>2013-08-31T09:12:49Z</time>
      </trkpt>
      <trkpt lat="45.83526" lon="4.77436">
        <ele>418.8999939</ele>
        <time>2013-08-31T09:12:54Z</time>
      </trkpt>
      <trkpt lat="45.83522" lon="4.77433">
        <ele>418.2999878</ele>
        <time>2013-08-31T09:12:55Z</time>
      </trkpt>
      <trkpt lat="45.83522" lon="4.77428">
        <ele>417.2000122</ele>
        <time>2013-08-31T09:13:00Z</time>
      </trkpt>
      <trkpt lat="45.83522" lon="4.77428">
        <ele>417.3999939</ele>
        <time>2013-08-31T09:13:01Z</time>
      </trkpt>
      <trkpt lat="45.83523" lon="4.77428">
        <ele>417</ele>
        <time>2013-08-31T09:13:02Z</time>
      </trkpt>
      <trkpt lat="45.83525" lon="4.77427">
        <ele>417</ele>
        <time>2013-08-31T09:13:09Z</time>
      </trkpt>
      <trkpt lat="45.83525" lon="4.77427">
        <ele>416.6000061</ele>
        <time>2013-08-31T09:13:10Z</time>
      </trkpt>
      <trkpt lat="45.83525" lon="4.77427">
        <ele>416.3999939</ele>
        <time>2013-08-31T09:13:13Z</time>
      </trkpt>
      <trkpt lat="45.83524" lon="4.77428">
        <ele>415.6000061</ele>
        <time>2013-08-31T09:13:14Z</time>
      </trkpt>
      <trkpt lat="45.83518" lon="4.77421">
        <ele>410.1000061</ele>
        <time>2013-08-31T09:13:22Z</time>
      </trkpt>
      <trkpt lat="45.83518" lon="4.77422">
        <ele>409.7000122</ele>
        <time>2013-08-31T09:13:23Z</time>
      </trkpt>
      <trkpt lat="45.83518" lon="4.77422">
        <ele>409</ele>
        <time>2013-08-31T09:13:24Z</time>
      </trkpt>
      <trkpt lat="45.83519" lon="4.77422">
        <ele>408</ele>
        <time>2013-08-31T09:13:28Z</time>
      </trkpt>
      <trkpt lat="45.83519" lon="4.77422">
        <ele>407.7999878</ele>
        <time>2013-08-31T09:13:29Z</time>
      </trkpt>
      <trkpt lat="45.83518" lon="4.77422">
        <ele>406.7000122</ele>
        <time>2013-08-31T09:13:30Z</time>
      </trkpt>
      <trkpt lat="45.83516" lon="4.77417">
        <ele>407.6000061</ele>
        <time>2013-08-31T09:13:35Z</time>
      </trkpt>
      <trkpt lat="45.83516" lon="4.77417">
        <ele>407.3999939</ele>
        <time>2013-08-31T09:13:36Z</time>
      </trkpt>
      <trkpt lat="45.83516" lon="4.77417">
        <ele>407.2999878</ele>
        <time>2013-08-31T09:13:38Z</time>
      </trkpt>
      <trkpt lat="45.83516" lon="4.77417">
        <ele>407</ele>
        <time>2013-08-31T09:13:39Z</time>
      </trkpt>
      <trkpt lat="45.83508" lon="4.77412">
        <ele>407.2000122</ele>
        <time>2013-08-31T09:13:49Z</time>
      </trkpt>
      <trkpt lat="45.83507" lon="4.77412">
        <ele>408</ele>
        <time>2013-08-31T09:13:50Z</time>
      </trkpt>
      <trkpt lat="45.83507" lon="4.77412">
        <ele>407.8999939</ele>
        <time>2013-08-31T09:13:51Z</time>
      </trkpt>
      <trkpt lat="45.83507" lon="4.77411">
        <ele>408.1000061</ele>
        <time>2013-08-31T09:13:52Z</time>
      </trkpt>
      <trkpt lat="45.83506" lon="4.77411">
        <ele>408.2000122</ele>
        <time>2013-08-31T09:13:53Z</time>
      </trkpt>
      <trkpt lat="45.83505" lon="4.77401">
        <ele>411.3999939</ele>
        <time>2013-08-31T09:13:58Z</time>
      </trkpt>
      <trkpt lat="45.83504" lon="4.77398">
        <ele>411.7000122</ele>
        <time>2013-08-31T09:13:59Z</time>
      </trkpt>
      <trkpt lat="45.83497" lon="4.77392">
        <ele>409.6000061</ele>
        <time>2013-08-31T09:14:02Z</time>
      </trkpt>
      <trkpt lat="45.83496" lon="4.7739">
        <ele>410.1000061</ele>
        <time>2013-08-31T09:14:03Z</time>
      </trkpt>
      <trkpt lat="45.83496" lon="4.77378">
        <ele>406.2999878</ele>
        <time>2013-08-31T09:14:14Z</time>
      </trkpt>
      <trkpt lat="45.83495" lon="4.77374">
        <ele>406.1000061</ele>
        <time>2013-08-31T09:14:15Z</time>
      </trkpt>
      <trkpt lat="45.83488" lon="4.77374">
        <ele>406.6000061</ele>
        <time>2013-08-31T09:14:17Z</time>
      </trkpt>
      <trkpt lat="45.83484" lon="4.77373">
        <ele>406.1000061</ele>
        <time>2013-08-31T09:14:18Z</time>
      </trkpt>
      <trkpt lat="45.83482" lon="4.77371">
        <ele>404.7000122</ele>
        <time>2013-08-31T09:14:23Z</time>
      </trkpt>
      <trkpt lat="45.83483" lon="4.77371">
        <ele>405</ele>
        <time>2013-08-31T09:14:24Z</time>
      </trkpt>
      <trkpt lat="45.83483" lon="4.77371">
        <ele>405</ele>
        <time>2013-08-31T09:14:25Z</time>
      </trkpt>
      <trkpt lat="45.83483" lon="4.77371">
        <ele>405.1000061</ele>
        <time>2013-08-31T09:14:26Z</time>
      </trkpt>
      <trkpt lat="45.83483" lon="4.77371">
        <ele>405</ele>
        <time>2013-08-31T09:14:27Z</time>
      </trkpt>
      <trkpt lat="45.83482" lon="4.77369">
        <ele>405.5</ele>
        <time>2013-08-31T09:14:32Z</time>
      </trkpt>
      <trkpt lat="45.83482" lon="4.77369">
        <ele>405.6000061</ele>
        <time>2013-08-31T09:14:33Z</time>
      </trkpt>
      <trkpt lat="45.83482" lon="4.77369">
        <ele>405.6000061</ele>
        <time>2013-08-31T09:14:34Z</time>
      </trkpt>
      <trkpt lat="45.83482" lon="4.77369">
        <ele>405.6000061</ele>
        <time>2013-08-31T09:14:35Z</time>
      </trkpt>
      <trkpt lat="45.83482" lon="4.77369">
        <ele>405.7000122</ele>
        <time>2013-08-31T09:14:36Z</time>
      </trkpt>
      <trkpt lat="45.83483" lon="4.77368">
        <ele>406</ele>
        <time>2013-08-31T09:14:37Z</time>
      </trkpt>
      <trkpt lat="45.83483" lon="4.77368">
        <ele>406.2000122</ele>
        <time>2013-08-31T09:14:38Z</time>
      </trkpt>
      <trkpt lat="45.83482" lon="4.77368">
        <ele>407</ele>
        <time>2013-08-31T09:14:39Z</time>
      </trkpt>
      <trkpt lat="45.8348" lon="4.7737">
        <ele>407.7999878</ele>
        <time>2013-08-31T09:14:43Z</time>
      </trkpt>
      <trkpt lat="45.8348" lon="4.7737">
        <ele>407.7999878</ele>
        <time>2013-08-31T09:14:44Z</time>
      </trkpt>
      <trkpt lat="45.83479" lon="4.7737">
        <ele>408.3999939</ele>
        <time>2013-08-31T09:14:45Z</time>
      </trkpt>
      <trkpt lat="45.83477" lon="4.7737">
        <ele>407.6000061</ele>
        <time>2013-08-31T09:14:46Z</time>
      </trkpt>
      <trkpt lat="45.83472" lon="4.7738">
        <ele>407.5</ele>
        <time>2013-08-31T09:14:53Z</time>
      </trkpt>
      <trkpt lat="45.83471" lon="4.7738">
        <ele>408</ele>
        <time>2013-08-31T09:14:54Z</time>
      </trkpt>
      <trkpt lat="45.8347" lon="4.77391">
        <ele>409.8999939</ele>
        <time>2013-08-31T09:15:02Z</time>
      </trkpt>
      <trkpt lat="45.8347" lon="4.77394">
        <ele>409.2000122</ele>
        <time>2013-08-31T09:15:03Z</time>
      </trkpt>
      <trkpt lat="45.83469" lon="4.77406">
        <ele>407.8999939</ele>
        <time>2013-08-31T09:15:09Z</time>
      </trkpt>
      <trkpt lat="45.8347" lon="4.77407">
        <ele>407.6000061</ele>
        <time>2013-08-31T09:15:10Z</time>
      </trkpt>
      <trkpt lat="45.83467" lon="4.77419">
        <ele>405.6000061</ele>
        <time>2013-08-31T09:15:15Z</time>
      </trkpt>
      <trkpt lat="45.83464" lon="4.77422">
        <ele>407</ele>
        <time>2013-08-31T09:15:16Z</time>
      </trkpt>
      <trkpt lat="45.83457" lon="4.77427">
        <ele>407.1000061</ele>
        <time>2013-08-31T09:15:19Z</time>
      </trkpt>
      <trkpt lat="45.83454" lon="4.77431">
        <ele>407.2999878</ele>
        <time>2013-08-31T09:15:20Z</time>
      </trkpt>
      <trkpt lat="45.83448" lon="4.77435">
        <ele>407.2000122</ele>
        <time>2013-08-31T09:15:21Z</time>
      </trkpt>
      <trkpt lat="45.83446" lon="4.77441">
        <ele>407.2000122</ele>
        <time>2013-08-31T09:15:21Z</time>
      </trkpt>
      <trkpt lat="45.83444" lon="4.77449">
        <ele>407.5</ele>
        <time>2013-08-31T09:15:23Z</time>
      </trkpt>
      <trkpt lat="45.83442" lon="4.77453">
        <ele>407.5</ele>
        <time>2013-08-31T09:15:24Z</time>
      </trkpt>
      <trkpt lat="45.83441" lon="4.77461">
        <ele>407.1000061</ele>
        <time>2013-08-31T09:15:24Z</time>
      </trkpt>
      <trkpt lat="45.83438" lon="4.77471">
        <ele>405.7999878</ele>
        <time>2013-08-31T09:15:26Z</time>
      </trkpt>
      <trkpt lat="45.83437" lon="4.77482">
        <ele>405.5</ele>
        <time>2013-08-31T09:15:28Z</time>
      </trkpt>
      <trkpt lat="45.83437" lon="4.77488">
        <ele>406.3999939</ele>
        <time>2013-08-31T09:15:29Z</time>
      </trkpt>
      <trkpt lat="45.83434" lon="4.77499">
        <ele>406.2000122</ele>
        <time>2013-08-31T09:15:31Z</time>
      </trkpt>
      <trkpt lat="45.83434" lon="4.77508">
        <ele>406.2999878</ele>
        <time>2013-08-31T09:15:32Z</time>
      </trkpt>
      <trkpt lat="45.8343" lon="4.77514">
        <ele>406.1000061</ele>
        <time>2013-08-31T09:15:33Z</time>
      </trkpt>
      <trkpt lat="45.83429" lon="4.77525">
        <ele>406.1000061</ele>
        <time>2013-08-31T09:15:34Z</time>
      </trkpt>
      <trkpt lat="45.83424" lon="4.77526">
        <ele>405.7999878</ele>
        <time>2013-08-31T09:15:35Z</time>
      </trkpt>
      <trkpt lat="45.8342" lon="4.7753">
        <ele>405.3999939</ele>
        <time>2013-08-31T09:15:36Z</time>
      </trkpt>
      <trkpt lat="45.83416" lon="4.77533">
        <ele>405.1000061</ele>
        <time>2013-08-31T09:15:37Z</time>
      </trkpt>
      <trkpt lat="45.83409" lon="4.7753">
        <ele>402.8999939</ele>
        <time>2013-08-31T09:15:38Z</time>
      </trkpt>
      <trkpt lat="45.834" lon="4.77527">
        <ele>401.6000061</ele>
        <time>2013-08-31T09:15:40Z</time>
      </trkpt>
      <trkpt lat="45.83396" lon="4.77525">
        <ele>401.2000122</ele>
        <time>2013-08-31T09:15:41Z</time>
      </trkpt>
      <trkpt lat="45.83394" lon="4.77519">
        <ele>400.5</ele>
        <time>2013-08-31T09:15:42Z</time>
      </trkpt>
      <trkpt lat="45.8339" lon="4.77513">
        <ele>398.5</ele>
        <time>2013-08-31T09:15:43Z</time>
      </trkpt>
      <trkpt lat="45.83386" lon="4.77508">
        <ele>397.5</ele>
        <time>2013-08-31T09:15:44Z</time>
      </trkpt>
      <trkpt lat="45.83382" lon="4.77502">
        <ele>396.6000061</ele>
        <time>2013-08-31T09:15:45Z</time>
      </trkpt>
      <trkpt lat="45.83377" lon="4.77497">
        <ele>396.7000122</ele>
        <time>2013-08-31T09:15:46Z</time>
      </trkpt>
      <trkpt lat="45.83373" lon="4.77491">
        <ele>396.3999939</ele>
        <time>2013-08-31T09:15:47Z</time>
      </trkpt>
      <trkpt lat="45.83368" lon="4.77484">
        <ele>395.7999878</ele>
        <time>2013-08-31T09:15:48Z</time>
      </trkpt>
      <trkpt lat="45.83363" lon="4.77475">
        <ele>395.1000061</ele>
        <time>2013-08-31T09:15:49Z</time>
      </trkpt>
      <trkpt lat="45.83358" lon="4.77466">
        <ele>394.3999939</ele>
        <time>2013-08-31T09:15:50Z</time>
      </trkpt>
      <trkpt lat="45.83354" lon="4.77457">
        <ele>394.2000122</ele>
        <time>2013-08-31T09:15:51Z</time>
      </trkpt>
      <trkpt lat="45.83348" lon="4.77445">
        <ele>393.7000122</ele>
        <time>2013-08-31T09:15:52Z</time>
      </trkpt>
      <trkpt lat="45.83342" lon="4.77435">
        <ele>391.6000061</ele>
        <time>2013-08-31T09:15:53Z</time>
      </trkpt>
      <trkpt lat="45.83336" lon="4.77428">
        <ele>390</ele>
        <time>2013-08-31T09:15:54Z</time>
      </trkpt>
      <trkpt lat="45.83329" lon="4.77419">
        <ele>389.6000061</ele>
        <time>2013-08-31T09:15:55Z</time>
      </trkpt>
      <trkpt lat="45.83325" lon="4.77412">
        <ele>389.5</ele>
        <time>2013-08-31T09:15:56Z</time>
      </trkpt>
      <trkpt lat="45.83322" lon="4.77404">
        <ele>387.2000122</ele>
        <time>2013-08-31T09:15:57Z</time>
      </trkpt>
      <trkpt lat="45.83317" lon="4.77395">
        <ele>386.7000122</ele>
        <time>2013-08-31T09:15:58Z</time>
      </trkpt>
      <trkpt lat="45.83316" lon="4.77393">
        <ele>384.2000122</ele>
        <time>2013-08-31T09:15:59Z</time>
      </trkpt>
      <trkpt lat="45.8331" lon="4.77385">
        <ele>381.7000122</ele>
        <time>2013-08-31T09:16:03Z</time>
      </trkpt>
      <trkpt lat="45.83309" lon="4.77385">
        <ele>381.6000061</ele>
        <time>2013-08-31T09:16:04Z</time>
      </trkpt>
      <trkpt lat="45.83301" lon="4.77387">
        <ele>379.2999878</ele>
        <time>2013-08-31T09:16:08Z</time>
      </trkpt>
      <trkpt lat="45.83298" lon="4.7739">
        <ele>378.7000122</ele>
        <time>2013-08-31T09:16:09Z</time>
      </trkpt>
      <trkpt lat="45.83295" lon="4.77393">
        <ele>378</ele>
        <time>2013-08-31T09:16:10Z</time>
      </trkpt>
      <trkpt lat="45.83289" lon="4.77401">
        <ele>378</ele>
        <time>2013-08-31T09:16:11Z</time>
      </trkpt>
      <trkpt lat="45.83282" lon="4.77409">
        <ele>377.6000061</ele>
        <time>2013-08-31T09:16:12Z</time>
      </trkpt>
      <trkpt lat="45.83276" lon="4.77416">
        <ele>377.2999878</ele>
        <time>2013-08-31T09:16:14Z</time>
      </trkpt>
      <trkpt lat="45.83274" lon="4.7742">
        <ele>377</ele>
        <time>2013-08-31T09:16:15Z</time>
      </trkpt>
      <trkpt lat="45.83272" lon="4.77429">
        <ele>378.6000061</ele>
        <time>2013-08-31T09:16:17Z</time>
      </trkpt>
      <trkpt lat="45.8327" lon="4.77433">
        <ele>379.5</ele>
        <time>2013-08-31T09:16:18Z</time>
      </trkpt>
      <trkpt lat="45.83265" lon="4.77442">
        <ele>379.7000122</ele>
        <time>2013-08-31T09:16:20Z</time>
      </trkpt>
      <trkpt lat="45.83263" lon="4.77445">
        <ele>379.7999878</ele>
        <time>2013-08-31T09:16:21Z</time>
      </trkpt>
      <trkpt lat="45.83259" lon="4.77454">
        <ele>379.7000122</ele>
        <time>2013-08-31T09:16:24Z</time>
      </trkpt>
      <trkpt lat="45.83257" lon="4.77459">
        <ele>383.7999878</ele>
        <time>2013-08-31T09:16:25Z</time>
      </trkpt>
      <trkpt lat="45.83254" lon="4.77469">
        <ele>390.3999939</ele>
        <time>2013-08-31T09:16:28Z</time>
      </trkpt>
      <trkpt lat="45.83252" lon="4.77472">
        <ele>390.8999939</ele>
        <time>2013-08-31T09:16:29Z</time>
      </trkpt>
      <trkpt lat="45.83247" lon="4.77479">
        <ele>391.6000061</ele>
        <time>2013-08-31T09:16:31Z</time>
      </trkpt>
      <trkpt lat="45.83245" lon="4.77484">
        <ele>392</ele>
        <time>2013-08-31T09:16:32Z</time>
      </trkpt>
      <trkpt lat="45.8324" lon="4.77492">
        <ele>393.2999878</ele>
        <time>2013-08-31T09:16:34Z</time>
      </trkpt>
      <trkpt lat="45.83239" lon="4.775">
        <ele>392.3999939</ele>
        <time>2013-08-31T09:16:35Z</time>
      </trkpt>
      <trkpt lat="45.83239" lon="4.77511">
        <ele>393</ele>
        <time>2013-08-31T09:16:37Z</time>
      </trkpt>
      <trkpt lat="45.8324" lon="4.77517">
        <ele>392.3999939</ele>
        <time>2013-08-31T09:16:38Z</time>
      </trkpt>
      <trkpt lat="45.8324" lon="4.77519">
        <ele>393.2000122</ele>
        <time>2013-08-31T09:16:39Z</time>
      </trkpt>
      <trkpt lat="45.8323" lon="4.77522">
        <ele>392.7999878</ele>
        <time>2013-08-31T09:16:40Z</time>
      </trkpt>
      <trkpt lat="45.83225" lon="4.77528">
        <ele>393.6000061</ele>
        <time>2013-08-31T09:16:42Z</time>
      </trkpt>
      <trkpt lat="45.83224" lon="4.77533">
        <ele>393</ele>
        <time>2013-08-31T09:16:43Z</time>
      </trkpt>
      <trkpt lat="45.83217" lon="4.77542">
        <ele>392.5</ele>
        <time>2013-08-31T09:16:45Z</time>
      </trkpt>
      <trkpt lat="45.83216" lon="4.77546">
        <ele>392.1000061</ele>
        <time>2013-08-31T09:16:46Z</time>
      </trkpt>
      <trkpt lat="45.83213" lon="4.77551">
        <ele>391.8999939</ele>
        <time>2013-08-31T09:16:47Z</time>
      </trkpt>
      <trkpt lat="45.83208" lon="4.77553">
        <ele>393.7000122</ele>
        <time>2013-08-31T09:16:48Z</time>
      </trkpt>
      <trkpt lat="45.83204" lon="4.77556">
        <ele>393.7999878</ele>
        <time>2013-08-31T09:16:49Z</time>
      </trkpt>
      <trkpt lat="45.832" lon="4.7756">
        <ele>392.7999878</ele>
        <time>2013-08-31T09:16:50Z</time>
      </trkpt>
      <trkpt lat="45.83194" lon="4.77564">
        <ele>392.5</ele>
        <time>2013-08-31T09:16:52Z</time>
      </trkpt>
      <trkpt lat="45.8319" lon="4.77565">
        <ele>393.2000122</ele>
        <time>2013-08-31T09:16:53Z</time>
      </trkpt>
      <trkpt lat="45.83184" lon="4.7757">
        <ele>393.3999939</ele>
        <time>2013-08-31T09:16:55Z</time>
      </trkpt>
      <trkpt lat="45.83181" lon="4.77572">
        <ele>392.8999939</ele>
        <time>2013-08-31T09:16:56Z</time>
      </trkpt>
      <trkpt lat="45.83173" lon="4.77575">
        <ele>392.6000061</ele>
        <time>2013-08-31T09:16:58Z</time>
      </trkpt>
      <trkpt lat="45.83169" lon="4.77578">
        <ele>392.2000122</ele>
        <time>2013-08-31T09:16:59Z</time>
      </trkpt>
      <trkpt lat="45.83162" lon="4.77582">
        <ele>391.6000061</ele>
        <time>2013-08-31T09:17:01Z</time>
      </trkpt>
      <trkpt lat="45.8316" lon="4.77584">
        <ele>391.3999939</ele>
        <time>2013-08-31T09:17:02Z</time>
      </trkpt>
      <trkpt lat="45.83153" lon="4.77591">
        <ele>391.7999878</ele>
        <time>2013-08-31T09:17:05Z</time>
      </trkpt>
      <trkpt lat="45.83151" lon="4.77596">
        <ele>392.5</ele>
        <time>2013-08-31T09:17:06Z</time>
      </trkpt>
      <trkpt lat="45.83149" lon="4.77604">
        <ele>392.6000061</ele>
        <time>2013-08-31T09:17:08Z</time>
      </trkpt>
      <trkpt lat="45.83147" lon="4.77609">
        <ele>392.6000061</ele>
        <time>2013-08-31T09:17:09Z</time>
      </trkpt>
      <trkpt lat="45.83145" lon="4.77618">
        <ele>392.1000061</ele>
        <time>2013-08-31T09:17:11Z</time>
      </trkpt>
      <trkpt lat="45.83146" lon="4.77626">
        <ele>392.2000122</ele>
        <time>2013-08-31T09:17:12Z</time>
      </trkpt>
      <trkpt lat="45.83145" lon="4.77637">
        <ele>392.7999878</ele>
        <time>2013-08-31T09:17:14Z</time>
      </trkpt>
      <trkpt lat="45.83145" lon="4.77642">
        <ele>392.5</ele>
        <time>2013-08-31T09:17:15Z</time>
      </trkpt>
      <trkpt lat="45.83144" lon="4.77652">
        <ele>393.5</ele>
        <time>2013-08-31T09:17:17Z</time>
      </trkpt>
      <trkpt lat="45.83143" lon="4.77657">
        <ele>393.7999878</ele>
        <time>2013-08-31T09:17:18Z</time>
      </trkpt>
      <trkpt lat="45.83141" lon="4.77666">
        <ele>395.2000122</ele>
        <time>2013-08-31T09:17:21Z</time>
      </trkpt>
      <trkpt lat="45.83138" lon="4.77671">
        <ele>394.8999939</ele>
        <time>2013-08-31T09:17:22Z</time>
      </trkpt>
      <trkpt lat="45.83134" lon="4.7768">
        <ele>395.2000122</ele>
        <time>2013-08-31T09:17:24Z</time>
      </trkpt>
      <trkpt lat="45.83132" lon="4.77684">
        <ele>395.3999939</ele>
        <time>2013-08-31T09:17:25Z</time>
      </trkpt>
      <trkpt lat="45.83124" lon="4.77686">
        <ele>398.3999939</ele>
        <time>2013-08-31T09:17:27Z</time>
      </trkpt>
      <trkpt lat="45.8312" lon="4.77689">
        <ele>398.8999939</ele>
        <time>2013-08-31T09:17:28Z</time>
      </trkpt>
      <trkpt lat="45.83114" lon="4.77692">
        <ele>400</ele>
        <time>2013-08-31T09:17:30Z</time>
      </trkpt>
      <trkpt lat="45.83112" lon="4.77695">
        <ele>400.7999878</ele>
        <time>2013-08-31T09:17:31Z</time>
      </trkpt>
      <trkpt lat="45.83104" lon="4.77701">
        <ele>399.7999878</ele>
        <time>2013-08-31T09:17:33Z</time>
      </trkpt>
      <trkpt lat="45.83101" lon="4.77704">
        <ele>399.1000061</ele>
        <time>2013-08-31T09:17:34Z</time>
      </trkpt>
      <trkpt lat="45.83094" lon="4.77704">
        <ele>400.5</ele>
        <time>2013-08-31T09:17:36Z</time>
      </trkpt>
      <trkpt lat="45.8309" lon="4.77704">
        <ele>400.2000122</ele>
        <time>2013-08-31T09:17:37Z</time>
      </trkpt>
      <trkpt lat="45.83082" lon="4.77707">
        <ele>399.6000061</ele>
        <time>2013-08-31T09:17:39Z</time>
      </trkpt>
      <trkpt lat="45.83078" lon="4.77707">
        <ele>400</ele>
        <time>2013-08-31T09:17:40Z</time>
      </trkpt>
      <trkpt lat="45.83074" lon="4.77706">
        <ele>400.2999878</ele>
        <time>2013-08-31T09:17:41Z</time>
      </trkpt>
      <trkpt lat="45.83069" lon="4.77706">
        <ele>399.8999939</ele>
        <time>2013-08-31T09:17:42Z</time>
      </trkpt>
      <trkpt lat="45.83062" lon="4.77706">
        <ele>400.2000122</ele>
        <time>2013-08-31T09:17:43Z</time>
      </trkpt>
      <trkpt lat="45.83055" lon="4.77708">
        <ele>400.3999939</ele>
        <time>2013-08-31T09:17:44Z</time>
      </trkpt>
      <trkpt lat="45.83048" lon="4.77709">
        <ele>400.2000122</ele>
        <time>2013-08-31T09:17:45Z</time>
      </trkpt>
      <trkpt lat="45.8304" lon="4.77711">
        <ele>400.2999878</ele>
        <time>2013-08-31T09:17:46Z</time>
      </trkpt>
      <trkpt lat="45.83032" lon="4.77711">
        <ele>400.2999878</ele>
        <time>2013-08-31T09:17:47Z</time>
      </trkpt>
      <trkpt lat="45.83023" lon="4.77712">
        <ele>399.5</ele>
        <time>2013-08-31T09:17:48Z</time>
      </trkpt>
      <trkpt lat="45.83015" lon="4.77713">
        <ele>398.6000061</ele>
        <time>2013-08-31T09:17:49Z</time>
      </trkpt>
      <trkpt lat="45.83006" lon="4.7772">
        <ele>396.6000061</ele>
        <time>2013-08-31T09:17:50Z</time>
      </trkpt>
      <trkpt lat="45.82999" lon="4.77724">
        <ele>395.2999878</ele>
        <time>2013-08-31T09:17:51Z</time>
      </trkpt>
      <trkpt lat="45.82989" lon="4.77729">
        <ele>394.2000122</ele>
        <time>2013-08-31T09:17:52Z</time>
      </trkpt>
      <trkpt lat="45.82982" lon="4.7773">
        <ele>393.2999878</ele>
        <time>2013-08-31T09:17:53Z</time>
      </trkpt>
      <trkpt lat="45.82974" lon="4.77733">
        <ele>393.6000061</ele>
        <time>2013-08-31T09:17:54Z</time>
      </trkpt>
      <trkpt lat="45.82967" lon="4.77734">
        <ele>393</ele>
        <time>2013-08-31T09:17:55Z</time>
      </trkpt>
      <trkpt lat="45.82961" lon="4.77737">
        <ele>391.6000061</ele>
        <time>2013-08-31T09:17:56Z</time>
      </trkpt>
      <trkpt lat="45.82953" lon="4.77735">
        <ele>391.3999939</ele>
        <time>2013-08-31T09:17:57Z</time>
      </trkpt>
      <trkpt lat="45.82946" lon="4.77733">
        <ele>391</ele>
        <time>2013-08-31T09:17:58Z</time>
      </trkpt>
      <trkpt lat="45.82938" lon="4.7773">
        <ele>390.7999878</ele>
        <time>2013-08-31T09:17:59Z</time>
      </trkpt>
      <trkpt lat="45.82931" lon="4.77728">
        <ele>388.5</ele>
        <time>2013-08-31T09:18:00Z</time>
      </trkpt>
      <trkpt lat="45.82923" lon="4.77725">
        <ele>386.7999878</ele>
        <time>2013-08-31T09:18:01Z</time>
      </trkpt>
      <trkpt lat="45.82917" lon="4.77721">
        <ele>385.6000061</ele>
        <time>2013-08-31T09:18:02Z</time>
      </trkpt>
      <trkpt lat="45.82911" lon="4.77719">
        <ele>384.5</ele>
        <time>2013-08-31T09:18:03Z</time>
      </trkpt>
      <trkpt lat="45.82906" lon="4.77715">
        <ele>383.7000122</ele>
        <time>2013-08-31T09:18:04Z</time>
      </trkpt>
      <trkpt lat="45.82901" lon="4.77712">
        <ele>383.5</ele>
        <time>2013-08-31T09:18:05Z</time>
      </trkpt>
      <trkpt lat="45.82896" lon="4.77709">
        <ele>382.8999939</ele>
        <time>2013-08-31T09:18:06Z</time>
      </trkpt>
      <trkpt lat="45.82891" lon="4.77707">
        <ele>382.2000122</ele>
        <time>2013-08-31T09:18:07Z</time>
      </trkpt>
      <trkpt lat="45.82886" lon="4.77705">
        <ele>381</ele>
        <time>2013-08-31T09:18:08Z</time>
      </trkpt>
      <trkpt lat="45.82881" lon="4.77702">
        <ele>380.3999939</ele>
        <time>2013-08-31T09:18:09Z</time>
      </trkpt>
      <trkpt lat="45.82877" lon="4.77699">
        <ele>380</ele>
        <time>2013-08-31T09:18:10Z</time>
      </trkpt>
      <trkpt lat="45.82869" lon="4.77693">
        <ele>378.8999939</ele>
        <time>2013-08-31T09:18:12Z</time>
      </trkpt>
      <trkpt lat="45.82868" lon="4.77688">
        <ele>378.1000061</ele>
        <time>2013-08-31T09:18:13Z</time>
      </trkpt>
      <trkpt lat="45.82864" lon="4.77678">
        <ele>377</ele>
        <time>2013-08-31T09:18:15Z</time>
      </trkpt>
      <trkpt lat="45.82862" lon="4.77673">
        <ele>375.8999939</ele>
        <time>2013-08-31T09:18:16Z</time>
      </trkpt>
      <trkpt lat="45.82856" lon="4.77667">
        <ele>373.7999878</ele>
        <time>2013-08-31T09:18:18Z</time>
      </trkpt>
      <trkpt lat="45.82854" lon="4.77665">
        <ele>373.2000122</ele>
        <time>2013-08-31T09:18:19Z</time>
      </trkpt>
      <trkpt lat="45.82845" lon="4.77666">
        <ele>373.1000061</ele>
        <time>2013-08-31T09:18:23Z</time>
      </trkpt>
      <trkpt lat="45.82842" lon="4.7767">
        <ele>372.7999878</ele>
        <time>2013-08-31T09:18:24Z</time>
      </trkpt>
      <trkpt lat="45.82838" lon="4.77678">
        <ele>372.2000122</ele>
        <time>2013-08-31T09:18:26Z</time>
      </trkpt>
      <trkpt lat="45.82837" lon="4.77687">
        <ele>370.7000122</ele>
        <time>2013-08-31T09:18:27Z</time>
      </trkpt>
      <trkpt lat="45.82836" lon="4.77693">
        <ele>370.2000122</ele>
        <time>2013-08-31T09:18:28Z</time>
      </trkpt>
      <trkpt lat="45.82834" lon="4.77699">
        <ele>370.1000061</ele>
        <time>2013-08-31T09:18:29Z</time>
      </trkpt>
      <trkpt lat="45.82835" lon="4.77708">
        <ele>370.2000122</ele>
        <time>2013-08-31T09:18:31Z</time>
      </trkpt>
      <trkpt lat="45.82835" lon="4.77712">
        <ele>369.2999878</ele>
        <time>2013-08-31T09:18:32Z</time>
      </trkpt>
      <trkpt lat="45.82838" lon="4.77724">
        <ele>370.2999878</ele>
        <time>2013-08-31T09:18:35Z</time>
      </trkpt>
      <trkpt lat="45.82839" lon="4.77727">
        <ele>369.3999939</ele>
        <time>2013-08-31T09:18:36Z</time>
      </trkpt>
      <trkpt lat="45.82843" lon="4.77734">
        <ele>369.5</ele>
        <time>2013-08-31T09:18:38Z</time>
      </trkpt>
      <trkpt lat="45.82845" lon="4.77738">
        <ele>368.5</ele>
        <time>2013-08-31T09:18:39Z</time>
      </trkpt>
      <trkpt lat="45.82849" lon="4.77746">
        <ele>368.7999878</ele>
        <time>2013-08-31T09:18:41Z</time>
      </trkpt>
      <trkpt lat="45.82851" lon="4.7775">
        <ele>369</ele>
        <time>2013-08-31T09:18:42Z</time>
      </trkpt>
      <trkpt lat="45.82857" lon="4.77756">
        <ele>368.2000122</ele>
        <time>2013-08-31T09:18:43Z</time>
      </trkpt>
      <trkpt lat="45.82862" lon="4.7776">
        <ele>368.2999878</ele>
        <time>2013-08-31T09:18:44Z</time>
      </trkpt>
      <trkpt lat="45.82867" lon="4.77764">
        <ele>368.2999878</ele>
        <time>2013-08-31T09:18:45Z</time>
      </trkpt>
      <trkpt lat="45.82872" lon="4.77768">
        <ele>368.2000122</ele>
        <time>2013-08-31T09:18:46Z</time>
      </trkpt>
      <trkpt lat="45.82876" lon="4.7777">
        <ele>366.2000122</ele>
        <time>2013-08-31T09:18:47Z</time>
      </trkpt>
      <trkpt lat="45.82881" lon="4.77774">
        <ele>365.7000122</ele>
        <time>2013-08-31T09:18:48Z</time>
      </trkpt>
      <trkpt lat="45.82888" lon="4.77779">
        <ele>364.8999939</ele>
        <time>2013-08-31T09:18:50Z</time>
      </trkpt>
      <trkpt lat="45.82891" lon="4.77781">
        <ele>364.5</ele>
        <time>2013-08-31T09:18:51Z</time>
      </trkpt>
      <trkpt lat="45.82896" lon="4.77786">
        <ele>363.2000122</ele>
        <time>2013-08-31T09:18:53Z</time>
      </trkpt>
      <trkpt lat="45.82898" lon="4.77788">
        <ele>363.3999939</ele>
        <time>2013-08-31T09:18:54Z</time>
      </trkpt>
      <trkpt lat="45.82897" lon="4.77799">
        <ele>359.7000122</ele>
        <time>2013-08-31T09:18:58Z</time>
      </trkpt>
      <trkpt lat="45.82898" lon="4.77802">
        <ele>358.8999939</ele>
        <time>2013-08-31T09:18:59Z</time>
      </trkpt>
      <trkpt lat="45.82892" lon="4.77801">
        <ele>357.6000061</ele>
        <time>2013-08-31T09:19:02Z</time>
      </trkpt>
      <trkpt lat="45.82888" lon="4.77805">
        <ele>357.7999878</ele>
        <time>2013-08-31T09:19:03Z</time>
      </trkpt>
      <trkpt lat="45.82885" lon="4.77816">
        <ele>356.7000122</ele>
        <time>2013-08-31T09:19:05Z</time>
      </trkpt>
      <trkpt lat="45.82882" lon="4.77819">
        <ele>356.2000122</ele>
        <time>2013-08-31T09:19:06Z</time>
      </trkpt>
      <trkpt lat="45.82876" lon="4.77828">
        <ele>354.8999939</ele>
        <time>2013-08-31T09:19:09Z</time>
      </trkpt>
      <trkpt lat="45.82874" lon="4.77832">
        <ele>354.6000061</ele>
        <time>2013-08-31T09:19:10Z</time>
      </trkpt>
      <trkpt lat="45.82868" lon="4.77841">
        <ele>355.3999939</ele>
        <time>2013-08-31T09:19:14Z</time>
      </trkpt>
      <trkpt lat="45.82867" lon="4.77841">
        <ele>356</ele>
        <time>2013-08-31T09:19:15Z</time>
      </trkpt>
      <trkpt lat="45.8286" lon="4.77849">
        <ele>355.8999939</ele>
        <time>2013-08-31T09:19:17Z</time>
      </trkpt>
      <trkpt lat="45.82856" lon="4.77852">
        <ele>356.2000122</ele>
        <time>2013-08-31T09:19:18Z</time>
      </trkpt>
      <trkpt lat="45.8285" lon="4.77859">
        <ele>356.3999939</ele>
        <time>2013-08-31T09:19:21Z</time>
      </trkpt>
      <trkpt lat="45.82848" lon="4.77862">
        <ele>356.2000122</ele>
        <time>2013-08-31T09:19:22Z</time>
      </trkpt>
      <trkpt lat="45.82842" lon="4.77869">
        <ele>356.3999939</ele>
        <time>2013-08-31T09:19:25Z</time>
      </trkpt>
      <trkpt lat="45.8284" lon="4.7787">
        <ele>355.8999939</ele>
        <time>2013-08-31T09:19:26Z</time>
      </trkpt>
      <trkpt lat="45.82836" lon="4.7787">
        <ele>356.2000122</ele>
        <time>2013-08-31T09:19:27Z</time>
      </trkpt>
      <trkpt lat="45.8283" lon="4.77864">
        <ele>359.5</ele>
        <time>2013-08-31T09:19:28Z</time>
      </trkpt>
      <trkpt lat="45.82822" lon="4.77865">
        <ele>360.8999939</ele>
        <time>2013-08-31T09:19:31Z</time>
      </trkpt>
      <trkpt lat="45.82819" lon="4.77865">
        <ele>361.2000122</ele>
        <time>2013-08-31T09:19:32Z</time>
      </trkpt>
      <trkpt lat="45.82811" lon="4.77864">
        <ele>362.2999878</ele>
        <time>2013-08-31T09:19:36Z</time>
      </trkpt>
      <trkpt lat="45.82808" lon="4.77864">
        <ele>362</ele>
        <time>2013-08-31T09:19:37Z</time>
      </trkpt>
      <trkpt lat="45.82801" lon="4.77864">
        <ele>364.8999939</ele>
        <time>2013-08-31T09:19:41Z</time>
      </trkpt>
      <trkpt lat="45.82799" lon="4.77865">
        <ele>365</ele>
        <time>2013-08-31T09:19:42Z</time>
      </trkpt>
      <trkpt lat="45.8279" lon="4.77869">
        <ele>366.1000061</ele>
        <time>2013-08-31T09:19:46Z</time>
      </trkpt>
      <trkpt lat="45.82788" lon="4.77869">
        <ele>366</ele>
        <time>2013-08-31T09:19:47Z</time>
      </trkpt>
      <trkpt lat="45.8278" lon="4.77871">
        <ele>367.1000061</ele>
        <time>2013-08-31T09:19:51Z</time>
      </trkpt>
      <trkpt lat="45.82778" lon="4.77871">
        <ele>367.3999939</ele>
        <time>2013-08-31T09:19:52Z</time>
      </trkpt>
      <trkpt lat="45.8277" lon="4.77874">
        <ele>367.8999939</ele>
        <time>2013-08-31T09:19:56Z</time>
      </trkpt>
      <trkpt lat="45.82768" lon="4.77875">
        <ele>367.8999939</ele>
        <time>2013-08-31T09:19:57Z</time>
      </trkpt>
      <trkpt lat="45.82761" lon="4.7788">
        <ele>368.1000061</ele>
        <time>2013-08-31T09:20:01Z</time>
      </trkpt>
      <trkpt lat="45.82759" lon="4.77881">
        <ele>368.5</ele>
        <time>2013-08-31T09:20:02Z</time>
      </trkpt>
      <trkpt lat="45.82751" lon="4.77879">
        <ele>368.8999939</ele>
        <time>2013-08-31T09:20:06Z</time>
      </trkpt>
      <trkpt lat="45.82749" lon="4.7788">
        <ele>368.8999939</ele>
        <time>2013-08-31T09:20:07Z</time>
      </trkpt>
      <trkpt lat="45.82742" lon="4.77881">
        <ele>370.3999939</ele>
        <time>2013-08-31T09:20:12Z</time>
      </trkpt>
      <trkpt lat="45.8274" lon="4.77883">
        <ele>370.1000061</ele>
        <time>2013-08-31T09:20:13Z</time>
      </trkpt>
      <trkpt lat="45.82731" lon="4.77882">
        <ele>370.7000122</ele>
        <time>2013-08-31T09:20:17Z</time>
      </trkpt>
      <trkpt lat="45.8273" lon="4.77884">
        <ele>370.6000061</ele>
        <time>2013-08-31T09:20:18Z</time>
      </trkpt>
      <trkpt lat="45.82723" lon="4.77886">
        <ele>371.3999939</ele>
        <time>2013-08-31T09:20:21Z</time>
      </trkpt>
      <trkpt lat="45.82721" lon="4.77888">
        <ele>371.3999939</ele>
        <time>2013-08-31T09:20:22Z</time>
      </trkpt>
      <trkpt lat="45.82712" lon="4.77889">
        <ele>370.6000061</ele>
        <time>2013-08-31T09:20:25Z</time>
      </trkpt>
      <trkpt lat="45.82709" lon="4.77888">
        <ele>370.8999939</ele>
        <time>2013-08-31T09:20:26Z</time>
      </trkpt>
      <trkpt lat="45.82701" lon="4.77889">
        <ele>371.2999878</ele>
        <time>2013-08-31T09:20:29Z</time>
      </trkpt>
      <trkpt lat="45.82698" lon="4.77889">
        <ele>371.3999939</ele>
        <time>2013-08-31T09:20:30Z</time>
      </trkpt>
      <trkpt lat="45.82689" lon="4.77886">
        <ele>372.2000122</ele>
        <time>2013-08-31T09:20:33Z</time>
      </trkpt>
      <trkpt lat="45.82685" lon="4.77885">
        <ele>372.2000122</ele>
        <time>2013-08-31T09:20:34Z</time>
      </trkpt>
      <trkpt lat="45.82677" lon="4.77885">
        <ele>374</ele>
        <time>2013-08-31T09:20:37Z</time>
      </trkpt>
      <trkpt lat="45.82672" lon="4.77887">
        <ele>373.6000061</ele>
        <time>2013-08-31T09:20:38Z</time>
      </trkpt>
      <trkpt lat="45.82671" lon="4.77899">
        <ele>372</ele>
        <time>2013-08-31T09:20:40Z</time>
      </trkpt>
      <trkpt lat="45.82672" lon="4.77903">
        <ele>372</ele>
        <time>2013-08-31T09:20:41Z</time>
      </trkpt>
      <trkpt lat="45.82672" lon="4.77913">
        <ele>372.3999939</ele>
        <time>2013-08-31T09:20:44Z</time>
      </trkpt>
      <trkpt lat="45.82673" lon="4.77917">
        <ele>372.2000122</ele>
        <time>2013-08-31T09:20:45Z</time>
      </trkpt>
      <trkpt lat="45.82673" lon="4.77927">
        <ele>372.2000122</ele>
        <time>2013-08-31T09:20:48Z</time>
      </trkpt>
      <trkpt lat="45.82673" lon="4.77932">
        <ele>371.8999939</ele>
        <time>2013-08-31T09:20:49Z</time>
      </trkpt>
      <trkpt lat="45.82672" lon="4.77945">
        <ele>371.7000122</ele>
        <time>2013-08-31T09:20:52Z</time>
      </trkpt>
      <trkpt lat="45.82672" lon="4.77949">
        <ele>371.3999939</ele>
        <time>2013-08-31T09:20:53Z</time>
      </trkpt>
      <trkpt lat="45.8267" lon="4.7796">
        <ele>375.3999939</ele>
        <time>2013-08-31T09:20:57Z</time>
      </trkpt>
      <trkpt lat="45.82669" lon="4.77963">
        <ele>375.3999939</ele>
        <time>2013-08-31T09:20:58Z</time>
      </trkpt>
      <trkpt lat="45.8267" lon="4.77973">
        <ele>376</ele>
        <time>2013-08-31T09:21:00Z</time>
      </trkpt>
      <trkpt lat="45.8267" lon="4.77977">
        <ele>376.2000122</ele>
        <time>2013-08-31T09:21:01Z</time>
      </trkpt>
      <trkpt lat="45.82669" lon="4.77985">
        <ele>376.7999878</ele>
        <time>2013-08-31T09:21:03Z</time>
      </trkpt>
      <trkpt lat="45.82669" lon="4.7799">
        <ele>377.2000122</ele>
        <time>2013-08-31T09:21:04Z</time>
      </trkpt>
      <trkpt lat="45.82669" lon="4.78">
        <ele>377.7999878</ele>
        <time>2013-08-31T09:21:06Z</time>
      </trkpt>
      <trkpt lat="45.82668" lon="4.78006">
        <ele>378.3999939</ele>
        <time>2013-08-31T09:21:07Z</time>
      </trkpt>
      <trkpt lat="45.82666" lon="4.78016">
        <ele>378.7999878</ele>
        <time>2013-08-31T09:21:09Z</time>
      </trkpt>
      <trkpt lat="45.82667" lon="4.78021">
        <ele>378</ele>
        <time>2013-08-31T09:21:10Z</time>
      </trkpt>
      <trkpt lat="45.82667" lon="4.78033">
        <ele>378.2999878</ele>
        <time>2013-08-31T09:21:12Z</time>
      </trkpt>
      <trkpt lat="45.82668" lon="4.78035">
        <ele>377.8999939</ele>
        <time>2013-08-31T09:21:13Z</time>
      </trkpt>
      <trkpt lat="45.82665" lon="4.78047">
        <ele>377.2000122</ele>
        <time>2013-08-31T09:21:15Z</time>
      </trkpt>
      <trkpt lat="45.82664" lon="4.78052">
        <ele>377.7999878</ele>
        <time>2013-08-31T09:21:16Z</time>
      </trkpt>
      <trkpt lat="45.8266" lon="4.78052">
        <ele>378.5</ele>
        <time>2013-08-31T09:21:17Z</time>
      </trkpt>
      <trkpt lat="45.82653" lon="4.78052">
        <ele>378</ele>
        <time>2013-08-31T09:21:18Z</time>
      </trkpt>
      <trkpt lat="45.82646" lon="4.78051">
        <ele>377.8999939</ele>
        <time>2013-08-31T09:21:19Z</time>
      </trkpt>
      <trkpt lat="45.82634" lon="4.78051">
        <ele>378.8999939</ele>
        <time>2013-08-31T09:21:20Z</time>
      </trkpt>
      <trkpt lat="45.82627" lon="4.78051">
        <ele>378.3999939</ele>
        <time>2013-08-31T09:21:21Z</time>
      </trkpt>
      <trkpt lat="45.8262" lon="4.78053">
        <ele>379.1000061</ele>
        <time>2013-08-31T09:21:22Z</time>
      </trkpt>
      <trkpt lat="45.82614" lon="4.78051">
        <ele>376.7000122</ele>
        <time>2013-08-31T09:21:23Z</time>
      </trkpt>
      <trkpt lat="45.82607" lon="4.78049">
        <ele>374.2999878</ele>
        <time>2013-08-31T09:21:24Z</time>
      </trkpt>
      <trkpt lat="45.826" lon="4.7805">
        <ele>372.3999939</ele>
        <time>2013-08-31T09:21:27Z</time>
      </trkpt>
      <trkpt lat="45.82598" lon="4.78051">
        <ele>371.8999939</ele>
        <time>2013-08-31T09:21:28Z</time>
      </trkpt>
      <trkpt lat="45.82595" lon="4.78061">
        <ele>370.7000122</ele>
        <time>2013-08-31T09:21:32Z</time>
      </trkpt>
      <trkpt lat="45.82595" lon="4.78071">
        <ele>366.7000122</ele>
        <time>2013-08-31T09:21:33Z</time>
      </trkpt>
      <trkpt lat="45.82593" lon="4.78081">
        <ele>365</ele>
        <time>2013-08-31T09:21:35Z</time>
      </trkpt>
      <trkpt lat="45.82592" lon="4.78085">
        <ele>364.3999939</ele>
        <time>2013-08-31T09:21:36Z</time>
      </trkpt>
      <trkpt lat="45.8259" lon="4.78094">
        <ele>364</ele>
        <time>2013-08-31T09:21:38Z</time>
      </trkpt>
      <trkpt lat="45.8259" lon="4.78099">
        <ele>363.7000122</ele>
        <time>2013-08-31T09:21:39Z</time>
      </trkpt>
      <trkpt lat="45.82595" lon="4.78105">
        <ele>361.2000122</ele>
        <time>2013-08-31T09:21:41Z</time>
      </trkpt>
      <trkpt lat="45.82597" lon="4.78109">
        <ele>360.7999878</ele>
        <time>2013-08-31T09:21:42Z</time>
      </trkpt>
      <trkpt lat="45.826" lon="4.78117">
        <ele>359.2999878</ele>
        <time>2013-08-31T09:21:44Z</time>
      </trkpt>
      <trkpt lat="45.82607" lon="4.78124">
        <ele>359.2999878</ele>
        <time>2013-08-31T09:21:45Z</time>
      </trkpt>
      <trkpt lat="45.82611" lon="4.78136">
        <ele>359.8999939</ele>
        <time>2013-08-31T09:21:46Z</time>
      </trkpt>
      <trkpt lat="45.82618" lon="4.78146">
        <ele>359.8999939</ele>
        <time>2013-08-31T09:21:47Z</time>
      </trkpt>
      <trkpt lat="45.82622" lon="4.78155">
        <ele>359.7999878</ele>
        <time>2013-08-31T09:21:48Z</time>
      </trkpt>
      <trkpt lat="45.82625" lon="4.78162">
        <ele>361.1000061</ele>
        <time>2013-08-31T09:21:49Z</time>
      </trkpt>
      <trkpt lat="45.8263" lon="4.78168">
        <ele>361.2999878</ele>
        <time>2013-08-31T09:21:50Z</time>
      </trkpt>
      <trkpt lat="45.82635" lon="4.78173">
        <ele>362.7000122</ele>
        <time>2013-08-31T09:21:51Z</time>
      </trkpt>
      <trkpt lat="45.8264" lon="4.7818">
        <ele>362.7000122</ele>
        <time>2013-08-31T09:21:52Z</time>
      </trkpt>
      <trkpt lat="45.82643" lon="4.78185">
        <ele>364</ele>
        <time>2013-08-31T09:21:53Z</time>
      </trkpt>
      <trkpt lat="45.82647" lon="4.7819">
        <ele>364.6000061</ele>
        <time>2013-08-31T09:21:54Z</time>
      </trkpt>
      <trkpt lat="45.8265" lon="4.78194">
        <ele>364.3999939</ele>
        <time>2013-08-31T09:21:55Z</time>
      </trkpt>
      <trkpt lat="45.82656" lon="4.78203">
        <ele>364.7000122</ele>
        <time>2013-08-31T09:21:57Z</time>
      </trkpt>
      <trkpt lat="45.82659" lon="4.78207">
        <ele>364.5</ele>
        <time>2013-08-31T09:21:58Z</time>
      </trkpt>
      <trkpt lat="45.82664" lon="4.78217">
        <ele>364.6000061</ele>
        <time>2013-08-31T09:22:00Z</time>
      </trkpt>
      <trkpt lat="45.82667" lon="4.78219">
        <ele>364.2999878</ele>
        <time>2013-08-31T09:22:01Z</time>
      </trkpt>
      <trkpt lat="45.82671" lon="4.78228">
        <ele>364.2000122</ele>
        <time>2013-08-31T09:22:03Z</time>
      </trkpt>
      <trkpt lat="45.82674" lon="4.78232">
        <ele>363.7999878</ele>
        <time>2013-08-31T09:22:04Z</time>
      </trkpt>
      <trkpt lat="45.82679" lon="4.78239">
        <ele>363.8999939</ele>
        <time>2013-08-31T09:22:06Z</time>
      </trkpt>
      <trkpt lat="45.82681" lon="4.78242">
        <ele>364</ele>
        <time>2013-08-31T09:22:07Z</time>
      </trkpt>
      <trkpt lat="45.82686" lon="4.78248">
        <ele>364.2999878</ele>
        <time>2013-08-31T09:22:09Z</time>
      </trkpt>
      <trkpt lat="45.82689" lon="4.78251">
        <ele>363.7000122</ele>
        <time>2013-08-31T09:22:10Z</time>
      </trkpt>
      <trkpt lat="45.82696" lon="4.78255">
        <ele>363.7000122</ele>
        <time>2013-08-31T09:22:12Z</time>
      </trkpt>
      <trkpt lat="45.82698" lon="4.78257">
        <ele>363.6000061</ele>
        <time>2013-08-31T09:22:13Z</time>
      </trkpt>
      <trkpt lat="45.82691" lon="4.78263">
        <ele>370.5</ele>
        <time>2013-08-31T09:22:29Z</time>
      </trkpt>
      <trkpt lat="45.82689" lon="4.78266">
        <ele>371.2000122</ele>
        <time>2013-08-31T09:22:30Z</time>
      </trkpt>
      <trkpt lat="45.82682" lon="4.78268">
        <ele>372.2999878</ele>
        <time>2013-08-31T09:22:34Z</time>
      </trkpt>
      <trkpt lat="45.8268" lon="4.78268">
        <ele>373</ele>
        <time>2013-08-31T09:22:35Z</time>
      </trkpt>
      <trkpt lat="45.82674" lon="4.78267">
        <ele>373.1000061</ele>
        <time>2013-08-31T09:22:38Z</time>
      </trkpt>
      <trkpt lat="45.8267" lon="4.78267">
        <ele>373.7999878</ele>
        <time>2013-08-31T09:22:39Z</time>
      </trkpt>
      <trkpt lat="45.82662" lon="4.78265">
        <ele>374.6000061</ele>
        <time>2013-08-31T09:22:42Z</time>
      </trkpt>
      <trkpt lat="45.82659" lon="4.78268">
        <ele>374.7000122</ele>
        <time>2013-08-31T09:22:43Z</time>
      </trkpt>
      <trkpt lat="45.82651" lon="4.78268">
        <ele>375</ele>
        <time>2013-08-31T09:22:47Z</time>
      </trkpt>
      <trkpt lat="45.82647" lon="4.78267">
        <ele>375.2000122</ele>
        <time>2013-08-31T09:22:48Z</time>
      </trkpt>
      <trkpt lat="45.82639" lon="4.78269">
        <ele>374.1000061</ele>
        <time>2013-08-31T09:22:50Z</time>
      </trkpt>
      <trkpt lat="45.82638" lon="4.78271">
        <ele>376.7000122</ele>
        <time>2013-08-31T09:22:51Z</time>
      </trkpt>
      <trkpt lat="45.82633" lon="4.78276">
        <ele>378</ele>
        <time>2013-08-31T09:22:53Z</time>
      </trkpt>
      <trkpt lat="45.82629" lon="4.78275">
        <ele>378.7999878</ele>
        <time>2013-08-31T09:22:54Z</time>
      </trkpt>
      <trkpt lat="45.82624" lon="4.78281">
        <ele>377.6000061</ele>
        <time>2013-08-31T09:22:57Z</time>
      </trkpt>
      <trkpt lat="45.82622" lon="4.78283">
        <ele>376.8999939</ele>
        <time>2013-08-31T09:22:58Z</time>
      </trkpt>
      <trkpt lat="45.82621" lon="4.78295">
        <ele>373.7000122</ele>
        <time>2013-08-31T09:23:01Z</time>
      </trkpt>
      <trkpt lat="45.82621" lon="4.78299">
        <ele>372.2999878</ele>
        <time>2013-08-31T09:23:02Z</time>
      </trkpt>
      <trkpt lat="45.8262" lon="4.7831">
        <ele>371.8999939</ele>
        <time>2013-08-31T09:23:05Z</time>
      </trkpt>
      <trkpt lat="45.8262" lon="4.78314">
        <ele>372.2999878</ele>
        <time>2013-08-31T09:23:06Z</time>
      </trkpt>
      <trkpt lat="45.82618" lon="4.78326">
        <ele>377.5</ele>
        <time>2013-08-31T09:23:12Z</time>
      </trkpt>
      <trkpt lat="45.82617" lon="4.78328">
        <ele>377.6000061</ele>
        <time>2013-08-31T09:23:13Z</time>
      </trkpt>
      <trkpt lat="45.82618" lon="4.7834">
        <ele>379.7000122</ele>
        <time>2013-08-31T09:23:18Z</time>
      </trkpt>
      <trkpt lat="45.82618" lon="4.78341">
        <ele>380</ele>
        <time>2013-08-31T09:23:19Z</time>
      </trkpt>
      <trkpt lat="45.82616" lon="4.78352">
        <ele>380.7999878</ele>
        <time>2013-08-31T09:23:28Z</time>
      </trkpt>
      <trkpt lat="45.82615" lon="4.78353">
        <ele>380.7000122</ele>
        <time>2013-08-31T09:23:29Z</time>
      </trkpt>
      <trkpt lat="45.82614" lon="4.78354">
        <ele>380.3999939</ele>
        <time>2013-08-31T09:23:34Z</time>
      </trkpt>
      <trkpt lat="45.82614" lon="4.78354">
        <ele>380.2999878</ele>
        <time>2013-08-31T09:23:35Z</time>
      </trkpt>
      <trkpt lat="45.82614" lon="4.78354">
        <ele>380.2999878</ele>
        <time>2013-08-31T09:23:36Z</time>
      </trkpt>
      <trkpt lat="45.82614" lon="4.78354">
        <ele>379.8999939</ele>
        <time>2013-08-31T09:23:37Z</time>
      </trkpt>
      <trkpt lat="45.82614" lon="4.78355">
        <ele>379.8999939</ele>
        <time>2013-08-31T09:23:38Z</time>
      </trkpt>
      <trkpt lat="45.82614" lon="4.78355">
        <ele>379.7999878</ele>
        <time>2013-08-31T09:23:39Z</time>
      </trkpt>
      <trkpt lat="45.82614" lon="4.78355">
        <ele>379.7000122</ele>
        <time>2013-08-31T09:23:40Z</time>
      </trkpt>
      <trkpt lat="45.82615" lon="4.78356">
        <ele>379.7999878</ele>
        <time>2013-08-31T09:24:35Z</time>
      </trkpt>
      <trkpt lat="45.82615" lon="4.7836">
        <ele>379</ele>
        <time>2013-08-31T09:24:36Z</time>
      </trkpt>
      <trkpt lat="45.82616" lon="4.78372">
        <ele>377.1000061</ele>
        <time>2013-08-31T09:24:38Z</time>
      </trkpt>
      <trkpt lat="45.82618" lon="4.78379">
        <ele>376.1000061</ele>
        <time>2013-08-31T09:24:39Z</time>
      </trkpt>
      <trkpt lat="45.82619" lon="4.78388">
        <ele>376.2999878</ele>
        <time>2013-08-31T09:24:40Z</time>
      </trkpt>
      <trkpt lat="45.8262" lon="4.78394">
        <ele>376.8999939</ele>
        <time>2013-08-31T09:24:41Z</time>
      </trkpt>
      <trkpt lat="45.82621" lon="4.78404">
        <ele>375.8999939</ele>
        <time>2013-08-31T09:24:44Z</time>
      </trkpt>
      <trkpt lat="45.82622" lon="4.78408">
        <ele>375.8999939</ele>
        <time>2013-08-31T09:24:45Z</time>
      </trkpt>
      <trkpt lat="45.82624" lon="4.78419">
        <ele>374.5</ele>
        <time>2013-08-31T09:24:47Z</time>
      </trkpt>
      <trkpt lat="45.82627" lon="4.78428">
        <ele>369.8999939</ele>
        <time>2013-08-31T09:24:48Z</time>
      </trkpt>
      <trkpt lat="45.82628" lon="4.78435">
        <ele>368.1000061</ele>
        <time>2013-08-31T09:24:49Z</time>
      </trkpt>
      <trkpt lat="45.8263" lon="4.7844">
        <ele>368.1000061</ele>
        <time>2013-08-31T09:24:50Z</time>
      </trkpt>
      <trkpt lat="45.82633" lon="4.7845">
        <ele>368.1000061</ele>
        <time>2013-08-31T09:24:52Z</time>
      </trkpt>
      <trkpt lat="45.82633" lon="4.78455">
        <ele>368.1000061</ele>
        <time>2013-08-31T09:24:53Z</time>
      </trkpt>
      <trkpt lat="45.82636" lon="4.78465">
        <ele>368.3999939</ele>
        <time>2013-08-31T09:24:55Z</time>
      </trkpt>
      <trkpt lat="45.82637" lon="4.78469">
        <ele>368.3999939</ele>
        <time>2013-08-31T09:24:56Z</time>
      </trkpt>
      <trkpt lat="45.82638" lon="4.78475">
        <ele>368.3999939</ele>
        <time>2013-08-31T09:24:57Z</time>
      </trkpt>
      <trkpt lat="45.8264" lon="4.78481">
        <ele>368.6000061</ele>
        <time>2013-08-31T09:24:58Z</time>
      </trkpt>
      <trkpt lat="45.82642" lon="4.78487">
        <ele>368.3999939</ele>
        <time>2013-08-31T09:24:59Z</time>
      </trkpt>
      <trkpt lat="45.82644" lon="4.78493">
        <ele>368.7999878</ele>
        <time>2013-08-31T09:25:00Z</time>
      </trkpt>
      <trkpt lat="45.82647" lon="4.785">
        <ele>369.6000061</ele>
        <time>2013-08-31T09:25:02Z</time>
      </trkpt>
      <trkpt lat="45.8265" lon="4.78507">
        <ele>370.1000061</ele>
        <time>2013-08-31T09:25:03Z</time>
      </trkpt>
      <trkpt lat="45.82651" lon="4.78515">
        <ele>370.7000122</ele>
        <time>2013-08-31T09:25:04Z</time>
      </trkpt>
      <trkpt lat="45.82654" lon="4.78521">
        <ele>370.7000122</ele>
        <time>2013-08-31T09:25:05Z</time>
      </trkpt>
      <trkpt lat="45.82658" lon="4.78531">
        <ele>369</ele>
        <time>2013-08-31T09:25:07Z</time>
      </trkpt>
      <trkpt lat="45.82659" lon="4.78536">
        <ele>369.7999878</ele>
        <time>2013-08-31T09:25:08Z</time>
      </trkpt>
      <trkpt lat="45.82663" lon="4.78545">
        <ele>369.2000122</ele>
        <time>2013-08-31T09:25:10Z</time>
      </trkpt>
      <trkpt lat="45.82667" lon="4.7855">
        <ele>369.2000122</ele>
        <time>2013-08-31T09:25:11Z</time>
      </trkpt>
      <trkpt lat="45.8267" lon="4.78556">
        <ele>369.7999878</ele>
        <time>2013-08-31T09:25:12Z</time>
      </trkpt>
      <trkpt lat="45.82673" lon="4.78562">
        <ele>370.5</ele>
        <time>2013-08-31T09:25:13Z</time>
      </trkpt>
      <trkpt lat="45.82676" lon="4.78569">
        <ele>371.2999878</ele>
        <time>2013-08-31T09:25:15Z</time>
      </trkpt>
      <trkpt lat="45.8268" lon="4.78573">
        <ele>366.3999939</ele>
        <time>2013-08-31T09:25:16Z</time>
      </trkpt>
      <trkpt lat="45.82683" lon="4.78581">
        <ele>366.2999878</ele>
        <time>2013-08-31T09:25:18Z</time>
      </trkpt>
      <trkpt lat="45.82684" lon="4.78586">
        <ele>366.7999878</ele>
        <time>2013-08-31T09:25:19Z</time>
      </trkpt>
      <trkpt lat="45.82685" lon="4.78597">
        <ele>368.7000122</ele>
        <time>2013-08-31T09:25:23Z</time>
      </trkpt>
      <trkpt lat="45.82686" lon="4.78602">
        <ele>369.6000061</ele>
        <time>2013-08-31T09:25:24Z</time>
      </trkpt>
      <trkpt lat="45.82688" lon="4.78611">
        <ele>369.8999939</ele>
        <time>2013-08-31T09:25:26Z</time>
      </trkpt>
      <trkpt lat="45.82689" lon="4.78617">
        <ele>370.2000122</ele>
        <time>2013-08-31T09:25:27Z</time>
      </trkpt>
      <trkpt lat="45.8269" lon="4.78628">
        <ele>371.3999939</ele>
        <time>2013-08-31T09:25:30Z</time>
      </trkpt>
      <trkpt lat="45.82691" lon="4.78632">
        <ele>371.2999878</ele>
        <time>2013-08-31T09:25:31Z</time>
      </trkpt>
      <trkpt lat="45.82699" lon="4.78639">
        <ele>373.8999939</ele>
        <time>2013-08-31T09:25:40Z</time>
      </trkpt>
      <trkpt lat="45.82698" lon="4.7864">
        <ele>374.5</ele>
        <time>2013-08-31T09:25:41Z</time>
      </trkpt>
      <trkpt lat="45.82695" lon="4.78652">
        <ele>381.6000061</ele>
        <time>2013-08-31T09:25:51Z</time>
      </trkpt>
      <trkpt lat="45.82695" lon="4.78655">
        <ele>382.1000061</ele>
        <time>2013-08-31T09:25:52Z</time>
      </trkpt>
      <trkpt lat="45.8269" lon="4.78662">
        <ele>385.7000122</ele>
        <time>2013-08-31T09:25:57Z</time>
      </trkpt>
      <trkpt lat="45.82686" lon="4.78663">
        <ele>385.7999878</ele>
        <time>2013-08-31T09:25:58Z</time>
      </trkpt>
      <trkpt lat="45.82682" lon="4.78674">
        <ele>390</ele>
        <time>2013-08-31T09:26:05Z</time>
      </trkpt>
      <trkpt lat="45.82682" lon="4.78677">
        <ele>391.3999939</ele>
        <time>2013-08-31T09:26:06Z</time>
      </trkpt>
      <trkpt lat="45.8268" lon="4.78686">
        <ele>391.8999939</ele>
        <time>2013-08-31T09:26:09Z</time>
      </trkpt>
      <trkpt lat="45.8268" lon="4.78692">
        <ele>390.7000122</ele>
        <time>2013-08-31T09:26:10Z</time>
      </trkpt>
      <trkpt lat="45.82677" lon="4.78702">
        <ele>391.7999878</ele>
        <time>2013-08-31T09:26:14Z</time>
      </trkpt>
      <trkpt lat="45.82677" lon="4.78704">
        <ele>392.6000061</ele>
        <time>2013-08-31T09:26:15Z</time>
      </trkpt>
      <trkpt lat="45.82674" lon="4.78713">
        <ele>393.3999939</ele>
        <time>2013-08-31T09:26:19Z</time>
      </trkpt>
      <trkpt lat="45.82673" lon="4.78716">
        <ele>394.7000122</ele>
        <time>2013-08-31T09:26:20Z</time>
      </trkpt>
      <trkpt lat="45.82667" lon="4.78726">
        <ele>395.8999939</ele>
        <time>2013-08-31T09:26:27Z</time>
      </trkpt>
      <trkpt lat="45.82667" lon="4.78727">
        <ele>395.8999939</ele>
        <time>2013-08-31T09:26:28Z</time>
      </trkpt>
      <trkpt lat="45.82666" lon="4.78739">
        <ele>393.7000122</ele>
        <time>2013-08-31T09:26:34Z</time>
      </trkpt>
      <trkpt lat="45.82667" lon="4.78742">
        <ele>392.7000122</ele>
        <time>2013-08-31T09:26:35Z</time>
      </trkpt>
      <trkpt lat="45.82673" lon="4.78735">
        <ele>391</ele>
        <time>2013-08-31T09:26:40Z</time>
      </trkpt>
      <trkpt lat="45.82673" lon="4.78731">
        <ele>390.7999878</ele>
        <time>2013-08-31T09:26:41Z</time>
      </trkpt>
      <trkpt lat="45.82671" lon="4.78725">
        <ele>389.7999878</ele>
        <time>2013-08-31T09:26:43Z</time>
      </trkpt>
      <trkpt lat="45.82666" lon="4.7872">
        <ele>388.7999878</ele>
        <time>2013-08-31T09:26:44Z</time>
      </trkpt>
      <trkpt lat="45.82657" lon="4.78715">
        <ele>389.8999939</ele>
        <time>2013-08-31T09:26:45Z</time>
      </trkpt>
      <trkpt lat="45.82654" lon="4.7871">
        <ele>388.8999939</ele>
        <time>2013-08-31T09:26:46Z</time>
      </trkpt>
      <trkpt lat="45.8265" lon="4.78705">
        <ele>389.2000122</ele>
        <time>2013-08-31T09:26:47Z</time>
      </trkpt>
      <trkpt lat="45.82645" lon="4.78697">
        <ele>389</ele>
        <time>2013-08-31T09:26:49Z</time>
      </trkpt>
      <trkpt lat="45.82642" lon="4.78692">
        <ele>389.1000061</ele>
        <time>2013-08-31T09:26:50Z</time>
      </trkpt>
      <trkpt lat="45.82636" lon="4.78683">
        <ele>389</ele>
        <time>2013-08-31T09:26:52Z</time>
      </trkpt>
      <trkpt lat="45.8263" lon="4.7868">
        <ele>388.2999878</ele>
        <time>2013-08-31T09:26:53Z</time>
      </trkpt>
      <trkpt lat="45.82626" lon="4.78677">
        <ele>388.3999939</ele>
        <time>2013-08-31T09:26:54Z</time>
      </trkpt>
      <trkpt lat="45.8262" lon="4.78672">
        <ele>388.3999939</ele>
        <time>2013-08-31T09:26:55Z</time>
      </trkpt>
      <trkpt lat="45.82616" lon="4.78668">
        <ele>388.6000061</ele>
        <time>2013-08-31T09:26:56Z</time>
      </trkpt>
      <trkpt lat="45.82608" lon="4.78663">
        <ele>388.7000122</ele>
        <time>2013-08-31T09:26:57Z</time>
      </trkpt>
      <trkpt lat="45.82601" lon="4.7866">
        <ele>388.2000122</ele>
        <time>2013-08-31T09:26:58Z</time>
      </trkpt>
      <trkpt lat="45.82597" lon="4.78655">
        <ele>387.3999939</ele>
        <time>2013-08-31T09:26:59Z</time>
      </trkpt>
      <trkpt lat="45.8259" lon="4.78651">
        <ele>386.7999878</ele>
        <time>2013-08-31T09:27:00Z</time>
      </trkpt>
      <trkpt lat="45.82584" lon="4.78649">
        <ele>385.3999939</ele>
        <time>2013-08-31T09:27:01Z</time>
      </trkpt>
      <trkpt lat="45.82579" lon="4.78647">
        <ele>385.2999878</ele>
        <time>2013-08-31T09:27:02Z</time>
      </trkpt>
      <trkpt lat="45.82574" lon="4.78644">
        <ele>384.8999939</ele>
        <time>2013-08-31T09:27:03Z</time>
      </trkpt>
      <trkpt lat="45.82568" lon="4.78642">
        <ele>383.8999939</ele>
        <time>2013-08-31T09:27:04Z</time>
      </trkpt>
      <trkpt lat="45.82563" lon="4.78636">
        <ele>383.5</ele>
        <time>2013-08-31T09:27:05Z</time>
      </trkpt>
      <trkpt lat="45.82557" lon="4.78632">
        <ele>382.8999939</ele>
        <time>2013-08-31T09:27:06Z</time>
      </trkpt>
      <trkpt lat="45.8255" lon="4.78628">
        <ele>381.7999878</ele>
        <time>2013-08-31T09:27:07Z</time>
      </trkpt>
      <trkpt lat="45.82544" lon="4.78625">
        <ele>381.2999878</ele>
        <time>2013-08-31T09:27:08Z</time>
      </trkpt>
      <trkpt lat="45.82537" lon="4.78623">
        <ele>381</ele>
        <time>2013-08-31T09:27:09Z</time>
      </trkpt>
      <trkpt lat="45.8253" lon="4.7862">
        <ele>380.2000122</ele>
        <time>2013-08-31T09:27:10Z</time>
      </trkpt>
      <trkpt lat="45.82526" lon="4.78621">
        <ele>380.3999939</ele>
        <time>2013-08-31T09:27:11Z</time>
      </trkpt>
      <trkpt lat="45.82521" lon="4.78621">
        <ele>379.8999939</ele>
        <time>2013-08-31T09:27:12Z</time>
      </trkpt>
      <trkpt lat="45.82516" lon="4.78621">
        <ele>379.2999878</ele>
        <time>2013-08-31T09:27:13Z</time>
      </trkpt>
      <trkpt lat="45.8251" lon="4.7862">
        <ele>379.6000061</ele>
        <time>2013-08-31T09:27:14Z</time>
      </trkpt>
      <trkpt lat="45.82505" lon="4.78618">
        <ele>378</ele>
        <time>2013-08-31T09:27:15Z</time>
      </trkpt>
      <trkpt lat="45.825" lon="4.78616">
        <ele>377.7000122</ele>
        <time>2013-08-31T09:27:16Z</time>
      </trkpt>
      <trkpt lat="45.82495" lon="4.78615">
        <ele>377.5</ele>
        <time>2013-08-31T09:27:17Z</time>
      </trkpt>
      <trkpt lat="45.8249" lon="4.78614">
        <ele>377.3999939</ele>
        <time>2013-08-31T09:27:18Z</time>
      </trkpt>
      <trkpt lat="45.82485" lon="4.78611">
        <ele>376.5</ele>
        <time>2013-08-31T09:27:19Z</time>
      </trkpt>
      <trkpt lat="45.82476" lon="4.7861">
        <ele>375.8999939</ele>
        <time>2013-08-31T09:27:21Z</time>
      </trkpt>
      <trkpt lat="45.82472" lon="4.78608">
        <ele>376.5</ele>
        <time>2013-08-31T09:27:22Z</time>
      </trkpt>
      <trkpt lat="45.82468" lon="4.78606">
        <ele>376.6000061</ele>
        <time>2013-08-31T09:27:23Z</time>
      </trkpt>
      <trkpt lat="45.82462" lon="4.78606">
        <ele>374.8999939</ele>
        <time>2013-08-31T09:27:24Z</time>
      </trkpt>
      <trkpt lat="45.82456" lon="4.78605">
        <ele>374.7999878</ele>
        <time>2013-08-31T09:27:25Z</time>
      </trkpt>
      <trkpt lat="45.82451" lon="4.78603">
        <ele>373.8999939</ele>
        <time>2013-08-31T09:27:26Z</time>
      </trkpt>
      <trkpt lat="45.82445" lon="4.78602">
        <ele>373.6000061</ele>
        <time>2013-08-31T09:27:27Z</time>
      </trkpt>
      <trkpt lat="45.8244" lon="4.78601">
        <ele>373.1000061</ele>
        <time>2013-08-31T09:27:28Z</time>
      </trkpt>
      <trkpt lat="45.82435" lon="4.78601">
        <ele>372.7000122</ele>
        <time>2013-08-31T09:27:29Z</time>
      </trkpt>
      <trkpt lat="45.82429" lon="4.78601">
        <ele>372</ele>
        <time>2013-08-31T09:27:30Z</time>
      </trkpt>
      <trkpt lat="45.82426" lon="4.78595">
        <ele>372.1000061</ele>
        <time>2013-08-31T09:27:31Z</time>
      </trkpt>
      <trkpt lat="45.82421" lon="4.78592">
        <ele>372.2000122</ele>
        <time>2013-08-31T09:27:32Z</time>
      </trkpt>
      <trkpt lat="45.82415" lon="4.78587">
        <ele>371.5</ele>
        <time>2013-08-31T09:27:33Z</time>
      </trkpt>
      <trkpt lat="45.82409" lon="4.78582">
        <ele>371.1000061</ele>
        <time>2013-08-31T09:27:34Z</time>
      </trkpt>
      <trkpt lat="45.82402" lon="4.78579">
        <ele>370.7999878</ele>
        <time>2013-08-31T09:27:35Z</time>
      </trkpt>
      <trkpt lat="45.82395" lon="4.78575">
        <ele>371.2000122</ele>
        <time>2013-08-31T09:27:36Z</time>
      </trkpt>
      <trkpt lat="45.8239" lon="4.78572">
        <ele>371.5</ele>
        <time>2013-08-31T09:27:37Z</time>
      </trkpt>
      <trkpt lat="45.82384" lon="4.78567">
        <ele>370.6000061</ele>
        <time>2013-08-31T09:27:38Z</time>
      </trkpt>
      <trkpt lat="45.82379" lon="4.78563">
        <ele>369.7000122</ele>
        <time>2013-08-31T09:27:39Z</time>
      </trkpt>
      <trkpt lat="45.82374" lon="4.78559">
        <ele>369.7000122</ele>
        <time>2013-08-31T09:27:40Z</time>
      </trkpt>
      <trkpt lat="45.82367" lon="4.78551">
        <ele>366</ele>
        <time>2013-08-31T09:27:43Z</time>
      </trkpt>
      <trkpt lat="45.82365" lon="4.78548">
        <ele>365.7999878</ele>
        <time>2013-08-31T09:27:44Z</time>
      </trkpt>
      <trkpt lat="45.8236" lon="4.78537">
        <ele>363.7000122</ele>
        <time>2013-08-31T09:27:46Z</time>
      </trkpt>
      <trkpt lat="45.82358" lon="4.78532">
        <ele>362.7999878</ele>
        <time>2013-08-31T09:27:47Z</time>
      </trkpt>
      <trkpt lat="45.82356" lon="4.78522">
        <ele>361.5</ele>
        <time>2013-08-31T09:27:49Z</time>
      </trkpt>
      <trkpt lat="45.82352" lon="4.7852">
        <ele>361.2999878</ele>
        <time>2013-08-31T09:27:50Z</time>
      </trkpt>
      <trkpt lat="45.82346" lon="4.78514">
        <ele>360.3999939</ele>
        <time>2013-08-31T09:27:52Z</time>
      </trkpt>
      <trkpt lat="45.82343" lon="4.78512">
        <ele>359.3999939</ele>
        <time>2013-08-31T09:27:53Z</time>
      </trkpt>
      <trkpt lat="45.82335" lon="4.78511">
        <ele>360.2000122</ele>
        <time>2013-08-31T09:27:56Z</time>
      </trkpt>
      <trkpt lat="45.82333" lon="4.78511">
        <ele>359</ele>
        <time>2013-08-31T09:27:57Z</time>
      </trkpt>
      <trkpt lat="45.82331" lon="4.78512">
        <ele>352.3999939</ele>
        <time>2013-08-31T09:28:13Z</time>
      </trkpt>
      <trkpt lat="45.82331" lon="4.78512">
        <ele>352.5</ele>
        <time>2013-08-31T09:28:14Z</time>
      </trkpt>
      <trkpt lat="45.82331" lon="4.78512">
        <ele>352.7000122</ele>
        <time>2013-08-31T09:28:30Z</time>
      </trkpt>
      <trkpt lat="45.82331" lon="4.7851">
        <ele>352.6000061</ele>
        <time>2013-08-31T09:28:31Z</time>
      </trkpt>
      <trkpt lat="45.82334" lon="4.78499">
        <ele>352.5</ele>
        <time>2013-08-31T09:28:34Z</time>
      </trkpt>
      <trkpt lat="45.82335" lon="4.78497">
        <ele>353</ele>
        <time>2013-08-31T09:28:35Z</time>
      </trkpt>
      <trkpt lat="45.82336" lon="4.78493">
        <ele>353.1000061</ele>
        <time>2013-08-31T09:28:37Z</time>
      </trkpt>
      <trkpt lat="45.82336" lon="4.78493">
        <ele>352.7999878</ele>
        <time>2013-08-31T09:28:38Z</time>
      </trkpt>
      <trkpt lat="45.82337" lon="4.78492">
        <ele>353.7000122</ele>
        <time>2013-08-31T09:28:39Z</time>
      </trkpt>
      <trkpt lat="45.82338" lon="4.78493">
        <ele>353.8999939</ele>
        <time>2013-08-31T09:28:40Z</time>
      </trkpt>
      <trkpt lat="45.82341" lon="4.78482">
        <ele>355.1000061</ele>
        <time>2013-08-31T09:28:45Z</time>
      </trkpt>
      <trkpt lat="45.82343" lon="4.78477">
        <ele>352.7000122</ele>
        <time>2013-08-31T09:28:46Z</time>
      </trkpt>
      <trkpt lat="45.82338" lon="4.78468">
        <ele>351.1000061</ele>
        <time>2013-08-31T09:28:49Z</time>
      </trkpt>
      <trkpt lat="45.82335" lon="4.78465">
        <ele>350.6000061</ele>
        <time>2013-08-31T09:28:50Z</time>
      </trkpt>
      <trkpt lat="45.8233" lon="4.78463">
        <ele>349.7000122</ele>
        <time>2013-08-31T09:28:51Z</time>
      </trkpt>
      <trkpt lat="45.82325" lon="4.78462">
        <ele>350.1000061</ele>
        <time>2013-08-31T09:28:52Z</time>
      </trkpt>
      <trkpt lat="45.82322" lon="4.78456">
        <ele>349.6000061</ele>
        <time>2013-08-31T09:28:54Z</time>
      </trkpt>
      <trkpt lat="45.82319" lon="4.78452">
        <ele>348.5</ele>
        <time>2013-08-31T09:28:55Z</time>
      </trkpt>
      <trkpt lat="45.82315" lon="4.78445">
        <ele>346.8999939</ele>
        <time>2013-08-31T09:28:56Z</time>
      </trkpt>
      <trkpt lat="45.82311" lon="4.7844">
        <ele>346.5</ele>
        <time>2013-08-31T09:28:57Z</time>
      </trkpt>
      <trkpt lat="45.82304" lon="4.78434">
        <ele>345.3999939</ele>
        <time>2013-08-31T09:28:59Z</time>
      </trkpt>
      <trkpt lat="45.82302" lon="4.78431">
        <ele>345.2999878</ele>
        <time>2013-08-31T09:29:00Z</time>
      </trkpt>
      <trkpt lat="45.82294" lon="4.78426">
        <ele>345.2999878</ele>
        <time>2013-08-31T09:29:03Z</time>
      </trkpt>
      <trkpt lat="45.82291" lon="4.78425">
        <ele>345</ele>
        <time>2013-08-31T09:29:04Z</time>
      </trkpt>
      <trkpt lat="45.82284" lon="4.7842">
        <ele>344.3999939</ele>
        <time>2013-08-31T09:29:06Z</time>
      </trkpt>
      <trkpt lat="45.82282" lon="4.78418">
        <ele>344.2000122</ele>
        <time>2013-08-31T09:29:07Z</time>
      </trkpt>
      <trkpt lat="45.82276" lon="4.78415">
        <ele>343.3999939</ele>
        <time>2013-08-31T09:29:09Z</time>
      </trkpt>
      <trkpt lat="45.82272" lon="4.78414">
        <ele>343.7999878</ele>
        <time>2013-08-31T09:29:10Z</time>
      </trkpt>
      <trkpt lat="45.82267" lon="4.7841">
        <ele>344.2000122</ele>
        <time>2013-08-31T09:29:11Z</time>
      </trkpt>
      <trkpt lat="45.82263" lon="4.78409">
        <ele>344</ele>
        <time>2013-08-31T09:29:12Z</time>
      </trkpt>
      <trkpt lat="45.82256" lon="4.78402">
        <ele>343.2999878</ele>
        <time>2013-08-31T09:29:15Z</time>
      </trkpt>
      <trkpt lat="45.82252" lon="4.784">
        <ele>343.3999939</ele>
        <time>2013-08-31T09:29:16Z</time>
      </trkpt>
      <trkpt lat="45.82246" lon="4.78392">
        <ele>342.3999939</ele>
        <time>2013-08-31T09:29:19Z</time>
      </trkpt>
      <trkpt lat="45.82243" lon="4.78392">
        <ele>341.7999878</ele>
        <time>2013-08-31T09:29:20Z</time>
      </trkpt>
      <trkpt lat="45.82235" lon="4.78388">
        <ele>340.3999939</ele>
        <time>2013-08-31T09:29:25Z</time>
      </trkpt>
      <trkpt lat="45.82232" lon="4.78387">
        <ele>340.2000122</ele>
        <time>2013-08-31T09:29:26Z</time>
      </trkpt>
      <trkpt lat="45.82225" lon="4.78383">
        <ele>338.2999878</ele>
        <time>2013-08-31T09:29:29Z</time>
      </trkpt>
      <trkpt lat="45.82221" lon="4.78384">
        <ele>338.5</ele>
        <time>2013-08-31T09:29:30Z</time>
      </trkpt>
      <trkpt lat="45.82215" lon="4.78379">
        <ele>339.1000061</ele>
        <time>2013-08-31T09:29:33Z</time>
      </trkpt>
      <trkpt lat="45.82212" lon="4.78379">
        <ele>339.5</ele>
        <time>2013-08-31T09:29:34Z</time>
      </trkpt>
      <trkpt lat="45.82204" lon="4.78375">
        <ele>339.7999878</ele>
        <time>2013-08-31T09:29:38Z</time>
      </trkpt>
      <trkpt lat="45.82197" lon="4.78373">
        <ele>340.2999878</ele>
        <time>2013-08-31T09:29:39Z</time>
      </trkpt>
      <trkpt lat="45.8219" lon="4.78369">
        <ele>339</ele>
        <time>2013-08-31T09:29:43Z</time>
      </trkpt>
      <trkpt lat="45.82188" lon="4.78366">
        <ele>339.2999878</ele>
        <time>2013-08-31T09:29:44Z</time>
      </trkpt>
      <trkpt lat="45.82182" lon="4.78362">
        <ele>339.2000122</ele>
        <time>2013-08-31T09:29:45Z</time>
      </trkpt>
      <trkpt lat="45.82175" lon="4.78361">
        <ele>339.6000061</ele>
        <time>2013-08-31T09:29:46Z</time>
      </trkpt>
      <trkpt lat="45.82169" lon="4.78364">
        <ele>340.5</ele>
        <time>2013-08-31T09:29:47Z</time>
      </trkpt>
      <trkpt lat="45.82165" lon="4.78363">
        <ele>341.2999878</ele>
        <time>2013-08-31T09:29:48Z</time>
      </trkpt>
      <trkpt lat="45.82158" lon="4.78365">
        <ele>342.2999878</ele>
        <time>2013-08-31T09:29:51Z</time>
      </trkpt>
      <trkpt lat="45.82155" lon="4.78365">
        <ele>342.7000122</ele>
        <time>2013-08-31T09:29:52Z</time>
      </trkpt>
      <trkpt lat="45.82149" lon="4.78369">
        <ele>341.2999878</ele>
        <time>2013-08-31T09:29:57Z</time>
      </trkpt>
      <trkpt lat="45.82146" lon="4.78369">
        <ele>341.5</ele>
        <time>2013-08-31T09:29:58Z</time>
      </trkpt>
      <trkpt lat="45.82137" lon="4.78368">
        <ele>341.1000061</ele>
        <time>2013-08-31T09:30:01Z</time>
      </trkpt>
      <trkpt lat="45.82136" lon="4.78369">
        <ele>341.2000122</ele>
        <time>2013-08-31T09:30:02Z</time>
      </trkpt>
      <trkpt lat="45.82128" lon="4.78372">
        <ele>339.7000122</ele>
        <time>2013-08-31T09:30:06Z</time>
      </trkpt>
      <trkpt lat="45.82126" lon="4.78374">
        <ele>339.3999939</ele>
        <time>2013-08-31T09:30:07Z</time>
      </trkpt>
      <trkpt lat="45.82119" lon="4.78376">
        <ele>336.7000122</ele>
        <time>2013-08-31T09:30:11Z</time>
      </trkpt>
      <trkpt lat="45.82116" lon="4.78376">
        <ele>336.2000122</ele>
        <time>2013-08-31T09:30:12Z</time>
      </trkpt>
      <trkpt lat="45.82108" lon="4.78374">
        <ele>334.3999939</ele>
        <time>2013-08-31T09:30:14Z</time>
      </trkpt>
      <trkpt lat="45.82102" lon="4.7837">
        <ele>333.2000122</ele>
        <time>2013-08-31T09:30:15Z</time>
      </trkpt>
      <trkpt lat="45.82096" lon="4.78369">
        <ele>333.7999878</ele>
        <time>2013-08-31T09:30:16Z</time>
      </trkpt>
      <trkpt lat="45.82091" lon="4.78369">
        <ele>333.7999878</ele>
        <time>2013-08-31T09:30:17Z</time>
      </trkpt>
      <trkpt lat="45.82085" lon="4.78366">
        <ele>328.3999939</ele>
        <time>2013-08-31T09:30:19Z</time>
      </trkpt>
      <trkpt lat="45.82081" lon="4.78366">
        <ele>328.3999939</ele>
        <time>2013-08-31T09:30:20Z</time>
      </trkpt>
      <trkpt lat="45.82074" lon="4.78365">
        <ele>328.6000061</ele>
        <time>2013-08-31T09:30:22Z</time>
      </trkpt>
      <trkpt lat="45.82071" lon="4.78363">
        <ele>327.7000122</ele>
        <time>2013-08-31T09:30:23Z</time>
      </trkpt>
      <trkpt lat="45.82064" lon="4.78361">
        <ele>326.8999939</ele>
        <time>2013-08-31T09:30:25Z</time>
      </trkpt>
      <trkpt lat="45.82061" lon="4.78361">
        <ele>325.8999939</ele>
        <time>2013-08-31T09:30:26Z</time>
      </trkpt>
      <trkpt lat="45.82054" lon="4.7836">
        <ele>326</ele>
        <time>2013-08-31T09:30:29Z</time>
      </trkpt>
      <trkpt lat="45.82051" lon="4.78359">
        <ele>326</ele>
        <time>2013-08-31T09:30:30Z</time>
      </trkpt>
      <trkpt lat="45.82044" lon="4.78356">
        <ele>326.5</ele>
        <time>2013-08-31T09:30:33Z</time>
      </trkpt>
      <trkpt lat="45.82038" lon="4.78353">
        <ele>326.1000061</ele>
        <time>2013-08-31T09:30:34Z</time>
      </trkpt>
      <trkpt lat="45.82034" lon="4.78349">
        <ele>325</ele>
        <time>2013-08-31T09:30:35Z</time>
      </trkpt>
      <trkpt lat="45.82029" lon="4.78348">
        <ele>324.7999878</ele>
        <time>2013-08-31T09:30:36Z</time>
      </trkpt>
      <trkpt lat="45.82024" lon="4.78346">
        <ele>324.7999878</ele>
        <time>2013-08-31T09:30:37Z</time>
      </trkpt>
      <trkpt lat="45.82019" lon="4.78346">
        <ele>324.6000061</ele>
        <time>2013-08-31T09:30:38Z</time>
      </trkpt>
      <trkpt lat="45.82014" lon="4.78346">
        <ele>324.6000061</ele>
        <time>2013-08-31T09:30:39Z</time>
      </trkpt>
      <trkpt lat="45.8201" lon="4.78345">
        <ele>326.7999878</ele>
        <time>2013-08-31T09:30:40Z</time>
      </trkpt>
      <trkpt lat="45.82005" lon="4.78345">
        <ele>325.2999878</ele>
        <time>2013-08-31T09:30:41Z</time>
      </trkpt>
      <trkpt lat="45.82" lon="4.78344">
        <ele>325.2999878</ele>
        <time>2013-08-31T09:30:42Z</time>
      </trkpt>
      <trkpt lat="45.81995" lon="4.78343">
        <ele>324.2999878</ele>
        <time>2013-08-31T09:30:43Z</time>
      </trkpt>
      <trkpt lat="45.8199" lon="4.78343">
        <ele>323.7000122</ele>
        <time>2013-08-31T09:30:44Z</time>
      </trkpt>
      <trkpt lat="45.81984" lon="4.78341">
        <ele>323.3999939</ele>
        <time>2013-08-31T09:30:45Z</time>
      </trkpt>
      <trkpt lat="45.81979" lon="4.7834">
        <ele>322.7000122</ele>
        <time>2013-08-31T09:30:46Z</time>
      </trkpt>
      <trkpt lat="45.8197" lon="4.78336">
        <ele>322.7000122</ele>
        <time>2013-08-31T09:30:48Z</time>
      </trkpt>
      <trkpt lat="45.81968" lon="4.78335">
        <ele>322.8999939</ele>
        <time>2013-08-31T09:30:49Z</time>
      </trkpt>
      <trkpt lat="45.81959" lon="4.78332">
        <ele>323.5</ele>
        <time>2013-08-31T09:30:52Z</time>
      </trkpt>
      <trkpt lat="45.81956" lon="4.78331">
        <ele>323.8999939</ele>
        <time>2013-08-31T09:30:53Z</time>
      </trkpt>
      <trkpt lat="45.81954" lon="4.7834">
        <ele>323.6000061</ele>
        <time>2013-08-31T09:31:06Z</time>
      </trkpt>
      <trkpt lat="45.81954" lon="4.7834">
        <ele>324.2999878</ele>
        <time>2013-08-31T09:31:07Z</time>
      </trkpt>
      <trkpt lat="45.81955" lon="4.78342">
        <ele>324.7000122</ele>
        <time>2013-08-31T09:31:08Z</time>
      </trkpt>
      <trkpt lat="45.81954" lon="4.78343">
        <ele>326.7000122</ele>
        <time>2013-08-31T09:31:09Z</time>
      </trkpt>
      <trkpt lat="45.81959" lon="4.78353">
        <ele>327.3999939</ele>
        <time>2013-08-31T09:31:16Z</time>
      </trkpt>
      <trkpt lat="45.8196" lon="4.78355">
        <ele>328.1000061</ele>
        <time>2013-08-31T09:31:17Z</time>
      </trkpt>
      <trkpt lat="45.81966" lon="4.78361">
        <ele>333.5</ele>
        <time>2013-08-31T09:31:27Z</time>
      </trkpt>
      <trkpt lat="45.81968" lon="4.78362">
        <ele>334.7000122</ele>
        <time>2013-08-31T09:31:28Z</time>
      </trkpt>
      <trkpt lat="45.81975" lon="4.78368">
        <ele>339.2000122</ele>
        <time>2013-08-31T09:31:35Z</time>
      </trkpt>
      <trkpt lat="45.81977" lon="4.78368">
        <ele>338.7999878</ele>
        <time>2013-08-31T09:31:36Z</time>
      </trkpt>
      <trkpt lat="45.81981" lon="4.78378">
        <ele>339.6000061</ele>
        <time>2013-08-31T09:31:40Z</time>
      </trkpt>
      <trkpt lat="45.81981" lon="4.78381">
        <ele>339.7999878</ele>
        <time>2013-08-31T09:31:41Z</time>
      </trkpt>
      <trkpt lat="45.81983" lon="4.78393">
        <ele>339.7000122</ele>
        <time>2013-08-31T09:31:46Z</time>
      </trkpt>
      <trkpt lat="45.81983" lon="4.78396">
        <ele>338.7999878</ele>
        <time>2013-08-31T09:31:47Z</time>
      </trkpt>
      <trkpt lat="45.81981" lon="4.78408">
        <ele>335.7999878</ele>
        <time>2013-08-31T09:31:55Z</time>
      </trkpt>
      <trkpt lat="45.81982" lon="4.78411">
        <ele>335.2999878</ele>
        <time>2013-08-31T09:31:56Z</time>
      </trkpt>
      <trkpt lat="45.81983" lon="4.78422">
        <ele>334.5</ele>
        <time>2013-08-31T09:32:00Z</time>
      </trkpt>
      <trkpt lat="45.81983" lon="4.78424">
        <ele>334.2000122</ele>
        <time>2013-08-31T09:32:01Z</time>
      </trkpt>
      <trkpt lat="45.81983" lon="4.78437">
        <ele>334.5</ele>
        <time>2013-08-31T09:32:09Z</time>
      </trkpt>
      <trkpt lat="45.81983" lon="4.78437">
        <ele>333.7999878</ele>
        <time>2013-08-31T09:32:10Z</time>
      </trkpt>
      <trkpt lat="45.81985" lon="4.78444">
        <ele>333</ele>
        <time>2013-08-31T09:32:14Z</time>
      </trkpt>
      <trkpt lat="45.81985" lon="4.7845">
        <ele>331.3999939</ele>
        <time>2013-08-31T09:32:15Z</time>
      </trkpt>
      <trkpt lat="45.81986" lon="4.78461">
        <ele>332</ele>
        <time>2013-08-31T09:32:22Z</time>
      </trkpt>
      <trkpt lat="45.81986" lon="4.78463">
        <ele>332</ele>
        <time>2013-08-31T09:32:23Z</time>
      </trkpt>
      <trkpt lat="45.81986" lon="4.78463">
        <ele>332.1000061</ele>
        <time>2013-08-31T09:32:24Z</time>
      </trkpt>
      <trkpt lat="45.81986" lon="4.78464">
        <ele>332.3999939</ele>
        <time>2013-08-31T09:32:25Z</time>
      </trkpt>
      <trkpt lat="45.81986" lon="4.78466">
        <ele>332.7000122</ele>
        <time>2013-08-31T09:32:26Z</time>
      </trkpt>
      <trkpt lat="45.81986" lon="4.78478">
        <ele>335.1000061</ele>
        <time>2013-08-31T09:32:34Z</time>
      </trkpt>
      <trkpt lat="45.81986" lon="4.78479">
        <ele>335.7000122</ele>
        <time>2013-08-31T09:32:35Z</time>
      </trkpt>
      <trkpt lat="45.81987" lon="4.78492">
        <ele>337.2000122</ele>
        <time>2013-08-31T09:32:42Z</time>
      </trkpt>
      <trkpt lat="45.81987" lon="4.78494">
        <ele>337.1000061</ele>
        <time>2013-08-31T09:32:43Z</time>
      </trkpt>
      <trkpt lat="45.81986" lon="4.785">
        <ele>337.7999878</ele>
        <time>2013-08-31T09:32:50Z</time>
      </trkpt>
      <trkpt lat="45.81986" lon="4.785">
        <ele>337.8999939</ele>
        <time>2013-08-31T09:32:51Z</time>
      </trkpt>
      <trkpt lat="45.81986" lon="4.78503">
        <ele>338.3999939</ele>
        <time>2013-08-31T09:32:52Z</time>
      </trkpt>
      <trkpt lat="45.81983" lon="4.78514">
        <ele>340.5</ele>
        <time>2013-08-31T09:33:01Z</time>
      </trkpt>
      <trkpt lat="45.81983" lon="4.78515">
        <ele>340.7999878</ele>
        <time>2013-08-31T09:33:02Z</time>
      </trkpt>
      <trkpt lat="45.81983" lon="4.78527">
        <ele>341.1000061</ele>
        <time>2013-08-31T09:33:09Z</time>
      </trkpt>
      <trkpt lat="45.81983" lon="4.78529">
        <ele>341.7999878</ele>
        <time>2013-08-31T09:33:10Z</time>
      </trkpt>
      <trkpt lat="45.81982" lon="4.78541">
        <ele>346.3999939</ele>
        <time>2013-08-31T09:33:17Z</time>
      </trkpt>
      <trkpt lat="45.81981" lon="4.78543">
        <ele>346.7000122</ele>
        <time>2013-08-31T09:33:18Z</time>
      </trkpt>
      <trkpt lat="45.81981" lon="4.78555">
        <ele>351.6000061</ele>
        <time>2013-08-31T09:33:27Z</time>
      </trkpt>
      <trkpt lat="45.81982" lon="4.78558">
        <ele>351.6000061</ele>
        <time>2013-08-31T09:33:28Z</time>
      </trkpt>
      <trkpt lat="45.81984" lon="4.78568">
        <ele>346.6000061</ele>
        <time>2013-08-31T09:33:34Z</time>
      </trkpt>
      <trkpt lat="45.81985" lon="4.78571">
        <ele>346.7000122</ele>
        <time>2013-08-31T09:33:35Z</time>
      </trkpt>
      <trkpt lat="45.81987" lon="4.78584">
        <ele>347</ele>
        <time>2013-08-31T09:33:40Z</time>
      </trkpt>
      <trkpt lat="45.81987" lon="4.78585">
        <ele>346.8999939</ele>
        <time>2013-08-31T09:33:41Z</time>
      </trkpt>
      <trkpt lat="45.81993" lon="4.7859">
        <ele>346.8999939</ele>
        <time>2013-08-31T09:33:45Z</time>
      </trkpt>
      <trkpt lat="45.81996" lon="4.78591">
        <ele>346.3999939</ele>
        <time>2013-08-31T09:33:46Z</time>
      </trkpt>
      <trkpt lat="45.82002" lon="4.78593">
        <ele>346.5</ele>
        <time>2013-08-31T09:33:49Z</time>
      </trkpt>
      <trkpt lat="45.82005" lon="4.78594">
        <ele>347.1000061</ele>
        <time>2013-08-31T09:33:50Z</time>
      </trkpt>
      <trkpt lat="45.82014" lon="4.78597">
        <ele>347.3999939</ele>
        <time>2013-08-31T09:33:53Z</time>
      </trkpt>
      <trkpt lat="45.82016" lon="4.78597">
        <ele>347.2000122</ele>
        <time>2013-08-31T09:33:54Z</time>
      </trkpt>
      <trkpt lat="45.82023" lon="4.78597">
        <ele>347.2999878</ele>
        <time>2013-08-31T09:33:57Z</time>
      </trkpt>
      <trkpt lat="45.82026" lon="4.78599">
        <ele>345.8999939</ele>
        <time>2013-08-31T09:33:58Z</time>
      </trkpt>
      <trkpt lat="45.82031" lon="4.78598">
        <ele>345.7999878</ele>
        <time>2013-08-31T09:34:00Z</time>
      </trkpt>
      <trkpt lat="45.82035" lon="4.78597">
        <ele>341.5</ele>
        <time>2013-08-31T09:34:01Z</time>
      </trkpt>
      <trkpt lat="45.8204" lon="4.78604">
        <ele>346</ele>
        <time>2013-08-31T09:34:04Z</time>
      </trkpt>
      <trkpt lat="45.82042" lon="4.78605">
        <ele>347.8999939</ele>
        <time>2013-08-31T09:34:05Z</time>
      </trkpt>
      <trkpt lat="45.82049" lon="4.78611">
        <ele>349.2999878</ele>
        <time>2013-08-31T09:34:08Z</time>
      </trkpt>
      <trkpt lat="45.8205" lon="4.78611">
        <ele>349.7000122</ele>
        <time>2013-08-31T09:34:09Z</time>
      </trkpt>
      <trkpt lat="45.82054" lon="4.78616">
        <ele>350.7000122</ele>
        <time>2013-08-31T09:34:11Z</time>
      </trkpt>
      <trkpt lat="45.82059" lon="4.7862">
        <ele>351.2000122</ele>
        <time>2013-08-31T09:34:12Z</time>
      </trkpt>
      <trkpt lat="45.82065" lon="4.78626">
        <ele>349.3999939</ele>
        <time>2013-08-31T09:34:15Z</time>
      </trkpt>
      <trkpt lat="45.82068" lon="4.78627">
        <ele>349</ele>
        <time>2013-08-31T09:34:16Z</time>
      </trkpt>
      <trkpt lat="45.82075" lon="4.78633">
        <ele>351.1000061</ele>
        <time>2013-08-31T09:34:19Z</time>
      </trkpt>
      <trkpt lat="45.82077" lon="4.78637">
        <ele>351.6000061</ele>
        <time>2013-08-31T09:34:20Z</time>
      </trkpt>
      <trkpt lat="45.82082" lon="4.78642">
        <ele>353.3999939</ele>
        <time>2013-08-31T09:34:22Z</time>
      </trkpt>
      <trkpt lat="45.82085" lon="4.78645">
        <ele>353.8999939</ele>
        <time>2013-08-31T09:34:23Z</time>
      </trkpt>
      <trkpt lat="45.82091" lon="4.78652">
        <ele>354.5</ele>
        <time>2013-08-31T09:34:26Z</time>
      </trkpt>
      <trkpt lat="45.82094" lon="4.78654">
        <ele>354.7999878</ele>
        <time>2013-08-31T09:34:27Z</time>
      </trkpt>
      <trkpt lat="45.82101" lon="4.78661">
        <ele>353.6000061</ele>
        <time>2013-08-31T09:34:30Z</time>
      </trkpt>
      <trkpt lat="45.82105" lon="4.78662">
        <ele>354</ele>
        <time>2013-08-31T09:34:31Z</time>
      </trkpt>
      <trkpt lat="45.82109" lon="4.78667">
        <ele>353.7000122</ele>
        <time>2013-08-31T09:34:33Z</time>
      </trkpt>
      <trkpt lat="45.82112" lon="4.7867">
        <ele>354.1000061</ele>
        <time>2013-08-31T09:34:34Z</time>
      </trkpt>
      <trkpt lat="45.82117" lon="4.78676">
        <ele>354.5</ele>
        <time>2013-08-31T09:34:36Z</time>
      </trkpt>
      <trkpt lat="45.8212" lon="4.78679">
        <ele>354.6000061</ele>
        <time>2013-08-31T09:34:37Z</time>
      </trkpt>
      <trkpt lat="45.82125" lon="4.78684">
        <ele>355.5</ele>
        <time>2013-08-31T09:34:39Z</time>
      </trkpt>
      <trkpt lat="45.82127" lon="4.78689">
        <ele>355.5</ele>
        <time>2013-08-31T09:34:40Z</time>
      </trkpt>
      <trkpt lat="45.82134" lon="4.78693">
        <ele>356</ele>
        <time>2013-08-31T09:34:43Z</time>
      </trkpt>
      <trkpt lat="45.82137" lon="4.78694">
        <ele>356.2999878</ele>
        <time>2013-08-31T09:34:44Z</time>
      </trkpt>
      <trkpt lat="45.82143" lon="4.78699">
        <ele>357.6000061</ele>
        <time>2013-08-31T09:34:47Z</time>
      </trkpt>
      <trkpt lat="45.82147" lon="4.78703">
        <ele>357.3999939</ele>
        <time>2013-08-31T09:34:48Z</time>
      </trkpt>
      <trkpt lat="45.82151" lon="4.7871">
        <ele>355.1000061</ele>
        <time>2013-08-31T09:34:50Z</time>
      </trkpt>
      <trkpt lat="45.82154" lon="4.78712">
        <ele>355</ele>
        <time>2013-08-31T09:34:51Z</time>
      </trkpt>
      <trkpt lat="45.82158" lon="4.78719">
        <ele>353.2999878</ele>
        <time>2013-08-31T09:34:53Z</time>
      </trkpt>
      <trkpt lat="45.8216" lon="4.78721">
        <ele>352.8999939</ele>
        <time>2013-08-31T09:34:54Z</time>
      </trkpt>
      <trkpt lat="45.82165" lon="4.7873">
        <ele>354.1000061</ele>
        <time>2013-08-31T09:34:56Z</time>
      </trkpt>
      <trkpt lat="45.82167" lon="4.78735">
        <ele>353.8999939</ele>
        <time>2013-08-31T09:34:57Z</time>
      </trkpt>
      <trkpt lat="45.82159" lon="4.78737">
        <ele>353.8999939</ele>
        <time>2013-08-31T09:34:59Z</time>
      </trkpt>
      <trkpt lat="45.82158" lon="4.7874">
        <ele>354.1000061</ele>
        <time>2013-08-31T09:35:00Z</time>
      </trkpt>
      <trkpt lat="45.82156" lon="4.78749">
        <ele>354.3999939</ele>
        <time>2013-08-31T09:35:05Z</time>
      </trkpt>
      <trkpt lat="45.82154" lon="4.78752">
        <ele>354.5</ele>
        <time>2013-08-31T09:35:06Z</time>
      </trkpt>
      <trkpt lat="45.82152" lon="4.78761">
        <ele>354.1000061</ele>
        <time>2013-08-31T09:35:10Z</time>
      </trkpt>
      <trkpt lat="45.82149" lon="4.78762">
        <ele>354.2999878</ele>
        <time>2013-08-31T09:35:11Z</time>
      </trkpt>
      <trkpt lat="45.82147" lon="4.78773">
        <ele>352.8999939</ele>
        <time>2013-08-31T09:35:15Z</time>
      </trkpt>
      <trkpt lat="45.82146" lon="4.78777">
        <ele>352</ele>
        <time>2013-08-31T09:35:16Z</time>
      </trkpt>
      <trkpt lat="45.82142" lon="4.78786">
        <ele>350.7999878</ele>
        <time>2013-08-31T09:35:20Z</time>
      </trkpt>
      <trkpt lat="45.82141" lon="4.78788">
        <ele>350.2999878</ele>
        <time>2013-08-31T09:35:21Z</time>
      </trkpt>
      <trkpt lat="45.82142" lon="4.78791">
        <ele>349.8999939</ele>
        <time>2013-08-31T09:35:29Z</time>
      </trkpt>
      <trkpt lat="45.82142" lon="4.7879">
        <ele>349.7000122</ele>
        <time>2013-08-31T09:35:30Z</time>
      </trkpt>
      <trkpt lat="45.82142" lon="4.78791">
        <ele>349.7999878</ele>
        <time>2013-08-31T09:35:31Z</time>
      </trkpt>
      <trkpt lat="45.82142" lon="4.78791">
        <ele>349.8999939</ele>
        <time>2013-08-31T09:35:32Z</time>
      </trkpt>
      <trkpt lat="45.82142" lon="4.78791">
        <ele>350</ele>
        <time>2013-08-31T09:35:34Z</time>
      </trkpt>
      <trkpt lat="45.82142" lon="4.78791">
        <ele>350</ele>
        <time>2013-08-31T09:35:35Z</time>
      </trkpt>
      <trkpt lat="45.82142" lon="4.78791">
        <ele>350.1000061</ele>
        <time>2013-08-31T09:35:36Z</time>
      </trkpt>
      <trkpt lat="45.82142" lon="4.78791">
        <ele>350.1000061</ele>
        <time>2013-08-31T09:35:41Z</time>
      </trkpt>
      <trkpt lat="45.82142" lon="4.78791">
        <ele>349.8999939</ele>
        <time>2013-08-31T09:35:42Z</time>
      </trkpt>
      <trkpt lat="45.82142" lon="4.78791">
        <ele>349.7000122</ele>
        <time>2013-08-31T09:35:44Z</time>
      </trkpt>
      <trkpt lat="45.82143" lon="4.78791">
        <ele>349.7000122</ele>
        <time>2013-08-31T09:35:45Z</time>
      </trkpt>
      <trkpt lat="45.82143" lon="4.78792">
        <ele>349.7000122</ele>
        <time>2013-08-31T09:36:10Z</time>
      </trkpt>
      <trkpt lat="45.82141" lon="4.78795">
        <ele>350.7999878</ele>
        <time>2013-08-31T09:36:11Z</time>
      </trkpt>
      <trkpt lat="45.8214" lon="4.78806">
        <ele>351.5</ele>
        <time>2013-08-31T09:36:14Z</time>
      </trkpt>
      <trkpt lat="45.8214" lon="4.78809">
        <ele>351.7999878</ele>
        <time>2013-08-31T09:36:15Z</time>
      </trkpt>
      <trkpt lat="45.82135" lon="4.78815">
        <ele>349.1000061</ele>
        <time>2013-08-31T09:36:16Z</time>
      </trkpt>
      <trkpt lat="45.82133" lon="4.7882">
        <ele>347.5</ele>
        <time>2013-08-31T09:36:17Z</time>
      </trkpt>
      <trkpt lat="45.82134" lon="4.78831">
        <ele>350.7999878</ele>
        <time>2013-08-31T09:36:20Z</time>
      </trkpt>
      <trkpt lat="45.82132" lon="4.78837">
        <ele>352.1000061</ele>
        <time>2013-08-31T09:36:21Z</time>
      </trkpt>
      <trkpt lat="45.8213" lon="4.78847">
        <ele>352.1000061</ele>
        <time>2013-08-31T09:36:23Z</time>
      </trkpt>
      <trkpt lat="45.82129" lon="4.78851">
        <ele>351.3999939</ele>
        <time>2013-08-31T09:36:24Z</time>
      </trkpt>
      <trkpt lat="45.82126" lon="4.78861">
        <ele>355</ele>
        <time>2013-08-31T09:36:26Z</time>
      </trkpt>
      <trkpt lat="45.82124" lon="4.78866">
        <ele>353</ele>
        <time>2013-08-31T09:36:27Z</time>
      </trkpt>
      <trkpt lat="45.8212" lon="4.78876">
        <ele>349</ele>
        <time>2013-08-31T09:36:29Z</time>
      </trkpt>
      <trkpt lat="45.82119" lon="4.78879">
        <ele>347.2999878</ele>
        <time>2013-08-31T09:36:30Z</time>
      </trkpt>
      <trkpt lat="45.82114" lon="4.78886">
        <ele>346.3999939</ele>
        <time>2013-08-31T09:36:33Z</time>
      </trkpt>
      <trkpt lat="45.82112" lon="4.78889">
        <ele>344.5</ele>
        <time>2013-08-31T09:36:34Z</time>
      </trkpt>
      <trkpt lat="45.82104" lon="4.78894">
        <ele>341.2999878</ele>
        <time>2013-08-31T09:36:37Z</time>
      </trkpt>
      <trkpt lat="45.82102" lon="4.78895">
        <ele>340.3999939</ele>
        <time>2013-08-31T09:36:38Z</time>
      </trkpt>
      <trkpt lat="45.82097" lon="4.78905">
        <ele>344.7999878</ele>
        <time>2013-08-31T09:36:41Z</time>
      </trkpt>
      <trkpt lat="45.82096" lon="4.78907">
        <ele>345.6000061</ele>
        <time>2013-08-31T09:36:42Z</time>
      </trkpt>
      <trkpt lat="45.8209" lon="4.78915">
        <ele>346.2999878</ele>
        <time>2013-08-31T09:36:46Z</time>
      </trkpt>
      <trkpt lat="45.8209" lon="4.78917">
        <ele>347</ele>
        <time>2013-08-31T09:36:47Z</time>
      </trkpt>
      <trkpt lat="45.82089" lon="4.78925">
        <ele>348.6000061</ele>
        <time>2013-08-31T09:36:50Z</time>
      </trkpt>
      <trkpt lat="45.82088" lon="4.78931">
        <ele>348.3999939</ele>
        <time>2013-08-31T09:36:51Z</time>
      </trkpt>
      <trkpt lat="45.82087" lon="4.7894">
        <ele>347.1000061</ele>
        <time>2013-08-31T09:36:53Z</time>
      </trkpt>
      <trkpt lat="45.82086" lon="4.78944">
        <ele>346.6000061</ele>
        <time>2013-08-31T09:36:54Z</time>
      </trkpt>
      <trkpt lat="45.82081" lon="4.7895">
        <ele>346.5</ele>
        <time>2013-08-31T09:36:57Z</time>
      </trkpt>
      <trkpt lat="45.82079" lon="4.78952">
        <ele>345.8999939</ele>
        <time>2013-08-31T09:36:58Z</time>
      </trkpt>
      <trkpt lat="45.82072" lon="4.78956">
        <ele>350.1000061</ele>
        <time>2013-08-31T09:37:01Z</time>
      </trkpt>
      <trkpt lat="45.82069" lon="4.78956">
        <ele>350.3999939</ele>
        <time>2013-08-31T09:37:02Z</time>
      </trkpt>
      <trkpt lat="45.82061" lon="4.78955">
        <ele>351.5</ele>
        <time>2013-08-31T09:37:06Z</time>
      </trkpt>
      <trkpt lat="45.82059" lon="4.78954">
        <ele>352.2999878</ele>
        <time>2013-08-31T09:37:07Z</time>
      </trkpt>
      <trkpt lat="45.82053" lon="4.7895">
        <ele>353</ele>
        <time>2013-08-31T09:37:11Z</time>
      </trkpt>
      <trkpt lat="45.82051" lon="4.78949">
        <ele>352.8999939</ele>
        <time>2013-08-31T09:37:12Z</time>
      </trkpt>
      <trkpt lat="45.82043" lon="4.78948">
        <ele>357.2000122</ele>
        <time>2013-08-31T09:37:17Z</time>
      </trkpt>
      <trkpt lat="45.82041" lon="4.78947">
        <ele>357.8999939</ele>
        <time>2013-08-31T09:37:18Z</time>
      </trkpt>
      <trkpt lat="45.82033" lon="4.78952">
        <ele>358.8999939</ele>
        <time>2013-08-31T09:37:23Z</time>
      </trkpt>
      <trkpt lat="45.82032" lon="4.78953">
        <ele>359.7999878</ele>
        <time>2013-08-31T09:37:24Z</time>
      </trkpt>
      <trkpt lat="45.82025" lon="4.7896">
        <ele>362</ele>
        <time>2013-08-31T09:37:30Z</time>
      </trkpt>
      <trkpt lat="45.82024" lon="4.78961">
        <ele>362.5</ele>
        <time>2013-08-31T09:37:31Z</time>
      </trkpt>
      <trkpt lat="45.82021" lon="4.78972">
        <ele>365.2000122</ele>
        <time>2013-08-31T09:37:36Z</time>
      </trkpt>
      <trkpt lat="45.8202" lon="4.78975">
        <ele>365</ele>
        <time>2013-08-31T09:37:37Z</time>
      </trkpt>
      <trkpt lat="45.82017" lon="4.78985">
        <ele>365.6000061</ele>
        <time>2013-08-31T09:37:41Z</time>
      </trkpt>
      <trkpt lat="45.82016" lon="4.78987">
        <ele>366.6000061</ele>
        <time>2013-08-31T09:37:42Z</time>
      </trkpt>
      <trkpt lat="45.82011" lon="4.78996">
        <ele>368.3999939</ele>
        <time>2013-08-31T09:37:47Z</time>
      </trkpt>
      <trkpt lat="45.82009" lon="4.78997">
        <ele>368.2000122</ele>
        <time>2013-08-31T09:37:48Z</time>
      </trkpt>
      <trkpt lat="45.82001" lon="4.78999">
        <ele>367.7999878</ele>
        <time>2013-08-31T09:37:55Z</time>
      </trkpt>
      <trkpt lat="45.82" lon="4.78999">
        <ele>367.3999939</ele>
        <time>2013-08-31T09:37:56Z</time>
      </trkpt>
      <trkpt lat="45.81991" lon="4.78999">
        <ele>365</ele>
        <time>2013-08-31T09:38:04Z</time>
      </trkpt>
      <trkpt lat="45.81991" lon="4.78999">
        <ele>364.7999878</ele>
        <time>2013-08-31T09:38:05Z</time>
      </trkpt>
      <trkpt lat="45.81988" lon="4.78999">
        <ele>366</ele>
        <time>2013-08-31T09:38:06Z</time>
      </trkpt>
      <trkpt lat="45.81982" lon="4.79002">
        <ele>365.5</ele>
        <time>2013-08-31T09:38:07Z</time>
      </trkpt>
      <trkpt lat="45.81979" lon="4.79003">
        <ele>365.6000061</ele>
        <time>2013-08-31T09:38:08Z</time>
      </trkpt>
      <trkpt lat="45.81971" lon="4.79006">
        <ele>365.7000122</ele>
        <time>2013-08-31T09:38:11Z</time>
      </trkpt>
      <trkpt lat="45.81968" lon="4.79007">
        <ele>366.2999878</ele>
        <time>2013-08-31T09:38:12Z</time>
      </trkpt>
      <trkpt lat="45.81961" lon="4.79008">
        <ele>367</ele>
        <time>2013-08-31T09:38:14Z</time>
      </trkpt>
      <trkpt lat="45.81953" lon="4.79009">
        <ele>367.2000122</ele>
        <time>2013-08-31T09:38:15Z</time>
      </trkpt>
      <trkpt lat="45.81948" lon="4.7901">
        <ele>367.7000122</ele>
        <time>2013-08-31T09:38:16Z</time>
      </trkpt>
      <trkpt lat="45.81943" lon="4.79011">
        <ele>367.1000061</ele>
        <time>2013-08-31T09:38:17Z</time>
      </trkpt>
      <trkpt lat="45.81935" lon="4.79013">
        <ele>366.5</ele>
        <time>2013-08-31T09:38:19Z</time>
      </trkpt>
      <trkpt lat="45.81931" lon="4.79015">
        <ele>366.7999878</ele>
        <time>2013-08-31T09:38:20Z</time>
      </trkpt>
      <trkpt lat="45.81925" lon="4.79018">
        <ele>368.8999939</ele>
        <time>2013-08-31T09:38:22Z</time>
      </trkpt>
      <trkpt lat="45.81921" lon="4.79019">
        <ele>369.2000122</ele>
        <time>2013-08-31T09:38:23Z</time>
      </trkpt>
      <trkpt lat="45.81913" lon="4.79021">
        <ele>369.6000061</ele>
        <time>2013-08-31T09:38:26Z</time>
      </trkpt>
      <trkpt lat="45.81911" lon="4.79024">
        <ele>369.8999939</ele>
        <time>2013-08-31T09:38:27Z</time>
      </trkpt>
      <trkpt lat="45.81908" lon="4.79034">
        <ele>374.5</ele>
        <time>2013-08-31T09:38:31Z</time>
      </trkpt>
      <trkpt lat="45.81908" lon="4.79038">
        <ele>374</ele>
        <time>2013-08-31T09:38:32Z</time>
      </trkpt>
      <trkpt lat="45.81912" lon="4.79048">
        <ele>373.8999939</ele>
        <time>2013-08-31T09:38:36Z</time>
      </trkpt>
      <trkpt lat="45.81914" lon="4.79052">
        <ele>373.5</ele>
        <time>2013-08-31T09:38:37Z</time>
      </trkpt>
      <trkpt lat="45.8192" lon="4.79057">
        <ele>375.2000122</ele>
        <time>2013-08-31T09:38:40Z</time>
      </trkpt>
      <trkpt lat="45.81921" lon="4.7906">
        <ele>377.2000122</ele>
        <time>2013-08-31T09:38:41Z</time>
      </trkpt>
      <trkpt lat="45.81926" lon="4.79068">
        <ele>378.2999878</ele>
        <time>2013-08-31T09:38:44Z</time>
      </trkpt>
      <trkpt lat="45.81928" lon="4.79071">
        <ele>377.7999878</ele>
        <time>2013-08-31T09:38:45Z</time>
      </trkpt>
      <trkpt lat="45.81934" lon="4.79078">
        <ele>378.7999878</ele>
        <time>2013-08-31T09:38:49Z</time>
      </trkpt>
      <trkpt lat="45.81935" lon="4.7908">
        <ele>379.2999878</ele>
        <time>2013-08-31T09:38:50Z</time>
      </trkpt>
      <trkpt lat="45.81942" lon="4.79088">
        <ele>381.8999939</ele>
        <time>2013-08-31T09:38:55Z</time>
      </trkpt>
      <trkpt lat="45.81943" lon="4.79091">
        <ele>382.2000122</ele>
        <time>2013-08-31T09:38:56Z</time>
      </trkpt>
      <trkpt lat="45.81948" lon="4.791">
        <ele>383.5</ele>
        <time>2013-08-31T09:38:59Z</time>
      </trkpt>
      <trkpt lat="45.8195" lon="4.79102">
        <ele>383.6000061</ele>
        <time>2013-08-31T09:39:00Z</time>
      </trkpt>
      <trkpt lat="45.81957" lon="4.79108">
        <ele>385.6000061</ele>
        <time>2013-08-31T09:39:05Z</time>
      </trkpt>
      <trkpt lat="45.81958" lon="4.79108">
        <ele>387.1000061</ele>
        <time>2013-08-31T09:39:06Z</time>
      </trkpt>
      <trkpt lat="45.81965" lon="4.79111">
        <ele>388.7999878</ele>
        <time>2013-08-31T09:39:09Z</time>
      </trkpt>
      <trkpt lat="45.81967" lon="4.79114">
        <ele>389.3999939</ele>
        <time>2013-08-31T09:39:10Z</time>
      </trkpt>
      <trkpt lat="45.81971" lon="4.79124">
        <ele>390.5</ele>
        <time>2013-08-31T09:39:14Z</time>
      </trkpt>
      <trkpt lat="45.81972" lon="4.79127">
        <ele>389.8999939</ele>
        <time>2013-08-31T09:39:15Z</time>
      </trkpt>
      <trkpt lat="45.81975" lon="4.79135">
        <ele>390</ele>
        <time>2013-08-31T09:39:18Z</time>
      </trkpt>
      <trkpt lat="45.81976" lon="4.7914">
        <ele>389.7999878</ele>
        <time>2013-08-31T09:39:19Z</time>
      </trkpt>
      <trkpt lat="45.81977" lon="4.79151">
        <ele>388.8999939</ele>
        <time>2013-08-31T09:39:22Z</time>
      </trkpt>
      <trkpt lat="45.81977" lon="4.79154">
        <ele>389.1000061</ele>
        <time>2013-08-31T09:39:23Z</time>
      </trkpt>
      <trkpt lat="45.81978" lon="4.79166">
        <ele>387.1000061</ele>
        <time>2013-08-31T09:39:26Z</time>
      </trkpt>
      <trkpt lat="45.81977" lon="4.79171">
        <ele>387.1000061</ele>
        <time>2013-08-31T09:39:27Z</time>
      </trkpt>
      <trkpt lat="45.81978" lon="4.79183">
        <ele>389.7000122</ele>
        <time>2013-08-31T09:39:32Z</time>
      </trkpt>
      <trkpt lat="45.81978" lon="4.79186">
        <ele>390.7000122</ele>
        <time>2013-08-31T09:39:33Z</time>
      </trkpt>
      <trkpt lat="45.81977" lon="4.79197">
        <ele>392.6000061</ele>
        <time>2013-08-31T09:39:38Z</time>
      </trkpt>
      <trkpt lat="45.81975" lon="4.79199">
        <ele>391.2000122</ele>
        <time>2013-08-31T09:39:39Z</time>
      </trkpt>
      <trkpt lat="45.81983" lon="4.79202">
        <ele>389.2999878</ele>
        <time>2013-08-31T09:39:47Z</time>
      </trkpt>
      <trkpt lat="45.81985" lon="4.792">
        <ele>389.2000122</ele>
        <time>2013-08-31T09:39:48Z</time>
      </trkpt>
      <trkpt lat="45.81991" lon="4.79191">
        <ele>387.8999939</ele>
        <time>2013-08-31T09:39:52Z</time>
      </trkpt>
      <trkpt lat="45.81992" lon="4.79189">
        <ele>388</ele>
        <time>2013-08-31T09:39:53Z</time>
      </trkpt>
      <trkpt lat="45.81997" lon="4.79184">
        <ele>388.7000122</ele>
        <time>2013-08-31T09:39:55Z</time>
      </trkpt>
      <trkpt lat="45.82002" lon="4.79183">
        <ele>387.8999939</ele>
        <time>2013-08-31T09:39:56Z</time>
      </trkpt>
      <trkpt lat="45.82007" lon="4.79178">
        <ele>388.5</ele>
        <time>2013-08-31T09:39:58Z</time>
      </trkpt>
      <trkpt lat="45.82011" lon="4.79176">
        <ele>388.8999939</ele>
        <time>2013-08-31T09:39:59Z</time>
      </trkpt>
      <trkpt lat="45.82016" lon="4.79171">
        <ele>389.1000061</ele>
        <time>2013-08-31T09:40:01Z</time>
      </trkpt>
      <trkpt lat="45.82021" lon="4.79169">
        <ele>388.5</ele>
        <time>2013-08-31T09:40:02Z</time>
      </trkpt>
      <trkpt lat="45.82027" lon="4.79166">
        <ele>388.3999939</ele>
        <time>2013-08-31T09:40:04Z</time>
      </trkpt>
      <trkpt lat="45.82031" lon="4.79163">
        <ele>388.5</ele>
        <time>2013-08-31T09:40:05Z</time>
      </trkpt>
      <trkpt lat="45.82037" lon="4.79157">
        <ele>388.7000122</ele>
        <time>2013-08-31T09:40:07Z</time>
      </trkpt>
      <trkpt lat="45.82041" lon="4.79154">
        <ele>388.7999878</ele>
        <time>2013-08-31T09:40:08Z</time>
      </trkpt>
      <trkpt lat="45.82048" lon="4.79148">
        <ele>388.6000061</ele>
        <time>2013-08-31T09:40:10Z</time>
      </trkpt>
      <trkpt lat="45.82051" lon="4.79146">
        <ele>389.1000061</ele>
        <time>2013-08-31T09:40:11Z</time>
      </trkpt>
      <trkpt lat="45.82058" lon="4.79141">
        <ele>389.2000122</ele>
        <time>2013-08-31T09:40:13Z</time>
      </trkpt>
      <trkpt lat="45.82063" lon="4.79139">
        <ele>388.8999939</ele>
        <time>2013-08-31T09:40:14Z</time>
      </trkpt>
      <trkpt lat="45.8207" lon="4.79134">
        <ele>388.7999878</ele>
        <time>2013-08-31T09:40:16Z</time>
      </trkpt>
      <trkpt lat="45.82074" lon="4.79133">
        <ele>388.7000122</ele>
        <time>2013-08-31T09:40:17Z</time>
      </trkpt>
      <trkpt lat="45.82078" lon="4.79131">
        <ele>388.3999939</ele>
        <time>2013-08-31T09:40:18Z</time>
      </trkpt>
      <trkpt lat="45.82083" lon="4.7913">
        <ele>388</ele>
        <time>2013-08-31T09:40:19Z</time>
      </trkpt>
      <trkpt lat="45.82087" lon="4.79127">
        <ele>388.2000122</ele>
        <time>2013-08-31T09:40:20Z</time>
      </trkpt>
      <trkpt lat="45.82092" lon="4.79125">
        <ele>388</ele>
        <time>2013-08-31T09:40:21Z</time>
      </trkpt>
      <trkpt lat="45.82097" lon="4.79124">
        <ele>388.6000061</ele>
        <time>2013-08-31T09:40:22Z</time>
      </trkpt>
      <trkpt lat="45.82102" lon="4.79122">
        <ele>389.2000122</ele>
        <time>2013-08-31T09:40:23Z</time>
      </trkpt>
      <trkpt lat="45.82109" lon="4.7912">
        <ele>390.7000122</ele>
        <time>2013-08-31T09:40:25Z</time>
      </trkpt>
      <trkpt lat="45.82115" lon="4.79121">
        <ele>388.7999878</ele>
        <time>2013-08-31T09:40:26Z</time>
      </trkpt>
      <trkpt lat="45.82123" lon="4.79118">
        <ele>389.1000061</ele>
        <time>2013-08-31T09:40:28Z</time>
      </trkpt>
      <trkpt lat="45.82128" lon="4.79115">
        <ele>389.7000122</ele>
        <time>2013-08-31T09:40:29Z</time>
      </trkpt>
      <trkpt lat="45.82132" lon="4.79114">
        <ele>389.2999878</ele>
        <time>2013-08-31T09:40:30Z</time>
      </trkpt>
      <trkpt lat="45.82136" lon="4.79113">
        <ele>389.3999939</ele>
        <time>2013-08-31T09:40:31Z</time>
      </trkpt>
      <trkpt lat="45.82142" lon="4.79111">
        <ele>389.6000061</ele>
        <time>2013-08-31T09:40:32Z</time>
      </trkpt>
      <trkpt lat="45.82145" lon="4.7911">
        <ele>389.2000122</ele>
        <time>2013-08-31T09:40:33Z</time>
      </trkpt>
      <trkpt lat="45.82153" lon="4.79107">
        <ele>389.5</ele>
        <time>2013-08-31T09:40:35Z</time>
      </trkpt>
      <trkpt lat="45.82157" lon="4.79106">
        <ele>389.7000122</ele>
        <time>2013-08-31T09:40:36Z</time>
      </trkpt>
      <trkpt lat="45.82165" lon="4.79103">
        <ele>389.6000061</ele>
        <time>2013-08-31T09:40:38Z</time>
      </trkpt>
      <trkpt lat="45.8217" lon="4.791">
        <ele>389.8999939</ele>
        <time>2013-08-31T09:40:39Z</time>
      </trkpt>
      <trkpt lat="45.82174" lon="4.791">
        <ele>390.7999878</ele>
        <time>2013-08-31T09:40:40Z</time>
      </trkpt>
      <trkpt lat="45.82179" lon="4.79099">
        <ele>390.3999939</ele>
        <time>2013-08-31T09:40:41Z</time>
      </trkpt>
      <trkpt lat="45.82183" lon="4.79098">
        <ele>390.2999878</ele>
        <time>2013-08-31T09:40:42Z</time>
      </trkpt>
      <trkpt lat="45.82188" lon="4.79096">
        <ele>389.7999878</ele>
        <time>2013-08-31T09:40:43Z</time>
      </trkpt>
      <trkpt lat="45.82192" lon="4.79094">
        <ele>389.7000122</ele>
        <time>2013-08-31T09:40:44Z</time>
      </trkpt>
      <trkpt lat="45.82197" lon="4.79091">
        <ele>389.6000061</ele>
        <time>2013-08-31T09:40:45Z</time>
      </trkpt>
      <trkpt lat="45.82201" lon="4.79088">
        <ele>389.3999939</ele>
        <time>2013-08-31T09:40:46Z</time>
      </trkpt>
      <trkpt lat="45.82205" lon="4.79085">
        <ele>389.8999939</ele>
        <time>2013-08-31T09:40:47Z</time>
      </trkpt>
      <trkpt lat="45.82209" lon="4.79082">
        <ele>389.7000122</ele>
        <time>2013-08-31T09:40:48Z</time>
      </trkpt>
      <trkpt lat="45.82214" lon="4.7908">
        <ele>389.5</ele>
        <time>2013-08-31T09:40:49Z</time>
      </trkpt>
      <trkpt lat="45.8222" lon="4.79077">
        <ele>389.6000061</ele>
        <time>2013-08-31T09:40:50Z</time>
      </trkpt>
      <trkpt lat="45.82223" lon="4.79073">
        <ele>389.7000122</ele>
        <time>2013-08-31T09:40:51Z</time>
      </trkpt>
      <trkpt lat="45.82231" lon="4.79068">
        <ele>388.3999939</ele>
        <time>2013-08-31T09:40:53Z</time>
      </trkpt>
      <trkpt lat="45.82234" lon="4.79065">
        <ele>388.1000061</ele>
        <time>2013-08-31T09:40:54Z</time>
      </trkpt>
      <trkpt lat="45.82242" lon="4.7906">
        <ele>388.2999878</ele>
        <time>2013-08-31T09:40:56Z</time>
      </trkpt>
      <trkpt lat="45.82246" lon="4.79056">
        <ele>388.7000122</ele>
        <time>2013-08-31T09:40:57Z</time>
      </trkpt>
      <trkpt lat="45.8225" lon="4.79053">
        <ele>388.2999878</ele>
        <time>2013-08-31T09:40:58Z</time>
      </trkpt>
      <trkpt lat="45.82254" lon="4.79049">
        <ele>388.6000061</ele>
        <time>2013-08-31T09:40:59Z</time>
      </trkpt>
      <trkpt lat="45.8226" lon="4.79053">
        <ele>388.1000061</ele>
        <time>2013-08-31T09:41:01Z</time>
      </trkpt>
      <trkpt lat="45.82262" lon="4.79054">
        <ele>388.3999939</ele>
        <time>2013-08-31T09:41:02Z</time>
      </trkpt>
      <trkpt lat="45.82258" lon="4.79061">
        <ele>391.6000061</ele>
        <time>2013-08-31T09:41:09Z</time>
      </trkpt>
      <trkpt lat="45.82255" lon="4.79063">
        <ele>392.1000061</ele>
        <time>2013-08-31T09:41:10Z</time>
      </trkpt>
      <trkpt lat="45.82246" lon="4.79068">
        <ele>395.2999878</ele>
        <time>2013-08-31T09:41:15Z</time>
      </trkpt>
      <trkpt lat="45.82245" lon="4.79068">
        <ele>395.7999878</ele>
        <time>2013-08-31T09:41:16Z</time>
      </trkpt>
      <trkpt lat="45.82237" lon="4.7907">
        <ele>397.2999878</ele>
        <time>2013-08-31T09:41:20Z</time>
      </trkpt>
      <trkpt lat="45.82234" lon="4.79072">
        <ele>397.3999939</ele>
        <time>2013-08-31T09:41:21Z</time>
      </trkpt>
      <trkpt lat="45.82227" lon="4.79074">
        <ele>398.8999939</ele>
        <time>2013-08-31T09:41:24Z</time>
      </trkpt>
      <trkpt lat="45.82224" lon="4.79076">
        <ele>399.2999878</ele>
        <time>2013-08-31T09:41:25Z</time>
      </trkpt>
      <trkpt lat="45.82217" lon="4.79082">
        <ele>399.8999939</ele>
        <time>2013-08-31T09:41:28Z</time>
      </trkpt>
      <trkpt lat="45.82214" lon="4.79084">
        <ele>400.2000122</ele>
        <time>2013-08-31T09:41:29Z</time>
      </trkpt>
      <trkpt lat="45.82211" lon="4.79095">
        <ele>403.2000122</ele>
        <time>2013-08-31T09:41:32Z</time>
      </trkpt>
      <trkpt lat="45.82209" lon="4.79099">
        <ele>402.3999939</ele>
        <time>2013-08-31T09:41:33Z</time>
      </trkpt>
      <trkpt lat="45.82204" lon="4.79104">
        <ele>402</ele>
        <time>2013-08-31T09:41:35Z</time>
      </trkpt>
      <trkpt lat="45.82202" lon="4.79107">
        <ele>402.7000122</ele>
        <time>2013-08-31T09:41:36Z</time>
      </trkpt>
      <trkpt lat="45.82195" lon="4.79112">
        <ele>402.7000122</ele>
        <time>2013-08-31T09:41:39Z</time>
      </trkpt>
      <trkpt lat="45.82194" lon="4.79116">
        <ele>401.6000061</ele>
        <time>2013-08-31T09:41:40Z</time>
      </trkpt>
      <trkpt lat="45.82187" lon="4.79123">
        <ele>400.7999878</ele>
        <time>2013-08-31T09:41:43Z</time>
      </trkpt>
      <trkpt lat="45.82186" lon="4.79126">
        <ele>400.5</ele>
        <time>2013-08-31T09:41:44Z</time>
      </trkpt>
      <trkpt lat="45.82179" lon="4.79133">
        <ele>402.6000061</ele>
        <time>2013-08-31T09:41:48Z</time>
      </trkpt>
      <trkpt lat="45.82177" lon="4.79135">
        <ele>403.1000061</ele>
        <time>2013-08-31T09:41:49Z</time>
      </trkpt>
      <trkpt lat="45.82171" lon="4.79141">
        <ele>403</ele>
        <time>2013-08-31T09:41:54Z</time>
      </trkpt>
      <trkpt lat="45.82169" lon="4.79144">
        <ele>403.1000061</ele>
        <time>2013-08-31T09:41:55Z</time>
      </trkpt>
      <trkpt lat="45.82162" lon="4.7915">
        <ele>408.8999939</ele>
        <time>2013-08-31T09:41:59Z</time>
      </trkpt>
      <trkpt lat="45.82161" lon="4.79151">
        <ele>409.6000061</ele>
        <time>2013-08-31T09:42:00Z</time>
      </trkpt>
      <trkpt lat="45.82154" lon="4.79155">
        <ele>411.6000061</ele>
        <time>2013-08-31T09:42:04Z</time>
      </trkpt>
      <trkpt lat="45.82151" lon="4.7916">
        <ele>411.2999878</ele>
        <time>2013-08-31T09:42:05Z</time>
      </trkpt>
      <trkpt lat="45.82146" lon="4.79166">
        <ele>411.5</ele>
        <time>2013-08-31T09:42:07Z</time>
      </trkpt>
      <trkpt lat="45.82144" lon="4.79169">
        <ele>411.7999878</ele>
        <time>2013-08-31T09:42:08Z</time>
      </trkpt>
      <trkpt lat="45.82139" lon="4.79174">
        <ele>411</ele>
        <time>2013-08-31T09:42:11Z</time>
      </trkpt>
      <trkpt lat="45.82137" lon="4.79177">
        <ele>411.6000061</ele>
        <time>2013-08-31T09:42:12Z</time>
      </trkpt>
      <trkpt lat="45.8213" lon="4.79184">
        <ele>412.2000122</ele>
        <time>2013-08-31T09:42:16Z</time>
      </trkpt>
      <trkpt lat="45.82129" lon="4.79186">
        <ele>412.5</ele>
        <time>2013-08-31T09:42:17Z</time>
      </trkpt>
      <trkpt lat="45.82124" lon="4.79194">
        <ele>417.1000061</ele>
        <time>2013-08-31T09:42:21Z</time>
      </trkpt>
      <trkpt lat="45.82122" lon="4.79195">
        <ele>417.8999939</ele>
        <time>2013-08-31T09:42:22Z</time>
      </trkpt>
      <trkpt lat="45.82116" lon="4.79204">
        <ele>420.6000061</ele>
        <time>2013-08-31T09:42:27Z</time>
      </trkpt>
      <trkpt lat="45.82115" lon="4.79205">
        <ele>420.7000122</ele>
        <time>2013-08-31T09:42:28Z</time>
      </trkpt>
      <trkpt lat="45.82112" lon="4.79212">
        <ele>420.7999878</ele>
        <time>2013-08-31T09:42:31Z</time>
      </trkpt>
      <trkpt lat="45.82111" lon="4.79217">
        <ele>420.2999878</ele>
        <time>2013-08-31T09:42:32Z</time>
      </trkpt>
      <trkpt lat="45.82114" lon="4.79229">
        <ele>419.7999878</ele>
        <time>2013-08-31T09:42:35Z</time>
      </trkpt>
      <trkpt lat="45.82114" lon="4.79233">
        <ele>420.2999878</ele>
        <time>2013-08-31T09:42:36Z</time>
      </trkpt>
      <trkpt lat="45.82118" lon="4.79243">
        <ele>420.5</ele>
        <time>2013-08-31T09:42:40Z</time>
      </trkpt>
      <trkpt lat="45.82119" lon="4.79246">
        <ele>420.7999878</ele>
        <time>2013-08-31T09:42:41Z</time>
      </trkpt>
      <trkpt lat="45.82122" lon="4.79257">
        <ele>419.6000061</ele>
        <time>2013-08-31T09:42:45Z</time>
      </trkpt>
      <trkpt lat="45.82122" lon="4.79259">
        <ele>419.2000122</ele>
        <time>2013-08-31T09:42:46Z</time>
      </trkpt>
      <trkpt lat="45.82123" lon="4.79271">
        <ele>419.2999878</ele>
        <time>2013-08-31T09:42:50Z</time>
      </trkpt>
      <trkpt lat="45.82124" lon="4.79273">
        <ele>419.2999878</ele>
        <time>2013-08-31T09:42:51Z</time>
      </trkpt>
      <trkpt lat="45.82128" lon="4.79283">
        <ele>424.1000061</ele>
        <time>2013-08-31T09:42:55Z</time>
      </trkpt>
      <trkpt lat="45.8213" lon="4.79285">
        <ele>423.3999939</ele>
        <time>2013-08-31T09:42:56Z</time>
      </trkpt>
      <trkpt lat="45.82135" lon="4.79292">
        <ele>418.7000122</ele>
        <time>2013-08-31T09:43:00Z</time>
      </trkpt>
      <trkpt lat="45.8214" lon="4.79292">
        <ele>416.2000122</ele>
        <time>2013-08-31T09:43:01Z</time>
      </trkpt>
      <trkpt lat="45.82147" lon="4.79294">
        <ele>418.5</ele>
        <time>2013-08-31T09:43:04Z</time>
      </trkpt>
      <trkpt lat="45.82149" lon="4.79294">
        <ele>418.2000122</ele>
        <time>2013-08-31T09:43:05Z</time>
      </trkpt>
      <trkpt lat="45.82156" lon="4.79291">
        <ele>418.8999939</ele>
        <time>2013-08-31T09:43:08Z</time>
      </trkpt>
      <trkpt lat="45.82159" lon="4.79291">
        <ele>419</ele>
        <time>2013-08-31T09:43:09Z</time>
      </trkpt>
      <trkpt lat="45.82166" lon="4.79289">
        <ele>420.7999878</ele>
        <time>2013-08-31T09:43:12Z</time>
      </trkpt>
      <trkpt lat="45.82168" lon="4.79287">
        <ele>421.6000061</ele>
        <time>2013-08-31T09:43:13Z</time>
      </trkpt>
      <trkpt lat="45.82175" lon="4.79283">
        <ele>421.2000122</ele>
        <time>2013-08-31T09:43:16Z</time>
      </trkpt>
      <trkpt lat="45.82178" lon="4.79282">
        <ele>420.5</ele>
        <time>2013-08-31T09:43:17Z</time>
      </trkpt>
      <trkpt lat="45.82184" lon="4.79278">
        <ele>422.6000061</ele>
        <time>2013-08-31T09:43:19Z</time>
      </trkpt>
      <trkpt lat="45.82187" lon="4.79277">
        <ele>422.7999878</ele>
        <time>2013-08-31T09:43:20Z</time>
      </trkpt>
      <trkpt lat="45.82193" lon="4.79275">
        <ele>423.7000122</ele>
        <time>2013-08-31T09:43:22Z</time>
      </trkpt>
      <trkpt lat="45.82196" lon="4.79274">
        <ele>423.8999939</ele>
        <time>2013-08-31T09:43:23Z</time>
      </trkpt>
      <trkpt lat="45.82202" lon="4.79271">
        <ele>426.1000061</ele>
        <time>2013-08-31T09:43:25Z</time>
      </trkpt>
      <trkpt lat="45.82205" lon="4.79271">
        <ele>426.3999939</ele>
        <time>2013-08-31T09:43:26Z</time>
      </trkpt>
      <trkpt lat="45.82212" lon="4.79271">
        <ele>425.8999939</ele>
        <time>2013-08-31T09:43:28Z</time>
      </trkpt>
      <trkpt lat="45.82215" lon="4.7927">
        <ele>426.2999878</ele>
        <time>2013-08-31T09:43:29Z</time>
      </trkpt>
      <trkpt lat="45.82223" lon="4.79266">
        <ele>427.3999939</ele>
        <time>2013-08-31T09:43:32Z</time>
      </trkpt>
      <trkpt lat="45.82225" lon="4.79266">
        <ele>427.5</ele>
        <time>2013-08-31T09:43:33Z</time>
      </trkpt>
      <trkpt lat="45.82234" lon="4.79266">
        <ele>428.2000122</ele>
        <time>2013-08-31T09:43:36Z</time>
      </trkpt>
      <trkpt lat="45.82237" lon="4.79266">
        <ele>427.8999939</ele>
        <time>2013-08-31T09:43:37Z</time>
      </trkpt>
      <trkpt lat="45.82241" lon="4.79276">
        <ele>426.8999939</ele>
        <time>2013-08-31T09:43:41Z</time>
      </trkpt>
      <trkpt lat="45.82239" lon="4.79281">
        <ele>425.8999939</ele>
        <time>2013-08-31T09:43:42Z</time>
      </trkpt>
      <trkpt lat="45.82236" lon="4.79292">
        <ele>424.3999939</ele>
        <time>2013-08-31T09:43:44Z</time>
      </trkpt>
      <trkpt lat="45.82233" lon="4.79298">
        <ele>423.8999939</ele>
        <time>2013-08-31T09:43:45Z</time>
      </trkpt>
      <trkpt lat="45.8223" lon="4.79305">
        <ele>422.7000122</ele>
        <time>2013-08-31T09:43:46Z</time>
      </trkpt>
      <trkpt lat="45.82227" lon="4.79311">
        <ele>422.2999878</ele>
        <time>2013-08-31T09:43:47Z</time>
      </trkpt>
      <trkpt lat="45.82224" lon="4.79318">
        <ele>421.7999878</ele>
        <time>2013-08-31T09:43:48Z</time>
      </trkpt>
      <trkpt lat="45.82221" lon="4.79325">
        <ele>422.1000061</ele>
        <time>2013-08-31T09:43:49Z</time>
      </trkpt>
      <trkpt lat="45.82218" lon="4.79334">
        <ele>422.3999939</ele>
        <time>2013-08-31T09:43:50Z</time>
      </trkpt>
      <trkpt lat="45.82215" lon="4.79342">
        <ele>422.7000122</ele>
        <time>2013-08-31T09:43:51Z</time>
      </trkpt>
      <trkpt lat="45.82211" lon="4.7935">
        <ele>423.1000061</ele>
        <time>2013-08-31T09:43:52Z</time>
      </trkpt>
      <trkpt lat="45.82207" lon="4.79358">
        <ele>423</ele>
        <time>2013-08-31T09:43:53Z</time>
      </trkpt>
      <trkpt lat="45.82204" lon="4.79367">
        <ele>422.8999939</ele>
        <time>2013-08-31T09:43:54Z</time>
      </trkpt>
      <trkpt lat="45.82198" lon="4.79378">
        <ele>421.8999939</ele>
        <time>2013-08-31T09:43:55Z</time>
      </trkpt>
      <trkpt lat="45.82194" lon="4.79388">
        <ele>421.2000122</ele>
        <time>2013-08-31T09:43:56Z</time>
      </trkpt>
      <trkpt lat="45.8219" lon="4.79398">
        <ele>420.7000122</ele>
        <time>2013-08-31T09:43:57Z</time>
      </trkpt>
      <trkpt lat="45.82185" lon="4.79407">
        <ele>420.7000122</ele>
        <time>2013-08-31T09:43:58Z</time>
      </trkpt>
      <trkpt lat="45.82181" lon="4.79419">
        <ele>419.2999878</ele>
        <time>2013-08-31T09:43:59Z</time>
      </trkpt>
      <trkpt lat="45.82176" lon="4.7943">
        <ele>418.3999939</ele>
        <time>2013-08-31T09:44:00Z</time>
      </trkpt>
      <trkpt lat="45.82172" lon="4.79439">
        <ele>417.5</ele>
        <time>2013-08-31T09:44:01Z</time>
      </trkpt>
      <trkpt lat="45.82166" lon="4.7945">
        <ele>417</ele>
        <time>2013-08-31T09:44:02Z</time>
      </trkpt>
      <trkpt lat="45.82163" lon="4.79459">
        <ele>416.3999939</ele>
        <time>2013-08-31T09:44:03Z</time>
      </trkpt>
      <trkpt lat="45.82158" lon="4.79469">
        <ele>415.7000122</ele>
        <time>2013-08-31T09:44:04Z</time>
      </trkpt>
      <trkpt lat="45.82153" lon="4.79479">
        <ele>414.8999939</ele>
        <time>2013-08-31T09:44:05Z</time>
      </trkpt>
      <trkpt lat="45.8215" lon="4.79488">
        <ele>414.7000122</ele>
        <time>2013-08-31T09:44:06Z</time>
      </trkpt>
      <trkpt lat="45.82148" lon="4.79498">
        <ele>414.1000061</ele>
        <time>2013-08-31T09:44:07Z</time>
      </trkpt>
      <trkpt lat="45.82146" lon="4.79507">
        <ele>413.7999878</ele>
        <time>2013-08-31T09:44:09Z</time>
      </trkpt>
      <trkpt lat="45.82144" lon="4.79514">
        <ele>412.7000122</ele>
        <time>2013-08-31T09:44:09Z</time>
      </trkpt>
      <trkpt lat="45.82143" lon="4.7952">
        <ele>412.2000122</ele>
        <time>2013-08-31T09:44:10Z</time>
      </trkpt>
      <trkpt lat="45.82142" lon="4.79532">
        <ele>413.1000061</ele>
        <time>2013-08-31T09:44:14Z</time>
      </trkpt>
      <trkpt lat="45.82141" lon="4.79535">
        <ele>413.2000122</ele>
        <time>2013-08-31T09:44:15Z</time>
      </trkpt>
      <trkpt lat="45.82144" lon="4.79545">
        <ele>412.5</ele>
        <time>2013-08-31T09:44:18Z</time>
      </trkpt>
      <trkpt lat="45.82145" lon="4.79547">
        <ele>412.3999939</ele>
        <time>2013-08-31T09:44:19Z</time>
      </trkpt>
      <trkpt lat="45.82147" lon="4.79556">
        <ele>412.1000061</ele>
        <time>2013-08-31T09:44:21Z</time>
      </trkpt>
      <trkpt lat="45.82148" lon="4.79562">
        <ele>412.1000061</ele>
        <time>2013-08-31T09:44:22Z</time>
      </trkpt>
      <trkpt lat="45.82152" lon="4.79571">
        <ele>410.5</ele>
        <time>2013-08-31T09:44:23Z</time>
      </trkpt>
      <trkpt lat="45.82154" lon="4.79577">
        <ele>409.6000061</ele>
        <time>2013-08-31T09:44:24Z</time>
      </trkpt>
      <trkpt lat="45.82156" lon="4.79584">
        <ele>409</ele>
        <time>2013-08-31T09:44:25Z</time>
      </trkpt>
      <trkpt lat="45.82159" lon="4.79592">
        <ele>408.6000061</ele>
        <time>2013-08-31T09:44:26Z</time>
      </trkpt>
      <trkpt lat="45.82162" lon="4.79603">
        <ele>408.2999878</ele>
        <time>2013-08-31T09:44:28Z</time>
      </trkpt>
      <trkpt lat="45.82162" lon="4.79608">
        <ele>408.2999878</ele>
        <time>2013-08-31T09:44:29Z</time>
      </trkpt>
      <trkpt lat="45.82162" lon="4.7962">
        <ele>408.3999939</ele>
        <time>2013-08-31T09:44:31Z</time>
      </trkpt>
      <trkpt lat="45.82167" lon="4.79626">
        <ele>406.7999878</ele>
        <time>2013-08-31T09:44:32Z</time>
      </trkpt>
      <trkpt lat="45.8217" lon="4.79632">
        <ele>406.2999878</ele>
        <time>2013-08-31T09:44:33Z</time>
      </trkpt>
      <trkpt lat="45.82172" lon="4.79638">
        <ele>405.8999939</ele>
        <time>2013-08-31T09:44:34Z</time>
      </trkpt>
      <trkpt lat="45.82175" lon="4.79643">
        <ele>404.7000122</ele>
        <time>2013-08-31T09:44:35Z</time>
      </trkpt>
      <trkpt lat="45.82177" lon="4.79648">
        <ele>404.2000122</ele>
        <time>2013-08-31T09:44:36Z</time>
      </trkpt>
      <trkpt lat="45.82181" lon="4.79654">
        <ele>402.2000122</ele>
        <time>2013-08-31T09:44:37Z</time>
      </trkpt>
      <trkpt lat="45.82184" lon="4.79659">
        <ele>400.2000122</ele>
        <time>2013-08-31T09:44:38Z</time>
      </trkpt>
      <trkpt lat="45.8219" lon="4.79668">
        <ele>398.8999939</ele>
        <time>2013-08-31T09:44:40Z</time>
      </trkpt>
      <trkpt lat="45.82192" lon="4.79672">
        <ele>398.5</ele>
        <time>2013-08-31T09:44:41Z</time>
      </trkpt>
      <trkpt lat="45.82196" lon="4.79681">
        <ele>398.2000122</ele>
        <time>2013-08-31T09:44:44Z</time>
      </trkpt>
      <trkpt lat="45.82197" lon="4.79685">
        <ele>397.7000122</ele>
        <time>2013-08-31T09:44:45Z</time>
      </trkpt>
      <trkpt lat="45.82205" lon="4.79688">
        <ele>395.3999939</ele>
        <time>2013-08-31T09:44:48Z</time>
      </trkpt>
      <trkpt lat="45.82207" lon="4.7969">
        <ele>394.5</ele>
        <time>2013-08-31T09:44:49Z</time>
      </trkpt>
      <trkpt lat="45.82215" lon="4.79687">
        <ele>393.5</ele>
        <time>2013-08-31T09:44:52Z</time>
      </trkpt>
      <trkpt lat="45.82218" lon="4.79687">
        <ele>393.2999878</ele>
        <time>2013-08-31T09:44:53Z</time>
      </trkpt>
      <trkpt lat="45.82222" lon="4.79688">
        <ele>392.6000061</ele>
        <time>2013-08-31T09:44:54Z</time>
      </trkpt>
      <trkpt lat="45.82228" lon="4.79688">
        <ele>391.8999939</ele>
        <time>2013-08-31T09:44:55Z</time>
      </trkpt>
      <trkpt lat="45.82234" lon="4.79691">
        <ele>391.2000122</ele>
        <time>2013-08-31T09:44:56Z</time>
      </trkpt>
      <trkpt lat="45.8224" lon="4.79692">
        <ele>390.2999878</ele>
        <time>2013-08-31T09:44:57Z</time>
      </trkpt>
      <trkpt lat="45.82242" lon="4.79699">
        <ele>388.8999939</ele>
        <time>2013-08-31T09:44:58Z</time>
      </trkpt>
      <trkpt lat="45.82245" lon="4.79703">
        <ele>390</ele>
        <time>2013-08-31T09:44:59Z</time>
      </trkpt>
      <trkpt lat="45.8225" lon="4.79709">
        <ele>391.6000061</ele>
        <time>2013-08-31T09:45:01Z</time>
      </trkpt>
      <trkpt lat="45.82252" lon="4.79712">
        <ele>391.2999878</ele>
        <time>2013-08-31T09:45:02Z</time>
      </trkpt>
      <trkpt lat="45.82257" lon="4.79721">
        <ele>390.5</ele>
        <time>2013-08-31T09:45:05Z</time>
      </trkpt>
      <trkpt lat="45.82257" lon="4.79723">
        <ele>391.1000061</ele>
        <time>2013-08-31T09:45:06Z</time>
      </trkpt>
      <trkpt lat="45.82253" lon="4.79731">
        <ele>393</ele>
        <time>2013-08-31T09:45:07Z</time>
      </trkpt>
      <trkpt lat="45.82252" lon="4.79738">
        <ele>393</ele>
        <time>2013-08-31T09:45:08Z</time>
      </trkpt>
      <trkpt lat="45.82252" lon="4.79751">
        <ele>391.5</ele>
        <time>2013-08-31T09:45:10Z</time>
      </trkpt>
      <trkpt lat="45.8225" lon="4.79759">
        <ele>391.7999878</ele>
        <time>2013-08-31T09:45:11Z</time>
      </trkpt>
      <trkpt lat="45.82248" lon="4.79771">
        <ele>390.7000122</ele>
        <time>2013-08-31T09:45:13Z</time>
      </trkpt>
      <trkpt lat="45.82247" lon="4.79777">
        <ele>390.3999939</ele>
        <time>2013-08-31T09:45:14Z</time>
      </trkpt>
      <trkpt lat="45.82246" lon="4.79785">
        <ele>390.6000061</ele>
        <time>2013-08-31T09:45:15Z</time>
      </trkpt>
      <trkpt lat="45.82246" lon="4.79791">
        <ele>389.6000061</ele>
        <time>2013-08-31T09:45:16Z</time>
      </trkpt>
      <trkpt lat="45.82243" lon="4.79803">
        <ele>389.6000061</ele>
        <time>2013-08-31T09:45:18Z</time>
      </trkpt>
      <trkpt lat="45.82242" lon="4.79808">
        <ele>390</ele>
        <time>2013-08-31T09:45:19Z</time>
      </trkpt>
      <trkpt lat="45.82249" lon="4.79813">
        <ele>389.2000122</ele>
        <time>2013-08-31T09:45:28Z</time>
      </trkpt>
      <trkpt lat="45.82251" lon="4.79812">
        <ele>389.8999939</ele>
        <time>2013-08-31T09:45:29Z</time>
      </trkpt>
      <trkpt lat="45.82258" lon="4.79807">
        <ele>389.7000122</ele>
        <time>2013-08-31T09:45:33Z</time>
      </trkpt>
      <trkpt lat="45.82259" lon="4.79805">
        <ele>390.1000061</ele>
        <time>2013-08-31T09:45:34Z</time>
      </trkpt>
      <trkpt lat="45.82263" lon="4.79795">
        <ele>391.7000122</ele>
        <time>2013-08-31T09:45:38Z</time>
      </trkpt>
      <trkpt lat="45.82264" lon="4.79792">
        <ele>391.7000122</ele>
        <time>2013-08-31T09:45:39Z</time>
      </trkpt>
      <trkpt lat="45.82267" lon="4.79781">
        <ele>392.7000122</ele>
        <time>2013-08-31T09:45:43Z</time>
      </trkpt>
      <trkpt lat="45.82269" lon="4.79778">
        <ele>391.8999939</ele>
        <time>2013-08-31T09:45:44Z</time>
      </trkpt>
      <trkpt lat="45.82275" lon="4.79768">
        <ele>394.1000061</ele>
        <time>2013-08-31T09:45:48Z</time>
      </trkpt>
      <trkpt lat="45.82276" lon="4.79764">
        <ele>393.7000122</ele>
        <time>2013-08-31T09:45:49Z</time>
      </trkpt>
      <trkpt lat="45.8228" lon="4.79753">
        <ele>393.8999939</ele>
        <time>2013-08-31T09:45:52Z</time>
      </trkpt>
      <trkpt lat="45.82282" lon="4.79752">
        <ele>395.7000122</ele>
        <time>2013-08-31T09:45:53Z</time>
      </trkpt>
      <trkpt lat="45.82288" lon="4.79743">
        <ele>396.1000061</ele>
        <time>2013-08-31T09:45:56Z</time>
      </trkpt>
      <trkpt lat="45.8229" lon="4.79741">
        <ele>395.7999878</ele>
        <time>2013-08-31T09:45:57Z</time>
      </trkpt>
      <trkpt lat="45.82297" lon="4.79734">
        <ele>396.2000122</ele>
        <time>2013-08-31T09:46:00Z</time>
      </trkpt>
      <trkpt lat="45.82299" lon="4.79732">
        <ele>396.6000061</ele>
        <time>2013-08-31T09:46:01Z</time>
      </trkpt>
      <trkpt lat="45.82307" lon="4.79727">
        <ele>397.1000061</ele>
        <time>2013-08-31T09:46:05Z</time>
      </trkpt>
      <trkpt lat="45.8231" lon="4.79726">
        <ele>396.5</ele>
        <time>2013-08-31T09:46:06Z</time>
      </trkpt>
      <trkpt lat="45.82318" lon="4.79723">
        <ele>395.8999939</ele>
        <time>2013-08-31T09:46:10Z</time>
      </trkpt>
      <trkpt lat="45.82321" lon="4.79722">
        <ele>396.3999939</ele>
        <time>2013-08-31T09:46:11Z</time>
      </trkpt>
      <trkpt lat="45.82326" lon="4.79717">
        <ele>396.2000122</ele>
        <time>2013-08-31T09:46:14Z</time>
      </trkpt>
      <trkpt lat="45.82328" lon="4.79714">
        <ele>395.8999939</ele>
        <time>2013-08-31T09:46:15Z</time>
      </trkpt>
      <trkpt lat="45.82336" lon="4.79708">
        <ele>397.2999878</ele>
        <time>2013-08-31T09:46:18Z</time>
      </trkpt>
      <trkpt lat="45.82337" lon="4.79707">
        <ele>397.5</ele>
        <time>2013-08-31T09:46:19Z</time>
      </trkpt>
      <trkpt lat="45.82345" lon="4.79703">
        <ele>398</ele>
        <time>2013-08-31T09:46:23Z</time>
      </trkpt>
      <trkpt lat="45.82347" lon="4.79702">
        <ele>398.3999939</ele>
        <time>2013-08-31T09:46:24Z</time>
      </trkpt>
      <trkpt lat="45.82352" lon="4.79696">
        <ele>399.8999939</ele>
        <time>2013-08-31T09:46:26Z</time>
      </trkpt>
      <trkpt lat="45.82354" lon="4.79694">
        <ele>401.1000061</ele>
        <time>2013-08-31T09:46:27Z</time>
      </trkpt>
      <trkpt lat="45.82362" lon="4.79689">
        <ele>403.6000061</ele>
        <time>2013-08-31T09:46:30Z</time>
      </trkpt>
      <trkpt lat="45.82363" lon="4.79685">
        <ele>404.2000122</ele>
        <time>2013-08-31T09:46:31Z</time>
      </trkpt>
      <trkpt lat="45.82368" lon="4.79679">
        <ele>404.1000061</ele>
        <time>2013-08-31T09:46:34Z</time>
      </trkpt>
      <trkpt lat="45.8237" lon="4.79676">
        <ele>403.7000122</ele>
        <time>2013-08-31T09:46:35Z</time>
      </trkpt>
      <trkpt lat="45.82378" lon="4.79669">
        <ele>405.2999878</ele>
        <time>2013-08-31T09:46:39Z</time>
      </trkpt>
      <trkpt lat="45.82379" lon="4.79667">
        <ele>405.5</ele>
        <time>2013-08-31T09:46:40Z</time>
      </trkpt>
      <trkpt lat="45.82384" lon="4.79659">
        <ele>406.3999939</ele>
        <time>2013-08-31T09:46:43Z</time>
      </trkpt>
      <trkpt lat="45.82385" lon="4.79657">
        <ele>406.2000122</ele>
        <time>2013-08-31T09:46:44Z</time>
      </trkpt>
      <trkpt lat="45.82391" lon="4.79647">
        <ele>406.3999939</ele>
        <time>2013-08-31T09:46:48Z</time>
      </trkpt>
      <trkpt lat="45.82392" lon="4.79645">
        <ele>406.5</ele>
        <time>2013-08-31T09:46:49Z</time>
      </trkpt>
      <trkpt lat="45.82398" lon="4.79637">
        <ele>408</ele>
        <time>2013-08-31T09:46:53Z</time>
      </trkpt>
      <trkpt lat="45.82398" lon="4.79635">
        <ele>408.2000122</ele>
        <time>2013-08-31T09:46:54Z</time>
      </trkpt>
      <trkpt lat="45.82404" lon="4.79629">
        <ele>414.7000122</ele>
        <time>2013-08-31T09:46:58Z</time>
      </trkpt>
      <trkpt lat="45.82406" lon="4.79627">
        <ele>414.2999878</ele>
        <time>2013-08-31T09:46:59Z</time>
      </trkpt>
      <trkpt lat="45.82412" lon="4.79621">
        <ele>414</ele>
        <time>2013-08-31T09:47:03Z</time>
      </trkpt>
      <trkpt lat="45.82414" lon="4.79619">
        <ele>413.7999878</ele>
        <time>2013-08-31T09:47:04Z</time>
      </trkpt>
      <trkpt lat="45.82419" lon="4.79612">
        <ele>411.3999939</ele>
        <time>2013-08-31T09:47:08Z</time>
      </trkpt>
      <trkpt lat="45.8242" lon="4.7961">
        <ele>411.2000122</ele>
        <time>2013-08-31T09:47:09Z</time>
      </trkpt>
      <trkpt lat="45.82426" lon="4.79605">
        <ele>413.2000122</ele>
        <time>2013-08-31T09:47:13Z</time>
      </trkpt>
      <trkpt lat="45.82428" lon="4.79603">
        <ele>414</ele>
        <time>2013-08-31T09:47:14Z</time>
      </trkpt>
      <trkpt lat="45.82436" lon="4.79599">
        <ele>417.6000061</ele>
        <time>2013-08-31T09:47:19Z</time>
      </trkpt>
      <trkpt lat="45.82438" lon="4.79598">
        <ele>417.8999939</ele>
        <time>2013-08-31T09:47:20Z</time>
      </trkpt>
      <trkpt lat="45.82446" lon="4.79593">
        <ele>418</ele>
        <time>2013-08-31T09:47:24Z</time>
      </trkpt>
      <trkpt lat="45.82448" lon="4.79592">
        <ele>418.2999878</ele>
        <time>2013-08-31T09:47:25Z</time>
      </trkpt>
      <trkpt lat="45.82454" lon="4.79584">
        <ele>418.5</ele>
        <time>2013-08-31T09:47:29Z</time>
      </trkpt>
      <trkpt lat="45.82455" lon="4.79582">
        <ele>418.7000122</ele>
        <time>2013-08-31T09:47:30Z</time>
      </trkpt>
      <trkpt lat="45.82462" lon="4.79578">
        <ele>419.1000061</ele>
        <time>2013-08-31T09:47:34Z</time>
      </trkpt>
      <trkpt lat="45.82466" lon="4.79577">
        <ele>418.8999939</ele>
        <time>2013-08-31T09:47:35Z</time>
      </trkpt>
      <trkpt lat="45.82473" lon="4.79575">
        <ele>423.2000122</ele>
        <time>2013-08-31T09:47:40Z</time>
      </trkpt>
      <trkpt lat="45.82476" lon="4.79573">
        <ele>422.8999939</ele>
        <time>2013-08-31T09:47:41Z</time>
      </trkpt>
      <trkpt lat="45.82483" lon="4.7957">
        <ele>422.7999878</ele>
        <time>2013-08-31T09:47:44Z</time>
      </trkpt>
      <trkpt lat="45.82485" lon="4.7957">
        <ele>423.2000122</ele>
        <time>2013-08-31T09:47:45Z</time>
      </trkpt>
      <trkpt lat="45.82494" lon="4.79571">
        <ele>424.2999878</ele>
        <time>2013-08-31T09:47:52Z</time>
      </trkpt>
      <trkpt lat="45.82496" lon="4.79569">
        <ele>424.2999878</ele>
        <time>2013-08-31T09:47:53Z</time>
      </trkpt>
      <trkpt lat="45.82501" lon="4.79569">
        <ele>424.5</ele>
        <time>2013-08-31T09:47:55Z</time>
      </trkpt>
      <trkpt lat="45.82505" lon="4.79567">
        <ele>424.2000122</ele>
        <time>2013-08-31T09:47:56Z</time>
      </trkpt>
      <trkpt lat="45.82512" lon="4.79564">
        <ele>424.2999878</ele>
        <time>2013-08-31T09:47:59Z</time>
      </trkpt>
      <trkpt lat="45.82515" lon="4.79563">
        <ele>423.7999878</ele>
        <time>2013-08-31T09:48:00Z</time>
      </trkpt>
      <trkpt lat="45.82521" lon="4.79558">
        <ele>425.3999939</ele>
        <time>2013-08-31T09:48:04Z</time>
      </trkpt>
      <trkpt lat="45.82524" lon="4.79557">
        <ele>425.2999878</ele>
        <time>2013-08-31T09:48:05Z</time>
      </trkpt>
      <trkpt lat="45.82529" lon="4.79549">
        <ele>426.2999878</ele>
        <time>2013-08-31T09:48:10Z</time>
      </trkpt>
      <trkpt lat="45.82531" lon="4.79548">
        <ele>426.5</ele>
        <time>2013-08-31T09:48:11Z</time>
      </trkpt>
      <trkpt lat="45.82536" lon="4.79543">
        <ele>426.1000061</ele>
        <time>2013-08-31T09:48:13Z</time>
      </trkpt>
      <trkpt lat="45.82539" lon="4.7954">
        <ele>426</ele>
        <time>2013-08-31T09:48:14Z</time>
      </trkpt>
      <trkpt lat="45.82546" lon="4.79533">
        <ele>426.7999878</ele>
        <time>2013-08-31T09:48:16Z</time>
      </trkpt>
      <trkpt lat="45.82547" lon="4.79532">
        <ele>426.7999878</ele>
        <time>2013-08-31T09:48:17Z</time>
      </trkpt>
      <trkpt lat="45.82554" lon="4.79531">
        <ele>426.8999939</ele>
        <time>2013-08-31T09:48:19Z</time>
      </trkpt>
      <trkpt lat="45.8256" lon="4.79531">
        <ele>426.2999878</ele>
        <time>2013-08-31T09:48:20Z</time>
      </trkpt>
      <trkpt lat="45.82566" lon="4.79524">
        <ele>426.2999878</ele>
        <time>2013-08-31T09:48:22Z</time>
      </trkpt>
      <trkpt lat="45.8257" lon="4.79523">
        <ele>427.8999939</ele>
        <time>2013-08-31T09:48:23Z</time>
      </trkpt>
      <trkpt lat="45.82574" lon="4.79531">
        <ele>429.8999939</ele>
        <time>2013-08-31T09:48:25Z</time>
      </trkpt>
      <trkpt lat="45.82576" lon="4.79533">
        <ele>429.6000061</ele>
        <time>2013-08-31T09:48:26Z</time>
      </trkpt>
      <trkpt lat="45.82578" lon="4.79543">
        <ele>428.2000122</ele>
        <time>2013-08-31T09:48:29Z</time>
      </trkpt>
      <trkpt lat="45.8258" lon="4.79547">
        <ele>427.2999878</ele>
        <time>2013-08-31T09:48:30Z</time>
      </trkpt>
      <trkpt lat="45.82581" lon="4.79557">
        <ele>426</ele>
        <time>2013-08-31T09:48:33Z</time>
      </trkpt>
      <trkpt lat="45.82582" lon="4.79561">
        <ele>426.7999878</ele>
        <time>2013-08-31T09:48:34Z</time>
      </trkpt>
      <trkpt lat="45.82587" lon="4.79569">
        <ele>428.2000122</ele>
        <time>2013-08-31T09:48:36Z</time>
      </trkpt>
      <trkpt lat="45.8259" lon="4.79575">
        <ele>428.6000061</ele>
        <time>2013-08-31T09:48:37Z</time>
      </trkpt>
      <trkpt lat="45.82593" lon="4.79584">
        <ele>428.6000061</ele>
        <time>2013-08-31T09:48:38Z</time>
      </trkpt>
      <trkpt lat="45.82596" lon="4.79594">
        <ele>428.1000061</ele>
        <time>2013-08-31T09:48:39Z</time>
      </trkpt>
      <trkpt lat="45.82599" lon="4.79604">
        <ele>426.7000122</ele>
        <time>2013-08-31T09:48:40Z</time>
      </trkpt>
      <trkpt lat="45.82601" lon="4.79614">
        <ele>425.6000061</ele>
        <time>2013-08-31T09:48:41Z</time>
      </trkpt>
      <trkpt lat="45.82604" lon="4.79626">
        <ele>426.2999878</ele>
        <time>2013-08-31T09:48:43Z</time>
      </trkpt>
      <trkpt lat="45.82606" lon="4.79629">
        <ele>426.7000122</ele>
        <time>2013-08-31T09:48:44Z</time>
      </trkpt>
      <trkpt lat="45.8261" lon="4.79636">
        <ele>427</ele>
        <time>2013-08-31T09:48:46Z</time>
      </trkpt>
      <trkpt lat="45.82612" lon="4.79641">
        <ele>425.5</ele>
        <time>2013-08-31T09:48:47Z</time>
      </trkpt>
      <trkpt lat="45.82615" lon="4.79649">
        <ele>424.5</ele>
        <time>2013-08-31T09:48:49Z</time>
      </trkpt>
      <trkpt lat="45.82616" lon="4.79654">
        <ele>423.3999939</ele>
        <time>2013-08-31T09:48:50Z</time>
      </trkpt>
      <trkpt lat="45.8262" lon="4.79662">
        <ele>422.1000061</ele>
        <time>2013-08-31T09:48:52Z</time>
      </trkpt>
      <trkpt lat="45.82623" lon="4.79666">
        <ele>420.7000122</ele>
        <time>2013-08-31T09:48:53Z</time>
      </trkpt>
      <trkpt lat="45.82627" lon="4.79676">
        <ele>419.7999878</ele>
        <time>2013-08-31T09:48:56Z</time>
      </trkpt>
      <trkpt lat="45.82629" lon="4.79679">
        <ele>419.3999939</ele>
        <time>2013-08-31T09:48:57Z</time>
      </trkpt>
      <trkpt lat="45.82634" lon="4.79688">
        <ele>417.7000122</ele>
        <time>2013-08-31T09:49:02Z</time>
      </trkpt>
      <trkpt lat="45.82635" lon="4.79689">
        <ele>417.6000061</ele>
        <time>2013-08-31T09:49:03Z</time>
      </trkpt>
      <trkpt lat="45.82634" lon="4.79701">
        <ele>420.2000122</ele>
        <time>2013-08-31T09:49:11Z</time>
      </trkpt>
      <trkpt lat="45.82634" lon="4.79702">
        <ele>420.2999878</ele>
        <time>2013-08-31T09:49:12Z</time>
      </trkpt>
      <trkpt lat="45.82629" lon="4.79713">
        <ele>422.2000122</ele>
        <time>2013-08-31T09:49:16Z</time>
      </trkpt>
      <trkpt lat="45.82628" lon="4.79716">
        <ele>421.8999939</ele>
        <time>2013-08-31T09:49:17Z</time>
      </trkpt>
      <trkpt lat="45.82623" lon="4.79726">
        <ele>423.2999878</ele>
        <time>2013-08-31T09:49:20Z</time>
      </trkpt>
      <trkpt lat="45.82622" lon="4.7973">
        <ele>423.2000122</ele>
        <time>2013-08-31T09:49:21Z</time>
      </trkpt>
      <trkpt lat="45.82619" lon="4.79741">
        <ele>421.1000061</ele>
        <time>2013-08-31T09:49:33Z</time>
      </trkpt>
      <trkpt lat="45.82618" lon="4.79741">
        <ele>421.1000061</ele>
        <time>2013-08-31T09:49:34Z</time>
      </trkpt>
      <trkpt lat="45.82618" lon="4.79741">
        <ele>421.1000061</ele>
        <time>2013-08-31T09:49:37Z</time>
      </trkpt>
      <trkpt lat="45.82618" lon="4.79742">
        <ele>420.7999878</ele>
        <time>2013-08-31T09:49:38Z</time>
      </trkpt>
      <trkpt lat="45.82618" lon="4.79742">
        <ele>420.8999939</ele>
        <time>2013-08-31T09:49:39Z</time>
      </trkpt>
      <trkpt lat="45.82617" lon="4.79742">
        <ele>420.6000061</ele>
        <time>2013-08-31T09:49:40Z</time>
      </trkpt>
      <trkpt lat="45.82619" lon="4.79753">
        <ele>420.2999878</ele>
        <time>2013-08-31T09:49:45Z</time>
      </trkpt>
      <trkpt lat="45.82618" lon="4.79757">
        <ele>420.2000122</ele>
        <time>2013-08-31T09:49:46Z</time>
      </trkpt>
      <trkpt lat="45.82617" lon="4.79767">
        <ele>419</ele>
        <time>2013-08-31T09:49:48Z</time>
      </trkpt>
      <trkpt lat="45.82617" lon="4.79773">
        <ele>418.5</ele>
        <time>2013-08-31T09:49:49Z</time>
      </trkpt>
      <trkpt lat="45.82617" lon="4.79783">
        <ele>418.6000061</ele>
        <time>2013-08-31T09:49:52Z</time>
      </trkpt>
      <trkpt lat="45.82618" lon="4.79786">
        <ele>418.7999878</ele>
        <time>2013-08-31T09:49:53Z</time>
      </trkpt>
      <trkpt lat="45.82619" lon="4.79798">
        <ele>420.5</ele>
        <time>2013-08-31T09:49:56Z</time>
      </trkpt>
      <trkpt lat="45.82619" lon="4.798">
        <ele>420.8999939</ele>
        <time>2013-08-31T09:49:57Z</time>
      </trkpt>
      <trkpt lat="45.82619" lon="4.79811">
        <ele>421.2000122</ele>
        <time>2013-08-31T09:49:59Z</time>
      </trkpt>
      <trkpt lat="45.82619" lon="4.79814">
        <ele>421</ele>
        <time>2013-08-31T09:50:00Z</time>
      </trkpt>
      <trkpt lat="45.82619" lon="4.79823">
        <ele>420.1000061</ele>
        <time>2013-08-31T09:50:01Z</time>
      </trkpt>
      <trkpt lat="45.82619" lon="4.79831">
        <ele>419.3999939</ele>
        <time>2013-08-31T09:50:02Z</time>
      </trkpt>
      <trkpt lat="45.82619" lon="4.79844">
        <ele>418.7000122</ele>
        <time>2013-08-31T09:50:03Z</time>
      </trkpt>
      <trkpt lat="45.82617" lon="4.79852">
        <ele>418.1000061</ele>
        <time>2013-08-31T09:50:04Z</time>
      </trkpt>
      <trkpt lat="45.82615" lon="4.7986">
        <ele>417.7000122</ele>
        <time>2013-08-31T09:50:05Z</time>
      </trkpt>
      <trkpt lat="45.82612" lon="4.79869">
        <ele>417.7000122</ele>
        <time>2013-08-31T09:50:06Z</time>
      </trkpt>
      <trkpt lat="45.82605" lon="4.79877">
        <ele>419.2000122</ele>
        <time>2013-08-31T09:50:07Z</time>
      </trkpt>
      <trkpt lat="45.82602" lon="4.79884">
        <ele>421.2999878</ele>
        <time>2013-08-31T09:50:08Z</time>
      </trkpt>
      <trkpt lat="45.826" lon="4.7989">
        <ele>422</ele>
        <time>2013-08-31T09:50:09Z</time>
      </trkpt>
      <trkpt lat="45.82597" lon="4.79898">
        <ele>421.3999939</ele>
        <time>2013-08-31T09:50:10Z</time>
      </trkpt>
      <trkpt lat="45.82595" lon="4.79903">
        <ele>419.5</ele>
        <time>2013-08-31T09:50:11Z</time>
      </trkpt>
      <trkpt lat="45.82593" lon="4.79911">
        <ele>419</ele>
        <time>2013-08-31T09:50:12Z</time>
      </trkpt>
      <trkpt lat="45.82592" lon="4.79918">
        <ele>417.3999939</ele>
        <time>2013-08-31T09:50:13Z</time>
      </trkpt>
      <trkpt lat="45.8259" lon="4.79925">
        <ele>417.5</ele>
        <time>2013-08-31T09:50:14Z</time>
      </trkpt>
      <trkpt lat="45.82589" lon="4.79933">
        <ele>416.2000122</ele>
        <time>2013-08-31T09:50:15Z</time>
      </trkpt>
      <trkpt lat="45.82587" lon="4.79943">
        <ele>418.2000122</ele>
        <time>2013-08-31T09:50:17Z</time>
      </trkpt>
      <trkpt lat="45.82587" lon="4.79949">
        <ele>418.6000061</ele>
        <time>2013-08-31T09:50:18Z</time>
      </trkpt>
      <trkpt lat="45.82585" lon="4.79961">
        <ele>417.6000061</ele>
        <time>2013-08-31T09:50:20Z</time>
      </trkpt>
      <trkpt lat="45.82584" lon="4.79965">
        <ele>417.2999878</ele>
        <time>2013-08-31T09:50:21Z</time>
      </trkpt>
      <trkpt lat="45.82582" lon="4.79972">
        <ele>417.5</ele>
        <time>2013-08-31T09:50:22Z</time>
      </trkpt>
      <trkpt lat="45.8258" lon="4.79976">
        <ele>417.5</ele>
        <time>2013-08-31T09:50:23Z</time>
      </trkpt>
      <trkpt lat="45.82577" lon="4.79984">
        <ele>417.3999939</ele>
        <time>2013-08-31T09:50:24Z</time>
      </trkpt>
      <trkpt lat="45.82575" lon="4.79988">
        <ele>417.1000061</ele>
        <time>2013-08-31T09:50:25Z</time>
      </trkpt>
      <trkpt lat="45.82572" lon="4.8">
        <ele>417.2000122</ele>
        <time>2013-08-31T09:50:26Z</time>
      </trkpt>
      <trkpt lat="45.8257" lon="4.80007">
        <ele>416.7999878</ele>
        <time>2013-08-31T09:50:27Z</time>
      </trkpt>
      <trkpt lat="45.82569" lon="4.80017">
        <ele>417.3999939</ele>
        <time>2013-08-31T09:50:28Z</time>
      </trkpt>
      <trkpt lat="45.82566" lon="4.80025">
        <ele>417.3999939</ele>
        <time>2013-08-31T09:50:29Z</time>
      </trkpt>
      <trkpt lat="45.82564" lon="4.80032">
        <ele>418</ele>
        <time>2013-08-31T09:50:30Z</time>
      </trkpt>
      <trkpt lat="45.82563" lon="4.8004">
        <ele>418.2000122</ele>
        <time>2013-08-31T09:50:31Z</time>
      </trkpt>
      <trkpt lat="45.82561" lon="4.8005">
        <ele>418</ele>
        <time>2013-08-31T09:50:33Z</time>
      </trkpt>
      <trkpt lat="45.8256" lon="4.80056">
        <ele>418.8999939</ele>
        <time>2013-08-31T09:50:34Z</time>
      </trkpt>
      <trkpt lat="45.82558" lon="4.80066">
        <ele>418.7000122</ele>
        <time>2013-08-31T09:50:36Z</time>
      </trkpt>
      <trkpt lat="45.82556" lon="4.80072">
        <ele>418.2999878</ele>
        <time>2013-08-31T09:50:37Z</time>
      </trkpt>
      <trkpt lat="45.82551" lon="4.80083">
        <ele>418.7999878</ele>
        <time>2013-08-31T09:50:39Z</time>
      </trkpt>
      <trkpt lat="45.82549" lon="4.80087">
        <ele>418.8999939</ele>
        <time>2013-08-31T09:50:40Z</time>
      </trkpt>
      <trkpt lat="45.82543" lon="4.80091">
        <ele>418.7999878</ele>
        <time>2013-08-31T09:50:41Z</time>
      </trkpt>
      <trkpt lat="45.8254" lon="4.80097">
        <ele>418.6000061</ele>
        <time>2013-08-31T09:50:42Z</time>
      </trkpt>
      <trkpt lat="45.82535" lon="4.80103">
        <ele>418.2999878</ele>
        <time>2013-08-31T09:50:43Z</time>
      </trkpt>
      <trkpt lat="45.8253" lon="4.80109">
        <ele>417.7000122</ele>
        <time>2013-08-31T09:50:44Z</time>
      </trkpt>
      <trkpt lat="45.82524" lon="4.80116">
        <ele>417</ele>
        <time>2013-08-31T09:50:45Z</time>
      </trkpt>
      <trkpt lat="45.82519" lon="4.80122">
        <ele>417.2000122</ele>
        <time>2013-08-31T09:50:46Z</time>
      </trkpt>
      <trkpt lat="45.82512" lon="4.8013">
        <ele>416.2999878</ele>
        <time>2013-08-31T09:50:47Z</time>
      </trkpt>
      <trkpt lat="45.82506" lon="4.80137">
        <ele>416.6000061</ele>
        <time>2013-08-31T09:50:48Z</time>
      </trkpt>
      <trkpt lat="45.825" lon="4.80143">
        <ele>416.8999939</ele>
        <time>2013-08-31T09:50:49Z</time>
      </trkpt>
      <trkpt lat="45.82494" lon="4.80153">
        <ele>416.7999878</ele>
        <time>2013-08-31T09:50:50Z</time>
      </trkpt>
      <trkpt lat="45.82488" lon="4.80159">
        <ele>416.8999939</ele>
        <time>2013-08-31T09:50:51Z</time>
      </trkpt>
      <trkpt lat="45.82482" lon="4.80167">
        <ele>416.7000122</ele>
        <time>2013-08-31T09:50:52Z</time>
      </trkpt>
      <trkpt lat="45.82474" lon="4.80175">
        <ele>416</ele>
        <time>2013-08-31T09:50:53Z</time>
      </trkpt>
      <trkpt lat="45.82468" lon="4.80181">
        <ele>415.5</ele>
        <time>2013-08-31T09:50:54Z</time>
      </trkpt>
      <trkpt lat="45.82463" lon="4.80188">
        <ele>415.6000061</ele>
        <time>2013-08-31T09:50:55Z</time>
      </trkpt>
      <trkpt lat="45.82456" lon="4.80198">
        <ele>415.7999878</ele>
        <time>2013-08-31T09:50:56Z</time>
      </trkpt>
      <trkpt lat="45.82451" lon="4.80204">
        <ele>415.7999878</ele>
        <time>2013-08-31T09:50:57Z</time>
      </trkpt>
      <trkpt lat="45.82446" lon="4.80213">
        <ele>415.7999878</ele>
        <time>2013-08-31T09:50:58Z</time>
      </trkpt>
      <trkpt lat="45.82446" lon="4.80225">
        <ele>416.2000122</ele>
        <time>2013-08-31T09:51:02Z</time>
      </trkpt>
      <trkpt lat="45.82444" lon="4.80227">
        <ele>416.2999878</ele>
        <time>2013-08-31T09:51:03Z</time>
      </trkpt>
      <trkpt lat="45.82443" lon="4.80236">
        <ele>417.3999939</ele>
        <time>2013-08-31T09:51:06Z</time>
      </trkpt>
      <trkpt lat="45.82441" lon="4.80242">
        <ele>418.1000061</ele>
        <time>2013-08-31T09:51:07Z</time>
      </trkpt>
      <trkpt lat="45.82437" lon="4.80251">
        <ele>420.1000061</ele>
        <time>2013-08-31T09:51:11Z</time>
      </trkpt>
      <trkpt lat="45.82436" lon="4.80254">
        <ele>420.7999878</ele>
        <time>2013-08-31T09:51:12Z</time>
      </trkpt>
      <trkpt lat="45.82433" lon="4.80264">
        <ele>422.2999878</ele>
        <time>2013-08-31T09:51:16Z</time>
      </trkpt>
      <trkpt lat="45.82433" lon="4.80267">
        <ele>422.2000122</ele>
        <time>2013-08-31T09:51:17Z</time>
      </trkpt>
      <trkpt lat="45.82431" lon="4.80277">
        <ele>427.5</ele>
        <time>2013-08-31T09:51:22Z</time>
      </trkpt>
      <trkpt lat="45.8243" lon="4.80279">
        <ele>426.7000122</ele>
        <time>2013-08-31T09:51:23Z</time>
      </trkpt>
      <trkpt lat="45.82426" lon="4.8029">
        <ele>428.6000061</ele>
        <time>2013-08-31T09:51:30Z</time>
      </trkpt>
      <trkpt lat="45.82426" lon="4.80292">
        <ele>428.2999878</ele>
        <time>2013-08-31T09:51:31Z</time>
      </trkpt>
      <trkpt lat="45.82426" lon="4.80303">
        <ele>433.3999939</ele>
        <time>2013-08-31T09:51:36Z</time>
      </trkpt>
      <trkpt lat="45.82425" lon="4.80306">
        <ele>433.2999878</ele>
        <time>2013-08-31T09:51:37Z</time>
      </trkpt>
      <trkpt lat="45.82422" lon="4.80315">
        <ele>432.7999878</ele>
        <time>2013-08-31T09:51:40Z</time>
      </trkpt>
      <trkpt lat="45.8242" lon="4.80317">
        <ele>436.7999878</ele>
        <time>2013-08-31T09:51:41Z</time>
      </trkpt>
      <trkpt lat="45.82416" lon="4.80328">
        <ele>435.2000122</ele>
        <time>2013-08-31T09:51:45Z</time>
      </trkpt>
      <trkpt lat="45.82415" lon="4.8033">
        <ele>434.8999939</ele>
        <time>2013-08-31T09:51:46Z</time>
      </trkpt>
      <trkpt lat="45.82412" lon="4.80341">
        <ele>434.1000061</ele>
        <time>2013-08-31T09:51:50Z</time>
      </trkpt>
      <trkpt lat="45.82411" lon="4.80344">
        <ele>434.7999878</ele>
        <time>2013-08-31T09:51:51Z</time>
      </trkpt>
      <trkpt lat="45.8241" lon="4.80357">
        <ele>437.2999878</ele>
        <time>2013-08-31T09:51:57Z</time>
      </trkpt>
      <trkpt lat="45.8241" lon="4.80358">
        <ele>437.7999878</ele>
        <time>2013-08-31T09:51:58Z</time>
      </trkpt>
      <trkpt lat="45.82406" lon="4.80369">
        <ele>436.1000061</ele>
        <time>2013-08-31T09:52:05Z</time>
      </trkpt>
      <trkpt lat="45.82404" lon="4.80371">
        <ele>436.2000122</ele>
        <time>2013-08-31T09:52:06Z</time>
      </trkpt>
      <trkpt lat="45.82403" lon="4.80381">
        <ele>435.2999878</ele>
        <time>2013-08-31T09:52:19Z</time>
      </trkpt>
      <trkpt lat="45.82403" lon="4.80381">
        <ele>435</ele>
        <time>2013-08-31T09:52:20Z</time>
      </trkpt>
      <trkpt lat="45.82404" lon="4.80381">
        <ele>433.6000061</ele>
        <time>2013-08-31T09:52:21Z</time>
      </trkpt>
      <trkpt lat="45.82404" lon="4.80381">
        <ele>433.7000122</ele>
        <time>2013-08-31T09:52:22Z</time>
      </trkpt>
      <trkpt lat="45.82403" lon="4.80381">
        <ele>433.1000061</ele>
        <time>2013-08-31T09:52:23Z</time>
      </trkpt>
      <trkpt lat="45.82398" lon="4.80391">
        <ele>422.8999939</ele>
        <time>2013-08-31T09:52:37Z</time>
      </trkpt>
      <trkpt lat="45.82397" lon="4.80392">
        <ele>423</ele>
        <time>2013-08-31T09:52:38Z</time>
      </trkpt>
      <trkpt lat="45.82395" lon="4.80401">
        <ele>423.5</ele>
        <time>2013-08-31T09:52:41Z</time>
      </trkpt>
      <trkpt lat="45.82394" lon="4.80405">
        <ele>422.7999878</ele>
        <time>2013-08-31T09:52:42Z</time>
      </trkpt>
      <trkpt lat="45.82391" lon="4.80417">
        <ele>428.3999939</ele>
        <time>2013-08-31T09:52:46Z</time>
      </trkpt>
      <trkpt lat="45.82391" lon="4.80419">
        <ele>430</ele>
        <time>2013-08-31T09:52:47Z</time>
      </trkpt>
      <trkpt lat="45.82392" lon="4.80431">
        <ele>429.8999939</ele>
        <time>2013-08-31T09:52:55Z</time>
      </trkpt>
      <trkpt lat="45.82392" lon="4.80432">
        <ele>429.1000061</ele>
        <time>2013-08-31T09:52:56Z</time>
      </trkpt>
      <trkpt lat="45.82401" lon="4.8043">
        <ele>426.8999939</ele>
        <time>2013-08-31T09:53:06Z</time>
      </trkpt>
      <trkpt lat="45.82401" lon="4.80429">
        <ele>428.2000122</ele>
        <time>2013-08-31T09:53:07Z</time>
      </trkpt>
      <trkpt lat="45.8241" lon="4.80427">
        <ele>432.1000061</ele>
        <time>2013-08-31T09:53:17Z</time>
      </trkpt>
      <trkpt lat="45.8241" lon="4.80427">
        <ele>431.2999878</ele>
        <time>2013-08-31T09:53:18Z</time>
      </trkpt>
      <trkpt lat="45.82411" lon="4.80427">
        <ele>430.6000061</ele>
        <time>2013-08-31T09:53:19Z</time>
      </trkpt>
      <trkpt lat="45.82411" lon="4.80427">
        <ele>430.5</ele>
        <time>2013-08-31T09:53:20Z</time>
      </trkpt>
      <trkpt lat="45.82411" lon="4.80427">
        <ele>430.8999939</ele>
        <time>2013-08-31T09:53:21Z</time>
      </trkpt>
      <trkpt lat="45.82418" lon="4.80431">
        <ele>431.2999878</ele>
        <time>2013-08-31T09:53:29Z</time>
      </trkpt>
      <trkpt lat="45.8242" lon="4.80432">
        <ele>431.7999878</ele>
        <time>2013-08-31T09:53:30Z</time>
      </trkpt>
      <trkpt lat="45.82428" lon="4.80429">
        <ele>432.5</ele>
        <time>2013-08-31T09:53:39Z</time>
      </trkpt>
      <trkpt lat="45.82429" lon="4.80428">
        <ele>433.2999878</ele>
        <time>2013-08-31T09:53:40Z</time>
      </trkpt>
      <trkpt lat="45.82436" lon="4.80421">
        <ele>437.2000122</ele>
        <time>2013-08-31T09:53:48Z</time>
      </trkpt>
      <trkpt lat="45.82437" lon="4.80419">
        <ele>437.7000122</ele>
        <time>2013-08-31T09:53:49Z</time>
      </trkpt>
      <trkpt lat="45.82444" lon="4.80412">
        <ele>437</ele>
        <time>2013-08-31T09:53:56Z</time>
      </trkpt>
      <trkpt lat="45.82445" lon="4.80412">
        <ele>436.8999939</ele>
        <time>2013-08-31T09:53:57Z</time>
      </trkpt>
      <trkpt lat="45.82451" lon="4.80407">
        <ele>438.1000061</ele>
        <time>2013-08-31T09:54:01Z</time>
      </trkpt>
      <trkpt lat="45.82453" lon="4.80406">
        <ele>438</ele>
        <time>2013-08-31T09:54:02Z</time>
      </trkpt>
      <trkpt lat="45.8246" lon="4.80401">
        <ele>439.7000122</ele>
        <time>2013-08-31T09:54:08Z</time>
      </trkpt>
      <trkpt lat="45.82462" lon="4.80399">
        <ele>439.6000061</ele>
        <time>2013-08-31T09:54:09Z</time>
      </trkpt>
      <trkpt lat="45.8247" lon="4.80395">
        <ele>439.8999939</ele>
        <time>2013-08-31T09:54:16Z</time>
      </trkpt>
      <trkpt lat="45.82471" lon="4.80395">
        <ele>440.5</ele>
        <time>2013-08-31T09:54:17Z</time>
      </trkpt>
      <trkpt lat="45.82479" lon="4.8039">
        <ele>441.7000122</ele>
        <time>2013-08-31T09:54:24Z</time>
      </trkpt>
      <trkpt lat="45.8248" lon="4.80388">
        <ele>441.6000061</ele>
        <time>2013-08-31T09:54:25Z</time>
      </trkpt>
      <trkpt lat="45.82488" lon="4.80383">
        <ele>444.1000061</ele>
        <time>2013-08-31T09:54:34Z</time>
      </trkpt>
      <trkpt lat="45.8249" lon="4.80383">
        <ele>443</ele>
        <time>2013-08-31T09:54:35Z</time>
      </trkpt>
      <trkpt lat="45.82498" lon="4.80384">
        <ele>448.7999878</ele>
        <time>2013-08-31T09:54:42Z</time>
      </trkpt>
      <trkpt lat="45.825" lon="4.80383">
        <ele>447.3999939</ele>
        <time>2013-08-31T09:54:43Z</time>
      </trkpt>
      <trkpt lat="45.82508" lon="4.80379">
        <ele>445.7000122</ele>
        <time>2013-08-31T09:54:48Z</time>
      </trkpt>
      <trkpt lat="45.82509" lon="4.80378">
        <ele>445.8999939</ele>
        <time>2013-08-31T09:54:49Z</time>
      </trkpt>
      <trkpt lat="45.82516" lon="4.8037">
        <ele>444.3999939</ele>
        <time>2013-08-31T09:54:57Z</time>
      </trkpt>
      <trkpt lat="45.82517" lon="4.80369">
        <ele>444.5</ele>
        <time>2013-08-31T09:54:58Z</time>
      </trkpt>
      <trkpt lat="45.82523" lon="4.80362">
        <ele>445.1000061</ele>
        <time>2013-08-31T09:55:07Z</time>
      </trkpt>
      <trkpt lat="45.82527" lon="4.8036">
        <ele>445.7999878</ele>
        <time>2013-08-31T09:55:08Z</time>
      </trkpt>
      <trkpt lat="45.82532" lon="4.80353">
        <ele>454.7999878</ele>
        <time>2013-08-31T09:55:15Z</time>
      </trkpt>
      <trkpt lat="45.82534" lon="4.80351">
        <ele>456.5</ele>
        <time>2013-08-31T09:55:16Z</time>
      </trkpt>
      <trkpt lat="45.8254" lon="4.80342">
        <ele>461.2999878</ele>
        <time>2013-08-31T09:55:23Z</time>
      </trkpt>
      <trkpt lat="45.82541" lon="4.8034">
        <ele>460.1000061</ele>
        <time>2013-08-31T09:55:24Z</time>
      </trkpt>
      <trkpt lat="45.82545" lon="4.8033">
        <ele>459.7000122</ele>
        <time>2013-08-31T09:55:30Z</time>
      </trkpt>
      <trkpt lat="45.82547" lon="4.80329">
        <ele>460.3999939</ele>
        <time>2013-08-31T09:55:31Z</time>
      </trkpt>
      <trkpt lat="45.82553" lon="4.80323">
        <ele>461.2000122</ele>
        <time>2013-08-31T09:55:35Z</time>
      </trkpt>
      <trkpt lat="45.82555" lon="4.80322">
        <ele>460.7999878</ele>
        <time>2013-08-31T09:55:36Z</time>
      </trkpt>
      <trkpt lat="45.82561" lon="4.80316">
        <ele>462</ele>
        <time>2013-08-31T09:55:41Z</time>
      </trkpt>
      <trkpt lat="45.82563" lon="4.80315">
        <ele>461.5</ele>
        <time>2013-08-31T09:55:42Z</time>
      </trkpt>
      <trkpt lat="45.82568" lon="4.80307">
        <ele>459.7999878</ele>
        <time>2013-08-31T09:55:51Z</time>
      </trkpt>
      <trkpt lat="45.8257" lon="4.80305">
        <ele>459.2999878</ele>
        <time>2013-08-31T09:55:52Z</time>
      </trkpt>
      <trkpt lat="45.82575" lon="4.80298">
        <ele>459.7000122</ele>
        <time>2013-08-31T09:55:57Z</time>
      </trkpt>
      <trkpt lat="45.82577" lon="4.80296">
        <ele>460.2000122</ele>
        <time>2013-08-31T09:55:58Z</time>
      </trkpt>
      <trkpt lat="45.8258" lon="4.8029">
        <ele>461.7999878</ele>
        <time>2013-08-31T09:56:06Z</time>
      </trkpt>
      <trkpt lat="45.8258" lon="4.80289">
        <ele>461.5</ele>
        <time>2013-08-31T09:56:07Z</time>
      </trkpt>
      <trkpt lat="45.8258" lon="4.80289">
        <ele>461</ele>
        <time>2013-08-31T09:56:08Z</time>
      </trkpt>
      <trkpt lat="45.82586" lon="4.8028">
        <ele>460.3999939</ele>
        <time>2013-08-31T09:56:14Z</time>
      </trkpt>
      <trkpt lat="45.82587" lon="4.8028">
        <ele>461.5</ele>
        <time>2013-08-31T09:56:15Z</time>
      </trkpt>
      <trkpt lat="45.82593" lon="4.80271">
        <ele>467.3999939</ele>
        <time>2013-08-31T09:56:22Z</time>
      </trkpt>
      <trkpt lat="45.82595" lon="4.80269">
        <ele>468.7000122</ele>
        <time>2013-08-31T09:56:23Z</time>
      </trkpt>
      <trkpt lat="45.82601" lon="4.80262">
        <ele>477.1000061</ele>
        <time>2013-08-31T09:56:31Z</time>
      </trkpt>
      <trkpt lat="45.82603" lon="4.80261">
        <ele>477.3999939</ele>
        <time>2013-08-31T09:56:32Z</time>
      </trkpt>
      <trkpt lat="45.82609" lon="4.80254">
        <ele>477.1000061</ele>
        <time>2013-08-31T09:56:39Z</time>
      </trkpt>
      <trkpt lat="45.82611" lon="4.80252">
        <ele>476.6000061</ele>
        <time>2013-08-31T09:56:40Z</time>
      </trkpt>
      <trkpt lat="45.82617" lon="4.80244">
        <ele>475.6000061</ele>
        <time>2013-08-31T09:56:44Z</time>
      </trkpt>
      <trkpt lat="45.82618" lon="4.80244">
        <ele>475.5</ele>
        <time>2013-08-31T09:56:45Z</time>
      </trkpt>
      <trkpt lat="45.82623" lon="4.80235">
        <ele>479.1000061</ele>
        <time>2013-08-31T09:56:52Z</time>
      </trkpt>
      <trkpt lat="45.82624" lon="4.80233">
        <ele>479.2000122</ele>
        <time>2013-08-31T09:56:53Z</time>
      </trkpt>
      <trkpt lat="45.82631" lon="4.80226">
        <ele>479.6000061</ele>
        <time>2013-08-31T09:56:58Z</time>
      </trkpt>
      <trkpt lat="45.82633" lon="4.80226">
        <ele>479.8999939</ele>
        <time>2013-08-31T09:56:59Z</time>
      </trkpt>
      <trkpt lat="45.8264" lon="4.80222">
        <ele>481.2000122</ele>
        <time>2013-08-31T09:57:03Z</time>
      </trkpt>
      <trkpt lat="45.82642" lon="4.80221">
        <ele>480.8999939</ele>
        <time>2013-08-31T09:57:04Z</time>
      </trkpt>
      <trkpt lat="45.8265" lon="4.80219">
        <ele>483.3999939</ele>
        <time>2013-08-31T09:57:11Z</time>
      </trkpt>
      <trkpt lat="45.82651" lon="4.80219">
        <ele>483.1000061</ele>
        <time>2013-08-31T09:57:12Z</time>
      </trkpt>
      <trkpt lat="45.82659" lon="4.80215">
        <ele>483.3999939</ele>
        <time>2013-08-31T09:57:18Z</time>
      </trkpt>
      <trkpt lat="45.8266" lon="4.80214">
        <ele>483.2999878</ele>
        <time>2013-08-31T09:57:19Z</time>
      </trkpt>
      <trkpt lat="45.82666" lon="4.80207">
        <ele>484.3999939</ele>
        <time>2013-08-31T09:57:24Z</time>
      </trkpt>
      <trkpt lat="45.82668" lon="4.80206">
        <ele>484.2999878</ele>
        <time>2013-08-31T09:57:25Z</time>
      </trkpt>
      <trkpt lat="45.82675" lon="4.802">
        <ele>482.7999878</ele>
        <time>2013-08-31T09:57:29Z</time>
      </trkpt>
      <trkpt lat="45.82676" lon="4.80198">
        <ele>483.2000122</ele>
        <time>2013-08-31T09:57:30Z</time>
      </trkpt>
      <trkpt lat="45.8268" lon="4.80195">
        <ele>483.3999939</ele>
        <time>2013-08-31T09:57:35Z</time>
      </trkpt>
      <trkpt lat="45.8268" lon="4.80195">
        <ele>483.6000061</ele>
        <time>2013-08-31T09:57:36Z</time>
      </trkpt>
      <trkpt lat="45.82682" lon="4.80194">
        <ele>483.6000061</ele>
        <time>2013-08-31T09:57:37Z</time>
      </trkpt>
      <trkpt lat="45.8269" lon="4.8019">
        <ele>484.7000122</ele>
        <time>2013-08-31T09:57:44Z</time>
      </trkpt>
      <trkpt lat="45.82691" lon="4.8019">
        <ele>484.7000122</ele>
        <time>2013-08-31T09:57:45Z</time>
      </trkpt>
      <trkpt lat="45.82699" lon="4.80186">
        <ele>486.2999878</ele>
        <time>2013-08-31T09:57:55Z</time>
      </trkpt>
      <trkpt lat="45.82699" lon="4.80185">
        <ele>486.2999878</ele>
        <time>2013-08-31T09:57:56Z</time>
      </trkpt>
      <trkpt lat="45.82699" lon="4.80185">
        <ele>486.7999878</ele>
        <time>2013-08-31T09:57:57Z</time>
      </trkpt>
      <trkpt lat="45.82701" lon="4.80183">
        <ele>488</ele>
        <time>2013-08-31T09:57:58Z</time>
      </trkpt>
      <trkpt lat="45.82708" lon="4.80176">
        <ele>490</ele>
        <time>2013-08-31T09:58:02Z</time>
      </trkpt>
      <trkpt lat="45.8271" lon="4.80176">
        <ele>491.1000061</ele>
        <time>2013-08-31T09:58:03Z</time>
      </trkpt>
      <trkpt lat="45.82719" lon="4.80172">
        <ele>494</ele>
        <time>2013-08-31T09:58:09Z</time>
      </trkpt>
      <trkpt lat="45.8272" lon="4.80171">
        <ele>494</ele>
        <time>2013-08-31T09:58:10Z</time>
      </trkpt>
      <trkpt lat="45.82722" lon="4.8017">
        <ele>496.2000122</ele>
        <time>2013-08-31T09:58:16Z</time>
      </trkpt>
      <trkpt lat="45.82722" lon="4.8017">
        <ele>496.3999939</ele>
        <time>2013-08-31T09:58:17Z</time>
      </trkpt>
      <trkpt lat="45.82722" lon="4.80169">
        <ele>496.8999939</ele>
        <time>2013-08-31T09:58:18Z</time>
      </trkpt>
      <trkpt lat="45.82723" lon="4.8017">
        <ele>497</ele>
        <time>2013-08-31T09:58:19Z</time>
      </trkpt>
      <trkpt lat="45.8273" lon="4.80167">
        <ele>496.5</ele>
        <time>2013-08-31T09:58:24Z</time>
      </trkpt>
      <trkpt lat="45.82732" lon="4.80166">
        <ele>496.5</ele>
        <time>2013-08-31T09:58:25Z</time>
      </trkpt>
      <trkpt lat="45.8274" lon="4.80159">
        <ele>496.6000061</ele>
        <time>2013-08-31T09:58:29Z</time>
      </trkpt>
      <trkpt lat="45.8274" lon="4.80158">
        <ele>496.7999878</ele>
        <time>2013-08-31T09:58:30Z</time>
      </trkpt>
      <trkpt lat="45.82748" lon="4.80156">
        <ele>501</ele>
        <time>2013-08-31T09:58:36Z</time>
      </trkpt>
      <trkpt lat="45.8275" lon="4.80156">
        <ele>500.7000122</ele>
        <time>2013-08-31T09:58:37Z</time>
      </trkpt>
      <trkpt lat="45.82757" lon="4.80149">
        <ele>505.2999878</ele>
        <time>2013-08-31T09:58:45Z</time>
      </trkpt>
      <trkpt lat="45.82758" lon="4.80149">
        <ele>505.7999878</ele>
        <time>2013-08-31T09:58:46Z</time>
      </trkpt>
      <trkpt lat="45.82765" lon="4.80146">
        <ele>509.2000122</ele>
        <time>2013-08-31T09:58:53Z</time>
      </trkpt>
      <trkpt lat="45.82767" lon="4.80145">
        <ele>510</ele>
        <time>2013-08-31T09:58:54Z</time>
      </trkpt>
      <trkpt lat="45.82773" lon="4.8014">
        <ele>507.6000061</ele>
        <time>2013-08-31T09:59:02Z</time>
      </trkpt>
      <trkpt lat="45.82775" lon="4.80139">
        <ele>507.7000122</ele>
        <time>2013-08-31T09:59:03Z</time>
      </trkpt>
      <trkpt lat="45.82776" lon="4.80139">
        <ele>507.6000061</ele>
        <time>2013-08-31T09:59:04Z</time>
      </trkpt>
      <trkpt lat="45.82776" lon="4.80139">
        <ele>507.6000061</ele>
        <time>2013-08-31T09:59:05Z</time>
      </trkpt>
      <trkpt lat="45.82777" lon="4.80139">
        <ele>507.6000061</ele>
        <time>2013-08-31T09:59:06Z</time>
      </trkpt>
      <trkpt lat="45.82777" lon="4.80139">
        <ele>507.6000061</ele>
        <time>2013-08-31T09:59:07Z</time>
      </trkpt>
      <trkpt lat="45.82776" lon="4.80139">
        <ele>508.7999878</ele>
        <time>2013-08-31T09:59:08Z</time>
      </trkpt>
      <trkpt lat="45.82778" lon="4.80137">
        <ele>508.7999878</ele>
        <time>2013-08-31T09:59:12Z</time>
      </trkpt>
      <trkpt lat="45.82778" lon="4.80137">
        <ele>508.8999939</ele>
        <time>2013-08-31T09:59:13Z</time>
      </trkpt>
      <trkpt lat="45.82778" lon="4.80137">
        <ele>508.8999939</ele>
        <time>2013-08-31T09:59:15Z</time>
      </trkpt>
      <trkpt lat="45.82778" lon="4.80138">
        <ele>509.1000061</ele>
        <time>2013-08-31T09:59:16Z</time>
      </trkpt>
      <trkpt lat="45.82782" lon="4.80136">
        <ele>509</ele>
        <time>2013-08-31T09:59:18Z</time>
      </trkpt>
      <trkpt lat="45.82789" lon="4.80134">
        <ele>507.7999878</ele>
        <time>2013-08-31T09:59:19Z</time>
      </trkpt>
      <trkpt lat="45.82797" lon="4.80131">
        <ele>506.6000061</ele>
        <time>2013-08-31T09:59:22Z</time>
      </trkpt>
      <trkpt lat="45.82799" lon="4.80131">
        <ele>506.7999878</ele>
        <time>2013-08-31T09:59:23Z</time>
      </trkpt>
      <trkpt lat="45.82798" lon="4.80131">
        <ele>505.7999878</ele>
        <time>2013-08-31T09:59:25Z</time>
      </trkpt>
      <trkpt lat="45.82798" lon="4.80131">
        <ele>505.7999878</ele>
        <time>2013-08-31T09:59:26Z</time>
      </trkpt>
      <trkpt lat="45.82798" lon="4.80131">
        <ele>505.5</ele>
        <time>2013-08-31T09:59:27Z</time>
      </trkpt>
      <trkpt lat="45.82798" lon="4.8013">
        <ele>505.2000122</ele>
        <time>2013-08-31T09:59:28Z</time>
      </trkpt>
      <trkpt lat="45.82798" lon="4.8013">
        <ele>504.7999878</ele>
        <time>2013-08-31T09:59:29Z</time>
      </trkpt>
      <trkpt lat="45.82798" lon="4.8013">
        <ele>504.8999939</ele>
        <time>2013-08-31T09:59:30Z</time>
      </trkpt>
      <trkpt lat="45.82798" lon="4.80131">
        <ele>504.7000122</ele>
        <time>2013-08-31T09:59:31Z</time>
      </trkpt>
      <trkpt lat="45.82798" lon="4.80131">
        <ele>504.5</ele>
        <time>2013-08-31T09:59:32Z</time>
      </trkpt>
      <trkpt lat="45.82798" lon="4.80131">
        <ele>504.5</ele>
        <time>2013-08-31T09:59:33Z</time>
      </trkpt>
      <trkpt lat="45.82798" lon="4.80131">
        <ele>504.2999878</ele>
        <time>2013-08-31T09:59:34Z</time>
      </trkpt>
      <trkpt lat="45.82798" lon="4.80131">
        <ele>504.2000122</ele>
        <time>2013-08-31T09:59:35Z</time>
      </trkpt>
      <trkpt lat="45.82798" lon="4.80131">
        <ele>504.2000122</ele>
        <time>2013-08-31T09:59:36Z</time>
      </trkpt>
      <trkpt lat="45.82799" lon="4.80133">
        <ele>504.7000122</ele>
        <time>2013-08-31T09:59:38Z</time>
      </trkpt>
      <trkpt lat="45.82801" lon="4.80133">
        <ele>504.2000122</ele>
        <time>2013-08-31T09:59:42Z</time>
      </trkpt>
      <trkpt lat="45.82801" lon="4.80133">
        <ele>504.5</ele>
        <time>2013-08-31T09:59:43Z</time>
      </trkpt>
      <trkpt lat="45.82801" lon="4.80133">
        <ele>504.5</ele>
        <time>2013-08-31T09:59:44Z</time>
      </trkpt>
      <trkpt lat="45.82802" lon="4.80133">
        <ele>504.5</ele>
        <time>2013-08-31T09:59:48Z</time>
      </trkpt>
      <trkpt lat="45.82802" lon="4.80133">
        <ele>504.3999939</ele>
        <time>2013-08-31T09:59:49Z</time>
      </trkpt>
      <trkpt lat="45.82802" lon="4.80133">
        <ele>504.6000061</ele>
        <time>2013-08-31T10:00:09Z</time>
      </trkpt>
      <trkpt lat="45.82804" lon="4.80132">
        <ele>504.7000122</ele>
        <time>2013-08-31T10:00:10Z</time>
      </trkpt>
      <trkpt lat="45.82811" lon="4.80137">
        <ele>504.3999939</ele>
        <time>2013-08-31T10:00:15Z</time>
      </trkpt>
      <trkpt lat="45.82812" lon="4.80136">
        <ele>504.7000122</ele>
        <time>2013-08-31T10:00:16Z</time>
      </trkpt>
      <trkpt lat="45.8282" lon="4.80138">
        <ele>504.3999939</ele>
        <time>2013-08-31T10:00:26Z</time>
      </trkpt>
      <trkpt lat="45.82823" lon="4.80138">
        <ele>504.7999878</ele>
        <time>2013-08-31T10:00:27Z</time>
      </trkpt>
      <trkpt lat="45.8283" lon="4.80133">
        <ele>505.2999878</ele>
        <time>2013-08-31T10:00:31Z</time>
      </trkpt>
      <trkpt lat="45.82831" lon="4.80134">
        <ele>505.5</ele>
        <time>2013-08-31T10:00:32Z</time>
      </trkpt>
      <trkpt lat="45.82839" lon="4.80139">
        <ele>507.5</ele>
        <time>2013-08-31T10:00:41Z</time>
      </trkpt>
      <trkpt lat="45.82843" lon="4.80141">
        <ele>509.2999878</ele>
        <time>2013-08-31T10:00:42Z</time>
      </trkpt>
      <trkpt lat="45.82846" lon="4.80152">
        <ele>507.8999939</ele>
        <time>2013-08-31T10:00:46Z</time>
      </trkpt>
      <trkpt lat="45.82846" lon="4.80157">
        <ele>507.1000061</ele>
        <time>2013-08-31T10:00:47Z</time>
      </trkpt>
      <trkpt lat="45.82846" lon="4.80167">
        <ele>506.3999939</ele>
        <time>2013-08-31T10:00:49Z</time>
      </trkpt>
      <trkpt lat="45.82846" lon="4.80172">
        <ele>505.7000122</ele>
        <time>2013-08-31T10:00:50Z</time>
      </trkpt>
      <trkpt lat="45.82849" lon="4.80181">
        <ele>506.1000061</ele>
        <time>2013-08-31T10:00:52Z</time>
      </trkpt>
      <trkpt lat="45.8285" lon="4.80187">
        <ele>506.5</ele>
        <time>2013-08-31T10:00:53Z</time>
      </trkpt>
      <trkpt lat="45.82852" lon="4.80197">
        <ele>506.1000061</ele>
        <time>2013-08-31T10:00:55Z</time>
      </trkpt>
      <trkpt lat="45.82854" lon="4.80204">
        <ele>505.2999878</ele>
        <time>2013-08-31T10:00:56Z</time>
      </trkpt>
      <trkpt lat="45.82856" lon="4.8021">
        <ele>505.6000061</ele>
        <time>2013-08-31T10:00:57Z</time>
      </trkpt>
      <trkpt lat="45.8286" lon="4.80215">
        <ele>506</ele>
        <time>2013-08-31T10:00:58Z</time>
      </trkpt>
      <trkpt lat="45.82863" lon="4.80222">
        <ele>505.3999939</ele>
        <time>2013-08-31T10:00:59Z</time>
      </trkpt>
      <trkpt lat="45.82864" lon="4.80228">
        <ele>505.2000122</ele>
        <time>2013-08-31T10:01:00Z</time>
      </trkpt>
      <trkpt lat="45.82866" lon="4.80238">
        <ele>506.1000061</ele>
        <time>2013-08-31T10:01:01Z</time>
      </trkpt>
      <trkpt lat="45.82865" lon="4.80244">
        <ele>506.2000122</ele>
        <time>2013-08-31T10:01:02Z</time>
      </trkpt>
      <trkpt lat="45.82867" lon="4.80257">
        <ele>505.5</ele>
        <time>2013-08-31T10:01:04Z</time>
      </trkpt>
      <trkpt lat="45.82867" lon="4.80263">
        <ele>505</ele>
        <time>2013-08-31T10:01:05Z</time>
      </trkpt>
      <trkpt lat="45.82869" lon="4.80269">
        <ele>503.2000122</ele>
        <time>2013-08-31T10:01:06Z</time>
      </trkpt>
      <trkpt lat="45.8287" lon="4.80279">
        <ele>501.3999939</ele>
        <time>2013-08-31T10:01:07Z</time>
      </trkpt>
      <trkpt lat="45.82873" lon="4.80285">
        <ele>501.2999878</ele>
        <time>2013-08-31T10:01:08Z</time>
      </trkpt>
      <trkpt lat="45.82875" lon="4.80295">
        <ele>500.2000122</ele>
        <time>2013-08-31T10:01:09Z</time>
      </trkpt>
      <trkpt lat="45.82874" lon="4.80306">
        <ele>500.2000122</ele>
        <time>2013-08-31T10:01:10Z</time>
      </trkpt>
      <trkpt lat="45.82875" lon="4.80314">
        <ele>499.5</ele>
        <time>2013-08-31T10:01:11Z</time>
      </trkpt>
      <trkpt lat="45.82875" lon="4.80322">
        <ele>499.2000122</ele>
        <time>2013-08-31T10:01:12Z</time>
      </trkpt>
      <trkpt lat="45.82877" lon="4.80327">
        <ele>498.5</ele>
        <time>2013-08-31T10:01:13Z</time>
      </trkpt>
      <trkpt lat="45.82877" lon="4.80335">
        <ele>498.8999939</ele>
        <time>2013-08-31T10:01:14Z</time>
      </trkpt>
      <trkpt lat="45.82877" lon="4.80341">
        <ele>498.1000061</ele>
        <time>2013-08-31T10:01:15Z</time>
      </trkpt>
      <trkpt lat="45.82877" lon="4.80349">
        <ele>497.5</ele>
        <time>2013-08-31T10:01:16Z</time>
      </trkpt>
      <trkpt lat="45.82877" lon="4.80354">
        <ele>496.8999939</ele>
        <time>2013-08-31T10:01:17Z</time>
      </trkpt>
      <trkpt lat="45.82878" lon="4.80366">
        <ele>493.1000061</ele>
        <time>2013-08-31T10:01:21Z</time>
      </trkpt>
      <trkpt lat="45.82879" lon="4.80368">
        <ele>493.2999878</ele>
        <time>2013-08-31T10:01:22Z</time>
      </trkpt>
      <trkpt lat="45.82886" lon="4.80372">
        <ele>490.7999878</ele>
        <time>2013-08-31T10:01:27Z</time>
      </trkpt>
      <trkpt lat="45.82888" lon="4.80373">
        <ele>490.2999878</ele>
        <time>2013-08-31T10:01:28Z</time>
      </trkpt>
      <trkpt lat="45.82896" lon="4.80375">
        <ele>487.3999939</ele>
        <time>2013-08-31T10:01:35Z</time>
      </trkpt>
      <trkpt lat="45.82897" lon="4.80374">
        <ele>487.1000061</ele>
        <time>2013-08-31T10:01:36Z</time>
      </trkpt>
      <trkpt lat="45.82905" lon="4.80371">
        <ele>488.8999939</ele>
        <time>2013-08-31T10:01:43Z</time>
      </trkpt>
      <trkpt lat="45.82906" lon="4.8037">
        <ele>488.7999878</ele>
        <time>2013-08-31T10:01:44Z</time>
      </trkpt>
      <trkpt lat="45.82914" lon="4.80365">
        <ele>487</ele>
        <time>2013-08-31T10:01:50Z</time>
      </trkpt>
      <trkpt lat="45.82915" lon="4.80363">
        <ele>486.7999878</ele>
        <time>2013-08-31T10:01:51Z</time>
      </trkpt>
      <trkpt lat="45.82921" lon="4.80357">
        <ele>487.1000061</ele>
        <time>2013-08-31T10:01:56Z</time>
      </trkpt>
      <trkpt lat="45.82922" lon="4.80356">
        <ele>487.3999939</ele>
        <time>2013-08-31T10:01:57Z</time>
      </trkpt>
      <trkpt lat="45.82929" lon="4.80349">
        <ele>489.8999939</ele>
        <time>2013-08-31T10:02:03Z</time>
      </trkpt>
      <trkpt lat="45.82931" lon="4.80346">
        <ele>489.6000061</ele>
        <time>2013-08-31T10:02:04Z</time>
      </trkpt>
      <trkpt lat="45.82935" lon="4.80341">
        <ele>488.2999878</ele>
        <time>2013-08-31T10:02:07Z</time>
      </trkpt>
      <trkpt lat="45.82937" lon="4.80338">
        <ele>487.7999878</ele>
        <time>2013-08-31T10:02:08Z</time>
      </trkpt>
      <trkpt lat="45.82945" lon="4.80332">
        <ele>490.6000061</ele>
        <time>2013-08-31T10:02:12Z</time>
      </trkpt>
      <trkpt lat="45.82946" lon="4.80329">
        <ele>490.7000122</ele>
        <time>2013-08-31T10:02:13Z</time>
      </trkpt>
      <trkpt lat="45.82952" lon="4.80321">
        <ele>490.5</ele>
        <time>2013-08-31T10:02:17Z</time>
      </trkpt>
      <trkpt lat="45.82953" lon="4.8032">
        <ele>490.2999878</ele>
        <time>2013-08-31T10:02:18Z</time>
      </trkpt>
      <trkpt lat="45.82958" lon="4.80316">
        <ele>489.7000122</ele>
        <time>2013-08-31T10:02:21Z</time>
      </trkpt>
      <trkpt lat="45.82961" lon="4.80314">
        <ele>489.6000061</ele>
        <time>2013-08-31T10:02:22Z</time>
      </trkpt>
      <trkpt lat="45.82965" lon="4.80305">
        <ele>490.6000061</ele>
        <time>2013-08-31T10:02:26Z</time>
      </trkpt>
      <trkpt lat="45.82966" lon="4.80303">
        <ele>492.1000061</ele>
        <time>2013-08-31T10:02:27Z</time>
      </trkpt>
      <trkpt lat="45.82969" lon="4.80297">
        <ele>492.3999939</ele>
        <time>2013-08-31T10:02:30Z</time>
      </trkpt>
      <trkpt lat="45.82974" lon="4.80294">
        <ele>495.6000061</ele>
        <time>2013-08-31T10:02:31Z</time>
      </trkpt>
      <trkpt lat="45.82981" lon="4.80287">
        <ele>494.3999939</ele>
        <time>2013-08-31T10:02:35Z</time>
      </trkpt>
      <trkpt lat="45.82981" lon="4.80285">
        <ele>493.7999878</ele>
        <time>2013-08-31T10:02:36Z</time>
      </trkpt>
      <trkpt lat="45.82986" lon="4.80278">
        <ele>495.1000061</ele>
        <time>2013-08-31T10:02:39Z</time>
      </trkpt>
      <trkpt lat="45.82987" lon="4.80275">
        <ele>493</ele>
        <time>2013-08-31T10:02:40Z</time>
      </trkpt>
      <trkpt lat="45.82992" lon="4.80265">
        <ele>493.7000122</ele>
        <time>2013-08-31T10:02:43Z</time>
      </trkpt>
      <trkpt lat="45.82994" lon="4.80263">
        <ele>494.2000122</ele>
        <time>2013-08-31T10:02:44Z</time>
      </trkpt>
      <trkpt lat="45.82999" lon="4.80254">
        <ele>494.5</ele>
        <time>2013-08-31T10:02:48Z</time>
      </trkpt>
      <trkpt lat="45.83001" lon="4.8025">
        <ele>494.5</ele>
        <time>2013-08-31T10:02:49Z</time>
      </trkpt>
      <trkpt lat="45.83007" lon="4.80242">
        <ele>494.3999939</ele>
        <time>2013-08-31T10:02:53Z</time>
      </trkpt>
      <trkpt lat="45.83008" lon="4.8024">
        <ele>494.2999878</ele>
        <time>2013-08-31T10:02:54Z</time>
      </trkpt>
      <trkpt lat="45.83015" lon="4.80233">
        <ele>494.6000061</ele>
        <time>2013-08-31T10:02:58Z</time>
      </trkpt>
      <trkpt lat="45.83016" lon="4.80232">
        <ele>494.7000122</ele>
        <time>2013-08-31T10:02:59Z</time>
      </trkpt>
      <trkpt lat="45.83019" lon="4.80228">
        <ele>494.7000122</ele>
        <time>2013-08-31T10:03:00Z</time>
      </trkpt>
      <trkpt lat="45.83025" lon="4.80225">
        <ele>494.2999878</ele>
        <time>2013-08-31T10:03:01Z</time>
      </trkpt>
      <trkpt lat="45.83031" lon="4.80217">
        <ele>494.2999878</ele>
        <time>2013-08-31T10:03:03Z</time>
      </trkpt>
      <trkpt lat="45.83035" lon="4.80214">
        <ele>494.5</ele>
        <time>2013-08-31T10:03:04Z</time>
      </trkpt>
      <trkpt lat="45.83041" lon="4.80209">
        <ele>495.1000061</ele>
        <time>2013-08-31T10:03:07Z</time>
      </trkpt>
      <trkpt lat="45.83043" lon="4.80205">
        <ele>495.2999878</ele>
        <time>2013-08-31T10:03:08Z</time>
      </trkpt>
      <trkpt lat="45.83049" lon="4.802">
        <ele>499.2000122</ele>
        <time>2013-08-31T10:03:10Z</time>
      </trkpt>
      <trkpt lat="45.83052" lon="4.80198">
        <ele>499.2000122</ele>
        <time>2013-08-31T10:03:11Z</time>
      </trkpt>
      <trkpt lat="45.83058" lon="4.80193">
        <ele>500.3999939</ele>
        <time>2013-08-31T10:03:13Z</time>
      </trkpt>
      <trkpt lat="45.83061" lon="4.80189">
        <ele>500.1000061</ele>
        <time>2013-08-31T10:03:14Z</time>
      </trkpt>
      <trkpt lat="45.83068" lon="4.80183">
        <ele>501.6000061</ele>
        <time>2013-08-31T10:03:17Z</time>
      </trkpt>
      <trkpt lat="45.83072" lon="4.80182">
        <ele>502.1000061</ele>
        <time>2013-08-31T10:03:18Z</time>
      </trkpt>
      <trkpt lat="45.8308" lon="4.80178">
        <ele>503.3999939</ele>
        <time>2013-08-31T10:03:22Z</time>
      </trkpt>
      <trkpt lat="45.83081" lon="4.80177">
        <ele>503.2000122</ele>
        <time>2013-08-31T10:03:23Z</time>
      </trkpt>
      <trkpt lat="45.83087" lon="4.80171">
        <ele>502.2000122</ele>
        <time>2013-08-31T10:03:27Z</time>
      </trkpt>
      <trkpt lat="45.83089" lon="4.8017">
        <ele>502.7999878</ele>
        <time>2013-08-31T10:03:28Z</time>
      </trkpt>
      <trkpt lat="45.83095" lon="4.80166">
        <ele>502.7000122</ele>
        <time>2013-08-31T10:03:30Z</time>
      </trkpt>
      <trkpt lat="45.83096" lon="4.80163">
        <ele>502.7999878</ele>
        <time>2013-08-31T10:03:31Z</time>
      </trkpt>
      <trkpt lat="45.83102" lon="4.80155">
        <ele>504.7999878</ele>
        <time>2013-08-31T10:03:36Z</time>
      </trkpt>
      <trkpt lat="45.83106" lon="4.80153">
        <ele>504.7000122</ele>
        <time>2013-08-31T10:03:37Z</time>
      </trkpt>
      <trkpt lat="45.83109" lon="4.80148">
        <ele>506.2999878</ele>
        <time>2013-08-31T10:03:42Z</time>
      </trkpt>
      <trkpt lat="45.83113" lon="4.80142">
        <ele>505.7000122</ele>
        <time>2013-08-31T10:03:43Z</time>
      </trkpt>
      <trkpt lat="45.83119" lon="4.80137">
        <ele>506</ele>
        <time>2013-08-31T10:03:44Z</time>
      </trkpt>
      <trkpt lat="45.83121" lon="4.80134">
        <ele>506</ele>
        <time>2013-08-31T10:03:45Z</time>
      </trkpt>
      <trkpt lat="45.83128" lon="4.80127">
        <ele>511.6000061</ele>
        <time>2013-08-31T10:03:53Z</time>
      </trkpt>
      <trkpt lat="45.8313" lon="4.80126">
        <ele>511.7000122</ele>
        <time>2013-08-31T10:03:54Z</time>
      </trkpt>
      <trkpt lat="45.83136" lon="4.8012">
        <ele>512.7000122</ele>
        <time>2013-08-31T10:03:58Z</time>
      </trkpt>
      <trkpt lat="45.83139" lon="4.80117">
        <ele>512.0999756</ele>
        <time>2013-08-31T10:03:59Z</time>
      </trkpt>
      <trkpt lat="45.83146" lon="4.80111">
        <ele>511.1000061</ele>
        <time>2013-08-31T10:04:01Z</time>
      </trkpt>
      <trkpt lat="45.83148" lon="4.8011">
        <ele>511.2000122</ele>
        <time>2013-08-31T10:04:02Z</time>
      </trkpt>
      <trkpt lat="45.83155" lon="4.80105">
        <ele>511.7000122</ele>
        <time>2013-08-31T10:04:04Z</time>
      </trkpt>
      <trkpt lat="45.83159" lon="4.801">
        <ele>511.5</ele>
        <time>2013-08-31T10:04:05Z</time>
      </trkpt>
      <trkpt lat="45.83164" lon="4.80095">
        <ele>511.2000122</ele>
        <time>2013-08-31T10:04:07Z</time>
      </trkpt>
      <trkpt lat="45.83165" lon="4.80091">
        <ele>511.1000061</ele>
        <time>2013-08-31T10:04:08Z</time>
      </trkpt>
      <trkpt lat="45.83172" lon="4.80085">
        <ele>511.2999878</ele>
        <time>2013-08-31T10:04:10Z</time>
      </trkpt>
      <trkpt lat="45.83174" lon="4.80083">
        <ele>511.6000061</ele>
        <time>2013-08-31T10:04:11Z</time>
      </trkpt>
      <trkpt lat="45.83179" lon="4.80077">
        <ele>512.2000122</ele>
        <time>2013-08-31T10:04:13Z</time>
      </trkpt>
      <trkpt lat="45.83179" lon="4.80077">
        <ele>512.2000122</ele>
        <time>2013-08-31T10:04:14Z</time>
      </trkpt>
      <trkpt lat="45.83181" lon="4.80072">
        <ele>511.7000122</ele>
        <time>2013-08-31T10:04:15Z</time>
      </trkpt>
      <trkpt lat="45.83186" lon="4.80064">
        <ele>512.5999756</ele>
        <time>2013-08-31T10:04:22Z</time>
      </trkpt>
      <trkpt lat="45.83188" lon="4.8006">
        <ele>512.4000244</ele>
        <time>2013-08-31T10:04:23Z</time>
      </trkpt>
      <trkpt lat="45.83193" lon="4.80055">
        <ele>513.2000122</ele>
        <time>2013-08-31T10:04:25Z</time>
      </trkpt>
      <trkpt lat="45.83198" lon="4.80053">
        <ele>512.7999878</ele>
        <time>2013-08-31T10:04:26Z</time>
      </trkpt>
      <trkpt lat="45.83203" lon="4.8005">
        <ele>513.9000244</ele>
        <time>2013-08-31T10:04:28Z</time>
      </trkpt>
      <trkpt lat="45.83208" lon="4.80048">
        <ele>513.9000244</ele>
        <time>2013-08-31T10:04:29Z</time>
      </trkpt>
      <trkpt lat="45.83213" lon="4.80041">
        <ele>513.5</ele>
        <time>2013-08-31T10:04:31Z</time>
      </trkpt>
      <trkpt lat="45.83215" lon="4.80038">
        <ele>515.7000122</ele>
        <time>2013-08-31T10:04:32Z</time>
      </trkpt>
      <trkpt lat="45.83221" lon="4.80033">
        <ele>520.2999878</ele>
        <time>2013-08-31T10:04:36Z</time>
      </trkpt>
      <trkpt lat="45.83223" lon="4.80032">
        <ele>520.9000244</ele>
        <time>2013-08-31T10:04:37Z</time>
      </trkpt>
      <trkpt lat="45.83228" lon="4.80026">
        <ele>519.5</ele>
        <time>2013-08-31T10:04:41Z</time>
      </trkpt>
      <trkpt lat="45.8323" lon="4.80024">
        <ele>517.2000122</ele>
        <time>2013-08-31T10:04:42Z</time>
      </trkpt>
      <trkpt lat="45.83238" lon="4.80021">
        <ele>516.5</ele>
        <time>2013-08-31T10:04:48Z</time>
      </trkpt>
      <trkpt lat="45.83239" lon="4.80022">
        <ele>516.5</ele>
        <time>2013-08-31T10:04:49Z</time>
      </trkpt>
      <trkpt lat="45.83245" lon="4.80022">
        <ele>516.2999878</ele>
        <time>2013-08-31T10:05:04Z</time>
      </trkpt>
      <trkpt lat="45.83246" lon="4.80022">
        <ele>516.0999756</ele>
        <time>2013-08-31T10:05:05Z</time>
      </trkpt>
      <trkpt lat="45.83246" lon="4.80022">
        <ele>516</ele>
        <time>2013-08-31T10:05:06Z</time>
      </trkpt>
      <trkpt lat="45.83245" lon="4.80022">
        <ele>515.7999878</ele>
        <time>2013-08-31T10:05:07Z</time>
      </trkpt>
      <trkpt lat="45.83245" lon="4.80022">
        <ele>515.7999878</ele>
        <time>2013-08-31T10:05:08Z</time>
      </trkpt>
      <trkpt lat="45.83245" lon="4.80022">
        <ele>516</ele>
        <time>2013-08-31T10:05:09Z</time>
      </trkpt>
      <trkpt lat="45.83248" lon="4.80023">
        <ele>516.2999878</ele>
        <time>2013-08-31T10:05:10Z</time>
      </trkpt>
      <trkpt lat="45.83244" lon="4.80031">
        <ele>513.7999878</ele>
        <time>2013-08-31T10:05:16Z</time>
      </trkpt>
      <trkpt lat="45.83243" lon="4.80034">
        <ele>513.9000244</ele>
        <time>2013-08-31T10:05:17Z</time>
      </trkpt>
      <trkpt lat="45.83239" lon="4.80043">
        <ele>517</ele>
        <time>2013-08-31T10:05:20Z</time>
      </trkpt>
      <trkpt lat="45.83237" lon="4.80046">
        <ele>515.9000244</ele>
        <time>2013-08-31T10:05:21Z</time>
      </trkpt>
      <trkpt lat="45.83231" lon="4.80054">
        <ele>514.5</ele>
        <time>2013-08-31T10:05:23Z</time>
      </trkpt>
      <trkpt lat="45.83228" lon="4.80058">
        <ele>514.5</ele>
        <time>2013-08-31T10:05:24Z</time>
      </trkpt>
      <trkpt lat="45.83224" lon="4.80066">
        <ele>513.5999756</ele>
        <time>2013-08-31T10:05:26Z</time>
      </trkpt>
      <trkpt lat="45.83222" lon="4.8007">
        <ele>513.4000244</ele>
        <time>2013-08-31T10:05:27Z</time>
      </trkpt>
      <trkpt lat="45.83218" lon="4.80074">
        <ele>512.9000244</ele>
        <time>2013-08-31T10:05:28Z</time>
      </trkpt>
      <trkpt lat="45.83214" lon="4.8008">
        <ele>512.0999756</ele>
        <time>2013-08-31T10:05:29Z</time>
      </trkpt>
      <trkpt lat="45.8321" lon="4.80086">
        <ele>512.2000122</ele>
        <time>2013-08-31T10:05:30Z</time>
      </trkpt>
      <trkpt lat="45.83203" lon="4.80096">
        <ele>511.1000061</ele>
        <time>2013-08-31T10:05:31Z</time>
      </trkpt>
      <trkpt lat="45.83202" lon="4.80104">
        <ele>510.8999939</ele>
        <time>2013-08-31T10:05:32Z</time>
      </trkpt>
      <trkpt lat="45.83199" lon="4.80114">
        <ele>511.7000122</ele>
        <time>2013-08-31T10:05:33Z</time>
      </trkpt>
      <trkpt lat="45.83194" lon="4.80125">
        <ele>511.6000061</ele>
        <time>2013-08-31T10:05:34Z</time>
      </trkpt>
      <trkpt lat="45.83188" lon="4.80135">
        <ele>510.7000122</ele>
        <time>2013-08-31T10:05:35Z</time>
      </trkpt>
      <trkpt lat="45.83184" lon="4.80143">
        <ele>509.7000122</ele>
        <time>2013-08-31T10:05:36Z</time>
      </trkpt>
      <trkpt lat="45.83179" lon="4.80154">
        <ele>509.2999878</ele>
        <time>2013-08-31T10:05:37Z</time>
      </trkpt>
      <trkpt lat="45.83173" lon="4.80164">
        <ele>508.5</ele>
        <time>2013-08-31T10:05:38Z</time>
      </trkpt>
      <trkpt lat="45.83167" lon="4.80172">
        <ele>508.7000122</ele>
        <time>2013-08-31T10:05:39Z</time>
      </trkpt>
      <trkpt lat="45.83161" lon="4.80179">
        <ele>509</ele>
        <time>2013-08-31T10:05:40Z</time>
      </trkpt>
      <trkpt lat="45.83154" lon="4.80185">
        <ele>509.2999878</ele>
        <time>2013-08-31T10:05:41Z</time>
      </trkpt>
      <trkpt lat="45.83144" lon="4.80192">
        <ele>508.7999878</ele>
        <time>2013-08-31T10:05:42Z</time>
      </trkpt>
      <trkpt lat="45.83134" lon="4.80199">
        <ele>508.8999939</ele>
        <time>2013-08-31T10:05:43Z</time>
      </trkpt>
      <trkpt lat="45.83126" lon="4.80206">
        <ele>508.8999939</ele>
        <time>2013-08-31T10:05:44Z</time>
      </trkpt>
      <trkpt lat="45.83114" lon="4.80208">
        <ele>508.7999878</ele>
        <time>2013-08-31T10:05:45Z</time>
      </trkpt>
      <trkpt lat="45.83107" lon="4.80216">
        <ele>508.2000122</ele>
        <time>2013-08-31T10:05:46Z</time>
      </trkpt>
      <trkpt lat="45.83102" lon="4.80224">
        <ele>507.7999878</ele>
        <time>2013-08-31T10:05:47Z</time>
      </trkpt>
      <trkpt lat="45.83097" lon="4.80235">
        <ele>507.7000122</ele>
        <time>2013-08-31T10:05:48Z</time>
      </trkpt>
      <trkpt lat="45.83092" lon="4.80246">
        <ele>506.6000061</ele>
        <time>2013-08-31T10:05:49Z</time>
      </trkpt>
      <trkpt lat="45.8309" lon="4.80254">
        <ele>506.1000061</ele>
        <time>2013-08-31T10:05:50Z</time>
      </trkpt>
      <trkpt lat="45.83089" lon="4.80262">
        <ele>505.6000061</ele>
        <time>2013-08-31T10:05:51Z</time>
      </trkpt>
      <trkpt lat="45.83091" lon="4.80268">
        <ele>505.8999939</ele>
        <time>2013-08-31T10:05:52Z</time>
      </trkpt>
      <trkpt lat="45.83093" lon="4.80278">
        <ele>504.7999878</ele>
        <time>2013-08-31T10:05:53Z</time>
      </trkpt>
      <trkpt lat="45.831" lon="4.80278">
        <ele>505</ele>
        <time>2013-08-31T10:05:54Z</time>
      </trkpt>
      <trkpt lat="45.83104" lon="4.80288">
        <ele>502.6000061</ele>
        <time>2013-08-31T10:05:55Z</time>
      </trkpt>
      <trkpt lat="45.83114" lon="4.8029">
        <ele>501.5</ele>
        <time>2013-08-31T10:05:56Z</time>
      </trkpt>
      <trkpt lat="45.83122" lon="4.8029">
        <ele>500.7999878</ele>
        <time>2013-08-31T10:05:57Z</time>
      </trkpt>
      <trkpt lat="45.8313" lon="4.80286">
        <ele>501.1000061</ele>
        <time>2013-08-31T10:05:58Z</time>
      </trkpt>
      <trkpt lat="45.83138" lon="4.80282">
        <ele>500.5</ele>
        <time>2013-08-31T10:05:59Z</time>
      </trkpt>
      <trkpt lat="45.83146" lon="4.80276">
        <ele>499.2000122</ele>
        <time>2013-08-31T10:06:00Z</time>
      </trkpt>
      <trkpt lat="45.83155" lon="4.80274">
        <ele>499.2999878</ele>
        <time>2013-08-31T10:06:01Z</time>
      </trkpt>
      <trkpt lat="45.8316" lon="4.80274">
        <ele>498.3999939</ele>
        <time>2013-08-31T10:06:02Z</time>
      </trkpt>
      <trkpt lat="45.8317" lon="4.80274">
        <ele>498</ele>
        <time>2013-08-31T10:06:03Z</time>
      </trkpt>
      <trkpt lat="45.83182" lon="4.80275">
        <ele>496.7000122</ele>
        <time>2013-08-31T10:06:04Z</time>
      </trkpt>
      <trkpt lat="45.8319" lon="4.80275">
        <ele>496.1000061</ele>
        <time>2013-08-31T10:06:05Z</time>
      </trkpt>
      <trkpt lat="45.83198" lon="4.80276">
        <ele>495.7000122</ele>
        <time>2013-08-31T10:06:06Z</time>
      </trkpt>
      <trkpt lat="45.83206" lon="4.80279">
        <ele>495.3999939</ele>
        <time>2013-08-31T10:06:07Z</time>
      </trkpt>
      <trkpt lat="45.83215" lon="4.80281">
        <ele>494.3999939</ele>
        <time>2013-08-31T10:06:08Z</time>
      </trkpt>
      <trkpt lat="45.83222" lon="4.80283">
        <ele>489</ele>
        <time>2013-08-31T10:06:09Z</time>
      </trkpt>
      <trkpt lat="45.83228" lon="4.80289">
        <ele>484.7999878</ele>
        <time>2013-08-31T10:06:10Z</time>
      </trkpt>
      <trkpt lat="45.83236" lon="4.80291">
        <ele>480.7000122</ele>
        <time>2013-08-31T10:06:12Z</time>
      </trkpt>
      <trkpt lat="45.83242" lon="4.80291">
        <ele>478.7999878</ele>
        <time>2013-08-31T10:06:13Z</time>
      </trkpt>
      <trkpt lat="45.8325" lon="4.80291">
        <ele>477.8999939</ele>
        <time>2013-08-31T10:06:15Z</time>
      </trkpt>
      <trkpt lat="45.83252" lon="4.80291">
        <ele>477.5</ele>
        <time>2013-08-31T10:06:16Z</time>
      </trkpt>
      <trkpt lat="45.83257" lon="4.80293">
        <ele>477.2999878</ele>
        <time>2013-08-31T10:06:17Z</time>
      </trkpt>
      <trkpt lat="45.83263" lon="4.80293">
        <ele>475.7999878</ele>
        <time>2013-08-31T10:06:18Z</time>
      </trkpt>
      <trkpt lat="45.83269" lon="4.80288">
        <ele>473</ele>
        <time>2013-08-31T10:06:23Z</time>
      </trkpt>
      <trkpt lat="45.83271" lon="4.80286">
        <ele>473</ele>
        <time>2013-08-31T10:06:24Z</time>
      </trkpt>
      <trkpt lat="45.83275" lon="4.80279">
        <ele>475.3999939</ele>
        <time>2013-08-31T10:06:28Z</time>
      </trkpt>
      <trkpt lat="45.83277" lon="4.80277">
        <ele>475.7000122</ele>
        <time>2013-08-31T10:06:29Z</time>
      </trkpt>
      <trkpt lat="45.83283" lon="4.80269">
        <ele>474.7999878</ele>
        <time>2013-08-31T10:06:34Z</time>
      </trkpt>
      <trkpt lat="45.83284" lon="4.80269">
        <ele>474.7000122</ele>
        <time>2013-08-31T10:06:35Z</time>
      </trkpt>
      <trkpt lat="45.83289" lon="4.80264">
        <ele>475</ele>
        <time>2013-08-31T10:06:38Z</time>
      </trkpt>
      <trkpt lat="45.83292" lon="4.80262">
        <ele>475</ele>
        <time>2013-08-31T10:06:39Z</time>
      </trkpt>
      <trkpt lat="45.83298" lon="4.80255">
        <ele>473.5</ele>
        <time>2013-08-31T10:06:43Z</time>
      </trkpt>
      <trkpt lat="45.83302" lon="4.80253">
        <ele>473.2999878</ele>
        <time>2013-08-31T10:06:44Z</time>
      </trkpt>
      <trkpt lat="45.8331" lon="4.8025">
        <ele>475.2999878</ele>
        <time>2013-08-31T10:06:48Z</time>
      </trkpt>
      <trkpt lat="45.83314" lon="4.80248">
        <ele>475.2999878</ele>
        <time>2013-08-31T10:06:49Z</time>
      </trkpt>
      <trkpt lat="45.83322" lon="4.80243">
        <ele>474.2000122</ele>
        <time>2013-08-31T10:06:52Z</time>
      </trkpt>
      <trkpt lat="45.83324" lon="4.80242">
        <ele>474.5</ele>
        <time>2013-08-31T10:06:53Z</time>
      </trkpt>
      <trkpt lat="45.83331" lon="4.80239">
        <ele>476.7999878</ele>
        <time>2013-08-31T10:06:56Z</time>
      </trkpt>
      <trkpt lat="45.83333" lon="4.80238">
        <ele>477.2000122</ele>
        <time>2013-08-31T10:06:57Z</time>
      </trkpt>
      <trkpt lat="45.83339" lon="4.80234">
        <ele>479.7999878</ele>
        <time>2013-08-31T10:07:00Z</time>
      </trkpt>
      <trkpt lat="45.83342" lon="4.80234">
        <ele>480.5</ele>
        <time>2013-08-31T10:07:01Z</time>
      </trkpt>
      <trkpt lat="45.83348" lon="4.80233">
        <ele>480.7999878</ele>
        <time>2013-08-31T10:07:06Z</time>
      </trkpt>
      <trkpt lat="45.83352" lon="4.80231">
        <ele>480.3999939</ele>
        <time>2013-08-31T10:07:07Z</time>
      </trkpt>
      <trkpt lat="45.8336" lon="4.80229">
        <ele>480.2999878</ele>
        <time>2013-08-31T10:07:10Z</time>
      </trkpt>
      <trkpt lat="45.83363" lon="4.80228">
        <ele>480</ele>
        <time>2013-08-31T10:07:11Z</time>
      </trkpt>
      <trkpt lat="45.83371" lon="4.80223">
        <ele>482</ele>
        <time>2013-08-31T10:07:15Z</time>
      </trkpt>
      <trkpt lat="45.83373" lon="4.8022">
        <ele>482.2999878</ele>
        <time>2013-08-31T10:07:16Z</time>
      </trkpt>
      <trkpt lat="45.83379" lon="4.80215">
        <ele>484.1000061</ele>
        <time>2013-08-31T10:07:20Z</time>
      </trkpt>
      <trkpt lat="45.83381" lon="4.80214">
        <ele>484.6000061</ele>
        <time>2013-08-31T10:07:21Z</time>
      </trkpt>
      <trkpt lat="45.83387" lon="4.80212">
        <ele>486.7999878</ele>
        <time>2013-08-31T10:07:25Z</time>
      </trkpt>
      <trkpt lat="45.8339" lon="4.8021">
        <ele>486.2999878</ele>
        <time>2013-08-31T10:07:26Z</time>
      </trkpt>
      <trkpt lat="45.83397" lon="4.80206">
        <ele>485.7999878</ele>
        <time>2013-08-31T10:07:29Z</time>
      </trkpt>
      <trkpt lat="45.83399" lon="4.80204">
        <ele>485.7999878</ele>
        <time>2013-08-31T10:07:30Z</time>
      </trkpt>
      <trkpt lat="45.83405" lon="4.802">
        <ele>484.7999878</ele>
        <time>2013-08-31T10:07:33Z</time>
      </trkpt>
      <trkpt lat="45.83409" lon="4.80199">
        <ele>485.3999939</ele>
        <time>2013-08-31T10:07:34Z</time>
      </trkpt>
      <trkpt lat="45.83416" lon="4.80195">
        <ele>486.1000061</ele>
        <time>2013-08-31T10:07:36Z</time>
      </trkpt>
      <trkpt lat="45.83418" lon="4.80194">
        <ele>486</ele>
        <time>2013-08-31T10:07:37Z</time>
      </trkpt>
      <trkpt lat="45.83426" lon="4.80189">
        <ele>488.5</ele>
        <time>2013-08-31T10:07:43Z</time>
      </trkpt>
      <trkpt lat="45.83428" lon="4.80189">
        <ele>488.7999878</ele>
        <time>2013-08-31T10:07:44Z</time>
      </trkpt>
      <trkpt lat="45.83434" lon="4.80185">
        <ele>489.5</ele>
        <time>2013-08-31T10:07:48Z</time>
      </trkpt>
      <trkpt lat="45.83437" lon="4.80183">
        <ele>489.2999878</ele>
        <time>2013-08-31T10:07:49Z</time>
      </trkpt>
      <trkpt lat="45.83444" lon="4.80178">
        <ele>491.2000122</ele>
        <time>2013-08-31T10:07:52Z</time>
      </trkpt>
      <trkpt lat="45.83446" lon="4.80177">
        <ele>491.1000061</ele>
        <time>2013-08-31T10:07:53Z</time>
      </trkpt>
      <trkpt lat="45.83452" lon="4.80176">
        <ele>490.7999878</ele>
        <time>2013-08-31T10:07:54Z</time>
      </trkpt>
      <trkpt lat="45.83456" lon="4.80175">
        <ele>490.7000122</ele>
        <time>2013-08-31T10:07:55Z</time>
      </trkpt>
      <trkpt lat="45.83464" lon="4.80176">
        <ele>491</ele>
        <time>2013-08-31T10:08:02Z</time>
      </trkpt>
      <trkpt lat="45.83467" lon="4.80173">
        <ele>491.1000061</ele>
        <time>2013-08-31T10:08:03Z</time>
      </trkpt>
      <trkpt lat="45.8347" lon="4.80173">
        <ele>492.6000061</ele>
        <time>2013-08-31T10:08:11Z</time>
      </trkpt>
      <trkpt lat="45.8347" lon="4.80173">
        <ele>492.5</ele>
        <time>2013-08-31T10:08:12Z</time>
      </trkpt>
      <trkpt lat="45.83471" lon="4.80173">
        <ele>492.5</ele>
        <time>2013-08-31T10:08:13Z</time>
      </trkpt>
      <trkpt lat="45.83471" lon="4.80173">
        <ele>492.5</ele>
        <time>2013-08-31T10:08:14Z</time>
      </trkpt>
      <trkpt lat="45.83471" lon="4.80173">
        <ele>492.5</ele>
        <time>2013-08-31T10:08:16Z</time>
      </trkpt>
      <trkpt lat="45.83472" lon="4.80172">
        <ele>492.7999878</ele>
        <time>2013-08-31T10:08:19Z</time>
      </trkpt>
      <trkpt lat="45.8348" lon="4.80165">
        <ele>492.2000122</ele>
        <time>2013-08-31T10:08:21Z</time>
      </trkpt>
      <trkpt lat="45.83486" lon="4.80164">
        <ele>492.7000122</ele>
        <time>2013-08-31T10:08:21Z</time>
      </trkpt>
      <trkpt lat="45.83491" lon="4.80159">
        <ele>492.7000122</ele>
        <time>2013-08-31T10:08:23Z</time>
      </trkpt>
      <trkpt lat="45.83495" lon="4.80156">
        <ele>492</ele>
        <time>2013-08-31T10:08:24Z</time>
      </trkpt>
      <trkpt lat="45.83502" lon="4.8015">
        <ele>491.7000122</ele>
        <time>2013-08-31T10:08:24Z</time>
      </trkpt>
      <trkpt lat="45.83511" lon="4.80153">
        <ele>493.2000122</ele>
        <time>2013-08-31T10:08:29Z</time>
      </trkpt>
      <trkpt lat="45.83512" lon="4.80155">
        <ele>493.3999939</ele>
        <time>2013-08-31T10:08:30Z</time>
      </trkpt>
      <trkpt lat="45.83509" lon="4.80164">
        <ele>493.5</ele>
        <time>2013-08-31T10:08:31Z</time>
      </trkpt>
      <trkpt lat="45.83507" lon="4.80172">
        <ele>492.7999878</ele>
        <time>2013-08-31T10:08:31Z</time>
      </trkpt>
      <trkpt lat="45.83508" lon="4.80183">
        <ele>491.5</ele>
        <time>2013-08-31T10:08:34Z</time>
      </trkpt>
      <trkpt lat="45.83508" lon="4.8019">
        <ele>491.1000061</ele>
        <time>2013-08-31T10:08:35Z</time>
      </trkpt>
      <trkpt lat="45.83507" lon="4.802">
        <ele>491.6000061</ele>
        <time>2013-08-31T10:08:37Z</time>
      </trkpt>
      <trkpt lat="45.83506" lon="4.80207">
        <ele>491.3999939</ele>
        <time>2013-08-31T10:08:38Z</time>
      </trkpt>
      <trkpt lat="45.83506" lon="4.80217">
        <ele>493.2000122</ele>
        <time>2013-08-31T10:08:40Z</time>
      </trkpt>
      <trkpt lat="45.83506" lon="4.80222">
        <ele>493.8999939</ele>
        <time>2013-08-31T10:08:41Z</time>
      </trkpt>
      <trkpt lat="45.83507" lon="4.80233">
        <ele>494.5</ele>
        <time>2013-08-31T10:08:43Z</time>
      </trkpt>
      <trkpt lat="45.83507" lon="4.80242">
        <ele>494.3999939</ele>
        <time>2013-08-31T10:08:44Z</time>
      </trkpt>
      <trkpt lat="45.83509" lon="4.80249">
        <ele>494.6000061</ele>
        <time>2013-08-31T10:08:45Z</time>
      </trkpt>
      <trkpt lat="45.83511" lon="4.80256">
        <ele>494.5</ele>
        <time>2013-08-31T10:08:46Z</time>
      </trkpt>
      <trkpt lat="45.83515" lon="4.80262">
        <ele>493.7000122</ele>
        <time>2013-08-31T10:08:47Z</time>
      </trkpt>
      <trkpt lat="45.83518" lon="4.80271">
        <ele>493.6000061</ele>
        <time>2013-08-31T10:08:48Z</time>
      </trkpt>
      <trkpt lat="45.83519" lon="4.80277">
        <ele>494</ele>
        <time>2013-08-31T10:08:49Z</time>
      </trkpt>
      <trkpt lat="45.83521" lon="4.80284">
        <ele>494.7999878</ele>
        <time>2013-08-31T10:08:50Z</time>
      </trkpt>
      <trkpt lat="45.83524" lon="4.80291">
        <ele>496.2000122</ele>
        <time>2013-08-31T10:08:51Z</time>
      </trkpt>
      <trkpt lat="45.83529" lon="4.80298">
        <ele>496.7999878</ele>
        <time>2013-08-31T10:08:52Z</time>
      </trkpt>
      <trkpt lat="45.83534" lon="4.80305">
        <ele>496.2000122</ele>
        <time>2013-08-31T10:08:53Z</time>
      </trkpt>
      <trkpt lat="45.83538" lon="4.80311">
        <ele>495.7999878</ele>
        <time>2013-08-31T10:08:54Z</time>
      </trkpt>
      <trkpt lat="45.83539" lon="4.8032">
        <ele>495.5</ele>
        <time>2013-08-31T10:08:55Z</time>
      </trkpt>
      <trkpt lat="45.83544" lon="4.80323">
        <ele>496.3999939</ele>
        <time>2013-08-31T10:08:56Z</time>
      </trkpt>
      <trkpt lat="45.83547" lon="4.80329">
        <ele>496.6000061</ele>
        <time>2013-08-31T10:08:57Z</time>
      </trkpt>
      <trkpt lat="45.83551" lon="4.80333">
        <ele>496.5</ele>
        <time>2013-08-31T10:08:58Z</time>
      </trkpt>
      <trkpt lat="45.83556" lon="4.80339">
        <ele>494.1000061</ele>
        <time>2013-08-31T10:08:58Z</time>
      </trkpt>
      <trkpt lat="45.8356" lon="4.80345">
        <ele>492.8999939</ele>
        <time>2013-08-31T10:08:59Z</time>
      </trkpt>
      <trkpt lat="45.83563" lon="4.8035">
        <ele>491.3999939</ele>
        <time>2013-08-31T10:09:00Z</time>
      </trkpt>
      <trkpt lat="45.83568" lon="4.80353">
        <ele>490.5</ele>
        <time>2013-08-31T10:09:01Z</time>
      </trkpt>
      <trkpt lat="45.83571" lon="4.8036">
        <ele>488.6000061</ele>
        <time>2013-08-31T10:09:02Z</time>
      </trkpt>
      <trkpt lat="45.83574" lon="4.80365">
        <ele>487.8999939</ele>
        <time>2013-08-31T10:09:04Z</time>
      </trkpt>
      <trkpt lat="45.83579" lon="4.80374">
        <ele>490</ele>
        <time>2013-08-31T10:09:07Z</time>
      </trkpt>
      <trkpt lat="45.83582" lon="4.80377">
        <ele>490.6000061</ele>
        <time>2013-08-31T10:09:08Z</time>
      </trkpt>
      <trkpt lat="45.83588" lon="4.80385">
        <ele>491.3999939</ele>
        <time>2013-08-31T10:09:11Z</time>
      </trkpt>
      <trkpt lat="45.83589" lon="4.80387">
        <ele>491.5</ele>
        <time>2013-08-31T10:09:12Z</time>
      </trkpt>
      <trkpt lat="45.83595" lon="4.80396">
        <ele>491.5</ele>
        <time>2013-08-31T10:09:16Z</time>
      </trkpt>
      <trkpt lat="45.83599" lon="4.80398">
        <ele>489.7000122</ele>
        <time>2013-08-31T10:09:18Z</time>
      </trkpt>
      <trkpt lat="45.83602" lon="4.8041">
        <ele>488.6000061</ele>
        <time>2013-08-31T10:09:21Z</time>
      </trkpt>
      <trkpt lat="45.83602" lon="4.80415">
        <ele>488.1000061</ele>
        <time>2013-08-31T10:09:22Z</time>
      </trkpt>
      <trkpt lat="45.83598" lon="4.80422">
        <ele>488.6000061</ele>
        <time>2013-08-31T10:09:27Z</time>
      </trkpt>
      <trkpt lat="45.83596" lon="4.80424">
        <ele>488.5</ele>
        <time>2013-08-31T10:09:28Z</time>
      </trkpt>
      <trkpt lat="45.8359" lon="4.8043">
        <ele>487.1000061</ele>
        <time>2013-08-31T10:09:30Z</time>
      </trkpt>
      <trkpt lat="45.83585" lon="4.80433">
        <ele>486.5</ele>
        <time>2013-08-31T10:09:31Z</time>
      </trkpt>
      <trkpt lat="45.83579" lon="4.8044">
        <ele>486.1000061</ele>
        <time>2013-08-31T10:09:33Z</time>
      </trkpt>
      <trkpt lat="45.83577" lon="4.80443">
        <ele>485.5</ele>
        <time>2013-08-31T10:09:34Z</time>
      </trkpt>
      <trkpt lat="45.8357" lon="4.8045">
        <ele>484.7999878</ele>
        <time>2013-08-31T10:09:35Z</time>
      </trkpt>
      <trkpt lat="45.83569" lon="4.80452">
        <ele>485.2000122</ele>
        <time>2013-08-31T10:09:37Z</time>
      </trkpt>
      <trkpt lat="45.83564" lon="4.80454">
        <ele>484.3999939</ele>
        <time>2013-08-31T10:09:38Z</time>
      </trkpt>
      <trkpt lat="45.8356" lon="4.80458">
        <ele>483.7000122</ele>
        <time>2013-08-31T10:09:39Z</time>
      </trkpt>
      <trkpt lat="45.83555" lon="4.80463">
        <ele>483.3999939</ele>
        <time>2013-08-31T10:09:39Z</time>
      </trkpt>
      <trkpt lat="45.83549" lon="4.80467">
        <ele>482.8999939</ele>
        <time>2013-08-31T10:09:40Z</time>
      </trkpt>
      <trkpt lat="45.83543" lon="4.80469">
        <ele>481.7999878</ele>
        <time>2013-08-31T10:09:41Z</time>
      </trkpt>
      <trkpt lat="45.83537" lon="4.80473">
        <ele>480.1000061</ele>
        <time>2013-08-31T10:09:42Z</time>
      </trkpt>
      <trkpt lat="45.83531" lon="4.80483">
        <ele>478.2999878</ele>
        <time>2013-08-31T10:09:43Z</time>
      </trkpt>
      <trkpt lat="45.83529" lon="4.80488">
        <ele>477.7999878</ele>
        <time>2013-08-31T10:09:44Z</time>
      </trkpt>
      <trkpt lat="45.83525" lon="4.80493">
        <ele>478</ele>
        <time>2013-08-31T10:09:46Z</time>
      </trkpt>
      <trkpt lat="45.8352" lon="4.805">
        <ele>477.2999878</ele>
        <time>2013-08-31T10:09:47Z</time>
      </trkpt>
      <trkpt lat="45.83514" lon="4.80505">
        <ele>476.3999939</ele>
        <time>2013-08-31T10:09:48Z</time>
      </trkpt>
      <trkpt lat="45.83507" lon="4.80508">
        <ele>475.3999939</ele>
        <time>2013-08-31T10:09:49Z</time>
      </trkpt>
      <trkpt lat="45.83503" lon="4.80514">
        <ele>474.7999878</ele>
        <time>2013-08-31T10:09:50Z</time>
      </trkpt>
      <trkpt lat="45.83497" lon="4.80516">
        <ele>473.7999878</ele>
        <time>2013-08-31T10:09:51Z</time>
      </trkpt>
      <trkpt lat="45.83489" lon="4.80519">
        <ele>472.7999878</ele>
        <time>2013-08-31T10:09:52Z</time>
      </trkpt>
      <trkpt lat="45.83481" lon="4.80524">
        <ele>472</ele>
        <time>2013-08-31T10:09:54Z</time>
      </trkpt>
      <trkpt lat="45.83475" lon="4.80528">
        <ele>471.1000061</ele>
        <time>2013-08-31T10:09:55Z</time>
      </trkpt>
      <trkpt lat="45.8347" lon="4.8053">
        <ele>470.6000061</ele>
        <time>2013-08-31T10:09:56Z</time>
      </trkpt>
      <trkpt lat="45.83465" lon="4.80532">
        <ele>469.7999878</ele>
        <time>2013-08-31T10:09:57Z</time>
      </trkpt>
      <trkpt lat="45.83458" lon="4.80532">
        <ele>469</ele>
        <time>2013-08-31T10:09:59Z</time>
      </trkpt>
      <trkpt lat="45.83453" lon="4.80534">
        <ele>468</ele>
        <time>2013-08-31T10:10:00Z</time>
      </trkpt>
      <trkpt lat="45.83446" lon="4.80536">
        <ele>467.2999878</ele>
        <time>2013-08-31T10:10:01Z</time>
      </trkpt>
      <trkpt lat="45.8344" lon="4.80537">
        <ele>465.6000061</ele>
        <time>2013-08-31T10:10:02Z</time>
      </trkpt>
      <trkpt lat="45.83433" lon="4.80543">
        <ele>464.3999939</ele>
        <time>2013-08-31T10:10:03Z</time>
      </trkpt>
      <trkpt lat="45.83431" lon="4.80546">
        <ele>461.2999878</ele>
        <time>2013-08-31T10:10:04Z</time>
      </trkpt>
      <trkpt lat="45.83424" lon="4.80553">
        <ele>457.2999878</ele>
        <time>2013-08-31T10:10:06Z</time>
      </trkpt>
      <trkpt lat="45.83422" lon="4.80555">
        <ele>456.7000122</ele>
        <time>2013-08-31T10:10:07Z</time>
      </trkpt>
      <trkpt lat="45.83415" lon="4.80558">
        <ele>456.2000122</ele>
        <time>2013-08-31T10:10:09Z</time>
      </trkpt>
      <trkpt lat="45.8341" lon="4.80561">
        <ele>456</ele>
        <time>2013-08-31T10:10:10Z</time>
      </trkpt>
      <trkpt lat="45.83404" lon="4.80563">
        <ele>455.7999878</ele>
        <time>2013-08-31T10:10:11Z</time>
      </trkpt>
      <trkpt lat="45.834" lon="4.80565">
        <ele>455.2999878</ele>
        <time>2013-08-31T10:10:11Z</time>
      </trkpt>
      <trkpt lat="45.83392" lon="4.80565">
        <ele>454.2999878</ele>
        <time>2013-08-31T10:10:14Z</time>
      </trkpt>
      <trkpt lat="45.83389" lon="4.80567">
        <ele>454.2999878</ele>
        <time>2013-08-31T10:10:15Z</time>
      </trkpt>
      <trkpt lat="45.83383" lon="4.80568">
        <ele>453.7000122</ele>
        <time>2013-08-31T10:10:15Z</time>
      </trkpt>
      <trkpt lat="45.83379" lon="4.8057">
        <ele>452.7999878</ele>
        <time>2013-08-31T10:10:16Z</time>
      </trkpt>
      <trkpt lat="45.83383" lon="4.80564">
        <ele>450.5</ele>
        <time>2013-08-31T10:10:19Z</time>
      </trkpt>
      <trkpt lat="45.83383" lon="4.80564">
        <ele>450.3999939</ele>
        <time>2013-08-31T10:10:20Z</time>
      </trkpt>
      <trkpt lat="45.83383" lon="4.80564">
        <ele>450.6000061</ele>
        <time>2013-08-31T10:10:21Z</time>
      </trkpt>
      <trkpt lat="45.83382" lon="4.80564">
        <ele>450.5</ele>
        <time>2013-08-31T10:10:21Z</time>
      </trkpt>
      <trkpt lat="45.83381" lon="4.80564">
        <ele>450.7999878</ele>
        <time>2013-08-31T10:10:25Z</time>
      </trkpt>
      <trkpt lat="45.83381" lon="4.80564">
        <ele>451.1000061</ele>
        <time>2013-08-31T10:10:27Z</time>
      </trkpt>
      <trkpt lat="45.83381" lon="4.80564">
        <ele>451</ele>
        <time>2013-08-31T10:10:43Z</time>
      </trkpt>
      <trkpt lat="45.83382" lon="4.80567">
        <ele>451.2000122</ele>
        <time>2013-08-31T10:10:44Z</time>
      </trkpt>
      <trkpt lat="45.83379" lon="4.80575">
        <ele>447.2000122</ele>
        <time>2013-08-31T10:10:49Z</time>
      </trkpt>
      <trkpt lat="45.83377" lon="4.80582">
        <ele>446.6000061</ele>
        <time>2013-08-31T10:10:51Z</time>
      </trkpt>
      <trkpt lat="45.83378" lon="4.80591">
        <ele>444.8999939</ele>
        <time>2013-08-31T10:10:53Z</time>
      </trkpt>
      <trkpt lat="45.83378" lon="4.80596">
        <ele>444.5</ele>
        <time>2013-08-31T10:10:54Z</time>
      </trkpt>
      <trkpt lat="45.83379" lon="4.80609">
        <ele>444.3999939</ele>
        <time>2013-08-31T10:10:56Z</time>
      </trkpt>
      <trkpt lat="45.8338" lon="4.80614">
        <ele>444.8999939</ele>
        <time>2013-08-31T10:10:57Z</time>
      </trkpt>
      <trkpt lat="45.83383" lon="4.80625">
        <ele>444.8999939</ele>
        <time>2013-08-31T10:11:01Z</time>
      </trkpt>
      <trkpt lat="45.83383" lon="4.80628">
        <ele>444.5</ele>
        <time>2013-08-31T10:11:02Z</time>
      </trkpt>
      <trkpt lat="45.83383" lon="4.80639">
        <ele>442.7000122</ele>
        <time>2013-08-31T10:11:06Z</time>
      </trkpt>
      <trkpt lat="45.83383" lon="4.80642">
        <ele>442.6000061</ele>
        <time>2013-08-31T10:11:07Z</time>
      </trkpt>
      <trkpt lat="45.83382" lon="4.80652">
        <ele>442.1000061</ele>
        <time>2013-08-31T10:11:11Z</time>
      </trkpt>
      <trkpt lat="45.83379" lon="4.80654">
        <ele>442.6000061</ele>
        <time>2013-08-31T10:11:12Z</time>
      </trkpt>
      <trkpt lat="45.83372" lon="4.8066">
        <ele>443.1000061</ele>
        <time>2013-08-31T10:11:16Z</time>
      </trkpt>
      <trkpt lat="45.8337" lon="4.8066">
        <ele>442.7999878</ele>
        <time>2013-08-31T10:11:17Z</time>
      </trkpt>
      <trkpt lat="45.83361" lon="4.80659">
        <ele>438.1000061</ele>
        <time>2013-08-31T10:11:22Z</time>
      </trkpt>
      <trkpt lat="45.83359" lon="4.80659">
        <ele>437.2000122</ele>
        <time>2013-08-31T10:11:23Z</time>
      </trkpt>
      <trkpt lat="45.83354" lon="4.80663">
        <ele>435.6000061</ele>
        <time>2013-08-31T10:11:27Z</time>
      </trkpt>
      <trkpt lat="45.83351" lon="4.80666">
        <ele>435</ele>
        <time>2013-08-31T10:11:28Z</time>
      </trkpt>
      <trkpt lat="45.83347" lon="4.80676">
        <ele>434.5</ele>
        <time>2013-08-31T10:11:33Z</time>
      </trkpt>
      <trkpt lat="45.83347" lon="4.80679">
        <ele>434.2999878</ele>
        <time>2013-08-31T10:11:34Z</time>
      </trkpt>
      <trkpt lat="45.83341" lon="4.80685">
        <ele>434.7999878</ele>
        <time>2013-08-31T10:11:37Z</time>
      </trkpt>
      <trkpt lat="45.83336" lon="4.80688">
        <ele>435.1000061</ele>
        <time>2013-08-31T10:11:38Z</time>
      </trkpt>
      <trkpt lat="45.83331" lon="4.80694">
        <ele>435.5</ele>
        <time>2013-08-31T10:11:40Z</time>
      </trkpt>
      <trkpt lat="45.83328" lon="4.80696">
        <ele>435.5</ele>
        <time>2013-08-31T10:11:41Z</time>
      </trkpt>
      <trkpt lat="45.83322" lon="4.80701">
        <ele>435.3999939</ele>
        <time>2013-08-31T10:11:43Z</time>
      </trkpt>
      <trkpt lat="45.83319" lon="4.80703">
        <ele>435</ele>
        <time>2013-08-31T10:11:44Z</time>
      </trkpt>
      <trkpt lat="45.83313" lon="4.80708">
        <ele>435.1000061</ele>
        <time>2013-08-31T10:11:46Z</time>
      </trkpt>
      <trkpt lat="45.83309" lon="4.80708">
        <ele>434.5</ele>
        <time>2013-08-31T10:11:47Z</time>
      </trkpt>
      <trkpt lat="45.83303" lon="4.8071">
        <ele>434.3999939</ele>
        <time>2013-08-31T10:11:50Z</time>
      </trkpt>
      <trkpt lat="45.833" lon="4.8071">
        <ele>434.5</ele>
        <time>2013-08-31T10:11:51Z</time>
      </trkpt>
      <trkpt lat="45.83292" lon="4.80714">
        <ele>435.7000122</ele>
        <time>2013-08-31T10:11:56Z</time>
      </trkpt>
      <trkpt lat="45.83289" lon="4.80717">
        <ele>436.1000061</ele>
        <time>2013-08-31T10:11:57Z</time>
      </trkpt>
      <trkpt lat="45.83282" lon="4.8072">
        <ele>434.5</ele>
        <time>2013-08-31T10:12:00Z</time>
      </trkpt>
      <trkpt lat="45.8328" lon="4.80722">
        <ele>434.1000061</ele>
        <time>2013-08-31T10:12:01Z</time>
      </trkpt>
      <trkpt lat="45.83275" lon="4.80732">
        <ele>439.8999939</ele>
        <time>2013-08-31T10:12:07Z</time>
      </trkpt>
      <trkpt lat="45.83275" lon="4.80734">
        <ele>439.7999878</ele>
        <time>2013-08-31T10:12:08Z</time>
      </trkpt>
      <trkpt lat="45.83273" lon="4.80743">
        <ele>431.7999878</ele>
        <time>2013-08-31T10:12:21Z</time>
      </trkpt>
      <trkpt lat="45.83272" lon="4.80748">
        <ele>432</ele>
        <time>2013-08-31T10:12:22Z</time>
      </trkpt>
      <trkpt lat="45.83269" lon="4.80756">
        <ele>433.5</ele>
        <time>2013-08-31T10:12:26Z</time>
      </trkpt>
      <trkpt lat="45.83266" lon="4.8076">
        <ele>433.7000122</ele>
        <time>2013-08-31T10:12:26Z</time>
      </trkpt>
      <trkpt lat="45.83261" lon="4.80767">
        <ele>433.3999939</ele>
        <time>2013-08-31T10:12:31Z</time>
      </trkpt>
      <trkpt lat="45.83258" lon="4.80769">
        <ele>433.3999939</ele>
        <time>2013-08-31T10:12:31Z</time>
      </trkpt>
      <trkpt lat="45.83249" lon="4.8077">
        <ele>435</ele>
        <time>2013-08-31T10:12:37Z</time>
      </trkpt>
      <trkpt lat="45.83248" lon="4.80771">
        <ele>435.1000061</ele>
        <time>2013-08-31T10:12:38Z</time>
      </trkpt>
      <trkpt lat="45.8324" lon="4.80778">
        <ele>434</ele>
        <time>2013-08-31T10:12:43Z</time>
      </trkpt>
      <trkpt lat="45.83239" lon="4.80779">
        <ele>433.6000061</ele>
        <time>2013-08-31T10:12:44Z</time>
      </trkpt>
      <trkpt lat="45.83236" lon="4.80789">
        <ele>431.8999939</ele>
        <time>2013-08-31T10:12:47Z</time>
      </trkpt>
      <trkpt lat="45.83232" lon="4.80795">
        <ele>431.6000061</ele>
        <time>2013-08-31T10:12:48Z</time>
      </trkpt>
      <trkpt lat="45.83228" lon="4.808">
        <ele>431.3999939</ele>
        <time>2013-08-31T10:12:49Z</time>
      </trkpt>
      <trkpt lat="45.83225" lon="4.80805">
        <ele>430.8999939</ele>
        <time>2013-08-31T10:12:50Z</time>
      </trkpt>
      <trkpt lat="45.83222" lon="4.8081">
        <ele>430.5</ele>
        <time>2013-08-31T10:12:51Z</time>
      </trkpt>
      <trkpt lat="45.83218" lon="4.80814">
        <ele>429.7999878</ele>
        <time>2013-08-31T10:12:52Z</time>
      </trkpt>
      <trkpt lat="45.83211" lon="4.80818">
        <ele>429.2999878</ele>
        <time>2013-08-31T10:12:54Z</time>
      </trkpt>
      <trkpt lat="45.83207" lon="4.80819">
        <ele>429.2999878</ele>
        <time>2013-08-31T10:12:55Z</time>
      </trkpt>
      <trkpt lat="45.83199" lon="4.80818">
        <ele>429.8999939</ele>
        <time>2013-08-31T10:12:57Z</time>
      </trkpt>
      <trkpt lat="45.83196" lon="4.80821">
        <ele>430.2999878</ele>
        <time>2013-08-31T10:12:58Z</time>
      </trkpt>
      <trkpt lat="45.83189" lon="4.80822">
        <ele>432.2999878</ele>
        <time>2013-08-31T10:13:02Z</time>
      </trkpt>
      <trkpt lat="45.83187" lon="4.80822">
        <ele>432.7000122</ele>
        <time>2013-08-31T10:13:03Z</time>
      </trkpt>
      <trkpt lat="45.8318" lon="4.80822">
        <ele>431.6000061</ele>
        <time>2013-08-31T10:13:04Z</time>
      </trkpt>
      <trkpt lat="45.83176" lon="4.80823">
        <ele>432</ele>
        <time>2013-08-31T10:13:06Z</time>
      </trkpt>
      <trkpt lat="45.83173" lon="4.8083">
        <ele>431.7999878</ele>
        <time>2013-08-31T10:13:09Z</time>
      </trkpt>
      <trkpt lat="45.8317" lon="4.80834">
        <ele>431.3999939</ele>
        <time>2013-08-31T10:13:11Z</time>
      </trkpt>
      <trkpt lat="45.83169" lon="4.80845">
        <ele>431.2000122</ele>
        <time>2013-08-31T10:13:15Z</time>
      </trkpt>
      <trkpt lat="45.83168" lon="4.80847">
        <ele>430.7999878</ele>
        <time>2013-08-31T10:13:16Z</time>
      </trkpt>
      <trkpt lat="45.83164" lon="4.80858">
        <ele>429</ele>
        <time>2013-08-31T10:13:21Z</time>
      </trkpt>
      <trkpt lat="45.83164" lon="4.80858">
        <ele>429.2000122</ele>
        <time>2013-08-31T10:13:21Z</time>
      </trkpt>
      <trkpt lat="45.83162" lon="4.80869">
        <ele>426.5</ele>
        <time>2013-08-31T10:13:23Z</time>
      </trkpt>
      <trkpt lat="45.8316" lon="4.80872">
        <ele>425.2000122</ele>
        <time>2013-08-31T10:13:24Z</time>
      </trkpt>
      <trkpt lat="45.83163" lon="4.80882">
        <ele>425.3999939</ele>
        <time>2013-08-31T10:13:29Z</time>
      </trkpt>
      <trkpt lat="45.83166" lon="4.80885">
        <ele>424.6000061</ele>
        <time>2013-08-31T10:13:30Z</time>
      </trkpt>
      <trkpt lat="45.83172" lon="4.80892">
        <ele>421.8999939</ele>
        <time>2013-08-31T10:13:39Z</time>
      </trkpt>
      <trkpt lat="45.83173" lon="4.80893">
        <ele>421.2000122</ele>
        <time>2013-08-31T10:13:40Z</time>
      </trkpt>
      <trkpt lat="45.83173" lon="4.80904">
        <ele>419.7000122</ele>
        <time>2013-08-31T10:13:45Z</time>
      </trkpt>
      <trkpt lat="45.83175" lon="4.80908">
        <ele>419.1000061</ele>
        <time>2013-08-31T10:13:47Z</time>
      </trkpt>
      <trkpt lat="45.8317" lon="4.80916">
        <ele>419.2999878</ele>
        <time>2013-08-31T10:13:48Z</time>
      </trkpt>
      <trkpt lat="45.83168" lon="4.8092">
        <ele>418.7999878</ele>
        <time>2013-08-31T10:13:49Z</time>
      </trkpt>
      <trkpt lat="45.83165" lon="4.80929">
        <ele>417.2000122</ele>
        <time>2013-08-31T10:13:50Z</time>
      </trkpt>
      <trkpt lat="45.83162" lon="4.80936">
        <ele>416.3999939</ele>
        <time>2013-08-31T10:13:51Z</time>
      </trkpt>
      <trkpt lat="45.83155" lon="4.80943">
        <ele>412.7000122</ele>
        <time>2013-08-31T10:13:53Z</time>
      </trkpt>
      <trkpt lat="45.83153" lon="4.80948">
        <ele>412.5</ele>
        <time>2013-08-31T10:13:54Z</time>
      </trkpt>
      <trkpt lat="45.83146" lon="4.80956">
        <ele>412.2000122</ele>
        <time>2013-08-31T10:13:57Z</time>
      </trkpt>
      <trkpt lat="45.83144" lon="4.80959">
        <ele>412.6000061</ele>
        <time>2013-08-31T10:13:58Z</time>
      </trkpt>
      <trkpt lat="45.83139" lon="4.80965">
        <ele>413.3999939</ele>
        <time>2013-08-31T10:14:01Z</time>
      </trkpt>
      <trkpt lat="45.83137" lon="4.80966">
        <ele>412.6000061</ele>
        <time>2013-08-31T10:14:02Z</time>
      </trkpt>
      <trkpt lat="45.8314" lon="4.80969">
        <ele>412.6000061</ele>
        <time>2013-08-31T10:14:08Z</time>
      </trkpt>
      <trkpt lat="45.8314" lon="4.80969">
        <ele>412.6000061</ele>
        <time>2013-08-31T10:14:09Z</time>
      </trkpt>
      <trkpt lat="45.83141" lon="4.80969">
        <ele>412.7999878</ele>
        <time>2013-08-31T10:14:10Z</time>
      </trkpt>
      <trkpt lat="45.83141" lon="4.80969">
        <ele>412.7000122</ele>
        <time>2013-08-31T10:14:11Z</time>
      </trkpt>
      <trkpt lat="45.83141" lon="4.80968">
        <ele>412.7999878</ele>
        <time>2013-08-31T10:14:12Z</time>
      </trkpt>
      <trkpt lat="45.83141" lon="4.80969">
        <ele>412.7999878</ele>
        <time>2013-08-31T10:14:13Z</time>
      </trkpt>
      <trkpt lat="45.83138" lon="4.80976">
        <ele>410.7000122</ele>
        <time>2013-08-31T10:14:21Z</time>
      </trkpt>
      <trkpt lat="45.83138" lon="4.80976">
        <ele>410.3999939</ele>
        <time>2013-08-31T10:14:22Z</time>
      </trkpt>
      <trkpt lat="45.83139" lon="4.80977">
        <ele>409.7000122</ele>
        <time>2013-08-31T10:14:23Z</time>
      </trkpt>
      <trkpt lat="45.83133" lon="4.80979">
        <ele>409.2999878</ele>
        <time>2013-08-31T10:14:29Z</time>
      </trkpt>
      <trkpt lat="45.83129" lon="4.80981">
        <ele>409.5</ele>
        <time>2013-08-31T10:14:30Z</time>
      </trkpt>
      <trkpt lat="45.83123" lon="4.80985">
        <ele>409.2000122</ele>
        <time>2013-08-31T10:14:33Z</time>
      </trkpt>
      <trkpt lat="45.83121" lon="4.80986">
        <ele>408.5</ele>
        <time>2013-08-31T10:14:34Z</time>
      </trkpt>
      <trkpt lat="45.83114" lon="4.80994">
        <ele>407.2999878</ele>
        <time>2013-08-31T10:14:40Z</time>
      </trkpt>
      <trkpt lat="45.83113" lon="4.80996">
        <ele>407.2999878</ele>
        <time>2013-08-31T10:14:41Z</time>
      </trkpt>
      <trkpt lat="45.83107" lon="4.81003">
        <ele>409.7999878</ele>
        <time>2013-08-31T10:14:45Z</time>
      </trkpt>
      <trkpt lat="45.83104" lon="4.81005">
        <ele>410.1000061</ele>
        <time>2013-08-31T10:14:46Z</time>
      </trkpt>
      <trkpt lat="45.83096" lon="4.81009">
        <ele>410.6000061</ele>
        <time>2013-08-31T10:14:49Z</time>
      </trkpt>
      <trkpt lat="45.83096" lon="4.81011">
        <ele>411.7000122</ele>
        <time>2013-08-31T10:14:50Z</time>
      </trkpt>
      <trkpt lat="45.83093" lon="4.81019">
        <ele>413.1000061</ele>
        <time>2013-08-31T10:14:52Z</time>
      </trkpt>
      <trkpt lat="45.8309" lon="4.81024">
        <ele>413.2999878</ele>
        <time>2013-08-31T10:14:53Z</time>
      </trkpt>
      <trkpt lat="45.83086" lon="4.81031">
        <ele>412.6000061</ele>
        <time>2013-08-31T10:14:55Z</time>
      </trkpt>
      <trkpt lat="45.83082" lon="4.81031">
        <ele>412.7000122</ele>
        <time>2013-08-31T10:14:56Z</time>
      </trkpt>
      <trkpt lat="45.83077" lon="4.8104">
        <ele>408.5</ele>
        <time>2013-08-31T10:15:02Z</time>
      </trkpt>
      <trkpt lat="45.83074" lon="4.8104">
        <ele>407</ele>
        <time>2013-08-31T10:15:03Z</time>
      </trkpt>
      <trkpt lat="45.83068" lon="4.81042">
        <ele>406.1000061</ele>
        <time>2013-08-31T10:15:06Z</time>
      </trkpt>
      <trkpt lat="45.83063" lon="4.81043">
        <ele>404.1000061</ele>
        <time>2013-08-31T10:15:07Z</time>
      </trkpt>
      <trkpt lat="45.83056" lon="4.81045">
        <ele>403.7000122</ele>
        <time>2013-08-31T10:15:10Z</time>
      </trkpt>
      <trkpt lat="45.83053" lon="4.81046">
        <ele>403.7000122</ele>
        <time>2013-08-31T10:15:11Z</time>
      </trkpt>
      <trkpt lat="45.83046" lon="4.8105">
        <ele>403.2000122</ele>
        <time>2013-08-31T10:15:14Z</time>
      </trkpt>
      <trkpt lat="45.83045" lon="4.81051">
        <ele>403.2000122</ele>
        <time>2013-08-31T10:15:14Z</time>
      </trkpt>
      <trkpt lat="45.83041" lon="4.81054">
        <ele>403.5</ele>
        <time>2013-08-31T10:15:16Z</time>
      </trkpt>
      <trkpt lat="45.83037" lon="4.81059">
        <ele>403.5</ele>
        <time>2013-08-31T10:15:17Z</time>
      </trkpt>
      <trkpt lat="45.8303" lon="4.81059">
        <ele>408.1000061</ele>
        <time>2013-08-31T10:15:24Z</time>
      </trkpt>
      <trkpt lat="45.83028" lon="4.8106">
        <ele>408</ele>
        <time>2013-08-31T10:15:25Z</time>
      </trkpt>
      <trkpt lat="45.83021" lon="4.81065">
        <ele>413.2000122</ele>
        <time>2013-08-31T10:15:30Z</time>
      </trkpt>
      <trkpt lat="45.83019" lon="4.81067">
        <ele>414.6000061</ele>
        <time>2013-08-31T10:15:31Z</time>
      </trkpt>
      <trkpt lat="45.83015" lon="4.81069">
        <ele>415.7999878</ele>
        <time>2013-08-31T10:15:33Z</time>
      </trkpt>
      <trkpt lat="45.83009" lon="4.81066">
        <ele>410.6000061</ele>
        <time>2013-08-31T10:15:34Z</time>
      </trkpt>
      <trkpt lat="45.83003" lon="4.81065">
        <ele>408.3999939</ele>
        <time>2013-08-31T10:15:36Z</time>
      </trkpt>
      <trkpt lat="45.83" lon="4.81065">
        <ele>408.1000061</ele>
        <time>2013-08-31T10:15:37Z</time>
      </trkpt>
      <trkpt lat="45.82992" lon="4.81067">
        <ele>407.7999878</ele>
        <time>2013-08-31T10:15:40Z</time>
      </trkpt>
      <trkpt lat="45.8299" lon="4.81069">
        <ele>407.5</ele>
        <time>2013-08-31T10:15:41Z</time>
      </trkpt>
      <trkpt lat="45.82984" lon="4.81075">
        <ele>413.6000061</ele>
        <time>2013-08-31T10:15:47Z</time>
      </trkpt>
      <trkpt lat="45.82983" lon="4.81076">
        <ele>413.2000122</ele>
        <time>2013-08-31T10:15:48Z</time>
      </trkpt>
      <trkpt lat="45.82976" lon="4.8108">
        <ele>414.7999878</ele>
        <time>2013-08-31T10:15:51Z</time>
      </trkpt>
      <trkpt lat="45.82974" lon="4.81082">
        <ele>414.8999939</ele>
        <time>2013-08-31T10:15:52Z</time>
      </trkpt>
      <trkpt lat="45.82969" lon="4.8109">
        <ele>414.2999878</ele>
        <time>2013-08-31T10:15:56Z</time>
      </trkpt>
      <trkpt lat="45.82965" lon="4.81091">
        <ele>414</ele>
        <time>2013-08-31T10:15:57Z</time>
      </trkpt>
      <trkpt lat="45.82958" lon="4.81094">
        <ele>414.2999878</ele>
        <time>2013-08-31T10:15:59Z</time>
      </trkpt>
      <trkpt lat="45.82956" lon="4.81095">
        <ele>414.2000122</ele>
        <time>2013-08-31T10:16:00Z</time>
      </trkpt>
      <trkpt lat="45.82948" lon="4.81097">
        <ele>420</ele>
        <time>2013-08-31T10:16:06Z</time>
      </trkpt>
      <trkpt lat="45.82946" lon="4.81098">
        <ele>420.7000122</ele>
        <time>2013-08-31T10:16:07Z</time>
      </trkpt>
      <trkpt lat="45.82938" lon="4.81096">
        <ele>419.7999878</ele>
        <time>2013-08-31T10:16:11Z</time>
      </trkpt>
      <trkpt lat="45.82936" lon="4.81098">
        <ele>421.2999878</ele>
        <time>2013-08-31T10:16:12Z</time>
      </trkpt>
      <trkpt lat="45.8293" lon="4.81102">
        <ele>423.8999939</ele>
        <time>2013-08-31T10:16:15Z</time>
      </trkpt>
      <trkpt lat="45.82928" lon="4.81103">
        <ele>424.2000122</ele>
        <time>2013-08-31T10:16:16Z</time>
      </trkpt>
      <trkpt lat="45.8292" lon="4.81106">
        <ele>424.7000122</ele>
        <time>2013-08-31T10:16:20Z</time>
      </trkpt>
      <trkpt lat="45.82918" lon="4.81106">
        <ele>424.7000122</ele>
        <time>2013-08-31T10:16:21Z</time>
      </trkpt>
      <trkpt lat="45.82912" lon="4.81107">
        <ele>426</ele>
        <time>2013-08-31T10:16:24Z</time>
      </trkpt>
      <trkpt lat="45.82909" lon="4.81108">
        <ele>425.5</ele>
        <time>2013-08-31T10:16:25Z</time>
      </trkpt>
      <trkpt lat="45.82901" lon="4.81112">
        <ele>424.8999939</ele>
        <time>2013-08-31T10:16:31Z</time>
      </trkpt>
      <trkpt lat="45.829" lon="4.81112">
        <ele>425.1000061</ele>
        <time>2013-08-31T10:16:32Z</time>
      </trkpt>
      <trkpt lat="45.82897" lon="4.8111">
        <ele>422.7000122</ele>
        <time>2013-08-31T10:16:37Z</time>
      </trkpt>
      <trkpt lat="45.82897" lon="4.8111">
        <ele>422.7000122</ele>
        <time>2013-08-31T10:16:38Z</time>
      </trkpt>
      <trkpt lat="45.82896" lon="4.81109">
        <ele>422.2000122</ele>
        <time>2013-08-31T10:16:44Z</time>
      </trkpt>
      <trkpt lat="45.82894" lon="4.8111">
        <ele>421.6000061</ele>
        <time>2013-08-31T10:16:45Z</time>
      </trkpt>
      <trkpt lat="45.82892" lon="4.8111">
        <ele>419.2000122</ele>
        <time>2013-08-31T10:16:49Z</time>
      </trkpt>
      <trkpt lat="45.82891" lon="4.8111">
        <ele>419</ele>
        <time>2013-08-31T10:16:50Z</time>
      </trkpt>
      <trkpt lat="45.82891" lon="4.8111">
        <ele>418.7999878</ele>
        <time>2013-08-31T10:16:51Z</time>
      </trkpt>
      <trkpt lat="45.8289" lon="4.8111">
        <ele>419</ele>
        <time>2013-08-31T10:16:52Z</time>
      </trkpt>
      <trkpt lat="45.8289" lon="4.8111">
        <ele>419.1000061</ele>
        <time>2013-08-31T10:16:53Z</time>
      </trkpt>
      <trkpt lat="45.8289" lon="4.81111">
        <ele>419</ele>
        <time>2013-08-31T10:16:54Z</time>
      </trkpt>
      <trkpt lat="45.82889" lon="4.81111">
        <ele>419.7999878</ele>
        <time>2013-08-31T10:16:55Z</time>
      </trkpt>
      <trkpt lat="45.82881" lon="4.81113">
        <ele>419.2999878</ele>
        <time>2013-08-31T10:16:59Z</time>
      </trkpt>
      <trkpt lat="45.82879" lon="4.81113">
        <ele>420</ele>
        <time>2013-08-31T10:17:00Z</time>
      </trkpt>
      <trkpt lat="45.8287" lon="4.81111">
        <ele>422</ele>
        <time>2013-08-31T10:17:07Z</time>
      </trkpt>
      <trkpt lat="45.82869" lon="4.8111">
        <ele>422.2000122</ele>
        <time>2013-08-31T10:17:08Z</time>
      </trkpt>
      <trkpt lat="45.82863" lon="4.81113">
        <ele>421</ele>
        <time>2013-08-31T10:17:11Z</time>
      </trkpt>
      <trkpt lat="45.8286" lon="4.81115">
        <ele>420.8999939</ele>
        <time>2013-08-31T10:17:12Z</time>
      </trkpt>
      <trkpt lat="45.82855" lon="4.81121">
        <ele>420.2000122</ele>
        <time>2013-08-31T10:17:15Z</time>
      </trkpt>
      <trkpt lat="45.82853" lon="4.81123">
        <ele>420.5</ele>
        <time>2013-08-31T10:17:16Z</time>
      </trkpt>
      <trkpt lat="45.82847" lon="4.81128">
        <ele>420.1000061</ele>
        <time>2013-08-31T10:17:18Z</time>
      </trkpt>
      <trkpt lat="45.82844" lon="4.8113">
        <ele>419.2999878</ele>
        <time>2013-08-31T10:17:19Z</time>
      </trkpt>
      <trkpt lat="45.82839" lon="4.81135">
        <ele>417.6000061</ele>
        <time>2013-08-31T10:17:21Z</time>
      </trkpt>
      <trkpt lat="45.82836" lon="4.81139">
        <ele>418</ele>
        <time>2013-08-31T10:17:22Z</time>
      </trkpt>
      <trkpt lat="45.82831" lon="4.81146">
        <ele>416.5</ele>
        <time>2013-08-31T10:17:24Z</time>
      </trkpt>
      <trkpt lat="45.82829" lon="4.8115">
        <ele>416.3999939</ele>
        <time>2013-08-31T10:17:25Z</time>
      </trkpt>
      <trkpt lat="45.82824" lon="4.81158">
        <ele>415.8999939</ele>
        <time>2013-08-31T10:17:27Z</time>
      </trkpt>
      <trkpt lat="45.82822" lon="4.81163">
        <ele>416.2000122</ele>
        <time>2013-08-31T10:17:28Z</time>
      </trkpt>
      <trkpt lat="45.82818" lon="4.81171">
        <ele>415.7999878</ele>
        <time>2013-08-31T10:17:30Z</time>
      </trkpt>
      <trkpt lat="45.82815" lon="4.81175">
        <ele>415.7999878</ele>
        <time>2013-08-31T10:17:31Z</time>
      </trkpt>
      <trkpt lat="45.82812" lon="4.81184">
        <ele>415.5</ele>
        <time>2013-08-31T10:17:33Z</time>
      </trkpt>
      <trkpt lat="45.82811" lon="4.81188">
        <ele>415.1000061</ele>
        <time>2013-08-31T10:17:34Z</time>
      </trkpt>
      <trkpt lat="45.82808" lon="4.81197">
        <ele>415.3999939</ele>
        <time>2013-08-31T10:17:36Z</time>
      </trkpt>
      <trkpt lat="45.82807" lon="4.81201">
        <ele>415.5</ele>
        <time>2013-08-31T10:17:37Z</time>
      </trkpt>
      <trkpt lat="45.82804" lon="4.8121">
        <ele>415.7999878</ele>
        <time>2013-08-31T10:17:39Z</time>
      </trkpt>
      <trkpt lat="45.82803" lon="4.81214">
        <ele>416.1000061</ele>
        <time>2013-08-31T10:17:40Z</time>
      </trkpt>
      <trkpt lat="45.82799" lon="4.81222">
        <ele>416</ele>
        <time>2013-08-31T10:17:42Z</time>
      </trkpt>
      <trkpt lat="45.82798" lon="4.81226">
        <ele>416.5</ele>
        <time>2013-08-31T10:17:43Z</time>
      </trkpt>
      <trkpt lat="45.82796" lon="4.81235">
        <ele>416.7999878</ele>
        <time>2013-08-31T10:17:45Z</time>
      </trkpt>
      <trkpt lat="45.82795" lon="4.81239">
        <ele>416.8999939</ele>
        <time>2013-08-31T10:17:46Z</time>
      </trkpt>
      <trkpt lat="45.82794" lon="4.81248">
        <ele>417.5</ele>
        <time>2013-08-31T10:17:48Z</time>
      </trkpt>
      <trkpt lat="45.82793" lon="4.81252">
        <ele>417.8999939</ele>
        <time>2013-08-31T10:17:49Z</time>
      </trkpt>
      <trkpt lat="45.82792" lon="4.81261">
        <ele>418.2999878</ele>
        <time>2013-08-31T10:17:51Z</time>
      </trkpt>
      <trkpt lat="45.82792" lon="4.81266">
        <ele>418.2000122</ele>
        <time>2013-08-31T10:17:52Z</time>
      </trkpt>
      <trkpt lat="45.8279" lon="4.81274">
        <ele>418.6000061</ele>
        <time>2013-08-31T10:17:54Z</time>
      </trkpt>
      <trkpt lat="45.8279" lon="4.81278">
        <ele>418.8999939</ele>
        <time>2013-08-31T10:17:55Z</time>
      </trkpt>
      <trkpt lat="45.82787" lon="4.81291">
        <ele>420</ele>
        <time>2013-08-31T10:17:58Z</time>
      </trkpt>
      <trkpt lat="45.82787" lon="4.81295">
        <ele>420.6000061</ele>
        <time>2013-08-31T10:17:59Z</time>
      </trkpt>
      <trkpt lat="45.82784" lon="4.81306">
        <ele>422.2999878</ele>
        <time>2013-08-31T10:18:01Z</time>
      </trkpt>
      <trkpt lat="45.82783" lon="4.81309">
        <ele>422.8999939</ele>
        <time>2013-08-31T10:18:03Z</time>
      </trkpt>
      <trkpt lat="45.82782" lon="4.81318">
        <ele>423.7999878</ele>
        <time>2013-08-31T10:18:06Z</time>
      </trkpt>
      <trkpt lat="45.82781" lon="4.81322">
        <ele>424.2000122</ele>
        <time>2013-08-31T10:18:06Z</time>
      </trkpt>
      <trkpt lat="45.82779" lon="4.81332">
        <ele>425.8999939</ele>
        <time>2013-08-31T10:18:09Z</time>
      </trkpt>
      <trkpt lat="45.82779" lon="4.81335">
        <ele>426.5</ele>
        <time>2013-08-31T10:18:10Z</time>
      </trkpt>
      <trkpt lat="45.82777" lon="4.81343">
        <ele>427</ele>
        <time>2013-08-31T10:18:12Z</time>
      </trkpt>
      <trkpt lat="45.82776" lon="4.81347">
        <ele>427.2000122</ele>
        <time>2013-08-31T10:18:13Z</time>
      </trkpt>
      <trkpt lat="45.82773" lon="4.81355">
        <ele>427.8999939</ele>
        <time>2013-08-31T10:18:15Z</time>
      </trkpt>
      <trkpt lat="45.82772" lon="4.8136">
        <ele>428.5</ele>
        <time>2013-08-31T10:18:16Z</time>
      </trkpt>
      <trkpt lat="45.82771" lon="4.81371">
        <ele>429.5</ele>
        <time>2013-08-31T10:18:19Z</time>
      </trkpt>
      <trkpt lat="45.82771" lon="4.81374">
        <ele>429.8999939</ele>
        <time>2013-08-31T10:18:20Z</time>
      </trkpt>
      <trkpt lat="45.82772" lon="4.81384">
        <ele>430.2000122</ele>
        <time>2013-08-31T10:18:23Z</time>
      </trkpt>
      <trkpt lat="45.82771" lon="4.81388">
        <ele>431.2999878</ele>
        <time>2013-08-31T10:18:24Z</time>
      </trkpt>
      <trkpt lat="45.82771" lon="4.81399">
        <ele>433.5</ele>
        <time>2013-08-31T10:18:29Z</time>
      </trkpt>
      <trkpt lat="45.82771" lon="4.81403">
        <ele>433.8999939</ele>
        <time>2013-08-31T10:18:30Z</time>
      </trkpt>
      <trkpt lat="45.82768" lon="4.81415">
        <ele>434.7000122</ele>
        <time>2013-08-31T10:18:35Z</time>
      </trkpt>
      <trkpt lat="45.82768" lon="4.81418">
        <ele>434.7999878</ele>
        <time>2013-08-31T10:18:36Z</time>
      </trkpt>
      <trkpt lat="45.82768" lon="4.81429">
        <ele>435.7000122</ele>
        <time>2013-08-31T10:18:41Z</time>
      </trkpt>
      <trkpt lat="45.82769" lon="4.81431">
        <ele>435.7999878</ele>
        <time>2013-08-31T10:18:42Z</time>
      </trkpt>
      <trkpt lat="45.82764" lon="4.81438">
        <ele>439.2000122</ele>
        <time>2013-08-31T10:18:45Z</time>
      </trkpt>
      <trkpt lat="45.82762" lon="4.81441">
        <ele>440.1000061</ele>
        <time>2013-08-31T10:18:46Z</time>
      </trkpt>
      <trkpt lat="45.82757" lon="4.8145">
        <ele>439</ele>
        <time>2013-08-31T10:18:49Z</time>
      </trkpt>
      <trkpt lat="45.82756" lon="4.81452">
        <ele>440.5</ele>
        <time>2013-08-31T10:18:50Z</time>
      </trkpt>
      <trkpt lat="45.82754" lon="4.81464">
        <ele>441.7999878</ele>
        <time>2013-08-31T10:18:56Z</time>
      </trkpt>
      <trkpt lat="45.82753" lon="4.81465">
        <ele>441.3999939</ele>
        <time>2013-08-31T10:18:57Z</time>
      </trkpt>
      <trkpt lat="45.82752" lon="4.81478">
        <ele>441.6000061</ele>
        <time>2013-08-31T10:19:03Z</time>
      </trkpt>
      <trkpt lat="45.82752" lon="4.81479">
        <ele>441.3999939</ele>
        <time>2013-08-31T10:19:04Z</time>
      </trkpt>
      <trkpt lat="45.82749" lon="4.81491">
        <ele>442.5</ele>
        <time>2013-08-31T10:19:09Z</time>
      </trkpt>
      <trkpt lat="45.8275" lon="4.81493">
        <ele>443.3999939</ele>
        <time>2013-08-31T10:19:10Z</time>
      </trkpt>
      <trkpt lat="45.82749" lon="4.81501">
        <ele>446.6000061</ele>
        <time>2013-08-31T10:19:14Z</time>
      </trkpt>
      <trkpt lat="45.82745" lon="4.81506">
        <ele>445.6000061</ele>
        <time>2013-08-31T10:19:15Z</time>
      </trkpt>
      <trkpt lat="45.8274" lon="4.81515">
        <ele>442.5</ele>
        <time>2013-08-31T10:19:20Z</time>
      </trkpt>
      <trkpt lat="45.82737" lon="4.81515">
        <ele>442.2000122</ele>
        <time>2013-08-31T10:19:20Z</time>
      </trkpt>
      <trkpt lat="45.82733" lon="4.81527">
        <ele>445.7999878</ele>
        <time>2013-08-31T10:19:30Z</time>
      </trkpt>
      <trkpt lat="45.82732" lon="4.81528">
        <ele>446.7999878</ele>
        <time>2013-08-31T10:19:31Z</time>
      </trkpt>
      <trkpt lat="45.82724" lon="4.81534">
        <ele>447.2999878</ele>
        <time>2013-08-31T10:19:37Z</time>
      </trkpt>
      <trkpt lat="45.82725" lon="4.81537">
        <ele>446.3999939</ele>
        <time>2013-08-31T10:19:38Z</time>
      </trkpt>
      <trkpt lat="45.82723" lon="4.81549">
        <ele>446.7000122</ele>
        <time>2013-08-31T10:19:47Z</time>
      </trkpt>
      <trkpt lat="45.82725" lon="4.81552">
        <ele>448.7000122</ele>
        <time>2013-08-31T10:19:47Z</time>
      </trkpt>
      <trkpt lat="45.82722" lon="4.81563">
        <ele>449.1000061</ele>
        <time>2013-08-31T10:19:54Z</time>
      </trkpt>
      <trkpt lat="45.82722" lon="4.81564">
        <ele>449.5</ele>
        <time>2013-08-31T10:19:55Z</time>
      </trkpt>
      <trkpt lat="45.82719" lon="4.81574">
        <ele>449.2999878</ele>
        <time>2013-08-31T10:19:59Z</time>
      </trkpt>
      <trkpt lat="45.82717" lon="4.81575">
        <ele>450</ele>
        <time>2013-08-31T10:20:00Z</time>
      </trkpt>
      <trkpt lat="45.82713" lon="4.81583">
        <ele>451.8999939</ele>
        <time>2013-08-31T10:20:05Z</time>
      </trkpt>
      <trkpt lat="45.82713" lon="4.81583">
        <ele>451.8999939</ele>
        <time>2013-08-31T10:20:07Z</time>
      </trkpt>
      <trkpt lat="45.82712" lon="4.81583">
        <ele>451.2000122</ele>
        <time>2013-08-31T10:20:07Z</time>
      </trkpt>
      <trkpt lat="45.82712" lon="4.81583">
        <ele>451.1000061</ele>
        <time>2013-08-31T10:20:09Z</time>
      </trkpt>
      <trkpt lat="45.82712" lon="4.81583">
        <ele>451.3999939</ele>
        <time>2013-08-31T10:20:09Z</time>
      </trkpt>
      <trkpt lat="45.82712" lon="4.81584">
        <ele>451.2999878</ele>
        <time>2013-08-31T10:20:10Z</time>
      </trkpt>
      <trkpt lat="45.8271" lon="4.81596">
        <ele>452.2999878</ele>
        <time>2013-08-31T10:20:15Z</time>
      </trkpt>
      <trkpt lat="45.82708" lon="4.81602">
        <ele>452</ele>
        <time>2013-08-31T10:20:15Z</time>
      </trkpt>
      <trkpt lat="45.82702" lon="4.81612">
        <ele>451.2999878</ele>
        <time>2013-08-31T10:20:17Z</time>
      </trkpt>
      <trkpt lat="45.82702" lon="4.81616">
        <ele>450.8999939</ele>
        <time>2013-08-31T10:20:18Z</time>
      </trkpt>
      <trkpt lat="45.82701" lon="4.81627">
        <ele>452.8999939</ele>
        <time>2013-08-31T10:20:22Z</time>
      </trkpt>
      <trkpt lat="45.827" lon="4.8163">
        <ele>452.3999939</ele>
        <time>2013-08-31T10:20:22Z</time>
      </trkpt>
      <trkpt lat="45.82699" lon="4.81641">
        <ele>452</ele>
        <time>2013-08-31T10:20:25Z</time>
      </trkpt>
      <trkpt lat="45.82699" lon="4.81644">
        <ele>452.3999939</ele>
        <time>2013-08-31T10:20:26Z</time>
      </trkpt>
      <trkpt lat="45.82698" lon="4.81655">
        <ele>453.3999939</ele>
        <time>2013-08-31T10:20:30Z</time>
      </trkpt>
      <trkpt lat="45.82698" lon="4.81657">
        <ele>453.2000122</ele>
        <time>2013-08-31T10:20:32Z</time>
      </trkpt>
      <trkpt lat="45.82696" lon="4.81668">
        <ele>453.5</ele>
        <time>2013-08-31T10:20:36Z</time>
      </trkpt>
      <trkpt lat="45.82696" lon="4.81671">
        <ele>453.8999939</ele>
        <time>2013-08-31T10:20:37Z</time>
      </trkpt>
      <trkpt lat="45.82694" lon="4.81682">
        <ele>456.3999939</ele>
        <time>2013-08-31T10:20:41Z</time>
      </trkpt>
      <trkpt lat="45.82693" lon="4.81685">
        <ele>456.2999878</ele>
        <time>2013-08-31T10:20:42Z</time>
      </trkpt>
      <trkpt lat="45.8269" lon="4.81697">
        <ele>456.7999878</ele>
        <time>2013-08-31T10:20:46Z</time>
      </trkpt>
      <trkpt lat="45.8269" lon="4.81698">
        <ele>457.6000061</ele>
        <time>2013-08-31T10:20:48Z</time>
      </trkpt>
      <trkpt lat="45.8269" lon="4.8171">
        <ele>459.1000061</ele>
        <time>2013-08-31T10:20:52Z</time>
      </trkpt>
      <trkpt lat="45.82688" lon="4.81714">
        <ele>458.7999878</ele>
        <time>2013-08-31T10:20:53Z</time>
      </trkpt>
      <trkpt lat="45.82688" lon="4.81722">
        <ele>458.5</ele>
        <time>2013-08-31T10:20:55Z</time>
      </trkpt>
      <trkpt lat="45.82688" lon="4.81727">
        <ele>457.6000061</ele>
        <time>2013-08-31T10:20:57Z</time>
      </trkpt>
      <trkpt lat="45.82686" lon="4.81737">
        <ele>459.3999939</ele>
        <time>2013-08-31T10:21:00Z</time>
      </trkpt>
      <trkpt lat="45.82686" lon="4.81741">
        <ele>458.3999939</ele>
        <time>2013-08-31T10:21:01Z</time>
      </trkpt>
      <trkpt lat="45.82682" lon="4.81752">
        <ele>459.7999878</ele>
        <time>2013-08-31T10:21:05Z</time>
      </trkpt>
      <trkpt lat="45.82681" lon="4.81754">
        <ele>459.5</ele>
        <time>2013-08-31T10:21:07Z</time>
      </trkpt>
      <trkpt lat="45.82683" lon="4.81764">
        <ele>460.3999939</ele>
        <time>2013-08-31T10:21:13Z</time>
      </trkpt>
      <trkpt lat="45.82683" lon="4.81767">
        <ele>460.6000061</ele>
        <time>2013-08-31T10:21:15Z</time>
      </trkpt>
      <trkpt lat="45.82681" lon="4.81779">
        <ele>461.7000122</ele>
        <time>2013-08-31T10:21:19Z</time>
      </trkpt>
      <trkpt lat="45.8268" lon="4.81784">
        <ele>462.1000061</ele>
        <time>2013-08-31T10:21:20Z</time>
      </trkpt>
      <trkpt lat="45.82677" lon="4.81795">
        <ele>459.3999939</ele>
        <time>2013-08-31T10:21:25Z</time>
      </trkpt>
      <trkpt lat="45.82676" lon="4.81799">
        <ele>462.1000061</ele>
        <time>2013-08-31T10:21:26Z</time>
      </trkpt>
      <trkpt lat="45.82674" lon="4.81808">
        <ele>463.1000061</ele>
        <time>2013-08-31T10:21:29Z</time>
      </trkpt>
      <trkpt lat="45.82674" lon="4.81812">
        <ele>462.3999939</ele>
        <time>2013-08-31T10:21:30Z</time>
      </trkpt>
      <trkpt lat="45.82673" lon="4.81822">
        <ele>463.7999878</ele>
        <time>2013-08-31T10:21:34Z</time>
      </trkpt>
      <trkpt lat="45.82672" lon="4.81826">
        <ele>464</ele>
        <time>2013-08-31T10:21:35Z</time>
      </trkpt>
      <trkpt lat="45.82669" lon="4.81834">
        <ele>463.6000061</ele>
        <time>2013-08-31T10:21:38Z</time>
      </trkpt>
      <trkpt lat="45.82669" lon="4.81839">
        <ele>463</ele>
        <time>2013-08-31T10:21:39Z</time>
      </trkpt>
      <trkpt lat="45.82664" lon="4.8185">
        <ele>462.7999878</ele>
        <time>2013-08-31T10:21:42Z</time>
      </trkpt>
      <trkpt lat="45.82663" lon="4.81852">
        <ele>463.1000061</ele>
        <time>2013-08-31T10:21:43Z</time>
      </trkpt>
      <trkpt lat="45.82658" lon="4.81861">
        <ele>465.2999878</ele>
        <time>2013-08-31T10:21:46Z</time>
      </trkpt>
      <trkpt lat="45.82657" lon="4.81864">
        <ele>465.7000122</ele>
        <time>2013-08-31T10:21:47Z</time>
      </trkpt>
      <trkpt lat="45.82652" lon="4.81875">
        <ele>466.5</ele>
        <time>2013-08-31T10:21:51Z</time>
      </trkpt>
      <trkpt lat="45.82652" lon="4.81878">
        <ele>466.8999939</ele>
        <time>2013-08-31T10:21:52Z</time>
      </trkpt>
      <trkpt lat="45.82649" lon="4.81888">
        <ele>466.7999878</ele>
        <time>2013-08-31T10:21:55Z</time>
      </trkpt>
      <trkpt lat="45.82648" lon="4.81892">
        <ele>466.7000122</ele>
        <time>2013-08-31T10:21:56Z</time>
      </trkpt>
      <trkpt lat="45.82646" lon="4.81902">
        <ele>466.7999878</ele>
        <time>2013-08-31T10:21:59Z</time>
      </trkpt>
      <trkpt lat="45.82645" lon="4.81907">
        <ele>466.1000061</ele>
        <time>2013-08-31T10:22:00Z</time>
      </trkpt>
      <trkpt lat="45.82644" lon="4.81916">
        <ele>464.3999939</ele>
        <time>2013-08-31T10:22:02Z</time>
      </trkpt>
      <trkpt lat="45.8264" lon="4.8192">
        <ele>464.3999939</ele>
        <time>2013-08-31T10:22:03Z</time>
      </trkpt>
      <trkpt lat="45.82636" lon="4.81928">
        <ele>464.2999878</ele>
        <time>2013-08-31T10:22:05Z</time>
      </trkpt>
      <trkpt lat="45.82634" lon="4.81931">
        <ele>464</ele>
        <time>2013-08-31T10:22:06Z</time>
      </trkpt>
      <trkpt lat="45.82633" lon="4.81941">
        <ele>465.1000061</ele>
        <time>2013-08-31T10:22:07Z</time>
      </trkpt>
      <trkpt lat="45.82631" lon="4.81947">
        <ele>465.1000061</ele>
        <time>2013-08-31T10:22:08Z</time>
      </trkpt>
      <trkpt lat="45.82628" lon="4.81956">
        <ele>465.1000061</ele>
        <time>2013-08-31T10:22:10Z</time>
      </trkpt>
      <trkpt lat="45.82628" lon="4.81959">
        <ele>464.8999939</ele>
        <time>2013-08-31T10:22:11Z</time>
      </trkpt>
      <trkpt lat="45.82626" lon="4.8197">
        <ele>464.7999878</ele>
        <time>2013-08-31T10:22:13Z</time>
      </trkpt>
      <trkpt lat="45.82627" lon="4.81974">
        <ele>465.2000122</ele>
        <time>2013-08-31T10:22:14Z</time>
      </trkpt>
      <trkpt lat="45.82628" lon="4.81984">
        <ele>465.5</ele>
        <time>2013-08-31T10:22:16Z</time>
      </trkpt>
      <trkpt lat="45.82629" lon="4.81989">
        <ele>465.6000061</ele>
        <time>2013-08-31T10:22:17Z</time>
      </trkpt>
      <trkpt lat="45.82625" lon="4.81999">
        <ele>464.7000122</ele>
        <time>2013-08-31T10:22:22Z</time>
      </trkpt>
      <trkpt lat="45.82625" lon="4.81999">
        <ele>464.3999939</ele>
        <time>2013-08-31T10:22:23Z</time>
      </trkpt>
      <trkpt lat="45.82625" lon="4.81999">
        <ele>463.8999939</ele>
        <time>2013-08-31T10:22:24Z</time>
      </trkpt>
      <trkpt lat="45.82626" lon="4.82">
        <ele>463.5</ele>
        <time>2013-08-31T10:22:25Z</time>
      </trkpt>
      <trkpt lat="45.82626" lon="4.82">
        <ele>463.7000122</ele>
        <time>2013-08-31T10:22:26Z</time>
      </trkpt>
      <trkpt lat="45.82626" lon="4.82">
        <ele>464</ele>
        <time>2013-08-31T10:22:27Z</time>
      </trkpt>
      <trkpt lat="45.82626" lon="4.82001">
        <ele>464</ele>
        <time>2013-08-31T10:22:28Z</time>
      </trkpt>
      <trkpt lat="45.82625" lon="4.82004">
        <ele>463.3999939</ele>
        <time>2013-08-31T10:22:33Z</time>
      </trkpt>
      <trkpt lat="45.82625" lon="4.82004">
        <ele>463.3999939</ele>
        <time>2013-08-31T10:22:34Z</time>
      </trkpt>
      <trkpt lat="45.82625" lon="4.82004">
        <ele>463.6000061</ele>
        <time>2013-08-31T10:23:53Z</time>
      </trkpt>
      <trkpt lat="45.82626" lon="4.82004">
        <ele>463.7000122</ele>
        <time>2013-08-31T10:23:54Z</time>
      </trkpt>
      <trkpt lat="45.82629" lon="4.82011">
        <ele>461.7000122</ele>
        <time>2013-08-31T10:23:56Z</time>
      </trkpt>
      <trkpt lat="45.82632" lon="4.82016">
        <ele>460</ele>
        <time>2013-08-31T10:23:57Z</time>
      </trkpt>
      <trkpt lat="45.82641" lon="4.82019">
        <ele>456.8999939</ele>
        <time>2013-08-31T10:24:00Z</time>
      </trkpt>
      <trkpt lat="45.82645" lon="4.82021">
        <ele>455.5</ele>
        <time>2013-08-31T10:24:01Z</time>
      </trkpt>
      <trkpt lat="45.82651" lon="4.82025">
        <ele>453.2999878</ele>
        <time>2013-08-31T10:24:03Z</time>
      </trkpt>
      <trkpt lat="45.82661" lon="4.82027">
        <ele>451.3999939</ele>
        <time>2013-08-31T10:24:04Z</time>
      </trkpt>
      <trkpt lat="45.82668" lon="4.82024">
        <ele>450.1000061</ele>
        <time>2013-08-31T10:24:07Z</time>
      </trkpt>
      <trkpt lat="45.82666" lon="4.82017">
        <ele>444.7000122</ele>
        <time>2013-08-31T10:24:08Z</time>
      </trkpt>
      <trkpt lat="45.82671" lon="4.82011">
        <ele>441.6000061</ele>
        <time>2013-08-31T10:24:11Z</time>
      </trkpt>
      <trkpt lat="45.82674" lon="4.82008">
        <ele>441.1000061</ele>
        <time>2013-08-31T10:24:12Z</time>
      </trkpt>
      <trkpt lat="45.82677" lon="4.81998">
        <ele>440.5</ele>
        <time>2013-08-31T10:24:14Z</time>
      </trkpt>
      <trkpt lat="45.82679" lon="4.81994">
        <ele>439.5</ele>
        <time>2013-08-31T10:24:15Z</time>
      </trkpt>
      <trkpt lat="45.82685" lon="4.81995">
        <ele>439.6000061</ele>
        <time>2013-08-31T10:24:18Z</time>
      </trkpt>
      <trkpt lat="45.82688" lon="4.81994">
        <ele>438.8999939</ele>
        <time>2013-08-31T10:24:19Z</time>
      </trkpt>
      <trkpt lat="45.82696" lon="4.81992">
        <ele>435.7999878</ele>
        <time>2013-08-31T10:24:22Z</time>
      </trkpt>
      <trkpt lat="45.82698" lon="4.8199">
        <ele>435.5</ele>
        <time>2013-08-31T10:24:23Z</time>
      </trkpt>
      <trkpt lat="45.82703" lon="4.81984">
        <ele>432.7000122</ele>
        <time>2013-08-31T10:24:28Z</time>
      </trkpt>
      <trkpt lat="45.82705" lon="4.81982">
        <ele>431.5</ele>
        <time>2013-08-31T10:24:29Z</time>
      </trkpt>
      <trkpt lat="45.82707" lon="4.81982">
        <ele>430.5</ele>
        <time>2013-08-31T10:24:30Z</time>
      </trkpt>
      <trkpt lat="45.82707" lon="4.81982">
        <ele>430.5</ele>
        <time>2013-08-31T10:24:31Z</time>
      </trkpt>
      <trkpt lat="45.82707" lon="4.81983">
        <ele>430.3999939</ele>
        <time>2013-08-31T10:24:32Z</time>
      </trkpt>
      <trkpt lat="45.82707" lon="4.81983">
        <ele>429.8999939</ele>
        <time>2013-08-31T10:24:33Z</time>
      </trkpt>
      <trkpt lat="45.82708" lon="4.81983">
        <ele>429.3999939</ele>
        <time>2013-08-31T10:24:34Z</time>
      </trkpt>
      <trkpt lat="45.82712" lon="4.81982">
        <ele>428.6000061</ele>
        <time>2013-08-31T10:24:40Z</time>
      </trkpt>
      <trkpt lat="45.82712" lon="4.81982">
        <ele>428.6000061</ele>
        <time>2013-08-31T10:24:41Z</time>
      </trkpt>
      <trkpt lat="45.82711" lon="4.81983">
        <ele>428.5</ele>
        <time>2013-08-31T10:24:53Z</time>
      </trkpt>
      <trkpt lat="45.82711" lon="4.81983">
        <ele>428.6000061</ele>
        <time>2013-08-31T10:24:54Z</time>
      </trkpt>
      <trkpt lat="45.82711" lon="4.81983">
        <ele>428.6000061</ele>
        <time>2013-08-31T10:24:55Z</time>
      </trkpt>
      <trkpt lat="45.82711" lon="4.81983">
        <ele>428.7000122</ele>
        <time>2013-08-31T10:24:59Z</time>
      </trkpt>
      <trkpt lat="45.8272" lon="4.81983">
        <ele>427.5</ele>
        <time>2013-08-31T10:25:00Z</time>
      </trkpt>
      <trkpt lat="45.82731" lon="4.81985">
        <ele>427.3999939</ele>
        <time>2013-08-31T10:25:01Z</time>
      </trkpt>
      <trkpt lat="45.82744" lon="4.81987">
        <ele>426.8999939</ele>
        <time>2013-08-31T10:25:02Z</time>
      </trkpt>
      <trkpt lat="45.82756" lon="4.8199">
        <ele>426.7999878</ele>
        <time>2013-08-31T10:25:03Z</time>
      </trkpt>
      <trkpt lat="45.82768" lon="4.81991">
        <ele>426.7999878</ele>
        <time>2013-08-31T10:25:04Z</time>
      </trkpt>
      <trkpt lat="45.82774" lon="4.8199">
        <ele>426.1000061</ele>
        <time>2013-08-31T10:25:05Z</time>
      </trkpt>
      <trkpt lat="45.82783" lon="4.81991">
        <ele>425.7000122</ele>
        <time>2013-08-31T10:25:06Z</time>
      </trkpt>
      <trkpt lat="45.82796" lon="4.81996">
        <ele>425.7999878</ele>
        <time>2013-08-31T10:25:07Z</time>
      </trkpt>
      <trkpt lat="45.82811" lon="4.82">
        <ele>425.8999939</ele>
        <time>2013-08-31T10:25:08Z</time>
      </trkpt>
      <trkpt lat="45.82818" lon="4.82">
        <ele>425.2999878</ele>
        <time>2013-08-31T10:25:09Z</time>
      </trkpt>
      <trkpt lat="45.82821" lon="4.82005">
        <ele>425.3999939</ele>
        <time>2013-08-31T10:25:10Z</time>
      </trkpt>
      <trkpt lat="45.82826" lon="4.82004">
        <ele>425.3999939</ele>
        <time>2013-08-31T10:25:11Z</time>
      </trkpt>
      <trkpt lat="45.82839" lon="4.82009">
        <ele>425.5</ele>
        <time>2013-08-31T10:25:12Z</time>
      </trkpt>
      <trkpt lat="45.82845" lon="4.8201">
        <ele>424.7000122</ele>
        <time>2013-08-31T10:25:13Z</time>
      </trkpt>
      <trkpt lat="45.82848" lon="4.8201">
        <ele>424.8999939</ele>
        <time>2013-08-31T10:25:14Z</time>
      </trkpt>
      <trkpt lat="45.82856" lon="4.82016">
        <ele>423.2999878</ele>
        <time>2013-08-31T10:25:16Z</time>
      </trkpt>
      <trkpt lat="45.8286" lon="4.82015">
        <ele>422.3999939</ele>
        <time>2013-08-31T10:25:17Z</time>
      </trkpt>
      <trkpt lat="45.82864" lon="4.82013">
        <ele>422.1000061</ele>
        <time>2013-08-31T10:25:18Z</time>
      </trkpt>
      <trkpt lat="45.82869" lon="4.82012">
        <ele>421.2999878</ele>
        <time>2013-08-31T10:25:19Z</time>
      </trkpt>
      <trkpt lat="45.82877" lon="4.82013">
        <ele>412.8999939</ele>
        <time>2013-08-31T10:25:25Z</time>
      </trkpt>
      <trkpt lat="45.82879" lon="4.82013">
        <ele>412.7999878</ele>
        <time>2013-08-31T10:25:26Z</time>
      </trkpt>
      <trkpt lat="45.82887" lon="4.8201">
        <ele>408.3999939</ele>
        <time>2013-08-31T10:25:30Z</time>
      </trkpt>
      <trkpt lat="45.82891" lon="4.8201">
        <ele>407.3999939</ele>
        <time>2013-08-31T10:25:31Z</time>
      </trkpt>
      <trkpt lat="45.82899" lon="4.82009">
        <ele>407</ele>
        <time>2013-08-31T10:25:36Z</time>
      </trkpt>
      <trkpt lat="45.82901" lon="4.8201">
        <ele>407.2999878</ele>
        <time>2013-08-31T10:25:37Z</time>
      </trkpt>
      <trkpt lat="45.82908" lon="4.82007">
        <ele>408.5</ele>
        <time>2013-08-31T10:25:43Z</time>
      </trkpt>
      <trkpt lat="45.82912" lon="4.82004">
        <ele>407.7000122</ele>
        <time>2013-08-31T10:25:44Z</time>
      </trkpt>
      <trkpt lat="45.82916" lon="4.81994">
        <ele>391.5</ele>
        <time>2013-08-31T10:26:12Z</time>
      </trkpt>
      <trkpt lat="45.8292" lon="4.81994">
        <ele>390.5</ele>
        <time>2013-08-31T10:26:13Z</time>
      </trkpt>
      <trkpt lat="45.82928" lon="4.81992">
        <ele>389.7000122</ele>
        <time>2013-08-31T10:26:16Z</time>
      </trkpt>
      <trkpt lat="45.82929" lon="4.81991">
        <ele>390.1000061</ele>
        <time>2013-08-31T10:26:17Z</time>
      </trkpt>
      <trkpt lat="45.82938" lon="4.81991">
        <ele>389.2000122</ele>
        <time>2013-08-31T10:26:21Z</time>
      </trkpt>
      <trkpt lat="45.82941" lon="4.81993">
        <ele>390</ele>
        <time>2013-08-31T10:26:22Z</time>
      </trkpt>
      <trkpt lat="45.82946" lon="4.8199">
        <ele>389.2000122</ele>
        <time>2013-08-31T10:26:24Z</time>
      </trkpt>
      <trkpt lat="45.8295" lon="4.8199">
        <ele>389.2999878</ele>
        <time>2013-08-31T10:26:25Z</time>
      </trkpt>
      <trkpt lat="45.82953" lon="4.81989">
        <ele>389</ele>
        <time>2013-08-31T10:26:26Z</time>
      </trkpt>
      <trkpt lat="45.82961" lon="4.81985">
        <ele>388.2999878</ele>
        <time>2013-08-31T10:26:27Z</time>
      </trkpt>
      <trkpt lat="45.8297" lon="4.81987">
        <ele>386.7000122</ele>
        <time>2013-08-31T10:26:34Z</time>
      </trkpt>
      <trkpt lat="45.82969" lon="4.81987">
        <ele>386</ele>
        <time>2013-08-31T10:26:35Z</time>
      </trkpt>
      <trkpt lat="45.82969" lon="4.81986">
        <ele>386</ele>
        <time>2013-08-31T10:26:36Z</time>
      </trkpt>
      <trkpt lat="45.82971" lon="4.81989">
        <ele>384.5</ele>
        <time>2013-08-31T10:26:45Z</time>
      </trkpt>
      <trkpt lat="45.82971" lon="4.81989">
        <ele>384.3999939</ele>
        <time>2013-08-31T10:26:46Z</time>
      </trkpt>
      <trkpt lat="45.82971" lon="4.81989">
        <ele>384.6000061</ele>
        <time>2013-08-31T10:26:47Z</time>
      </trkpt>
      <trkpt lat="45.82975" lon="4.81991">
        <ele>388.1000061</ele>
        <time>2013-08-31T10:26:54Z</time>
      </trkpt>
      <trkpt lat="45.82975" lon="4.81991">
        <ele>388.1000061</ele>
        <time>2013-08-31T10:26:55Z</time>
      </trkpt>
      <trkpt lat="45.82975" lon="4.81991">
        <ele>388.2999878</ele>
        <time>2013-08-31T10:26:56Z</time>
      </trkpt>
      <trkpt lat="45.82975" lon="4.81991">
        <ele>388.3999939</ele>
        <time>2013-08-31T10:26:57Z</time>
      </trkpt>
      <trkpt lat="45.82975" lon="4.81991">
        <ele>388.8999939</ele>
        <time>2013-08-31T10:27:03Z</time>
      </trkpt>
      <trkpt lat="45.82976" lon="4.81998">
        <ele>391.8999939</ele>
        <time>2013-08-31T10:27:04Z</time>
      </trkpt>
      <trkpt lat="45.82977" lon="4.8201">
        <ele>396.1000061</ele>
        <time>2013-08-31T10:27:06Z</time>
      </trkpt>
      <trkpt lat="45.8298" lon="4.82011">
        <ele>396.8999939</ele>
        <time>2013-08-31T10:27:07Z</time>
      </trkpt>
      <trkpt lat="45.82987" lon="4.82018">
        <ele>396.7000122</ele>
        <time>2013-08-31T10:27:09Z</time>
      </trkpt>
      <trkpt lat="45.8299" lon="4.82021">
        <ele>396.1000061</ele>
        <time>2013-08-31T10:27:10Z</time>
      </trkpt>
      <trkpt lat="45.82992" lon="4.82028">
        <ele>395.7000122</ele>
        <time>2013-08-31T10:27:12Z</time>
      </trkpt>
      <trkpt lat="45.82996" lon="4.82032">
        <ele>394.8999939</ele>
        <time>2013-08-31T10:27:13Z</time>
      </trkpt>
      <trkpt lat="45.83" lon="4.82037">
        <ele>394.5</ele>
        <time>2013-08-31T10:27:14Z</time>
      </trkpt>
      <trkpt lat="45.83005" lon="4.82042">
        <ele>395.6000061</ele>
        <time>2013-08-31T10:27:15Z</time>
      </trkpt>
      <trkpt lat="45.83005" lon="4.82046">
        <ele>395.7000122</ele>
        <time>2013-08-31T10:27:16Z</time>
      </trkpt>
      <trkpt lat="45.83012" lon="4.8205">
        <ele>396.1000061</ele>
        <time>2013-08-31T10:27:17Z</time>
      </trkpt>
      <trkpt lat="45.83017" lon="4.82058">
        <ele>397</ele>
        <time>2013-08-31T10:27:18Z</time>
      </trkpt>
      <trkpt lat="45.83023" lon="4.82069">
        <ele>397.2999878</ele>
        <time>2013-08-31T10:27:19Z</time>
      </trkpt>
      <trkpt lat="45.83034" lon="4.82085">
        <ele>396.1000061</ele>
        <time>2013-08-31T10:27:20Z</time>
      </trkpt>
      <trkpt lat="45.83045" lon="4.82095">
        <ele>395.8999939</ele>
        <time>2013-08-31T10:27:21Z</time>
      </trkpt>
      <trkpt lat="45.8305" lon="4.82105">
        <ele>396</ele>
        <time>2013-08-31T10:27:22Z</time>
      </trkpt>
      <trkpt lat="45.83058" lon="4.82118">
        <ele>395.8999939</ele>
        <time>2013-08-31T10:27:23Z</time>
      </trkpt>
      <trkpt lat="45.83068" lon="4.82129">
        <ele>398</ele>
        <time>2013-08-31T10:27:24Z</time>
      </trkpt>
      <trkpt lat="45.83076" lon="4.82142">
        <ele>397.2999878</ele>
        <time>2013-08-31T10:27:25Z</time>
      </trkpt>
      <trkpt lat="45.83081" lon="4.82153">
        <ele>396.2999878</ele>
        <time>2013-08-31T10:27:26Z</time>
      </trkpt>
      <trkpt lat="45.83088" lon="4.82164">
        <ele>394.8999939</ele>
        <time>2013-08-31T10:27:27Z</time>
      </trkpt>
      <trkpt lat="45.83091" lon="4.82174">
        <ele>395.2000122</ele>
        <time>2013-08-31T10:27:28Z</time>
      </trkpt>
      <trkpt lat="45.83094" lon="4.82182">
        <ele>395</ele>
        <time>2013-08-31T10:27:29Z</time>
      </trkpt>
      <trkpt lat="45.83099" lon="4.82193">
        <ele>392.8999939</ele>
        <time>2013-08-31T10:27:30Z</time>
      </trkpt>
      <trkpt lat="45.83104" lon="4.82205">
        <ele>391.3999939</ele>
        <time>2013-08-31T10:27:31Z</time>
      </trkpt>
      <trkpt lat="45.83107" lon="4.82219">
        <ele>390.1000061</ele>
        <time>2013-08-31T10:27:32Z</time>
      </trkpt>
      <trkpt lat="45.83114" lon="4.82235">
        <ele>388.2000122</ele>
        <time>2013-08-31T10:27:33Z</time>
      </trkpt>
      <trkpt lat="45.83118" lon="4.82248">
        <ele>387.7000122</ele>
        <time>2013-08-31T10:27:34Z</time>
      </trkpt>
      <trkpt lat="45.83117" lon="4.82261">
        <ele>387.6000061</ele>
        <time>2013-08-31T10:27:35Z</time>
      </trkpt>
      <trkpt lat="45.83123" lon="4.82272">
        <ele>387.2000122</ele>
        <time>2013-08-31T10:27:36Z</time>
      </trkpt>
      <trkpt lat="45.83123" lon="4.82282">
        <ele>386</ele>
        <time>2013-08-31T10:27:38Z</time>
      </trkpt>
      <trkpt lat="45.83124" lon="4.82292">
        <ele>385.7999878</ele>
        <time>2013-08-31T10:27:39Z</time>
      </trkpt>
      <trkpt lat="45.83125" lon="4.82303">
        <ele>385.7999878</ele>
        <time>2013-08-31T10:27:40Z</time>
      </trkpt>
      <trkpt lat="45.83127" lon="4.82317">
        <ele>385.6000061</ele>
        <time>2013-08-31T10:27:41Z</time>
      </trkpt>
      <trkpt lat="45.83138" lon="4.8233">
        <ele>385.1000061</ele>
        <time>2013-08-31T10:27:42Z</time>
      </trkpt>
      <trkpt lat="45.83137" lon="4.82336">
        <ele>384.3999939</ele>
        <time>2013-08-31T10:27:43Z</time>
      </trkpt>
      <trkpt lat="45.83134" lon="4.82355">
        <ele>383.5</ele>
        <time>2013-08-31T10:27:45Z</time>
      </trkpt>
      <trkpt lat="45.83137" lon="4.82362">
        <ele>383.2999878</ele>
        <time>2013-08-31T10:27:46Z</time>
      </trkpt>
      <trkpt lat="45.8314" lon="4.82371">
        <ele>383.5</ele>
        <time>2013-08-31T10:27:47Z</time>
      </trkpt>
      <trkpt lat="45.83138" lon="4.82383">
        <ele>382.8999939</ele>
        <time>2013-08-31T10:27:49Z</time>
      </trkpt>
      <trkpt lat="45.83138" lon="4.8239">
        <ele>382.7999878</ele>
        <time>2013-08-31T10:27:50Z</time>
      </trkpt>
      <trkpt lat="45.83139" lon="4.82397">
        <ele>383.2999878</ele>
        <time>2013-08-31T10:27:51Z</time>
      </trkpt>
      <trkpt lat="45.83141" lon="4.82404">
        <ele>383.6000061</ele>
        <time>2013-08-31T10:27:52Z</time>
      </trkpt>
      <trkpt lat="45.8314" lon="4.82414">
        <ele>382.7999878</ele>
        <time>2013-08-31T10:27:54Z</time>
      </trkpt>
      <trkpt lat="45.83141" lon="4.82421">
        <ele>383.2999878</ele>
        <time>2013-08-31T10:27:55Z</time>
      </trkpt>
      <trkpt lat="45.83139" lon="4.82431">
        <ele>383.7999878</ele>
        <time>2013-08-31T10:27:56Z</time>
      </trkpt>
      <trkpt lat="45.83138" lon="4.82437">
        <ele>384.5</ele>
        <time>2013-08-31T10:27:57Z</time>
      </trkpt>
      <trkpt lat="45.83139" lon="4.82442">
        <ele>385.1000061</ele>
        <time>2013-08-31T10:27:58Z</time>
      </trkpt>
      <trkpt lat="45.83134" lon="4.82449">
        <ele>385.8999939</ele>
        <time>2013-08-31T10:27:59Z</time>
      </trkpt>
      <trkpt lat="45.83132" lon="4.82459">
        <ele>385.7000122</ele>
        <time>2013-08-31T10:28:00Z</time>
      </trkpt>
      <trkpt lat="45.83129" lon="4.8247">
        <ele>385.8999939</ele>
        <time>2013-08-31T10:28:01Z</time>
      </trkpt>
      <trkpt lat="45.83127" lon="4.8248">
        <ele>386.1000061</ele>
        <time>2013-08-31T10:28:02Z</time>
      </trkpt>
      <trkpt lat="45.83127" lon="4.82494">
        <ele>386.7999878</ele>
        <time>2013-08-31T10:28:03Z</time>
      </trkpt>
      <trkpt lat="45.83131" lon="4.82508">
        <ele>387.3999939</ele>
        <time>2013-08-31T10:28:04Z</time>
      </trkpt>
      <trkpt lat="45.83134" lon="4.82519">
        <ele>386.6000061</ele>
        <time>2013-08-31T10:28:05Z</time>
      </trkpt>
      <trkpt lat="45.83135" lon="4.82528">
        <ele>386</ele>
        <time>2013-08-31T10:28:06Z</time>
      </trkpt>
      <trkpt lat="45.83137" lon="4.8254">
        <ele>385.7000122</ele>
        <time>2013-08-31T10:28:07Z</time>
      </trkpt>
      <trkpt lat="45.83137" lon="4.82549">
        <ele>385.6000061</ele>
        <time>2013-08-31T10:28:08Z</time>
      </trkpt>
      <trkpt lat="45.83141" lon="4.82556">
        <ele>384.5</ele>
        <time>2013-08-31T10:28:09Z</time>
      </trkpt>
      <trkpt lat="45.83139" lon="4.82565">
        <ele>383.6000061</ele>
        <time>2013-08-31T10:28:10Z</time>
      </trkpt>
      <trkpt lat="45.83138" lon="4.82571">
        <ele>384.1000061</ele>
        <time>2013-08-31T10:28:11Z</time>
      </trkpt>
      <trkpt lat="45.83133" lon="4.82576">
        <ele>383.7000122</ele>
        <time>2013-08-31T10:28:12Z</time>
      </trkpt>
      <trkpt lat="45.8313" lon="4.82582">
        <ele>384</ele>
        <time>2013-08-31T10:28:13Z</time>
      </trkpt>
      <trkpt lat="45.83129" lon="4.82588">
        <ele>383.3999939</ele>
        <time>2013-08-31T10:28:14Z</time>
      </trkpt>
      <trkpt lat="45.83128" lon="4.82598">
        <ele>384.1000061</ele>
        <time>2013-08-31T10:28:16Z</time>
      </trkpt>
      <trkpt lat="45.83126" lon="4.82601">
        <ele>383.8999939</ele>
        <time>2013-08-31T10:28:17Z</time>
      </trkpt>
      <trkpt lat="45.83127" lon="4.82608">
        <ele>383.3999939</ele>
        <time>2013-08-31T10:28:18Z</time>
      </trkpt>
      <trkpt lat="45.83128" lon="4.82617">
        <ele>384.5</ele>
        <time>2013-08-31T10:28:19Z</time>
      </trkpt>
      <trkpt lat="45.83125" lon="4.82623">
        <ele>383.8999939</ele>
        <time>2013-08-31T10:28:20Z</time>
      </trkpt>
      <trkpt lat="45.8312" lon="4.82626">
        <ele>383.7999878</ele>
        <time>2013-08-31T10:28:21Z</time>
      </trkpt>
      <trkpt lat="45.83117" lon="4.8263">
        <ele>383.8999939</ele>
        <time>2013-08-31T10:28:22Z</time>
      </trkpt>
      <trkpt lat="45.83113" lon="4.82635">
        <ele>383.5</ele>
        <time>2013-08-31T10:28:23Z</time>
      </trkpt>
      <trkpt lat="45.8311" lon="4.82644">
        <ele>382.7000122</ele>
        <time>2013-08-31T10:28:26Z</time>
      </trkpt>
      <trkpt lat="45.83107" lon="4.82648">
        <ele>383.1000061</ele>
        <time>2013-08-31T10:28:27Z</time>
      </trkpt>
      <trkpt lat="45.83103" lon="4.82651">
        <ele>383.7999878</ele>
        <time>2013-08-31T10:28:28Z</time>
      </trkpt>
      <trkpt lat="45.83094" lon="4.82658">
        <ele>380.1000061</ele>
        <time>2013-08-31T10:28:29Z</time>
      </trkpt>
      <trkpt lat="45.83086" lon="4.82663">
        <ele>377.7000122</ele>
        <time>2013-08-31T10:28:30Z</time>
      </trkpt>
      <trkpt lat="45.83083" lon="4.8267">
        <ele>376.8999939</ele>
        <time>2013-08-31T10:28:31Z</time>
      </trkpt>
      <trkpt lat="45.83079" lon="4.82673">
        <ele>376.7999878</ele>
        <time>2013-08-31T10:28:32Z</time>
      </trkpt>
      <trkpt lat="45.83073" lon="4.82679">
        <ele>376</ele>
        <time>2013-08-31T10:28:34Z</time>
      </trkpt>
      <trkpt lat="45.83072" lon="4.82682">
        <ele>376.2999878</ele>
        <time>2013-08-31T10:28:35Z</time>
      </trkpt>
      <trkpt lat="45.83068" lon="4.82689">
        <ele>376.7000122</ele>
        <time>2013-08-31T10:28:38Z</time>
      </trkpt>
      <trkpt lat="45.83064" lon="4.82694">
        <ele>377.2999878</ele>
        <time>2013-08-31T10:28:39Z</time>
      </trkpt>
      <trkpt lat="45.83063" lon="4.82706">
        <ele>379</ele>
        <time>2013-08-31T10:28:42Z</time>
      </trkpt>
      <trkpt lat="45.83057" lon="4.82712">
        <ele>377.1000061</ele>
        <time>2013-08-31T10:28:43Z</time>
      </trkpt>
      <trkpt lat="45.83051" lon="4.82717">
        <ele>375.7999878</ele>
        <time>2013-08-31T10:28:44Z</time>
      </trkpt>
      <trkpt lat="45.83049" lon="4.82721">
        <ele>375.1000061</ele>
        <time>2013-08-31T10:28:45Z</time>
      </trkpt>
      <trkpt lat="45.83045" lon="4.82731">
        <ele>375.1000061</ele>
        <time>2013-08-31T10:28:47Z</time>
      </trkpt>
      <trkpt lat="45.83039" lon="4.82735">
        <ele>374.7000122</ele>
        <time>2013-08-31T10:28:48Z</time>
      </trkpt>
      <trkpt lat="45.83035" lon="4.82739">
        <ele>373.8999939</ele>
        <time>2013-08-31T10:28:49Z</time>
      </trkpt>
      <trkpt lat="45.83031" lon="4.82747">
        <ele>372.8999939</ele>
        <time>2013-08-31T10:28:50Z</time>
      </trkpt>
      <trkpt lat="45.83025" lon="4.82756">
        <ele>370.1000061</ele>
        <time>2013-08-31T10:28:52Z</time>
      </trkpt>
      <trkpt lat="45.83025" lon="4.82759">
        <ele>369.7000122</ele>
        <time>2013-08-31T10:28:53Z</time>
      </trkpt>
      <trkpt lat="45.8302" lon="4.82768">
        <ele>369.1000061</ele>
        <time>2013-08-31T10:28:55Z</time>
      </trkpt>
      <trkpt lat="45.83016" lon="4.82771">
        <ele>369.2999878</ele>
        <time>2013-08-31T10:28:56Z</time>
      </trkpt>
      <trkpt lat="45.83013" lon="4.82782">
        <ele>370.5</ele>
        <time>2013-08-31T10:28:59Z</time>
      </trkpt>
      <trkpt lat="45.83009" lon="4.82787">
        <ele>370.5</ele>
        <time>2013-08-31T10:29:00Z</time>
      </trkpt>
      <trkpt lat="45.83006" lon="4.82793">
        <ele>371.2000122</ele>
        <time>2013-08-31T10:29:01Z</time>
      </trkpt>
      <trkpt lat="45.83001" lon="4.828">
        <ele>372.2000122</ele>
        <time>2013-08-31T10:29:02Z</time>
      </trkpt>
      <trkpt lat="45.82996" lon="4.82804">
        <ele>372.6000061</ele>
        <time>2013-08-31T10:29:03Z</time>
      </trkpt>
      <trkpt lat="45.82994" lon="4.82808">
        <ele>373</ele>
        <time>2013-08-31T10:29:04Z</time>
      </trkpt>
      <trkpt lat="45.82989" lon="4.82812">
        <ele>373.5</ele>
        <time>2013-08-31T10:29:05Z</time>
      </trkpt>
      <trkpt lat="45.82985" lon="4.82816">
        <ele>373.8999939</ele>
        <time>2013-08-31T10:29:06Z</time>
      </trkpt>
      <trkpt lat="45.82981" lon="4.82822">
        <ele>373.3999939</ele>
        <time>2013-08-31T10:29:08Z</time>
      </trkpt>
      <trkpt lat="45.82983" lon="4.82829">
        <ele>385.2999878</ele>
        <time>2013-08-31T10:29:09Z</time>
      </trkpt>
      <trkpt lat="45.82977" lon="4.82834">
        <ele>384.1000061</ele>
        <time>2013-08-31T10:29:10Z</time>
      </trkpt>
      <trkpt lat="45.82974" lon="4.82836">
        <ele>384.2000122</ele>
        <time>2013-08-31T10:29:11Z</time>
      </trkpt>
      <trkpt lat="45.82967" lon="4.82841">
        <ele>383.1000061</ele>
        <time>2013-08-31T10:29:13Z</time>
      </trkpt>
      <trkpt lat="45.82962" lon="4.82847">
        <ele>380.7000122</ele>
        <time>2013-08-31T10:29:14Z</time>
      </trkpt>
      <trkpt lat="45.82958" lon="4.82851">
        <ele>382.2999878</ele>
        <time>2013-08-31T10:29:15Z</time>
      </trkpt>
      <trkpt lat="45.82953" lon="4.82854">
        <ele>380.8999939</ele>
        <time>2013-08-31T10:29:16Z</time>
      </trkpt>
      <trkpt lat="45.82948" lon="4.82857">
        <ele>378.2000122</ele>
        <time>2013-08-31T10:29:17Z</time>
      </trkpt>
      <trkpt lat="45.82941" lon="4.8286">
        <ele>374.7999878</ele>
        <time>2013-08-31T10:29:18Z</time>
      </trkpt>
      <trkpt lat="45.82937" lon="4.82865">
        <ele>376</ele>
        <time>2013-08-31T10:29:20Z</time>
      </trkpt>
      <trkpt lat="45.82934" lon="4.82867">
        <ele>375.8999939</ele>
        <time>2013-08-31T10:29:21Z</time>
      </trkpt>
      <trkpt lat="45.82928" lon="4.82874">
        <ele>374.1000061</ele>
        <time>2013-08-31T10:29:24Z</time>
      </trkpt>
      <trkpt lat="45.82926" lon="4.82876">
        <ele>374.1000061</ele>
        <time>2013-08-31T10:29:25Z</time>
      </trkpt>
      <trkpt lat="45.82919" lon="4.82879">
        <ele>372</ele>
        <time>2013-08-31T10:29:27Z</time>
      </trkpt>
      <trkpt lat="45.82916" lon="4.82881">
        <ele>372</ele>
        <time>2013-08-31T10:29:28Z</time>
      </trkpt>
      <trkpt lat="45.82909" lon="4.82884">
        <ele>375.3999939</ele>
        <time>2013-08-31T10:29:33Z</time>
      </trkpt>
      <trkpt lat="45.82907" lon="4.82885">
        <ele>374.8999939</ele>
        <time>2013-08-31T10:29:34Z</time>
      </trkpt>
      <trkpt lat="45.82904" lon="4.82886">
        <ele>373.7000122</ele>
        <time>2013-08-31T10:29:35Z</time>
      </trkpt>
      <trkpt lat="45.82896" lon="4.82884">
        <ele>371.7000122</ele>
        <time>2013-08-31T10:29:36Z</time>
      </trkpt>
      <trkpt lat="45.82891" lon="4.82885">
        <ele>369.1000061</ele>
        <time>2013-08-31T10:29:37Z</time>
      </trkpt>
      <trkpt lat="45.82886" lon="4.82885">
        <ele>367.2000122</ele>
        <time>2013-08-31T10:29:38Z</time>
      </trkpt>
      <trkpt lat="45.8288" lon="4.82886">
        <ele>365.7999878</ele>
        <time>2013-08-31T10:29:40Z</time>
      </trkpt>
      <trkpt lat="45.82877" lon="4.82886">
        <ele>365.2000122</ele>
        <time>2013-08-31T10:29:41Z</time>
      </trkpt>
      <trkpt lat="45.82869" lon="4.82886">
        <ele>365.7000122</ele>
        <time>2013-08-31T10:29:44Z</time>
      </trkpt>
      <trkpt lat="45.82865" lon="4.82885">
        <ele>365.7999878</ele>
        <time>2013-08-31T10:29:45Z</time>
      </trkpt>
      <trkpt lat="45.82858" lon="4.82886">
        <ele>364.7999878</ele>
        <time>2013-08-31T10:29:47Z</time>
      </trkpt>
      <trkpt lat="45.82855" lon="4.82885">
        <ele>363.2999878</ele>
        <time>2013-08-31T10:29:48Z</time>
      </trkpt>
      <trkpt lat="45.82847" lon="4.82887">
        <ele>364.7000122</ele>
        <time>2013-08-31T10:29:52Z</time>
      </trkpt>
      <trkpt lat="45.82845" lon="4.82888">
        <ele>365.7999878</ele>
        <time>2013-08-31T10:29:53Z</time>
      </trkpt>
      <trkpt lat="45.82836" lon="4.82888">
        <ele>365.5</ele>
        <time>2013-08-31T10:29:59Z</time>
      </trkpt>
      <trkpt lat="45.82835" lon="4.82888">
        <ele>364.7000122</ele>
        <time>2013-08-31T10:30:00Z</time>
      </trkpt>
      <trkpt lat="45.8283" lon="4.8289">
        <ele>363.7000122</ele>
        <time>2013-08-31T10:30:03Z</time>
      </trkpt>
      <trkpt lat="45.8283" lon="4.8289">
        <ele>363.3999939</ele>
        <time>2013-08-31T10:30:04Z</time>
      </trkpt>
      <trkpt lat="45.8283" lon="4.8289">
        <ele>363.5</ele>
        <time>2013-08-31T10:30:05Z</time>
      </trkpt>
      <trkpt lat="45.8283" lon="4.8289">
        <ele>363.3999939</ele>
        <time>2013-08-31T10:30:06Z</time>
      </trkpt>
      <trkpt lat="45.82829" lon="4.8289">
        <ele>363.2000122</ele>
        <time>2013-08-31T10:30:07Z</time>
      </trkpt>
      <trkpt lat="45.82828" lon="4.82889">
        <ele>362.8999939</ele>
        <time>2013-08-31T10:30:09Z</time>
      </trkpt>
      <trkpt lat="45.82828" lon="4.82889">
        <ele>363.1000061</ele>
        <time>2013-08-31T10:30:10Z</time>
      </trkpt>
      <trkpt lat="45.8283" lon="4.82889">
        <ele>363.3999939</ele>
        <time>2013-08-31T10:30:33Z</time>
      </trkpt>
      <trkpt lat="45.8283" lon="4.82889">
        <ele>363.3999939</ele>
        <time>2013-08-31T10:30:34Z</time>
      </trkpt>
      <trkpt lat="45.82836" lon="4.82887">
        <ele>358.8999939</ele>
        <time>2013-08-31T10:30:45Z</time>
      </trkpt>
      <trkpt lat="45.82839" lon="4.82885">
        <ele>358</ele>
        <time>2013-08-31T10:30:46Z</time>
      </trkpt>
      <trkpt lat="45.82845" lon="4.82878">
        <ele>349.6000061</ele>
        <time>2013-08-31T10:30:48Z</time>
      </trkpt>
      <trkpt lat="45.82848" lon="4.82876">
        <ele>347.5</ele>
        <time>2013-08-31T10:30:49Z</time>
      </trkpt>
      <trkpt lat="45.82856" lon="4.82879">
        <ele>349.3999939</ele>
        <time>2013-08-31T10:30:50Z</time>
      </trkpt>
      <trkpt lat="45.82862" lon="4.82878">
        <ele>349.2999878</ele>
        <time>2013-08-31T10:30:51Z</time>
      </trkpt>
      <trkpt lat="45.82866" lon="4.82877">
        <ele>347.1000061</ele>
        <time>2013-08-31T10:30:55Z</time>
      </trkpt>
      <trkpt lat="45.82871" lon="4.82875">
        <ele>346.6000061</ele>
        <time>2013-08-31T10:30:56Z</time>
      </trkpt>
      <trkpt lat="45.82876" lon="4.82875">
        <ele>346.5</ele>
        <time>2013-08-31T10:30:57Z</time>
      </trkpt>
      <trkpt lat="45.82882" lon="4.82873">
        <ele>346.5</ele>
        <time>2013-08-31T10:30:58Z</time>
      </trkpt>
      <trkpt lat="45.8289" lon="4.8287">
        <ele>347.7000122</ele>
        <time>2013-08-31T10:31:00Z</time>
      </trkpt>
      <trkpt lat="45.82893" lon="4.82868">
        <ele>347.6000061</ele>
        <time>2013-08-31T10:31:01Z</time>
      </trkpt>
      <trkpt lat="45.829" lon="4.82864">
        <ele>346.2000122</ele>
        <time>2013-08-31T10:31:03Z</time>
      </trkpt>
      <trkpt lat="45.82905" lon="4.82862">
        <ele>345.8999939</ele>
        <time>2013-08-31T10:31:04Z</time>
      </trkpt>
      <trkpt lat="45.82912" lon="4.82859">
        <ele>346.2999878</ele>
        <time>2013-08-31T10:31:06Z</time>
      </trkpt>
      <trkpt lat="45.82917" lon="4.82856">
        <ele>346.2000122</ele>
        <time>2013-08-31T10:31:07Z</time>
      </trkpt>
      <trkpt lat="45.82921" lon="4.82854">
        <ele>346.3999939</ele>
        <time>2013-08-31T10:31:08Z</time>
      </trkpt>
      <trkpt lat="45.82925" lon="4.82852">
        <ele>346.2999878</ele>
        <time>2013-08-31T10:31:09Z</time>
      </trkpt>
      <trkpt lat="45.82933" lon="4.82846">
        <ele>346.7999878</ele>
        <time>2013-08-31T10:31:11Z</time>
      </trkpt>
      <trkpt lat="45.82936" lon="4.82844">
        <ele>347.2999878</ele>
        <time>2013-08-31T10:31:12Z</time>
      </trkpt>
      <trkpt lat="45.82941" lon="4.82838">
        <ele>347.7999878</ele>
        <time>2013-08-31T10:31:14Z</time>
      </trkpt>
      <trkpt lat="45.82943" lon="4.82836">
        <ele>347.3999939</ele>
        <time>2013-08-31T10:31:15Z</time>
      </trkpt>
      <trkpt lat="45.82947" lon="4.82835">
        <ele>347.5</ele>
        <time>2013-08-31T10:31:17Z</time>
      </trkpt>
      <trkpt lat="45.82952" lon="4.82836">
        <ele>347.5</ele>
        <time>2013-08-31T10:31:18Z</time>
      </trkpt>
      <trkpt lat="45.82951" lon="4.82843">
        <ele>348.1000061</ele>
        <time>2013-08-31T10:31:21Z</time>
      </trkpt>
      <trkpt lat="45.8295" lon="4.82848">
        <ele>348.5</ele>
        <time>2013-08-31T10:31:22Z</time>
      </trkpt>
      <trkpt lat="45.82948" lon="4.82856">
        <ele>348.6000061</ele>
        <time>2013-08-31T10:31:23Z</time>
      </trkpt>
      <trkpt lat="45.82946" lon="4.82865">
        <ele>349.2000122</ele>
        <time>2013-08-31T10:31:24Z</time>
      </trkpt>
      <trkpt lat="45.82942" lon="4.82872">
        <ele>348.8999939</ele>
        <time>2013-08-31T10:31:25Z</time>
      </trkpt>
      <trkpt lat="45.82941" lon="4.8288">
        <ele>348.3999939</ele>
        <time>2013-08-31T10:31:26Z</time>
      </trkpt>
      <trkpt lat="45.82938" lon="4.82887">
        <ele>348.7000122</ele>
        <time>2013-08-31T10:31:27Z</time>
      </trkpt>
      <trkpt lat="45.82931" lon="4.82894">
        <ele>348.5</ele>
        <time>2013-08-31T10:31:28Z</time>
      </trkpt>
      <trkpt lat="45.82929" lon="4.82899">
        <ele>348.8999939</ele>
        <time>2013-08-31T10:31:29Z</time>
      </trkpt>
      <trkpt lat="45.82927" lon="4.82907">
        <ele>349.1000061</ele>
        <time>2013-08-31T10:31:30Z</time>
      </trkpt>
      <trkpt lat="45.82926" lon="4.82912">
        <ele>350.2000122</ele>
        <time>2013-08-31T10:31:31Z</time>
      </trkpt>
      <trkpt lat="45.82922" lon="4.82918">
        <ele>351.1000061</ele>
        <time>2013-08-31T10:31:32Z</time>
      </trkpt>
      <trkpt lat="45.82918" lon="4.82925">
        <ele>350.1000061</ele>
        <time>2013-08-31T10:31:33Z</time>
      </trkpt>
      <trkpt lat="45.82915" lon="4.8293">
        <ele>350.3999939</ele>
        <time>2013-08-31T10:31:34Z</time>
      </trkpt>
      <trkpt lat="45.82917" lon="4.8294">
        <ele>351</ele>
        <time>2013-08-31T10:31:36Z</time>
      </trkpt>
      <trkpt lat="45.82915" lon="4.82945">
        <ele>351.3999939</ele>
        <time>2013-08-31T10:31:37Z</time>
      </trkpt>
      <trkpt lat="45.82909" lon="4.82953">
        <ele>352.2999878</ele>
        <time>2013-08-31T10:31:38Z</time>
      </trkpt>
      <trkpt lat="45.8291" lon="4.82958">
        <ele>352.6000061</ele>
        <time>2013-08-31T10:31:40Z</time>
      </trkpt>
      <trkpt lat="45.82911" lon="4.82965">
        <ele>352.6000061</ele>
        <time>2013-08-31T10:31:41Z</time>
      </trkpt>
      <trkpt lat="45.82921" lon="4.82974">
        <ele>352.5</ele>
        <time>2013-08-31T10:31:41Z</time>
      </trkpt>
      <trkpt lat="45.82925" lon="4.8298">
        <ele>352.7000122</ele>
        <time>2013-08-31T10:31:43Z</time>
      </trkpt>
      <trkpt lat="45.82933" lon="4.82985">
        <ele>352.5</ele>
        <time>2013-08-31T10:31:44Z</time>
      </trkpt>
      <trkpt lat="45.82931" lon="4.82995">
        <ele>348</ele>
        <time>2013-08-31T10:31:46Z</time>
      </trkpt>
      <trkpt lat="45.82933" lon="4.82998">
        <ele>347.3999939</ele>
        <time>2013-08-31T10:31:47Z</time>
      </trkpt>
      <trkpt lat="45.82939" lon="4.83005">
        <ele>339.2999878</ele>
        <time>2013-08-31T10:31:53Z</time>
      </trkpt>
      <trkpt lat="45.8294" lon="4.83008">
        <ele>339</ele>
        <time>2013-08-31T10:31:55Z</time>
      </trkpt>
      <trkpt lat="45.82944" lon="4.83012">
        <ele>336.6000061</ele>
        <time>2013-08-31T10:31:57Z</time>
      </trkpt>
      <trkpt lat="45.82948" lon="4.83017">
        <ele>334.5</ele>
        <time>2013-08-31T10:31:58Z</time>
      </trkpt>
      <trkpt lat="45.82953" lon="4.83022">
        <ele>331.8999939</ele>
        <time>2013-08-31T10:32:00Z</time>
      </trkpt>
      <trkpt lat="45.82956" lon="4.83023">
        <ele>330.6000061</ele>
        <time>2013-08-31T10:32:01Z</time>
      </trkpt>
      <trkpt lat="45.82961" lon="4.83027">
        <ele>324.2999878</ele>
        <time>2013-08-31T10:32:05Z</time>
      </trkpt>
      <trkpt lat="45.82969" lon="4.83029">
        <ele>324.2999878</ele>
        <time>2013-08-31T10:32:06Z</time>
      </trkpt>
      <trkpt lat="45.82974" lon="4.83031">
        <ele>323.1000061</ele>
        <time>2013-08-31T10:32:07Z</time>
      </trkpt>
      <trkpt lat="45.82979" lon="4.83032">
        <ele>323</ele>
        <time>2013-08-31T10:32:08Z</time>
      </trkpt>
      <trkpt lat="45.82983" lon="4.83033">
        <ele>322.8999939</ele>
        <time>2013-08-31T10:32:09Z</time>
      </trkpt>
      <trkpt lat="45.82991" lon="4.83034">
        <ele>322.2999878</ele>
        <time>2013-08-31T10:32:10Z</time>
      </trkpt>
      <trkpt lat="45.82996" lon="4.83034">
        <ele>321.3999939</ele>
        <time>2013-08-31T10:32:11Z</time>
      </trkpt>
      <trkpt lat="45.83003" lon="4.83034">
        <ele>320.7000122</ele>
        <time>2013-08-31T10:32:12Z</time>
      </trkpt>
      <trkpt lat="45.83009" lon="4.83037">
        <ele>320.1000061</ele>
        <time>2013-08-31T10:32:15Z</time>
      </trkpt>
      <trkpt lat="45.83013" lon="4.8304">
        <ele>320.2000122</ele>
        <time>2013-08-31T10:32:16Z</time>
      </trkpt>
      <trkpt lat="45.83015" lon="4.83047">
        <ele>321.7000122</ele>
        <time>2013-08-31T10:32:19Z</time>
      </trkpt>
      <trkpt lat="45.83019" lon="4.83051">
        <ele>323.1000061</ele>
        <time>2013-08-31T10:32:20Z</time>
      </trkpt>
      <trkpt lat="45.8302" lon="4.83062">
        <ele>325.2999878</ele>
        <time>2013-08-31T10:32:24Z</time>
      </trkpt>
      <trkpt lat="45.83021" lon="4.83064">
        <ele>326.1000061</ele>
        <time>2013-08-31T10:32:25Z</time>
      </trkpt>
      <trkpt lat="45.83018" lon="4.83074">
        <ele>327.2000122</ele>
        <time>2013-08-31T10:32:33Z</time>
      </trkpt>
      <trkpt lat="45.83017" lon="4.83076">
        <ele>327.7000122</ele>
        <time>2013-08-31T10:32:34Z</time>
      </trkpt>
      <trkpt lat="45.83013" lon="4.83085">
        <ele>325</ele>
        <time>2013-08-31T10:32:38Z</time>
      </trkpt>
      <trkpt lat="45.83011" lon="4.83088">
        <ele>324.3999939</ele>
        <time>2013-08-31T10:32:39Z</time>
      </trkpt>
      <trkpt lat="45.83007" lon="4.83092">
        <ele>324</ele>
        <time>2013-08-31T10:32:40Z</time>
      </trkpt>
      <trkpt lat="45.83004" lon="4.83096">
        <ele>323.2999878</ele>
        <time>2013-08-31T10:32:41Z</time>
      </trkpt>
      <trkpt lat="45.82997" lon="4.83101">
        <ele>323.8999939</ele>
        <time>2013-08-31T10:32:42Z</time>
      </trkpt>
      <trkpt lat="45.82995" lon="4.83104">
        <ele>322.6000061</ele>
        <time>2013-08-31T10:32:43Z</time>
      </trkpt>
      <trkpt lat="45.8299" lon="4.83106">
        <ele>322.7999878</ele>
        <time>2013-08-31T10:32:44Z</time>
      </trkpt>
      <trkpt lat="45.82984" lon="4.8311">
        <ele>322.6000061</ele>
        <time>2013-08-31T10:32:45Z</time>
      </trkpt>
      <trkpt lat="45.82977" lon="4.83115">
        <ele>322.7999878</ele>
        <time>2013-08-31T10:32:47Z</time>
      </trkpt>
      <trkpt lat="45.82974" lon="4.83119">
        <ele>322.3999939</ele>
        <time>2013-08-31T10:32:48Z</time>
      </trkpt>
      <trkpt lat="45.82968" lon="4.83119">
        <ele>322.7000122</ele>
        <time>2013-08-31T10:32:50Z</time>
      </trkpt>
      <trkpt lat="45.82964" lon="4.83121">
        <ele>322</ele>
        <time>2013-08-31T10:32:51Z</time>
      </trkpt>
      <trkpt lat="45.82958" lon="4.83124">
        <ele>321.2000122</ele>
        <time>2013-08-31T10:32:52Z</time>
      </trkpt>
      <trkpt lat="45.82952" lon="4.83124">
        <ele>320.1000061</ele>
        <time>2013-08-31T10:32:53Z</time>
      </trkpt>
      <trkpt lat="45.82946" lon="4.83123">
        <ele>320</ele>
        <time>2013-08-31T10:32:54Z</time>
      </trkpt>
      <trkpt lat="45.82941" lon="4.83122">
        <ele>320.2000122</ele>
        <time>2013-08-31T10:32:55Z</time>
      </trkpt>
      <trkpt lat="45.82935" lon="4.83121">
        <ele>320.2000122</ele>
        <time>2013-08-31T10:32:56Z</time>
      </trkpt>
      <trkpt lat="45.82931" lon="4.83122">
        <ele>320.2000122</ele>
        <time>2013-08-31T10:32:57Z</time>
      </trkpt>
      <trkpt lat="45.82924" lon="4.83124">
        <ele>320.1000061</ele>
        <time>2013-08-31T10:32:58Z</time>
      </trkpt>
      <trkpt lat="45.82918" lon="4.83123">
        <ele>319</ele>
        <time>2013-08-31T10:32:59Z</time>
      </trkpt>
      <trkpt lat="45.8291" lon="4.83126">
        <ele>320.1000061</ele>
        <time>2013-08-31T10:33:00Z</time>
      </trkpt>
      <trkpt lat="45.82904" lon="4.83128">
        <ele>318.3999939</ele>
        <time>2013-08-31T10:33:01Z</time>
      </trkpt>
      <trkpt lat="45.82898" lon="4.83127">
        <ele>317.5</ele>
        <time>2013-08-31T10:33:02Z</time>
      </trkpt>
      <trkpt lat="45.8289" lon="4.83126">
        <ele>315.3999939</ele>
        <time>2013-08-31T10:33:03Z</time>
      </trkpt>
      <trkpt lat="45.82883" lon="4.83125">
        <ele>315.2999878</ele>
        <time>2013-08-31T10:33:04Z</time>
      </trkpt>
      <trkpt lat="45.82877" lon="4.83123">
        <ele>315.5</ele>
        <time>2013-08-31T10:33:05Z</time>
      </trkpt>
      <trkpt lat="45.82868" lon="4.83123">
        <ele>316.2999878</ele>
        <time>2013-08-31T10:33:07Z</time>
      </trkpt>
      <trkpt lat="45.82863" lon="4.83121">
        <ele>316</ele>
        <time>2013-08-31T10:33:08Z</time>
      </trkpt>
      <trkpt lat="45.82856" lon="4.83117">
        <ele>315.6000061</ele>
        <time>2013-08-31T10:33:10Z</time>
      </trkpt>
      <trkpt lat="45.8285" lon="4.83116">
        <ele>315.6000061</ele>
        <time>2013-08-31T10:33:11Z</time>
      </trkpt>
      <trkpt lat="45.82845" lon="4.83113">
        <ele>315.6000061</ele>
        <time>2013-08-31T10:33:13Z</time>
      </trkpt>
      <trkpt lat="45.82837" lon="4.83111">
        <ele>315.6000061</ele>
        <time>2013-08-31T10:33:14Z</time>
      </trkpt>
      <trkpt lat="45.82827" lon="4.83112">
        <ele>315.2000122</ele>
        <time>2013-08-31T10:33:15Z</time>
      </trkpt>
      <trkpt lat="45.82822" lon="4.83111">
        <ele>315.2000122</ele>
        <time>2013-08-31T10:33:16Z</time>
      </trkpt>
      <trkpt lat="45.82812" lon="4.83111">
        <ele>314.5</ele>
        <time>2013-08-31T10:33:17Z</time>
      </trkpt>
      <trkpt lat="45.82805" lon="4.8311">
        <ele>314.1000061</ele>
        <time>2013-08-31T10:33:18Z</time>
      </trkpt>
      <trkpt lat="45.82797" lon="4.83111">
        <ele>313.8999939</ele>
        <time>2013-08-31T10:33:19Z</time>
      </trkpt>
      <trkpt lat="45.82787" lon="4.83112">
        <ele>313.8999939</ele>
        <time>2013-08-31T10:33:20Z</time>
      </trkpt>
      <trkpt lat="45.8278" lon="4.83112">
        <ele>313.2999878</ele>
        <time>2013-08-31T10:33:23Z</time>
      </trkpt>
      <trkpt lat="45.82774" lon="4.83112">
        <ele>313.1000061</ele>
        <time>2013-08-31T10:33:24Z</time>
      </trkpt>
      <trkpt lat="45.82772" lon="4.83122">
        <ele>313</ele>
        <time>2013-08-31T10:33:27Z</time>
      </trkpt>
      <trkpt lat="45.82772" lon="4.83125">
        <ele>313.1000061</ele>
        <time>2013-08-31T10:33:28Z</time>
      </trkpt>
      <trkpt lat="45.8277" lon="4.83136">
        <ele>313.1000061</ele>
        <time>2013-08-31T10:33:30Z</time>
      </trkpt>
      <trkpt lat="45.8277" lon="4.8314">
        <ele>313.2999878</ele>
        <time>2013-08-31T10:33:31Z</time>
      </trkpt>
      <trkpt lat="45.82768" lon="4.83151">
        <ele>315.3999939</ele>
        <time>2013-08-31T10:33:34Z</time>
      </trkpt>
      <trkpt lat="45.82766" lon="4.83155">
        <ele>314.8999939</ele>
        <time>2013-08-31T10:33:35Z</time>
      </trkpt>
      <trkpt lat="45.82767" lon="4.83167">
        <ele>313.7000122</ele>
        <time>2013-08-31T10:33:38Z</time>
      </trkpt>
      <trkpt lat="45.82767" lon="4.83171">
        <ele>314.5</ele>
        <time>2013-08-31T10:33:39Z</time>
      </trkpt>
      <trkpt lat="45.82772" lon="4.83178">
        <ele>314.8999939</ele>
        <time>2013-08-31T10:33:40Z</time>
      </trkpt>
      <trkpt lat="45.82772" lon="4.83184">
        <ele>314.1000061</ele>
        <time>2013-08-31T10:33:41Z</time>
      </trkpt>
      <trkpt lat="45.8278" lon="4.83193">
        <ele>312.3999939</ele>
        <time>2013-08-31T10:33:42Z</time>
      </trkpt>
      <trkpt lat="45.82786" lon="4.83201">
        <ele>310.5</ele>
        <time>2013-08-31T10:33:43Z</time>
      </trkpt>
      <trkpt lat="45.82793" lon="4.83211">
        <ele>309.5</ele>
        <time>2013-08-31T10:33:44Z</time>
      </trkpt>
      <trkpt lat="45.82798" lon="4.83216">
        <ele>309</ele>
        <time>2013-08-31T10:33:45Z</time>
      </trkpt>
      <trkpt lat="45.82803" lon="4.83224">
        <ele>308.5</ele>
        <time>2013-08-31T10:33:46Z</time>
      </trkpt>
      <trkpt lat="45.82807" lon="4.83237">
        <ele>307.3999939</ele>
        <time>2013-08-31T10:33:47Z</time>
      </trkpt>
      <trkpt lat="45.82811" lon="4.83246">
        <ele>307.5</ele>
        <time>2013-08-31T10:33:48Z</time>
      </trkpt>
      <trkpt lat="45.82807" lon="4.83259">
        <ele>307</ele>
        <time>2013-08-31T10:33:49Z</time>
      </trkpt>
      <trkpt lat="45.8281" lon="4.83269">
        <ele>307.2000122</ele>
        <time>2013-08-31T10:33:50Z</time>
      </trkpt>
      <trkpt lat="45.8281" lon="4.83279">
        <ele>307</ele>
        <time>2013-08-31T10:33:51Z</time>
      </trkpt>
      <trkpt lat="45.8281" lon="4.83291">
        <ele>306.3999939</ele>
        <time>2013-08-31T10:33:52Z</time>
      </trkpt>
      <trkpt lat="45.82812" lon="4.83302">
        <ele>304.2999878</ele>
        <time>2013-08-31T10:33:53Z</time>
      </trkpt>
      <trkpt lat="45.82813" lon="4.83314">
        <ele>303.3999939</ele>
        <time>2013-08-31T10:33:54Z</time>
      </trkpt>
      <trkpt lat="45.82814" lon="4.83328">
        <ele>301.7999878</ele>
        <time>2013-08-31T10:33:55Z</time>
      </trkpt>
      <trkpt lat="45.82816" lon="4.83343">
        <ele>300.5</ele>
        <time>2013-08-31T10:33:56Z</time>
      </trkpt>
      <trkpt lat="45.82815" lon="4.83358">
        <ele>300</ele>
        <time>2013-08-31T10:33:57Z</time>
      </trkpt>
      <trkpt lat="45.82814" lon="4.83372">
        <ele>298.8999939</ele>
        <time>2013-08-31T10:33:58Z</time>
      </trkpt>
      <trkpt lat="45.82813" lon="4.83387">
        <ele>297.7000122</ele>
        <time>2013-08-31T10:33:59Z</time>
      </trkpt>
      <trkpt lat="45.82813" lon="4.83403">
        <ele>297.5</ele>
        <time>2013-08-31T10:34:00Z</time>
      </trkpt>
      <trkpt lat="45.8281" lon="4.83417">
        <ele>297.2999878</ele>
        <time>2013-08-31T10:34:01Z</time>
      </trkpt>
      <trkpt lat="45.82808" lon="4.83433">
        <ele>296.6000061</ele>
        <time>2013-08-31T10:34:02Z</time>
      </trkpt>
      <trkpt lat="45.82807" lon="4.83449">
        <ele>295.7000122</ele>
        <time>2013-08-31T10:34:03Z</time>
      </trkpt>
      <trkpt lat="45.82808" lon="4.83461">
        <ele>294.7000122</ele>
        <time>2013-08-31T10:34:04Z</time>
      </trkpt>
      <trkpt lat="45.82807" lon="4.83472">
        <ele>294.2999878</ele>
        <time>2013-08-31T10:34:05Z</time>
      </trkpt>
      <trkpt lat="45.82805" lon="4.83485">
        <ele>293.5</ele>
        <time>2013-08-31T10:34:06Z</time>
      </trkpt>
      <trkpt lat="45.82806" lon="4.83494">
        <ele>292.3999939</ele>
        <time>2013-08-31T10:34:07Z</time>
      </trkpt>
      <trkpt lat="45.8281" lon="4.83501">
        <ele>290.2999878</ele>
        <time>2013-08-31T10:34:08Z</time>
      </trkpt>
      <trkpt lat="45.82809" lon="4.83506">
        <ele>288.3999939</ele>
        <time>2013-08-31T10:34:09Z</time>
      </trkpt>
      <trkpt lat="45.8281" lon="4.83516">
        <ele>285.6000061</ele>
        <time>2013-08-31T10:34:11Z</time>
      </trkpt>
      <trkpt lat="45.82806" lon="4.83522">
        <ele>285.2999878</ele>
        <time>2013-08-31T10:34:12Z</time>
      </trkpt>
      <trkpt lat="45.82804" lon="4.83531">
        <ele>283.8999939</ele>
        <time>2013-08-31T10:34:14Z</time>
      </trkpt>
      <trkpt lat="45.82815" lon="4.83528">
        <ele>282.3999939</ele>
        <time>2013-08-31T10:34:15Z</time>
      </trkpt>
      <trkpt lat="45.82821" lon="4.83529">
        <ele>282</ele>
        <time>2013-08-31T10:34:16Z</time>
      </trkpt>
      <trkpt lat="45.82827" lon="4.83529">
        <ele>280.3999939</ele>
        <time>2013-08-31T10:34:17Z</time>
      </trkpt>
      <trkpt lat="45.82834" lon="4.8353">
        <ele>280.2999878</ele>
        <time>2013-08-31T10:34:18Z</time>
      </trkpt>
      <trkpt lat="45.82839" lon="4.83529">
        <ele>278.7000122</ele>
        <time>2013-08-31T10:34:19Z</time>
      </trkpt>
      <trkpt lat="45.82844" lon="4.83528">
        <ele>277.5</ele>
        <time>2013-08-31T10:34:20Z</time>
      </trkpt>
      <trkpt lat="45.8285" lon="4.83528">
        <ele>276.5</ele>
        <time>2013-08-31T10:34:21Z</time>
      </trkpt>
      <trkpt lat="45.82856" lon="4.83528">
        <ele>275.6000061</ele>
        <time>2013-08-31T10:34:22Z</time>
      </trkpt>
      <trkpt lat="45.82861" lon="4.83527">
        <ele>275</ele>
        <time>2013-08-31T10:34:23Z</time>
      </trkpt>
      <trkpt lat="45.82867" lon="4.83526">
        <ele>274.2000122</ele>
        <time>2013-08-31T10:34:24Z</time>
      </trkpt>
      <trkpt lat="45.82873" lon="4.83525">
        <ele>273.5</ele>
        <time>2013-08-31T10:34:25Z</time>
      </trkpt>
      <trkpt lat="45.82879" lon="4.83525">
        <ele>273.8999939</ele>
        <time>2013-08-31T10:34:26Z</time>
      </trkpt>
      <trkpt lat="45.82885" lon="4.83524">
        <ele>273.6000061</ele>
        <time>2013-08-31T10:34:27Z</time>
      </trkpt>
      <trkpt lat="45.82891" lon="4.83523">
        <ele>272.7999878</ele>
        <time>2013-08-31T10:34:28Z</time>
      </trkpt>
      <trkpt lat="45.82897" lon="4.83522">
        <ele>272.3999939</ele>
        <time>2013-08-31T10:34:29Z</time>
      </trkpt>
      <trkpt lat="45.82902" lon="4.8352">
        <ele>272.3999939</ele>
        <time>2013-08-31T10:34:30Z</time>
      </trkpt>
      <trkpt lat="45.82908" lon="4.8352">
        <ele>272.7000122</ele>
        <time>2013-08-31T10:34:31Z</time>
      </trkpt>
      <trkpt lat="45.82914" lon="4.83517">
        <ele>271.7999878</ele>
        <time>2013-08-31T10:34:32Z</time>
      </trkpt>
      <trkpt lat="45.82919" lon="4.83515">
        <ele>270.8999939</ele>
        <time>2013-08-31T10:34:33Z</time>
      </trkpt>
      <trkpt lat="45.82924" lon="4.83513">
        <ele>270.5</ele>
        <time>2013-08-31T10:34:34Z</time>
      </trkpt>
      <trkpt lat="45.82929" lon="4.83509">
        <ele>270.2000122</ele>
        <time>2013-08-31T10:34:35Z</time>
      </trkpt>
      <trkpt lat="45.82933" lon="4.83505">
        <ele>269.7999878</ele>
        <time>2013-08-31T10:34:36Z</time>
      </trkpt>
      <trkpt lat="45.82938" lon="4.835">
        <ele>269.5</ele>
        <time>2013-08-31T10:34:37Z</time>
      </trkpt>
      <trkpt lat="45.82945" lon="4.83496">
        <ele>269.6000061</ele>
        <time>2013-08-31T10:34:38Z</time>
      </trkpt>
      <trkpt lat="45.82948" lon="4.8349">
        <ele>269.6000061</ele>
        <time>2013-08-31T10:34:39Z</time>
      </trkpt>
      <trkpt lat="45.82952" lon="4.83486">
        <ele>269.7000122</ele>
        <time>2013-08-31T10:34:40Z</time>
      </trkpt>
      <trkpt lat="45.82956" lon="4.83482">
        <ele>269.7999878</ele>
        <time>2013-08-31T10:34:41Z</time>
      </trkpt>
      <trkpt lat="45.82961" lon="4.83476">
        <ele>269.6000061</ele>
        <time>2013-08-31T10:34:42Z</time>
      </trkpt>
      <trkpt lat="45.82959" lon="4.83468">
        <ele>269.2999878</ele>
        <time>2013-08-31T10:34:43Z</time>
      </trkpt>
      <trkpt lat="45.82962" lon="4.8346">
        <ele>269.2999878</ele>
        <time>2013-08-31T10:34:44Z</time>
      </trkpt>
      <trkpt lat="45.82965" lon="4.83453">
        <ele>269.2000122</ele>
        <time>2013-08-31T10:34:45Z</time>
      </trkpt>
      <trkpt lat="45.82972" lon="4.83449">
        <ele>269.2999878</ele>
        <time>2013-08-31T10:34:46Z</time>
      </trkpt>
      <trkpt lat="45.82978" lon="4.83443">
        <ele>269</ele>
        <time>2013-08-31T10:34:47Z</time>
      </trkpt>
      <trkpt lat="45.82986" lon="4.83438">
        <ele>268.6000061</ele>
        <time>2013-08-31T10:34:48Z</time>
      </trkpt>
      <trkpt lat="45.83016" lon="4.83442">
        <ele>267.2000122</ele>
        <time>2013-08-31T10:34:49Z</time>
      </trkpt>
      <trkpt lat="45.83027" lon="4.8344">
        <ele>266.2000122</ele>
        <time>2013-08-31T10:34:50Z</time>
      </trkpt>
      <trkpt lat="45.83039" lon="4.83437">
        <ele>264.8999939</ele>
        <time>2013-08-31T10:34:51Z</time>
      </trkpt>
      <trkpt lat="45.83048" lon="4.83433">
        <ele>263.7999878</ele>
        <time>2013-08-31T10:34:52Z</time>
      </trkpt>
      <trkpt lat="45.83055" lon="4.83429">
        <ele>262.7999878</ele>
        <time>2013-08-31T10:34:53Z</time>
      </trkpt>
      <trkpt lat="45.8306" lon="4.83427">
        <ele>262.7999878</ele>
        <time>2013-08-31T10:34:54Z</time>
      </trkpt>
      <trkpt lat="45.83065" lon="4.83425">
        <ele>262.2999878</ele>
        <time>2013-08-31T10:34:55Z</time>
      </trkpt>
      <trkpt lat="45.83074" lon="4.83424">
        <ele>262</ele>
        <time>2013-08-31T10:34:57Z</time>
      </trkpt>
      <trkpt lat="45.83076" lon="4.83424">
        <ele>261.8999939</ele>
        <time>2013-08-31T10:34:58Z</time>
      </trkpt>
      <trkpt lat="45.83081" lon="4.83433">
        <ele>261.8999939</ele>
        <time>2013-08-31T10:35:01Z</time>
      </trkpt>
      <trkpt lat="45.83083" lon="4.83442">
        <ele>261.8999939</ele>
        <time>2013-08-31T10:35:02Z</time>
      </trkpt>
      <trkpt lat="45.8308" lon="4.83448">
        <ele>261.6000061</ele>
        <time>2013-08-31T10:35:03Z</time>
      </trkpt>
      <trkpt lat="45.8308" lon="4.83455">
        <ele>261.5</ele>
        <time>2013-08-31T10:35:04Z</time>
      </trkpt>
      <trkpt lat="45.83086" lon="4.83462">
        <ele>261.5</ele>
        <time>2013-08-31T10:35:05Z</time>
      </trkpt>
      <trkpt lat="45.83093" lon="4.83466">
        <ele>261.7000122</ele>
        <time>2013-08-31T10:35:06Z</time>
      </trkpt>
      <trkpt lat="45.83097" lon="4.83471">
        <ele>261.7999878</ele>
        <time>2013-08-31T10:35:07Z</time>
      </trkpt>
      <trkpt lat="45.83101" lon="4.83478">
        <ele>261.8999939</ele>
        <time>2013-08-31T10:35:08Z</time>
      </trkpt>
      <trkpt lat="45.83098" lon="4.83486">
        <ele>261.2000122</ele>
        <time>2013-08-31T10:35:10Z</time>
      </trkpt>
      <trkpt lat="45.8311" lon="4.83493">
        <ele>261.2000122</ele>
        <time>2013-08-31T10:35:11Z</time>
      </trkpt>
      <trkpt lat="45.83117" lon="4.835">
        <ele>260.5</ele>
        <time>2013-08-31T10:35:13Z</time>
      </trkpt>
      <trkpt lat="45.8312" lon="4.83503">
        <ele>260.5</ele>
        <time>2013-08-31T10:35:14Z</time>
      </trkpt>
      <trkpt lat="45.83133" lon="4.83509">
        <ele>260.2000122</ele>
        <time>2013-08-31T10:35:15Z</time>
      </trkpt>
      <trkpt lat="45.83138" lon="4.83512">
        <ele>259.2999878</ele>
        <time>2013-08-31T10:35:17Z</time>
      </trkpt>
      <trkpt lat="45.83141" lon="4.83516">
        <ele>257</ele>
        <time>2013-08-31T10:35:18Z</time>
      </trkpt>
      <trkpt lat="45.83155" lon="4.8352">
        <ele>256</ele>
        <time>2013-08-31T10:35:19Z</time>
      </trkpt>
      <trkpt lat="45.83159" lon="4.83516">
        <ele>256.1000061</ele>
        <time>2013-08-31T10:35:22Z</time>
      </trkpt>
      <trkpt lat="45.83159" lon="4.83516">
        <ele>255.6999969</ele>
        <time>2013-08-31T10:35:23Z</time>
      </trkpt>
      <trkpt lat="45.83159" lon="4.83516">
        <ele>255.3999939</ele>
        <time>2013-08-31T10:35:24Z</time>
      </trkpt>
      <trkpt lat="45.83158" lon="4.83516">
        <ele>255.3999939</ele>
        <time>2013-08-31T10:35:25Z</time>
      </trkpt>
      <trkpt lat="45.83158" lon="4.83516">
        <ele>255.1999969</ele>
        <time>2013-08-31T10:35:26Z</time>
      </trkpt>
      <trkpt lat="45.83159" lon="4.83516">
        <ele>255.1000061</ele>
        <time>2013-08-31T10:35:27Z</time>
      </trkpt>
      <trkpt lat="45.83155" lon="4.83525">
        <ele>255.1000061</ele>
        <time>2013-08-31T10:35:36Z</time>
      </trkpt>
      <trkpt lat="45.83152" lon="4.83527">
        <ele>254.5</ele>
        <time>2013-08-31T10:35:37Z</time>
      </trkpt>
      <trkpt lat="45.83161" lon="4.83529">
        <ele>255</ele>
        <time>2013-08-31T10:35:42Z</time>
      </trkpt>
      <trkpt lat="45.83161" lon="4.83529">
        <ele>254.8000031</ele>
        <time>2013-08-31T10:35:43Z</time>
      </trkpt>
      <trkpt lat="45.8316" lon="4.83529">
        <ele>254.8000031</ele>
        <time>2013-08-31T10:35:44Z</time>
      </trkpt>
      <trkpt lat="45.8316" lon="4.83529">
        <ele>255</ele>
        <time>2013-08-31T10:35:50Z</time>
      </trkpt>
      <trkpt lat="45.83161" lon="4.83529">
        <ele>255</ele>
        <time>2013-08-31T10:35:51Z</time>
      </trkpt>
      <trkpt lat="45.83161" lon="4.83529">
        <ele>255.1000061</ele>
        <time>2013-08-31T10:35:52Z</time>
      </trkpt>
      <trkpt lat="45.83161" lon="4.83529">
        <ele>255.3000031</ele>
        <time>2013-08-31T10:35:53Z</time>
      </trkpt>
      <trkpt lat="45.83162" lon="4.8353">
        <ele>256.2999878</ele>
        <time>2013-08-31T10:35:55Z</time>
      </trkpt>
      <trkpt lat="45.83162" lon="4.8353">
        <ele>256.2999878</ele>
        <time>2013-08-31T10:35:56Z</time>
      </trkpt>
      <trkpt lat="45.83162" lon="4.83531">
        <ele>256.5</ele>
        <time>2013-08-31T10:35:57Z</time>
      </trkpt>
      <trkpt lat="45.83162" lon="4.83531">
        <ele>256.5</ele>
        <time>2013-08-31T10:35:58Z</time>
      </trkpt>
      <trkpt lat="45.83163" lon="4.83531">
        <ele>256.7999878</ele>
        <time>2013-08-31T10:36:14Z</time>
      </trkpt>
      <trkpt lat="45.83161" lon="4.8353">
        <ele>256.6000061</ele>
        <time>2013-08-31T10:36:15Z</time>
      </trkpt>
      <trkpt lat="45.83156" lon="4.8352">
        <ele>256.2000122</ele>
        <time>2013-08-31T10:36:17Z</time>
      </trkpt>
      <trkpt lat="45.83153" lon="4.83517">
        <ele>257</ele>
        <time>2013-08-31T10:36:18Z</time>
      </trkpt>
      <trkpt lat="45.83147" lon="4.83509">
        <ele>257.8999939</ele>
        <time>2013-08-31T10:36:20Z</time>
      </trkpt>
      <trkpt lat="45.83145" lon="4.83506">
        <ele>257.7000122</ele>
        <time>2013-08-31T10:36:21Z</time>
      </trkpt>
      <trkpt lat="45.83141" lon="4.83501">
        <ele>259</ele>
        <time>2013-08-31T10:36:23Z</time>
      </trkpt>
      <trkpt lat="45.83138" lon="4.83496">
        <ele>259.2000122</ele>
        <time>2013-08-31T10:36:24Z</time>
      </trkpt>
      <trkpt lat="45.83133" lon="4.83491">
        <ele>259.5</ele>
        <time>2013-08-31T10:36:26Z</time>
      </trkpt>
      <trkpt lat="45.8313" lon="4.83488">
        <ele>259.5</ele>
        <time>2013-08-31T10:36:27Z</time>
      </trkpt>
      <trkpt lat="45.83124" lon="4.83481">
        <ele>258.6000061</ele>
        <time>2013-08-31T10:36:30Z</time>
      </trkpt>
      <trkpt lat="45.83123" lon="4.83479">
        <ele>258.5</ele>
        <time>2013-08-31T10:36:31Z</time>
      </trkpt>
      <trkpt lat="45.8312" lon="4.83476">
        <ele>259</ele>
        <time>2013-08-31T10:36:33Z</time>
      </trkpt>
      <trkpt lat="45.8312" lon="4.83476">
        <ele>258.6000061</ele>
        <time>2013-08-31T10:36:34Z</time>
      </trkpt>
      <trkpt lat="45.83119" lon="4.83476">
        <ele>258.7000122</ele>
        <time>2013-08-31T10:36:35Z</time>
      </trkpt>
      <trkpt lat="45.83118" lon="4.83475">
        <ele>258.1000061</ele>
        <time>2013-08-31T10:36:39Z</time>
      </trkpt>
      <trkpt lat="45.83118" lon="4.83476">
        <ele>257.7000122</ele>
        <time>2013-08-31T10:36:40Z</time>
      </trkpt>
      <trkpt lat="45.83118" lon="4.83476">
        <ele>257.6000061</ele>
        <time>2013-08-31T10:36:41Z</time>
      </trkpt>
      <trkpt lat="45.8312" lon="4.83477">
        <ele>255.6999969</ele>
        <time>2013-08-31T10:36:50Z</time>
      </trkpt>
      <trkpt lat="45.8312" lon="4.83476">
        <ele>255.8999939</ele>
        <time>2013-08-31T10:36:51Z</time>
      </trkpt>
      <trkpt lat="45.8312" lon="4.83477">
        <ele>255.8999939</ele>
        <time>2013-08-31T10:36:52Z</time>
      </trkpt>
      <trkpt lat="45.83116" lon="4.83466">
        <ele>255.3999939</ele>
        <time>2013-08-31T10:37:00Z</time>
      </trkpt>
      <trkpt lat="45.83114" lon="4.83462">
        <ele>254.8999939</ele>
        <time>2013-08-31T10:37:01Z</time>
      </trkpt>
      <trkpt lat="45.83109" lon="4.83457">
        <ele>256.5</ele>
        <time>2013-08-31T10:37:03Z</time>
      </trkpt>
      <trkpt lat="45.83105" lon="4.83453">
        <ele>256.2999878</ele>
        <time>2013-08-31T10:37:04Z</time>
      </trkpt>
      <trkpt lat="45.83097" lon="4.83446">
        <ele>257</ele>
        <time>2013-08-31T10:37:06Z</time>
      </trkpt>
      <trkpt lat="45.83094" lon="4.83442">
        <ele>257.2000122</ele>
        <time>2013-08-31T10:37:07Z</time>
      </trkpt>
      <trkpt lat="45.8309" lon="4.83438">
        <ele>257.2999878</ele>
        <time>2013-08-31T10:37:08Z</time>
      </trkpt>
      <trkpt lat="45.83086" lon="4.83435">
        <ele>258.1000061</ele>
        <time>2013-08-31T10:37:09Z</time>
      </trkpt>
      <trkpt lat="45.83079" lon="4.8343">
        <ele>257.8999939</ele>
        <time>2013-08-31T10:37:11Z</time>
      </trkpt>
      <trkpt lat="45.83078" lon="4.83428">
        <ele>257</ele>
        <time>2013-08-31T10:37:12Z</time>
      </trkpt>
      <trkpt lat="45.83073" lon="4.8342">
        <ele>257.7999878</ele>
        <time>2013-08-31T10:37:15Z</time>
      </trkpt>
      <trkpt lat="45.83072" lon="4.83417">
        <ele>257</ele>
        <time>2013-08-31T10:37:16Z</time>
      </trkpt>
      <trkpt lat="45.83074" lon="4.83404">
        <ele>254.6999969</ele>
        <time>2013-08-31T10:37:20Z</time>
      </trkpt>
      <trkpt lat="45.83074" lon="4.83402">
        <ele>255.1000061</ele>
        <time>2013-08-31T10:37:21Z</time>
      </trkpt>
      <trkpt lat="45.83078" lon="4.83395">
        <ele>255.6000061</ele>
        <time>2013-08-31T10:37:24Z</time>
      </trkpt>
      <trkpt lat="45.8308" lon="4.83392">
        <ele>255.1999969</ele>
        <time>2013-08-31T10:37:25Z</time>
      </trkpt>
      <trkpt lat="45.83087" lon="4.83388">
        <ele>255.1999969</ele>
        <time>2013-08-31T10:37:27Z</time>
      </trkpt>
      <trkpt lat="45.83091" lon="4.83385">
        <ele>254.8999939</ele>
        <time>2013-08-31T10:37:28Z</time>
      </trkpt>
      <trkpt lat="45.83098" lon="4.83379">
        <ele>254.5</ele>
        <time>2013-08-31T10:37:31Z</time>
      </trkpt>
      <trkpt lat="45.831" lon="4.83379">
        <ele>254.8999939</ele>
        <time>2013-08-31T10:37:32Z</time>
      </trkpt>
      <trkpt lat="45.83105" lon="4.83377">
        <ele>255.3000031</ele>
        <time>2013-08-31T10:37:45Z</time>
      </trkpt>
      <trkpt lat="45.83104" lon="4.83377">
        <ele>255.3000031</ele>
        <time>2013-08-31T10:37:46Z</time>
      </trkpt>
      <trkpt lat="45.83105" lon="4.83377">
        <ele>255.1999969</ele>
        <time>2013-08-31T10:37:47Z</time>
      </trkpt>
      <trkpt lat="45.83109" lon="4.83375">
        <ele>254.8000031</ele>
        <time>2013-08-31T10:37:57Z</time>
      </trkpt>
      <trkpt lat="45.83109" lon="4.83375">
        <ele>254.6000061</ele>
        <time>2013-08-31T10:37:58Z</time>
      </trkpt>
      <trkpt lat="45.8311" lon="4.83375">
        <ele>254.6999969</ele>
        <time>2013-08-31T10:37:59Z</time>
      </trkpt>
      <trkpt lat="45.83111" lon="4.83372">
        <ele>254.6000061</ele>
        <time>2013-08-31T10:38:00Z</time>
      </trkpt>
      <trkpt lat="45.83123" lon="4.83353">
        <ele>253.8999939</ele>
        <time>2013-08-31T10:38:01Z</time>
      </trkpt>
      <trkpt lat="45.83128" lon="4.83341">
        <ele>253.6000061</ele>
        <time>2013-08-31T10:38:02Z</time>
      </trkpt>
      <trkpt lat="45.8313" lon="4.83329">
        <ele>253.8999939</ele>
        <time>2013-08-31T10:38:03Z</time>
      </trkpt>
      <trkpt lat="45.83136" lon="4.83326">
        <ele>252.8000031</ele>
        <time>2013-08-31T10:38:04Z</time>
      </trkpt>
      <trkpt lat="45.8314" lon="4.83318">
        <ele>253.1999969</ele>
        <time>2013-08-31T10:38:05Z</time>
      </trkpt>
      <trkpt lat="45.83146" lon="4.83315">
        <ele>253.3999939</ele>
        <time>2013-08-31T10:38:06Z</time>
      </trkpt>
      <trkpt lat="45.83153" lon="4.8331">
        <ele>252</ele>
        <time>2013-08-31T10:38:08Z</time>
      </trkpt>
      <trkpt lat="45.83157" lon="4.83305">
        <ele>250.8999939</ele>
        <time>2013-08-31T10:38:09Z</time>
      </trkpt>
      <trkpt lat="45.83165" lon="4.83301">
        <ele>250.3000031</ele>
        <time>2013-08-31T10:38:10Z</time>
      </trkpt>
      <trkpt lat="45.83176" lon="4.83297">
        <ele>250.3999939</ele>
        <time>2013-08-31T10:38:11Z</time>
      </trkpt>
      <trkpt lat="45.83184" lon="4.83292">
        <ele>249.6000061</ele>
        <time>2013-08-31T10:38:12Z</time>
      </trkpt>
      <trkpt lat="45.83193" lon="4.83289">
        <ele>249.3000031</ele>
        <time>2013-08-31T10:38:13Z</time>
      </trkpt>
      <trkpt lat="45.83202" lon="4.83288">
        <ele>249.3000031</ele>
        <time>2013-08-31T10:38:14Z</time>
      </trkpt>
      <trkpt lat="45.8321" lon="4.83286">
        <ele>249.5</ele>
        <time>2013-08-31T10:38:15Z</time>
      </trkpt>
      <trkpt lat="45.8322" lon="4.83288">
        <ele>248.6000061</ele>
        <time>2013-08-31T10:38:16Z</time>
      </trkpt>
      <trkpt lat="45.83227" lon="4.83287">
        <ele>247.8000031</ele>
        <time>2013-08-31T10:38:17Z</time>
      </trkpt>
      <trkpt lat="45.83232" lon="4.83286">
        <ele>247.8999939</ele>
        <time>2013-08-31T10:38:18Z</time>
      </trkpt>
      <trkpt lat="45.83236" lon="4.83285">
        <ele>248</ele>
        <time>2013-08-31T10:38:19Z</time>
      </trkpt>
      <trkpt lat="45.83242" lon="4.83284">
        <ele>247.8000031</ele>
        <time>2013-08-31T10:38:20Z</time>
      </trkpt>
      <trkpt lat="45.83249" lon="4.83283">
        <ele>247.6999969</ele>
        <time>2013-08-31T10:38:21Z</time>
      </trkpt>
      <trkpt lat="45.83254" lon="4.8328">
        <ele>247.5</ele>
        <time>2013-08-31T10:38:22Z</time>
      </trkpt>
      <trkpt lat="45.83265" lon="4.83281">
        <ele>247.3999939</ele>
        <time>2013-08-31T10:38:23Z</time>
      </trkpt>
      <trkpt lat="45.8327" lon="4.83279">
        <ele>247.6000061</ele>
        <time>2013-08-31T10:38:25Z</time>
      </trkpt>
      <trkpt lat="45.83274" lon="4.83277">
        <ele>247.3999939</ele>
        <time>2013-08-31T10:38:26Z</time>
      </trkpt>
      <trkpt lat="45.83269" lon="4.83271">
        <ele>247.3999939</ele>
        <time>2013-08-31T10:38:28Z</time>
      </trkpt>
      <trkpt lat="45.83285" lon="4.83275">
        <ele>247.1999969</ele>
        <time>2013-08-31T10:38:29Z</time>
      </trkpt>
      <trkpt lat="45.83291" lon="4.83273">
        <ele>247.3000031</ele>
        <time>2013-08-31T10:38:30Z</time>
      </trkpt>
      <trkpt lat="45.83294" lon="4.83271">
        <ele>246.8000031</ele>
        <time>2013-08-31T10:38:31Z</time>
      </trkpt>
      <trkpt lat="45.83297" lon="4.83259">
        <ele>247.1999969</ele>
        <time>2013-08-31T10:38:35Z</time>
      </trkpt>
      <trkpt lat="45.83294" lon="4.83257">
        <ele>247.1999969</ele>
        <time>2013-08-31T10:38:36Z</time>
      </trkpt>
      <trkpt lat="45.83292" lon="4.83249">
        <ele>246.5</ele>
        <time>2013-08-31T10:38:38Z</time>
      </trkpt>
      <trkpt lat="45.83291" lon="4.83244">
        <ele>246.6000061</ele>
        <time>2013-08-31T10:38:39Z</time>
      </trkpt>
      <trkpt lat="45.83297" lon="4.83235">
        <ele>247</ele>
        <time>2013-08-31T10:38:44Z</time>
      </trkpt>
      <trkpt lat="45.833" lon="4.83231">
        <ele>246.6999969</ele>
        <time>2013-08-31T10:38:45Z</time>
      </trkpt>
      <trkpt lat="45.83307" lon="4.83227">
        <ele>248.6999969</ele>
        <time>2013-08-31T10:38:58Z</time>
      </trkpt>
      <trkpt lat="45.83307" lon="4.83227">
        <ele>248.8000031</ele>
        <time>2013-08-31T10:38:59Z</time>
      </trkpt>
      <trkpt lat="45.83308" lon="4.83227">
        <ele>248.5</ele>
        <time>2013-08-31T10:39:00Z</time>
      </trkpt>
      <trkpt lat="45.83309" lon="4.83227">
        <ele>248.1999969</ele>
        <time>2013-08-31T10:39:01Z</time>
      </trkpt>
      <trkpt lat="45.83309" lon="4.83228">
        <ele>248.5</ele>
        <time>2013-08-31T10:39:02Z</time>
      </trkpt>
      <trkpt lat="45.8331" lon="4.83228">
        <ele>248.5</ele>
        <time>2013-08-31T10:39:03Z</time>
      </trkpt>
      <trkpt lat="45.83311" lon="4.83228">
        <ele>248.6000061</ele>
        <time>2013-08-31T10:39:05Z</time>
      </trkpt>
      <trkpt lat="45.83311" lon="4.83228">
        <ele>248.6000061</ele>
        <time>2013-08-31T10:39:06Z</time>
      </trkpt>
      <trkpt lat="45.83311" lon="4.83228">
        <ele>248.6999969</ele>
        <time>2013-08-31T10:39:07Z</time>
      </trkpt>
      <trkpt lat="45.83312" lon="4.83228">
        <ele>248.6999969</ele>
        <time>2013-08-31T10:39:09Z</time>
      </trkpt>
      <trkpt lat="45.83312" lon="4.83228">
        <ele>248.6999969</ele>
        <time>2013-08-31T10:39:10Z</time>
      </trkpt>
      <trkpt lat="45.83311" lon="4.83228">
        <ele>248.8000031</ele>
        <time>2013-08-31T10:39:11Z</time>
      </trkpt>
      <trkpt lat="45.83312" lon="4.83228">
        <ele>248.8000031</ele>
        <time>2013-08-31T10:39:12Z</time>
      </trkpt>
      <trkpt lat="45.83323" lon="4.83231">
        <ele>249</ele>
        <time>2013-08-31T10:39:13Z</time>
      </trkpt>
      <trkpt lat="45.83334" lon="4.83233">
        <ele>249</ele>
        <time>2013-08-31T10:39:14Z</time>
      </trkpt>
      <trkpt lat="45.83338" lon="4.83233">
        <ele>247.6999969</ele>
        <time>2013-08-31T10:39:15Z</time>
      </trkpt>
      <trkpt lat="45.83349" lon="4.83232">
        <ele>249.3999939</ele>
        <time>2013-08-31T10:39:16Z</time>
      </trkpt>
      <trkpt lat="45.83354" lon="4.83233">
        <ele>249.3999939</ele>
        <time>2013-08-31T10:39:17Z</time>
      </trkpt>
      <trkpt lat="45.83361" lon="4.83235">
        <ele>250.8000031</ele>
        <time>2013-08-31T10:39:18Z</time>
      </trkpt>
      <trkpt lat="45.83373" lon="4.83236">
        <ele>250.8999939</ele>
        <time>2013-08-31T10:39:19Z</time>
      </trkpt>
      <trkpt lat="45.83382" lon="4.83237">
        <ele>250.6999969</ele>
        <time>2013-08-31T10:39:21Z</time>
      </trkpt>
      <trkpt lat="45.83387" lon="4.83239">
        <ele>250.3000031</ele>
        <time>2013-08-31T10:39:22Z</time>
      </trkpt>
      <trkpt lat="45.83398" lon="4.8324">
        <ele>251.1999969</ele>
        <time>2013-08-31T10:39:23Z</time>
      </trkpt>
      <trkpt lat="45.83409" lon="4.83241">
        <ele>249.6000061</ele>
        <time>2013-08-31T10:39:24Z</time>
      </trkpt>
      <trkpt lat="45.83433" lon="4.83246">
        <ele>247</ele>
        <time>2013-08-31T10:39:25Z</time>
      </trkpt>
      <trkpt lat="45.83448" lon="4.83251">
        <ele>244</ele>
        <time>2013-08-31T10:39:26Z</time>
      </trkpt>
      <trkpt lat="45.83455" lon="4.83246">
        <ele>240.3999939</ele>
        <time>2013-08-31T10:39:30Z</time>
      </trkpt>
      <trkpt lat="45.83454" lon="4.83238">
        <ele>242.1000061</ele>
        <time>2013-08-31T10:39:31Z</time>
      </trkpt>
      <trkpt lat="45.8345" lon="4.83228">
        <ele>242.6000061</ele>
        <time>2013-08-31T10:39:34Z</time>
      </trkpt>
      <trkpt lat="45.83449" lon="4.83224">
        <ele>241.6000061</ele>
        <time>2013-08-31T10:39:35Z</time>
      </trkpt>
      <trkpt lat="45.83448" lon="4.83213">
        <ele>240.5</ele>
        <time>2013-08-31T10:39:38Z</time>
      </trkpt>
      <trkpt lat="45.83448" lon="4.83209">
        <ele>240.1000061</ele>
        <time>2013-08-31T10:39:39Z</time>
      </trkpt>
      <trkpt lat="45.83449" lon="4.83197">
        <ele>238.8999939</ele>
        <time>2013-08-31T10:39:44Z</time>
      </trkpt>
      <trkpt lat="45.83451" lon="4.83195">
        <ele>238.5</ele>
        <time>2013-08-31T10:39:45Z</time>
      </trkpt>
      <trkpt lat="45.83457" lon="4.83192">
        <ele>237.8000031</ele>
        <time>2013-08-31T10:39:47Z</time>
      </trkpt>
      <trkpt lat="45.83469" lon="4.83188">
        <ele>236.6999969</ele>
        <time>2013-08-31T10:39:48Z</time>
      </trkpt>
      <trkpt lat="45.83473" lon="4.83186">
        <ele>236.3000031</ele>
        <time>2013-08-31T10:39:49Z</time>
      </trkpt>
      <trkpt lat="45.83478" lon="4.83183">
        <ele>235.6000061</ele>
        <time>2013-08-31T10:39:50Z</time>
      </trkpt>
      <trkpt lat="45.83482" lon="4.83175">
        <ele>234</ele>
        <time>2013-08-31T10:39:52Z</time>
      </trkpt>
      <trkpt lat="45.83484" lon="4.83172">
        <ele>234.1000061</ele>
        <time>2013-08-31T10:39:53Z</time>
      </trkpt>
      <trkpt lat="45.8349" lon="4.83164">
        <ele>233.1999969</ele>
        <time>2013-08-31T10:39:55Z</time>
      </trkpt>
      <trkpt lat="45.83491" lon="4.83161">
        <ele>232.8999939</ele>
        <time>2013-08-31T10:39:56Z</time>
      </trkpt>
      <trkpt lat="45.83494" lon="4.83153">
        <ele>231.6000061</ele>
        <time>2013-08-31T10:39:58Z</time>
      </trkpt>
      <trkpt lat="45.83497" lon="4.8315">
        <ele>231.3000031</ele>
        <time>2013-08-31T10:39:59Z</time>
      </trkpt>
      <trkpt lat="45.83502" lon="4.8314">
        <ele>230</ele>
        <time>2013-08-31T10:40:01Z</time>
      </trkpt>
      <trkpt lat="45.83503" lon="4.83139">
        <ele>230</ele>
        <time>2013-08-31T10:40:02Z</time>
      </trkpt>
      <trkpt lat="45.83509" lon="4.83134">
        <ele>229.6000061</ele>
        <time>2013-08-31T10:40:03Z</time>
      </trkpt>
      <trkpt lat="45.83514" lon="4.83127">
        <ele>229.5</ele>
        <time>2013-08-31T10:40:04Z</time>
      </trkpt>
      <trkpt lat="45.8352" lon="4.8312">
        <ele>229.6000061</ele>
        <time>2013-08-31T10:40:05Z</time>
      </trkpt>
      <trkpt lat="45.83523" lon="4.83116">
        <ele>228.3000031</ele>
        <time>2013-08-31T10:40:06Z</time>
      </trkpt>
      <trkpt lat="45.83539" lon="4.83117">
        <ele>226.6999969</ele>
        <time>2013-08-31T10:40:07Z</time>
      </trkpt>
      <trkpt lat="45.83545" lon="4.83119">
        <ele>223.6999969</ele>
        <time>2013-08-31T10:40:08Z</time>
      </trkpt>
      <trkpt lat="45.83549" lon="4.83117">
        <ele>221.8000031</ele>
        <time>2013-08-31T10:40:09Z</time>
      </trkpt>
      <trkpt lat="45.83553" lon="4.83112">
        <ele>221.1999969</ele>
        <time>2013-08-31T10:40:10Z</time>
      </trkpt>
      <trkpt lat="45.83563" lon="4.83109">
        <ele>219.5</ele>
        <time>2013-08-31T10:40:11Z</time>
      </trkpt>
      <trkpt lat="45.83571" lon="4.83103">
        <ele>218.8000031</ele>
        <time>2013-08-31T10:40:13Z</time>
      </trkpt>
      <trkpt lat="45.83574" lon="4.83101">
        <ele>218</ele>
        <time>2013-08-31T10:40:14Z</time>
      </trkpt>
      <trkpt lat="45.83579" lon="4.83098">
        <ele>215.8000031</ele>
        <time>2013-08-31T10:40:15Z</time>
      </trkpt>
      <trkpt lat="45.83583" lon="4.83098">
        <ele>215.5</ele>
        <time>2013-08-31T10:40:16Z</time>
      </trkpt>
      <trkpt lat="45.83586" lon="4.83101">
        <ele>214.3000031</ele>
        <time>2013-08-31T10:40:23Z</time>
      </trkpt>
      <trkpt lat="45.83586" lon="4.83101">
        <ele>214.3000031</ele>
        <time>2013-08-31T10:40:24Z</time>
      </trkpt>
      <trkpt lat="45.83586" lon="4.83101">
        <ele>214.1999969</ele>
        <time>2013-08-31T10:40:25Z</time>
      </trkpt>
      <trkpt lat="45.83587" lon="4.83101">
        <ele>214.1000061</ele>
        <time>2013-08-31T10:40:26Z</time>
      </trkpt>
      <trkpt lat="45.83588" lon="4.83102">
        <ele>214.1999969</ele>
        <time>2013-08-31T10:40:29Z</time>
      </trkpt>
      <trkpt lat="45.83588" lon="4.83102">
        <ele>214.1999969</ele>
        <time>2013-08-31T10:40:30Z</time>
      </trkpt>
      <trkpt lat="45.83588" lon="4.83103">
        <ele>214.6000061</ele>
        <time>2013-08-31T10:41:06Z</time>
      </trkpt>
      <trkpt lat="45.83588" lon="4.83103">
        <ele>214.1999969</ele>
        <time>2013-08-31T10:41:07Z</time>
      </trkpt>
      <trkpt lat="45.83588" lon="4.83103">
        <ele>214.1999969</ele>
        <time>2013-08-31T10:41:08Z</time>
      </trkpt>
      <trkpt lat="45.83588" lon="4.83102">
        <ele>213.6999969</ele>
        <time>2013-08-31T10:42:11Z</time>
      </trkpt>
      <trkpt lat="45.83588" lon="4.83102">
        <ele>213.6000061</ele>
        <time>2013-08-31T10:42:12Z</time>
      </trkpt>
      <trkpt lat="45.83591" lon="4.83092">
        <ele>204.3999939</ele>
        <time>2013-08-31T10:42:15Z</time>
      </trkpt>
      <trkpt lat="45.83591" lon="4.83088">
        <ele>202.8999939</ele>
        <time>2013-08-31T10:42:16Z</time>
      </trkpt>
      <trkpt lat="45.83595" lon="4.83077">
        <ele>201.8999939</ele>
        <time>2013-08-31T10:42:20Z</time>
      </trkpt>
      <trkpt lat="45.83596" lon="4.83073">
        <ele>201.1000061</ele>
        <time>2013-08-31T10:42:21Z</time>
      </trkpt>
      <trkpt lat="45.83603" lon="4.83065">
        <ele>201.6000061</ele>
        <time>2013-08-31T10:42:24Z</time>
      </trkpt>
      <trkpt lat="45.83606" lon="4.83064">
        <ele>201.6000061</ele>
        <time>2013-08-31T10:42:25Z</time>
      </trkpt>
      <trkpt lat="45.83609" lon="4.83055">
        <ele>201.1000061</ele>
        <time>2013-08-31T10:42:27Z</time>
      </trkpt>
      <trkpt lat="45.8361" lon="4.8305">
        <ele>201.5</ele>
        <time>2013-08-31T10:42:28Z</time>
      </trkpt>
      <trkpt lat="45.83611" lon="4.83039">
        <ele>201.1999969</ele>
        <time>2013-08-31T10:42:30Z</time>
      </trkpt>
      <trkpt lat="45.8361" lon="4.83034">
        <ele>201.6000061</ele>
        <time>2013-08-31T10:42:31Z</time>
      </trkpt>
      <trkpt lat="45.83613" lon="4.83027">
        <ele>201.3999939</ele>
        <time>2013-08-31T10:42:32Z</time>
      </trkpt>
      <trkpt lat="45.83616" lon="4.83022">
        <ele>200.8999939</ele>
        <time>2013-08-31T10:42:33Z</time>
      </trkpt>
      <trkpt lat="45.83616" lon="4.8301">
        <ele>200.6000061</ele>
        <time>2013-08-31T10:42:35Z</time>
      </trkpt>
      <trkpt lat="45.83618" lon="4.83005">
        <ele>200.5</ele>
        <time>2013-08-31T10:42:36Z</time>
      </trkpt>
      <trkpt lat="45.83628" lon="4.83">
        <ele>199.8000031</ele>
        <time>2013-08-31T10:42:37Z</time>
      </trkpt>
      <trkpt lat="45.83634" lon="4.82995">
        <ele>200.1000061</ele>
        <time>2013-08-31T10:42:38Z</time>
      </trkpt>
      <trkpt lat="45.83634" lon="4.82991">
        <ele>199.3999939</ele>
        <time>2013-08-31T10:42:39Z</time>
      </trkpt>
      <trkpt lat="45.83637" lon="4.82979">
        <ele>199.8999939</ele>
        <time>2013-08-31T10:42:41Z</time>
      </trkpt>
      <trkpt lat="45.83635" lon="4.82973">
        <ele>199.8999939</ele>
        <time>2013-08-31T10:42:42Z</time>
      </trkpt>
      <trkpt lat="45.83637" lon="4.82962">
        <ele>200.1999969</ele>
        <time>2013-08-31T10:42:44Z</time>
      </trkpt>
      <trkpt lat="45.8364" lon="4.82957">
        <ele>199.6999969</ele>
        <time>2013-08-31T10:42:45Z</time>
      </trkpt>
      <trkpt lat="45.8367" lon="4.82961">
        <ele>197.8000031</ele>
        <time>2013-08-31T10:42:46Z</time>
      </trkpt>
      <trkpt lat="45.83687" lon="4.8296">
        <ele>198</ele>
        <time>2013-08-31T10:42:47Z</time>
      </trkpt>
      <trkpt lat="45.83696" lon="4.82956">
        <ele>196.8000031</ele>
        <time>2013-08-31T10:42:48Z</time>
      </trkpt>
      <trkpt lat="45.83705" lon="4.82953">
        <ele>196.1000061</ele>
        <time>2013-08-31T10:42:49Z</time>
      </trkpt>
      <trkpt lat="45.83712" lon="4.82946">
        <ele>193.8999939</ele>
        <time>2013-08-31T10:42:51Z</time>
      </trkpt>
      <trkpt lat="45.83716" lon="4.82944">
        <ele>192.6000061</ele>
        <time>2013-08-31T10:42:52Z</time>
      </trkpt>
      <trkpt lat="45.83728" lon="4.82941">
        <ele>191.1000061</ele>
        <time>2013-08-31T10:42:53Z</time>
      </trkpt>
      <trkpt lat="45.83736" lon="4.82939">
        <ele>189.3000031</ele>
        <time>2013-08-31T10:42:54Z</time>
      </trkpt>
      <trkpt lat="45.83742" lon="4.82936">
        <ele>188.1999969</ele>
        <time>2013-08-31T10:42:55Z</time>
      </trkpt>
      <trkpt lat="45.83747" lon="4.82936">
        <ele>188.6999969</ele>
        <time>2013-08-31T10:42:56Z</time>
      </trkpt>
      <trkpt lat="45.83751" lon="4.82935">
        <ele>187.5</ele>
        <time>2013-08-31T10:42:57Z</time>
      </trkpt>
      <trkpt lat="45.83757" lon="4.82934">
        <ele>188.5</ele>
        <time>2013-08-31T10:42:59Z</time>
      </trkpt>
      <trkpt lat="45.83761" lon="4.82934">
        <ele>188.6999969</ele>
        <time>2013-08-31T10:43:00Z</time>
      </trkpt>
      <trkpt lat="45.83763" lon="4.82941">
        <ele>188.3999939</ele>
        <time>2013-08-31T10:43:02Z</time>
      </trkpt>
      <trkpt lat="45.83764" lon="4.82946">
        <ele>187.8000031</ele>
        <time>2013-08-31T10:43:03Z</time>
      </trkpt>
      <trkpt lat="45.83768" lon="4.8295">
        <ele>187.1999969</ele>
        <time>2013-08-31T10:43:04Z</time>
      </trkpt>
      <trkpt lat="45.83773" lon="4.82953">
        <ele>187</ele>
        <time>2013-08-31T10:43:05Z</time>
      </trkpt>
      <trkpt lat="45.8378" lon="4.82954">
        <ele>186.1999969</ele>
        <time>2013-08-31T10:43:06Z</time>
      </trkpt>
      <trkpt lat="45.83789" lon="4.82953">
        <ele>185.3000031</ele>
        <time>2013-08-31T10:43:07Z</time>
      </trkpt>
      <trkpt lat="45.83794" lon="4.82949">
        <ele>184.6999969</ele>
        <time>2013-08-31T10:43:08Z</time>
      </trkpt>
      <trkpt lat="45.83801" lon="4.82945">
        <ele>183.8999939</ele>
        <time>2013-08-31T10:43:09Z</time>
      </trkpt>
      <trkpt lat="45.83807" lon="4.82938">
        <ele>183.6000061</ele>
        <time>2013-08-31T10:43:10Z</time>
      </trkpt>
      <trkpt lat="45.83812" lon="4.82928">
        <ele>182</ele>
        <time>2013-08-31T10:43:11Z</time>
      </trkpt>
      <trkpt lat="45.83818" lon="4.82919">
        <ele>181.1000061</ele>
        <time>2013-08-31T10:43:12Z</time>
      </trkpt>
      <trkpt lat="45.83826" lon="4.82914">
        <ele>180.8999939</ele>
        <time>2013-08-31T10:43:13Z</time>
      </trkpt>
      <trkpt lat="45.83833" lon="4.82907">
        <ele>179.6999969</ele>
        <time>2013-08-31T10:43:14Z</time>
      </trkpt>
      <trkpt lat="45.8384" lon="4.82902">
        <ele>179.3000031</ele>
        <time>2013-08-31T10:43:15Z</time>
      </trkpt>
      <trkpt lat="45.83847" lon="4.82898">
        <ele>178.6999969</ele>
        <time>2013-08-31T10:43:16Z</time>
      </trkpt>
      <trkpt lat="45.83854" lon="4.82896">
        <ele>178.8000031</ele>
        <time>2013-08-31T10:43:17Z</time>
      </trkpt>
      <trkpt lat="45.83861" lon="4.82904">
        <ele>182</ele>
        <time>2013-08-31T10:43:20Z</time>
      </trkpt>
      <trkpt lat="45.83869" lon="4.82906">
        <ele>183.1999969</ele>
        <time>2013-08-31T10:43:21Z</time>
      </trkpt>
      <trkpt lat="45.83873" lon="4.8291">
        <ele>183.1999969</ele>
        <time>2013-08-31T10:43:22Z</time>
      </trkpt>
      <trkpt lat="45.83879" lon="4.82913">
        <ele>183.3000031</ele>
        <time>2013-08-31T10:43:23Z</time>
      </trkpt>
      <trkpt lat="45.83884" lon="4.82919">
        <ele>183.1999969</ele>
        <time>2013-08-31T10:43:24Z</time>
      </trkpt>
      <trkpt lat="45.83887" lon="4.82937">
        <ele>183.5</ele>
        <time>2013-08-31T10:43:25Z</time>
      </trkpt>
      <trkpt lat="45.83888" lon="4.82951">
        <ele>184.1000061</ele>
        <time>2013-08-31T10:43:26Z</time>
      </trkpt>
      <trkpt lat="45.8389" lon="4.82965">
        <ele>184.3000031</ele>
        <time>2013-08-31T10:43:27Z</time>
      </trkpt>
      <trkpt lat="45.83893" lon="4.82977">
        <ele>184.5</ele>
        <time>2013-08-31T10:43:28Z</time>
      </trkpt>
      <trkpt lat="45.83883" lon="4.82993">
        <ele>184.3999939</ele>
        <time>2013-08-31T10:43:29Z</time>
      </trkpt>
      <trkpt lat="45.8388" lon="4.83012">
        <ele>183.8999939</ele>
        <time>2013-08-31T10:43:31Z</time>
      </trkpt>
      <trkpt lat="45.83882" lon="4.83022">
        <ele>183.6000061</ele>
        <time>2013-08-31T10:43:32Z</time>
      </trkpt>
      <trkpt lat="45.83891" lon="4.83034">
        <ele>182</ele>
        <time>2013-08-31T10:43:33Z</time>
      </trkpt>
      <trkpt lat="45.83893" lon="4.83042">
        <ele>181.3999939</ele>
        <time>2013-08-31T10:43:34Z</time>
      </trkpt>
      <trkpt lat="45.83894" lon="4.8305">
        <ele>181.1000061</ele>
        <time>2013-08-31T10:43:35Z</time>
      </trkpt>
      <trkpt lat="45.83895" lon="4.8306">
        <ele>180.8000031</ele>
        <time>2013-08-31T10:43:37Z</time>
      </trkpt>
      <trkpt lat="45.83895" lon="4.83064">
        <ele>181</ele>
        <time>2013-08-31T10:43:38Z</time>
      </trkpt>
      <trkpt lat="45.83896" lon="4.83075">
        <ele>181</ele>
        <time>2013-08-31T10:43:42Z</time>
      </trkpt>
      <trkpt lat="45.83895" lon="4.83079">
        <ele>183.5</ele>
        <time>2013-08-31T10:43:43Z</time>
      </trkpt>
      <trkpt lat="45.83892" lon="4.83091">
        <ele>186.1000061</ele>
        <time>2013-08-31T10:43:47Z</time>
      </trkpt>
      <trkpt lat="45.83892" lon="4.83092">
        <ele>186.1000061</ele>
        <time>2013-08-31T10:43:48Z</time>
      </trkpt>
      <trkpt lat="45.83888" lon="4.83103">
        <ele>188.3999939</ele>
        <time>2013-08-31T10:43:51Z</time>
      </trkpt>
      <trkpt lat="45.83885" lon="4.83108">
        <ele>187.6000061</ele>
        <time>2013-08-31T10:43:52Z</time>
      </trkpt>
      <trkpt lat="45.83884" lon="4.8311">
        <ele>186</ele>
        <time>2013-08-31T10:43:53Z</time>
      </trkpt>
      <trkpt lat="45.83899" lon="4.83107">
        <ele>184.8000031</ele>
        <time>2013-08-31T10:43:54Z</time>
      </trkpt>
      <trkpt lat="45.83904" lon="4.83107">
        <ele>184.3999939</ele>
        <time>2013-08-31T10:43:55Z</time>
      </trkpt>
      <trkpt lat="45.83909" lon="4.83106">
        <ele>183.6000061</ele>
        <time>2013-08-31T10:43:56Z</time>
      </trkpt>
      <trkpt lat="45.83915" lon="4.83106">
        <ele>182.5</ele>
        <time>2013-08-31T10:43:57Z</time>
      </trkpt>
      <trkpt lat="45.83921" lon="4.83107">
        <ele>181.8000031</ele>
        <time>2013-08-31T10:43:58Z</time>
      </trkpt>
      <trkpt lat="45.83927" lon="4.83107">
        <ele>181.3000031</ele>
        <time>2013-08-31T10:43:59Z</time>
      </trkpt>
      <trkpt lat="45.83934" lon="4.83107">
        <ele>180.1999969</ele>
        <time>2013-08-31T10:44:00Z</time>
      </trkpt>
      <trkpt lat="45.83939" lon="4.83107">
        <ele>179.6000061</ele>
        <time>2013-08-31T10:44:01Z</time>
      </trkpt>
      <trkpt lat="45.83945" lon="4.83106">
        <ele>179.3999939</ele>
        <time>2013-08-31T10:44:02Z</time>
      </trkpt>
      <trkpt lat="45.83949" lon="4.83104">
        <ele>179.1000061</ele>
        <time>2013-08-31T10:44:03Z</time>
      </trkpt>
      <trkpt lat="45.83954" lon="4.83101">
        <ele>179.1000061</ele>
        <time>2013-08-31T10:44:04Z</time>
      </trkpt>
      <trkpt lat="45.83954" lon="4.83093">
        <ele>178.1000061</ele>
        <time>2013-08-31T10:44:05Z</time>
      </trkpt>
      <trkpt lat="45.83959" lon="4.83086">
        <ele>176.3999939</ele>
        <time>2013-08-31T10:44:06Z</time>
      </trkpt>
      <trkpt lat="45.83964" lon="4.83076">
        <ele>175.8000031</ele>
        <time>2013-08-31T10:44:08Z</time>
      </trkpt>
      <trkpt lat="45.83966" lon="4.83071">
        <ele>176.1000061</ele>
        <time>2013-08-31T10:44:09Z</time>
      </trkpt>
      <trkpt lat="45.83973" lon="4.83064">
        <ele>176.8999939</ele>
        <time>2013-08-31T10:44:12Z</time>
      </trkpt>
      <trkpt lat="45.83975" lon="4.83061">
        <ele>177</ele>
        <time>2013-08-31T10:44:13Z</time>
      </trkpt>
      <trkpt lat="45.83978" lon="4.83057">
        <ele>177.1000061</ele>
        <time>2013-08-31T10:44:16Z</time>
      </trkpt>
      <trkpt lat="45.83986" lon="4.83057">
        <ele>176.8000031</ele>
        <time>2013-08-31T10:44:17Z</time>
      </trkpt>
      <trkpt lat="45.83986" lon="4.83057">
        <ele>176.8000031</ele>
        <time>2013-08-31T10:44:18Z</time>
      </trkpt>
      <trkpt lat="45.83992" lon="4.83057">
        <ele>176.6999969</ele>
        <time>2013-08-31T10:44:19Z</time>
      </trkpt>
      <trkpt lat="45.84" lon="4.83057">
        <ele>176.1000061</ele>
        <time>2013-08-31T10:44:20Z</time>
      </trkpt>
      <trkpt lat="45.84008" lon="4.83058">
        <ele>175.8999939</ele>
        <time>2013-08-31T10:44:21Z</time>
      </trkpt>
      <trkpt lat="45.84012" lon="4.83059">
        <ele>175.6000061</ele>
        <time>2013-08-31T10:44:22Z</time>
      </trkpt>
      <trkpt lat="45.84024" lon="4.83059">
        <ele>174.3999939</ele>
        <time>2013-08-31T10:44:23Z</time>
      </trkpt>
      <trkpt lat="45.84034" lon="4.83059">
        <ele>173.8999939</ele>
        <time>2013-08-31T10:44:24Z</time>
      </trkpt>
      <trkpt lat="45.84055" lon="4.83064">
        <ele>176.6000061</ele>
        <time>2013-08-31T10:44:25Z</time>
      </trkpt>
      <trkpt lat="45.84066" lon="4.83066">
        <ele>176.5</ele>
        <time>2013-08-31T10:44:26Z</time>
      </trkpt>
      <trkpt lat="45.84076" lon="4.83068">
        <ele>176.3999939</ele>
        <time>2013-08-31T10:44:27Z</time>
      </trkpt>
      <trkpt lat="45.84085" lon="4.8307">
        <ele>176.1000061</ele>
        <time>2013-08-31T10:44:28Z</time>
      </trkpt>
      <trkpt lat="45.84094" lon="4.83073">
        <ele>176.3000031</ele>
        <time>2013-08-31T10:44:29Z</time>
      </trkpt>
      <trkpt lat="45.84101" lon="4.83074">
        <ele>175.8999939</ele>
        <time>2013-08-31T10:44:30Z</time>
      </trkpt>
      <trkpt lat="45.84107" lon="4.83076">
        <ele>175.3999939</ele>
        <time>2013-08-31T10:44:31Z</time>
      </trkpt>
      <trkpt lat="45.84114" lon="4.83076">
        <ele>175</ele>
        <time>2013-08-31T10:44:32Z</time>
      </trkpt>
      <trkpt lat="45.84121" lon="4.83077">
        <ele>174.8000031</ele>
        <time>2013-08-31T10:44:33Z</time>
      </trkpt>
      <trkpt lat="45.84129" lon="4.83076">
        <ele>173.8999939</ele>
        <time>2013-08-31T10:44:34Z</time>
      </trkpt>
      <trkpt lat="45.84135" lon="4.83076">
        <ele>173.6999969</ele>
        <time>2013-08-31T10:44:35Z</time>
      </trkpt>
      <trkpt lat="45.84139" lon="4.83078">
        <ele>173.3000031</ele>
        <time>2013-08-31T10:44:36Z</time>
      </trkpt>
      <trkpt lat="45.84145" lon="4.83079">
        <ele>173.1000061</ele>
        <time>2013-08-31T10:44:37Z</time>
      </trkpt>
      <trkpt lat="45.84153" lon="4.83082">
        <ele>172.8999939</ele>
        <time>2013-08-31T10:44:38Z</time>
      </trkpt>
      <trkpt lat="45.84157" lon="4.83085">
        <ele>172.6999969</ele>
        <time>2013-08-31T10:44:39Z</time>
      </trkpt>
      <trkpt lat="45.84162" lon="4.83087">
        <ele>172.6999969</ele>
        <time>2013-08-31T10:44:40Z</time>
      </trkpt>
      <trkpt lat="45.84166" lon="4.83089">
        <ele>172.6000061</ele>
        <time>2013-08-31T10:44:41Z</time>
      </trkpt>
      <trkpt lat="45.84173" lon="4.83088">
        <ele>173.1000061</ele>
        <time>2013-08-31T10:44:42Z</time>
      </trkpt>
      <trkpt lat="45.84179" lon="4.83089">
        <ele>173.1000061</ele>
        <time>2013-08-31T10:44:43Z</time>
      </trkpt>
      <trkpt lat="45.84186" lon="4.83093">
        <ele>173.6000061</ele>
        <time>2013-08-31T10:44:44Z</time>
      </trkpt>
      <trkpt lat="45.84199" lon="4.83097">
        <ele>174</ele>
        <time>2013-08-31T10:44:45Z</time>
      </trkpt>
      <trkpt lat="45.84212" lon="4.83101">
        <ele>174.1999969</ele>
        <time>2013-08-31T10:44:46Z</time>
      </trkpt>
      <trkpt lat="45.84224" lon="4.83103">
        <ele>174.8000031</ele>
        <time>2013-08-31T10:44:47Z</time>
      </trkpt>
      <trkpt lat="45.84236" lon="4.83105">
        <ele>175.5</ele>
        <time>2013-08-31T10:44:48Z</time>
      </trkpt>
      <trkpt lat="45.84247" lon="4.83106">
        <ele>174.6000061</ele>
        <time>2013-08-31T10:44:49Z</time>
      </trkpt>
      <trkpt lat="45.84256" lon="4.83108">
        <ele>174.8999939</ele>
        <time>2013-08-31T10:44:50Z</time>
      </trkpt>
      <trkpt lat="45.84266" lon="4.83112">
        <ele>175.3999939</ele>
        <time>2013-08-31T10:44:51Z</time>
      </trkpt>
      <trkpt lat="45.84276" lon="4.83115">
        <ele>175.8999939</ele>
        <time>2013-08-31T10:44:52Z</time>
      </trkpt>
      <trkpt lat="45.84284" lon="4.83116">
        <ele>174.8999939</ele>
        <time>2013-08-31T10:44:53Z</time>
      </trkpt>
      <trkpt lat="45.84293" lon="4.83118">
        <ele>174.8000031</ele>
        <time>2013-08-31T10:44:54Z</time>
      </trkpt>
      <trkpt lat="45.843" lon="4.83117">
        <ele>174.8999939</ele>
        <time>2013-08-31T10:44:55Z</time>
      </trkpt>
      <trkpt lat="45.84308" lon="4.83118">
        <ele>175.3999939</ele>
        <time>2013-08-31T10:44:56Z</time>
      </trkpt>
      <trkpt lat="45.84317" lon="4.83118">
        <ele>176.1000061</ele>
        <time>2013-08-31T10:44:57Z</time>
      </trkpt>
      <trkpt lat="45.84324" lon="4.8312">
        <ele>176.3000031</ele>
        <time>2013-08-31T10:44:58Z</time>
      </trkpt>
      <trkpt lat="45.84334" lon="4.83119">
        <ele>177</ele>
        <time>2013-08-31T10:44:59Z</time>
      </trkpt>
      <trkpt lat="45.84342" lon="4.83121">
        <ele>177.1999969</ele>
        <time>2013-08-31T10:45:00Z</time>
      </trkpt>
      <trkpt lat="45.84344" lon="4.83124">
        <ele>176.3000031</ele>
        <time>2013-08-31T10:45:01Z</time>
      </trkpt>
      <trkpt lat="45.84348" lon="4.83124">
        <ele>176.3000031</ele>
        <time>2013-08-31T10:45:02Z</time>
      </trkpt>
      <trkpt lat="45.84363" lon="4.83127">
        <ele>176</ele>
        <time>2013-08-31T10:45:03Z</time>
      </trkpt>
      <trkpt lat="45.84368" lon="4.83126">
        <ele>176.1999969</ele>
        <time>2013-08-31T10:45:04Z</time>
      </trkpt>
      <trkpt lat="45.84377" lon="4.83128">
        <ele>176.3000031</ele>
        <time>2013-08-31T10:45:05Z</time>
      </trkpt>
      <trkpt lat="45.84383" lon="4.83131">
        <ele>176.6999969</ele>
        <time>2013-08-31T10:45:06Z</time>
      </trkpt>
      <trkpt lat="45.84389" lon="4.83131">
        <ele>177</ele>
        <time>2013-08-31T10:45:07Z</time>
      </trkpt>
      <trkpt lat="45.84396" lon="4.83133">
        <ele>176.8999939</ele>
        <time>2013-08-31T10:45:08Z</time>
      </trkpt>
      <trkpt lat="45.84404" lon="4.83137">
        <ele>177.5</ele>
        <time>2013-08-31T10:45:09Z</time>
      </trkpt>
      <trkpt lat="45.84412" lon="4.83141">
        <ele>178.1999969</ele>
        <time>2013-08-31T10:45:11Z</time>
      </trkpt>
      <trkpt lat="45.84418" lon="4.83142">
        <ele>178.5</ele>
        <time>2013-08-31T10:45:12Z</time>
      </trkpt>
      <trkpt lat="45.84424" lon="4.83147">
        <ele>176.3000031</ele>
        <time>2013-08-31T10:45:13Z</time>
      </trkpt>
      <trkpt lat="45.8443" lon="4.83151">
        <ele>175.6999969</ele>
        <time>2013-08-31T10:45:14Z</time>
      </trkpt>
      <trkpt lat="45.84437" lon="4.8315">
        <ele>176</ele>
        <time>2013-08-31T10:45:15Z</time>
      </trkpt>
      <trkpt lat="45.84446" lon="4.83151">
        <ele>176</ele>
        <time>2013-08-31T10:45:16Z</time>
      </trkpt>
      <trkpt lat="45.84453" lon="4.83153">
        <ele>175.8000031</ele>
        <time>2013-08-31T10:45:17Z</time>
      </trkpt>
      <trkpt lat="45.84458" lon="4.83151">
        <ele>176.3999939</ele>
        <time>2013-08-31T10:45:18Z</time>
      </trkpt>
      <trkpt lat="45.84465" lon="4.83154">
        <ele>176.1000061</ele>
        <time>2013-08-31T10:45:19Z</time>
      </trkpt>
      <trkpt lat="45.84471" lon="4.83153">
        <ele>175.8000031</ele>
        <time>2013-08-31T10:45:20Z</time>
      </trkpt>
      <trkpt lat="45.84478" lon="4.83152">
        <ele>176</ele>
        <time>2013-08-31T10:45:21Z</time>
      </trkpt>
      <trkpt lat="45.84481" lon="4.83152">
        <ele>179.8999939</ele>
        <time>2013-08-31T10:45:22Z</time>
      </trkpt>
      <trkpt lat="45.84486" lon="4.83151">
        <ele>180.3999939</ele>
        <time>2013-08-31T10:45:23Z</time>
      </trkpt>
      <trkpt lat="45.84491" lon="4.8315">
        <ele>180.6999969</ele>
        <time>2013-08-31T10:45:24Z</time>
      </trkpt>
      <trkpt lat="45.84498" lon="4.83151">
        <ele>180.8000031</ele>
        <time>2013-08-31T10:45:25Z</time>
      </trkpt>
      <trkpt lat="45.84504" lon="4.83153">
        <ele>179.8000031</ele>
        <time>2013-08-31T10:45:26Z</time>
      </trkpt>
      <trkpt lat="45.8451" lon="4.8315">
        <ele>180.1999969</ele>
        <time>2013-08-31T10:45:27Z</time>
      </trkpt>
      <trkpt lat="45.84515" lon="4.83147">
        <ele>180.3000031</ele>
        <time>2013-08-31T10:45:28Z</time>
      </trkpt>
      <trkpt lat="45.8452" lon="4.83148">
        <ele>180.1000061</ele>
        <time>2013-08-31T10:45:29Z</time>
      </trkpt>
      <trkpt lat="45.84528" lon="4.83155">
        <ele>177.1999969</ele>
        <time>2013-08-31T10:45:30Z</time>
      </trkpt>
      <trkpt lat="45.84531" lon="4.83155">
        <ele>177.5</ele>
        <time>2013-08-31T10:45:31Z</time>
      </trkpt>
      <trkpt lat="45.84537" lon="4.83155">
        <ele>176.8000031</ele>
        <time>2013-08-31T10:45:32Z</time>
      </trkpt>
      <trkpt lat="45.84542" lon="4.83155">
        <ele>176.3999939</ele>
        <time>2013-08-31T10:45:33Z</time>
      </trkpt>
      <trkpt lat="45.84548" lon="4.83153">
        <ele>176.8000031</ele>
        <time>2013-08-31T10:45:34Z</time>
      </trkpt>
      <trkpt lat="45.84555" lon="4.83151">
        <ele>176.8000031</ele>
        <time>2013-08-31T10:45:35Z</time>
      </trkpt>
      <trkpt lat="45.84561" lon="4.83149">
        <ele>177.1999969</ele>
        <time>2013-08-31T10:45:36Z</time>
      </trkpt>
      <trkpt lat="45.84567" lon="4.83147">
        <ele>177.3999939</ele>
        <time>2013-08-31T10:45:37Z</time>
      </trkpt>
      <trkpt lat="45.84571" lon="4.83149">
        <ele>177.8999939</ele>
        <time>2013-08-31T10:45:38Z</time>
      </trkpt>
      <trkpt lat="45.84577" lon="4.83151">
        <ele>178.1000061</ele>
        <time>2013-08-31T10:45:39Z</time>
      </trkpt>
      <trkpt lat="45.84581" lon="4.83152">
        <ele>178</ele>
        <time>2013-08-31T10:45:40Z</time>
      </trkpt>
      <trkpt lat="45.84587" lon="4.83161">
        <ele>176.8000031</ele>
        <time>2013-08-31T10:45:44Z</time>
      </trkpt>
      <trkpt lat="45.84593" lon="4.83163">
        <ele>175.8999939</ele>
        <time>2013-08-31T10:45:45Z</time>
      </trkpt>
      <trkpt lat="45.84596" lon="4.83164">
        <ele>175.8000031</ele>
        <time>2013-08-31T10:45:47Z</time>
      </trkpt>
      <trkpt lat="45.84604" lon="4.83166">
        <ele>175.1000061</ele>
        <time>2013-08-31T10:45:48Z</time>
      </trkpt>
      <trkpt lat="45.84613" lon="4.8317">
        <ele>174</ele>
        <time>2013-08-31T10:45:50Z</time>
      </trkpt>
      <trkpt lat="45.84619" lon="4.83172">
        <ele>174.5</ele>
        <time>2013-08-31T10:45:51Z</time>
      </trkpt>
      <trkpt lat="45.84624" lon="4.83173">
        <ele>175.1999969</ele>
        <time>2013-08-31T10:45:52Z</time>
      </trkpt>
      <trkpt lat="45.84627" lon="4.83179">
        <ele>174.8999939</ele>
        <time>2013-08-31T10:45:53Z</time>
      </trkpt>
      <trkpt lat="45.84632" lon="4.83184">
        <ele>176.6000061</ele>
        <time>2013-08-31T10:45:55Z</time>
      </trkpt>
      <trkpt lat="45.84636" lon="4.83184">
        <ele>177.6000061</ele>
        <time>2013-08-31T10:45:56Z</time>
      </trkpt>
      <trkpt lat="45.84644" lon="4.83186">
        <ele>175.3999939</ele>
        <time>2013-08-31T10:45:58Z</time>
      </trkpt>
      <trkpt lat="45.84646" lon="4.83186">
        <ele>174.5</ele>
        <time>2013-08-31T10:45:59Z</time>
      </trkpt>
    </trkseg>
  </trk>
</gpx>